<?xml version="1.0" encoding="UTF-8" standalone="no" ?>
<gpx xmlns="http://www.topografix.com/GPX/1/1" xmlns:xsi="http://www.w3.org/2001/XMLSchema-instance" xsi:schemaLocation="http://www.topografix.com/GPX/1/1 http://www.topografix.com/GPX/1/1/gpx.xsd" version="1.1" creator="VisuGPX - https://www.visugpx.com">
  <metadata>
    <name>Rando la dent de Rez</name>
  </metadata>
  <trk>
    <name><![CDATA[Rando la dent de Rez]]></name>
    <extensions>
      <line xmlns="http://www.topografix.com/GPX/gpx_style/0/2">
        <color>0000FF</color>
        <width>4</width>
      </line>
    </extensions>
    <trkseg>
      <trkpt lat="44.42735" lon="4.51425">
        <ele>329.39999389648</ele>
        <time>2013-02-27T12:05:18.000Z</time>
      </trkpt>
      <trkpt lat="44.42736" lon="4.51423">
        <ele>330.39999389648</ele>
        <time>2013-02-27T12:05:19.000Z</time>
      </trkpt>
      <trkpt lat="44.42736" lon="4.51421">
        <ele>331.39999389648</ele>
        <time>2013-02-27T12:05:20.000Z</time>
      </trkpt>
      <trkpt lat="44.42736" lon="4.51422">
        <ele>331.79998779297</ele>
        <time>2013-02-27T12:05:21.000Z</time>
      </trkpt>
      <trkpt lat="44.42735" lon="4.51421">
        <ele>332.20001220703</ele>
        <time>2013-02-27T12:05:22.000Z</time>
      </trkpt>
      <trkpt lat="44.42735" lon="4.51421">
        <ele>332.79998779297</ele>
        <time>2013-02-27T12:05:23.000Z</time>
      </trkpt>
      <trkpt lat="44.42735" lon="4.51419">
        <ele>331.79998779297</ele>
        <time>2013-02-27T12:05:24.000Z</time>
      </trkpt>
      <trkpt lat="44.42734" lon="4.51418">
        <ele>333.20001220703</ele>
        <time>2013-02-27T12:05:25.000Z</time>
      </trkpt>
      <trkpt lat="44.42733" lon="4.51418">
        <ele>334.60000610352</ele>
        <time>2013-02-27T12:05:26.000Z</time>
      </trkpt>
      <trkpt lat="44.42732" lon="4.51417">
        <ele>337</ele>
        <time>2013-02-27T12:05:27.000Z</time>
      </trkpt>
      <trkpt lat="44.42731" lon="4.51416">
        <ele>337</ele>
        <time>2013-02-27T12:05:28.000Z</time>
      </trkpt>
      <trkpt lat="44.4273" lon="4.51415">
        <ele>338</ele>
        <time>2013-02-27T12:05:29.000Z</time>
      </trkpt>
      <trkpt lat="44.4273" lon="4.51414">
        <ele>337</ele>
        <time>2013-02-27T12:05:30.000Z</time>
      </trkpt>
      <trkpt lat="44.42729" lon="4.51412">
        <ele>337</ele>
        <time>2013-02-27T12:05:31.000Z</time>
      </trkpt>
      <trkpt lat="44.42729" lon="4.51411">
        <ele>336.20001220703</ele>
        <time>2013-02-27T12:05:32.000Z</time>
      </trkpt>
      <trkpt lat="44.42728" lon="4.51409">
        <ele>335.20001220703</ele>
        <time>2013-02-27T12:05:33.000Z</time>
      </trkpt>
      <trkpt lat="44.42728" lon="4.51407">
        <ele>335.20001220703</ele>
        <time>2013-02-27T12:05:34.000Z</time>
      </trkpt>
      <trkpt lat="44.42728" lon="4.51406">
        <ele>334.60000610352</ele>
        <time>2013-02-27T12:05:35.000Z</time>
      </trkpt>
      <trkpt lat="44.42728" lon="4.51404">
        <ele>334.60000610352</ele>
        <time>2013-02-27T12:05:36.000Z</time>
      </trkpt>
      <trkpt lat="44.42728" lon="4.51403">
        <ele>334.20001220703</ele>
        <time>2013-02-27T12:05:37.000Z</time>
      </trkpt>
      <trkpt lat="44.42727" lon="4.51401">
        <ele>333.20001220703</ele>
        <time>2013-02-27T12:05:38.000Z</time>
      </trkpt>
      <trkpt lat="44.42726" lon="4.514">
        <ele>332.20001220703</ele>
        <time>2013-02-27T12:05:39.000Z</time>
      </trkpt>
      <trkpt lat="44.42726" lon="4.51399">
        <ele>332.20001220703</ele>
        <time>2013-02-27T12:05:40.000Z</time>
      </trkpt>
      <trkpt lat="44.42725" lon="4.51398">
        <ele>331.79998779297</ele>
        <time>2013-02-27T12:05:41.000Z</time>
      </trkpt>
      <trkpt lat="44.42724" lon="4.51397">
        <ele>331.79998779297</ele>
        <time>2013-02-27T12:05:42.000Z</time>
      </trkpt>
      <trkpt lat="44.42724" lon="4.51395">
        <ele>331.39999389648</ele>
        <time>2013-02-27T12:05:43.000Z</time>
      </trkpt>
      <trkpt lat="44.42724" lon="4.51394">
        <ele>330.79998779297</ele>
        <time>2013-02-27T12:05:44.000Z</time>
      </trkpt>
      <trkpt lat="44.42724" lon="4.51392">
        <ele>330.79998779297</ele>
        <time>2013-02-27T12:05:45.000Z</time>
      </trkpt>
      <trkpt lat="44.42723" lon="4.51391">
        <ele>330.39999389648</ele>
        <time>2013-02-27T12:05:46.000Z</time>
      </trkpt>
      <trkpt lat="44.42723" lon="4.51389">
        <ele>329.79998779297</ele>
        <time>2013-02-27T12:05:47.000Z</time>
      </trkpt>
      <trkpt lat="44.42723" lon="4.51388">
        <ele>329.79998779297</ele>
        <time>2013-02-27T12:05:48.000Z</time>
      </trkpt>
      <trkpt lat="44.42723" lon="4.51386">
        <ele>329.39999389648</ele>
        <time>2013-02-27T12:05:49.000Z</time>
      </trkpt>
      <trkpt lat="44.42722" lon="4.51385">
        <ele>329</ele>
        <time>2013-02-27T12:05:50.000Z</time>
      </trkpt>
      <trkpt lat="44.42721" lon="4.51382">
        <ele>329</ele>
        <time>2013-02-27T12:05:52.000Z</time>
      </trkpt>
      <trkpt lat="44.42721" lon="4.5138">
        <ele>328.39999389648</ele>
        <time>2013-02-27T12:05:53.000Z</time>
      </trkpt>
      <trkpt lat="44.4272" lon="4.51379">
        <ele>328.39999389648</ele>
        <time>2013-02-27T12:05:54.000Z</time>
      </trkpt>
      <trkpt lat="44.4272" lon="4.51377">
        <ele>328.39999389648</ele>
        <time>2013-02-27T12:05:55.000Z</time>
      </trkpt>
      <trkpt lat="44.4272" lon="4.51376">
        <ele>328.39999389648</ele>
        <time>2013-02-27T12:05:56.000Z</time>
      </trkpt>
      <trkpt lat="44.42719" lon="4.51375">
        <ele>328.39999389648</ele>
        <time>2013-02-27T12:05:57.000Z</time>
      </trkpt>
      <trkpt lat="44.42719" lon="4.51373">
        <ele>328.39999389648</ele>
        <time>2013-02-27T12:05:58.000Z</time>
      </trkpt>
      <trkpt lat="44.42718" lon="4.51372">
        <ele>328</ele>
        <time>2013-02-27T12:05:59.000Z</time>
      </trkpt>
      <trkpt lat="44.42718" lon="4.5137">
        <ele>328</ele>
        <time>2013-02-27T12:06:00.000Z</time>
      </trkpt>
      <trkpt lat="44.42717" lon="4.51369">
        <ele>328</ele>
        <time>2013-02-27T12:06:01.000Z</time>
      </trkpt>
      <trkpt lat="44.42713" lon="4.51383">
        <ele>343.39999389648</ele>
        <time>2013-02-27T12:06:02.000Z</time>
      </trkpt>
      <trkpt lat="44.4271" lon="4.51394">
        <ele>355.39999389648</ele>
        <time>2013-02-27T12:06:03.000Z</time>
      </trkpt>
      <trkpt lat="44.42707" lon="4.51403">
        <ele>365.39999389648</ele>
        <time>2013-02-27T12:06:04.000Z</time>
      </trkpt>
      <trkpt lat="44.42705" lon="4.5141">
        <ele>373.60000610352</ele>
        <time>2013-02-27T12:06:05.000Z</time>
      </trkpt>
      <trkpt lat="44.42694" lon="4.51458">
        <ele>422.20001220703</ele>
        <time>2013-02-27T12:06:06.000Z</time>
      </trkpt>
      <trkpt lat="44.42691" lon="4.5147">
        <ele>435.60000610352</ele>
        <time>2013-02-27T12:06:07.000Z</time>
      </trkpt>
      <trkpt lat="44.42689" lon="4.51476">
        <ele>442.39999389648</ele>
        <time>2013-02-27T12:06:08.000Z</time>
      </trkpt>
      <trkpt lat="44.42687" lon="4.51478">
        <ele>446.60000610352</ele>
        <time>2013-02-27T12:06:09.000Z</time>
      </trkpt>
      <trkpt lat="44.42686" lon="4.5148">
        <ele>449</ele>
        <time>2013-02-27T12:06:10.000Z</time>
      </trkpt>
      <trkpt lat="44.42685" lon="4.5148">
        <ele>451.39999389648</ele>
        <time>2013-02-27T12:06:11.000Z</time>
      </trkpt>
      <trkpt lat="44.42684" lon="4.51481">
        <ele>453</ele>
        <time>2013-02-27T12:06:12.000Z</time>
      </trkpt>
      <trkpt lat="44.42683" lon="4.51481">
        <ele>454.39999389648</ele>
        <time>2013-02-27T12:06:13.000Z</time>
      </trkpt>
      <trkpt lat="44.42681" lon="4.51481">
        <ele>455.39999389648</ele>
        <time>2013-02-27T12:06:14.000Z</time>
      </trkpt>
      <trkpt lat="44.4268" lon="4.51481">
        <ele>456.79998779297</ele>
        <time>2013-02-27T12:06:15.000Z</time>
      </trkpt>
      <trkpt lat="44.42679" lon="4.51481">
        <ele>457.79998779297</ele>
        <time>2013-02-27T12:06:16.000Z</time>
      </trkpt>
      <trkpt lat="44.42679" lon="4.5148">
        <ele>458.60000610352</ele>
        <time>2013-02-27T12:06:17.000Z</time>
      </trkpt>
      <trkpt lat="44.42678" lon="4.51478">
        <ele>460.20001220703</ele>
        <time>2013-02-27T12:06:18.000Z</time>
      </trkpt>
      <trkpt lat="44.42677" lon="4.51477">
        <ele>461.60000610352</ele>
        <time>2013-02-27T12:06:19.000Z</time>
      </trkpt>
      <trkpt lat="44.42676" lon="4.51476">
        <ele>462.60000610352</ele>
        <time>2013-02-27T12:06:20.000Z</time>
      </trkpt>
      <trkpt lat="44.42675" lon="4.51476">
        <ele>463</ele>
        <time>2013-02-27T12:06:21.000Z</time>
      </trkpt>
      <trkpt lat="44.42675" lon="4.51474">
        <ele>463.39999389648</ele>
        <time>2013-02-27T12:06:22.000Z</time>
      </trkpt>
      <trkpt lat="44.42674" lon="4.51473">
        <ele>463.39999389648</ele>
        <time>2013-02-27T12:06:23.000Z</time>
      </trkpt>
      <trkpt lat="44.42673" lon="4.51473">
        <ele>464</ele>
        <time>2013-02-27T12:06:24.000Z</time>
      </trkpt>
      <trkpt lat="44.42671" lon="4.51473">
        <ele>464.39999389648</ele>
        <time>2013-02-27T12:06:25.000Z</time>
      </trkpt>
      <trkpt lat="44.4267" lon="4.51473">
        <ele>464</ele>
        <time>2013-02-27T12:06:26.000Z</time>
      </trkpt>
      <trkpt lat="44.42669" lon="4.51475">
        <ele>464.39999389648</ele>
        <time>2013-02-27T12:06:27.000Z</time>
      </trkpt>
      <trkpt lat="44.42668" lon="4.51475">
        <ele>465</ele>
        <time>2013-02-27T12:06:28.000Z</time>
      </trkpt>
      <trkpt lat="44.42666" lon="4.51474">
        <ele>465.39999389648</ele>
        <time>2013-02-27T12:06:29.000Z</time>
      </trkpt>
      <trkpt lat="44.42666" lon="4.51473">
        <ele>465.79998779297</ele>
        <time>2013-02-27T12:06:30.000Z</time>
      </trkpt>
      <trkpt lat="44.42664" lon="4.51473">
        <ele>466.79998779297</ele>
        <time>2013-02-27T12:06:31.000Z</time>
      </trkpt>
      <trkpt lat="44.42663" lon="4.51473">
        <ele>467.39999389648</ele>
        <time>2013-02-27T12:06:32.000Z</time>
      </trkpt>
      <trkpt lat="44.42662" lon="4.51473">
        <ele>467.39999389648</ele>
        <time>2013-02-27T12:06:33.000Z</time>
      </trkpt>
      <trkpt lat="44.42662" lon="4.51473">
        <ele>467.39999389648</ele>
        <time>2013-02-27T12:06:34.000Z</time>
      </trkpt>
      <trkpt lat="44.42661" lon="4.51473">
        <ele>467.39999389648</ele>
        <time>2013-02-27T12:06:35.000Z</time>
      </trkpt>
      <trkpt lat="44.4266" lon="4.51472">
        <ele>467.39999389648</ele>
        <time>2013-02-27T12:06:36.000Z</time>
      </trkpt>
      <trkpt lat="44.4266" lon="4.51471">
        <ele>467.79998779297</ele>
        <time>2013-02-27T12:06:37.000Z</time>
      </trkpt>
      <trkpt lat="44.42659" lon="4.5147">
        <ele>467.79998779297</ele>
        <time>2013-02-27T12:06:38.000Z</time>
      </trkpt>
      <trkpt lat="44.42658" lon="4.51469">
        <ele>467.79998779297</ele>
        <time>2013-02-27T12:06:39.000Z</time>
      </trkpt>
      <trkpt lat="44.42658" lon="4.51467">
        <ele>467.79998779297</ele>
        <time>2013-02-27T12:06:40.000Z</time>
      </trkpt>
      <trkpt lat="44.42657" lon="4.51466">
        <ele>467.79998779297</ele>
        <time>2013-02-27T12:06:41.000Z</time>
      </trkpt>
      <trkpt lat="44.42657" lon="4.51466">
        <ele>468.20001220703</ele>
        <time>2013-02-27T12:06:42.000Z</time>
      </trkpt>
      <trkpt lat="44.42657" lon="4.51465">
        <ele>468.20001220703</ele>
        <time>2013-02-27T12:06:43.000Z</time>
      </trkpt>
      <trkpt lat="44.42657" lon="4.51466">
        <ele>468.79998779297</ele>
        <time>2013-02-27T12:06:44.000Z</time>
      </trkpt>
      <trkpt lat="44.42657" lon="4.51466">
        <ele>469.20001220703</ele>
        <time>2013-02-27T12:06:45.000Z</time>
      </trkpt>
      <trkpt lat="44.42657" lon="4.51466">
        <ele>469.20001220703</ele>
        <time>2013-02-27T12:06:46.000Z</time>
      </trkpt>
      <trkpt lat="44.42657" lon="4.51466">
        <ele>469.20001220703</ele>
        <time>2013-02-27T12:06:47.000Z</time>
      </trkpt>
      <trkpt lat="44.42657" lon="4.51466">
        <ele>469.20001220703</ele>
        <time>2013-02-27T12:06:48.000Z</time>
      </trkpt>
      <trkpt lat="44.42657" lon="4.51467">
        <ele>469.79998779297</ele>
        <time>2013-02-27T12:06:49.000Z</time>
      </trkpt>
      <trkpt lat="44.42657" lon="4.51468">
        <ele>470.20001220703</ele>
        <time>2013-02-27T12:06:50.000Z</time>
      </trkpt>
      <trkpt lat="44.42657" lon="4.51469">
        <ele>470.79998779297</ele>
        <time>2013-02-27T12:06:51.000Z</time>
      </trkpt>
      <trkpt lat="44.42657" lon="4.51469">
        <ele>470.79998779297</ele>
        <time>2013-02-27T12:06:52.000Z</time>
      </trkpt>
      <trkpt lat="44.42657" lon="4.5147">
        <ele>471.20001220703</ele>
        <time>2013-02-27T12:06:53.000Z</time>
      </trkpt>
      <trkpt lat="44.42656" lon="4.5147">
        <ele>471.20001220703</ele>
        <time>2013-02-27T12:06:54.000Z</time>
      </trkpt>
      <trkpt lat="44.42656" lon="4.5147">
        <ele>471.20001220703</ele>
        <time>2013-02-27T12:06:55.000Z</time>
      </trkpt>
      <trkpt lat="44.42656" lon="4.5147">
        <ele>471.60000610352</ele>
        <time>2013-02-27T12:06:56.000Z</time>
      </trkpt>
      <trkpt lat="44.42656" lon="4.5147">
        <ele>471.60000610352</ele>
        <time>2013-02-27T12:06:57.000Z</time>
      </trkpt>
      <trkpt lat="44.42656" lon="4.51471">
        <ele>472.20001220703</ele>
        <time>2013-02-27T12:06:58.000Z</time>
      </trkpt>
      <trkpt lat="44.42655" lon="4.51472">
        <ele>473.60000610352</ele>
        <time>2013-02-27T12:06:59.000Z</time>
      </trkpt>
      <trkpt lat="44.42654" lon="4.51474">
        <ele>477</ele>
        <time>2013-02-27T12:07:00.000Z</time>
      </trkpt>
      <trkpt lat="44.42652" lon="4.51476">
        <ele>480.39999389648</ele>
        <time>2013-02-27T12:07:01.000Z</time>
      </trkpt>
      <trkpt lat="44.42652" lon="4.51476">
        <ele>479.79998779297</ele>
        <time>2013-02-27T12:07:02.000Z</time>
      </trkpt>
      <trkpt lat="44.42652" lon="4.51476">
        <ele>479.79998779297</ele>
        <time>2013-02-27T12:07:03.000Z</time>
      </trkpt>
      <trkpt lat="44.42652" lon="4.51476">
        <ele>479.79998779297</ele>
        <time>2013-02-27T12:07:04.000Z</time>
      </trkpt>
      <trkpt lat="44.42652" lon="4.51476">
        <ele>479.79998779297</ele>
        <time>2013-02-27T12:07:05.000Z</time>
      </trkpt>
      <trkpt lat="44.42653" lon="4.51476">
        <ele>479.39999389648</ele>
        <time>2013-02-27T12:07:06.000Z</time>
      </trkpt>
      <trkpt lat="44.42653" lon="4.51476">
        <ele>478.79998779297</ele>
        <time>2013-02-27T12:07:07.000Z</time>
      </trkpt>
      <trkpt lat="44.42653" lon="4.51476">
        <ele>478.39999389648</ele>
        <time>2013-02-27T12:07:08.000Z</time>
      </trkpt>
      <trkpt lat="44.42653" lon="4.51475">
        <ele>478</ele>
        <time>2013-02-27T12:07:09.000Z</time>
      </trkpt>
      <trkpt lat="44.42653" lon="4.51476">
        <ele>478</ele>
        <time>2013-02-27T12:07:10.000Z</time>
      </trkpt>
      <trkpt lat="44.42653" lon="4.51477">
        <ele>478</ele>
        <time>2013-02-27T12:07:11.000Z</time>
      </trkpt>
      <trkpt lat="44.42653" lon="4.51477">
        <ele>478</ele>
        <time>2013-02-27T12:07:12.000Z</time>
      </trkpt>
      <trkpt lat="44.42653" lon="4.51477">
        <ele>478</ele>
        <time>2013-02-27T12:07:13.000Z</time>
      </trkpt>
      <trkpt lat="44.42653" lon="4.51478">
        <ele>478</ele>
        <time>2013-02-27T12:07:14.000Z</time>
      </trkpt>
      <trkpt lat="44.42653" lon="4.51478">
        <ele>477.39999389648</ele>
        <time>2013-02-27T12:07:15.000Z</time>
      </trkpt>
      <trkpt lat="44.42653" lon="4.51477">
        <ele>477</ele>
        <time>2013-02-27T12:07:16.000Z</time>
      </trkpt>
      <trkpt lat="44.42653" lon="4.51477">
        <ele>477</ele>
        <time>2013-02-27T12:07:17.000Z</time>
      </trkpt>
      <trkpt lat="44.42654" lon="4.51477">
        <ele>476.39999389648</ele>
        <time>2013-02-27T12:07:18.000Z</time>
      </trkpt>
      <trkpt lat="44.42654" lon="4.51475">
        <ele>475.60000610352</ele>
        <time>2013-02-27T12:07:19.000Z</time>
      </trkpt>
      <trkpt lat="44.42654" lon="4.51474">
        <ele>474.60000610352</ele>
        <time>2013-02-27T12:07:20.000Z</time>
      </trkpt>
      <trkpt lat="44.42655" lon="4.51474">
        <ele>473.60000610352</ele>
        <time>2013-02-27T12:07:21.000Z</time>
      </trkpt>
      <trkpt lat="44.42655" lon="4.51473">
        <ele>472.60000610352</ele>
        <time>2013-02-27T12:07:22.000Z</time>
      </trkpt>
      <trkpt lat="44.42655" lon="4.51473">
        <ele>472.20001220703</ele>
        <time>2013-02-27T12:07:23.000Z</time>
      </trkpt>
      <trkpt lat="44.42656" lon="4.51472">
        <ele>471.60000610352</ele>
        <time>2013-02-27T12:07:24.000Z</time>
      </trkpt>
      <trkpt lat="44.42656" lon="4.51472">
        <ele>471.20001220703</ele>
        <time>2013-02-27T12:07:25.000Z</time>
      </trkpt>
      <trkpt lat="44.42656" lon="4.51472">
        <ele>470.79998779297</ele>
        <time>2013-02-27T12:07:26.000Z</time>
      </trkpt>
      <trkpt lat="44.42656" lon="4.51472">
        <ele>470.20001220703</ele>
        <time>2013-02-27T12:07:27.000Z</time>
      </trkpt>
      <trkpt lat="44.42656" lon="4.51471">
        <ele>469.20001220703</ele>
        <time>2013-02-27T12:07:28.000Z</time>
      </trkpt>
      <trkpt lat="44.42656" lon="4.51469">
        <ele>468.79998779297</ele>
        <time>2013-02-27T12:07:29.000Z</time>
      </trkpt>
      <trkpt lat="44.42656" lon="4.51467">
        <ele>468.20001220703</ele>
        <time>2013-02-27T12:07:30.000Z</time>
      </trkpt>
      <trkpt lat="44.42656" lon="4.51465">
        <ele>468.20001220703</ele>
        <time>2013-02-27T12:07:31.000Z</time>
      </trkpt>
      <trkpt lat="44.42655" lon="4.51464">
        <ele>467.79998779297</ele>
        <time>2013-02-27T12:07:32.000Z</time>
      </trkpt>
      <trkpt lat="44.42655" lon="4.51462">
        <ele>467.79998779297</ele>
        <time>2013-02-27T12:07:33.000Z</time>
      </trkpt>
      <trkpt lat="44.42655" lon="4.5146">
        <ele>467.39999389648</ele>
        <time>2013-02-27T12:07:34.000Z</time>
      </trkpt>
      <trkpt lat="44.42655" lon="4.51458">
        <ele>466.79998779297</ele>
        <time>2013-02-27T12:07:35.000Z</time>
      </trkpt>
      <trkpt lat="44.42654" lon="4.51456">
        <ele>466.39999389648</ele>
        <time>2013-02-27T12:07:36.000Z</time>
      </trkpt>
      <trkpt lat="44.42654" lon="4.51454">
        <ele>466.39999389648</ele>
        <time>2013-02-27T12:07:37.000Z</time>
      </trkpt>
      <trkpt lat="44.42653" lon="4.51453">
        <ele>466.79998779297</ele>
        <time>2013-02-27T12:07:38.000Z</time>
      </trkpt>
      <trkpt lat="44.42653" lon="4.51452">
        <ele>467.39999389648</ele>
        <time>2013-02-27T12:07:39.000Z</time>
      </trkpt>
      <trkpt lat="44.42653" lon="4.5145">
        <ele>467.39999389648</ele>
        <time>2013-02-27T12:07:40.000Z</time>
      </trkpt>
      <trkpt lat="44.42652" lon="4.51449">
        <ele>467.39999389648</ele>
        <time>2013-02-27T12:07:41.000Z</time>
      </trkpt>
      <trkpt lat="44.42652" lon="4.51447">
        <ele>466.79998779297</ele>
        <time>2013-02-27T12:07:42.000Z</time>
      </trkpt>
      <trkpt lat="44.42652" lon="4.51446">
        <ele>466.79998779297</ele>
        <time>2013-02-27T12:07:43.000Z</time>
      </trkpt>
      <trkpt lat="44.42651" lon="4.51445">
        <ele>466.79998779297</ele>
        <time>2013-02-27T12:07:44.000Z</time>
      </trkpt>
      <trkpt lat="44.42651" lon="4.51443">
        <ele>466.79998779297</ele>
        <time>2013-02-27T12:07:45.000Z</time>
      </trkpt>
      <trkpt lat="44.4265" lon="4.51442">
        <ele>466.79998779297</ele>
        <time>2013-02-27T12:07:46.000Z</time>
      </trkpt>
      <trkpt lat="44.4265" lon="4.5144">
        <ele>466.79998779297</ele>
        <time>2013-02-27T12:07:47.000Z</time>
      </trkpt>
      <trkpt lat="44.4265" lon="4.51439">
        <ele>466.79998779297</ele>
        <time>2013-02-27T12:07:48.000Z</time>
      </trkpt>
      <trkpt lat="44.42649" lon="4.51438">
        <ele>466.79998779297</ele>
        <time>2013-02-27T12:07:49.000Z</time>
      </trkpt>
      <trkpt lat="44.42649" lon="4.51437">
        <ele>466.79998779297</ele>
        <time>2013-02-27T12:07:50.000Z</time>
      </trkpt>
      <trkpt lat="44.42648" lon="4.51436">
        <ele>467.39999389648</ele>
        <time>2013-02-27T12:07:51.000Z</time>
      </trkpt>
      <trkpt lat="44.42648" lon="4.51434">
        <ele>467.39999389648</ele>
        <time>2013-02-27T12:07:52.000Z</time>
      </trkpt>
      <trkpt lat="44.42647" lon="4.51433">
        <ele>467.39999389648</ele>
        <time>2013-02-27T12:07:53.000Z</time>
      </trkpt>
      <trkpt lat="44.42647" lon="4.51432">
        <ele>467.79998779297</ele>
        <time>2013-02-27T12:07:54.000Z</time>
      </trkpt>
      <trkpt lat="44.42647" lon="4.51431">
        <ele>468.20001220703</ele>
        <time>2013-02-27T12:07:55.000Z</time>
      </trkpt>
      <trkpt lat="44.42647" lon="4.51431">
        <ele>468.20001220703</ele>
        <time>2013-02-27T12:07:56.000Z</time>
      </trkpt>
      <trkpt lat="44.42647" lon="4.51432">
        <ele>468.79998779297</ele>
        <time>2013-02-27T12:07:57.000Z</time>
      </trkpt>
      <trkpt lat="44.42648" lon="4.51433">
        <ele>468.79998779297</ele>
        <time>2013-02-27T12:07:58.000Z</time>
      </trkpt>
      <trkpt lat="44.42649" lon="4.51435">
        <ele>469.20001220703</ele>
        <time>2013-02-27T12:07:59.000Z</time>
      </trkpt>
      <trkpt lat="44.4265" lon="4.51436">
        <ele>469.20001220703</ele>
        <time>2013-02-27T12:08:00.000Z</time>
      </trkpt>
      <trkpt lat="44.4265" lon="4.51437">
        <ele>469.20001220703</ele>
        <time>2013-02-27T12:08:01.000Z</time>
      </trkpt>
      <trkpt lat="44.4265" lon="4.51438">
        <ele>469.20001220703</ele>
        <time>2013-02-27T12:08:02.000Z</time>
      </trkpt>
      <trkpt lat="44.42651" lon="4.51439">
        <ele>469.20001220703</ele>
        <time>2013-02-27T12:08:03.000Z</time>
      </trkpt>
      <trkpt lat="44.42652" lon="4.5144">
        <ele>469.20001220703</ele>
        <time>2013-02-27T12:08:04.000Z</time>
      </trkpt>
      <trkpt lat="44.42652" lon="4.51442">
        <ele>469.20001220703</ele>
        <time>2013-02-27T12:08:05.000Z</time>
      </trkpt>
      <trkpt lat="44.42653" lon="4.51444">
        <ele>469.20001220703</ele>
        <time>2013-02-27T12:08:06.000Z</time>
      </trkpt>
      <trkpt lat="44.42653" lon="4.51446">
        <ele>469.20001220703</ele>
        <time>2013-02-27T12:08:07.000Z</time>
      </trkpt>
      <trkpt lat="44.42654" lon="4.51448">
        <ele>469.20001220703</ele>
        <time>2013-02-27T12:08:08.000Z</time>
      </trkpt>
      <trkpt lat="44.42655" lon="4.5145">
        <ele>469.20001220703</ele>
        <time>2013-02-27T12:08:09.000Z</time>
      </trkpt>
      <trkpt lat="44.42656" lon="4.51452">
        <ele>469.20001220703</ele>
        <time>2013-02-27T12:08:10.000Z</time>
      </trkpt>
      <trkpt lat="44.42656" lon="4.51454">
        <ele>469.20001220703</ele>
        <time>2013-02-27T12:08:11.000Z</time>
      </trkpt>
      <trkpt lat="44.42657" lon="4.51456">
        <ele>469.20001220703</ele>
        <time>2013-02-27T12:08:12.000Z</time>
      </trkpt>
      <trkpt lat="44.42658" lon="4.51458">
        <ele>469.20001220703</ele>
        <time>2013-02-27T12:08:13.000Z</time>
      </trkpt>
      <trkpt lat="44.42658" lon="4.5146">
        <ele>469.20001220703</ele>
        <time>2013-02-27T12:08:14.000Z</time>
      </trkpt>
      <trkpt lat="44.42658" lon="4.51462">
        <ele>469.20001220703</ele>
        <time>2013-02-27T12:08:15.000Z</time>
      </trkpt>
      <trkpt lat="44.42658" lon="4.51464">
        <ele>469.20001220703</ele>
        <time>2013-02-27T12:08:16.000Z</time>
      </trkpt>
      <trkpt lat="44.42658" lon="4.51466">
        <ele>469.20001220703</ele>
        <time>2013-02-27T12:08:17.000Z</time>
      </trkpt>
      <trkpt lat="44.42658" lon="4.51468">
        <ele>469.20001220703</ele>
        <time>2013-02-27T12:08:18.000Z</time>
      </trkpt>
      <trkpt lat="44.42657" lon="4.5147">
        <ele>469.20001220703</ele>
        <time>2013-02-27T12:08:19.000Z</time>
      </trkpt>
      <trkpt lat="44.42656" lon="4.51472">
        <ele>469.20001220703</ele>
        <time>2013-02-27T12:08:20.000Z</time>
      </trkpt>
      <trkpt lat="44.42656" lon="4.51473">
        <ele>469.20001220703</ele>
        <time>2013-02-27T12:08:21.000Z</time>
      </trkpt>
      <trkpt lat="44.42655" lon="4.51475">
        <ele>469.20001220703</ele>
        <time>2013-02-27T12:08:22.000Z</time>
      </trkpt>
      <trkpt lat="44.42654" lon="4.51477">
        <ele>469.20001220703</ele>
        <time>2013-02-27T12:08:23.000Z</time>
      </trkpt>
      <trkpt lat="44.42653" lon="4.51478">
        <ele>469.20001220703</ele>
        <time>2013-02-27T12:08:24.000Z</time>
      </trkpt>
      <trkpt lat="44.42652" lon="4.51479">
        <ele>469.79998779297</ele>
        <time>2013-02-27T12:08:25.000Z</time>
      </trkpt>
      <trkpt lat="44.42651" lon="4.5148">
        <ele>469.20001220703</ele>
        <time>2013-02-27T12:08:26.000Z</time>
      </trkpt>
      <trkpt lat="44.4265" lon="4.51481">
        <ele>469.79998779297</ele>
        <time>2013-02-27T12:08:27.000Z</time>
      </trkpt>
      <trkpt lat="44.42648" lon="4.51482">
        <ele>469.79998779297</ele>
        <time>2013-02-27T12:08:28.000Z</time>
      </trkpt>
      <trkpt lat="44.42647" lon="4.51483">
        <ele>469.79998779297</ele>
        <time>2013-02-27T12:08:29.000Z</time>
      </trkpt>
      <trkpt lat="44.42646" lon="4.51484">
        <ele>469.79998779297</ele>
        <time>2013-02-27T12:08:30.000Z</time>
      </trkpt>
      <trkpt lat="44.42645" lon="4.51485">
        <ele>469.79998779297</ele>
        <time>2013-02-27T12:08:31.000Z</time>
      </trkpt>
      <trkpt lat="44.42643" lon="4.51485">
        <ele>470.20001220703</ele>
        <time>2013-02-27T12:08:32.000Z</time>
      </trkpt>
      <trkpt lat="44.42642" lon="4.51486">
        <ele>470.20001220703</ele>
        <time>2013-02-27T12:08:33.000Z</time>
      </trkpt>
      <trkpt lat="44.42641" lon="4.51486">
        <ele>470.20001220703</ele>
        <time>2013-02-27T12:08:34.000Z</time>
      </trkpt>
      <trkpt lat="44.42639" lon="4.51487">
        <ele>470.79998779297</ele>
        <time>2013-02-27T12:08:35.000Z</time>
      </trkpt>
      <trkpt lat="44.42638" lon="4.51488">
        <ele>470.20001220703</ele>
        <time>2013-02-27T12:08:36.000Z</time>
      </trkpt>
      <trkpt lat="44.42637" lon="4.51488">
        <ele>470.79998779297</ele>
        <time>2013-02-27T12:08:37.000Z</time>
      </trkpt>
      <trkpt lat="44.42636" lon="4.51489">
        <ele>470.79998779297</ele>
        <time>2013-02-27T12:08:38.000Z</time>
      </trkpt>
      <trkpt lat="44.42635" lon="4.51489">
        <ele>470.79998779297</ele>
        <time>2013-02-27T12:08:39.000Z</time>
      </trkpt>
      <trkpt lat="44.42633" lon="4.51489">
        <ele>470.79998779297</ele>
        <time>2013-02-27T12:08:40.000Z</time>
      </trkpt>
      <trkpt lat="44.42632" lon="4.51488">
        <ele>470.79998779297</ele>
        <time>2013-02-27T12:08:41.000Z</time>
      </trkpt>
      <trkpt lat="44.42631" lon="4.51488">
        <ele>470.79998779297</ele>
        <time>2013-02-27T12:08:42.000Z</time>
      </trkpt>
      <trkpt lat="44.4263" lon="4.51488">
        <ele>470.79998779297</ele>
        <time>2013-02-27T12:08:43.000Z</time>
      </trkpt>
      <trkpt lat="44.42629" lon="4.51488">
        <ele>470.20001220703</ele>
        <time>2013-02-27T12:08:44.000Z</time>
      </trkpt>
      <trkpt lat="44.42627" lon="4.51489">
        <ele>470.20001220703</ele>
        <time>2013-02-27T12:08:45.000Z</time>
      </trkpt>
      <trkpt lat="44.42626" lon="4.51489">
        <ele>470.79998779297</ele>
        <time>2013-02-27T12:08:46.000Z</time>
      </trkpt>
      <trkpt lat="44.42624" lon="4.5149">
        <ele>470.79998779297</ele>
        <time>2013-02-27T12:08:47.000Z</time>
      </trkpt>
      <trkpt lat="44.42623" lon="4.5149">
        <ele>471.20001220703</ele>
        <time>2013-02-27T12:08:48.000Z</time>
      </trkpt>
      <trkpt lat="44.42621" lon="4.5149">
        <ele>470.79998779297</ele>
        <time>2013-02-27T12:08:49.000Z</time>
      </trkpt>
      <trkpt lat="44.4262" lon="4.5149">
        <ele>470.79998779297</ele>
        <time>2013-02-27T12:08:50.000Z</time>
      </trkpt>
      <trkpt lat="44.42619" lon="4.5149">
        <ele>470.79998779297</ele>
        <time>2013-02-27T12:08:51.000Z</time>
      </trkpt>
      <trkpt lat="44.42617" lon="4.51491">
        <ele>470.79998779297</ele>
        <time>2013-02-27T12:08:52.000Z</time>
      </trkpt>
      <trkpt lat="44.42616" lon="4.51491">
        <ele>471.20001220703</ele>
        <time>2013-02-27T12:08:53.000Z</time>
      </trkpt>
      <trkpt lat="44.42614" lon="4.51492">
        <ele>471.20001220703</ele>
        <time>2013-02-27T12:08:54.000Z</time>
      </trkpt>
      <trkpt lat="44.42613" lon="4.51492">
        <ele>471.20001220703</ele>
        <time>2013-02-27T12:08:55.000Z</time>
      </trkpt>
      <trkpt lat="44.42612" lon="4.51492">
        <ele>471.60000610352</ele>
        <time>2013-02-27T12:08:56.000Z</time>
      </trkpt>
      <trkpt lat="44.4261" lon="4.51493">
        <ele>471.60000610352</ele>
        <time>2013-02-27T12:08:57.000Z</time>
      </trkpt>
      <trkpt lat="44.42609" lon="4.51493">
        <ele>471.60000610352</ele>
        <time>2013-02-27T12:08:58.000Z</time>
      </trkpt>
      <trkpt lat="44.42607" lon="4.51493">
        <ele>471.60000610352</ele>
        <time>2013-02-27T12:08:59.000Z</time>
      </trkpt>
      <trkpt lat="44.42606" lon="4.51493">
        <ele>471.60000610352</ele>
        <time>2013-02-27T12:09:00.000Z</time>
      </trkpt>
      <trkpt lat="44.42605" lon="4.51492">
        <ele>471.60000610352</ele>
        <time>2013-02-27T12:09:01.000Z</time>
      </trkpt>
      <trkpt lat="44.42603" lon="4.51492">
        <ele>471.60000610352</ele>
        <time>2013-02-27T12:09:02.000Z</time>
      </trkpt>
      <trkpt lat="44.42602" lon="4.51491">
        <ele>471.60000610352</ele>
        <time>2013-02-27T12:09:03.000Z</time>
      </trkpt>
      <trkpt lat="44.42601" lon="4.51491">
        <ele>471.60000610352</ele>
        <time>2013-02-27T12:09:04.000Z</time>
      </trkpt>
      <trkpt lat="44.426" lon="4.5149">
        <ele>471.60000610352</ele>
        <time>2013-02-27T12:09:05.000Z</time>
      </trkpt>
      <trkpt lat="44.42598" lon="4.5149">
        <ele>471.20001220703</ele>
        <time>2013-02-27T12:09:06.000Z</time>
      </trkpt>
      <trkpt lat="44.42597" lon="4.5149">
        <ele>471.60000610352</ele>
        <time>2013-02-27T12:09:07.000Z</time>
      </trkpt>
      <trkpt lat="44.42596" lon="4.5149">
        <ele>471.20001220703</ele>
        <time>2013-02-27T12:09:08.000Z</time>
      </trkpt>
      <trkpt lat="44.42594" lon="4.5149">
        <ele>471.20001220703</ele>
        <time>2013-02-27T12:09:09.000Z</time>
      </trkpt>
      <trkpt lat="44.42593" lon="4.51489">
        <ele>471.20001220703</ele>
        <time>2013-02-27T12:09:10.000Z</time>
      </trkpt>
      <trkpt lat="44.42591" lon="4.51488">
        <ele>471.60000610352</ele>
        <time>2013-02-27T12:09:11.000Z</time>
      </trkpt>
      <trkpt lat="44.4259" lon="4.51487">
        <ele>471.60000610352</ele>
        <time>2013-02-27T12:09:12.000Z</time>
      </trkpt>
      <trkpt lat="44.42589" lon="4.51486">
        <ele>472.20001220703</ele>
        <time>2013-02-27T12:09:13.000Z</time>
      </trkpt>
      <trkpt lat="44.42588" lon="4.51485">
        <ele>472.20001220703</ele>
        <time>2013-02-27T12:09:14.000Z</time>
      </trkpt>
      <trkpt lat="44.42588" lon="4.51485">
        <ele>472.20001220703</ele>
        <time>2013-02-27T12:09:15.000Z</time>
      </trkpt>
      <trkpt lat="44.42587" lon="4.51483">
        <ele>472.20001220703</ele>
        <time>2013-02-27T12:09:16.000Z</time>
      </trkpt>
      <trkpt lat="44.42587" lon="4.51481">
        <ele>471.60000610352</ele>
        <time>2013-02-27T12:09:17.000Z</time>
      </trkpt>
      <trkpt lat="44.42587" lon="4.51479">
        <ele>471.60000610352</ele>
        <time>2013-02-27T12:09:18.000Z</time>
      </trkpt>
      <trkpt lat="44.42587" lon="4.51477">
        <ele>472.20001220703</ele>
        <time>2013-02-27T12:09:19.000Z</time>
      </trkpt>
      <trkpt lat="44.42587" lon="4.51476">
        <ele>472.60000610352</ele>
        <time>2013-02-27T12:09:20.000Z</time>
      </trkpt>
      <trkpt lat="44.42587" lon="4.51474">
        <ele>472.60000610352</ele>
        <time>2013-02-27T12:09:21.000Z</time>
      </trkpt>
      <trkpt lat="44.42587" lon="4.51472">
        <ele>472.60000610352</ele>
        <time>2013-02-27T12:09:22.000Z</time>
      </trkpt>
      <trkpt lat="44.42587" lon="4.5147">
        <ele>471.60000610352</ele>
        <time>2013-02-27T12:09:23.000Z</time>
      </trkpt>
      <trkpt lat="44.42588" lon="4.51468">
        <ele>471.20001220703</ele>
        <time>2013-02-27T12:09:24.000Z</time>
      </trkpt>
      <trkpt lat="44.42588" lon="4.51466">
        <ele>472.20001220703</ele>
        <time>2013-02-27T12:09:25.000Z</time>
      </trkpt>
      <trkpt lat="44.42589" lon="4.51465">
        <ele>472.60000610352</ele>
        <time>2013-02-27T12:09:26.000Z</time>
      </trkpt>
      <trkpt lat="44.42589" lon="4.51463">
        <ele>472.60000610352</ele>
        <time>2013-02-27T12:09:27.000Z</time>
      </trkpt>
      <trkpt lat="44.4259" lon="4.51462">
        <ele>473.20001220703</ele>
        <time>2013-02-27T12:09:28.000Z</time>
      </trkpt>
      <trkpt lat="44.42592" lon="4.5146">
        <ele>473.60000610352</ele>
        <time>2013-02-27T12:09:29.000Z</time>
      </trkpt>
      <trkpt lat="44.42592" lon="4.51458">
        <ele>473.60000610352</ele>
        <time>2013-02-27T12:09:30.000Z</time>
      </trkpt>
      <trkpt lat="44.42594" lon="4.51456">
        <ele>473.60000610352</ele>
        <time>2013-02-27T12:09:31.000Z</time>
      </trkpt>
      <trkpt lat="44.42595" lon="4.51455">
        <ele>473.60000610352</ele>
        <time>2013-02-27T12:09:32.000Z</time>
      </trkpt>
      <trkpt lat="44.42596" lon="4.51454">
        <ele>474</ele>
        <time>2013-02-27T12:09:33.000Z</time>
      </trkpt>
      <trkpt lat="44.42597" lon="4.51453">
        <ele>474.60000610352</ele>
        <time>2013-02-27T12:09:34.000Z</time>
      </trkpt>
      <trkpt lat="44.42598" lon="4.51452">
        <ele>475</ele>
        <time>2013-02-27T12:09:35.000Z</time>
      </trkpt>
      <trkpt lat="44.42598" lon="4.5145">
        <ele>475</ele>
        <time>2013-02-27T12:09:36.000Z</time>
      </trkpt>
      <trkpt lat="44.42599" lon="4.51449">
        <ele>475.60000610352</ele>
        <time>2013-02-27T12:09:37.000Z</time>
      </trkpt>
      <trkpt lat="44.426" lon="4.51448">
        <ele>475.60000610352</ele>
        <time>2013-02-27T12:09:38.000Z</time>
      </trkpt>
      <trkpt lat="44.42601" lon="4.51446">
        <ele>475.60000610352</ele>
        <time>2013-02-27T12:09:39.000Z</time>
      </trkpt>
      <trkpt lat="44.42602" lon="4.51445">
        <ele>475.60000610352</ele>
        <time>2013-02-27T12:09:40.000Z</time>
      </trkpt>
      <trkpt lat="44.42603" lon="4.51444">
        <ele>475.60000610352</ele>
        <time>2013-02-27T12:09:41.000Z</time>
      </trkpt>
      <trkpt lat="44.42604" lon="4.51442">
        <ele>476</ele>
        <time>2013-02-27T12:09:42.000Z</time>
      </trkpt>
      <trkpt lat="44.42605" lon="4.51441">
        <ele>476</ele>
        <time>2013-02-27T12:09:43.000Z</time>
      </trkpt>
      <trkpt lat="44.42606" lon="4.5144">
        <ele>476.39999389648</ele>
        <time>2013-02-27T12:09:44.000Z</time>
      </trkpt>
      <trkpt lat="44.42607" lon="4.51438">
        <ele>476.39999389648</ele>
        <time>2013-02-27T12:09:45.000Z</time>
      </trkpt>
      <trkpt lat="44.42608" lon="4.51438">
        <ele>476.39999389648</ele>
        <time>2013-02-27T12:09:46.000Z</time>
      </trkpt>
      <trkpt lat="44.42609" lon="4.51438">
        <ele>477</ele>
        <time>2013-02-27T12:09:47.000Z</time>
      </trkpt>
      <trkpt lat="44.42609" lon="4.51438">
        <ele>476.39999389648</ele>
        <time>2013-02-27T12:09:48.000Z</time>
      </trkpt>
      <trkpt lat="44.42608" lon="4.51439">
        <ele>476.39999389648</ele>
        <time>2013-02-27T12:09:49.000Z</time>
      </trkpt>
      <trkpt lat="44.42608" lon="4.5144">
        <ele>476</ele>
        <time>2013-02-27T12:09:50.000Z</time>
      </trkpt>
      <trkpt lat="44.42607" lon="4.51442">
        <ele>476</ele>
        <time>2013-02-27T12:09:51.000Z</time>
      </trkpt>
      <trkpt lat="44.42606" lon="4.51444">
        <ele>475.60000610352</ele>
        <time>2013-02-27T12:09:52.000Z</time>
      </trkpt>
      <trkpt lat="44.42605" lon="4.51446">
        <ele>475</ele>
        <time>2013-02-27T12:09:53.000Z</time>
      </trkpt>
      <trkpt lat="44.42604" lon="4.51448">
        <ele>475</ele>
        <time>2013-02-27T12:09:54.000Z</time>
      </trkpt>
      <trkpt lat="44.42604" lon="4.51449">
        <ele>474.60000610352</ele>
        <time>2013-02-27T12:09:55.000Z</time>
      </trkpt>
      <trkpt lat="44.42603" lon="4.51451">
        <ele>474.60000610352</ele>
        <time>2013-02-27T12:09:56.000Z</time>
      </trkpt>
      <trkpt lat="44.42603" lon="4.51453">
        <ele>474.60000610352</ele>
        <time>2013-02-27T12:09:57.000Z</time>
      </trkpt>
      <trkpt lat="44.42602" lon="4.51454">
        <ele>474</ele>
        <time>2013-02-27T12:09:58.000Z</time>
      </trkpt>
      <trkpt lat="44.42601" lon="4.51456">
        <ele>474</ele>
        <time>2013-02-27T12:09:59.000Z</time>
      </trkpt>
      <trkpt lat="44.426" lon="4.51457">
        <ele>473.60000610352</ele>
        <time>2013-02-27T12:10:00.000Z</time>
      </trkpt>
      <trkpt lat="44.42599" lon="4.51459">
        <ele>473.20001220703</ele>
        <time>2013-02-27T12:10:01.000Z</time>
      </trkpt>
      <trkpt lat="44.42597" lon="4.51462">
        <ele>473.20001220703</ele>
        <time>2013-02-27T12:10:02.000Z</time>
      </trkpt>
      <trkpt lat="44.42596" lon="4.51463">
        <ele>473.20001220703</ele>
        <time>2013-02-27T12:10:03.000Z</time>
      </trkpt>
      <trkpt lat="44.42594" lon="4.51465">
        <ele>473.20001220703</ele>
        <time>2013-02-27T12:10:04.000Z</time>
      </trkpt>
      <trkpt lat="44.42593" lon="4.51468">
        <ele>472.60000610352</ele>
        <time>2013-02-27T12:10:05.000Z</time>
      </trkpt>
      <trkpt lat="44.42592" lon="4.51471">
        <ele>473.20001220703</ele>
        <time>2013-02-27T12:10:06.000Z</time>
      </trkpt>
      <trkpt lat="44.42591" lon="4.51473">
        <ele>473.60000610352</ele>
        <time>2013-02-27T12:10:07.000Z</time>
      </trkpt>
      <trkpt lat="44.4259" lon="4.51475">
        <ele>473.60000610352</ele>
        <time>2013-02-27T12:10:08.000Z</time>
      </trkpt>
      <trkpt lat="44.4259" lon="4.51478">
        <ele>473.60000610352</ele>
        <time>2013-02-27T12:10:09.000Z</time>
      </trkpt>
      <trkpt lat="44.42589" lon="4.5148">
        <ele>473.60000610352</ele>
        <time>2013-02-27T12:10:10.000Z</time>
      </trkpt>
      <trkpt lat="44.42589" lon="4.51483">
        <ele>474.60000610352</ele>
        <time>2013-02-27T12:10:11.000Z</time>
      </trkpt>
      <trkpt lat="44.4259" lon="4.51485">
        <ele>474</ele>
        <time>2013-02-27T12:10:12.000Z</time>
      </trkpt>
      <trkpt lat="44.42591" lon="4.51486">
        <ele>473.60000610352</ele>
        <time>2013-02-27T12:10:13.000Z</time>
      </trkpt>
      <trkpt lat="44.42592" lon="4.51487">
        <ele>473.20001220703</ele>
        <time>2013-02-27T12:10:14.000Z</time>
      </trkpt>
      <trkpt lat="44.42594" lon="4.51488">
        <ele>472.60000610352</ele>
        <time>2013-02-27T12:10:15.000Z</time>
      </trkpt>
      <trkpt lat="44.42596" lon="4.51488">
        <ele>472.60000610352</ele>
        <time>2013-02-27T12:10:16.000Z</time>
      </trkpt>
      <trkpt lat="44.42598" lon="4.51488">
        <ele>472.60000610352</ele>
        <time>2013-02-27T12:10:17.000Z</time>
      </trkpt>
      <trkpt lat="44.42601" lon="4.51488">
        <ele>473.20001220703</ele>
        <time>2013-02-27T12:10:18.000Z</time>
      </trkpt>
      <trkpt lat="44.42604" lon="4.51488">
        <ele>473.20001220703</ele>
        <time>2013-02-27T12:10:19.000Z</time>
      </trkpt>
      <trkpt lat="44.42607" lon="4.51488">
        <ele>472.20001220703</ele>
        <time>2013-02-27T12:10:20.000Z</time>
      </trkpt>
      <trkpt lat="44.4261" lon="4.51488">
        <ele>471.60000610352</ele>
        <time>2013-02-27T12:10:21.000Z</time>
      </trkpt>
      <trkpt lat="44.42613" lon="4.51487">
        <ele>470.79998779297</ele>
        <time>2013-02-27T12:10:22.000Z</time>
      </trkpt>
      <trkpt lat="44.42616" lon="4.51487">
        <ele>470.79998779297</ele>
        <time>2013-02-27T12:10:23.000Z</time>
      </trkpt>
      <trkpt lat="44.42619" lon="4.51486">
        <ele>470.79998779297</ele>
        <time>2013-02-27T12:10:24.000Z</time>
      </trkpt>
      <trkpt lat="44.42622" lon="4.51485">
        <ele>470.20001220703</ele>
        <time>2013-02-27T12:10:25.000Z</time>
      </trkpt>
      <trkpt lat="44.42625" lon="4.51485">
        <ele>470.20001220703</ele>
        <time>2013-02-27T12:10:26.000Z</time>
      </trkpt>
      <trkpt lat="44.42627" lon="4.51484">
        <ele>470.20001220703</ele>
        <time>2013-02-27T12:10:27.000Z</time>
      </trkpt>
      <trkpt lat="44.4263" lon="4.51483">
        <ele>469.79998779297</ele>
        <time>2013-02-27T12:10:28.000Z</time>
      </trkpt>
      <trkpt lat="44.42633" lon="4.51483">
        <ele>469.20001220703</ele>
        <time>2013-02-27T12:10:29.000Z</time>
      </trkpt>
      <trkpt lat="44.42636" lon="4.51482">
        <ele>469.20001220703</ele>
        <time>2013-02-27T12:10:30.000Z</time>
      </trkpt>
      <trkpt lat="44.42638" lon="4.51481">
        <ele>468.20001220703</ele>
        <time>2013-02-27T12:10:31.000Z</time>
      </trkpt>
      <trkpt lat="44.42641" lon="4.5148">
        <ele>468.20001220703</ele>
        <time>2013-02-27T12:10:32.000Z</time>
      </trkpt>
      <trkpt lat="44.42644" lon="4.51479">
        <ele>468.20001220703</ele>
        <time>2013-02-27T12:10:33.000Z</time>
      </trkpt>
      <trkpt lat="44.42647" lon="4.51478">
        <ele>467.79998779297</ele>
        <time>2013-02-27T12:10:34.000Z</time>
      </trkpt>
      <trkpt lat="44.4265" lon="4.51476">
        <ele>467.79998779297</ele>
        <time>2013-02-27T12:10:35.000Z</time>
      </trkpt>
      <trkpt lat="44.42652" lon="4.51473">
        <ele>467.79998779297</ele>
        <time>2013-02-27T12:10:36.000Z</time>
      </trkpt>
      <trkpt lat="44.42654" lon="4.5147">
        <ele>467.79998779297</ele>
        <time>2013-02-27T12:10:37.000Z</time>
      </trkpt>
      <trkpt lat="44.42656" lon="4.51467">
        <ele>467.39999389648</ele>
        <time>2013-02-27T12:10:38.000Z</time>
      </trkpt>
      <trkpt lat="44.42657" lon="4.51463">
        <ele>467.39999389648</ele>
        <time>2013-02-27T12:10:39.000Z</time>
      </trkpt>
      <trkpt lat="44.42657" lon="4.5146">
        <ele>466.79998779297</ele>
        <time>2013-02-27T12:10:40.000Z</time>
      </trkpt>
      <trkpt lat="44.42657" lon="4.51457">
        <ele>466.79998779297</ele>
        <time>2013-02-27T12:10:41.000Z</time>
      </trkpt>
      <trkpt lat="44.42657" lon="4.51454">
        <ele>467.39999389648</ele>
        <time>2013-02-27T12:10:42.000Z</time>
      </trkpt>
      <trkpt lat="44.42655" lon="4.51452">
        <ele>467.39999389648</ele>
        <time>2013-02-27T12:10:43.000Z</time>
      </trkpt>
      <trkpt lat="44.42654" lon="4.51451">
        <ele>467.39999389648</ele>
        <time>2013-02-27T12:10:44.000Z</time>
      </trkpt>
      <trkpt lat="44.42653" lon="4.51449">
        <ele>467.79998779297</ele>
        <time>2013-02-27T12:10:45.000Z</time>
      </trkpt>
      <trkpt lat="44.42652" lon="4.51446">
        <ele>467.39999389648</ele>
        <time>2013-02-27T12:10:46.000Z</time>
      </trkpt>
      <trkpt lat="44.42651" lon="4.51444">
        <ele>467.79998779297</ele>
        <time>2013-02-27T12:10:47.000Z</time>
      </trkpt>
      <trkpt lat="44.4265" lon="4.51443">
        <ele>468.20001220703</ele>
        <time>2013-02-27T12:10:48.000Z</time>
      </trkpt>
      <trkpt lat="44.42649" lon="4.51441">
        <ele>468.20001220703</ele>
        <time>2013-02-27T12:10:49.000Z</time>
      </trkpt>
      <trkpt lat="44.42648" lon="4.51439">
        <ele>468.20001220703</ele>
        <time>2013-02-27T12:10:50.000Z</time>
      </trkpt>
      <trkpt lat="44.42648" lon="4.51438">
        <ele>468.79998779297</ele>
        <time>2013-02-27T12:10:51.000Z</time>
      </trkpt>
      <trkpt lat="44.42647" lon="4.51436">
        <ele>468.79998779297</ele>
        <time>2013-02-27T12:10:52.000Z</time>
      </trkpt>
      <trkpt lat="44.42646" lon="4.51434">
        <ele>468.79998779297</ele>
        <time>2013-02-27T12:10:53.000Z</time>
      </trkpt>
      <trkpt lat="44.42645" lon="4.51433">
        <ele>468.79998779297</ele>
        <time>2013-02-27T12:10:54.000Z</time>
      </trkpt>
      <trkpt lat="44.42645" lon="4.51431">
        <ele>468.79998779297</ele>
        <time>2013-02-27T12:10:55.000Z</time>
      </trkpt>
      <trkpt lat="44.42644" lon="4.5143">
        <ele>469.20001220703</ele>
        <time>2013-02-27T12:10:56.000Z</time>
      </trkpt>
      <trkpt lat="44.42644" lon="4.51428">
        <ele>468.79998779297</ele>
        <time>2013-02-27T12:10:57.000Z</time>
      </trkpt>
      <trkpt lat="44.42643" lon="4.51426">
        <ele>469.20001220703</ele>
        <time>2013-02-27T12:10:58.000Z</time>
      </trkpt>
      <trkpt lat="44.42642" lon="4.51425">
        <ele>469.79998779297</ele>
        <time>2013-02-27T12:10:59.000Z</time>
      </trkpt>
      <trkpt lat="44.42642" lon="4.51423">
        <ele>469.79998779297</ele>
        <time>2013-02-27T12:11:00.000Z</time>
      </trkpt>
      <trkpt lat="44.42641" lon="4.51421">
        <ele>469.20001220703</ele>
        <time>2013-02-27T12:11:01.000Z</time>
      </trkpt>
      <trkpt lat="44.4264" lon="4.5142">
        <ele>469.20001220703</ele>
        <time>2013-02-27T12:11:02.000Z</time>
      </trkpt>
      <trkpt lat="44.4264" lon="4.51418">
        <ele>469.20001220703</ele>
        <time>2013-02-27T12:11:03.000Z</time>
      </trkpt>
      <trkpt lat="44.42639" lon="4.51417">
        <ele>469.20001220703</ele>
        <time>2013-02-27T12:11:04.000Z</time>
      </trkpt>
      <trkpt lat="44.42639" lon="4.51415">
        <ele>469.20001220703</ele>
        <time>2013-02-27T12:11:05.000Z</time>
      </trkpt>
      <trkpt lat="44.42638" lon="4.51414">
        <ele>469.20001220703</ele>
        <time>2013-02-27T12:11:06.000Z</time>
      </trkpt>
      <trkpt lat="44.42637" lon="4.51412">
        <ele>468.79998779297</ele>
        <time>2013-02-27T12:11:07.000Z</time>
      </trkpt>
      <trkpt lat="44.42637" lon="4.51411">
        <ele>468.79998779297</ele>
        <time>2013-02-27T12:11:08.000Z</time>
      </trkpt>
      <trkpt lat="44.42636" lon="4.51409">
        <ele>468.79998779297</ele>
        <time>2013-02-27T12:11:09.000Z</time>
      </trkpt>
      <trkpt lat="44.42636" lon="4.51407">
        <ele>468.20001220703</ele>
        <time>2013-02-27T12:11:10.000Z</time>
      </trkpt>
      <trkpt lat="44.42635" lon="4.51406">
        <ele>468.79998779297</ele>
        <time>2013-02-27T12:11:11.000Z</time>
      </trkpt>
      <trkpt lat="44.42635" lon="4.51405">
        <ele>469.79998779297</ele>
        <time>2013-02-27T12:11:12.000Z</time>
      </trkpt>
      <trkpt lat="44.42635" lon="4.51404">
        <ele>470.20001220703</ele>
        <time>2013-02-27T12:11:13.000Z</time>
      </trkpt>
      <trkpt lat="44.42634" lon="4.51403">
        <ele>470.79998779297</ele>
        <time>2013-02-27T12:11:14.000Z</time>
      </trkpt>
      <trkpt lat="44.42634" lon="4.51402">
        <ele>471.20001220703</ele>
        <time>2013-02-27T12:11:15.000Z</time>
      </trkpt>
      <trkpt lat="44.42634" lon="4.51401">
        <ele>471.60000610352</ele>
        <time>2013-02-27T12:11:16.000Z</time>
      </trkpt>
      <trkpt lat="44.42633" lon="4.514">
        <ele>471.60000610352</ele>
        <time>2013-02-27T12:11:17.000Z</time>
      </trkpt>
      <trkpt lat="44.42633" lon="4.51399">
        <ele>471.60000610352</ele>
        <time>2013-02-27T12:11:18.000Z</time>
      </trkpt>
      <trkpt lat="44.42632" lon="4.51398">
        <ele>471.60000610352</ele>
        <time>2013-02-27T12:11:19.000Z</time>
      </trkpt>
      <trkpt lat="44.42632" lon="4.51396">
        <ele>471.60000610352</ele>
        <time>2013-02-27T12:11:20.000Z</time>
      </trkpt>
      <trkpt lat="44.42632" lon="4.51395">
        <ele>472.20001220703</ele>
        <time>2013-02-27T12:11:21.000Z</time>
      </trkpt>
      <trkpt lat="44.42631" lon="4.51394">
        <ele>472.20001220703</ele>
        <time>2013-02-27T12:11:22.000Z</time>
      </trkpt>
      <trkpt lat="44.42631" lon="4.51393">
        <ele>472.60000610352</ele>
        <time>2013-02-27T12:11:23.000Z</time>
      </trkpt>
      <trkpt lat="44.4263" lon="4.51391">
        <ele>472.20001220703</ele>
        <time>2013-02-27T12:11:24.000Z</time>
      </trkpt>
      <trkpt lat="44.4263" lon="4.5139">
        <ele>472.60000610352</ele>
        <time>2013-02-27T12:11:25.000Z</time>
      </trkpt>
      <trkpt lat="44.42629" lon="4.51389">
        <ele>472.20001220703</ele>
        <time>2013-02-27T12:11:26.000Z</time>
      </trkpt>
      <trkpt lat="44.42629" lon="4.51387">
        <ele>471.60000610352</ele>
        <time>2013-02-27T12:11:27.000Z</time>
      </trkpt>
      <trkpt lat="44.42629" lon="4.51386">
        <ele>471.20001220703</ele>
        <time>2013-02-27T12:11:28.000Z</time>
      </trkpt>
      <trkpt lat="44.42628" lon="4.51384">
        <ele>471.20001220703</ele>
        <time>2013-02-27T12:11:29.000Z</time>
      </trkpt>
      <trkpt lat="44.42628" lon="4.51383">
        <ele>471.20001220703</ele>
        <time>2013-02-27T12:11:30.000Z</time>
      </trkpt>
      <trkpt lat="44.42628" lon="4.51382">
        <ele>471.60000610352</ele>
        <time>2013-02-27T12:11:31.000Z</time>
      </trkpt>
      <trkpt lat="44.42627" lon="4.51381">
        <ele>471.60000610352</ele>
        <time>2013-02-27T12:11:32.000Z</time>
      </trkpt>
      <trkpt lat="44.42627" lon="4.51379">
        <ele>471.60000610352</ele>
        <time>2013-02-27T12:11:33.000Z</time>
      </trkpt>
      <trkpt lat="44.42626" lon="4.51378">
        <ele>471.60000610352</ele>
        <time>2013-02-27T12:11:34.000Z</time>
      </trkpt>
      <trkpt lat="44.42626" lon="4.51377">
        <ele>472.60000610352</ele>
        <time>2013-02-27T12:11:35.000Z</time>
      </trkpt>
      <trkpt lat="44.42625" lon="4.51376">
        <ele>472.60000610352</ele>
        <time>2013-02-27T12:11:36.000Z</time>
      </trkpt>
      <trkpt lat="44.42625" lon="4.51375">
        <ele>473.20001220703</ele>
        <time>2013-02-27T12:11:37.000Z</time>
      </trkpt>
      <trkpt lat="44.42624" lon="4.51374">
        <ele>473.60000610352</ele>
        <time>2013-02-27T12:11:38.000Z</time>
      </trkpt>
      <trkpt lat="44.42624" lon="4.51373">
        <ele>474</ele>
        <time>2013-02-27T12:11:39.000Z</time>
      </trkpt>
      <trkpt lat="44.42623" lon="4.51372">
        <ele>474.60000610352</ele>
        <time>2013-02-27T12:11:40.000Z</time>
      </trkpt>
      <trkpt lat="44.42622" lon="4.51371">
        <ele>475</ele>
        <time>2013-02-27T12:11:41.000Z</time>
      </trkpt>
      <trkpt lat="44.42622" lon="4.5137">
        <ele>474.60000610352</ele>
        <time>2013-02-27T12:11:42.000Z</time>
      </trkpt>
      <trkpt lat="44.42621" lon="4.51368">
        <ele>474</ele>
        <time>2013-02-27T12:11:43.000Z</time>
      </trkpt>
      <trkpt lat="44.42621" lon="4.51367">
        <ele>473.60000610352</ele>
        <time>2013-02-27T12:11:44.000Z</time>
      </trkpt>
      <trkpt lat="44.4262" lon="4.51366">
        <ele>474</ele>
        <time>2013-02-27T12:11:45.000Z</time>
      </trkpt>
      <trkpt lat="44.4262" lon="4.51365">
        <ele>474.60000610352</ele>
        <time>2013-02-27T12:11:46.000Z</time>
      </trkpt>
      <trkpt lat="44.42619" lon="4.51363">
        <ele>474.60000610352</ele>
        <time>2013-02-27T12:11:47.000Z</time>
      </trkpt>
      <trkpt lat="44.42618" lon="4.51363">
        <ele>475</ele>
        <time>2013-02-27T12:11:48.000Z</time>
      </trkpt>
      <trkpt lat="44.42618" lon="4.51361">
        <ele>475</ele>
        <time>2013-02-27T12:11:49.000Z</time>
      </trkpt>
      <trkpt lat="44.42617" lon="4.5136">
        <ele>475</ele>
        <time>2013-02-27T12:11:50.000Z</time>
      </trkpt>
      <trkpt lat="44.42617" lon="4.51359">
        <ele>475</ele>
        <time>2013-02-27T12:11:51.000Z</time>
      </trkpt>
      <trkpt lat="44.42617" lon="4.51358">
        <ele>475.60000610352</ele>
        <time>2013-02-27T12:11:52.000Z</time>
      </trkpt>
      <trkpt lat="44.42616" lon="4.51356">
        <ele>475.60000610352</ele>
        <time>2013-02-27T12:11:53.000Z</time>
      </trkpt>
      <trkpt lat="44.42616" lon="4.51355">
        <ele>475</ele>
        <time>2013-02-27T12:11:54.000Z</time>
      </trkpt>
      <trkpt lat="44.42615" lon="4.51353">
        <ele>475</ele>
        <time>2013-02-27T12:11:55.000Z</time>
      </trkpt>
      <trkpt lat="44.42615" lon="4.51351">
        <ele>474.60000610352</ele>
        <time>2013-02-27T12:11:56.000Z</time>
      </trkpt>
      <trkpt lat="44.42614" lon="4.51349">
        <ele>474</ele>
        <time>2013-02-27T12:11:57.000Z</time>
      </trkpt>
      <trkpt lat="44.42614" lon="4.51348">
        <ele>474</ele>
        <time>2013-02-27T12:11:58.000Z</time>
      </trkpt>
      <trkpt lat="44.42614" lon="4.51346">
        <ele>474</ele>
        <time>2013-02-27T12:11:59.000Z</time>
      </trkpt>
      <trkpt lat="44.42613" lon="4.51344">
        <ele>474.60000610352</ele>
        <time>2013-02-27T12:12:00.000Z</time>
      </trkpt>
      <trkpt lat="44.42613" lon="4.51342">
        <ele>475</ele>
        <time>2013-02-27T12:12:01.000Z</time>
      </trkpt>
      <trkpt lat="44.42612" lon="4.51341">
        <ele>475.60000610352</ele>
        <time>2013-02-27T12:12:02.000Z</time>
      </trkpt>
      <trkpt lat="44.42612" lon="4.51339">
        <ele>475.60000610352</ele>
        <time>2013-02-27T12:12:03.000Z</time>
      </trkpt>
      <trkpt lat="44.42612" lon="4.51338">
        <ele>476.39999389648</ele>
        <time>2013-02-27T12:12:04.000Z</time>
      </trkpt>
      <trkpt lat="44.42612" lon="4.51337">
        <ele>477</ele>
        <time>2013-02-27T12:12:05.000Z</time>
      </trkpt>
      <trkpt lat="44.42611" lon="4.51335">
        <ele>477</ele>
        <time>2013-02-27T12:12:06.000Z</time>
      </trkpt>
      <trkpt lat="44.42611" lon="4.51334">
        <ele>477</ele>
        <time>2013-02-27T12:12:07.000Z</time>
      </trkpt>
      <trkpt lat="44.42611" lon="4.51332">
        <ele>477.39999389648</ele>
        <time>2013-02-27T12:12:08.000Z</time>
      </trkpt>
      <trkpt lat="44.4261" lon="4.5133">
        <ele>477.39999389648</ele>
        <time>2013-02-27T12:12:09.000Z</time>
      </trkpt>
      <trkpt lat="44.4261" lon="4.51328">
        <ele>477</ele>
        <time>2013-02-27T12:12:10.000Z</time>
      </trkpt>
      <trkpt lat="44.42609" lon="4.51326">
        <ele>477.39999389648</ele>
        <time>2013-02-27T12:12:11.000Z</time>
      </trkpt>
      <trkpt lat="44.42609" lon="4.51325">
        <ele>477.39999389648</ele>
        <time>2013-02-27T12:12:12.000Z</time>
      </trkpt>
      <trkpt lat="44.42609" lon="4.51324">
        <ele>478</ele>
        <time>2013-02-27T12:12:13.000Z</time>
      </trkpt>
      <trkpt lat="44.42609" lon="4.51322">
        <ele>478.39999389648</ele>
        <time>2013-02-27T12:12:14.000Z</time>
      </trkpt>
      <trkpt lat="44.42608" lon="4.5132">
        <ele>478.79998779297</ele>
        <time>2013-02-27T12:12:15.000Z</time>
      </trkpt>
      <trkpt lat="44.42608" lon="4.51318">
        <ele>479.39999389648</ele>
        <time>2013-02-27T12:12:16.000Z</time>
      </trkpt>
      <trkpt lat="44.42607" lon="4.51316">
        <ele>479.39999389648</ele>
        <time>2013-02-27T12:12:17.000Z</time>
      </trkpt>
      <trkpt lat="44.42607" lon="4.51314">
        <ele>479.79998779297</ele>
        <time>2013-02-27T12:12:18.000Z</time>
      </trkpt>
      <trkpt lat="44.42606" lon="4.51312">
        <ele>480.39999389648</ele>
        <time>2013-02-27T12:12:19.000Z</time>
      </trkpt>
      <trkpt lat="44.42606" lon="4.5131">
        <ele>480.79998779297</ele>
        <time>2013-02-27T12:12:20.000Z</time>
      </trkpt>
      <trkpt lat="44.42606" lon="4.51308">
        <ele>480.79998779297</ele>
        <time>2013-02-27T12:12:21.000Z</time>
      </trkpt>
      <trkpt lat="44.42605" lon="4.51307">
        <ele>480.79998779297</ele>
        <time>2013-02-27T12:12:22.000Z</time>
      </trkpt>
      <trkpt lat="44.42605" lon="4.51305">
        <ele>480.79998779297</ele>
        <time>2013-02-27T12:12:23.000Z</time>
      </trkpt>
      <trkpt lat="44.42605" lon="4.51303">
        <ele>481.20001220703</ele>
        <time>2013-02-27T12:12:24.000Z</time>
      </trkpt>
      <trkpt lat="44.42604" lon="4.51302">
        <ele>481.20001220703</ele>
        <time>2013-02-27T12:12:25.000Z</time>
      </trkpt>
      <trkpt lat="44.42604" lon="4.513">
        <ele>481.79998779297</ele>
        <time>2013-02-27T12:12:26.000Z</time>
      </trkpt>
      <trkpt lat="44.42604" lon="4.51299">
        <ele>481.79998779297</ele>
        <time>2013-02-27T12:12:27.000Z</time>
      </trkpt>
      <trkpt lat="44.42604" lon="4.51297">
        <ele>481.79998779297</ele>
        <time>2013-02-27T12:12:28.000Z</time>
      </trkpt>
      <trkpt lat="44.42603" lon="4.51295">
        <ele>481.79998779297</ele>
        <time>2013-02-27T12:12:29.000Z</time>
      </trkpt>
      <trkpt lat="44.42603" lon="4.51293">
        <ele>481.79998779297</ele>
        <time>2013-02-27T12:12:30.000Z</time>
      </trkpt>
      <trkpt lat="44.42603" lon="4.51292">
        <ele>481.79998779297</ele>
        <time>2013-02-27T12:12:31.000Z</time>
      </trkpt>
      <trkpt lat="44.42602" lon="4.5129">
        <ele>482.20001220703</ele>
        <time>2013-02-27T12:12:32.000Z</time>
      </trkpt>
      <trkpt lat="44.42602" lon="4.51289">
        <ele>482.20001220703</ele>
        <time>2013-02-27T12:12:33.000Z</time>
      </trkpt>
      <trkpt lat="44.42602" lon="4.51287">
        <ele>482.79998779297</ele>
        <time>2013-02-27T12:12:34.000Z</time>
      </trkpt>
      <trkpt lat="44.42602" lon="4.51285">
        <ele>482.79998779297</ele>
        <time>2013-02-27T12:12:35.000Z</time>
      </trkpt>
      <trkpt lat="44.42601" lon="4.51284">
        <ele>482.79998779297</ele>
        <time>2013-02-27T12:12:36.000Z</time>
      </trkpt>
      <trkpt lat="44.42601" lon="4.51282">
        <ele>483.20001220703</ele>
        <time>2013-02-27T12:12:37.000Z</time>
      </trkpt>
      <trkpt lat="44.42601" lon="4.5128">
        <ele>483.20001220703</ele>
        <time>2013-02-27T12:12:38.000Z</time>
      </trkpt>
      <trkpt lat="44.42601" lon="4.51279">
        <ele>483.60000610352</ele>
        <time>2013-02-27T12:12:39.000Z</time>
      </trkpt>
      <trkpt lat="44.426" lon="4.51277">
        <ele>483.60000610352</ele>
        <time>2013-02-27T12:12:40.000Z</time>
      </trkpt>
      <trkpt lat="44.426" lon="4.51275">
        <ele>483.60000610352</ele>
        <time>2013-02-27T12:12:41.000Z</time>
      </trkpt>
      <trkpt lat="44.426" lon="4.51274">
        <ele>483.60000610352</ele>
        <time>2013-02-27T12:12:42.000Z</time>
      </trkpt>
      <trkpt lat="44.426" lon="4.51272">
        <ele>484.20001220703</ele>
        <time>2013-02-27T12:12:43.000Z</time>
      </trkpt>
      <trkpt lat="44.42599" lon="4.5127">
        <ele>484.20001220703</ele>
        <time>2013-02-27T12:12:44.000Z</time>
      </trkpt>
      <trkpt lat="44.42599" lon="4.51268">
        <ele>484.20001220703</ele>
        <time>2013-02-27T12:12:45.000Z</time>
      </trkpt>
      <trkpt lat="44.42598" lon="4.51265">
        <ele>484.60000610352</ele>
        <time>2013-02-27T12:12:47.000Z</time>
      </trkpt>
      <trkpt lat="44.42598" lon="4.51264">
        <ele>484.60000610352</ele>
        <time>2013-02-27T12:12:48.000Z</time>
      </trkpt>
      <trkpt lat="44.42598" lon="4.51262">
        <ele>484.60000610352</ele>
        <time>2013-02-27T12:12:49.000Z</time>
      </trkpt>
      <trkpt lat="44.42598" lon="4.51261">
        <ele>485.20001220703</ele>
        <time>2013-02-27T12:12:50.000Z</time>
      </trkpt>
      <trkpt lat="44.42598" lon="4.5126">
        <ele>485.20001220703</ele>
        <time>2013-02-27T12:12:51.000Z</time>
      </trkpt>
      <trkpt lat="44.42598" lon="4.51258">
        <ele>485.20001220703</ele>
        <time>2013-02-27T12:12:52.000Z</time>
      </trkpt>
      <trkpt lat="44.42598" lon="4.51257">
        <ele>485.20001220703</ele>
        <time>2013-02-27T12:12:53.000Z</time>
      </trkpt>
      <trkpt lat="44.42598" lon="4.51255">
        <ele>485.60000610352</ele>
        <time>2013-02-27T12:12:54.000Z</time>
      </trkpt>
      <trkpt lat="44.42598" lon="4.51254">
        <ele>485.60000610352</ele>
        <time>2013-02-27T12:12:55.000Z</time>
      </trkpt>
      <trkpt lat="44.42597" lon="4.51252">
        <ele>485.60000610352</ele>
        <time>2013-02-27T12:12:56.000Z</time>
      </trkpt>
      <trkpt lat="44.42597" lon="4.5125">
        <ele>486</ele>
        <time>2013-02-27T12:12:57.000Z</time>
      </trkpt>
      <trkpt lat="44.42597" lon="4.51248">
        <ele>486</ele>
        <time>2013-02-27T12:12:58.000Z</time>
      </trkpt>
      <trkpt lat="44.42597" lon="4.51246">
        <ele>486</ele>
        <time>2013-02-27T12:12:59.000Z</time>
      </trkpt>
      <trkpt lat="44.42596" lon="4.51245">
        <ele>486.60000610352</ele>
        <time>2013-02-27T12:13:00.000Z</time>
      </trkpt>
      <trkpt lat="44.42596" lon="4.51243">
        <ele>487</ele>
        <time>2013-02-27T12:13:01.000Z</time>
      </trkpt>
      <trkpt lat="44.42596" lon="4.51242">
        <ele>487</ele>
        <time>2013-02-27T12:13:02.000Z</time>
      </trkpt>
      <trkpt lat="44.42596" lon="4.5124">
        <ele>487.60000610352</ele>
        <time>2013-02-27T12:13:03.000Z</time>
      </trkpt>
      <trkpt lat="44.42596" lon="4.51238">
        <ele>488</ele>
        <time>2013-02-27T12:13:04.000Z</time>
      </trkpt>
      <trkpt lat="44.42596" lon="4.51237">
        <ele>488</ele>
        <time>2013-02-27T12:13:05.000Z</time>
      </trkpt>
      <trkpt lat="44.42596" lon="4.51235">
        <ele>488.39999389648</ele>
        <time>2013-02-27T12:13:06.000Z</time>
      </trkpt>
      <trkpt lat="44.42596" lon="4.51234">
        <ele>489</ele>
        <time>2013-02-27T12:13:07.000Z</time>
      </trkpt>
      <trkpt lat="44.42596" lon="4.51232">
        <ele>489</ele>
        <time>2013-02-27T12:13:08.000Z</time>
      </trkpt>
      <trkpt lat="44.42596" lon="4.51231">
        <ele>489.39999389648</ele>
        <time>2013-02-27T12:13:09.000Z</time>
      </trkpt>
      <trkpt lat="44.42596" lon="4.51229">
        <ele>490</ele>
        <time>2013-02-27T12:13:10.000Z</time>
      </trkpt>
      <trkpt lat="44.42596" lon="4.51228">
        <ele>490.39999389648</ele>
        <time>2013-02-27T12:13:11.000Z</time>
      </trkpt>
      <trkpt lat="44.42596" lon="4.51226">
        <ele>490.39999389648</ele>
        <time>2013-02-27T12:13:12.000Z</time>
      </trkpt>
      <trkpt lat="44.42596" lon="4.51225">
        <ele>491.39999389648</ele>
        <time>2013-02-27T12:13:13.000Z</time>
      </trkpt>
      <trkpt lat="44.42597" lon="4.51224">
        <ele>491.39999389648</ele>
        <time>2013-02-27T12:13:14.000Z</time>
      </trkpt>
      <trkpt lat="44.42597" lon="4.51222">
        <ele>491.39999389648</ele>
        <time>2013-02-27T12:13:15.000Z</time>
      </trkpt>
      <trkpt lat="44.42597" lon="4.51221">
        <ele>491.79998779297</ele>
        <time>2013-02-27T12:13:16.000Z</time>
      </trkpt>
      <trkpt lat="44.42597" lon="4.51219">
        <ele>491.79998779297</ele>
        <time>2013-02-27T12:13:17.000Z</time>
      </trkpt>
      <trkpt lat="44.42597" lon="4.51218">
        <ele>492.39999389648</ele>
        <time>2013-02-27T12:13:18.000Z</time>
      </trkpt>
      <trkpt lat="44.42597" lon="4.51216">
        <ele>492.39999389648</ele>
        <time>2013-02-27T12:13:19.000Z</time>
      </trkpt>
      <trkpt lat="44.42597" lon="4.51215">
        <ele>492.39999389648</ele>
        <time>2013-02-27T12:13:20.000Z</time>
      </trkpt>
      <trkpt lat="44.42597" lon="4.51213">
        <ele>493.20001220703</ele>
        <time>2013-02-27T12:13:21.000Z</time>
      </trkpt>
      <trkpt lat="44.42597" lon="4.51211">
        <ele>493.79998779297</ele>
        <time>2013-02-27T12:13:22.000Z</time>
      </trkpt>
      <trkpt lat="44.42597" lon="4.5121">
        <ele>494.20001220703</ele>
        <time>2013-02-27T12:13:23.000Z</time>
      </trkpt>
      <trkpt lat="44.42597" lon="4.51208">
        <ele>494.79998779297</ele>
        <time>2013-02-27T12:13:24.000Z</time>
      </trkpt>
      <trkpt lat="44.42597" lon="4.51207">
        <ele>495.20001220703</ele>
        <time>2013-02-27T12:13:25.000Z</time>
      </trkpt>
      <trkpt lat="44.42597" lon="4.51205">
        <ele>495.20001220703</ele>
        <time>2013-02-27T12:13:26.000Z</time>
      </trkpt>
      <trkpt lat="44.42597" lon="4.51203">
        <ele>495.20001220703</ele>
        <time>2013-02-27T12:13:27.000Z</time>
      </trkpt>
      <trkpt lat="44.42597" lon="4.51202">
        <ele>495.60000610352</ele>
        <time>2013-02-27T12:13:28.000Z</time>
      </trkpt>
      <trkpt lat="44.42597" lon="4.512">
        <ele>495.60000610352</ele>
        <time>2013-02-27T12:13:29.000Z</time>
      </trkpt>
      <trkpt lat="44.42597" lon="4.51199">
        <ele>495.60000610352</ele>
        <time>2013-02-27T12:13:30.000Z</time>
      </trkpt>
      <trkpt lat="44.42597" lon="4.51197">
        <ele>495.60000610352</ele>
        <time>2013-02-27T12:13:31.000Z</time>
      </trkpt>
      <trkpt lat="44.42596" lon="4.51195">
        <ele>495.60000610352</ele>
        <time>2013-02-27T12:13:32.000Z</time>
      </trkpt>
      <trkpt lat="44.42596" lon="4.51194">
        <ele>495.60000610352</ele>
        <time>2013-02-27T12:13:33.000Z</time>
      </trkpt>
      <trkpt lat="44.42596" lon="4.51193">
        <ele>496.20001220703</ele>
        <time>2013-02-27T12:13:34.000Z</time>
      </trkpt>
      <trkpt lat="44.42596" lon="4.51191">
        <ele>496.20001220703</ele>
        <time>2013-02-27T12:13:35.000Z</time>
      </trkpt>
      <trkpt lat="44.42596" lon="4.5119">
        <ele>496.60000610352</ele>
        <time>2013-02-27T12:13:36.000Z</time>
      </trkpt>
      <trkpt lat="44.42596" lon="4.51188">
        <ele>496.60000610352</ele>
        <time>2013-02-27T12:13:37.000Z</time>
      </trkpt>
      <trkpt lat="44.42596" lon="4.51187">
        <ele>496.60000610352</ele>
        <time>2013-02-27T12:13:38.000Z</time>
      </trkpt>
      <trkpt lat="44.42596" lon="4.51185">
        <ele>496.60000610352</ele>
        <time>2013-02-27T12:13:39.000Z</time>
      </trkpt>
      <trkpt lat="44.42596" lon="4.51184">
        <ele>497.60000610352</ele>
        <time>2013-02-27T12:13:40.000Z</time>
      </trkpt>
      <trkpt lat="44.42596" lon="4.51182">
        <ele>497.60000610352</ele>
        <time>2013-02-27T12:13:41.000Z</time>
      </trkpt>
      <trkpt lat="44.42596" lon="4.5118">
        <ele>497.20001220703</ele>
        <time>2013-02-27T12:13:42.000Z</time>
      </trkpt>
      <trkpt lat="44.42595" lon="4.51179">
        <ele>497.20001220703</ele>
        <time>2013-02-27T12:13:43.000Z</time>
      </trkpt>
      <trkpt lat="44.42595" lon="4.51177">
        <ele>497.20001220703</ele>
        <time>2013-02-27T12:13:44.000Z</time>
      </trkpt>
      <trkpt lat="44.42595" lon="4.51175">
        <ele>497.20001220703</ele>
        <time>2013-02-27T12:13:45.000Z</time>
      </trkpt>
      <trkpt lat="44.42595" lon="4.51174">
        <ele>497.20001220703</ele>
        <time>2013-02-27T12:13:46.000Z</time>
      </trkpt>
      <trkpt lat="44.42595" lon="4.51172">
        <ele>496.60000610352</ele>
        <time>2013-02-27T12:13:47.000Z</time>
      </trkpt>
      <trkpt lat="44.42596" lon="4.51171">
        <ele>496.60000610352</ele>
        <time>2013-02-27T12:13:48.000Z</time>
      </trkpt>
      <trkpt lat="44.42596" lon="4.51169">
        <ele>496.60000610352</ele>
        <time>2013-02-27T12:13:49.000Z</time>
      </trkpt>
      <trkpt lat="44.42595" lon="4.51168">
        <ele>496.60000610352</ele>
        <time>2013-02-27T12:13:50.000Z</time>
      </trkpt>
      <trkpt lat="44.42595" lon="4.51166">
        <ele>496.20001220703</ele>
        <time>2013-02-27T12:13:51.000Z</time>
      </trkpt>
      <trkpt lat="44.42595" lon="4.51164">
        <ele>496.20001220703</ele>
        <time>2013-02-27T12:13:52.000Z</time>
      </trkpt>
      <trkpt lat="44.42595" lon="4.51163">
        <ele>496.20001220703</ele>
        <time>2013-02-27T12:13:53.000Z</time>
      </trkpt>
      <trkpt lat="44.42595" lon="4.51161">
        <ele>496.20001220703</ele>
        <time>2013-02-27T12:13:54.000Z</time>
      </trkpt>
      <trkpt lat="44.42595" lon="4.51159">
        <ele>496.60000610352</ele>
        <time>2013-02-27T12:13:55.000Z</time>
      </trkpt>
      <trkpt lat="44.42595" lon="4.51157">
        <ele>496.20001220703</ele>
        <time>2013-02-27T12:13:56.000Z</time>
      </trkpt>
      <trkpt lat="44.42595" lon="4.51156">
        <ele>495.60000610352</ele>
        <time>2013-02-27T12:13:57.000Z</time>
      </trkpt>
      <trkpt lat="44.42595" lon="4.51154">
        <ele>495.60000610352</ele>
        <time>2013-02-27T12:13:58.000Z</time>
      </trkpt>
      <trkpt lat="44.42594" lon="4.51152">
        <ele>495.60000610352</ele>
        <time>2013-02-27T12:13:59.000Z</time>
      </trkpt>
      <trkpt lat="44.42594" lon="4.51151">
        <ele>495.60000610352</ele>
        <time>2013-02-27T12:14:00.000Z</time>
      </trkpt>
      <trkpt lat="44.42594" lon="4.51149">
        <ele>496.20001220703</ele>
        <time>2013-02-27T12:14:01.000Z</time>
      </trkpt>
      <trkpt lat="44.42594" lon="4.51148">
        <ele>496.20001220703</ele>
        <time>2013-02-27T12:14:02.000Z</time>
      </trkpt>
      <trkpt lat="44.42594" lon="4.51146">
        <ele>496.60000610352</ele>
        <time>2013-02-27T12:14:03.000Z</time>
      </trkpt>
      <trkpt lat="44.42594" lon="4.51144">
        <ele>497.60000610352</ele>
        <time>2013-02-27T12:14:04.000Z</time>
      </trkpt>
      <trkpt lat="44.42593" lon="4.51142">
        <ele>498.20001220703</ele>
        <time>2013-02-27T12:14:05.000Z</time>
      </trkpt>
      <trkpt lat="44.42593" lon="4.5114">
        <ele>498.60000610352</ele>
        <time>2013-02-27T12:14:06.000Z</time>
      </trkpt>
      <trkpt lat="44.42593" lon="4.51139">
        <ele>499</ele>
        <time>2013-02-27T12:14:07.000Z</time>
      </trkpt>
      <trkpt lat="44.42593" lon="4.51137">
        <ele>500</ele>
        <time>2013-02-27T12:14:08.000Z</time>
      </trkpt>
      <trkpt lat="44.42592" lon="4.51135">
        <ele>500</ele>
        <time>2013-02-27T12:14:09.000Z</time>
      </trkpt>
      <trkpt lat="44.42592" lon="4.51134">
        <ele>500</ele>
        <time>2013-02-27T12:14:10.000Z</time>
      </trkpt>
      <trkpt lat="44.42592" lon="4.51132">
        <ele>500</ele>
        <time>2013-02-27T12:14:11.000Z</time>
      </trkpt>
      <trkpt lat="44.42591" lon="4.51131">
        <ele>499.60000610352</ele>
        <time>2013-02-27T12:14:12.000Z</time>
      </trkpt>
      <trkpt lat="44.42591" lon="4.51129">
        <ele>499.60000610352</ele>
        <time>2013-02-27T12:14:13.000Z</time>
      </trkpt>
      <trkpt lat="44.42591" lon="4.51128">
        <ele>499.60000610352</ele>
        <time>2013-02-27T12:14:14.000Z</time>
      </trkpt>
      <trkpt lat="44.42591" lon="4.51127">
        <ele>499.60000610352</ele>
        <time>2013-02-27T12:14:15.000Z</time>
      </trkpt>
      <trkpt lat="44.42591" lon="4.51125">
        <ele>499</ele>
        <time>2013-02-27T12:14:16.000Z</time>
      </trkpt>
      <trkpt lat="44.42591" lon="4.51124">
        <ele>499.60000610352</ele>
        <time>2013-02-27T12:14:17.000Z</time>
      </trkpt>
      <trkpt lat="44.4259" lon="4.51122">
        <ele>499.60000610352</ele>
        <time>2013-02-27T12:14:18.000Z</time>
      </trkpt>
      <trkpt lat="44.4259" lon="4.5112">
        <ele>499.60000610352</ele>
        <time>2013-02-27T12:14:19.000Z</time>
      </trkpt>
      <trkpt lat="44.4259" lon="4.51118">
        <ele>499.60000610352</ele>
        <time>2013-02-27T12:14:20.000Z</time>
      </trkpt>
      <trkpt lat="44.4259" lon="4.51116">
        <ele>500</ele>
        <time>2013-02-27T12:14:21.000Z</time>
      </trkpt>
      <trkpt lat="44.4259" lon="4.51115">
        <ele>500.60000610352</ele>
        <time>2013-02-27T12:14:22.000Z</time>
      </trkpt>
      <trkpt lat="44.4259" lon="4.51113">
        <ele>500.60000610352</ele>
        <time>2013-02-27T12:14:23.000Z</time>
      </trkpt>
      <trkpt lat="44.4259" lon="4.51112">
        <ele>501</ele>
        <time>2013-02-27T12:14:24.000Z</time>
      </trkpt>
      <trkpt lat="44.4259" lon="4.5111">
        <ele>501</ele>
        <time>2013-02-27T12:14:25.000Z</time>
      </trkpt>
      <trkpt lat="44.4259" lon="4.51109">
        <ele>501.39999389648</ele>
        <time>2013-02-27T12:14:26.000Z</time>
      </trkpt>
      <trkpt lat="44.4259" lon="4.51108">
        <ele>501.39999389648</ele>
        <time>2013-02-27T12:14:27.000Z</time>
      </trkpt>
      <trkpt lat="44.4259" lon="4.51106">
        <ele>501.39999389648</ele>
        <time>2013-02-27T12:14:28.000Z</time>
      </trkpt>
      <trkpt lat="44.4259" lon="4.51104">
        <ele>502</ele>
        <time>2013-02-27T12:14:29.000Z</time>
      </trkpt>
      <trkpt lat="44.4259" lon="4.51102">
        <ele>502</ele>
        <time>2013-02-27T12:14:30.000Z</time>
      </trkpt>
      <trkpt lat="44.42591" lon="4.51101">
        <ele>503</ele>
        <time>2013-02-27T12:14:31.000Z</time>
      </trkpt>
      <trkpt lat="44.42591" lon="4.511">
        <ele>503</ele>
        <time>2013-02-27T12:14:32.000Z</time>
      </trkpt>
      <trkpt lat="44.42591" lon="4.51099">
        <ele>503</ele>
        <time>2013-02-27T12:14:33.000Z</time>
      </trkpt>
      <trkpt lat="44.42592" lon="4.51098">
        <ele>503.39999389648</ele>
        <time>2013-02-27T12:14:34.000Z</time>
      </trkpt>
      <trkpt lat="44.42592" lon="4.51097">
        <ele>503.39999389648</ele>
        <time>2013-02-27T12:14:35.000Z</time>
      </trkpt>
      <trkpt lat="44.42592" lon="4.51095">
        <ele>503.39999389648</ele>
        <time>2013-02-27T12:14:36.000Z</time>
      </trkpt>
      <trkpt lat="44.42592" lon="4.51094">
        <ele>503.39999389648</ele>
        <time>2013-02-27T12:14:37.000Z</time>
      </trkpt>
      <trkpt lat="44.42592" lon="4.51093">
        <ele>503.39999389648</ele>
        <time>2013-02-27T12:14:38.000Z</time>
      </trkpt>
      <trkpt lat="44.42593" lon="4.51092">
        <ele>503.39999389648</ele>
        <time>2013-02-27T12:14:39.000Z</time>
      </trkpt>
      <trkpt lat="44.42593" lon="4.51091">
        <ele>503.39999389648</ele>
        <time>2013-02-27T12:14:40.000Z</time>
      </trkpt>
      <trkpt lat="44.42593" lon="4.51089">
        <ele>503</ele>
        <time>2013-02-27T12:14:41.000Z</time>
      </trkpt>
      <trkpt lat="44.42593" lon="4.51089">
        <ele>503.39999389648</ele>
        <time>2013-02-27T12:14:42.000Z</time>
      </trkpt>
      <trkpt lat="44.42593" lon="4.51088">
        <ele>503.79998779297</ele>
        <time>2013-02-27T12:14:43.000Z</time>
      </trkpt>
      <trkpt lat="44.42593" lon="4.51086">
        <ele>503.79998779297</ele>
        <time>2013-02-27T12:14:44.000Z</time>
      </trkpt>
      <trkpt lat="44.42592" lon="4.51085">
        <ele>503.39999389648</ele>
        <time>2013-02-27T12:14:45.000Z</time>
      </trkpt>
      <trkpt lat="44.42592" lon="4.51083">
        <ele>503.79998779297</ele>
        <time>2013-02-27T12:14:46.000Z</time>
      </trkpt>
      <trkpt lat="44.42592" lon="4.51082">
        <ele>503.79998779297</ele>
        <time>2013-02-27T12:14:47.000Z</time>
      </trkpt>
      <trkpt lat="44.42593" lon="4.5108">
        <ele>503.79998779297</ele>
        <time>2013-02-27T12:14:48.000Z</time>
      </trkpt>
      <trkpt lat="44.42593" lon="4.51079">
        <ele>503.79998779297</ele>
        <time>2013-02-27T12:14:49.000Z</time>
      </trkpt>
      <trkpt lat="44.42593" lon="4.51077">
        <ele>503.79998779297</ele>
        <time>2013-02-27T12:14:50.000Z</time>
      </trkpt>
      <trkpt lat="44.42593" lon="4.51076">
        <ele>503.79998779297</ele>
        <time>2013-02-27T12:14:51.000Z</time>
      </trkpt>
      <trkpt lat="44.42593" lon="4.51074">
        <ele>503.79998779297</ele>
        <time>2013-02-27T12:14:52.000Z</time>
      </trkpt>
      <trkpt lat="44.42593" lon="4.51072">
        <ele>503.39999389648</ele>
        <time>2013-02-27T12:14:53.000Z</time>
      </trkpt>
      <trkpt lat="44.42593" lon="4.51071">
        <ele>503.39999389648</ele>
        <time>2013-02-27T12:14:54.000Z</time>
      </trkpt>
      <trkpt lat="44.42593" lon="4.51069">
        <ele>503.39999389648</ele>
        <time>2013-02-27T12:14:55.000Z</time>
      </trkpt>
      <trkpt lat="44.42593" lon="4.51067">
        <ele>502.39999389648</ele>
        <time>2013-02-27T12:14:56.000Z</time>
      </trkpt>
      <trkpt lat="44.42593" lon="4.51066">
        <ele>502.39999389648</ele>
        <time>2013-02-27T12:14:57.000Z</time>
      </trkpt>
      <trkpt lat="44.42593" lon="4.51064">
        <ele>502.39999389648</ele>
        <time>2013-02-27T12:14:58.000Z</time>
      </trkpt>
      <trkpt lat="44.42593" lon="4.51063">
        <ele>502.39999389648</ele>
        <time>2013-02-27T12:14:59.000Z</time>
      </trkpt>
      <trkpt lat="44.42593" lon="4.51062">
        <ele>503</ele>
        <time>2013-02-27T12:15:00.000Z</time>
      </trkpt>
      <trkpt lat="44.42593" lon="4.51061">
        <ele>503.39999389648</ele>
        <time>2013-02-27T12:15:01.000Z</time>
      </trkpt>
      <trkpt lat="44.42593" lon="4.51059">
        <ele>503.39999389648</ele>
        <time>2013-02-27T12:15:02.000Z</time>
      </trkpt>
      <trkpt lat="44.42593" lon="4.51058">
        <ele>503.39999389648</ele>
        <time>2013-02-27T12:15:03.000Z</time>
      </trkpt>
      <trkpt lat="44.42592" lon="4.51057">
        <ele>503.39999389648</ele>
        <time>2013-02-27T12:15:04.000Z</time>
      </trkpt>
      <trkpt lat="44.42592" lon="4.51056">
        <ele>503.79998779297</ele>
        <time>2013-02-27T12:15:05.000Z</time>
      </trkpt>
      <trkpt lat="44.42592" lon="4.51054">
        <ele>503.79998779297</ele>
        <time>2013-02-27T12:15:06.000Z</time>
      </trkpt>
      <trkpt lat="44.42592" lon="4.51053">
        <ele>504.39999389648</ele>
        <time>2013-02-27T12:15:07.000Z</time>
      </trkpt>
      <trkpt lat="44.42592" lon="4.51052">
        <ele>504.79998779297</ele>
        <time>2013-02-27T12:15:08.000Z</time>
      </trkpt>
      <trkpt lat="44.42592" lon="4.5105">
        <ele>505.79998779297</ele>
        <time>2013-02-27T12:15:09.000Z</time>
      </trkpt>
      <trkpt lat="44.42592" lon="4.51049">
        <ele>506.79998779297</ele>
        <time>2013-02-27T12:15:10.000Z</time>
      </trkpt>
      <trkpt lat="44.42592" lon="4.51048">
        <ele>507.79998779297</ele>
        <time>2013-02-27T12:15:11.000Z</time>
      </trkpt>
      <trkpt lat="44.42592" lon="4.51046">
        <ele>508.20001220703</ele>
        <time>2013-02-27T12:15:12.000Z</time>
      </trkpt>
      <trkpt lat="44.42591" lon="4.51045">
        <ele>509.20001220703</ele>
        <time>2013-02-27T12:15:13.000Z</time>
      </trkpt>
      <trkpt lat="44.42591" lon="4.51044">
        <ele>509.60000610352</ele>
        <time>2013-02-27T12:15:14.000Z</time>
      </trkpt>
      <trkpt lat="44.42592" lon="4.51042">
        <ele>509.60000610352</ele>
        <time>2013-02-27T12:15:15.000Z</time>
      </trkpt>
      <trkpt lat="44.42592" lon="4.5104">
        <ele>509.20001220703</ele>
        <time>2013-02-27T12:15:16.000Z</time>
      </trkpt>
      <trkpt lat="44.42592" lon="4.51038">
        <ele>508.60000610352</ele>
        <time>2013-02-27T12:15:17.000Z</time>
      </trkpt>
      <trkpt lat="44.42592" lon="4.51037">
        <ele>508.20001220703</ele>
        <time>2013-02-27T12:15:18.000Z</time>
      </trkpt>
      <trkpt lat="44.42592" lon="4.51035">
        <ele>508.60000610352</ele>
        <time>2013-02-27T12:15:19.000Z</time>
      </trkpt>
      <trkpt lat="44.42592" lon="4.51034">
        <ele>508.60000610352</ele>
        <time>2013-02-27T12:15:20.000Z</time>
      </trkpt>
      <trkpt lat="44.42592" lon="4.51033">
        <ele>508.60000610352</ele>
        <time>2013-02-27T12:15:21.000Z</time>
      </trkpt>
      <trkpt lat="44.42593" lon="4.51031">
        <ele>509.60000610352</ele>
        <time>2013-02-27T12:15:22.000Z</time>
      </trkpt>
      <trkpt lat="44.42593" lon="4.5103">
        <ele>509.60000610352</ele>
        <time>2013-02-27T12:15:23.000Z</time>
      </trkpt>
      <trkpt lat="44.42593" lon="4.51028">
        <ele>509.60000610352</ele>
        <time>2013-02-27T12:15:24.000Z</time>
      </trkpt>
      <trkpt lat="44.42593" lon="4.51027">
        <ele>509.20001220703</ele>
        <time>2013-02-27T12:15:25.000Z</time>
      </trkpt>
      <trkpt lat="44.42594" lon="4.51026">
        <ele>509.20001220703</ele>
        <time>2013-02-27T12:15:26.000Z</time>
      </trkpt>
      <trkpt lat="44.42594" lon="4.51025">
        <ele>509.20001220703</ele>
        <time>2013-02-27T12:15:27.000Z</time>
      </trkpt>
      <trkpt lat="44.42594" lon="4.51023">
        <ele>509.20001220703</ele>
        <time>2013-02-27T12:15:28.000Z</time>
      </trkpt>
      <trkpt lat="44.42595" lon="4.51022">
        <ele>510.20001220703</ele>
        <time>2013-02-27T12:15:29.000Z</time>
      </trkpt>
      <trkpt lat="44.42595" lon="4.5102">
        <ele>510.20001220703</ele>
        <time>2013-02-27T12:15:30.000Z</time>
      </trkpt>
      <trkpt lat="44.42595" lon="4.51019">
        <ele>510.20001220703</ele>
        <time>2013-02-27T12:15:31.000Z</time>
      </trkpt>
      <trkpt lat="44.42595" lon="4.51017">
        <ele>510.20001220703</ele>
        <time>2013-02-27T12:15:32.000Z</time>
      </trkpt>
      <trkpt lat="44.42595" lon="4.51016">
        <ele>509.60000610352</ele>
        <time>2013-02-27T12:15:33.000Z</time>
      </trkpt>
      <trkpt lat="44.42595" lon="4.51015">
        <ele>510.60000610352</ele>
        <time>2013-02-27T12:15:34.000Z</time>
      </trkpt>
      <trkpt lat="44.42595" lon="4.51015">
        <ele>511</ele>
        <time>2013-02-27T12:15:35.000Z</time>
      </trkpt>
      <trkpt lat="44.42595" lon="4.51014">
        <ele>511</ele>
        <time>2013-02-27T12:15:36.000Z</time>
      </trkpt>
      <trkpt lat="44.42595" lon="4.51013">
        <ele>511</ele>
        <time>2013-02-27T12:15:37.000Z</time>
      </trkpt>
      <trkpt lat="44.42595" lon="4.51011">
        <ele>510.60000610352</ele>
        <time>2013-02-27T12:15:38.000Z</time>
      </trkpt>
      <trkpt lat="44.42595" lon="4.51009">
        <ele>510.20001220703</ele>
        <time>2013-02-27T12:15:39.000Z</time>
      </trkpt>
      <trkpt lat="44.42595" lon="4.51007">
        <ele>509.20001220703</ele>
        <time>2013-02-27T12:15:40.000Z</time>
      </trkpt>
      <trkpt lat="44.42594" lon="4.51006">
        <ele>508.60000610352</ele>
        <time>2013-02-27T12:15:41.000Z</time>
      </trkpt>
      <trkpt lat="44.42594" lon="4.51004">
        <ele>508.60000610352</ele>
        <time>2013-02-27T12:15:42.000Z</time>
      </trkpt>
      <trkpt lat="44.42595" lon="4.51002">
        <ele>508.60000610352</ele>
        <time>2013-02-27T12:15:43.000Z</time>
      </trkpt>
      <trkpt lat="44.42594" lon="4.51001">
        <ele>508.60000610352</ele>
        <time>2013-02-27T12:15:44.000Z</time>
      </trkpt>
      <trkpt lat="44.42594" lon="4.51">
        <ele>509.20001220703</ele>
        <time>2013-02-27T12:15:45.000Z</time>
      </trkpt>
      <trkpt lat="44.42594" lon="4.50999">
        <ele>509.20001220703</ele>
        <time>2013-02-27T12:15:46.000Z</time>
      </trkpt>
      <trkpt lat="44.42595" lon="4.50998">
        <ele>509.20001220703</ele>
        <time>2013-02-27T12:15:47.000Z</time>
      </trkpt>
      <trkpt lat="44.42595" lon="4.50996">
        <ele>509.60000610352</ele>
        <time>2013-02-27T12:15:48.000Z</time>
      </trkpt>
      <trkpt lat="44.42595" lon="4.50995">
        <ele>509.60000610352</ele>
        <time>2013-02-27T12:15:49.000Z</time>
      </trkpt>
      <trkpt lat="44.42594" lon="4.50994">
        <ele>509.60000610352</ele>
        <time>2013-02-27T12:15:50.000Z</time>
      </trkpt>
      <trkpt lat="44.42594" lon="4.50992">
        <ele>509.20001220703</ele>
        <time>2013-02-27T12:15:51.000Z</time>
      </trkpt>
      <trkpt lat="44.42594" lon="4.5099">
        <ele>508.60000610352</ele>
        <time>2013-02-27T12:15:52.000Z</time>
      </trkpt>
      <trkpt lat="44.42594" lon="4.50988">
        <ele>509.20001220703</ele>
        <time>2013-02-27T12:15:53.000Z</time>
      </trkpt>
      <trkpt lat="44.42594" lon="4.50987">
        <ele>509.20001220703</ele>
        <time>2013-02-27T12:15:54.000Z</time>
      </trkpt>
      <trkpt lat="44.42594" lon="4.50986">
        <ele>509.20001220703</ele>
        <time>2013-02-27T12:15:55.000Z</time>
      </trkpt>
      <trkpt lat="44.42593" lon="4.50984">
        <ele>509.60000610352</ele>
        <time>2013-02-27T12:15:56.000Z</time>
      </trkpt>
      <trkpt lat="44.42593" lon="4.50983">
        <ele>510.20001220703</ele>
        <time>2013-02-27T12:15:57.000Z</time>
      </trkpt>
      <trkpt lat="44.42593" lon="4.50981">
        <ele>510.60000610352</ele>
        <time>2013-02-27T12:15:58.000Z</time>
      </trkpt>
      <trkpt lat="44.42593" lon="4.50979">
        <ele>511</ele>
        <time>2013-02-27T12:15:59.000Z</time>
      </trkpt>
      <trkpt lat="44.42593" lon="4.50978">
        <ele>511.60000610352</ele>
        <time>2013-02-27T12:16:00.000Z</time>
      </trkpt>
      <trkpt lat="44.42593" lon="4.50976">
        <ele>512</ele>
        <time>2013-02-27T12:16:01.000Z</time>
      </trkpt>
      <trkpt lat="44.42593" lon="4.50975">
        <ele>512</ele>
        <time>2013-02-27T12:16:02.000Z</time>
      </trkpt>
      <trkpt lat="44.42592" lon="4.50974">
        <ele>512</ele>
        <time>2013-02-27T12:16:03.000Z</time>
      </trkpt>
      <trkpt lat="44.42592" lon="4.50972">
        <ele>512</ele>
        <time>2013-02-27T12:16:04.000Z</time>
      </trkpt>
      <trkpt lat="44.42592" lon="4.5097">
        <ele>511.60000610352</ele>
        <time>2013-02-27T12:16:05.000Z</time>
      </trkpt>
      <trkpt lat="44.42593" lon="4.50969">
        <ele>513</ele>
        <time>2013-02-27T12:16:06.000Z</time>
      </trkpt>
      <trkpt lat="44.42592" lon="4.50968">
        <ele>514</ele>
        <time>2013-02-27T12:16:07.000Z</time>
      </trkpt>
      <trkpt lat="44.42592" lon="4.50967">
        <ele>514.40002441406</ele>
        <time>2013-02-27T12:16:08.000Z</time>
      </trkpt>
      <trkpt lat="44.42592" lon="4.50966">
        <ele>515</ele>
        <time>2013-02-27T12:16:09.000Z</time>
      </trkpt>
      <trkpt lat="44.42592" lon="4.50964">
        <ele>515.40002441406</ele>
        <time>2013-02-27T12:16:10.000Z</time>
      </trkpt>
      <trkpt lat="44.42592" lon="4.50963">
        <ele>515.79998779297</ele>
        <time>2013-02-27T12:16:11.000Z</time>
      </trkpt>
      <trkpt lat="44.42592" lon="4.50961">
        <ele>516.40002441406</ele>
        <time>2013-02-27T12:16:12.000Z</time>
      </trkpt>
      <trkpt lat="44.42591" lon="4.50959">
        <ele>516.79998779297</ele>
        <time>2013-02-27T12:16:13.000Z</time>
      </trkpt>
      <trkpt lat="44.42591" lon="4.50957">
        <ele>517.40002441406</ele>
        <time>2013-02-27T12:16:14.000Z</time>
      </trkpt>
      <trkpt lat="44.4259" lon="4.50954">
        <ele>517.40002441406</ele>
        <time>2013-02-27T12:16:15.000Z</time>
      </trkpt>
      <trkpt lat="44.4259" lon="4.50952">
        <ele>518.20001220703</ele>
        <time>2013-02-27T12:16:16.000Z</time>
      </trkpt>
      <trkpt lat="44.42589" lon="4.50951">
        <ele>518.79998779297</ele>
        <time>2013-02-27T12:16:17.000Z</time>
      </trkpt>
      <trkpt lat="44.42589" lon="4.5095">
        <ele>518.79998779297</ele>
        <time>2013-02-27T12:16:18.000Z</time>
      </trkpt>
      <trkpt lat="44.42589" lon="4.50948">
        <ele>519.20001220703</ele>
        <time>2013-02-27T12:16:19.000Z</time>
      </trkpt>
      <trkpt lat="44.42589" lon="4.50947">
        <ele>519.79998779297</ele>
        <time>2013-02-27T12:16:20.000Z</time>
      </trkpt>
      <trkpt lat="44.42589" lon="4.50946">
        <ele>520.20001220703</ele>
        <time>2013-02-27T12:16:21.000Z</time>
      </trkpt>
      <trkpt lat="44.42588" lon="4.50944">
        <ele>521.20001220703</ele>
        <time>2013-02-27T12:16:22.000Z</time>
      </trkpt>
      <trkpt lat="44.42588" lon="4.50943">
        <ele>521.20001220703</ele>
        <time>2013-02-27T12:16:23.000Z</time>
      </trkpt>
      <trkpt lat="44.42588" lon="4.50941">
        <ele>521.59997558594</ele>
        <time>2013-02-27T12:16:24.000Z</time>
      </trkpt>
      <trkpt lat="44.42588" lon="4.5094">
        <ele>521.59997558594</ele>
        <time>2013-02-27T12:16:25.000Z</time>
      </trkpt>
      <trkpt lat="44.42588" lon="4.50938">
        <ele>521.59997558594</ele>
        <time>2013-02-27T12:16:26.000Z</time>
      </trkpt>
      <trkpt lat="44.42587" lon="4.50936">
        <ele>521.59997558594</ele>
        <time>2013-02-27T12:16:27.000Z</time>
      </trkpt>
      <trkpt lat="44.42587" lon="4.50935">
        <ele>522.20001220703</ele>
        <time>2013-02-27T12:16:28.000Z</time>
      </trkpt>
      <trkpt lat="44.42587" lon="4.50933">
        <ele>522.59997558594</ele>
        <time>2013-02-27T12:16:29.000Z</time>
      </trkpt>
      <trkpt lat="44.42587" lon="4.50931">
        <ele>522.59997558594</ele>
        <time>2013-02-27T12:16:30.000Z</time>
      </trkpt>
      <trkpt lat="44.42586" lon="4.50929">
        <ele>522.59997558594</ele>
        <time>2013-02-27T12:16:31.000Z</time>
      </trkpt>
      <trkpt lat="44.42586" lon="4.50928">
        <ele>522.59997558594</ele>
        <time>2013-02-27T12:16:32.000Z</time>
      </trkpt>
      <trkpt lat="44.42586" lon="4.50926">
        <ele>523</ele>
        <time>2013-02-27T12:16:33.000Z</time>
      </trkpt>
      <trkpt lat="44.42586" lon="4.50924">
        <ele>523</ele>
        <time>2013-02-27T12:16:34.000Z</time>
      </trkpt>
      <trkpt lat="44.42586" lon="4.50923">
        <ele>523</ele>
        <time>2013-02-27T12:16:35.000Z</time>
      </trkpt>
      <trkpt lat="44.42586" lon="4.50921">
        <ele>523</ele>
        <time>2013-02-27T12:16:36.000Z</time>
      </trkpt>
      <trkpt lat="44.42585" lon="4.50919">
        <ele>523</ele>
        <time>2013-02-27T12:16:37.000Z</time>
      </trkpt>
      <trkpt lat="44.42585" lon="4.50918">
        <ele>523</ele>
        <time>2013-02-27T12:16:38.000Z</time>
      </trkpt>
      <trkpt lat="44.42585" lon="4.50916">
        <ele>523</ele>
        <time>2013-02-27T12:16:39.000Z</time>
      </trkpt>
      <trkpt lat="44.42585" lon="4.50914">
        <ele>522.59997558594</ele>
        <time>2013-02-27T12:16:40.000Z</time>
      </trkpt>
      <trkpt lat="44.42584" lon="4.50913">
        <ele>523</ele>
        <time>2013-02-27T12:16:41.000Z</time>
      </trkpt>
      <trkpt lat="44.42584" lon="4.50911">
        <ele>523.59997558594</ele>
        <time>2013-02-27T12:16:42.000Z</time>
      </trkpt>
      <trkpt lat="44.42584" lon="4.50909">
        <ele>522.59997558594</ele>
        <time>2013-02-27T12:16:43.000Z</time>
      </trkpt>
      <trkpt lat="44.42584" lon="4.50907">
        <ele>522.20001220703</ele>
        <time>2013-02-27T12:16:44.000Z</time>
      </trkpt>
      <trkpt lat="44.42583" lon="4.50906">
        <ele>522.59997558594</ele>
        <time>2013-02-27T12:16:45.000Z</time>
      </trkpt>
      <trkpt lat="44.42583" lon="4.50905">
        <ele>522.59997558594</ele>
        <time>2013-02-27T12:16:46.000Z</time>
      </trkpt>
      <trkpt lat="44.42583" lon="4.50904">
        <ele>522.59997558594</ele>
        <time>2013-02-27T12:16:47.000Z</time>
      </trkpt>
      <trkpt lat="44.42582" lon="4.50904">
        <ele>523</ele>
        <time>2013-02-27T12:16:48.000Z</time>
      </trkpt>
      <trkpt lat="44.42581" lon="4.50904">
        <ele>523.59997558594</ele>
        <time>2013-02-27T12:16:49.000Z</time>
      </trkpt>
      <trkpt lat="44.42581" lon="4.50904">
        <ele>523.59997558594</ele>
        <time>2013-02-27T12:16:50.000Z</time>
      </trkpt>
      <trkpt lat="44.42581" lon="4.50905">
        <ele>523.59997558594</ele>
        <time>2013-02-27T12:16:51.000Z</time>
      </trkpt>
      <trkpt lat="44.4258" lon="4.50905">
        <ele>523.59997558594</ele>
        <time>2013-02-27T12:16:52.000Z</time>
      </trkpt>
      <trkpt lat="44.4258" lon="4.50905">
        <ele>524</ele>
        <time>2013-02-27T12:16:53.000Z</time>
      </trkpt>
      <trkpt lat="44.42581" lon="4.50905">
        <ele>524</ele>
        <time>2013-02-27T12:16:54.000Z</time>
      </trkpt>
      <trkpt lat="44.42581" lon="4.50906">
        <ele>524</ele>
        <time>2013-02-27T12:16:55.000Z</time>
      </trkpt>
      <trkpt lat="44.42581" lon="4.50905">
        <ele>524</ele>
        <time>2013-02-27T12:16:56.000Z</time>
      </trkpt>
      <trkpt lat="44.42581" lon="4.50905">
        <ele>524.59997558594</ele>
        <time>2013-02-27T12:16:57.000Z</time>
      </trkpt>
      <trkpt lat="44.42581" lon="4.50905">
        <ele>525</ele>
        <time>2013-02-27T12:16:58.000Z</time>
      </trkpt>
      <trkpt lat="44.42581" lon="4.50905">
        <ele>525</ele>
        <time>2013-02-27T12:16:59.000Z</time>
      </trkpt>
      <trkpt lat="44.42581" lon="4.50905">
        <ele>525.40002441406</ele>
        <time>2013-02-27T12:17:00.000Z</time>
      </trkpt>
      <trkpt lat="44.42582" lon="4.50905">
        <ele>526</ele>
        <time>2013-02-27T12:17:01.000Z</time>
      </trkpt>
      <trkpt lat="44.42582" lon="4.50906">
        <ele>526</ele>
        <time>2013-02-27T12:17:02.000Z</time>
      </trkpt>
      <trkpt lat="44.42582" lon="4.50906">
        <ele>526.40002441406</ele>
        <time>2013-02-27T12:17:03.000Z</time>
      </trkpt>
      <trkpt lat="44.42582" lon="4.50906">
        <ele>526.40002441406</ele>
        <time>2013-02-27T12:17:04.000Z</time>
      </trkpt>
      <trkpt lat="44.42582" lon="4.50906">
        <ele>527</ele>
        <time>2013-02-27T12:17:05.000Z</time>
      </trkpt>
      <trkpt lat="44.42582" lon="4.50906">
        <ele>527</ele>
        <time>2013-02-27T12:17:06.000Z</time>
      </trkpt>
      <trkpt lat="44.42582" lon="4.50906">
        <ele>527.40002441406</ele>
        <time>2013-02-27T12:17:07.000Z</time>
      </trkpt>
      <trkpt lat="44.42582" lon="4.50906">
        <ele>527.40002441406</ele>
        <time>2013-02-27T12:17:08.000Z</time>
      </trkpt>
      <trkpt lat="44.42582" lon="4.50906">
        <ele>528</ele>
        <time>2013-02-27T12:17:09.000Z</time>
      </trkpt>
      <trkpt lat="44.42582" lon="4.50906">
        <ele>528</ele>
        <time>2013-02-27T12:17:10.000Z</time>
      </trkpt>
      <trkpt lat="44.42582" lon="4.50907">
        <ele>528.40002441406</ele>
        <time>2013-02-27T12:17:11.000Z</time>
      </trkpt>
      <trkpt lat="44.42582" lon="4.50907">
        <ele>528.40002441406</ele>
        <time>2013-02-27T12:17:12.000Z</time>
      </trkpt>
      <trkpt lat="44.42582" lon="4.50907">
        <ele>528.40002441406</ele>
        <time>2013-02-27T12:17:13.000Z</time>
      </trkpt>
      <trkpt lat="44.42582" lon="4.50907">
        <ele>528.40002441406</ele>
        <time>2013-02-27T12:17:14.000Z</time>
      </trkpt>
      <trkpt lat="44.42582" lon="4.50907">
        <ele>528.79998779297</ele>
        <time>2013-02-27T12:17:15.000Z</time>
      </trkpt>
      <trkpt lat="44.42582" lon="4.50907">
        <ele>528.79998779297</ele>
        <time>2013-02-27T12:17:16.000Z</time>
      </trkpt>
      <trkpt lat="44.42582" lon="4.50907">
        <ele>528.79998779297</ele>
        <time>2013-02-27T12:17:17.000Z</time>
      </trkpt>
      <trkpt lat="44.42582" lon="4.50907">
        <ele>529.40002441406</ele>
        <time>2013-02-27T12:17:18.000Z</time>
      </trkpt>
      <trkpt lat="44.42582" lon="4.50908">
        <ele>529.40002441406</ele>
        <time>2013-02-27T12:17:19.000Z</time>
      </trkpt>
      <trkpt lat="44.42582" lon="4.50908">
        <ele>529.79998779297</ele>
        <time>2013-02-27T12:17:20.000Z</time>
      </trkpt>
      <trkpt lat="44.42582" lon="4.50908">
        <ele>530.40002441406</ele>
        <time>2013-02-27T12:17:21.000Z</time>
      </trkpt>
      <trkpt lat="44.42582" lon="4.50908">
        <ele>530.40002441406</ele>
        <time>2013-02-27T12:17:22.000Z</time>
      </trkpt>
      <trkpt lat="44.42582" lon="4.50908">
        <ele>530.40002441406</ele>
        <time>2013-02-27T12:17:23.000Z</time>
      </trkpt>
      <trkpt lat="44.42582" lon="4.50908">
        <ele>530.40002441406</ele>
        <time>2013-02-27T12:17:24.000Z</time>
      </trkpt>
      <trkpt lat="44.42582" lon="4.50908">
        <ele>530.40002441406</ele>
        <time>2013-02-27T12:17:25.000Z</time>
      </trkpt>
      <trkpt lat="44.42582" lon="4.50908">
        <ele>530.40002441406</ele>
        <time>2013-02-27T12:17:26.000Z</time>
      </trkpt>
      <trkpt lat="44.42582" lon="4.50908">
        <ele>530.40002441406</ele>
        <time>2013-02-27T12:17:27.000Z</time>
      </trkpt>
      <trkpt lat="44.42582" lon="4.50908">
        <ele>530.40002441406</ele>
        <time>2013-02-27T12:17:28.000Z</time>
      </trkpt>
      <trkpt lat="44.42582" lon="4.50908">
        <ele>530.40002441406</ele>
        <time>2013-02-27T12:17:29.000Z</time>
      </trkpt>
      <trkpt lat="44.42582" lon="4.50908">
        <ele>530.40002441406</ele>
        <time>2013-02-27T12:17:30.000Z</time>
      </trkpt>
      <trkpt lat="44.42582" lon="4.50908">
        <ele>530.40002441406</ele>
        <time>2013-02-27T12:17:31.000Z</time>
      </trkpt>
      <trkpt lat="44.42582" lon="4.50908">
        <ele>530.40002441406</ele>
        <time>2013-02-27T12:17:32.000Z</time>
      </trkpt>
      <trkpt lat="44.42582" lon="4.50908">
        <ele>530.40002441406</ele>
        <time>2013-02-27T12:17:33.000Z</time>
      </trkpt>
      <trkpt lat="44.42582" lon="4.50908">
        <ele>530.40002441406</ele>
        <time>2013-02-27T12:17:34.000Z</time>
      </trkpt>
      <trkpt lat="44.42582" lon="4.50908">
        <ele>530.40002441406</ele>
        <time>2013-02-27T12:17:35.000Z</time>
      </trkpt>
      <trkpt lat="44.42583" lon="4.50908">
        <ele>530.79998779297</ele>
        <time>2013-02-27T12:17:36.000Z</time>
      </trkpt>
      <trkpt lat="44.42583" lon="4.50908">
        <ele>530.79998779297</ele>
        <time>2013-02-27T12:17:37.000Z</time>
      </trkpt>
      <trkpt lat="44.42583" lon="4.50908">
        <ele>530.79998779297</ele>
        <time>2013-02-27T12:17:38.000Z</time>
      </trkpt>
      <trkpt lat="44.42583" lon="4.50908">
        <ele>530.79998779297</ele>
        <time>2013-02-27T12:17:39.000Z</time>
      </trkpt>
      <trkpt lat="44.42583" lon="4.50908">
        <ele>530.79998779297</ele>
        <time>2013-02-27T12:17:40.000Z</time>
      </trkpt>
      <trkpt lat="44.42583" lon="4.50909">
        <ele>530.79998779297</ele>
        <time>2013-02-27T12:17:41.000Z</time>
      </trkpt>
      <trkpt lat="44.42583" lon="4.50909">
        <ele>530.79998779297</ele>
        <time>2013-02-27T12:17:42.000Z</time>
      </trkpt>
      <trkpt lat="44.42583" lon="4.50909">
        <ele>531.20001220703</ele>
        <time>2013-02-27T12:17:43.000Z</time>
      </trkpt>
      <trkpt lat="44.42583" lon="4.50909">
        <ele>531.20001220703</ele>
        <time>2013-02-27T12:17:44.000Z</time>
      </trkpt>
      <trkpt lat="44.42583" lon="4.50909">
        <ele>531.20001220703</ele>
        <time>2013-02-27T12:17:45.000Z</time>
      </trkpt>
      <trkpt lat="44.42583" lon="4.50909">
        <ele>531.20001220703</ele>
        <time>2013-02-27T12:17:46.000Z</time>
      </trkpt>
      <trkpt lat="44.42583" lon="4.50909">
        <ele>531.20001220703</ele>
        <time>2013-02-27T12:17:47.000Z</time>
      </trkpt>
      <trkpt lat="44.42583" lon="4.50909">
        <ele>531.20001220703</ele>
        <time>2013-02-27T12:17:48.000Z</time>
      </trkpt>
      <trkpt lat="44.42583" lon="4.50909">
        <ele>531.20001220703</ele>
        <time>2013-02-27T12:17:49.000Z</time>
      </trkpt>
      <trkpt lat="44.42583" lon="4.50909">
        <ele>531.20001220703</ele>
        <time>2013-02-27T12:17:50.000Z</time>
      </trkpt>
      <trkpt lat="44.42583" lon="4.50909">
        <ele>531.79998779297</ele>
        <time>2013-02-27T12:17:51.000Z</time>
      </trkpt>
      <trkpt lat="44.42583" lon="4.50909">
        <ele>531.79998779297</ele>
        <time>2013-02-27T12:17:52.000Z</time>
      </trkpt>
      <trkpt lat="44.42583" lon="4.50909">
        <ele>531.79998779297</ele>
        <time>2013-02-27T12:17:53.000Z</time>
      </trkpt>
      <trkpt lat="44.42583" lon="4.50909">
        <ele>531.79998779297</ele>
        <time>2013-02-27T12:17:54.000Z</time>
      </trkpt>
      <trkpt lat="44.42583" lon="4.50909">
        <ele>531.79998779297</ele>
        <time>2013-02-27T12:17:55.000Z</time>
      </trkpt>
      <trkpt lat="44.42583" lon="4.50909">
        <ele>531.79998779297</ele>
        <time>2013-02-27T12:17:56.000Z</time>
      </trkpt>
      <trkpt lat="44.42583" lon="4.50909">
        <ele>531.79998779297</ele>
        <time>2013-02-27T12:17:57.000Z</time>
      </trkpt>
      <trkpt lat="44.42583" lon="4.50909">
        <ele>531.79998779297</ele>
        <time>2013-02-27T12:17:58.000Z</time>
      </trkpt>
      <trkpt lat="44.42583" lon="4.50909">
        <ele>531.79998779297</ele>
        <time>2013-02-27T12:17:59.000Z</time>
      </trkpt>
      <trkpt lat="44.42583" lon="4.50909">
        <ele>532.20001220703</ele>
        <time>2013-02-27T12:18:00.000Z</time>
      </trkpt>
      <trkpt lat="44.42583" lon="4.50909">
        <ele>532.20001220703</ele>
        <time>2013-02-27T12:18:01.000Z</time>
      </trkpt>
      <trkpt lat="44.42583" lon="4.50909">
        <ele>532.20001220703</ele>
        <time>2013-02-27T12:18:02.000Z</time>
      </trkpt>
      <trkpt lat="44.42583" lon="4.50909">
        <ele>532.20001220703</ele>
        <time>2013-02-27T12:18:03.000Z</time>
      </trkpt>
      <trkpt lat="44.42583" lon="4.50909">
        <ele>532.20001220703</ele>
        <time>2013-02-27T12:18:04.000Z</time>
      </trkpt>
      <trkpt lat="44.42583" lon="4.50909">
        <ele>532.20001220703</ele>
        <time>2013-02-27T12:18:05.000Z</time>
      </trkpt>
      <trkpt lat="44.42583" lon="4.50909">
        <ele>532.20001220703</ele>
        <time>2013-02-27T12:18:06.000Z</time>
      </trkpt>
      <trkpt lat="44.42583" lon="4.50909">
        <ele>532.20001220703</ele>
        <time>2013-02-27T12:18:07.000Z</time>
      </trkpt>
      <trkpt lat="44.42583" lon="4.50909">
        <ele>532.20001220703</ele>
        <time>2013-02-27T12:18:08.000Z</time>
      </trkpt>
      <trkpt lat="44.42583" lon="4.50909">
        <ele>532.20001220703</ele>
        <time>2013-02-27T12:18:09.000Z</time>
      </trkpt>
      <trkpt lat="44.42583" lon="4.50909">
        <ele>532.20001220703</ele>
        <time>2013-02-27T12:18:10.000Z</time>
      </trkpt>
      <trkpt lat="44.42583" lon="4.50909">
        <ele>531.79998779297</ele>
        <time>2013-02-27T12:18:11.000Z</time>
      </trkpt>
      <trkpt lat="44.42583" lon="4.50908">
        <ele>531.20001220703</ele>
        <time>2013-02-27T12:18:12.000Z</time>
      </trkpt>
      <trkpt lat="44.42582" lon="4.50908">
        <ele>531.20001220703</ele>
        <time>2013-02-27T12:18:13.000Z</time>
      </trkpt>
      <trkpt lat="44.42582" lon="4.50909">
        <ele>530.79998779297</ele>
        <time>2013-02-27T12:18:14.000Z</time>
      </trkpt>
      <trkpt lat="44.42582" lon="4.50908">
        <ele>530.79998779297</ele>
        <time>2013-02-27T12:18:15.000Z</time>
      </trkpt>
      <trkpt lat="44.42582" lon="4.50908">
        <ele>530.40002441406</ele>
        <time>2013-02-27T12:18:16.000Z</time>
      </trkpt>
      <trkpt lat="44.42582" lon="4.50908">
        <ele>530.40002441406</ele>
        <time>2013-02-27T12:18:17.000Z</time>
      </trkpt>
      <trkpt lat="44.42582" lon="4.50908">
        <ele>530.40002441406</ele>
        <time>2013-02-27T12:18:18.000Z</time>
      </trkpt>
      <trkpt lat="44.42582" lon="4.50908">
        <ele>530.40002441406</ele>
        <time>2013-02-27T12:18:19.000Z</time>
      </trkpt>
      <trkpt lat="44.42582" lon="4.50908">
        <ele>530.79998779297</ele>
        <time>2013-02-27T12:18:20.000Z</time>
      </trkpt>
      <trkpt lat="44.42583" lon="4.50909">
        <ele>530.79998779297</ele>
        <time>2013-02-27T12:18:21.000Z</time>
      </trkpt>
      <trkpt lat="44.42582" lon="4.50909">
        <ele>531.20001220703</ele>
        <time>2013-02-27T12:18:22.000Z</time>
      </trkpt>
      <trkpt lat="44.42582" lon="4.50908">
        <ele>531.20001220703</ele>
        <time>2013-02-27T12:18:23.000Z</time>
      </trkpt>
      <trkpt lat="44.42582" lon="4.50908">
        <ele>531.20001220703</ele>
        <time>2013-02-27T12:18:24.000Z</time>
      </trkpt>
      <trkpt lat="44.42582" lon="4.50908">
        <ele>531.20001220703</ele>
        <time>2013-02-27T12:18:25.000Z</time>
      </trkpt>
      <trkpt lat="44.42582" lon="4.50908">
        <ele>531.20001220703</ele>
        <time>2013-02-27T12:18:26.000Z</time>
      </trkpt>
      <trkpt lat="44.42582" lon="4.50907">
        <ele>531.20001220703</ele>
        <time>2013-02-27T12:18:27.000Z</time>
      </trkpt>
      <trkpt lat="44.42582" lon="4.50907">
        <ele>531.20001220703</ele>
        <time>2013-02-27T12:18:28.000Z</time>
      </trkpt>
      <trkpt lat="44.42582" lon="4.50907">
        <ele>530.79998779297</ele>
        <time>2013-02-27T12:18:29.000Z</time>
      </trkpt>
      <trkpt lat="44.42582" lon="4.50906">
        <ele>530.79998779297</ele>
        <time>2013-02-27T12:18:30.000Z</time>
      </trkpt>
      <trkpt lat="44.42582" lon="4.50906">
        <ele>530.79998779297</ele>
        <time>2013-02-27T12:18:31.000Z</time>
      </trkpt>
      <trkpt lat="44.42582" lon="4.50907">
        <ele>530.79998779297</ele>
        <time>2013-02-27T12:18:32.000Z</time>
      </trkpt>
      <trkpt lat="44.42582" lon="4.50907">
        <ele>531.20001220703</ele>
        <time>2013-02-27T12:18:33.000Z</time>
      </trkpt>
      <trkpt lat="44.42582" lon="4.50906">
        <ele>531.20001220703</ele>
        <time>2013-02-27T12:18:34.000Z</time>
      </trkpt>
      <trkpt lat="44.42582" lon="4.50907">
        <ele>531.20001220703</ele>
        <time>2013-02-27T12:18:35.000Z</time>
      </trkpt>
      <trkpt lat="44.42582" lon="4.50907">
        <ele>531.20001220703</ele>
        <time>2013-02-27T12:18:36.000Z</time>
      </trkpt>
      <trkpt lat="44.42582" lon="4.50907">
        <ele>531.20001220703</ele>
        <time>2013-02-27T12:18:37.000Z</time>
      </trkpt>
      <trkpt lat="44.42582" lon="4.50907">
        <ele>531.20001220703</ele>
        <time>2013-02-27T12:18:38.000Z</time>
      </trkpt>
      <trkpt lat="44.42582" lon="4.50907">
        <ele>531.79998779297</ele>
        <time>2013-02-27T12:18:39.000Z</time>
      </trkpt>
      <trkpt lat="44.42582" lon="4.50907">
        <ele>531.79998779297</ele>
        <time>2013-02-27T12:18:40.000Z</time>
      </trkpt>
      <trkpt lat="44.42582" lon="4.50907">
        <ele>531.79998779297</ele>
        <time>2013-02-27T12:18:41.000Z</time>
      </trkpt>
      <trkpt lat="44.42582" lon="4.50907">
        <ele>531.79998779297</ele>
        <time>2013-02-27T12:18:42.000Z</time>
      </trkpt>
      <trkpt lat="44.42582" lon="4.50907">
        <ele>531.79998779297</ele>
        <time>2013-02-27T12:18:43.000Z</time>
      </trkpt>
      <trkpt lat="44.42581" lon="4.50908">
        <ele>531.79998779297</ele>
        <time>2013-02-27T12:18:44.000Z</time>
      </trkpt>
      <trkpt lat="44.42581" lon="4.50908">
        <ele>531.79998779297</ele>
        <time>2013-02-27T12:18:45.000Z</time>
      </trkpt>
      <trkpt lat="44.4258" lon="4.50909">
        <ele>532.20001220703</ele>
        <time>2013-02-27T12:18:46.000Z</time>
      </trkpt>
      <trkpt lat="44.4258" lon="4.50909">
        <ele>531.79998779297</ele>
        <time>2013-02-27T12:18:47.000Z</time>
      </trkpt>
      <trkpt lat="44.4258" lon="4.50909">
        <ele>531.79998779297</ele>
        <time>2013-02-27T12:18:48.000Z</time>
      </trkpt>
      <trkpt lat="44.4258" lon="4.50909">
        <ele>531.20001220703</ele>
        <time>2013-02-27T12:18:49.000Z</time>
      </trkpt>
      <trkpt lat="44.42579" lon="4.5091">
        <ele>531.79998779297</ele>
        <time>2013-02-27T12:18:50.000Z</time>
      </trkpt>
      <trkpt lat="44.42579" lon="4.50911">
        <ele>532.79998779297</ele>
        <time>2013-02-27T12:18:51.000Z</time>
      </trkpt>
      <trkpt lat="44.42579" lon="4.50911">
        <ele>532.79998779297</ele>
        <time>2013-02-27T12:18:52.000Z</time>
      </trkpt>
      <trkpt lat="44.42579" lon="4.50911">
        <ele>532.79998779297</ele>
        <time>2013-02-27T12:18:53.000Z</time>
      </trkpt>
      <trkpt lat="44.42579" lon="4.50911">
        <ele>533.20001220703</ele>
        <time>2013-02-27T12:18:54.000Z</time>
      </trkpt>
      <trkpt lat="44.42579" lon="4.50911">
        <ele>533.20001220703</ele>
        <time>2013-02-27T12:18:55.000Z</time>
      </trkpt>
      <trkpt lat="44.42579" lon="4.50911">
        <ele>533.59997558594</ele>
        <time>2013-02-27T12:18:56.000Z</time>
      </trkpt>
      <trkpt lat="44.42579" lon="4.50911">
        <ele>534.20001220703</ele>
        <time>2013-02-27T12:18:57.000Z</time>
      </trkpt>
      <trkpt lat="44.42579" lon="4.50911">
        <ele>534.59997558594</ele>
        <time>2013-02-27T12:18:58.000Z</time>
      </trkpt>
      <trkpt lat="44.42579" lon="4.50911">
        <ele>534.20001220703</ele>
        <time>2013-02-27T12:18:59.000Z</time>
      </trkpt>
      <trkpt lat="44.42579" lon="4.50911">
        <ele>533.59997558594</ele>
        <time>2013-02-27T12:19:00.000Z</time>
      </trkpt>
      <trkpt lat="44.42579" lon="4.50911">
        <ele>533.20001220703</ele>
        <time>2013-02-27T12:19:01.000Z</time>
      </trkpt>
      <trkpt lat="44.42579" lon="4.50911">
        <ele>533.20001220703</ele>
        <time>2013-02-27T12:19:02.000Z</time>
      </trkpt>
      <trkpt lat="44.42579" lon="4.50911">
        <ele>533.20001220703</ele>
        <time>2013-02-27T12:19:03.000Z</time>
      </trkpt>
      <trkpt lat="44.42579" lon="4.50911">
        <ele>532.79998779297</ele>
        <time>2013-02-27T12:19:04.000Z</time>
      </trkpt>
      <trkpt lat="44.42579" lon="4.50911">
        <ele>532.79998779297</ele>
        <time>2013-02-27T12:19:05.000Z</time>
      </trkpt>
      <trkpt lat="44.42579" lon="4.50911">
        <ele>533.20001220703</ele>
        <time>2013-02-27T12:19:06.000Z</time>
      </trkpt>
      <trkpt lat="44.42579" lon="4.50911">
        <ele>533.20001220703</ele>
        <time>2013-02-27T12:19:07.000Z</time>
      </trkpt>
      <trkpt lat="44.42579" lon="4.50911">
        <ele>533.59997558594</ele>
        <time>2013-02-27T12:19:08.000Z</time>
      </trkpt>
      <trkpt lat="44.42579" lon="4.50911">
        <ele>533.59997558594</ele>
        <time>2013-02-27T12:19:09.000Z</time>
      </trkpt>
      <trkpt lat="44.42579" lon="4.50911">
        <ele>534.20001220703</ele>
        <time>2013-02-27T12:19:10.000Z</time>
      </trkpt>
      <trkpt lat="44.42579" lon="4.50911">
        <ele>534.20001220703</ele>
        <time>2013-02-27T12:19:11.000Z</time>
      </trkpt>
      <trkpt lat="44.42579" lon="4.50911">
        <ele>534.20001220703</ele>
        <time>2013-02-27T12:19:12.000Z</time>
      </trkpt>
      <trkpt lat="44.4258" lon="4.5091">
        <ele>534.59997558594</ele>
        <time>2013-02-27T12:19:13.000Z</time>
      </trkpt>
      <trkpt lat="44.42579" lon="4.5091">
        <ele>534.20001220703</ele>
        <time>2013-02-27T12:19:14.000Z</time>
      </trkpt>
      <trkpt lat="44.42579" lon="4.5091">
        <ele>533.59997558594</ele>
        <time>2013-02-27T12:19:15.000Z</time>
      </trkpt>
      <trkpt lat="44.42579" lon="4.50911">
        <ele>532.79998779297</ele>
        <time>2013-02-27T12:19:16.000Z</time>
      </trkpt>
      <trkpt lat="44.4258" lon="4.50911">
        <ele>532.79998779297</ele>
        <time>2013-02-27T12:19:17.000Z</time>
      </trkpt>
      <trkpt lat="44.4258" lon="4.50911">
        <ele>532.79998779297</ele>
        <time>2013-02-27T12:19:18.000Z</time>
      </trkpt>
      <trkpt lat="44.4258" lon="4.50911">
        <ele>532.79998779297</ele>
        <time>2013-02-27T12:19:19.000Z</time>
      </trkpt>
      <trkpt lat="44.4258" lon="4.50911">
        <ele>532.20001220703</ele>
        <time>2013-02-27T12:19:20.000Z</time>
      </trkpt>
      <trkpt lat="44.4258" lon="4.50911">
        <ele>532.20001220703</ele>
        <time>2013-02-27T12:19:21.000Z</time>
      </trkpt>
      <trkpt lat="44.4258" lon="4.5091">
        <ele>531.79998779297</ele>
        <time>2013-02-27T12:19:22.000Z</time>
      </trkpt>
      <trkpt lat="44.4258" lon="4.5091">
        <ele>531.79998779297</ele>
        <time>2013-02-27T12:19:23.000Z</time>
      </trkpt>
      <trkpt lat="44.4258" lon="4.5091">
        <ele>531.79998779297</ele>
        <time>2013-02-27T12:19:24.000Z</time>
      </trkpt>
      <trkpt lat="44.4258" lon="4.5091">
        <ele>531.79998779297</ele>
        <time>2013-02-27T12:19:25.000Z</time>
      </trkpt>
      <trkpt lat="44.4258" lon="4.5091">
        <ele>531.79998779297</ele>
        <time>2013-02-27T12:19:26.000Z</time>
      </trkpt>
      <trkpt lat="44.42581" lon="4.5091">
        <ele>531.79998779297</ele>
        <time>2013-02-27T12:19:27.000Z</time>
      </trkpt>
      <trkpt lat="44.42581" lon="4.5091">
        <ele>531.79998779297</ele>
        <time>2013-02-27T12:19:28.000Z</time>
      </trkpt>
      <trkpt lat="44.42581" lon="4.5091">
        <ele>531.79998779297</ele>
        <time>2013-02-27T12:19:29.000Z</time>
      </trkpt>
      <trkpt lat="44.42581" lon="4.5091">
        <ele>531.79998779297</ele>
        <time>2013-02-27T12:19:30.000Z</time>
      </trkpt>
      <trkpt lat="44.42581" lon="4.5091">
        <ele>531.79998779297</ele>
        <time>2013-02-27T12:19:31.000Z</time>
      </trkpt>
      <trkpt lat="44.42581" lon="4.50909">
        <ele>531.20001220703</ele>
        <time>2013-02-27T12:19:32.000Z</time>
      </trkpt>
      <trkpt lat="44.42581" lon="4.50909">
        <ele>531.20001220703</ele>
        <time>2013-02-27T12:19:33.000Z</time>
      </trkpt>
      <trkpt lat="44.42581" lon="4.50909">
        <ele>530.79998779297</ele>
        <time>2013-02-27T12:19:34.000Z</time>
      </trkpt>
      <trkpt lat="44.42582" lon="4.50909">
        <ele>530.79998779297</ele>
        <time>2013-02-27T12:19:35.000Z</time>
      </trkpt>
      <trkpt lat="44.42582" lon="4.5091">
        <ele>530.79998779297</ele>
        <time>2013-02-27T12:19:36.000Z</time>
      </trkpt>
      <trkpt lat="44.42581" lon="4.5091">
        <ele>531.20001220703</ele>
        <time>2013-02-27T12:19:37.000Z</time>
      </trkpt>
      <trkpt lat="44.42581" lon="4.5091">
        <ele>530.79998779297</ele>
        <time>2013-02-27T12:19:38.000Z</time>
      </trkpt>
      <trkpt lat="44.4258" lon="4.5091">
        <ele>530.40002441406</ele>
        <time>2013-02-27T12:19:39.000Z</time>
      </trkpt>
      <trkpt lat="44.4258" lon="4.5091">
        <ele>529.79998779297</ele>
        <time>2013-02-27T12:19:40.000Z</time>
      </trkpt>
      <trkpt lat="44.4258" lon="4.50909">
        <ele>528.79998779297</ele>
        <time>2013-02-27T12:19:41.000Z</time>
      </trkpt>
      <trkpt lat="44.42581" lon="4.50908">
        <ele>528.79998779297</ele>
        <time>2013-02-27T12:19:42.000Z</time>
      </trkpt>
      <trkpt lat="44.42582" lon="4.50907">
        <ele>528.40002441406</ele>
        <time>2013-02-27T12:19:43.000Z</time>
      </trkpt>
      <trkpt lat="44.42582" lon="4.50905">
        <ele>528</ele>
        <time>2013-02-27T12:19:44.000Z</time>
      </trkpt>
      <trkpt lat="44.42582" lon="4.50903">
        <ele>528</ele>
        <time>2013-02-27T12:19:45.000Z</time>
      </trkpt>
      <trkpt lat="44.42582" lon="4.50902">
        <ele>527.40002441406</ele>
        <time>2013-02-27T12:19:46.000Z</time>
      </trkpt>
      <trkpt lat="44.42581" lon="4.509">
        <ele>527.40002441406</ele>
        <time>2013-02-27T12:19:47.000Z</time>
      </trkpt>
      <trkpt lat="44.42581" lon="4.50898">
        <ele>527</ele>
        <time>2013-02-27T12:19:48.000Z</time>
      </trkpt>
      <trkpt lat="44.42581" lon="4.50898">
        <ele>527.40002441406</ele>
        <time>2013-02-27T12:19:49.000Z</time>
      </trkpt>
      <trkpt lat="44.4258" lon="4.50897">
        <ele>527.40002441406</ele>
        <time>2013-02-27T12:19:50.000Z</time>
      </trkpt>
      <trkpt lat="44.4258" lon="4.50895">
        <ele>527.40002441406</ele>
        <time>2013-02-27T12:19:51.000Z</time>
      </trkpt>
      <trkpt lat="44.42579" lon="4.50893">
        <ele>526.40002441406</ele>
        <time>2013-02-27T12:19:52.000Z</time>
      </trkpt>
      <trkpt lat="44.42579" lon="4.50891">
        <ele>526.40002441406</ele>
        <time>2013-02-27T12:19:53.000Z</time>
      </trkpt>
      <trkpt lat="44.42578" lon="4.50889">
        <ele>526</ele>
        <time>2013-02-27T12:19:54.000Z</time>
      </trkpt>
      <trkpt lat="44.42578" lon="4.50887">
        <ele>525.40002441406</ele>
        <time>2013-02-27T12:19:55.000Z</time>
      </trkpt>
      <trkpt lat="44.42577" lon="4.50885">
        <ele>525</ele>
        <time>2013-02-27T12:19:56.000Z</time>
      </trkpt>
      <trkpt lat="44.42577" lon="4.50884">
        <ele>525.40002441406</ele>
        <time>2013-02-27T12:19:57.000Z</time>
      </trkpt>
      <trkpt lat="44.42577" lon="4.50882">
        <ele>526</ele>
        <time>2013-02-27T12:19:58.000Z</time>
      </trkpt>
      <trkpt lat="44.42576" lon="4.5088">
        <ele>525.40002441406</ele>
        <time>2013-02-27T12:19:59.000Z</time>
      </trkpt>
      <trkpt lat="44.42576" lon="4.50878">
        <ele>525.40002441406</ele>
        <time>2013-02-27T12:20:00.000Z</time>
      </trkpt>
      <trkpt lat="44.42575" lon="4.50876">
        <ele>525.40002441406</ele>
        <time>2013-02-27T12:20:01.000Z</time>
      </trkpt>
      <trkpt lat="44.42575" lon="4.50873">
        <ele>525</ele>
        <time>2013-02-27T12:20:02.000Z</time>
      </trkpt>
      <trkpt lat="44.42575" lon="4.50871">
        <ele>525</ele>
        <time>2013-02-27T12:20:03.000Z</time>
      </trkpt>
      <trkpt lat="44.42575" lon="4.50869">
        <ele>525</ele>
        <time>2013-02-27T12:20:04.000Z</time>
      </trkpt>
      <trkpt lat="44.42575" lon="4.50867">
        <ele>525</ele>
        <time>2013-02-27T12:20:05.000Z</time>
      </trkpt>
      <trkpt lat="44.42575" lon="4.50866">
        <ele>524.59997558594</ele>
        <time>2013-02-27T12:20:06.000Z</time>
      </trkpt>
      <trkpt lat="44.42576" lon="4.50865">
        <ele>524.59997558594</ele>
        <time>2013-02-27T12:20:07.000Z</time>
      </trkpt>
      <trkpt lat="44.42576" lon="4.50863">
        <ele>524.59997558594</ele>
        <time>2013-02-27T12:20:08.000Z</time>
      </trkpt>
      <trkpt lat="44.42576" lon="4.50862">
        <ele>524.59997558594</ele>
        <time>2013-02-27T12:20:09.000Z</time>
      </trkpt>
      <trkpt lat="44.42576" lon="4.5086">
        <ele>524.59997558594</ele>
        <time>2013-02-27T12:20:10.000Z</time>
      </trkpt>
      <trkpt lat="44.42576" lon="4.50859">
        <ele>524.59997558594</ele>
        <time>2013-02-27T12:20:11.000Z</time>
      </trkpt>
      <trkpt lat="44.42575" lon="4.50857">
        <ele>524.59997558594</ele>
        <time>2013-02-27T12:20:12.000Z</time>
      </trkpt>
      <trkpt lat="44.42575" lon="4.50856">
        <ele>524.59997558594</ele>
        <time>2013-02-27T12:20:13.000Z</time>
      </trkpt>
      <trkpt lat="44.42574" lon="4.50855">
        <ele>524.59997558594</ele>
        <time>2013-02-27T12:20:14.000Z</time>
      </trkpt>
      <trkpt lat="44.42574" lon="4.50853">
        <ele>524.59997558594</ele>
        <time>2013-02-27T12:20:15.000Z</time>
      </trkpt>
      <trkpt lat="44.42574" lon="4.50851">
        <ele>525</ele>
        <time>2013-02-27T12:20:16.000Z</time>
      </trkpt>
      <trkpt lat="44.42574" lon="4.50851">
        <ele>525.40002441406</ele>
        <time>2013-02-27T12:20:17.000Z</time>
      </trkpt>
      <trkpt lat="44.42575" lon="4.5085">
        <ele>525.40002441406</ele>
        <time>2013-02-27T12:20:18.000Z</time>
      </trkpt>
      <trkpt lat="44.42575" lon="4.50848">
        <ele>525</ele>
        <time>2013-02-27T12:20:19.000Z</time>
      </trkpt>
      <trkpt lat="44.42576" lon="4.50847">
        <ele>525</ele>
        <time>2013-02-27T12:20:20.000Z</time>
      </trkpt>
      <trkpt lat="44.42577" lon="4.50845">
        <ele>525</ele>
        <time>2013-02-27T12:20:21.000Z</time>
      </trkpt>
      <trkpt lat="44.42577" lon="4.50844">
        <ele>525</ele>
        <time>2013-02-27T12:20:22.000Z</time>
      </trkpt>
      <trkpt lat="44.42577" lon="4.50842">
        <ele>525</ele>
        <time>2013-02-27T12:20:23.000Z</time>
      </trkpt>
      <trkpt lat="44.42578" lon="4.50841">
        <ele>525</ele>
        <time>2013-02-27T12:20:24.000Z</time>
      </trkpt>
      <trkpt lat="44.42578" lon="4.50839">
        <ele>525</ele>
        <time>2013-02-27T12:20:25.000Z</time>
      </trkpt>
      <trkpt lat="44.42577" lon="4.50837">
        <ele>524.59997558594</ele>
        <time>2013-02-27T12:20:26.000Z</time>
      </trkpt>
      <trkpt lat="44.42577" lon="4.50835">
        <ele>524.59997558594</ele>
        <time>2013-02-27T12:20:27.000Z</time>
      </trkpt>
      <trkpt lat="44.42577" lon="4.50834">
        <ele>524.59997558594</ele>
        <time>2013-02-27T12:20:28.000Z</time>
      </trkpt>
      <trkpt lat="44.42577" lon="4.50831">
        <ele>524.59997558594</ele>
        <time>2013-02-27T12:20:29.000Z</time>
      </trkpt>
      <trkpt lat="44.42577" lon="4.5083">
        <ele>524.59997558594</ele>
        <time>2013-02-27T12:20:30.000Z</time>
      </trkpt>
      <trkpt lat="44.42577" lon="4.50828">
        <ele>524</ele>
        <time>2013-02-27T12:20:31.000Z</time>
      </trkpt>
      <trkpt lat="44.42577" lon="4.50826">
        <ele>524</ele>
        <time>2013-02-27T12:20:32.000Z</time>
      </trkpt>
      <trkpt lat="44.42577" lon="4.50825">
        <ele>524.59997558594</ele>
        <time>2013-02-27T12:20:33.000Z</time>
      </trkpt>
      <trkpt lat="44.42577" lon="4.50823">
        <ele>524.59997558594</ele>
        <time>2013-02-27T12:20:34.000Z</time>
      </trkpt>
      <trkpt lat="44.42576" lon="4.50821">
        <ele>524.59997558594</ele>
        <time>2013-02-27T12:20:35.000Z</time>
      </trkpt>
      <trkpt lat="44.42576" lon="4.50819">
        <ele>524.59997558594</ele>
        <time>2013-02-27T12:20:36.000Z</time>
      </trkpt>
      <trkpt lat="44.42576" lon="4.50817">
        <ele>525</ele>
        <time>2013-02-27T12:20:37.000Z</time>
      </trkpt>
      <trkpt lat="44.42576" lon="4.50816">
        <ele>525</ele>
        <time>2013-02-27T12:20:38.000Z</time>
      </trkpt>
      <trkpt lat="44.42576" lon="4.50814">
        <ele>525.40002441406</ele>
        <time>2013-02-27T12:20:39.000Z</time>
      </trkpt>
      <trkpt lat="44.42575" lon="4.50813">
        <ele>525.40002441406</ele>
        <time>2013-02-27T12:20:40.000Z</time>
      </trkpt>
      <trkpt lat="44.42575" lon="4.50811">
        <ele>525.40002441406</ele>
        <time>2013-02-27T12:20:41.000Z</time>
      </trkpt>
      <trkpt lat="44.42575" lon="4.50809">
        <ele>526</ele>
        <time>2013-02-27T12:20:42.000Z</time>
      </trkpt>
      <trkpt lat="44.42575" lon="4.50808">
        <ele>526</ele>
        <time>2013-02-27T12:20:43.000Z</time>
      </trkpt>
      <trkpt lat="44.42575" lon="4.50805">
        <ele>526.40002441406</ele>
        <time>2013-02-27T12:20:44.000Z</time>
      </trkpt>
      <trkpt lat="44.42575" lon="4.50804">
        <ele>526.40002441406</ele>
        <time>2013-02-27T12:20:45.000Z</time>
      </trkpt>
      <trkpt lat="44.42575" lon="4.50803">
        <ele>527</ele>
        <time>2013-02-27T12:20:46.000Z</time>
      </trkpt>
      <trkpt lat="44.42575" lon="4.50802">
        <ele>527</ele>
        <time>2013-02-27T12:20:47.000Z</time>
      </trkpt>
      <trkpt lat="44.42575" lon="4.508">
        <ele>526</ele>
        <time>2013-02-27T12:20:48.000Z</time>
      </trkpt>
      <trkpt lat="44.42575" lon="4.50798">
        <ele>526</ele>
        <time>2013-02-27T12:20:49.000Z</time>
      </trkpt>
      <trkpt lat="44.42575" lon="4.50797">
        <ele>526</ele>
        <time>2013-02-27T12:20:50.000Z</time>
      </trkpt>
      <trkpt lat="44.42575" lon="4.50796">
        <ele>526.40002441406</ele>
        <time>2013-02-27T12:20:51.000Z</time>
      </trkpt>
      <trkpt lat="44.42575" lon="4.50794">
        <ele>526.40002441406</ele>
        <time>2013-02-27T12:20:52.000Z</time>
      </trkpt>
      <trkpt lat="44.42575" lon="4.50792">
        <ele>526.40002441406</ele>
        <time>2013-02-27T12:20:53.000Z</time>
      </trkpt>
      <trkpt lat="44.42575" lon="4.50791">
        <ele>527</ele>
        <time>2013-02-27T12:20:54.000Z</time>
      </trkpt>
      <trkpt lat="44.42575" lon="4.5079">
        <ele>527.40002441406</ele>
        <time>2013-02-27T12:20:55.000Z</time>
      </trkpt>
      <trkpt lat="44.42575" lon="4.50789">
        <ele>528.40002441406</ele>
        <time>2013-02-27T12:20:56.000Z</time>
      </trkpt>
      <trkpt lat="44.42575" lon="4.50787">
        <ele>529.40002441406</ele>
        <time>2013-02-27T12:20:57.000Z</time>
      </trkpt>
      <trkpt lat="44.42575" lon="4.50786">
        <ele>529.79998779297</ele>
        <time>2013-02-27T12:20:58.000Z</time>
      </trkpt>
      <trkpt lat="44.42575" lon="4.50785">
        <ele>530.40002441406</ele>
        <time>2013-02-27T12:20:59.000Z</time>
      </trkpt>
      <trkpt lat="44.42575" lon="4.50785">
        <ele>531.20001220703</ele>
        <time>2013-02-27T12:21:00.000Z</time>
      </trkpt>
      <trkpt lat="44.42575" lon="4.50784">
        <ele>531.79998779297</ele>
        <time>2013-02-27T12:21:01.000Z</time>
      </trkpt>
      <trkpt lat="44.42575" lon="4.50782">
        <ele>531.79998779297</ele>
        <time>2013-02-27T12:21:02.000Z</time>
      </trkpt>
      <trkpt lat="44.42575" lon="4.5078">
        <ele>531.79998779297</ele>
        <time>2013-02-27T12:21:03.000Z</time>
      </trkpt>
      <trkpt lat="44.42575" lon="4.50779">
        <ele>531.79998779297</ele>
        <time>2013-02-27T12:21:04.000Z</time>
      </trkpt>
      <trkpt lat="44.42574" lon="4.50778">
        <ele>531.20001220703</ele>
        <time>2013-02-27T12:21:05.000Z</time>
      </trkpt>
      <trkpt lat="44.42574" lon="4.50776">
        <ele>530.40002441406</ele>
        <time>2013-02-27T12:21:06.000Z</time>
      </trkpt>
      <trkpt lat="44.42574" lon="4.50774">
        <ele>529.79998779297</ele>
        <time>2013-02-27T12:21:07.000Z</time>
      </trkpt>
      <trkpt lat="44.42574" lon="4.50772">
        <ele>529.40002441406</ele>
        <time>2013-02-27T12:21:08.000Z</time>
      </trkpt>
      <trkpt lat="44.42574" lon="4.5077">
        <ele>528.79998779297</ele>
        <time>2013-02-27T12:21:09.000Z</time>
      </trkpt>
      <trkpt lat="44.42574" lon="4.50769">
        <ele>528.40002441406</ele>
        <time>2013-02-27T12:21:10.000Z</time>
      </trkpt>
      <trkpt lat="44.42574" lon="4.50767">
        <ele>528.79998779297</ele>
        <time>2013-02-27T12:21:11.000Z</time>
      </trkpt>
      <trkpt lat="44.42574" lon="4.50766">
        <ele>528.40002441406</ele>
        <time>2013-02-27T12:21:12.000Z</time>
      </trkpt>
      <trkpt lat="44.42574" lon="4.50764">
        <ele>528.40002441406</ele>
        <time>2013-02-27T12:21:13.000Z</time>
      </trkpt>
      <trkpt lat="44.42574" lon="4.50762">
        <ele>528.79998779297</ele>
        <time>2013-02-27T12:21:14.000Z</time>
      </trkpt>
      <trkpt lat="44.42574" lon="4.50761">
        <ele>529.79998779297</ele>
        <time>2013-02-27T12:21:15.000Z</time>
      </trkpt>
      <trkpt lat="44.42573" lon="4.50759">
        <ele>530.40002441406</ele>
        <time>2013-02-27T12:21:16.000Z</time>
      </trkpt>
      <trkpt lat="44.42573" lon="4.50757">
        <ele>529.79998779297</ele>
        <time>2013-02-27T12:21:17.000Z</time>
      </trkpt>
      <trkpt lat="44.42573" lon="4.50755">
        <ele>530.40002441406</ele>
        <time>2013-02-27T12:21:18.000Z</time>
      </trkpt>
      <trkpt lat="44.42573" lon="4.50754">
        <ele>530.40002441406</ele>
        <time>2013-02-27T12:21:19.000Z</time>
      </trkpt>
      <trkpt lat="44.42573" lon="4.50752">
        <ele>530.40002441406</ele>
        <time>2013-02-27T12:21:20.000Z</time>
      </trkpt>
      <trkpt lat="44.42572" lon="4.5075">
        <ele>530.40002441406</ele>
        <time>2013-02-27T12:21:21.000Z</time>
      </trkpt>
      <trkpt lat="44.42573" lon="4.50749">
        <ele>530.40002441406</ele>
        <time>2013-02-27T12:21:22.000Z</time>
      </trkpt>
      <trkpt lat="44.42572" lon="4.50747">
        <ele>531.20001220703</ele>
        <time>2013-02-27T12:21:23.000Z</time>
      </trkpt>
      <trkpt lat="44.42572" lon="4.50746">
        <ele>532.20001220703</ele>
        <time>2013-02-27T12:21:24.000Z</time>
      </trkpt>
      <trkpt lat="44.42572" lon="4.50745">
        <ele>532.79998779297</ele>
        <time>2013-02-27T12:21:25.000Z</time>
      </trkpt>
      <trkpt lat="44.42572" lon="4.50743">
        <ele>532.79998779297</ele>
        <time>2013-02-27T12:21:26.000Z</time>
      </trkpt>
      <trkpt lat="44.42572" lon="4.50742">
        <ele>533.20001220703</ele>
        <time>2013-02-27T12:21:27.000Z</time>
      </trkpt>
      <trkpt lat="44.42572" lon="4.50741">
        <ele>533.59997558594</ele>
        <time>2013-02-27T12:21:28.000Z</time>
      </trkpt>
      <trkpt lat="44.42572" lon="4.50739">
        <ele>534.20001220703</ele>
        <time>2013-02-27T12:21:29.000Z</time>
      </trkpt>
      <trkpt lat="44.42572" lon="4.50738">
        <ele>534.59997558594</ele>
        <time>2013-02-27T12:21:30.000Z</time>
      </trkpt>
      <trkpt lat="44.42572" lon="4.50736">
        <ele>534.59997558594</ele>
        <time>2013-02-27T12:21:31.000Z</time>
      </trkpt>
      <trkpt lat="44.42572" lon="4.50734">
        <ele>535.20001220703</ele>
        <time>2013-02-27T12:21:32.000Z</time>
      </trkpt>
      <trkpt lat="44.42572" lon="4.50733">
        <ele>535.20001220703</ele>
        <time>2013-02-27T12:21:33.000Z</time>
      </trkpt>
      <trkpt lat="44.42572" lon="4.50731">
        <ele>535.59997558594</ele>
        <time>2013-02-27T12:21:34.000Z</time>
      </trkpt>
      <trkpt lat="44.42572" lon="4.5073">
        <ele>535.59997558594</ele>
        <time>2013-02-27T12:21:35.000Z</time>
      </trkpt>
      <trkpt lat="44.42572" lon="4.50728">
        <ele>536</ele>
        <time>2013-02-27T12:21:36.000Z</time>
      </trkpt>
      <trkpt lat="44.42572" lon="4.50726">
        <ele>536</ele>
        <time>2013-02-27T12:21:37.000Z</time>
      </trkpt>
      <trkpt lat="44.42571" lon="4.50725">
        <ele>536</ele>
        <time>2013-02-27T12:21:38.000Z</time>
      </trkpt>
      <trkpt lat="44.42571" lon="4.50723">
        <ele>536.59997558594</ele>
        <time>2013-02-27T12:21:39.000Z</time>
      </trkpt>
      <trkpt lat="44.42571" lon="4.50722">
        <ele>536.59997558594</ele>
        <time>2013-02-27T12:21:40.000Z</time>
      </trkpt>
      <trkpt lat="44.42571" lon="4.5072">
        <ele>537</ele>
        <time>2013-02-27T12:21:41.000Z</time>
      </trkpt>
      <trkpt lat="44.4257" lon="4.50719">
        <ele>537.59997558594</ele>
        <time>2013-02-27T12:21:42.000Z</time>
      </trkpt>
      <trkpt lat="44.4257" lon="4.50717">
        <ele>537.59997558594</ele>
        <time>2013-02-27T12:21:43.000Z</time>
      </trkpt>
      <trkpt lat="44.4257" lon="4.50716">
        <ele>537.59997558594</ele>
        <time>2013-02-27T12:21:44.000Z</time>
      </trkpt>
      <trkpt lat="44.42569" lon="4.50714">
        <ele>537.59997558594</ele>
        <time>2013-02-27T12:21:45.000Z</time>
      </trkpt>
      <trkpt lat="44.42569" lon="4.50713">
        <ele>538</ele>
        <time>2013-02-27T12:21:46.000Z</time>
      </trkpt>
      <trkpt lat="44.42569" lon="4.50711">
        <ele>538</ele>
        <time>2013-02-27T12:21:47.000Z</time>
      </trkpt>
      <trkpt lat="44.42569" lon="4.5071">
        <ele>538.40002441406</ele>
        <time>2013-02-27T12:21:48.000Z</time>
      </trkpt>
      <trkpt lat="44.42569" lon="4.50708">
        <ele>538.40002441406</ele>
        <time>2013-02-27T12:21:49.000Z</time>
      </trkpt>
      <trkpt lat="44.42568" lon="4.50707">
        <ele>538.40002441406</ele>
        <time>2013-02-27T12:21:50.000Z</time>
      </trkpt>
      <trkpt lat="44.42568" lon="4.50705">
        <ele>538.40002441406</ele>
        <time>2013-02-27T12:21:51.000Z</time>
      </trkpt>
      <trkpt lat="44.42568" lon="4.50704">
        <ele>539</ele>
        <time>2013-02-27T12:21:52.000Z</time>
      </trkpt>
      <trkpt lat="44.42568" lon="4.50702">
        <ele>539</ele>
        <time>2013-02-27T12:21:53.000Z</time>
      </trkpt>
      <trkpt lat="44.42567" lon="4.50701">
        <ele>539</ele>
        <time>2013-02-27T12:21:54.000Z</time>
      </trkpt>
      <trkpt lat="44.42567" lon="4.50699">
        <ele>539.40002441406</ele>
        <time>2013-02-27T12:21:55.000Z</time>
      </trkpt>
      <trkpt lat="44.42567" lon="4.50697">
        <ele>539.40002441406</ele>
        <time>2013-02-27T12:21:56.000Z</time>
      </trkpt>
      <trkpt lat="44.42567" lon="4.50696">
        <ele>540</ele>
        <time>2013-02-27T12:21:57.000Z</time>
      </trkpt>
      <trkpt lat="44.42567" lon="4.50694">
        <ele>540</ele>
        <time>2013-02-27T12:21:58.000Z</time>
      </trkpt>
      <trkpt lat="44.42566" lon="4.50693">
        <ele>540.40002441406</ele>
        <time>2013-02-27T12:21:59.000Z</time>
      </trkpt>
      <trkpt lat="44.42566" lon="4.50691">
        <ele>540.40002441406</ele>
        <time>2013-02-27T12:22:00.000Z</time>
      </trkpt>
      <trkpt lat="44.42566" lon="4.5069">
        <ele>540.40002441406</ele>
        <time>2013-02-27T12:22:01.000Z</time>
      </trkpt>
      <trkpt lat="44.42566" lon="4.50688">
        <ele>540.79998779297</ele>
        <time>2013-02-27T12:22:02.000Z</time>
      </trkpt>
      <trkpt lat="44.42565" lon="4.50687">
        <ele>541.40002441406</ele>
        <time>2013-02-27T12:22:03.000Z</time>
      </trkpt>
      <trkpt lat="44.42565" lon="4.50685">
        <ele>541.40002441406</ele>
        <time>2013-02-27T12:22:04.000Z</time>
      </trkpt>
      <trkpt lat="44.42565" lon="4.50684">
        <ele>541.79998779297</ele>
        <time>2013-02-27T12:22:05.000Z</time>
      </trkpt>
      <trkpt lat="44.42565" lon="4.50683">
        <ele>542.79998779297</ele>
        <time>2013-02-27T12:22:06.000Z</time>
      </trkpt>
      <trkpt lat="44.42564" lon="4.50681">
        <ele>542.79998779297</ele>
        <time>2013-02-27T12:22:07.000Z</time>
      </trkpt>
      <trkpt lat="44.42564" lon="4.50679">
        <ele>543.20001220703</ele>
        <time>2013-02-27T12:22:08.000Z</time>
      </trkpt>
      <trkpt lat="44.42564" lon="4.50678">
        <ele>543.79998779297</ele>
        <time>2013-02-27T12:22:09.000Z</time>
      </trkpt>
      <trkpt lat="44.42563" lon="4.50676">
        <ele>544.20001220703</ele>
        <time>2013-02-27T12:22:10.000Z</time>
      </trkpt>
      <trkpt lat="44.42563" lon="4.50675">
        <ele>544.79998779297</ele>
        <time>2013-02-27T12:22:11.000Z</time>
      </trkpt>
      <trkpt lat="44.42563" lon="4.50674">
        <ele>544.79998779297</ele>
        <time>2013-02-27T12:22:12.000Z</time>
      </trkpt>
      <trkpt lat="44.42562" lon="4.50672">
        <ele>545.20001220703</ele>
        <time>2013-02-27T12:22:13.000Z</time>
      </trkpt>
      <trkpt lat="44.42562" lon="4.50671">
        <ele>545.20001220703</ele>
        <time>2013-02-27T12:22:14.000Z</time>
      </trkpt>
      <trkpt lat="44.42562" lon="4.50669">
        <ele>546.59997558594</ele>
        <time>2013-02-27T12:22:15.000Z</time>
      </trkpt>
      <trkpt lat="44.42562" lon="4.50667">
        <ele>546.59997558594</ele>
        <time>2013-02-27T12:22:16.000Z</time>
      </trkpt>
      <trkpt lat="44.42562" lon="4.50666">
        <ele>547.20001220703</ele>
        <time>2013-02-27T12:22:17.000Z</time>
      </trkpt>
      <trkpt lat="44.42562" lon="4.50665">
        <ele>547.20001220703</ele>
        <time>2013-02-27T12:22:18.000Z</time>
      </trkpt>
      <trkpt lat="44.42562" lon="4.50664">
        <ele>547.59997558594</ele>
        <time>2013-02-27T12:22:19.000Z</time>
      </trkpt>
      <trkpt lat="44.42562" lon="4.50661">
        <ele>547.20001220703</ele>
        <time>2013-02-27T12:22:20.000Z</time>
      </trkpt>
      <trkpt lat="44.42561" lon="4.5066">
        <ele>546.59997558594</ele>
        <time>2013-02-27T12:22:21.000Z</time>
      </trkpt>
      <trkpt lat="44.42561" lon="4.50658">
        <ele>546.59997558594</ele>
        <time>2013-02-27T12:22:22.000Z</time>
      </trkpt>
      <trkpt lat="44.4256" lon="4.50656">
        <ele>546.59997558594</ele>
        <time>2013-02-27T12:22:23.000Z</time>
      </trkpt>
      <trkpt lat="44.4256" lon="4.50654">
        <ele>546.59997558594</ele>
        <time>2013-02-27T12:22:24.000Z</time>
      </trkpt>
      <trkpt lat="44.42559" lon="4.50652">
        <ele>546.20001220703</ele>
        <time>2013-02-27T12:22:25.000Z</time>
      </trkpt>
      <trkpt lat="44.42559" lon="4.50651">
        <ele>546.59997558594</ele>
        <time>2013-02-27T12:22:26.000Z</time>
      </trkpt>
      <trkpt lat="44.42559" lon="4.50649">
        <ele>546.59997558594</ele>
        <time>2013-02-27T12:22:27.000Z</time>
      </trkpt>
      <trkpt lat="44.42558" lon="4.50648">
        <ele>546.59997558594</ele>
        <time>2013-02-27T12:22:28.000Z</time>
      </trkpt>
      <trkpt lat="44.42558" lon="4.50646">
        <ele>547.20001220703</ele>
        <time>2013-02-27T12:22:29.000Z</time>
      </trkpt>
      <trkpt lat="44.42557" lon="4.50644">
        <ele>547.20001220703</ele>
        <time>2013-02-27T12:22:30.000Z</time>
      </trkpt>
      <trkpt lat="44.42557" lon="4.50642">
        <ele>547.59997558594</ele>
        <time>2013-02-27T12:22:31.000Z</time>
      </trkpt>
      <trkpt lat="44.42556" lon="4.50641">
        <ele>547.59997558594</ele>
        <time>2013-02-27T12:22:32.000Z</time>
      </trkpt>
      <trkpt lat="44.42556" lon="4.50639">
        <ele>548</ele>
        <time>2013-02-27T12:22:33.000Z</time>
      </trkpt>
      <trkpt lat="44.42556" lon="4.50638">
        <ele>548</ele>
        <time>2013-02-27T12:22:34.000Z</time>
      </trkpt>
      <trkpt lat="44.42555" lon="4.50637">
        <ele>548.59997558594</ele>
        <time>2013-02-27T12:22:35.000Z</time>
      </trkpt>
      <trkpt lat="44.42555" lon="4.50635">
        <ele>548.59997558594</ele>
        <time>2013-02-27T12:22:36.000Z</time>
      </trkpt>
      <trkpt lat="44.42555" lon="4.50634">
        <ele>549</ele>
        <time>2013-02-27T12:22:37.000Z</time>
      </trkpt>
      <trkpt lat="44.42555" lon="4.50632">
        <ele>548.59997558594</ele>
        <time>2013-02-27T12:22:38.000Z</time>
      </trkpt>
      <trkpt lat="44.42554" lon="4.5063">
        <ele>548.59997558594</ele>
        <time>2013-02-27T12:22:39.000Z</time>
      </trkpt>
      <trkpt lat="44.42554" lon="4.50629">
        <ele>548.59997558594</ele>
        <time>2013-02-27T12:22:40.000Z</time>
      </trkpt>
      <trkpt lat="44.42554" lon="4.50627">
        <ele>548</ele>
        <time>2013-02-27T12:22:41.000Z</time>
      </trkpt>
      <trkpt lat="44.42553" lon="4.50626">
        <ele>548.59997558594</ele>
        <time>2013-02-27T12:22:42.000Z</time>
      </trkpt>
      <trkpt lat="44.42553" lon="4.50624">
        <ele>548.59997558594</ele>
        <time>2013-02-27T12:22:43.000Z</time>
      </trkpt>
      <trkpt lat="44.42553" lon="4.50622">
        <ele>548.59997558594</ele>
        <time>2013-02-27T12:22:44.000Z</time>
      </trkpt>
      <trkpt lat="44.42552" lon="4.50621">
        <ele>548.59997558594</ele>
        <time>2013-02-27T12:22:45.000Z</time>
      </trkpt>
      <trkpt lat="44.42552" lon="4.50619">
        <ele>549</ele>
        <time>2013-02-27T12:22:46.000Z</time>
      </trkpt>
      <trkpt lat="44.42551" lon="4.50618">
        <ele>549.59997558594</ele>
        <time>2013-02-27T12:22:47.000Z</time>
      </trkpt>
      <trkpt lat="44.42551" lon="4.50616">
        <ele>549.59997558594</ele>
        <time>2013-02-27T12:22:48.000Z</time>
      </trkpt>
      <trkpt lat="44.4255" lon="4.50615">
        <ele>550</ele>
        <time>2013-02-27T12:22:49.000Z</time>
      </trkpt>
      <trkpt lat="44.4255" lon="4.50613">
        <ele>550</ele>
        <time>2013-02-27T12:22:50.000Z</time>
      </trkpt>
      <trkpt lat="44.4255" lon="4.50612">
        <ele>550</ele>
        <time>2013-02-27T12:22:51.000Z</time>
      </trkpt>
      <trkpt lat="44.42549" lon="4.5061">
        <ele>550</ele>
        <time>2013-02-27T12:22:52.000Z</time>
      </trkpt>
      <trkpt lat="44.42549" lon="4.50609">
        <ele>550</ele>
        <time>2013-02-27T12:22:53.000Z</time>
      </trkpt>
      <trkpt lat="44.42549" lon="4.50607">
        <ele>550</ele>
        <time>2013-02-27T12:22:54.000Z</time>
      </trkpt>
      <trkpt lat="44.42548" lon="4.50606">
        <ele>550.40002441406</ele>
        <time>2013-02-27T12:22:55.000Z</time>
      </trkpt>
      <trkpt lat="44.42548" lon="4.50604">
        <ele>550.40002441406</ele>
        <time>2013-02-27T12:22:56.000Z</time>
      </trkpt>
      <trkpt lat="44.42547" lon="4.50603">
        <ele>551</ele>
        <time>2013-02-27T12:22:57.000Z</time>
      </trkpt>
      <trkpt lat="44.42547" lon="4.50601">
        <ele>551</ele>
        <time>2013-02-27T12:22:58.000Z</time>
      </trkpt>
      <trkpt lat="44.42547" lon="4.506">
        <ele>551</ele>
        <time>2013-02-27T12:22:59.000Z</time>
      </trkpt>
      <trkpt lat="44.42546" lon="4.50598">
        <ele>551</ele>
        <time>2013-02-27T12:23:00.000Z</time>
      </trkpt>
      <trkpt lat="44.42546" lon="4.50597">
        <ele>551</ele>
        <time>2013-02-27T12:23:01.000Z</time>
      </trkpt>
      <trkpt lat="44.42545" lon="4.50596">
        <ele>551.40002441406</ele>
        <time>2013-02-27T12:23:02.000Z</time>
      </trkpt>
      <trkpt lat="44.42545" lon="4.50594">
        <ele>551</ele>
        <time>2013-02-27T12:23:03.000Z</time>
      </trkpt>
      <trkpt lat="44.42544" lon="4.50591">
        <ele>550.40002441406</ele>
        <time>2013-02-27T12:23:04.000Z</time>
      </trkpt>
      <trkpt lat="44.42544" lon="4.5059">
        <ele>551</ele>
        <time>2013-02-27T12:23:05.000Z</time>
      </trkpt>
      <trkpt lat="44.42543" lon="4.50588">
        <ele>551</ele>
        <time>2013-02-27T12:23:06.000Z</time>
      </trkpt>
      <trkpt lat="44.42543" lon="4.50586">
        <ele>551</ele>
        <time>2013-02-27T12:23:07.000Z</time>
      </trkpt>
      <trkpt lat="44.42542" lon="4.50585">
        <ele>551.40002441406</ele>
        <time>2013-02-27T12:23:08.000Z</time>
      </trkpt>
      <trkpt lat="44.42542" lon="4.50583">
        <ele>551.40002441406</ele>
        <time>2013-02-27T12:23:09.000Z</time>
      </trkpt>
      <trkpt lat="44.42542" lon="4.50582">
        <ele>552</ele>
        <time>2013-02-27T12:23:10.000Z</time>
      </trkpt>
      <trkpt lat="44.42541" lon="4.50581">
        <ele>552.40002441406</ele>
        <time>2013-02-27T12:23:11.000Z</time>
      </trkpt>
      <trkpt lat="44.42541" lon="4.50579">
        <ele>552.40002441406</ele>
        <time>2013-02-27T12:23:12.000Z</time>
      </trkpt>
      <trkpt lat="44.4254" lon="4.50577">
        <ele>552.40002441406</ele>
        <time>2013-02-27T12:23:13.000Z</time>
      </trkpt>
      <trkpt lat="44.4254" lon="4.50576">
        <ele>552.40002441406</ele>
        <time>2013-02-27T12:23:14.000Z</time>
      </trkpt>
      <trkpt lat="44.42539" lon="4.50574">
        <ele>552.79998779297</ele>
        <time>2013-02-27T12:23:15.000Z</time>
      </trkpt>
      <trkpt lat="44.42538" lon="4.50572">
        <ele>553.40002441406</ele>
        <time>2013-02-27T12:23:16.000Z</time>
      </trkpt>
      <trkpt lat="44.42538" lon="4.50571">
        <ele>553.79998779297</ele>
        <time>2013-02-27T12:23:17.000Z</time>
      </trkpt>
      <trkpt lat="44.42538" lon="4.50569">
        <ele>554.40002441406</ele>
        <time>2013-02-27T12:23:18.000Z</time>
      </trkpt>
      <trkpt lat="44.42538" lon="4.50568">
        <ele>554.79998779297</ele>
        <time>2013-02-27T12:23:19.000Z</time>
      </trkpt>
      <trkpt lat="44.42538" lon="4.50566">
        <ele>554.79998779297</ele>
        <time>2013-02-27T12:23:20.000Z</time>
      </trkpt>
      <trkpt lat="44.42538" lon="4.50565">
        <ele>555.20001220703</ele>
        <time>2013-02-27T12:23:21.000Z</time>
      </trkpt>
      <trkpt lat="44.42538" lon="4.50563">
        <ele>556.20001220703</ele>
        <time>2013-02-27T12:23:22.000Z</time>
      </trkpt>
      <trkpt lat="44.42538" lon="4.50561">
        <ele>556.20001220703</ele>
        <time>2013-02-27T12:23:23.000Z</time>
      </trkpt>
      <trkpt lat="44.42537" lon="4.5056">
        <ele>556.20001220703</ele>
        <time>2013-02-27T12:23:24.000Z</time>
      </trkpt>
      <trkpt lat="44.42537" lon="4.50558">
        <ele>556.20001220703</ele>
        <time>2013-02-27T12:23:25.000Z</time>
      </trkpt>
      <trkpt lat="44.42537" lon="4.50556">
        <ele>556.79998779297</ele>
        <time>2013-02-27T12:23:26.000Z</time>
      </trkpt>
      <trkpt lat="44.42536" lon="4.50555">
        <ele>557.20001220703</ele>
        <time>2013-02-27T12:23:27.000Z</time>
      </trkpt>
      <trkpt lat="44.42536" lon="4.50552">
        <ele>557.20001220703</ele>
        <time>2013-02-27T12:23:28.000Z</time>
      </trkpt>
      <trkpt lat="44.42535" lon="4.5055">
        <ele>557.79998779297</ele>
        <time>2013-02-27T12:23:29.000Z</time>
      </trkpt>
      <trkpt lat="44.42535" lon="4.50548">
        <ele>558.20001220703</ele>
        <time>2013-02-27T12:23:30.000Z</time>
      </trkpt>
      <trkpt lat="44.42535" lon="4.50547">
        <ele>558.59997558594</ele>
        <time>2013-02-27T12:23:31.000Z</time>
      </trkpt>
      <trkpt lat="44.42535" lon="4.50545">
        <ele>559.20001220703</ele>
        <time>2013-02-27T12:23:32.000Z</time>
      </trkpt>
      <trkpt lat="44.42536" lon="4.50544">
        <ele>559.59997558594</ele>
        <time>2013-02-27T12:23:33.000Z</time>
      </trkpt>
      <trkpt lat="44.42535" lon="4.50542">
        <ele>559.59997558594</ele>
        <time>2013-02-27T12:23:34.000Z</time>
      </trkpt>
      <trkpt lat="44.42535" lon="4.50541">
        <ele>559.59997558594</ele>
        <time>2013-02-27T12:23:35.000Z</time>
      </trkpt>
      <trkpt lat="44.42535" lon="4.50539">
        <ele>559.59997558594</ele>
        <time>2013-02-27T12:23:36.000Z</time>
      </trkpt>
      <trkpt lat="44.42535" lon="4.50537">
        <ele>560.20001220703</ele>
        <time>2013-02-27T12:23:37.000Z</time>
      </trkpt>
      <trkpt lat="44.42535" lon="4.50536">
        <ele>560.20001220703</ele>
        <time>2013-02-27T12:23:38.000Z</time>
      </trkpt>
      <trkpt lat="44.42534" lon="4.50534">
        <ele>560.20001220703</ele>
        <time>2013-02-27T12:23:39.000Z</time>
      </trkpt>
      <trkpt lat="44.42534" lon="4.50532">
        <ele>560.20001220703</ele>
        <time>2013-02-27T12:23:40.000Z</time>
      </trkpt>
      <trkpt lat="44.42534" lon="4.5053">
        <ele>560.20001220703</ele>
        <time>2013-02-27T12:23:41.000Z</time>
      </trkpt>
      <trkpt lat="44.42534" lon="4.50528">
        <ele>560.20001220703</ele>
        <time>2013-02-27T12:23:42.000Z</time>
      </trkpt>
      <trkpt lat="44.42534" lon="4.50526">
        <ele>560.59997558594</ele>
        <time>2013-02-27T12:23:43.000Z</time>
      </trkpt>
      <trkpt lat="44.42534" lon="4.50524">
        <ele>560.59997558594</ele>
        <time>2013-02-27T12:23:44.000Z</time>
      </trkpt>
      <trkpt lat="44.42533" lon="4.50522">
        <ele>559.59997558594</ele>
        <time>2013-02-27T12:23:45.000Z</time>
      </trkpt>
      <trkpt lat="44.42533" lon="4.5052">
        <ele>559.20001220703</ele>
        <time>2013-02-27T12:23:46.000Z</time>
      </trkpt>
      <trkpt lat="44.42533" lon="4.50518">
        <ele>559.59997558594</ele>
        <time>2013-02-27T12:23:47.000Z</time>
      </trkpt>
      <trkpt lat="44.42533" lon="4.50516">
        <ele>560.20001220703</ele>
        <time>2013-02-27T12:23:48.000Z</time>
      </trkpt>
      <trkpt lat="44.42532" lon="4.50514">
        <ele>559.20001220703</ele>
        <time>2013-02-27T12:23:49.000Z</time>
      </trkpt>
      <trkpt lat="44.42532" lon="4.50512">
        <ele>559.20001220703</ele>
        <time>2013-02-27T12:23:50.000Z</time>
      </trkpt>
      <trkpt lat="44.42532" lon="4.5051">
        <ele>559.20001220703</ele>
        <time>2013-02-27T12:23:51.000Z</time>
      </trkpt>
      <trkpt lat="44.42532" lon="4.50509">
        <ele>559.59997558594</ele>
        <time>2013-02-27T12:23:52.000Z</time>
      </trkpt>
      <trkpt lat="44.42532" lon="4.50507">
        <ele>560.59997558594</ele>
        <time>2013-02-27T12:23:53.000Z</time>
      </trkpt>
      <trkpt lat="44.42532" lon="4.50506">
        <ele>560.59997558594</ele>
        <time>2013-02-27T12:23:54.000Z</time>
      </trkpt>
      <trkpt lat="44.42532" lon="4.50504">
        <ele>561</ele>
        <time>2013-02-27T12:23:55.000Z</time>
      </trkpt>
      <trkpt lat="44.42532" lon="4.50503">
        <ele>561</ele>
        <time>2013-02-27T12:23:56.000Z</time>
      </trkpt>
      <trkpt lat="44.42532" lon="4.505">
        <ele>560.59997558594</ele>
        <time>2013-02-27T12:23:57.000Z</time>
      </trkpt>
      <trkpt lat="44.42532" lon="4.50498">
        <ele>560.59997558594</ele>
        <time>2013-02-27T12:23:58.000Z</time>
      </trkpt>
      <trkpt lat="44.42532" lon="4.50496">
        <ele>561</ele>
        <time>2013-02-27T12:23:59.000Z</time>
      </trkpt>
      <trkpt lat="44.42532" lon="4.50495">
        <ele>561</ele>
        <time>2013-02-27T12:24:00.000Z</time>
      </trkpt>
      <trkpt lat="44.42532" lon="4.50493">
        <ele>561</ele>
        <time>2013-02-27T12:24:01.000Z</time>
      </trkpt>
      <trkpt lat="44.42532" lon="4.50492">
        <ele>561</ele>
        <time>2013-02-27T12:24:02.000Z</time>
      </trkpt>
      <trkpt lat="44.42532" lon="4.5049">
        <ele>561.59997558594</ele>
        <time>2013-02-27T12:24:03.000Z</time>
      </trkpt>
      <trkpt lat="44.42532" lon="4.50488">
        <ele>561.59997558594</ele>
        <time>2013-02-27T12:24:04.000Z</time>
      </trkpt>
      <trkpt lat="44.42532" lon="4.50486">
        <ele>562</ele>
        <time>2013-02-27T12:24:05.000Z</time>
      </trkpt>
      <trkpt lat="44.42532" lon="4.50484">
        <ele>562.59997558594</ele>
        <time>2013-02-27T12:24:06.000Z</time>
      </trkpt>
      <trkpt lat="44.42532" lon="4.50482">
        <ele>563</ele>
        <time>2013-02-27T12:24:07.000Z</time>
      </trkpt>
      <trkpt lat="44.42532" lon="4.5048">
        <ele>563.40002441406</ele>
        <time>2013-02-27T12:24:08.000Z</time>
      </trkpt>
      <trkpt lat="44.42532" lon="4.50478">
        <ele>563.40002441406</ele>
        <time>2013-02-27T12:24:09.000Z</time>
      </trkpt>
      <trkpt lat="44.42532" lon="4.50476">
        <ele>563.40002441406</ele>
        <time>2013-02-27T12:24:10.000Z</time>
      </trkpt>
      <trkpt lat="44.42532" lon="4.50474">
        <ele>564</ele>
        <time>2013-02-27T12:24:11.000Z</time>
      </trkpt>
      <trkpt lat="44.42532" lon="4.50474">
        <ele>565</ele>
        <time>2013-02-27T12:24:12.000Z</time>
      </trkpt>
      <trkpt lat="44.42532" lon="4.50473">
        <ele>565</ele>
        <time>2013-02-27T12:24:13.000Z</time>
      </trkpt>
      <trkpt lat="44.42532" lon="4.50473">
        <ele>565.40002441406</ele>
        <time>2013-02-27T12:24:14.000Z</time>
      </trkpt>
      <trkpt lat="44.42532" lon="4.50471">
        <ele>565.40002441406</ele>
        <time>2013-02-27T12:24:15.000Z</time>
      </trkpt>
      <trkpt lat="44.42532" lon="4.50471">
        <ele>565.79998779297</ele>
        <time>2013-02-27T12:24:16.000Z</time>
      </trkpt>
      <trkpt lat="44.42533" lon="4.50471">
        <ele>566.79998779297</ele>
        <time>2013-02-27T12:24:17.000Z</time>
      </trkpt>
      <trkpt lat="44.42533" lon="4.50471">
        <ele>566.79998779297</ele>
        <time>2013-02-27T12:24:18.000Z</time>
      </trkpt>
      <trkpt lat="44.42533" lon="4.50472">
        <ele>566.79998779297</ele>
        <time>2013-02-27T12:24:19.000Z</time>
      </trkpt>
      <trkpt lat="44.42533" lon="4.50472">
        <ele>566.79998779297</ele>
        <time>2013-02-27T12:24:20.000Z</time>
      </trkpt>
      <trkpt lat="44.42533" lon="4.50471">
        <ele>566.79998779297</ele>
        <time>2013-02-27T12:24:21.000Z</time>
      </trkpt>
      <trkpt lat="44.42533" lon="4.50469">
        <ele>565.40002441406</ele>
        <time>2013-02-27T12:24:22.000Z</time>
      </trkpt>
      <trkpt lat="44.42533" lon="4.50467">
        <ele>564.40002441406</ele>
        <time>2013-02-27T12:24:23.000Z</time>
      </trkpt>
      <trkpt lat="44.42533" lon="4.50465">
        <ele>564.40002441406</ele>
        <time>2013-02-27T12:24:24.000Z</time>
      </trkpt>
      <trkpt lat="44.42533" lon="4.50463">
        <ele>564</ele>
        <time>2013-02-27T12:24:25.000Z</time>
      </trkpt>
      <trkpt lat="44.42534" lon="4.50461">
        <ele>564</ele>
        <time>2013-02-27T12:24:26.000Z</time>
      </trkpt>
      <trkpt lat="44.42534" lon="4.50459">
        <ele>564</ele>
        <time>2013-02-27T12:24:27.000Z</time>
      </trkpt>
      <trkpt lat="44.42535" lon="4.50457">
        <ele>564.40002441406</ele>
        <time>2013-02-27T12:24:28.000Z</time>
      </trkpt>
      <trkpt lat="44.42535" lon="4.50456">
        <ele>564</ele>
        <time>2013-02-27T12:24:29.000Z</time>
      </trkpt>
      <trkpt lat="44.42536" lon="4.50454">
        <ele>564</ele>
        <time>2013-02-27T12:24:30.000Z</time>
      </trkpt>
      <trkpt lat="44.42537" lon="4.50452">
        <ele>564</ele>
        <time>2013-02-27T12:24:31.000Z</time>
      </trkpt>
      <trkpt lat="44.42537" lon="4.5045">
        <ele>562.59997558594</ele>
        <time>2013-02-27T12:24:32.000Z</time>
      </trkpt>
      <trkpt lat="44.42538" lon="4.50448">
        <ele>563</ele>
        <time>2013-02-27T12:24:33.000Z</time>
      </trkpt>
      <trkpt lat="44.42539" lon="4.50447">
        <ele>562.59997558594</ele>
        <time>2013-02-27T12:24:34.000Z</time>
      </trkpt>
      <trkpt lat="44.42539" lon="4.50445">
        <ele>562.59997558594</ele>
        <time>2013-02-27T12:24:35.000Z</time>
      </trkpt>
      <trkpt lat="44.42539" lon="4.50443">
        <ele>562.59997558594</ele>
        <time>2013-02-27T12:24:36.000Z</time>
      </trkpt>
      <trkpt lat="44.4254" lon="4.50442">
        <ele>562.59997558594</ele>
        <time>2013-02-27T12:24:37.000Z</time>
      </trkpt>
      <trkpt lat="44.42541" lon="4.5044">
        <ele>562</ele>
        <time>2013-02-27T12:24:38.000Z</time>
      </trkpt>
      <trkpt lat="44.42542" lon="4.50438">
        <ele>561.59997558594</ele>
        <time>2013-02-27T12:24:39.000Z</time>
      </trkpt>
      <trkpt lat="44.42542" lon="4.50437">
        <ele>562</ele>
        <time>2013-02-27T12:24:40.000Z</time>
      </trkpt>
      <trkpt lat="44.42543" lon="4.50436">
        <ele>562.59997558594</ele>
        <time>2013-02-27T12:24:41.000Z</time>
      </trkpt>
      <trkpt lat="44.42543" lon="4.50435">
        <ele>563.40002441406</ele>
        <time>2013-02-27T12:24:42.000Z</time>
      </trkpt>
      <trkpt lat="44.42544" lon="4.50433">
        <ele>563.40002441406</ele>
        <time>2013-02-27T12:24:43.000Z</time>
      </trkpt>
      <trkpt lat="44.42544" lon="4.50431">
        <ele>563.40002441406</ele>
        <time>2013-02-27T12:24:44.000Z</time>
      </trkpt>
      <trkpt lat="44.42544" lon="4.5043">
        <ele>563.40002441406</ele>
        <time>2013-02-27T12:24:45.000Z</time>
      </trkpt>
      <trkpt lat="44.42545" lon="4.50428">
        <ele>563.40002441406</ele>
        <time>2013-02-27T12:24:46.000Z</time>
      </trkpt>
      <trkpt lat="44.42546" lon="4.50427">
        <ele>563.40002441406</ele>
        <time>2013-02-27T12:24:47.000Z</time>
      </trkpt>
      <trkpt lat="44.42546" lon="4.50425">
        <ele>563.40002441406</ele>
        <time>2013-02-27T12:24:48.000Z</time>
      </trkpt>
      <trkpt lat="44.42547" lon="4.50424">
        <ele>564</ele>
        <time>2013-02-27T12:24:49.000Z</time>
      </trkpt>
      <trkpt lat="44.42548" lon="4.50423">
        <ele>564.40002441406</ele>
        <time>2013-02-27T12:24:50.000Z</time>
      </trkpt>
      <trkpt lat="44.42548" lon="4.50421">
        <ele>564.40002441406</ele>
        <time>2013-02-27T12:24:51.000Z</time>
      </trkpt>
      <trkpt lat="44.42549" lon="4.50419">
        <ele>564.40002441406</ele>
        <time>2013-02-27T12:24:52.000Z</time>
      </trkpt>
      <trkpt lat="44.42549" lon="4.50418">
        <ele>565</ele>
        <time>2013-02-27T12:24:53.000Z</time>
      </trkpt>
      <trkpt lat="44.4255" lon="4.50417">
        <ele>565</ele>
        <time>2013-02-27T12:24:54.000Z</time>
      </trkpt>
      <trkpt lat="44.42551" lon="4.50415">
        <ele>565.40002441406</ele>
        <time>2013-02-27T12:24:55.000Z</time>
      </trkpt>
      <trkpt lat="44.42552" lon="4.50413">
        <ele>565.40002441406</ele>
        <time>2013-02-27T12:24:56.000Z</time>
      </trkpt>
      <trkpt lat="44.42553" lon="4.50412">
        <ele>565</ele>
        <time>2013-02-27T12:24:57.000Z</time>
      </trkpt>
      <trkpt lat="44.42553" lon="4.5041">
        <ele>565</ele>
        <time>2013-02-27T12:24:58.000Z</time>
      </trkpt>
      <trkpt lat="44.42554" lon="4.50407">
        <ele>564</ele>
        <time>2013-02-27T12:24:59.000Z</time>
      </trkpt>
      <trkpt lat="44.42554" lon="4.50405">
        <ele>564</ele>
        <time>2013-02-27T12:25:00.000Z</time>
      </trkpt>
      <trkpt lat="44.42555" lon="4.50403">
        <ele>564.40002441406</ele>
        <time>2013-02-27T12:25:01.000Z</time>
      </trkpt>
      <trkpt lat="44.42556" lon="4.50402">
        <ele>564.40002441406</ele>
        <time>2013-02-27T12:25:02.000Z</time>
      </trkpt>
      <trkpt lat="44.42557" lon="4.50401">
        <ele>564.40002441406</ele>
        <time>2013-02-27T12:25:03.000Z</time>
      </trkpt>
      <trkpt lat="44.42558" lon="4.504">
        <ele>564.40002441406</ele>
        <time>2013-02-27T12:25:04.000Z</time>
      </trkpt>
      <trkpt lat="44.42558" lon="4.50398">
        <ele>563.40002441406</ele>
        <time>2013-02-27T12:25:05.000Z</time>
      </trkpt>
      <trkpt lat="44.42559" lon="4.50396">
        <ele>562.59997558594</ele>
        <time>2013-02-27T12:25:06.000Z</time>
      </trkpt>
      <trkpt lat="44.4256" lon="4.50394">
        <ele>561.59997558594</ele>
        <time>2013-02-27T12:25:07.000Z</time>
      </trkpt>
      <trkpt lat="44.42561" lon="4.50393">
        <ele>562</ele>
        <time>2013-02-27T12:25:08.000Z</time>
      </trkpt>
      <trkpt lat="44.42561" lon="4.50391">
        <ele>561.59997558594</ele>
        <time>2013-02-27T12:25:09.000Z</time>
      </trkpt>
      <trkpt lat="44.42561" lon="4.5039">
        <ele>562.59997558594</ele>
        <time>2013-02-27T12:25:10.000Z</time>
      </trkpt>
      <trkpt lat="44.42562" lon="4.50389">
        <ele>562</ele>
        <time>2013-02-27T12:25:11.000Z</time>
      </trkpt>
      <trkpt lat="44.42562" lon="4.50387">
        <ele>562.59997558594</ele>
        <time>2013-02-27T12:25:12.000Z</time>
      </trkpt>
      <trkpt lat="44.42563" lon="4.50386">
        <ele>562.59997558594</ele>
        <time>2013-02-27T12:25:13.000Z</time>
      </trkpt>
      <trkpt lat="44.42564" lon="4.50385">
        <ele>563</ele>
        <time>2013-02-27T12:25:14.000Z</time>
      </trkpt>
      <trkpt lat="44.42565" lon="4.50383">
        <ele>563</ele>
        <time>2013-02-27T12:25:15.000Z</time>
      </trkpt>
      <trkpt lat="44.42565" lon="4.50382">
        <ele>563</ele>
        <time>2013-02-27T12:25:16.000Z</time>
      </trkpt>
      <trkpt lat="44.42566" lon="4.50381">
        <ele>563</ele>
        <time>2013-02-27T12:25:17.000Z</time>
      </trkpt>
      <trkpt lat="44.42567" lon="4.5038">
        <ele>563.40002441406</ele>
        <time>2013-02-27T12:25:18.000Z</time>
      </trkpt>
      <trkpt lat="44.42568" lon="4.50379">
        <ele>564.40002441406</ele>
        <time>2013-02-27T12:25:19.000Z</time>
      </trkpt>
      <trkpt lat="44.42569" lon="4.50377">
        <ele>564.40002441406</ele>
        <time>2013-02-27T12:25:20.000Z</time>
      </trkpt>
      <trkpt lat="44.4257" lon="4.50375">
        <ele>563.40002441406</ele>
        <time>2013-02-27T12:25:21.000Z</time>
      </trkpt>
      <trkpt lat="44.4257" lon="4.50373">
        <ele>563.40002441406</ele>
        <time>2013-02-27T12:25:22.000Z</time>
      </trkpt>
      <trkpt lat="44.42571" lon="4.50371">
        <ele>563</ele>
        <time>2013-02-27T12:25:23.000Z</time>
      </trkpt>
      <trkpt lat="44.42571" lon="4.5037">
        <ele>562.59997558594</ele>
        <time>2013-02-27T12:25:24.000Z</time>
      </trkpt>
      <trkpt lat="44.42572" lon="4.50368">
        <ele>562.59997558594</ele>
        <time>2013-02-27T12:25:25.000Z</time>
      </trkpt>
      <trkpt lat="44.42573" lon="4.50367">
        <ele>563</ele>
        <time>2013-02-27T12:25:26.000Z</time>
      </trkpt>
      <trkpt lat="44.42573" lon="4.50366">
        <ele>563.40002441406</ele>
        <time>2013-02-27T12:25:27.000Z</time>
      </trkpt>
      <trkpt lat="44.42573" lon="4.50365">
        <ele>563.40002441406</ele>
        <time>2013-02-27T12:25:28.000Z</time>
      </trkpt>
      <trkpt lat="44.42574" lon="4.50364">
        <ele>563</ele>
        <time>2013-02-27T12:25:29.000Z</time>
      </trkpt>
      <trkpt lat="44.42574" lon="4.50362">
        <ele>564</ele>
        <time>2013-02-27T12:25:30.000Z</time>
      </trkpt>
      <trkpt lat="44.42575" lon="4.50361">
        <ele>564.40002441406</ele>
        <time>2013-02-27T12:25:31.000Z</time>
      </trkpt>
      <trkpt lat="44.42575" lon="4.50359">
        <ele>564.40002441406</ele>
        <time>2013-02-27T12:25:32.000Z</time>
      </trkpt>
      <trkpt lat="44.42576" lon="4.50357">
        <ele>564</ele>
        <time>2013-02-27T12:25:33.000Z</time>
      </trkpt>
      <trkpt lat="44.42577" lon="4.50355">
        <ele>564.40002441406</ele>
        <time>2013-02-27T12:25:34.000Z</time>
      </trkpt>
      <trkpt lat="44.42578" lon="4.50354">
        <ele>564.40002441406</ele>
        <time>2013-02-27T12:25:35.000Z</time>
      </trkpt>
      <trkpt lat="44.42579" lon="4.50352">
        <ele>563.40002441406</ele>
        <time>2013-02-27T12:25:36.000Z</time>
      </trkpt>
      <trkpt lat="44.42579" lon="4.5035">
        <ele>564</ele>
        <time>2013-02-27T12:25:37.000Z</time>
      </trkpt>
      <trkpt lat="44.4258" lon="4.50349">
        <ele>564</ele>
        <time>2013-02-27T12:25:38.000Z</time>
      </trkpt>
      <trkpt lat="44.4258" lon="4.50347">
        <ele>565</ele>
        <time>2013-02-27T12:25:39.000Z</time>
      </trkpt>
      <trkpt lat="44.42581" lon="4.50346">
        <ele>565.40002441406</ele>
        <time>2013-02-27T12:25:40.000Z</time>
      </trkpt>
      <trkpt lat="44.42582" lon="4.50344">
        <ele>565.79998779297</ele>
        <time>2013-02-27T12:25:41.000Z</time>
      </trkpt>
      <trkpt lat="44.42583" lon="4.50343">
        <ele>566.79998779297</ele>
        <time>2013-02-27T12:25:42.000Z</time>
      </trkpt>
      <trkpt lat="44.42584" lon="4.50342">
        <ele>566.79998779297</ele>
        <time>2013-02-27T12:25:43.000Z</time>
      </trkpt>
      <trkpt lat="44.42584" lon="4.50341">
        <ele>566.40002441406</ele>
        <time>2013-02-27T12:25:44.000Z</time>
      </trkpt>
      <trkpt lat="44.42585" lon="4.5034">
        <ele>566.40002441406</ele>
        <time>2013-02-27T12:25:45.000Z</time>
      </trkpt>
      <trkpt lat="44.42586" lon="4.50338">
        <ele>566.79998779297</ele>
        <time>2013-02-27T12:25:46.000Z</time>
      </trkpt>
      <trkpt lat="44.42587" lon="4.50336">
        <ele>565.79998779297</ele>
        <time>2013-02-27T12:25:47.000Z</time>
      </trkpt>
      <trkpt lat="44.42588" lon="4.50334">
        <ele>565.79998779297</ele>
        <time>2013-02-27T12:25:48.000Z</time>
      </trkpt>
      <trkpt lat="44.42589" lon="4.50333">
        <ele>565.79998779297</ele>
        <time>2013-02-27T12:25:49.000Z</time>
      </trkpt>
      <trkpt lat="44.4259" lon="4.50331">
        <ele>565.40002441406</ele>
        <time>2013-02-27T12:25:50.000Z</time>
      </trkpt>
      <trkpt lat="44.42591" lon="4.50329">
        <ele>565</ele>
        <time>2013-02-27T12:25:51.000Z</time>
      </trkpt>
      <trkpt lat="44.42592" lon="4.50327">
        <ele>564</ele>
        <time>2013-02-27T12:25:52.000Z</time>
      </trkpt>
      <trkpt lat="44.42592" lon="4.50325">
        <ele>563.40002441406</ele>
        <time>2013-02-27T12:25:53.000Z</time>
      </trkpt>
      <trkpt lat="44.42593" lon="4.50324">
        <ele>563</ele>
        <time>2013-02-27T12:25:54.000Z</time>
      </trkpt>
      <trkpt lat="44.42594" lon="4.50322">
        <ele>562</ele>
        <time>2013-02-27T12:25:55.000Z</time>
      </trkpt>
      <trkpt lat="44.42595" lon="4.50321">
        <ele>562.59997558594</ele>
        <time>2013-02-27T12:25:56.000Z</time>
      </trkpt>
      <trkpt lat="44.42596" lon="4.50319">
        <ele>562.59997558594</ele>
        <time>2013-02-27T12:25:57.000Z</time>
      </trkpt>
      <trkpt lat="44.42596" lon="4.50318">
        <ele>562.59997558594</ele>
        <time>2013-02-27T12:25:58.000Z</time>
      </trkpt>
      <trkpt lat="44.42597" lon="4.50316">
        <ele>562</ele>
        <time>2013-02-27T12:25:59.000Z</time>
      </trkpt>
      <trkpt lat="44.42598" lon="4.50315">
        <ele>562.59997558594</ele>
        <time>2013-02-27T12:26:00.000Z</time>
      </trkpt>
      <trkpt lat="44.42598" lon="4.50313">
        <ele>562.59997558594</ele>
        <time>2013-02-27T12:26:01.000Z</time>
      </trkpt>
      <trkpt lat="44.42598" lon="4.50311">
        <ele>562</ele>
        <time>2013-02-27T12:26:02.000Z</time>
      </trkpt>
      <trkpt lat="44.42599" lon="4.50309">
        <ele>561</ele>
        <time>2013-02-27T12:26:03.000Z</time>
      </trkpt>
      <trkpt lat="44.426" lon="4.50307">
        <ele>560.59997558594</ele>
        <time>2013-02-27T12:26:04.000Z</time>
      </trkpt>
      <trkpt lat="44.42601" lon="4.50306">
        <ele>560.20001220703</ele>
        <time>2013-02-27T12:26:05.000Z</time>
      </trkpt>
      <trkpt lat="44.42602" lon="4.50305">
        <ele>560.20001220703</ele>
        <time>2013-02-27T12:26:06.000Z</time>
      </trkpt>
      <trkpt lat="44.42603" lon="4.50303">
        <ele>560.20001220703</ele>
        <time>2013-02-27T12:26:07.000Z</time>
      </trkpt>
      <trkpt lat="44.42604" lon="4.50303">
        <ele>561</ele>
        <time>2013-02-27T12:26:08.000Z</time>
      </trkpt>
      <trkpt lat="44.42605" lon="4.50301">
        <ele>560.59997558594</ele>
        <time>2013-02-27T12:26:09.000Z</time>
      </trkpt>
      <trkpt lat="44.42606" lon="4.503">
        <ele>561</ele>
        <time>2013-02-27T12:26:10.000Z</time>
      </trkpt>
      <trkpt lat="44.42607" lon="4.50299">
        <ele>561</ele>
        <time>2013-02-27T12:26:11.000Z</time>
      </trkpt>
      <trkpt lat="44.42609" lon="4.50297">
        <ele>560.59997558594</ele>
        <time>2013-02-27T12:26:12.000Z</time>
      </trkpt>
      <trkpt lat="44.42609" lon="4.50296">
        <ele>560.59997558594</ele>
        <time>2013-02-27T12:26:13.000Z</time>
      </trkpt>
      <trkpt lat="44.4261" lon="4.50294">
        <ele>560.59997558594</ele>
        <time>2013-02-27T12:26:14.000Z</time>
      </trkpt>
      <trkpt lat="44.42611" lon="4.50293">
        <ele>561</ele>
        <time>2013-02-27T12:26:15.000Z</time>
      </trkpt>
      <trkpt lat="44.42611" lon="4.50292">
        <ele>561</ele>
        <time>2013-02-27T12:26:16.000Z</time>
      </trkpt>
      <trkpt lat="44.42612" lon="4.5029">
        <ele>561</ele>
        <time>2013-02-27T12:26:17.000Z</time>
      </trkpt>
      <trkpt lat="44.42612" lon="4.50289">
        <ele>561.59997558594</ele>
        <time>2013-02-27T12:26:18.000Z</time>
      </trkpt>
      <trkpt lat="44.42612" lon="4.50287">
        <ele>562</ele>
        <time>2013-02-27T12:26:19.000Z</time>
      </trkpt>
      <trkpt lat="44.42613" lon="4.50286">
        <ele>562.59997558594</ele>
        <time>2013-02-27T12:26:20.000Z</time>
      </trkpt>
      <trkpt lat="44.42613" lon="4.50284">
        <ele>563.40002441406</ele>
        <time>2013-02-27T12:26:21.000Z</time>
      </trkpt>
      <trkpt lat="44.42613" lon="4.50281">
        <ele>564</ele>
        <time>2013-02-27T12:26:22.000Z</time>
      </trkpt>
      <trkpt lat="44.42613" lon="4.5028">
        <ele>564.40002441406</ele>
        <time>2013-02-27T12:26:23.000Z</time>
      </trkpt>
      <trkpt lat="44.42612" lon="4.50278">
        <ele>564.40002441406</ele>
        <time>2013-02-27T12:26:24.000Z</time>
      </trkpt>
      <trkpt lat="44.42612" lon="4.50276">
        <ele>565</ele>
        <time>2013-02-27T12:26:25.000Z</time>
      </trkpt>
      <trkpt lat="44.42612" lon="4.50274">
        <ele>565.40002441406</ele>
        <time>2013-02-27T12:26:26.000Z</time>
      </trkpt>
      <trkpt lat="44.42612" lon="4.50273">
        <ele>565.40002441406</ele>
        <time>2013-02-27T12:26:27.000Z</time>
      </trkpt>
      <trkpt lat="44.42612" lon="4.50271">
        <ele>565.40002441406</ele>
        <time>2013-02-27T12:26:28.000Z</time>
      </trkpt>
      <trkpt lat="44.42612" lon="4.50269">
        <ele>565.40002441406</ele>
        <time>2013-02-27T12:26:29.000Z</time>
      </trkpt>
      <trkpt lat="44.42611" lon="4.50267">
        <ele>565</ele>
        <time>2013-02-27T12:26:30.000Z</time>
      </trkpt>
      <trkpt lat="44.42611" lon="4.50264">
        <ele>565</ele>
        <time>2013-02-27T12:26:31.000Z</time>
      </trkpt>
      <trkpt lat="44.4261" lon="4.50263">
        <ele>565.40002441406</ele>
        <time>2013-02-27T12:26:32.000Z</time>
      </trkpt>
      <trkpt lat="44.4261" lon="4.50261">
        <ele>565.40002441406</ele>
        <time>2013-02-27T12:26:33.000Z</time>
      </trkpt>
      <trkpt lat="44.42609" lon="4.50259">
        <ele>567.40002441406</ele>
        <time>2013-02-27T12:26:34.000Z</time>
      </trkpt>
      <trkpt lat="44.42609" lon="4.50257">
        <ele>566.79998779297</ele>
        <time>2013-02-27T12:26:35.000Z</time>
      </trkpt>
      <trkpt lat="44.42609" lon="4.50256">
        <ele>567.40002441406</ele>
        <time>2013-02-27T12:26:36.000Z</time>
      </trkpt>
      <trkpt lat="44.42608" lon="4.50255">
        <ele>569.20001220703</ele>
        <time>2013-02-27T12:26:37.000Z</time>
      </trkpt>
      <trkpt lat="44.42608" lon="4.50253">
        <ele>569.79998779297</ele>
        <time>2013-02-27T12:26:38.000Z</time>
      </trkpt>
      <trkpt lat="44.42608" lon="4.50252">
        <ele>570.59997558594</ele>
        <time>2013-02-27T12:26:39.000Z</time>
      </trkpt>
      <trkpt lat="44.42607" lon="4.5025">
        <ele>571.59997558594</ele>
        <time>2013-02-27T12:26:40.000Z</time>
      </trkpt>
      <trkpt lat="44.42607" lon="4.50249">
        <ele>573</ele>
        <time>2013-02-27T12:26:41.000Z</time>
      </trkpt>
      <trkpt lat="44.42606" lon="4.50247">
        <ele>573.59997558594</ele>
        <time>2013-02-27T12:26:42.000Z</time>
      </trkpt>
      <trkpt lat="44.42606" lon="4.50246">
        <ele>574</ele>
        <time>2013-02-27T12:26:43.000Z</time>
      </trkpt>
      <trkpt lat="44.42606" lon="4.50244">
        <ele>574.59997558594</ele>
        <time>2013-02-27T12:26:44.000Z</time>
      </trkpt>
      <trkpt lat="44.42606" lon="4.50242">
        <ele>575</ele>
        <time>2013-02-27T12:26:45.000Z</time>
      </trkpt>
      <trkpt lat="44.42606" lon="4.50241">
        <ele>575</ele>
        <time>2013-02-27T12:26:46.000Z</time>
      </trkpt>
      <trkpt lat="44.42605" lon="4.5024">
        <ele>575.40002441406</ele>
        <time>2013-02-27T12:26:47.000Z</time>
      </trkpt>
      <trkpt lat="44.42605" lon="4.50238">
        <ele>575</ele>
        <time>2013-02-27T12:26:48.000Z</time>
      </trkpt>
      <trkpt lat="44.42605" lon="4.50237">
        <ele>575</ele>
        <time>2013-02-27T12:26:49.000Z</time>
      </trkpt>
      <trkpt lat="44.42605" lon="4.50235">
        <ele>575</ele>
        <time>2013-02-27T12:26:50.000Z</time>
      </trkpt>
      <trkpt lat="44.42604" lon="4.50233">
        <ele>575</ele>
        <time>2013-02-27T12:26:51.000Z</time>
      </trkpt>
      <trkpt lat="44.42604" lon="4.50232">
        <ele>575</ele>
        <time>2013-02-27T12:26:52.000Z</time>
      </trkpt>
      <trkpt lat="44.42604" lon="4.5023">
        <ele>576</ele>
        <time>2013-02-27T12:26:53.000Z</time>
      </trkpt>
      <trkpt lat="44.42604" lon="4.50228">
        <ele>575.40002441406</ele>
        <time>2013-02-27T12:26:54.000Z</time>
      </trkpt>
      <trkpt lat="44.42604" lon="4.50227">
        <ele>576</ele>
        <time>2013-02-27T12:26:55.000Z</time>
      </trkpt>
      <trkpt lat="44.42604" lon="4.50226">
        <ele>576.40002441406</ele>
        <time>2013-02-27T12:26:56.000Z</time>
      </trkpt>
      <trkpt lat="44.42604" lon="4.50225">
        <ele>576.40002441406</ele>
        <time>2013-02-27T12:26:57.000Z</time>
      </trkpt>
      <trkpt lat="44.42604" lon="4.50224">
        <ele>577</ele>
        <time>2013-02-27T12:26:58.000Z</time>
      </trkpt>
      <trkpt lat="44.42604" lon="4.50223">
        <ele>576</ele>
        <time>2013-02-27T12:26:59.000Z</time>
      </trkpt>
      <trkpt lat="44.42604" lon="4.50222">
        <ele>575</ele>
        <time>2013-02-27T12:27:00.000Z</time>
      </trkpt>
      <trkpt lat="44.42604" lon="4.50221">
        <ele>574.59997558594</ele>
        <time>2013-02-27T12:27:01.000Z</time>
      </trkpt>
      <trkpt lat="44.42604" lon="4.50219">
        <ele>573.59997558594</ele>
        <time>2013-02-27T12:27:02.000Z</time>
      </trkpt>
      <trkpt lat="44.42603" lon="4.50217">
        <ele>573</ele>
        <time>2013-02-27T12:27:03.000Z</time>
      </trkpt>
      <trkpt lat="44.42603" lon="4.50216">
        <ele>573.59997558594</ele>
        <time>2013-02-27T12:27:04.000Z</time>
      </trkpt>
      <trkpt lat="44.42603" lon="4.50214">
        <ele>574.59997558594</ele>
        <time>2013-02-27T12:27:05.000Z</time>
      </trkpt>
      <trkpt lat="44.42603" lon="4.50213">
        <ele>574.59997558594</ele>
        <time>2013-02-27T12:27:06.000Z</time>
      </trkpt>
      <trkpt lat="44.42603" lon="4.50211">
        <ele>575.40002441406</ele>
        <time>2013-02-27T12:27:07.000Z</time>
      </trkpt>
      <trkpt lat="44.42602" lon="4.5021">
        <ele>576.40002441406</ele>
        <time>2013-02-27T12:27:08.000Z</time>
      </trkpt>
      <trkpt lat="44.42601" lon="4.50209">
        <ele>576.40002441406</ele>
        <time>2013-02-27T12:27:09.000Z</time>
      </trkpt>
      <trkpt lat="44.42601" lon="4.50207">
        <ele>576.40002441406</ele>
        <time>2013-02-27T12:27:10.000Z</time>
      </trkpt>
      <trkpt lat="44.42601" lon="4.50205">
        <ele>575.40002441406</ele>
        <time>2013-02-27T12:27:11.000Z</time>
      </trkpt>
      <trkpt lat="44.42601" lon="4.50203">
        <ele>574.59997558594</ele>
        <time>2013-02-27T12:27:12.000Z</time>
      </trkpt>
      <trkpt lat="44.426" lon="4.50201">
        <ele>573.59997558594</ele>
        <time>2013-02-27T12:27:13.000Z</time>
      </trkpt>
      <trkpt lat="44.426" lon="4.50199">
        <ele>572.20001220703</ele>
        <time>2013-02-27T12:27:14.000Z</time>
      </trkpt>
      <trkpt lat="44.426" lon="4.50197">
        <ele>572.59997558594</ele>
        <time>2013-02-27T12:27:15.000Z</time>
      </trkpt>
      <trkpt lat="44.42599" lon="4.50196">
        <ele>573.59997558594</ele>
        <time>2013-02-27T12:27:16.000Z</time>
      </trkpt>
      <trkpt lat="44.42598" lon="4.50195">
        <ele>574</ele>
        <time>2013-02-27T12:27:17.000Z</time>
      </trkpt>
      <trkpt lat="44.42597" lon="4.50193">
        <ele>574.59997558594</ele>
        <time>2013-02-27T12:27:18.000Z</time>
      </trkpt>
      <trkpt lat="44.42597" lon="4.50191">
        <ele>575.40002441406</ele>
        <time>2013-02-27T12:27:19.000Z</time>
      </trkpt>
      <trkpt lat="44.42596" lon="4.5019">
        <ele>576</ele>
        <time>2013-02-27T12:27:20.000Z</time>
      </trkpt>
      <trkpt lat="44.42596" lon="4.50188">
        <ele>576.40002441406</ele>
        <time>2013-02-27T12:27:21.000Z</time>
      </trkpt>
      <trkpt lat="44.42596" lon="4.50187">
        <ele>576.40002441406</ele>
        <time>2013-02-27T12:27:22.000Z</time>
      </trkpt>
      <trkpt lat="44.42595" lon="4.50185">
        <ele>576.40002441406</ele>
        <time>2013-02-27T12:27:23.000Z</time>
      </trkpt>
      <trkpt lat="44.42594" lon="4.50183">
        <ele>576.40002441406</ele>
        <time>2013-02-27T12:27:24.000Z</time>
      </trkpt>
      <trkpt lat="44.42594" lon="4.50181">
        <ele>577</ele>
        <time>2013-02-27T12:27:25.000Z</time>
      </trkpt>
      <trkpt lat="44.42593" lon="4.50179">
        <ele>577</ele>
        <time>2013-02-27T12:27:26.000Z</time>
      </trkpt>
      <trkpt lat="44.42593" lon="4.50178">
        <ele>576.40002441406</ele>
        <time>2013-02-27T12:27:27.000Z</time>
      </trkpt>
      <trkpt lat="44.42592" lon="4.50176">
        <ele>576.40002441406</ele>
        <time>2013-02-27T12:27:28.000Z</time>
      </trkpt>
      <trkpt lat="44.42592" lon="4.50175">
        <ele>576.40002441406</ele>
        <time>2013-02-27T12:27:29.000Z</time>
      </trkpt>
      <trkpt lat="44.42591" lon="4.50174">
        <ele>576.40002441406</ele>
        <time>2013-02-27T12:27:30.000Z</time>
      </trkpt>
      <trkpt lat="44.42591" lon="4.50173">
        <ele>577</ele>
        <time>2013-02-27T12:27:31.000Z</time>
      </trkpt>
      <trkpt lat="44.4259" lon="4.50171">
        <ele>577.40002441406</ele>
        <time>2013-02-27T12:27:32.000Z</time>
      </trkpt>
      <trkpt lat="44.4259" lon="4.50169">
        <ele>577.40002441406</ele>
        <time>2013-02-27T12:27:33.000Z</time>
      </trkpt>
      <trkpt lat="44.42589" lon="4.50168">
        <ele>577.40002441406</ele>
        <time>2013-02-27T12:27:34.000Z</time>
      </trkpt>
      <trkpt lat="44.42589" lon="4.50167">
        <ele>577.79998779297</ele>
        <time>2013-02-27T12:27:35.000Z</time>
      </trkpt>
      <trkpt lat="44.42588" lon="4.50165">
        <ele>578.40002441406</ele>
        <time>2013-02-27T12:27:36.000Z</time>
      </trkpt>
      <trkpt lat="44.42588" lon="4.50164">
        <ele>577.79998779297</ele>
        <time>2013-02-27T12:27:37.000Z</time>
      </trkpt>
      <trkpt lat="44.42588" lon="4.50162">
        <ele>577.79998779297</ele>
        <time>2013-02-27T12:27:38.000Z</time>
      </trkpt>
      <trkpt lat="44.42587" lon="4.5016">
        <ele>577.79998779297</ele>
        <time>2013-02-27T12:27:39.000Z</time>
      </trkpt>
      <trkpt lat="44.42587" lon="4.50159">
        <ele>577.79998779297</ele>
        <time>2013-02-27T12:27:40.000Z</time>
      </trkpt>
      <trkpt lat="44.42587" lon="4.50157">
        <ele>577.40002441406</ele>
        <time>2013-02-27T12:27:41.000Z</time>
      </trkpt>
      <trkpt lat="44.42586" lon="4.50156">
        <ele>577</ele>
        <time>2013-02-27T12:27:42.000Z</time>
      </trkpt>
      <trkpt lat="44.42586" lon="4.50154">
        <ele>577</ele>
        <time>2013-02-27T12:27:43.000Z</time>
      </trkpt>
      <trkpt lat="44.42585" lon="4.50153">
        <ele>577</ele>
        <time>2013-02-27T12:27:44.000Z</time>
      </trkpt>
      <trkpt lat="44.42585" lon="4.50152">
        <ele>577</ele>
        <time>2013-02-27T12:27:45.000Z</time>
      </trkpt>
      <trkpt lat="44.42584" lon="4.5015">
        <ele>576.40002441406</ele>
        <time>2013-02-27T12:27:46.000Z</time>
      </trkpt>
      <trkpt lat="44.42584" lon="4.50149">
        <ele>577</ele>
        <time>2013-02-27T12:27:47.000Z</time>
      </trkpt>
      <trkpt lat="44.42583" lon="4.50148">
        <ele>577</ele>
        <time>2013-02-27T12:27:48.000Z</time>
      </trkpt>
      <trkpt lat="44.42583" lon="4.50146">
        <ele>577</ele>
        <time>2013-02-27T12:27:49.000Z</time>
      </trkpt>
      <trkpt lat="44.42582" lon="4.50145">
        <ele>577.40002441406</ele>
        <time>2013-02-27T12:27:50.000Z</time>
      </trkpt>
      <trkpt lat="44.42582" lon="4.50144">
        <ele>577.40002441406</ele>
        <time>2013-02-27T12:27:51.000Z</time>
      </trkpt>
      <trkpt lat="44.42581" lon="4.50143">
        <ele>577.79998779297</ele>
        <time>2013-02-27T12:27:52.000Z</time>
      </trkpt>
      <trkpt lat="44.42581" lon="4.50141">
        <ele>578.40002441406</ele>
        <time>2013-02-27T12:27:53.000Z</time>
      </trkpt>
      <trkpt lat="44.42581" lon="4.5014">
        <ele>578.79998779297</ele>
        <time>2013-02-27T12:27:54.000Z</time>
      </trkpt>
      <trkpt lat="44.42581" lon="4.50139">
        <ele>578.79998779297</ele>
        <time>2013-02-27T12:27:55.000Z</time>
      </trkpt>
      <trkpt lat="44.42581" lon="4.50138">
        <ele>578.79998779297</ele>
        <time>2013-02-27T12:27:56.000Z</time>
      </trkpt>
      <trkpt lat="44.4258" lon="4.50137">
        <ele>579.79998779297</ele>
        <time>2013-02-27T12:27:57.000Z</time>
      </trkpt>
      <trkpt lat="44.4258" lon="4.50135">
        <ele>579.40002441406</ele>
        <time>2013-02-27T12:27:58.000Z</time>
      </trkpt>
      <trkpt lat="44.4258" lon="4.50134">
        <ele>580.20001220703</ele>
        <time>2013-02-27T12:27:59.000Z</time>
      </trkpt>
      <trkpt lat="44.42579" lon="4.50132">
        <ele>580.20001220703</ele>
        <time>2013-02-27T12:28:00.000Z</time>
      </trkpt>
      <trkpt lat="44.42579" lon="4.50131">
        <ele>579.79998779297</ele>
        <time>2013-02-27T12:28:01.000Z</time>
      </trkpt>
      <trkpt lat="44.42579" lon="4.50129">
        <ele>579.40002441406</ele>
        <time>2013-02-27T12:28:02.000Z</time>
      </trkpt>
      <trkpt lat="44.42578" lon="4.50127">
        <ele>578.79998779297</ele>
        <time>2013-02-27T12:28:03.000Z</time>
      </trkpt>
      <trkpt lat="44.42578" lon="4.50125">
        <ele>578.79998779297</ele>
        <time>2013-02-27T12:28:04.000Z</time>
      </trkpt>
      <trkpt lat="44.42578" lon="4.50124">
        <ele>578.79998779297</ele>
        <time>2013-02-27T12:28:05.000Z</time>
      </trkpt>
      <trkpt lat="44.42578" lon="4.50123">
        <ele>578.79998779297</ele>
        <time>2013-02-27T12:28:06.000Z</time>
      </trkpt>
      <trkpt lat="44.42577" lon="4.50121">
        <ele>578.79998779297</ele>
        <time>2013-02-27T12:28:07.000Z</time>
      </trkpt>
      <trkpt lat="44.42577" lon="4.5012">
        <ele>579.40002441406</ele>
        <time>2013-02-27T12:28:08.000Z</time>
      </trkpt>
      <trkpt lat="44.42577" lon="4.50118">
        <ele>579.79998779297</ele>
        <time>2013-02-27T12:28:09.000Z</time>
      </trkpt>
      <trkpt lat="44.42576" lon="4.50117">
        <ele>579.40002441406</ele>
        <time>2013-02-27T12:28:10.000Z</time>
      </trkpt>
      <trkpt lat="44.42576" lon="4.50115">
        <ele>579.40002441406</ele>
        <time>2013-02-27T12:28:11.000Z</time>
      </trkpt>
      <trkpt lat="44.42575" lon="4.50113">
        <ele>578.79998779297</ele>
        <time>2013-02-27T12:28:12.000Z</time>
      </trkpt>
      <trkpt lat="44.42575" lon="4.50111">
        <ele>579.40002441406</ele>
        <time>2013-02-27T12:28:13.000Z</time>
      </trkpt>
      <trkpt lat="44.42574" lon="4.50109">
        <ele>579.79998779297</ele>
        <time>2013-02-27T12:28:14.000Z</time>
      </trkpt>
      <trkpt lat="44.42574" lon="4.50107">
        <ele>579.79998779297</ele>
        <time>2013-02-27T12:28:15.000Z</time>
      </trkpt>
      <trkpt lat="44.42574" lon="4.50106">
        <ele>579.79998779297</ele>
        <time>2013-02-27T12:28:16.000Z</time>
      </trkpt>
      <trkpt lat="44.42573" lon="4.50104">
        <ele>581.20001220703</ele>
        <time>2013-02-27T12:28:17.000Z</time>
      </trkpt>
      <trkpt lat="44.42573" lon="4.50103">
        <ele>581.79998779297</ele>
        <time>2013-02-27T12:28:18.000Z</time>
      </trkpt>
      <trkpt lat="44.42573" lon="4.50101">
        <ele>581.79998779297</ele>
        <time>2013-02-27T12:28:19.000Z</time>
      </trkpt>
      <trkpt lat="44.42572" lon="4.50099">
        <ele>581.79998779297</ele>
        <time>2013-02-27T12:28:20.000Z</time>
      </trkpt>
      <trkpt lat="44.42571" lon="4.50097">
        <ele>581.79998779297</ele>
        <time>2013-02-27T12:28:21.000Z</time>
      </trkpt>
      <trkpt lat="44.42571" lon="4.50095">
        <ele>582.20001220703</ele>
        <time>2013-02-27T12:28:22.000Z</time>
      </trkpt>
      <trkpt lat="44.4257" lon="4.50093">
        <ele>582.59997558594</ele>
        <time>2013-02-27T12:28:23.000Z</time>
      </trkpt>
      <trkpt lat="44.4257" lon="4.50092">
        <ele>583.20001220703</ele>
        <time>2013-02-27T12:28:24.000Z</time>
      </trkpt>
      <trkpt lat="44.42569" lon="4.50091">
        <ele>583.59997558594</ele>
        <time>2013-02-27T12:28:25.000Z</time>
      </trkpt>
      <trkpt lat="44.42569" lon="4.5009">
        <ele>584.20001220703</ele>
        <time>2013-02-27T12:28:26.000Z</time>
      </trkpt>
      <trkpt lat="44.42568" lon="4.50089">
        <ele>584.20001220703</ele>
        <time>2013-02-27T12:28:27.000Z</time>
      </trkpt>
      <trkpt lat="44.42568" lon="4.50087">
        <ele>582.59997558594</ele>
        <time>2013-02-27T12:28:28.000Z</time>
      </trkpt>
      <trkpt lat="44.42567" lon="4.50086">
        <ele>581.79998779297</ele>
        <time>2013-02-27T12:28:29.000Z</time>
      </trkpt>
      <trkpt lat="44.42567" lon="4.50085">
        <ele>581.20001220703</ele>
        <time>2013-02-27T12:28:30.000Z</time>
      </trkpt>
      <trkpt lat="44.42567" lon="4.50084">
        <ele>581.20001220703</ele>
        <time>2013-02-27T12:28:31.000Z</time>
      </trkpt>
      <trkpt lat="44.42566" lon="4.50082">
        <ele>581.20001220703</ele>
        <time>2013-02-27T12:28:32.000Z</time>
      </trkpt>
      <trkpt lat="44.42566" lon="4.5008">
        <ele>581.79998779297</ele>
        <time>2013-02-27T12:28:33.000Z</time>
      </trkpt>
      <trkpt lat="44.42565" lon="4.50079">
        <ele>582.20001220703</ele>
        <time>2013-02-27T12:28:34.000Z</time>
      </trkpt>
      <trkpt lat="44.42565" lon="4.50078">
        <ele>582.20001220703</ele>
        <time>2013-02-27T12:28:35.000Z</time>
      </trkpt>
      <trkpt lat="44.42564" lon="4.50076">
        <ele>582.20001220703</ele>
        <time>2013-02-27T12:28:36.000Z</time>
      </trkpt>
      <trkpt lat="44.42564" lon="4.50075">
        <ele>582.20001220703</ele>
        <time>2013-02-27T12:28:37.000Z</time>
      </trkpt>
      <trkpt lat="44.42564" lon="4.50073">
        <ele>582.20001220703</ele>
        <time>2013-02-27T12:28:38.000Z</time>
      </trkpt>
      <trkpt lat="44.42564" lon="4.50072">
        <ele>583.20001220703</ele>
        <time>2013-02-27T12:28:39.000Z</time>
      </trkpt>
      <trkpt lat="44.42564" lon="4.50071">
        <ele>582.59997558594</ele>
        <time>2013-02-27T12:28:40.000Z</time>
      </trkpt>
      <trkpt lat="44.42563" lon="4.50069">
        <ele>583.20001220703</ele>
        <time>2013-02-27T12:28:41.000Z</time>
      </trkpt>
      <trkpt lat="44.42563" lon="4.50068">
        <ele>582.59997558594</ele>
        <time>2013-02-27T12:28:42.000Z</time>
      </trkpt>
      <trkpt lat="44.42562" lon="4.50066">
        <ele>582.20001220703</ele>
        <time>2013-02-27T12:28:43.000Z</time>
      </trkpt>
      <trkpt lat="44.42562" lon="4.50064">
        <ele>582.20001220703</ele>
        <time>2013-02-27T12:28:44.000Z</time>
      </trkpt>
      <trkpt lat="44.42561" lon="4.50063">
        <ele>581.79998779297</ele>
        <time>2013-02-27T12:28:45.000Z</time>
      </trkpt>
      <trkpt lat="44.42561" lon="4.50061">
        <ele>581.20001220703</ele>
        <time>2013-02-27T12:28:46.000Z</time>
      </trkpt>
      <trkpt lat="44.42561" lon="4.50059">
        <ele>581.20001220703</ele>
        <time>2013-02-27T12:28:47.000Z</time>
      </trkpt>
      <trkpt lat="44.4256" lon="4.50058">
        <ele>581.79998779297</ele>
        <time>2013-02-27T12:28:48.000Z</time>
      </trkpt>
      <trkpt lat="44.4256" lon="4.50056">
        <ele>581.79998779297</ele>
        <time>2013-02-27T12:28:49.000Z</time>
      </trkpt>
      <trkpt lat="44.4256" lon="4.50055">
        <ele>582.20001220703</ele>
        <time>2013-02-27T12:28:50.000Z</time>
      </trkpt>
      <trkpt lat="44.42559" lon="4.50054">
        <ele>582.59997558594</ele>
        <time>2013-02-27T12:28:51.000Z</time>
      </trkpt>
      <trkpt lat="44.42558" lon="4.50053">
        <ele>583.20001220703</ele>
        <time>2013-02-27T12:28:52.000Z</time>
      </trkpt>
      <trkpt lat="44.42557" lon="4.50052">
        <ele>585</ele>
        <time>2013-02-27T12:28:53.000Z</time>
      </trkpt>
      <trkpt lat="44.42557" lon="4.50051">
        <ele>585</ele>
        <time>2013-02-27T12:28:54.000Z</time>
      </trkpt>
      <trkpt lat="44.42556" lon="4.5005">
        <ele>584.59997558594</ele>
        <time>2013-02-27T12:28:55.000Z</time>
      </trkpt>
      <trkpt lat="44.42556" lon="4.50049">
        <ele>585</ele>
        <time>2013-02-27T12:28:56.000Z</time>
      </trkpt>
      <trkpt lat="44.42555" lon="4.50048">
        <ele>585</ele>
        <time>2013-02-27T12:28:57.000Z</time>
      </trkpt>
      <trkpt lat="44.42555" lon="4.50046">
        <ele>585.59997558594</ele>
        <time>2013-02-27T12:28:58.000Z</time>
      </trkpt>
      <trkpt lat="44.42554" lon="4.50045">
        <ele>585.59997558594</ele>
        <time>2013-02-27T12:28:59.000Z</time>
      </trkpt>
      <trkpt lat="44.42554" lon="4.50044">
        <ele>585.59997558594</ele>
        <time>2013-02-27T12:29:00.000Z</time>
      </trkpt>
      <trkpt lat="44.42553" lon="4.50042">
        <ele>586</ele>
        <time>2013-02-27T12:29:01.000Z</time>
      </trkpt>
      <trkpt lat="44.42553" lon="4.50041">
        <ele>586.59997558594</ele>
        <time>2013-02-27T12:29:02.000Z</time>
      </trkpt>
      <trkpt lat="44.42552" lon="4.50041">
        <ele>587</ele>
        <time>2013-02-27T12:29:03.000Z</time>
      </trkpt>
      <trkpt lat="44.42551" lon="4.5004">
        <ele>587</ele>
        <time>2013-02-27T12:29:04.000Z</time>
      </trkpt>
      <trkpt lat="44.4255" lon="4.50038">
        <ele>586</ele>
        <time>2013-02-27T12:29:05.000Z</time>
      </trkpt>
      <trkpt lat="44.4255" lon="4.50037">
        <ele>586.59997558594</ele>
        <time>2013-02-27T12:29:06.000Z</time>
      </trkpt>
      <trkpt lat="44.42549" lon="4.50036">
        <ele>586.59997558594</ele>
        <time>2013-02-27T12:29:07.000Z</time>
      </trkpt>
      <trkpt lat="44.42549" lon="4.50036">
        <ele>587</ele>
        <time>2013-02-27T12:29:08.000Z</time>
      </trkpt>
      <trkpt lat="44.42548" lon="4.50035">
        <ele>587</ele>
        <time>2013-02-27T12:29:09.000Z</time>
      </trkpt>
      <trkpt lat="44.42548" lon="4.50034">
        <ele>587</ele>
        <time>2013-02-27T12:29:10.000Z</time>
      </trkpt>
      <trkpt lat="44.42547" lon="4.50033">
        <ele>586</ele>
        <time>2013-02-27T12:29:11.000Z</time>
      </trkpt>
      <trkpt lat="44.42546" lon="4.50032">
        <ele>586</ele>
        <time>2013-02-27T12:29:12.000Z</time>
      </trkpt>
      <trkpt lat="44.42545" lon="4.5003">
        <ele>585.59997558594</ele>
        <time>2013-02-27T12:29:13.000Z</time>
      </trkpt>
      <trkpt lat="44.42544" lon="4.50029">
        <ele>585.59997558594</ele>
        <time>2013-02-27T12:29:14.000Z</time>
      </trkpt>
      <trkpt lat="44.42543" lon="4.50028">
        <ele>585</ele>
        <time>2013-02-27T12:29:15.000Z</time>
      </trkpt>
      <trkpt lat="44.42543" lon="4.50027">
        <ele>585</ele>
        <time>2013-02-27T12:29:16.000Z</time>
      </trkpt>
      <trkpt lat="44.42542" lon="4.50025">
        <ele>584.59997558594</ele>
        <time>2013-02-27T12:29:17.000Z</time>
      </trkpt>
      <trkpt lat="44.42541" lon="4.50024">
        <ele>585</ele>
        <time>2013-02-27T12:29:18.000Z</time>
      </trkpt>
      <trkpt lat="44.4254" lon="4.50024">
        <ele>585</ele>
        <time>2013-02-27T12:29:19.000Z</time>
      </trkpt>
      <trkpt lat="44.4254" lon="4.50023">
        <ele>585</ele>
        <time>2013-02-27T12:29:20.000Z</time>
      </trkpt>
      <trkpt lat="44.42539" lon="4.50021">
        <ele>586.59997558594</ele>
        <time>2013-02-27T12:29:21.000Z</time>
      </trkpt>
      <trkpt lat="44.42537" lon="4.5002">
        <ele>587.59997558594</ele>
        <time>2013-02-27T12:29:22.000Z</time>
      </trkpt>
      <trkpt lat="44.42536" lon="4.50019">
        <ele>588</ele>
        <time>2013-02-27T12:29:23.000Z</time>
      </trkpt>
      <trkpt lat="44.42535" lon="4.50018">
        <ele>588.40002441406</ele>
        <time>2013-02-27T12:29:24.000Z</time>
      </trkpt>
      <trkpt lat="44.42535" lon="4.50017">
        <ele>588.40002441406</ele>
        <time>2013-02-27T12:29:25.000Z</time>
      </trkpt>
      <trkpt lat="44.42534" lon="4.50016">
        <ele>590</ele>
        <time>2013-02-27T12:29:26.000Z</time>
      </trkpt>
      <trkpt lat="44.42533" lon="4.50015">
        <ele>590.79998779297</ele>
        <time>2013-02-27T12:29:27.000Z</time>
      </trkpt>
      <trkpt lat="44.42533" lon="4.50014">
        <ele>591.40002441406</ele>
        <time>2013-02-27T12:29:28.000Z</time>
      </trkpt>
      <trkpt lat="44.42532" lon="4.50012">
        <ele>592.40002441406</ele>
        <time>2013-02-27T12:29:29.000Z</time>
      </trkpt>
      <trkpt lat="44.42531" lon="4.50011">
        <ele>592.79998779297</ele>
        <time>2013-02-27T12:29:30.000Z</time>
      </trkpt>
      <trkpt lat="44.4253" lon="4.5001">
        <ele>593.79998779297</ele>
        <time>2013-02-27T12:29:31.000Z</time>
      </trkpt>
      <trkpt lat="44.4253" lon="4.50008">
        <ele>593.79998779297</ele>
        <time>2013-02-27T12:29:32.000Z</time>
      </trkpt>
      <trkpt lat="44.42529" lon="4.50008">
        <ele>594.20001220703</ele>
        <time>2013-02-27T12:29:33.000Z</time>
      </trkpt>
      <trkpt lat="44.42529" lon="4.50006">
        <ele>593.79998779297</ele>
        <time>2013-02-27T12:29:34.000Z</time>
      </trkpt>
      <trkpt lat="44.42528" lon="4.50005">
        <ele>593.79998779297</ele>
        <time>2013-02-27T12:29:35.000Z</time>
      </trkpt>
      <trkpt lat="44.42527" lon="4.50004">
        <ele>593.79998779297</ele>
        <time>2013-02-27T12:29:36.000Z</time>
      </trkpt>
      <trkpt lat="44.42526" lon="4.50002">
        <ele>593.79998779297</ele>
        <time>2013-02-27T12:29:37.000Z</time>
      </trkpt>
      <trkpt lat="44.42526" lon="4.50001">
        <ele>593.79998779297</ele>
        <time>2013-02-27T12:29:38.000Z</time>
      </trkpt>
      <trkpt lat="44.42525" lon="4.5">
        <ele>594.20001220703</ele>
        <time>2013-02-27T12:29:39.000Z</time>
      </trkpt>
      <trkpt lat="44.42524" lon="4.49999">
        <ele>594.79998779297</ele>
        <time>2013-02-27T12:29:40.000Z</time>
      </trkpt>
      <trkpt lat="44.42523" lon="4.49998">
        <ele>595.20001220703</ele>
        <time>2013-02-27T12:29:41.000Z</time>
      </trkpt>
      <trkpt lat="44.42522" lon="4.49997">
        <ele>595.59997558594</ele>
        <time>2013-02-27T12:29:42.000Z</time>
      </trkpt>
      <trkpt lat="44.42521" lon="4.49996">
        <ele>596.20001220703</ele>
        <time>2013-02-27T12:29:43.000Z</time>
      </trkpt>
      <trkpt lat="44.4252" lon="4.49995">
        <ele>596.59997558594</ele>
        <time>2013-02-27T12:29:44.000Z</time>
      </trkpt>
      <trkpt lat="44.42519" lon="4.49994">
        <ele>596.59997558594</ele>
        <time>2013-02-27T12:29:45.000Z</time>
      </trkpt>
      <trkpt lat="44.42518" lon="4.49993">
        <ele>595.59997558594</ele>
        <time>2013-02-27T12:29:46.000Z</time>
      </trkpt>
      <trkpt lat="44.42518" lon="4.49991">
        <ele>595.20001220703</ele>
        <time>2013-02-27T12:29:47.000Z</time>
      </trkpt>
      <trkpt lat="44.42516" lon="4.4999">
        <ele>595.59997558594</ele>
        <time>2013-02-27T12:29:48.000Z</time>
      </trkpt>
      <trkpt lat="44.42516" lon="4.4999">
        <ele>596.20001220703</ele>
        <time>2013-02-27T12:29:49.000Z</time>
      </trkpt>
      <trkpt lat="44.42514" lon="4.4999">
        <ele>597.20001220703</ele>
        <time>2013-02-27T12:29:50.000Z</time>
      </trkpt>
      <trkpt lat="44.42514" lon="4.49989">
        <ele>597.20001220703</ele>
        <time>2013-02-27T12:29:51.000Z</time>
      </trkpt>
      <trkpt lat="44.42513" lon="4.49988">
        <ele>597.59997558594</ele>
        <time>2013-02-27T12:29:52.000Z</time>
      </trkpt>
      <trkpt lat="44.42512" lon="4.49987">
        <ele>597.20001220703</ele>
        <time>2013-02-27T12:29:53.000Z</time>
      </trkpt>
      <trkpt lat="44.42511" lon="4.49987">
        <ele>597.20001220703</ele>
        <time>2013-02-27T12:29:54.000Z</time>
      </trkpt>
      <trkpt lat="44.42509" lon="4.49986">
        <ele>597.20001220703</ele>
        <time>2013-02-27T12:29:55.000Z</time>
      </trkpt>
      <trkpt lat="44.42509" lon="4.49985">
        <ele>596.59997558594</ele>
        <time>2013-02-27T12:29:56.000Z</time>
      </trkpt>
      <trkpt lat="44.42508" lon="4.49984">
        <ele>597.20001220703</ele>
        <time>2013-02-27T12:29:57.000Z</time>
      </trkpt>
      <trkpt lat="44.42507" lon="4.49983">
        <ele>597.59997558594</ele>
        <time>2013-02-27T12:29:58.000Z</time>
      </trkpt>
      <trkpt lat="44.42506" lon="4.49983">
        <ele>598</ele>
        <time>2013-02-27T12:29:59.000Z</time>
      </trkpt>
      <trkpt lat="44.42505" lon="4.49982">
        <ele>597.59997558594</ele>
        <time>2013-02-27T12:30:00.000Z</time>
      </trkpt>
      <trkpt lat="44.42504" lon="4.49982">
        <ele>598</ele>
        <time>2013-02-27T12:30:01.000Z</time>
      </trkpt>
      <trkpt lat="44.42503" lon="4.49981">
        <ele>598</ele>
        <time>2013-02-27T12:30:02.000Z</time>
      </trkpt>
      <trkpt lat="44.42501" lon="4.49981">
        <ele>598.59997558594</ele>
        <time>2013-02-27T12:30:03.000Z</time>
      </trkpt>
      <trkpt lat="44.425" lon="4.4998">
        <ele>598.59997558594</ele>
        <time>2013-02-27T12:30:04.000Z</time>
      </trkpt>
      <trkpt lat="44.42499" lon="4.49979">
        <ele>598.59997558594</ele>
        <time>2013-02-27T12:30:05.000Z</time>
      </trkpt>
      <trkpt lat="44.42498" lon="4.49979">
        <ele>598</ele>
        <time>2013-02-27T12:30:06.000Z</time>
      </trkpt>
      <trkpt lat="44.42497" lon="4.49978">
        <ele>598</ele>
        <time>2013-02-27T12:30:07.000Z</time>
      </trkpt>
      <trkpt lat="44.42496" lon="4.49978">
        <ele>598</ele>
        <time>2013-02-27T12:30:08.000Z</time>
      </trkpt>
      <trkpt lat="44.42495" lon="4.49977">
        <ele>598</ele>
        <time>2013-02-27T12:30:09.000Z</time>
      </trkpt>
      <trkpt lat="44.42493" lon="4.49977">
        <ele>598</ele>
        <time>2013-02-27T12:30:10.000Z</time>
      </trkpt>
      <trkpt lat="44.42492" lon="4.49976">
        <ele>598</ele>
        <time>2013-02-27T12:30:11.000Z</time>
      </trkpt>
      <trkpt lat="44.42491" lon="4.49975">
        <ele>598</ele>
        <time>2013-02-27T12:30:12.000Z</time>
      </trkpt>
      <trkpt lat="44.4249" lon="4.49975">
        <ele>598</ele>
        <time>2013-02-27T12:30:13.000Z</time>
      </trkpt>
      <trkpt lat="44.42489" lon="4.49974">
        <ele>598</ele>
        <time>2013-02-27T12:30:14.000Z</time>
      </trkpt>
      <trkpt lat="44.42488" lon="4.49974">
        <ele>598</ele>
        <time>2013-02-27T12:30:15.000Z</time>
      </trkpt>
      <trkpt lat="44.42487" lon="4.49974">
        <ele>598.59997558594</ele>
        <time>2013-02-27T12:30:16.000Z</time>
      </trkpt>
      <trkpt lat="44.42486" lon="4.49974">
        <ele>598.59997558594</ele>
        <time>2013-02-27T12:30:17.000Z</time>
      </trkpt>
      <trkpt lat="44.42485" lon="4.49974">
        <ele>598</ele>
        <time>2013-02-27T12:30:18.000Z</time>
      </trkpt>
      <trkpt lat="44.42483" lon="4.49974">
        <ele>598</ele>
        <time>2013-02-27T12:30:19.000Z</time>
      </trkpt>
      <trkpt lat="44.42482" lon="4.49974">
        <ele>598.59997558594</ele>
        <time>2013-02-27T12:30:20.000Z</time>
      </trkpt>
      <trkpt lat="44.42481" lon="4.49974">
        <ele>598.59997558594</ele>
        <time>2013-02-27T12:30:21.000Z</time>
      </trkpt>
      <trkpt lat="44.4248" lon="4.49974">
        <ele>598.59997558594</ele>
        <time>2013-02-27T12:30:22.000Z</time>
      </trkpt>
      <trkpt lat="44.42479" lon="4.49974">
        <ele>598.59997558594</ele>
        <time>2013-02-27T12:30:23.000Z</time>
      </trkpt>
      <trkpt lat="44.42478" lon="4.49974">
        <ele>599</ele>
        <time>2013-02-27T12:30:24.000Z</time>
      </trkpt>
      <trkpt lat="44.42477" lon="4.49973">
        <ele>599.59997558594</ele>
        <time>2013-02-27T12:30:25.000Z</time>
      </trkpt>
      <trkpt lat="44.42476" lon="4.49973">
        <ele>599</ele>
        <time>2013-02-27T12:30:26.000Z</time>
      </trkpt>
      <trkpt lat="44.42474" lon="4.49973">
        <ele>599.59997558594</ele>
        <time>2013-02-27T12:30:27.000Z</time>
      </trkpt>
      <trkpt lat="44.42473" lon="4.49973">
        <ele>599.59997558594</ele>
        <time>2013-02-27T12:30:28.000Z</time>
      </trkpt>
      <trkpt lat="44.42472" lon="4.49972">
        <ele>600</ele>
        <time>2013-02-27T12:30:29.000Z</time>
      </trkpt>
      <trkpt lat="44.4247" lon="4.49972">
        <ele>600.40002441406</ele>
        <time>2013-02-27T12:30:30.000Z</time>
      </trkpt>
      <trkpt lat="44.42469" lon="4.49972">
        <ele>601</ele>
        <time>2013-02-27T12:30:31.000Z</time>
      </trkpt>
      <trkpt lat="44.42468" lon="4.49971">
        <ele>601</ele>
        <time>2013-02-27T12:30:32.000Z</time>
      </trkpt>
      <trkpt lat="44.42467" lon="4.49971">
        <ele>601.40002441406</ele>
        <time>2013-02-27T12:30:33.000Z</time>
      </trkpt>
      <trkpt lat="44.42466" lon="4.49971">
        <ele>601.40002441406</ele>
        <time>2013-02-27T12:30:34.000Z</time>
      </trkpt>
      <trkpt lat="44.42466" lon="4.4997">
        <ele>602</ele>
        <time>2013-02-27T12:30:35.000Z</time>
      </trkpt>
      <trkpt lat="44.42465" lon="4.4997">
        <ele>602</ele>
        <time>2013-02-27T12:30:36.000Z</time>
      </trkpt>
      <trkpt lat="44.42463" lon="4.4997">
        <ele>602</ele>
        <time>2013-02-27T12:30:37.000Z</time>
      </trkpt>
      <trkpt lat="44.42462" lon="4.49969">
        <ele>602</ele>
        <time>2013-02-27T12:30:38.000Z</time>
      </trkpt>
      <trkpt lat="44.42461" lon="4.49969">
        <ele>602</ele>
        <time>2013-02-27T12:30:39.000Z</time>
      </trkpt>
      <trkpt lat="44.4246" lon="4.49968">
        <ele>601.40002441406</ele>
        <time>2013-02-27T12:30:40.000Z</time>
      </trkpt>
      <trkpt lat="44.42459" lon="4.49968">
        <ele>601.40002441406</ele>
        <time>2013-02-27T12:30:41.000Z</time>
      </trkpt>
      <trkpt lat="44.42458" lon="4.49967">
        <ele>601.40002441406</ele>
        <time>2013-02-27T12:30:42.000Z</time>
      </trkpt>
      <trkpt lat="44.42457" lon="4.49966">
        <ele>601</ele>
        <time>2013-02-27T12:30:43.000Z</time>
      </trkpt>
      <trkpt lat="44.42455" lon="4.49966">
        <ele>601.40002441406</ele>
        <time>2013-02-27T12:30:44.000Z</time>
      </trkpt>
      <trkpt lat="44.42454" lon="4.49966">
        <ele>602</ele>
        <time>2013-02-27T12:30:45.000Z</time>
      </trkpt>
      <trkpt lat="44.42453" lon="4.49965">
        <ele>601.40002441406</ele>
        <time>2013-02-27T12:30:46.000Z</time>
      </trkpt>
      <trkpt lat="44.42453" lon="4.49964">
        <ele>601.40002441406</ele>
        <time>2013-02-27T12:30:47.000Z</time>
      </trkpt>
      <trkpt lat="44.42452" lon="4.49964">
        <ele>601.40002441406</ele>
        <time>2013-02-27T12:30:48.000Z</time>
      </trkpt>
      <trkpt lat="44.42451" lon="4.49963">
        <ele>601.40002441406</ele>
        <time>2013-02-27T12:30:49.000Z</time>
      </trkpt>
      <trkpt lat="44.4245" lon="4.49963">
        <ele>602</ele>
        <time>2013-02-27T12:30:50.000Z</time>
      </trkpt>
      <trkpt lat="44.42449" lon="4.49962">
        <ele>602</ele>
        <time>2013-02-27T12:30:51.000Z</time>
      </trkpt>
      <trkpt lat="44.4245" lon="4.49961">
        <ele>602.79998779297</ele>
        <time>2013-02-27T12:30:52.000Z</time>
      </trkpt>
      <trkpt lat="44.4245" lon="4.49961">
        <ele>603.40002441406</ele>
        <time>2013-02-27T12:30:53.000Z</time>
      </trkpt>
      <trkpt lat="44.42451" lon="4.4996">
        <ele>603.40002441406</ele>
        <time>2013-02-27T12:30:54.000Z</time>
      </trkpt>
      <trkpt lat="44.42452" lon="4.49959">
        <ele>603.40002441406</ele>
        <time>2013-02-27T12:30:55.000Z</time>
      </trkpt>
      <trkpt lat="44.42452" lon="4.49958">
        <ele>603.40002441406</ele>
        <time>2013-02-27T12:30:56.000Z</time>
      </trkpt>
      <trkpt lat="44.42452" lon="4.49956">
        <ele>604.40002441406</ele>
        <time>2013-02-27T12:30:57.000Z</time>
      </trkpt>
      <trkpt lat="44.42452" lon="4.49954">
        <ele>604.79998779297</ele>
        <time>2013-02-27T12:30:58.000Z</time>
      </trkpt>
      <trkpt lat="44.42453" lon="4.49953">
        <ele>604.79998779297</ele>
        <time>2013-02-27T12:30:59.000Z</time>
      </trkpt>
      <trkpt lat="44.42454" lon="4.49953">
        <ele>604.40002441406</ele>
        <time>2013-02-27T12:31:00.000Z</time>
      </trkpt>
      <trkpt lat="44.42454" lon="4.49953">
        <ele>604.79998779297</ele>
        <time>2013-02-27T12:31:01.000Z</time>
      </trkpt>
      <trkpt lat="44.42454" lon="4.49953">
        <ele>604.79998779297</ele>
        <time>2013-02-27T12:31:02.000Z</time>
      </trkpt>
      <trkpt lat="44.42454" lon="4.49953">
        <ele>605.20001220703</ele>
        <time>2013-02-27T12:31:03.000Z</time>
      </trkpt>
      <trkpt lat="44.42454" lon="4.49953">
        <ele>605.20001220703</ele>
        <time>2013-02-27T12:31:04.000Z</time>
      </trkpt>
      <trkpt lat="44.42454" lon="4.49953">
        <ele>605.79998779297</ele>
        <time>2013-02-27T12:31:05.000Z</time>
      </trkpt>
      <trkpt lat="44.42454" lon="4.49953">
        <ele>606.20001220703</ele>
        <time>2013-02-27T12:31:06.000Z</time>
      </trkpt>
      <trkpt lat="44.42454" lon="4.49954">
        <ele>606.20001220703</ele>
        <time>2013-02-27T12:31:07.000Z</time>
      </trkpt>
      <trkpt lat="44.42454" lon="4.49954">
        <ele>606.20001220703</ele>
        <time>2013-02-27T12:31:08.000Z</time>
      </trkpt>
      <trkpt lat="44.42454" lon="4.49954">
        <ele>606.79998779297</ele>
        <time>2013-02-27T12:31:09.000Z</time>
      </trkpt>
      <trkpt lat="44.42454" lon="4.49954">
        <ele>607.20001220703</ele>
        <time>2013-02-27T12:31:10.000Z</time>
      </trkpt>
      <trkpt lat="44.42454" lon="4.49954">
        <ele>607.20001220703</ele>
        <time>2013-02-27T12:31:11.000Z</time>
      </trkpt>
      <trkpt lat="44.42454" lon="4.49954">
        <ele>607.59997558594</ele>
        <time>2013-02-27T12:31:12.000Z</time>
      </trkpt>
      <trkpt lat="44.42455" lon="4.49954">
        <ele>607.59997558594</ele>
        <time>2013-02-27T12:31:13.000Z</time>
      </trkpt>
      <trkpt lat="44.42455" lon="4.49954">
        <ele>607.59997558594</ele>
        <time>2013-02-27T12:31:14.000Z</time>
      </trkpt>
      <trkpt lat="44.42455" lon="4.49954">
        <ele>608.20001220703</ele>
        <time>2013-02-27T12:31:15.000Z</time>
      </trkpt>
      <trkpt lat="44.42455" lon="4.49955">
        <ele>608.20001220703</ele>
        <time>2013-02-27T12:31:16.000Z</time>
      </trkpt>
      <trkpt lat="44.42455" lon="4.49955">
        <ele>608.20001220703</ele>
        <time>2013-02-27T12:31:17.000Z</time>
      </trkpt>
      <trkpt lat="44.42455" lon="4.49955">
        <ele>608.59997558594</ele>
        <time>2013-02-27T12:31:18.000Z</time>
      </trkpt>
      <trkpt lat="44.42455" lon="4.49955">
        <ele>608.59997558594</ele>
        <time>2013-02-27T12:31:19.000Z</time>
      </trkpt>
      <trkpt lat="44.42455" lon="4.49955">
        <ele>608.59997558594</ele>
        <time>2013-02-27T12:31:20.000Z</time>
      </trkpt>
      <trkpt lat="44.42456" lon="4.49955">
        <ele>608.59997558594</ele>
        <time>2013-02-27T12:31:21.000Z</time>
      </trkpt>
      <trkpt lat="44.42456" lon="4.49955">
        <ele>608.59997558594</ele>
        <time>2013-02-27T12:31:22.000Z</time>
      </trkpt>
      <trkpt lat="44.42456" lon="4.49955">
        <ele>608.59997558594</ele>
        <time>2013-02-27T12:31:23.000Z</time>
      </trkpt>
      <trkpt lat="44.42456" lon="4.49955">
        <ele>608.20001220703</ele>
        <time>2013-02-27T12:31:24.000Z</time>
      </trkpt>
      <trkpt lat="44.42456" lon="4.49955">
        <ele>608.20001220703</ele>
        <time>2013-02-27T12:31:25.000Z</time>
      </trkpt>
      <trkpt lat="44.42456" lon="4.49955">
        <ele>608.20001220703</ele>
        <time>2013-02-27T12:31:26.000Z</time>
      </trkpt>
      <trkpt lat="44.42456" lon="4.49955">
        <ele>608.20001220703</ele>
        <time>2013-02-27T12:31:27.000Z</time>
      </trkpt>
      <trkpt lat="44.42456" lon="4.49955">
        <ele>607.59997558594</ele>
        <time>2013-02-27T12:31:28.000Z</time>
      </trkpt>
      <trkpt lat="44.42456" lon="4.49954">
        <ele>607.59997558594</ele>
        <time>2013-02-27T12:31:29.000Z</time>
      </trkpt>
      <trkpt lat="44.42456" lon="4.49954">
        <ele>608.20001220703</ele>
        <time>2013-02-27T12:31:30.000Z</time>
      </trkpt>
      <trkpt lat="44.42456" lon="4.49954">
        <ele>608.20001220703</ele>
        <time>2013-02-27T12:31:31.000Z</time>
      </trkpt>
      <trkpt lat="44.42456" lon="4.49955">
        <ele>608.20001220703</ele>
        <time>2013-02-27T12:31:32.000Z</time>
      </trkpt>
      <trkpt lat="44.42456" lon="4.49955">
        <ele>608.20001220703</ele>
        <time>2013-02-27T12:31:33.000Z</time>
      </trkpt>
      <trkpt lat="44.42456" lon="4.49955">
        <ele>608.20001220703</ele>
        <time>2013-02-27T12:31:34.000Z</time>
      </trkpt>
      <trkpt lat="44.42456" lon="4.49955">
        <ele>608.20001220703</ele>
        <time>2013-02-27T12:31:35.000Z</time>
      </trkpt>
      <trkpt lat="44.42456" lon="4.49955">
        <ele>608.20001220703</ele>
        <time>2013-02-27T12:31:36.000Z</time>
      </trkpt>
      <trkpt lat="44.42456" lon="4.49955">
        <ele>608.20001220703</ele>
        <time>2013-02-27T12:31:37.000Z</time>
      </trkpt>
      <trkpt lat="44.42456" lon="4.49955">
        <ele>608.20001220703</ele>
        <time>2013-02-27T12:31:38.000Z</time>
      </trkpt>
      <trkpt lat="44.42456" lon="4.49955">
        <ele>607.59997558594</ele>
        <time>2013-02-27T12:31:39.000Z</time>
      </trkpt>
      <trkpt lat="44.42456" lon="4.49955">
        <ele>607.59997558594</ele>
        <time>2013-02-27T12:31:41.000Z</time>
      </trkpt>
      <trkpt lat="44.42456" lon="4.49955">
        <ele>607.59997558594</ele>
        <time>2013-02-27T12:31:42.000Z</time>
      </trkpt>
      <trkpt lat="44.42456" lon="4.49955">
        <ele>607.59997558594</ele>
        <time>2013-02-27T12:31:43.000Z</time>
      </trkpt>
      <trkpt lat="44.42456" lon="4.49955">
        <ele>607.59997558594</ele>
        <time>2013-02-27T12:31:44.000Z</time>
      </trkpt>
      <trkpt lat="44.42456" lon="4.49955">
        <ele>607.59997558594</ele>
        <time>2013-02-27T12:31:45.000Z</time>
      </trkpt>
      <trkpt lat="44.42456" lon="4.49955">
        <ele>607.59997558594</ele>
        <time>2013-02-27T12:31:46.000Z</time>
      </trkpt>
      <trkpt lat="44.42456" lon="4.49955">
        <ele>607.59997558594</ele>
        <time>2013-02-27T12:31:47.000Z</time>
      </trkpt>
      <trkpt lat="44.42456" lon="4.49955">
        <ele>607.59997558594</ele>
        <time>2013-02-27T12:31:48.000Z</time>
      </trkpt>
      <trkpt lat="44.42456" lon="4.49955">
        <ele>607.59997558594</ele>
        <time>2013-02-27T12:31:49.000Z</time>
      </trkpt>
      <trkpt lat="44.42456" lon="4.49955">
        <ele>607.59997558594</ele>
        <time>2013-02-27T12:31:50.000Z</time>
      </trkpt>
      <trkpt lat="44.42456" lon="4.49955">
        <ele>607.59997558594</ele>
        <time>2013-02-27T12:31:51.000Z</time>
      </trkpt>
      <trkpt lat="44.42456" lon="4.49955">
        <ele>607.59997558594</ele>
        <time>2013-02-27T12:31:52.000Z</time>
      </trkpt>
      <trkpt lat="44.42456" lon="4.49955">
        <ele>607.59997558594</ele>
        <time>2013-02-27T12:31:53.000Z</time>
      </trkpt>
      <trkpt lat="44.42456" lon="4.49955">
        <ele>607.59997558594</ele>
        <time>2013-02-27T12:31:54.000Z</time>
      </trkpt>
      <trkpt lat="44.42456" lon="4.49955">
        <ele>607.59997558594</ele>
        <time>2013-02-27T12:31:55.000Z</time>
      </trkpt>
      <trkpt lat="44.42456" lon="4.49955">
        <ele>607.20001220703</ele>
        <time>2013-02-27T12:31:56.000Z</time>
      </trkpt>
      <trkpt lat="44.42455" lon="4.49955">
        <ele>607.20001220703</ele>
        <time>2013-02-27T12:31:57.000Z</time>
      </trkpt>
      <trkpt lat="44.42456" lon="4.49955">
        <ele>607.20001220703</ele>
        <time>2013-02-27T12:31:58.000Z</time>
      </trkpt>
      <trkpt lat="44.42456" lon="4.49955">
        <ele>607.20001220703</ele>
        <time>2013-02-27T12:31:59.000Z</time>
      </trkpt>
      <trkpt lat="44.42456" lon="4.49955">
        <ele>607.20001220703</ele>
        <time>2013-02-27T12:32:00.000Z</time>
      </trkpt>
      <trkpt lat="44.42455" lon="4.49955">
        <ele>607.20001220703</ele>
        <time>2013-02-27T12:32:01.000Z</time>
      </trkpt>
      <trkpt lat="44.42455" lon="4.49956">
        <ele>607.59997558594</ele>
        <time>2013-02-27T12:32:02.000Z</time>
      </trkpt>
      <trkpt lat="44.42455" lon="4.49956">
        <ele>607.59997558594</ele>
        <time>2013-02-27T12:32:03.000Z</time>
      </trkpt>
      <trkpt lat="44.42454" lon="4.49955">
        <ele>607.20001220703</ele>
        <time>2013-02-27T12:32:04.000Z</time>
      </trkpt>
      <trkpt lat="44.42454" lon="4.49955">
        <ele>606.79998779297</ele>
        <time>2013-02-27T12:32:05.000Z</time>
      </trkpt>
      <trkpt lat="44.42453" lon="4.49954">
        <ele>606.20001220703</ele>
        <time>2013-02-27T12:32:06.000Z</time>
      </trkpt>
      <trkpt lat="44.42453" lon="4.49954">
        <ele>606.20001220703</ele>
        <time>2013-02-27T12:32:07.000Z</time>
      </trkpt>
      <trkpt lat="44.42452" lon="4.49954">
        <ele>606.20001220703</ele>
        <time>2013-02-27T12:32:08.000Z</time>
      </trkpt>
      <trkpt lat="44.42451" lon="4.49953">
        <ele>605.79998779297</ele>
        <time>2013-02-27T12:32:09.000Z</time>
      </trkpt>
      <trkpt lat="44.4245" lon="4.49953">
        <ele>605.79998779297</ele>
        <time>2013-02-27T12:32:10.000Z</time>
      </trkpt>
      <trkpt lat="44.42449" lon="4.49953">
        <ele>605.20001220703</ele>
        <time>2013-02-27T12:32:11.000Z</time>
      </trkpt>
      <trkpt lat="44.42448" lon="4.49953">
        <ele>605.20001220703</ele>
        <time>2013-02-27T12:32:12.000Z</time>
      </trkpt>
      <trkpt lat="44.42447" lon="4.49953">
        <ele>605.20001220703</ele>
        <time>2013-02-27T12:32:13.000Z</time>
      </trkpt>
      <trkpt lat="44.42446" lon="4.49952">
        <ele>605.79998779297</ele>
        <time>2013-02-27T12:32:14.000Z</time>
      </trkpt>
      <trkpt lat="44.42446" lon="4.49952">
        <ele>605.79998779297</ele>
        <time>2013-02-27T12:32:15.000Z</time>
      </trkpt>
      <trkpt lat="44.42445" lon="4.49951">
        <ele>606.20001220703</ele>
        <time>2013-02-27T12:32:16.000Z</time>
      </trkpt>
      <trkpt lat="44.42445" lon="4.49951">
        <ele>606.20001220703</ele>
        <time>2013-02-27T12:32:17.000Z</time>
      </trkpt>
      <trkpt lat="44.42446" lon="4.49951">
        <ele>606.20001220703</ele>
        <time>2013-02-27T12:32:18.000Z</time>
      </trkpt>
      <trkpt lat="44.42445" lon="4.49951">
        <ele>606.20001220703</ele>
        <time>2013-02-27T12:32:19.000Z</time>
      </trkpt>
      <trkpt lat="44.42445" lon="4.49951">
        <ele>606.79998779297</ele>
        <time>2013-02-27T12:32:20.000Z</time>
      </trkpt>
      <trkpt lat="44.42445" lon="4.49951">
        <ele>606.79998779297</ele>
        <time>2013-02-27T12:32:21.000Z</time>
      </trkpt>
      <trkpt lat="44.42445" lon="4.49951">
        <ele>607.20001220703</ele>
        <time>2013-02-27T12:32:22.000Z</time>
      </trkpt>
      <trkpt lat="44.42445" lon="4.49951">
        <ele>607.20001220703</ele>
        <time>2013-02-27T12:32:23.000Z</time>
      </trkpt>
      <trkpt lat="44.42445" lon="4.49952">
        <ele>607.59997558594</ele>
        <time>2013-02-27T12:32:24.000Z</time>
      </trkpt>
      <trkpt lat="44.42445" lon="4.49952">
        <ele>607.59997558594</ele>
        <time>2013-02-27T12:32:25.000Z</time>
      </trkpt>
      <trkpt lat="44.42445" lon="4.49952">
        <ele>608.20001220703</ele>
        <time>2013-02-27T12:32:26.000Z</time>
      </trkpt>
      <trkpt lat="44.42445" lon="4.49952">
        <ele>608.59997558594</ele>
        <time>2013-02-27T12:32:27.000Z</time>
      </trkpt>
      <trkpt lat="44.42445" lon="4.49952">
        <ele>609.20001220703</ele>
        <time>2013-02-27T12:32:28.000Z</time>
      </trkpt>
      <trkpt lat="44.42445" lon="4.49952">
        <ele>609.20001220703</ele>
        <time>2013-02-27T12:32:29.000Z</time>
      </trkpt>
      <trkpt lat="44.42444" lon="4.49952">
        <ele>609.59997558594</ele>
        <time>2013-02-27T12:32:30.000Z</time>
      </trkpt>
      <trkpt lat="44.42444" lon="4.49952">
        <ele>610</ele>
        <time>2013-02-27T12:32:31.000Z</time>
      </trkpt>
      <trkpt lat="44.42444" lon="4.49952">
        <ele>610.59997558594</ele>
        <time>2013-02-27T12:32:32.000Z</time>
      </trkpt>
      <trkpt lat="44.42444" lon="4.49952">
        <ele>610.59997558594</ele>
        <time>2013-02-27T12:32:33.000Z</time>
      </trkpt>
      <trkpt lat="44.42444" lon="4.49952">
        <ele>611</ele>
        <time>2013-02-27T12:32:34.000Z</time>
      </trkpt>
      <trkpt lat="44.42443" lon="4.49952">
        <ele>611</ele>
        <time>2013-02-27T12:32:35.000Z</time>
      </trkpt>
      <trkpt lat="44.42443" lon="4.49952">
        <ele>611.59997558594</ele>
        <time>2013-02-27T12:32:36.000Z</time>
      </trkpt>
      <trkpt lat="44.42443" lon="4.49952">
        <ele>612.40002441406</ele>
        <time>2013-02-27T12:32:37.000Z</time>
      </trkpt>
      <trkpt lat="44.42444" lon="4.49952">
        <ele>613</ele>
        <time>2013-02-27T12:32:38.000Z</time>
      </trkpt>
      <trkpt lat="44.42445" lon="4.49953">
        <ele>613</ele>
        <time>2013-02-27T12:32:39.000Z</time>
      </trkpt>
      <trkpt lat="44.42446" lon="4.49954">
        <ele>613</ele>
        <time>2013-02-27T12:32:40.000Z</time>
      </trkpt>
      <trkpt lat="44.42447" lon="4.49955">
        <ele>613.40002441406</ele>
        <time>2013-02-27T12:32:41.000Z</time>
      </trkpt>
      <trkpt lat="44.42448" lon="4.49956">
        <ele>614</ele>
        <time>2013-02-27T12:32:42.000Z</time>
      </trkpt>
      <trkpt lat="44.42449" lon="4.49956">
        <ele>614</ele>
        <time>2013-02-27T12:32:43.000Z</time>
      </trkpt>
      <trkpt lat="44.4245" lon="4.49957">
        <ele>614.40002441406</ele>
        <time>2013-02-27T12:32:44.000Z</time>
      </trkpt>
      <trkpt lat="44.42451" lon="4.49957">
        <ele>614</ele>
        <time>2013-02-27T12:32:45.000Z</time>
      </trkpt>
      <trkpt lat="44.42451" lon="4.49957">
        <ele>614</ele>
        <time>2013-02-27T12:32:46.000Z</time>
      </trkpt>
      <trkpt lat="44.42452" lon="4.49957">
        <ele>614</ele>
        <time>2013-02-27T12:32:47.000Z</time>
      </trkpt>
      <trkpt lat="44.42452" lon="4.49957">
        <ele>614</ele>
        <time>2013-02-27T12:32:48.000Z</time>
      </trkpt>
      <trkpt lat="44.42452" lon="4.49956">
        <ele>614</ele>
        <time>2013-02-27T12:32:49.000Z</time>
      </trkpt>
      <trkpt lat="44.42451" lon="4.49956">
        <ele>613.40002441406</ele>
        <time>2013-02-27T12:32:50.000Z</time>
      </trkpt>
      <trkpt lat="44.42451" lon="4.49956">
        <ele>613.40002441406</ele>
        <time>2013-02-27T12:32:51.000Z</time>
      </trkpt>
      <trkpt lat="44.42451" lon="4.49956">
        <ele>613</ele>
        <time>2013-02-27T12:32:52.000Z</time>
      </trkpt>
      <trkpt lat="44.42451" lon="4.49956">
        <ele>613.40002441406</ele>
        <time>2013-02-27T12:32:53.000Z</time>
      </trkpt>
      <trkpt lat="44.42451" lon="4.49956">
        <ele>613.40002441406</ele>
        <time>2013-02-27T12:32:54.000Z</time>
      </trkpt>
      <trkpt lat="44.42451" lon="4.49956">
        <ele>613.40002441406</ele>
        <time>2013-02-27T12:32:55.000Z</time>
      </trkpt>
      <trkpt lat="44.42451" lon="4.49956">
        <ele>613</ele>
        <time>2013-02-27T12:32:56.000Z</time>
      </trkpt>
      <trkpt lat="44.42451" lon="4.49956">
        <ele>613</ele>
        <time>2013-02-27T12:32:57.000Z</time>
      </trkpt>
      <trkpt lat="44.42451" lon="4.49956">
        <ele>613</ele>
        <time>2013-02-27T12:32:58.000Z</time>
      </trkpt>
      <trkpt lat="44.42451" lon="4.49956">
        <ele>613</ele>
        <time>2013-02-27T12:32:59.000Z</time>
      </trkpt>
      <trkpt lat="44.42451" lon="4.49956">
        <ele>613.40002441406</ele>
        <time>2013-02-27T12:33:00.000Z</time>
      </trkpt>
      <trkpt lat="44.42451" lon="4.49956">
        <ele>613.40002441406</ele>
        <time>2013-02-27T12:33:01.000Z</time>
      </trkpt>
      <trkpt lat="44.42451" lon="4.49955">
        <ele>613.40002441406</ele>
        <time>2013-02-27T12:33:02.000Z</time>
      </trkpt>
      <trkpt lat="44.42451" lon="4.49956">
        <ele>613.40002441406</ele>
        <time>2013-02-27T12:33:03.000Z</time>
      </trkpt>
      <trkpt lat="44.42451" lon="4.49956">
        <ele>613.40002441406</ele>
        <time>2013-02-27T12:33:04.000Z</time>
      </trkpt>
      <trkpt lat="44.42451" lon="4.49956">
        <ele>613.40002441406</ele>
        <time>2013-02-27T12:33:05.000Z</time>
      </trkpt>
      <trkpt lat="44.42451" lon="4.49956">
        <ele>614</ele>
        <time>2013-02-27T12:33:06.000Z</time>
      </trkpt>
      <trkpt lat="44.42451" lon="4.49957">
        <ele>614</ele>
        <time>2013-02-27T12:33:07.000Z</time>
      </trkpt>
      <trkpt lat="44.42451" lon="4.49957">
        <ele>614</ele>
        <time>2013-02-27T12:33:08.000Z</time>
      </trkpt>
      <trkpt lat="44.4245" lon="4.49957">
        <ele>614</ele>
        <time>2013-02-27T12:33:09.000Z</time>
      </trkpt>
      <trkpt lat="44.4245" lon="4.49957">
        <ele>614.40002441406</ele>
        <time>2013-02-27T12:33:10.000Z</time>
      </trkpt>
      <trkpt lat="44.42449" lon="4.49957">
        <ele>614.40002441406</ele>
        <time>2013-02-27T12:33:11.000Z</time>
      </trkpt>
      <trkpt lat="44.42448" lon="4.49957">
        <ele>614.40002441406</ele>
        <time>2013-02-27T12:33:12.000Z</time>
      </trkpt>
      <trkpt lat="44.42448" lon="4.49956">
        <ele>614</ele>
        <time>2013-02-27T12:33:13.000Z</time>
      </trkpt>
      <trkpt lat="44.42447" lon="4.49957">
        <ele>613.40002441406</ele>
        <time>2013-02-27T12:33:14.000Z</time>
      </trkpt>
      <trkpt lat="44.42447" lon="4.49957">
        <ele>614</ele>
        <time>2013-02-27T12:33:15.000Z</time>
      </trkpt>
      <trkpt lat="44.42447" lon="4.49957">
        <ele>614</ele>
        <time>2013-02-27T12:33:16.000Z</time>
      </trkpt>
      <trkpt lat="44.42447" lon="4.49957">
        <ele>614</ele>
        <time>2013-02-27T12:33:17.000Z</time>
      </trkpt>
      <trkpt lat="44.42447" lon="4.49957">
        <ele>614</ele>
        <time>2013-02-27T12:33:18.000Z</time>
      </trkpt>
      <trkpt lat="44.42448" lon="4.49957">
        <ele>614</ele>
        <time>2013-02-27T12:33:19.000Z</time>
      </trkpt>
      <trkpt lat="44.42448" lon="4.49956">
        <ele>613.40002441406</ele>
        <time>2013-02-27T12:33:20.000Z</time>
      </trkpt>
      <trkpt lat="44.42449" lon="4.49955">
        <ele>614</ele>
        <time>2013-02-27T12:33:21.000Z</time>
      </trkpt>
      <trkpt lat="44.42451" lon="4.49955">
        <ele>613.40002441406</ele>
        <time>2013-02-27T12:33:22.000Z</time>
      </trkpt>
      <trkpt lat="44.42452" lon="4.49955">
        <ele>613.40002441406</ele>
        <time>2013-02-27T12:33:23.000Z</time>
      </trkpt>
      <trkpt lat="44.42453" lon="4.49955">
        <ele>613</ele>
        <time>2013-02-27T12:33:24.000Z</time>
      </trkpt>
      <trkpt lat="44.42454" lon="4.49955">
        <ele>613</ele>
        <time>2013-02-27T12:33:25.000Z</time>
      </trkpt>
      <trkpt lat="44.42455" lon="4.49955">
        <ele>613</ele>
        <time>2013-02-27T12:33:26.000Z</time>
      </trkpt>
      <trkpt lat="44.42455" lon="4.49955">
        <ele>613</ele>
        <time>2013-02-27T12:33:27.000Z</time>
      </trkpt>
      <trkpt lat="44.42455" lon="4.49955">
        <ele>613</ele>
        <time>2013-02-27T12:33:28.000Z</time>
      </trkpt>
      <trkpt lat="44.42455" lon="4.49956">
        <ele>613</ele>
        <time>2013-02-27T12:33:29.000Z</time>
      </trkpt>
      <trkpt lat="44.42455" lon="4.49956">
        <ele>613</ele>
        <time>2013-02-27T12:33:30.000Z</time>
      </trkpt>
      <trkpt lat="44.42455" lon="4.49956">
        <ele>613</ele>
        <time>2013-02-27T12:33:31.000Z</time>
      </trkpt>
      <trkpt lat="44.42454" lon="4.49956">
        <ele>613</ele>
        <time>2013-02-27T12:33:32.000Z</time>
      </trkpt>
      <trkpt lat="44.42454" lon="4.49956">
        <ele>613</ele>
        <time>2013-02-27T12:33:33.000Z</time>
      </trkpt>
      <trkpt lat="44.42454" lon="4.49956">
        <ele>612.40002441406</ele>
        <time>2013-02-27T12:33:34.000Z</time>
      </trkpt>
      <trkpt lat="44.42454" lon="4.49956">
        <ele>612.40002441406</ele>
        <time>2013-02-27T12:33:35.000Z</time>
      </trkpt>
      <trkpt lat="44.42454" lon="4.49956">
        <ele>612</ele>
        <time>2013-02-27T12:33:36.000Z</time>
      </trkpt>
      <trkpt lat="44.42454" lon="4.49956">
        <ele>612</ele>
        <time>2013-02-27T12:33:37.000Z</time>
      </trkpt>
      <trkpt lat="44.42453" lon="4.49956">
        <ele>612.40002441406</ele>
        <time>2013-02-27T12:33:38.000Z</time>
      </trkpt>
      <trkpt lat="44.42452" lon="4.49955">
        <ele>613</ele>
        <time>2013-02-27T12:33:39.000Z</time>
      </trkpt>
      <trkpt lat="44.42452" lon="4.49955">
        <ele>613</ele>
        <time>2013-02-27T12:33:40.000Z</time>
      </trkpt>
      <trkpt lat="44.42451" lon="4.49953">
        <ele>613.40002441406</ele>
        <time>2013-02-27T12:33:41.000Z</time>
      </trkpt>
      <trkpt lat="44.42451" lon="4.49952">
        <ele>613.40002441406</ele>
        <time>2013-02-27T12:33:42.000Z</time>
      </trkpt>
      <trkpt lat="44.42451" lon="4.4995">
        <ele>613.40002441406</ele>
        <time>2013-02-27T12:33:43.000Z</time>
      </trkpt>
      <trkpt lat="44.4245" lon="4.49949">
        <ele>613.40002441406</ele>
        <time>2013-02-27T12:33:44.000Z</time>
      </trkpt>
      <trkpt lat="44.4245" lon="4.49948">
        <ele>613.40002441406</ele>
        <time>2013-02-27T12:33:45.000Z</time>
      </trkpt>
      <trkpt lat="44.42451" lon="4.49946">
        <ele>613.40002441406</ele>
        <time>2013-02-27T12:33:46.000Z</time>
      </trkpt>
      <trkpt lat="44.42451" lon="4.49945">
        <ele>613.40002441406</ele>
        <time>2013-02-27T12:33:47.000Z</time>
      </trkpt>
      <trkpt lat="44.42451" lon="4.49944">
        <ele>614</ele>
        <time>2013-02-27T12:33:48.000Z</time>
      </trkpt>
      <trkpt lat="44.42452" lon="4.49943">
        <ele>614</ele>
        <time>2013-02-27T12:33:49.000Z</time>
      </trkpt>
      <trkpt lat="44.42453" lon="4.49943">
        <ele>614</ele>
        <time>2013-02-27T12:33:50.000Z</time>
      </trkpt>
      <trkpt lat="44.42454" lon="4.49943">
        <ele>614</ele>
        <time>2013-02-27T12:33:51.000Z</time>
      </trkpt>
      <trkpt lat="44.42455" lon="4.49943">
        <ele>614</ele>
        <time>2013-02-27T12:33:52.000Z</time>
      </trkpt>
      <trkpt lat="44.42456" lon="4.49943">
        <ele>614.40002441406</ele>
        <time>2013-02-27T12:33:53.000Z</time>
      </trkpt>
      <trkpt lat="44.42457" lon="4.49944">
        <ele>614.40002441406</ele>
        <time>2013-02-27T12:33:54.000Z</time>
      </trkpt>
      <trkpt lat="44.42458" lon="4.49944">
        <ele>614.40002441406</ele>
        <time>2013-02-27T12:33:55.000Z</time>
      </trkpt>
      <trkpt lat="44.42458" lon="4.49944">
        <ele>614.40002441406</ele>
        <time>2013-02-27T12:33:56.000Z</time>
      </trkpt>
      <trkpt lat="44.42459" lon="4.49943">
        <ele>614</ele>
        <time>2013-02-27T12:33:57.000Z</time>
      </trkpt>
      <trkpt lat="44.4246" lon="4.49944">
        <ele>614.40002441406</ele>
        <time>2013-02-27T12:33:58.000Z</time>
      </trkpt>
      <trkpt lat="44.42462" lon="4.49944">
        <ele>614.40002441406</ele>
        <time>2013-02-27T12:33:59.000Z</time>
      </trkpt>
      <trkpt lat="44.42463" lon="4.49944">
        <ele>614.40002441406</ele>
        <time>2013-02-27T12:34:00.000Z</time>
      </trkpt>
      <trkpt lat="44.42464" lon="4.49944">
        <ele>614.40002441406</ele>
        <time>2013-02-27T12:34:01.000Z</time>
      </trkpt>
      <trkpt lat="44.42465" lon="4.49944">
        <ele>614</ele>
        <time>2013-02-27T12:34:02.000Z</time>
      </trkpt>
      <trkpt lat="44.42466" lon="4.49944">
        <ele>614</ele>
        <time>2013-02-27T12:34:03.000Z</time>
      </trkpt>
      <trkpt lat="44.42467" lon="4.49944">
        <ele>614</ele>
        <time>2013-02-27T12:34:04.000Z</time>
      </trkpt>
      <trkpt lat="44.42468" lon="4.49943">
        <ele>613.40002441406</ele>
        <time>2013-02-27T12:34:05.000Z</time>
      </trkpt>
      <trkpt lat="44.42469" lon="4.49942">
        <ele>613.40002441406</ele>
        <time>2013-02-27T12:34:06.000Z</time>
      </trkpt>
      <trkpt lat="44.4247" lon="4.49942">
        <ele>613</ele>
        <time>2013-02-27T12:34:07.000Z</time>
      </trkpt>
      <trkpt lat="44.42471" lon="4.49941">
        <ele>612.40002441406</ele>
        <time>2013-02-27T12:34:08.000Z</time>
      </trkpt>
      <trkpt lat="44.42472" lon="4.49941">
        <ele>612.40002441406</ele>
        <time>2013-02-27T12:34:09.000Z</time>
      </trkpt>
      <trkpt lat="44.42473" lon="4.49941">
        <ele>612</ele>
        <time>2013-02-27T12:34:10.000Z</time>
      </trkpt>
      <trkpt lat="44.42474" lon="4.4994">
        <ele>611</ele>
        <time>2013-02-27T12:34:11.000Z</time>
      </trkpt>
      <trkpt lat="44.42475" lon="4.49939">
        <ele>610.59997558594</ele>
        <time>2013-02-27T12:34:12.000Z</time>
      </trkpt>
      <trkpt lat="44.42477" lon="4.49939">
        <ele>610.59997558594</ele>
        <time>2013-02-27T12:34:13.000Z</time>
      </trkpt>
      <trkpt lat="44.42478" lon="4.49939">
        <ele>610.59997558594</ele>
        <time>2013-02-27T12:34:14.000Z</time>
      </trkpt>
      <trkpt lat="44.42478" lon="4.49938">
        <ele>610.59997558594</ele>
        <time>2013-02-27T12:34:15.000Z</time>
      </trkpt>
      <trkpt lat="44.42478" lon="4.49938">
        <ele>610</ele>
        <time>2013-02-27T12:34:16.000Z</time>
      </trkpt>
      <trkpt lat="44.42479" lon="4.49937">
        <ele>610</ele>
        <time>2013-02-27T12:34:17.000Z</time>
      </trkpt>
      <trkpt lat="44.4248" lon="4.49936">
        <ele>609.59997558594</ele>
        <time>2013-02-27T12:34:18.000Z</time>
      </trkpt>
      <trkpt lat="44.42482" lon="4.49936">
        <ele>609.20001220703</ele>
        <time>2013-02-27T12:34:19.000Z</time>
      </trkpt>
      <trkpt lat="44.42483" lon="4.49936">
        <ele>609.20001220703</ele>
        <time>2013-02-27T12:34:20.000Z</time>
      </trkpt>
      <trkpt lat="44.42485" lon="4.49937">
        <ele>609.20001220703</ele>
        <time>2013-02-27T12:34:21.000Z</time>
      </trkpt>
      <trkpt lat="44.42486" lon="4.49937">
        <ele>608.59997558594</ele>
        <time>2013-02-27T12:34:22.000Z</time>
      </trkpt>
      <trkpt lat="44.42487" lon="4.49937">
        <ele>608.59997558594</ele>
        <time>2013-02-27T12:34:23.000Z</time>
      </trkpt>
      <trkpt lat="44.42488" lon="4.49937">
        <ele>608.20001220703</ele>
        <time>2013-02-27T12:34:24.000Z</time>
      </trkpt>
      <trkpt lat="44.42489" lon="4.49937">
        <ele>608.20001220703</ele>
        <time>2013-02-27T12:34:25.000Z</time>
      </trkpt>
      <trkpt lat="44.4249" lon="4.49937">
        <ele>608.20001220703</ele>
        <time>2013-02-27T12:34:26.000Z</time>
      </trkpt>
      <trkpt lat="44.42491" lon="4.49937">
        <ele>608.20001220703</ele>
        <time>2013-02-27T12:34:27.000Z</time>
      </trkpt>
      <trkpt lat="44.42493" lon="4.49936">
        <ele>608.59997558594</ele>
        <time>2013-02-27T12:34:28.000Z</time>
      </trkpt>
      <trkpt lat="44.42494" lon="4.49935">
        <ele>608.59997558594</ele>
        <time>2013-02-27T12:34:29.000Z</time>
      </trkpt>
      <trkpt lat="44.42495" lon="4.49933">
        <ele>608.59997558594</ele>
        <time>2013-02-27T12:34:30.000Z</time>
      </trkpt>
      <trkpt lat="44.42496" lon="4.49932">
        <ele>609.20001220703</ele>
        <time>2013-02-27T12:34:31.000Z</time>
      </trkpt>
      <trkpt lat="44.42496" lon="4.4993">
        <ele>609.20001220703</ele>
        <time>2013-02-27T12:34:32.000Z</time>
      </trkpt>
      <trkpt lat="44.42497" lon="4.49929">
        <ele>608.59997558594</ele>
        <time>2013-02-27T12:34:33.000Z</time>
      </trkpt>
      <trkpt lat="44.42498" lon="4.49928">
        <ele>609.20001220703</ele>
        <time>2013-02-27T12:34:34.000Z</time>
      </trkpt>
      <trkpt lat="44.42498" lon="4.49927">
        <ele>609.20001220703</ele>
        <time>2013-02-27T12:34:35.000Z</time>
      </trkpt>
      <trkpt lat="44.42499" lon="4.49926">
        <ele>609.20001220703</ele>
        <time>2013-02-27T12:34:36.000Z</time>
      </trkpt>
      <trkpt lat="44.42501" lon="4.49925">
        <ele>609.20001220703</ele>
        <time>2013-02-27T12:34:37.000Z</time>
      </trkpt>
      <trkpt lat="44.42502" lon="4.49925">
        <ele>609.59997558594</ele>
        <time>2013-02-27T12:34:38.000Z</time>
      </trkpt>
      <trkpt lat="44.42504" lon="4.49926">
        <ele>609.59997558594</ele>
        <time>2013-02-27T12:34:39.000Z</time>
      </trkpt>
      <trkpt lat="44.42505" lon="4.49926">
        <ele>609.59997558594</ele>
        <time>2013-02-27T12:34:40.000Z</time>
      </trkpt>
      <trkpt lat="44.42506" lon="4.49926">
        <ele>609.20001220703</ele>
        <time>2013-02-27T12:34:41.000Z</time>
      </trkpt>
      <trkpt lat="44.42507" lon="4.49926">
        <ele>609.20001220703</ele>
        <time>2013-02-27T12:34:42.000Z</time>
      </trkpt>
      <trkpt lat="44.42509" lon="4.49925">
        <ele>609.20001220703</ele>
        <time>2013-02-27T12:34:43.000Z</time>
      </trkpt>
      <trkpt lat="44.4251" lon="4.49926">
        <ele>609.20001220703</ele>
        <time>2013-02-27T12:34:44.000Z</time>
      </trkpt>
      <trkpt lat="44.42511" lon="4.49925">
        <ele>609.59997558594</ele>
        <time>2013-02-27T12:34:45.000Z</time>
      </trkpt>
      <trkpt lat="44.42512" lon="4.49925">
        <ele>609.59997558594</ele>
        <time>2013-02-27T12:34:46.000Z</time>
      </trkpt>
      <trkpt lat="44.42513" lon="4.49925">
        <ele>609.59997558594</ele>
        <time>2013-02-27T12:34:47.000Z</time>
      </trkpt>
      <trkpt lat="44.42514" lon="4.49925">
        <ele>609.20001220703</ele>
        <time>2013-02-27T12:34:48.000Z</time>
      </trkpt>
      <trkpt lat="44.42515" lon="4.49925">
        <ele>609.20001220703</ele>
        <time>2013-02-27T12:34:49.000Z</time>
      </trkpt>
      <trkpt lat="44.42517" lon="4.49925">
        <ele>609.20001220703</ele>
        <time>2013-02-27T12:34:50.000Z</time>
      </trkpt>
      <trkpt lat="44.42518" lon="4.49924">
        <ele>609.20001220703</ele>
        <time>2013-02-27T12:34:51.000Z</time>
      </trkpt>
      <trkpt lat="44.42518" lon="4.49923">
        <ele>609.20001220703</ele>
        <time>2013-02-27T12:34:52.000Z</time>
      </trkpt>
      <trkpt lat="44.42519" lon="4.49922">
        <ele>609.20001220703</ele>
        <time>2013-02-27T12:34:53.000Z</time>
      </trkpt>
      <trkpt lat="44.4252" lon="4.49922">
        <ele>609.20001220703</ele>
        <time>2013-02-27T12:34:54.000Z</time>
      </trkpt>
      <trkpt lat="44.42521" lon="4.49921">
        <ele>609.20001220703</ele>
        <time>2013-02-27T12:34:55.000Z</time>
      </trkpt>
      <trkpt lat="44.42522" lon="4.49921">
        <ele>609.59997558594</ele>
        <time>2013-02-27T12:34:56.000Z</time>
      </trkpt>
      <trkpt lat="44.42523" lon="4.4992">
        <ele>609.59997558594</ele>
        <time>2013-02-27T12:34:57.000Z</time>
      </trkpt>
      <trkpt lat="44.42525" lon="4.4992">
        <ele>610</ele>
        <time>2013-02-27T12:34:58.000Z</time>
      </trkpt>
      <trkpt lat="44.42525" lon="4.4992">
        <ele>610</ele>
        <time>2013-02-27T12:34:59.000Z</time>
      </trkpt>
      <trkpt lat="44.42526" lon="4.4992">
        <ele>610</ele>
        <time>2013-02-27T12:35:00.000Z</time>
      </trkpt>
      <trkpt lat="44.42527" lon="4.4992">
        <ele>610.59997558594</ele>
        <time>2013-02-27T12:35:01.000Z</time>
      </trkpt>
      <trkpt lat="44.42528" lon="4.49919">
        <ele>610.59997558594</ele>
        <time>2013-02-27T12:35:02.000Z</time>
      </trkpt>
      <trkpt lat="44.42529" lon="4.49919">
        <ele>611</ele>
        <time>2013-02-27T12:35:03.000Z</time>
      </trkpt>
      <trkpt lat="44.4253" lon="4.49919">
        <ele>611</ele>
        <time>2013-02-27T12:35:04.000Z</time>
      </trkpt>
      <trkpt lat="44.4253" lon="4.4992">
        <ele>611</ele>
        <time>2013-02-27T12:35:05.000Z</time>
      </trkpt>
      <trkpt lat="44.42531" lon="4.4992">
        <ele>610.59997558594</ele>
        <time>2013-02-27T12:35:06.000Z</time>
      </trkpt>
      <trkpt lat="44.42531" lon="4.4992">
        <ele>610</ele>
        <time>2013-02-27T12:35:07.000Z</time>
      </trkpt>
      <trkpt lat="44.42532" lon="4.4992">
        <ele>610</ele>
        <time>2013-02-27T12:35:08.000Z</time>
      </trkpt>
      <trkpt lat="44.42532" lon="4.49919">
        <ele>610.59997558594</ele>
        <time>2013-02-27T12:35:09.000Z</time>
      </trkpt>
      <trkpt lat="44.42533" lon="4.49919">
        <ele>611.59997558594</ele>
        <time>2013-02-27T12:35:10.000Z</time>
      </trkpt>
      <trkpt lat="44.42534" lon="4.49919">
        <ele>611.59997558594</ele>
        <time>2013-02-27T12:35:11.000Z</time>
      </trkpt>
      <trkpt lat="44.42535" lon="4.49918">
        <ele>611.59997558594</ele>
        <time>2013-02-27T12:35:12.000Z</time>
      </trkpt>
      <trkpt lat="44.42535" lon="4.49918">
        <ele>612</ele>
        <time>2013-02-27T12:35:13.000Z</time>
      </trkpt>
      <trkpt lat="44.42536" lon="4.49917">
        <ele>613</ele>
        <time>2013-02-27T12:35:14.000Z</time>
      </trkpt>
      <trkpt lat="44.42537" lon="4.49917">
        <ele>613.40002441406</ele>
        <time>2013-02-27T12:35:15.000Z</time>
      </trkpt>
      <trkpt lat="44.42538" lon="4.49917">
        <ele>614</ele>
        <time>2013-02-27T12:35:16.000Z</time>
      </trkpt>
      <trkpt lat="44.42539" lon="4.49917">
        <ele>614.40002441406</ele>
        <time>2013-02-27T12:35:17.000Z</time>
      </trkpt>
      <trkpt lat="44.42539" lon="4.49917">
        <ele>614.40002441406</ele>
        <time>2013-02-27T12:35:18.000Z</time>
      </trkpt>
      <trkpt lat="44.4254" lon="4.49917">
        <ele>615</ele>
        <time>2013-02-27T12:35:19.000Z</time>
      </trkpt>
      <trkpt lat="44.42541" lon="4.49918">
        <ele>615</ele>
        <time>2013-02-27T12:35:20.000Z</time>
      </trkpt>
      <trkpt lat="44.42542" lon="4.49918">
        <ele>615</ele>
        <time>2013-02-27T12:35:21.000Z</time>
      </trkpt>
      <trkpt lat="44.42543" lon="4.49919">
        <ele>615</ele>
        <time>2013-02-27T12:35:22.000Z</time>
      </trkpt>
      <trkpt lat="44.42544" lon="4.49919">
        <ele>614.40002441406</ele>
        <time>2013-02-27T12:35:23.000Z</time>
      </trkpt>
      <trkpt lat="44.42545" lon="4.4992">
        <ele>615</ele>
        <time>2013-02-27T12:35:24.000Z</time>
      </trkpt>
      <trkpt lat="44.42545" lon="4.49921">
        <ele>615.40002441406</ele>
        <time>2013-02-27T12:35:25.000Z</time>
      </trkpt>
      <trkpt lat="44.42546" lon="4.49921">
        <ele>615.40002441406</ele>
        <time>2013-02-27T12:35:26.000Z</time>
      </trkpt>
      <trkpt lat="44.42546" lon="4.49922">
        <ele>615.40002441406</ele>
        <time>2013-02-27T12:35:27.000Z</time>
      </trkpt>
      <trkpt lat="44.42547" lon="4.49923">
        <ele>615.79998779297</ele>
        <time>2013-02-27T12:35:28.000Z</time>
      </trkpt>
      <trkpt lat="44.42548" lon="4.49924">
        <ele>616.40002441406</ele>
        <time>2013-02-27T12:35:29.000Z</time>
      </trkpt>
      <trkpt lat="44.42549" lon="4.49924">
        <ele>616.79998779297</ele>
        <time>2013-02-27T12:35:30.000Z</time>
      </trkpt>
      <trkpt lat="44.4255" lon="4.49924">
        <ele>616.79998779297</ele>
        <time>2013-02-27T12:35:31.000Z</time>
      </trkpt>
      <trkpt lat="44.42551" lon="4.49925">
        <ele>616.79998779297</ele>
        <time>2013-02-27T12:35:32.000Z</time>
      </trkpt>
      <trkpt lat="44.42553" lon="4.49926">
        <ele>616.79998779297</ele>
        <time>2013-02-27T12:35:33.000Z</time>
      </trkpt>
      <trkpt lat="44.42553" lon="4.49926">
        <ele>617.40002441406</ele>
        <time>2013-02-27T12:35:34.000Z</time>
      </trkpt>
      <trkpt lat="44.42554" lon="4.49926">
        <ele>618.20001220703</ele>
        <time>2013-02-27T12:35:35.000Z</time>
      </trkpt>
      <trkpt lat="44.42555" lon="4.49927">
        <ele>618.79998779297</ele>
        <time>2013-02-27T12:35:36.000Z</time>
      </trkpt>
      <trkpt lat="44.42556" lon="4.49927">
        <ele>618.79998779297</ele>
        <time>2013-02-27T12:35:37.000Z</time>
      </trkpt>
      <trkpt lat="44.42557" lon="4.49927">
        <ele>619.20001220703</ele>
        <time>2013-02-27T12:35:38.000Z</time>
      </trkpt>
      <trkpt lat="44.42558" lon="4.49928">
        <ele>619.20001220703</ele>
        <time>2013-02-27T12:35:39.000Z</time>
      </trkpt>
      <trkpt lat="44.42559" lon="4.49928">
        <ele>619.20001220703</ele>
        <time>2013-02-27T12:35:40.000Z</time>
      </trkpt>
      <trkpt lat="44.4256" lon="4.49929">
        <ele>619.79998779297</ele>
        <time>2013-02-27T12:35:41.000Z</time>
      </trkpt>
      <trkpt lat="44.4256" lon="4.49929">
        <ele>620.59997558594</ele>
        <time>2013-02-27T12:35:42.000Z</time>
      </trkpt>
      <trkpt lat="44.42561" lon="4.49931">
        <ele>622.20001220703</ele>
        <time>2013-02-27T12:35:43.000Z</time>
      </trkpt>
      <trkpt lat="44.42562" lon="4.49931">
        <ele>622.59997558594</ele>
        <time>2013-02-27T12:35:44.000Z</time>
      </trkpt>
      <trkpt lat="44.42562" lon="4.4993">
        <ele>623</ele>
        <time>2013-02-27T12:35:45.000Z</time>
      </trkpt>
      <trkpt lat="44.42562" lon="4.49929">
        <ele>622.20001220703</ele>
        <time>2013-02-27T12:35:46.000Z</time>
      </trkpt>
      <trkpt lat="44.42562" lon="4.49928">
        <ele>621.59997558594</ele>
        <time>2013-02-27T12:35:47.000Z</time>
      </trkpt>
      <trkpt lat="44.42563" lon="4.49928">
        <ele>621.59997558594</ele>
        <time>2013-02-27T12:35:48.000Z</time>
      </trkpt>
      <trkpt lat="44.42563" lon="4.49927">
        <ele>621.59997558594</ele>
        <time>2013-02-27T12:35:49.000Z</time>
      </trkpt>
      <trkpt lat="44.42564" lon="4.49927">
        <ele>621.59997558594</ele>
        <time>2013-02-27T12:35:50.000Z</time>
      </trkpt>
      <trkpt lat="44.42565" lon="4.49927">
        <ele>622.59997558594</ele>
        <time>2013-02-27T12:35:51.000Z</time>
      </trkpt>
      <trkpt lat="44.42565" lon="4.49926">
        <ele>622.59997558594</ele>
        <time>2013-02-27T12:35:52.000Z</time>
      </trkpt>
      <trkpt lat="44.42566" lon="4.49925">
        <ele>623</ele>
        <time>2013-02-27T12:35:53.000Z</time>
      </trkpt>
      <trkpt lat="44.42567" lon="4.49925">
        <ele>622.59997558594</ele>
        <time>2013-02-27T12:35:54.000Z</time>
      </trkpt>
      <trkpt lat="44.42568" lon="4.49925">
        <ele>622.59997558594</ele>
        <time>2013-02-27T12:35:55.000Z</time>
      </trkpt>
      <trkpt lat="44.42569" lon="4.49925">
        <ele>622.59997558594</ele>
        <time>2013-02-27T12:35:56.000Z</time>
      </trkpt>
      <trkpt lat="44.4257" lon="4.49925">
        <ele>622.59997558594</ele>
        <time>2013-02-27T12:35:57.000Z</time>
      </trkpt>
      <trkpt lat="44.4257" lon="4.49924">
        <ele>623.59997558594</ele>
        <time>2013-02-27T12:35:58.000Z</time>
      </trkpt>
      <trkpt lat="44.4257" lon="4.49924">
        <ele>623.59997558594</ele>
        <time>2013-02-27T12:35:59.000Z</time>
      </trkpt>
      <trkpt lat="44.4257" lon="4.49923">
        <ele>623.59997558594</ele>
        <time>2013-02-27T12:36:00.000Z</time>
      </trkpt>
      <trkpt lat="44.4257" lon="4.49922">
        <ele>623.59997558594</ele>
        <time>2013-02-27T12:36:01.000Z</time>
      </trkpt>
      <trkpt lat="44.42571" lon="4.4992">
        <ele>623.59997558594</ele>
        <time>2013-02-27T12:36:02.000Z</time>
      </trkpt>
      <trkpt lat="44.42572" lon="4.49921">
        <ele>623.59997558594</ele>
        <time>2013-02-27T12:36:03.000Z</time>
      </trkpt>
      <trkpt lat="44.42573" lon="4.49921">
        <ele>623.59997558594</ele>
        <time>2013-02-27T12:36:04.000Z</time>
      </trkpt>
      <trkpt lat="44.42574" lon="4.49922">
        <ele>623.59997558594</ele>
        <time>2013-02-27T12:36:05.000Z</time>
      </trkpt>
      <trkpt lat="44.42574" lon="4.49922">
        <ele>624</ele>
        <time>2013-02-27T12:36:06.000Z</time>
      </trkpt>
      <trkpt lat="44.42575" lon="4.49922">
        <ele>624.59997558594</ele>
        <time>2013-02-27T12:36:07.000Z</time>
      </trkpt>
      <trkpt lat="44.42576" lon="4.49922">
        <ele>625</ele>
        <time>2013-02-27T12:36:08.000Z</time>
      </trkpt>
      <trkpt lat="44.42576" lon="4.49922">
        <ele>625.40002441406</ele>
        <time>2013-02-27T12:36:09.000Z</time>
      </trkpt>
      <trkpt lat="44.42577" lon="4.49923">
        <ele>625.40002441406</ele>
        <time>2013-02-27T12:36:10.000Z</time>
      </trkpt>
      <trkpt lat="44.42577" lon="4.49922">
        <ele>626</ele>
        <time>2013-02-27T12:36:11.000Z</time>
      </trkpt>
      <trkpt lat="44.42578" lon="4.49922">
        <ele>627</ele>
        <time>2013-02-27T12:36:12.000Z</time>
      </trkpt>
      <trkpt lat="44.42578" lon="4.49922">
        <ele>627</ele>
        <time>2013-02-27T12:36:13.000Z</time>
      </trkpt>
      <trkpt lat="44.42579" lon="4.49922">
        <ele>627</ele>
        <time>2013-02-27T12:36:14.000Z</time>
      </trkpt>
      <trkpt lat="44.4258" lon="4.49922">
        <ele>627.40002441406</ele>
        <time>2013-02-27T12:36:15.000Z</time>
      </trkpt>
      <trkpt lat="44.42581" lon="4.49922">
        <ele>627.79998779297</ele>
        <time>2013-02-27T12:36:16.000Z</time>
      </trkpt>
      <trkpt lat="44.42582" lon="4.49922">
        <ele>628.40002441406</ele>
        <time>2013-02-27T12:36:17.000Z</time>
      </trkpt>
      <trkpt lat="44.42583" lon="4.49922">
        <ele>629.40002441406</ele>
        <time>2013-02-27T12:36:18.000Z</time>
      </trkpt>
      <trkpt lat="44.42584" lon="4.49923">
        <ele>629.79998779297</ele>
        <time>2013-02-27T12:36:19.000Z</time>
      </trkpt>
      <trkpt lat="44.42584" lon="4.49923">
        <ele>629.79998779297</ele>
        <time>2013-02-27T12:36:20.000Z</time>
      </trkpt>
      <trkpt lat="44.42585" lon="4.49924">
        <ele>630.20001220703</ele>
        <time>2013-02-27T12:36:21.000Z</time>
      </trkpt>
      <trkpt lat="44.42586" lon="4.49924">
        <ele>630.79998779297</ele>
        <time>2013-02-27T12:36:22.000Z</time>
      </trkpt>
      <trkpt lat="44.42588" lon="4.49925">
        <ele>631.20001220703</ele>
        <time>2013-02-27T12:36:23.000Z</time>
      </trkpt>
      <trkpt lat="44.42588" lon="4.49925">
        <ele>631.20001220703</ele>
        <time>2013-02-27T12:36:24.000Z</time>
      </trkpt>
      <trkpt lat="44.42589" lon="4.49926">
        <ele>631.79998779297</ele>
        <time>2013-02-27T12:36:25.000Z</time>
      </trkpt>
      <trkpt lat="44.4259" lon="4.49926">
        <ele>631.79998779297</ele>
        <time>2013-02-27T12:36:26.000Z</time>
      </trkpt>
      <trkpt lat="44.42591" lon="4.49925">
        <ele>631.79998779297</ele>
        <time>2013-02-27T12:36:27.000Z</time>
      </trkpt>
      <trkpt lat="44.42592" lon="4.49925">
        <ele>631.79998779297</ele>
        <time>2013-02-27T12:36:28.000Z</time>
      </trkpt>
      <trkpt lat="44.42592" lon="4.49925">
        <ele>631.79998779297</ele>
        <time>2013-02-27T12:36:29.000Z</time>
      </trkpt>
      <trkpt lat="44.42593" lon="4.49925">
        <ele>631.79998779297</ele>
        <time>2013-02-27T12:36:30.000Z</time>
      </trkpt>
      <trkpt lat="44.42593" lon="4.49925">
        <ele>631.79998779297</ele>
        <time>2013-02-27T12:36:31.000Z</time>
      </trkpt>
      <trkpt lat="44.42594" lon="4.49925">
        <ele>632.59997558594</ele>
        <time>2013-02-27T12:36:32.000Z</time>
      </trkpt>
      <trkpt lat="44.42595" lon="4.49924">
        <ele>633.20001220703</ele>
        <time>2013-02-27T12:36:33.000Z</time>
      </trkpt>
      <trkpt lat="44.42596" lon="4.49924">
        <ele>632.59997558594</ele>
        <time>2013-02-27T12:36:34.000Z</time>
      </trkpt>
      <trkpt lat="44.42596" lon="4.49924">
        <ele>632.59997558594</ele>
        <time>2013-02-27T12:36:35.000Z</time>
      </trkpt>
      <trkpt lat="44.42597" lon="4.49924">
        <ele>632.59997558594</ele>
        <time>2013-02-27T12:36:36.000Z</time>
      </trkpt>
      <trkpt lat="44.42598" lon="4.49924">
        <ele>632.59997558594</ele>
        <time>2013-02-27T12:36:37.000Z</time>
      </trkpt>
      <trkpt lat="44.42599" lon="4.49925">
        <ele>633.20001220703</ele>
        <time>2013-02-27T12:36:38.000Z</time>
      </trkpt>
      <trkpt lat="44.42599" lon="4.49926">
        <ele>633.59997558594</ele>
        <time>2013-02-27T12:36:39.000Z</time>
      </trkpt>
      <trkpt lat="44.42599" lon="4.49926">
        <ele>634.59997558594</ele>
        <time>2013-02-27T12:36:40.000Z</time>
      </trkpt>
      <trkpt lat="44.42599" lon="4.49926">
        <ele>634.59997558594</ele>
        <time>2013-02-27T12:36:41.000Z</time>
      </trkpt>
      <trkpt lat="44.42599" lon="4.49926">
        <ele>635</ele>
        <time>2013-02-27T12:36:42.000Z</time>
      </trkpt>
      <trkpt lat="44.426" lon="4.49926">
        <ele>635</ele>
        <time>2013-02-27T12:36:43.000Z</time>
      </trkpt>
      <trkpt lat="44.426" lon="4.49926">
        <ele>636</ele>
        <time>2013-02-27T12:36:44.000Z</time>
      </trkpt>
      <trkpt lat="44.426" lon="4.49925">
        <ele>636</ele>
        <time>2013-02-27T12:36:45.000Z</time>
      </trkpt>
      <trkpt lat="44.42601" lon="4.49925">
        <ele>636</ele>
        <time>2013-02-27T12:36:46.000Z</time>
      </trkpt>
      <trkpt lat="44.42601" lon="4.49925">
        <ele>636</ele>
        <time>2013-02-27T12:36:47.000Z</time>
      </trkpt>
      <trkpt lat="44.42601" lon="4.49924">
        <ele>636</ele>
        <time>2013-02-27T12:36:48.000Z</time>
      </trkpt>
      <trkpt lat="44.42601" lon="4.49924">
        <ele>636</ele>
        <time>2013-02-27T12:36:49.000Z</time>
      </trkpt>
      <trkpt lat="44.42601" lon="4.49924">
        <ele>635.59997558594</ele>
        <time>2013-02-27T12:36:50.000Z</time>
      </trkpt>
      <trkpt lat="44.42601" lon="4.49924">
        <ele>635.59997558594</ele>
        <time>2013-02-27T12:36:51.000Z</time>
      </trkpt>
      <trkpt lat="44.42601" lon="4.49924">
        <ele>635.59997558594</ele>
        <time>2013-02-27T12:36:52.000Z</time>
      </trkpt>
      <trkpt lat="44.42603" lon="4.49923">
        <ele>637</ele>
        <time>2013-02-27T12:36:53.000Z</time>
      </trkpt>
      <trkpt lat="44.42604" lon="4.49923">
        <ele>637.40002441406</ele>
        <time>2013-02-27T12:36:54.000Z</time>
      </trkpt>
      <trkpt lat="44.42604" lon="4.49924">
        <ele>637</ele>
        <time>2013-02-27T12:36:55.000Z</time>
      </trkpt>
      <trkpt lat="44.42605" lon="4.49924">
        <ele>637</ele>
        <time>2013-02-27T12:36:56.000Z</time>
      </trkpt>
      <trkpt lat="44.42606" lon="4.49924">
        <ele>637.40002441406</ele>
        <time>2013-02-27T12:36:57.000Z</time>
      </trkpt>
      <trkpt lat="44.42607" lon="4.49924">
        <ele>638</ele>
        <time>2013-02-27T12:36:58.000Z</time>
      </trkpt>
      <trkpt lat="44.42608" lon="4.49924">
        <ele>638</ele>
        <time>2013-02-27T12:36:59.000Z</time>
      </trkpt>
      <trkpt lat="44.42609" lon="4.49924">
        <ele>638</ele>
        <time>2013-02-27T12:37:00.000Z</time>
      </trkpt>
      <trkpt lat="44.42609" lon="4.49924">
        <ele>638</ele>
        <time>2013-02-27T12:37:01.000Z</time>
      </trkpt>
      <trkpt lat="44.4261" lon="4.49923">
        <ele>638</ele>
        <time>2013-02-27T12:37:02.000Z</time>
      </trkpt>
      <trkpt lat="44.42611" lon="4.49923">
        <ele>638</ele>
        <time>2013-02-27T12:37:03.000Z</time>
      </trkpt>
      <trkpt lat="44.42611" lon="4.49923">
        <ele>638</ele>
        <time>2013-02-27T12:37:04.000Z</time>
      </trkpt>
      <trkpt lat="44.42611" lon="4.49924">
        <ele>638</ele>
        <time>2013-02-27T12:37:05.000Z</time>
      </trkpt>
      <trkpt lat="44.42612" lon="4.49924">
        <ele>638</ele>
        <time>2013-02-27T12:37:06.000Z</time>
      </trkpt>
      <trkpt lat="44.42612" lon="4.49924">
        <ele>637.40002441406</ele>
        <time>2013-02-27T12:37:07.000Z</time>
      </trkpt>
      <trkpt lat="44.42612" lon="4.49924">
        <ele>637</ele>
        <time>2013-02-27T12:37:08.000Z</time>
      </trkpt>
      <trkpt lat="44.42613" lon="4.49924">
        <ele>637</ele>
        <time>2013-02-27T12:37:09.000Z</time>
      </trkpt>
      <trkpt lat="44.42613" lon="4.49924">
        <ele>637</ele>
        <time>2013-02-27T12:37:10.000Z</time>
      </trkpt>
      <trkpt lat="44.42614" lon="4.49924">
        <ele>637</ele>
        <time>2013-02-27T12:37:11.000Z</time>
      </trkpt>
      <trkpt lat="44.42615" lon="4.49925">
        <ele>637</ele>
        <time>2013-02-27T12:37:12.000Z</time>
      </trkpt>
      <trkpt lat="44.42616" lon="4.49925">
        <ele>637</ele>
        <time>2013-02-27T12:37:13.000Z</time>
      </trkpt>
      <trkpt lat="44.42617" lon="4.49925">
        <ele>637.40002441406</ele>
        <time>2013-02-27T12:37:14.000Z</time>
      </trkpt>
      <trkpt lat="44.42616" lon="4.49925">
        <ele>637</ele>
        <time>2013-02-27T12:37:15.000Z</time>
      </trkpt>
      <trkpt lat="44.42617" lon="4.49925">
        <ele>637.40002441406</ele>
        <time>2013-02-27T12:37:16.000Z</time>
      </trkpt>
      <trkpt lat="44.42617" lon="4.49925">
        <ele>637</ele>
        <time>2013-02-27T12:37:17.000Z</time>
      </trkpt>
      <trkpt lat="44.42618" lon="4.49925">
        <ele>637.40002441406</ele>
        <time>2013-02-27T12:37:18.000Z</time>
      </trkpt>
      <trkpt lat="44.42619" lon="4.49925">
        <ele>638</ele>
        <time>2013-02-27T12:37:19.000Z</time>
      </trkpt>
      <trkpt lat="44.4262" lon="4.49925">
        <ele>638.40002441406</ele>
        <time>2013-02-27T12:37:20.000Z</time>
      </trkpt>
      <trkpt lat="44.42621" lon="4.49925">
        <ele>638.40002441406</ele>
        <time>2013-02-27T12:37:21.000Z</time>
      </trkpt>
      <trkpt lat="44.42622" lon="4.49925">
        <ele>639</ele>
        <time>2013-02-27T12:37:22.000Z</time>
      </trkpt>
      <trkpt lat="44.42623" lon="4.49925">
        <ele>639</ele>
        <time>2013-02-27T12:37:23.000Z</time>
      </trkpt>
      <trkpt lat="44.42623" lon="4.49925">
        <ele>639</ele>
        <time>2013-02-27T12:37:24.000Z</time>
      </trkpt>
      <trkpt lat="44.42623" lon="4.49925">
        <ele>639</ele>
        <time>2013-02-27T12:37:25.000Z</time>
      </trkpt>
      <trkpt lat="44.42624" lon="4.49924">
        <ele>639</ele>
        <time>2013-02-27T12:37:26.000Z</time>
      </trkpt>
      <trkpt lat="44.42624" lon="4.49924">
        <ele>639</ele>
        <time>2013-02-27T12:37:27.000Z</time>
      </trkpt>
      <trkpt lat="44.42624" lon="4.49924">
        <ele>639.40002441406</ele>
        <time>2013-02-27T12:37:29.000Z</time>
      </trkpt>
      <trkpt lat="44.42624" lon="4.49924">
        <ele>639</ele>
        <time>2013-02-27T12:37:30.000Z</time>
      </trkpt>
      <trkpt lat="44.42623" lon="4.49924">
        <ele>639</ele>
        <time>2013-02-27T12:37:31.000Z</time>
      </trkpt>
      <trkpt lat="44.42623" lon="4.49923">
        <ele>639</ele>
        <time>2013-02-27T12:37:32.000Z</time>
      </trkpt>
      <trkpt lat="44.42624" lon="4.49923">
        <ele>639.79998779297</ele>
        <time>2013-02-27T12:37:33.000Z</time>
      </trkpt>
      <trkpt lat="44.42624" lon="4.49923">
        <ele>639.79998779297</ele>
        <time>2013-02-27T12:37:34.000Z</time>
      </trkpt>
      <trkpt lat="44.42624" lon="4.49923">
        <ele>640.40002441406</ele>
        <time>2013-02-27T12:37:35.000Z</time>
      </trkpt>
      <trkpt lat="44.42624" lon="4.49923">
        <ele>641.40002441406</ele>
        <time>2013-02-27T12:37:36.000Z</time>
      </trkpt>
      <trkpt lat="44.42624" lon="4.49923">
        <ele>641.79998779297</ele>
        <time>2013-02-27T12:37:37.000Z</time>
      </trkpt>
      <trkpt lat="44.42624" lon="4.49923">
        <ele>641.79998779297</ele>
        <time>2013-02-27T12:37:38.000Z</time>
      </trkpt>
      <trkpt lat="44.42624" lon="4.49922">
        <ele>642.20001220703</ele>
        <time>2013-02-27T12:37:39.000Z</time>
      </trkpt>
      <trkpt lat="44.42624" lon="4.49922">
        <ele>642.79998779297</ele>
        <time>2013-02-27T12:37:40.000Z</time>
      </trkpt>
      <trkpt lat="44.42624" lon="4.49922">
        <ele>643.20001220703</ele>
        <time>2013-02-27T12:37:41.000Z</time>
      </trkpt>
      <trkpt lat="44.42624" lon="4.49922">
        <ele>643.20001220703</ele>
        <time>2013-02-27T12:37:42.000Z</time>
      </trkpt>
      <trkpt lat="44.42624" lon="4.49922">
        <ele>643.79998779297</ele>
        <time>2013-02-27T12:37:43.000Z</time>
      </trkpt>
      <trkpt lat="44.42624" lon="4.49921">
        <ele>644.79998779297</ele>
        <time>2013-02-27T12:37:44.000Z</time>
      </trkpt>
      <trkpt lat="44.42624" lon="4.49921">
        <ele>645.20001220703</ele>
        <time>2013-02-27T12:37:45.000Z</time>
      </trkpt>
      <trkpt lat="44.42624" lon="4.49921">
        <ele>644.79998779297</ele>
        <time>2013-02-27T12:37:46.000Z</time>
      </trkpt>
      <trkpt lat="44.42624" lon="4.49921">
        <ele>645.20001220703</ele>
        <time>2013-02-27T12:37:47.000Z</time>
      </trkpt>
      <trkpt lat="44.42624" lon="4.49921">
        <ele>645.59997558594</ele>
        <time>2013-02-27T12:37:48.000Z</time>
      </trkpt>
      <trkpt lat="44.42623" lon="4.4992">
        <ele>646.20001220703</ele>
        <time>2013-02-27T12:37:49.000Z</time>
      </trkpt>
      <trkpt lat="44.42623" lon="4.4992">
        <ele>645.59997558594</ele>
        <time>2013-02-27T12:37:50.000Z</time>
      </trkpt>
      <trkpt lat="44.42623" lon="4.4992">
        <ele>645.59997558594</ele>
        <time>2013-02-27T12:37:51.000Z</time>
      </trkpt>
      <trkpt lat="44.42623" lon="4.4992">
        <ele>645.59997558594</ele>
        <time>2013-02-27T12:37:52.000Z</time>
      </trkpt>
      <trkpt lat="44.42623" lon="4.4992">
        <ele>645.59997558594</ele>
        <time>2013-02-27T12:37:53.000Z</time>
      </trkpt>
      <trkpt lat="44.42623" lon="4.4992">
        <ele>645.59997558594</ele>
        <time>2013-02-27T12:37:54.000Z</time>
      </trkpt>
      <trkpt lat="44.42623" lon="4.4992">
        <ele>645.59997558594</ele>
        <time>2013-02-27T12:37:55.000Z</time>
      </trkpt>
      <trkpt lat="44.42623" lon="4.4992">
        <ele>645.59997558594</ele>
        <time>2013-02-27T12:37:56.000Z</time>
      </trkpt>
      <trkpt lat="44.42623" lon="4.4992">
        <ele>645.59997558594</ele>
        <time>2013-02-27T12:37:57.000Z</time>
      </trkpt>
      <trkpt lat="44.42623" lon="4.4992">
        <ele>645.20001220703</ele>
        <time>2013-02-27T12:37:58.000Z</time>
      </trkpt>
      <trkpt lat="44.42623" lon="4.4992">
        <ele>645.20001220703</ele>
        <time>2013-02-27T12:37:59.000Z</time>
      </trkpt>
      <trkpt lat="44.42623" lon="4.4992">
        <ele>645.20001220703</ele>
        <time>2013-02-27T12:38:00.000Z</time>
      </trkpt>
      <trkpt lat="44.42623" lon="4.4992">
        <ele>645.20001220703</ele>
        <time>2013-02-27T12:38:01.000Z</time>
      </trkpt>
      <trkpt lat="44.42623" lon="4.4992">
        <ele>645.20001220703</ele>
        <time>2013-02-27T12:38:02.000Z</time>
      </trkpt>
      <trkpt lat="44.42623" lon="4.4992">
        <ele>645.20001220703</ele>
        <time>2013-02-27T12:38:03.000Z</time>
      </trkpt>
      <trkpt lat="44.42623" lon="4.49921">
        <ele>644.20001220703</ele>
        <time>2013-02-27T12:38:04.000Z</time>
      </trkpt>
      <trkpt lat="44.42623" lon="4.49921">
        <ele>643.79998779297</ele>
        <time>2013-02-27T12:38:05.000Z</time>
      </trkpt>
      <trkpt lat="44.42623" lon="4.49921">
        <ele>643.20001220703</ele>
        <time>2013-02-27T12:38:06.000Z</time>
      </trkpt>
      <trkpt lat="44.42624" lon="4.49921">
        <ele>642.20001220703</ele>
        <time>2013-02-27T12:38:07.000Z</time>
      </trkpt>
      <trkpt lat="44.42624" lon="4.49921">
        <ele>641.79998779297</ele>
        <time>2013-02-27T12:38:08.000Z</time>
      </trkpt>
      <trkpt lat="44.42624" lon="4.49921">
        <ele>641.40002441406</ele>
        <time>2013-02-27T12:38:09.000Z</time>
      </trkpt>
      <trkpt lat="44.42625" lon="4.49922">
        <ele>641.40002441406</ele>
        <time>2013-02-27T12:38:10.000Z</time>
      </trkpt>
      <trkpt lat="44.42626" lon="4.49922">
        <ele>641.79998779297</ele>
        <time>2013-02-27T12:38:11.000Z</time>
      </trkpt>
      <trkpt lat="44.42627" lon="4.49923">
        <ele>641.79998779297</ele>
        <time>2013-02-27T12:38:12.000Z</time>
      </trkpt>
      <trkpt lat="44.42628" lon="4.49924">
        <ele>641.79998779297</ele>
        <time>2013-02-27T12:38:13.000Z</time>
      </trkpt>
      <trkpt lat="44.42628" lon="4.49924">
        <ele>641.79998779297</ele>
        <time>2013-02-27T12:38:14.000Z</time>
      </trkpt>
      <trkpt lat="44.42629" lon="4.49923">
        <ele>641.79998779297</ele>
        <time>2013-02-27T12:38:15.000Z</time>
      </trkpt>
      <trkpt lat="44.4263" lon="4.49923">
        <ele>641.79998779297</ele>
        <time>2013-02-27T12:38:16.000Z</time>
      </trkpt>
      <trkpt lat="44.42631" lon="4.49923">
        <ele>642.20001220703</ele>
        <time>2013-02-27T12:38:17.000Z</time>
      </trkpt>
      <trkpt lat="44.42631" lon="4.49923">
        <ele>642.20001220703</ele>
        <time>2013-02-27T12:38:18.000Z</time>
      </trkpt>
      <trkpt lat="44.42632" lon="4.49924">
        <ele>642.20001220703</ele>
        <time>2013-02-27T12:38:19.000Z</time>
      </trkpt>
      <trkpt lat="44.42633" lon="4.49924">
        <ele>642.79998779297</ele>
        <time>2013-02-27T12:38:20.000Z</time>
      </trkpt>
      <trkpt lat="44.42634" lon="4.49924">
        <ele>643.20001220703</ele>
        <time>2013-02-27T12:38:21.000Z</time>
      </trkpt>
      <trkpt lat="44.42635" lon="4.49924">
        <ele>643.79998779297</ele>
        <time>2013-02-27T12:38:22.000Z</time>
      </trkpt>
      <trkpt lat="44.42636" lon="4.49924">
        <ele>643.79998779297</ele>
        <time>2013-02-27T12:38:23.000Z</time>
      </trkpt>
      <trkpt lat="44.42636" lon="4.49924">
        <ele>643.79998779297</ele>
        <time>2013-02-27T12:38:24.000Z</time>
      </trkpt>
      <trkpt lat="44.42638" lon="4.49924">
        <ele>644.20001220703</ele>
        <time>2013-02-27T12:38:25.000Z</time>
      </trkpt>
      <trkpt lat="44.42638" lon="4.49924">
        <ele>643.79998779297</ele>
        <time>2013-02-27T12:38:26.000Z</time>
      </trkpt>
      <trkpt lat="44.42639" lon="4.49925">
        <ele>644.20001220703</ele>
        <time>2013-02-27T12:38:27.000Z</time>
      </trkpt>
      <trkpt lat="44.42639" lon="4.49926">
        <ele>644.20001220703</ele>
        <time>2013-02-27T12:38:28.000Z</time>
      </trkpt>
      <trkpt lat="44.42639" lon="4.49926">
        <ele>644.20001220703</ele>
        <time>2013-02-27T12:38:29.000Z</time>
      </trkpt>
      <trkpt lat="44.4264" lon="4.49926">
        <ele>644.79998779297</ele>
        <time>2013-02-27T12:38:30.000Z</time>
      </trkpt>
      <trkpt lat="44.4264" lon="4.49927">
        <ele>645.20001220703</ele>
        <time>2013-02-27T12:38:31.000Z</time>
      </trkpt>
      <trkpt lat="44.4264" lon="4.49928">
        <ele>645.59997558594</ele>
        <time>2013-02-27T12:38:32.000Z</time>
      </trkpt>
      <trkpt lat="44.42641" lon="4.49929">
        <ele>646.20001220703</ele>
        <time>2013-02-27T12:38:33.000Z</time>
      </trkpt>
      <trkpt lat="44.42642" lon="4.49929">
        <ele>646.59997558594</ele>
        <time>2013-02-27T12:38:34.000Z</time>
      </trkpt>
      <trkpt lat="44.42642" lon="4.4993">
        <ele>647.20001220703</ele>
        <time>2013-02-27T12:38:35.000Z</time>
      </trkpt>
      <trkpt lat="44.42643" lon="4.4993">
        <ele>647.59997558594</ele>
        <time>2013-02-27T12:38:36.000Z</time>
      </trkpt>
      <trkpt lat="44.42644" lon="4.4993">
        <ele>647.59997558594</ele>
        <time>2013-02-27T12:38:37.000Z</time>
      </trkpt>
      <trkpt lat="44.42644" lon="4.4993">
        <ele>647.59997558594</ele>
        <time>2013-02-27T12:38:38.000Z</time>
      </trkpt>
      <trkpt lat="44.42644" lon="4.4993">
        <ele>648</ele>
        <time>2013-02-27T12:38:39.000Z</time>
      </trkpt>
      <trkpt lat="44.42645" lon="4.49931">
        <ele>648.59997558594</ele>
        <time>2013-02-27T12:38:40.000Z</time>
      </trkpt>
      <trkpt lat="44.42646" lon="4.49932">
        <ele>649</ele>
        <time>2013-02-27T12:38:41.000Z</time>
      </trkpt>
      <trkpt lat="44.42647" lon="4.49932">
        <ele>649</ele>
        <time>2013-02-27T12:38:42.000Z</time>
      </trkpt>
      <trkpt lat="44.42648" lon="4.49933">
        <ele>648.59997558594</ele>
        <time>2013-02-27T12:38:43.000Z</time>
      </trkpt>
      <trkpt lat="44.42649" lon="4.49933">
        <ele>649</ele>
        <time>2013-02-27T12:38:44.000Z</time>
      </trkpt>
      <trkpt lat="44.42649" lon="4.49933">
        <ele>649.59997558594</ele>
        <time>2013-02-27T12:38:45.000Z</time>
      </trkpt>
      <trkpt lat="44.4265" lon="4.49934">
        <ele>649.59997558594</ele>
        <time>2013-02-27T12:38:46.000Z</time>
      </trkpt>
      <trkpt lat="44.42651" lon="4.49934">
        <ele>650</ele>
        <time>2013-02-27T12:38:47.000Z</time>
      </trkpt>
      <trkpt lat="44.42652" lon="4.49935">
        <ele>650</ele>
        <time>2013-02-27T12:38:48.000Z</time>
      </trkpt>
      <trkpt lat="44.42652" lon="4.49936">
        <ele>650.40002441406</ele>
        <time>2013-02-27T12:38:49.000Z</time>
      </trkpt>
      <trkpt lat="44.42653" lon="4.49936">
        <ele>650.40002441406</ele>
        <time>2013-02-27T12:38:50.000Z</time>
      </trkpt>
      <trkpt lat="44.42654" lon="4.49937">
        <ele>651</ele>
        <time>2013-02-27T12:38:51.000Z</time>
      </trkpt>
      <trkpt lat="44.42655" lon="4.49937">
        <ele>651</ele>
        <time>2013-02-27T12:38:52.000Z</time>
      </trkpt>
      <trkpt lat="44.42656" lon="4.49938">
        <ele>651</ele>
        <time>2013-02-27T12:38:53.000Z</time>
      </trkpt>
      <trkpt lat="44.42656" lon="4.49939">
        <ele>651.40002441406</ele>
        <time>2013-02-27T12:38:54.000Z</time>
      </trkpt>
      <trkpt lat="44.42656" lon="4.49939">
        <ele>651.40002441406</ele>
        <time>2013-02-27T12:38:55.000Z</time>
      </trkpt>
      <trkpt lat="44.42657" lon="4.49939">
        <ele>651.40002441406</ele>
        <time>2013-02-27T12:38:56.000Z</time>
      </trkpt>
      <trkpt lat="44.42658" lon="4.4994">
        <ele>652</ele>
        <time>2013-02-27T12:38:57.000Z</time>
      </trkpt>
      <trkpt lat="44.42659" lon="4.4994">
        <ele>652.40002441406</ele>
        <time>2013-02-27T12:38:58.000Z</time>
      </trkpt>
      <trkpt lat="44.42659" lon="4.4994">
        <ele>652.40002441406</ele>
        <time>2013-02-27T12:38:59.000Z</time>
      </trkpt>
      <trkpt lat="44.4266" lon="4.4994">
        <ele>652.40002441406</ele>
        <time>2013-02-27T12:39:00.000Z</time>
      </trkpt>
      <trkpt lat="44.42661" lon="4.49941">
        <ele>652.40002441406</ele>
        <time>2013-02-27T12:39:01.000Z</time>
      </trkpt>
      <trkpt lat="44.42661" lon="4.49942">
        <ele>652.40002441406</ele>
        <time>2013-02-27T12:39:02.000Z</time>
      </trkpt>
      <trkpt lat="44.42662" lon="4.49943">
        <ele>652.40002441406</ele>
        <time>2013-02-27T12:39:03.000Z</time>
      </trkpt>
      <trkpt lat="44.42663" lon="4.49943">
        <ele>652</ele>
        <time>2013-02-27T12:39:04.000Z</time>
      </trkpt>
      <trkpt lat="44.42664" lon="4.49943">
        <ele>652</ele>
        <time>2013-02-27T12:39:05.000Z</time>
      </trkpt>
      <trkpt lat="44.42665" lon="4.49944">
        <ele>652</ele>
        <time>2013-02-27T12:39:06.000Z</time>
      </trkpt>
      <trkpt lat="44.42666" lon="4.49945">
        <ele>652</ele>
        <time>2013-02-27T12:39:07.000Z</time>
      </trkpt>
      <trkpt lat="44.42667" lon="4.49946">
        <ele>652.40002441406</ele>
        <time>2013-02-27T12:39:08.000Z</time>
      </trkpt>
      <trkpt lat="44.42668" lon="4.49947">
        <ele>652.40002441406</ele>
        <time>2013-02-27T12:39:09.000Z</time>
      </trkpt>
      <trkpt lat="44.42669" lon="4.49947">
        <ele>652.40002441406</ele>
        <time>2013-02-27T12:39:10.000Z</time>
      </trkpt>
      <trkpt lat="44.42669" lon="4.49948">
        <ele>652</ele>
        <time>2013-02-27T12:39:11.000Z</time>
      </trkpt>
      <trkpt lat="44.4267" lon="4.49948">
        <ele>652</ele>
        <time>2013-02-27T12:39:12.000Z</time>
      </trkpt>
      <trkpt lat="44.42671" lon="4.49948">
        <ele>652</ele>
        <time>2013-02-27T12:39:13.000Z</time>
      </trkpt>
      <trkpt lat="44.42672" lon="4.49949">
        <ele>652</ele>
        <time>2013-02-27T12:39:14.000Z</time>
      </trkpt>
      <trkpt lat="44.42673" lon="4.4995">
        <ele>652</ele>
        <time>2013-02-27T12:39:15.000Z</time>
      </trkpt>
      <trkpt lat="44.42673" lon="4.4995">
        <ele>652.40002441406</ele>
        <time>2013-02-27T12:39:16.000Z</time>
      </trkpt>
      <trkpt lat="44.42674" lon="4.49951">
        <ele>652.40002441406</ele>
        <time>2013-02-27T12:39:17.000Z</time>
      </trkpt>
      <trkpt lat="44.42675" lon="4.49952">
        <ele>652.40002441406</ele>
        <time>2013-02-27T12:39:18.000Z</time>
      </trkpt>
      <trkpt lat="44.42676" lon="4.49952">
        <ele>652.40002441406</ele>
        <time>2013-02-27T12:39:19.000Z</time>
      </trkpt>
      <trkpt lat="44.42677" lon="4.49953">
        <ele>652.40002441406</ele>
        <time>2013-02-27T12:39:20.000Z</time>
      </trkpt>
      <trkpt lat="44.42678" lon="4.49955">
        <ele>652.40002441406</ele>
        <time>2013-02-27T12:39:21.000Z</time>
      </trkpt>
      <trkpt lat="44.42679" lon="4.49956">
        <ele>652.40002441406</ele>
        <time>2013-02-27T12:39:22.000Z</time>
      </trkpt>
      <trkpt lat="44.4268" lon="4.49957">
        <ele>652.79998779297</ele>
        <time>2013-02-27T12:39:23.000Z</time>
      </trkpt>
      <trkpt lat="44.42681" lon="4.49957">
        <ele>652.79998779297</ele>
        <time>2013-02-27T12:39:24.000Z</time>
      </trkpt>
      <trkpt lat="44.42681" lon="4.49958">
        <ele>653.40002441406</ele>
        <time>2013-02-27T12:39:25.000Z</time>
      </trkpt>
      <trkpt lat="44.42681" lon="4.49959">
        <ele>653.79998779297</ele>
        <time>2013-02-27T12:39:26.000Z</time>
      </trkpt>
      <trkpt lat="44.42681" lon="4.49959">
        <ele>654.40002441406</ele>
        <time>2013-02-27T12:39:27.000Z</time>
      </trkpt>
      <trkpt lat="44.42681" lon="4.49959">
        <ele>655.79998779297</ele>
        <time>2013-02-27T12:39:28.000Z</time>
      </trkpt>
      <trkpt lat="44.42681" lon="4.49958">
        <ele>656.20001220703</ele>
        <time>2013-02-27T12:39:29.000Z</time>
      </trkpt>
      <trkpt lat="44.42682" lon="4.49958">
        <ele>658.20001220703</ele>
        <time>2013-02-27T12:39:30.000Z</time>
      </trkpt>
      <trkpt lat="44.42682" lon="4.49958">
        <ele>658.59997558594</ele>
        <time>2013-02-27T12:39:31.000Z</time>
      </trkpt>
      <trkpt lat="44.42683" lon="4.49957">
        <ele>658.59997558594</ele>
        <time>2013-02-27T12:39:32.000Z</time>
      </trkpt>
      <trkpt lat="44.42683" lon="4.49958">
        <ele>658.59997558594</ele>
        <time>2013-02-27T12:39:33.000Z</time>
      </trkpt>
      <trkpt lat="44.42683" lon="4.49958">
        <ele>659.20001220703</ele>
        <time>2013-02-27T12:39:34.000Z</time>
      </trkpt>
      <trkpt lat="44.42683" lon="4.49959">
        <ele>660</ele>
        <time>2013-02-27T12:39:35.000Z</time>
      </trkpt>
      <trkpt lat="44.42683" lon="4.49959">
        <ele>661</ele>
        <time>2013-02-27T12:39:36.000Z</time>
      </trkpt>
      <trkpt lat="44.42683" lon="4.49958">
        <ele>661</ele>
        <time>2013-02-27T12:39:37.000Z</time>
      </trkpt>
      <trkpt lat="44.42684" lon="4.49959">
        <ele>661</ele>
        <time>2013-02-27T12:39:38.000Z</time>
      </trkpt>
      <trkpt lat="44.42685" lon="4.49959">
        <ele>662</ele>
        <time>2013-02-27T12:39:39.000Z</time>
      </trkpt>
      <trkpt lat="44.42685" lon="4.4996">
        <ele>663</ele>
        <time>2013-02-27T12:39:40.000Z</time>
      </trkpt>
      <trkpt lat="44.42685" lon="4.4996">
        <ele>663</ele>
        <time>2013-02-27T12:39:41.000Z</time>
      </trkpt>
      <trkpt lat="44.42686" lon="4.4996">
        <ele>663.40002441406</ele>
        <time>2013-02-27T12:39:42.000Z</time>
      </trkpt>
      <trkpt lat="44.42686" lon="4.49959">
        <ele>664.40002441406</ele>
        <time>2013-02-27T12:39:43.000Z</time>
      </trkpt>
      <trkpt lat="44.42687" lon="4.49959">
        <ele>664.79998779297</ele>
        <time>2013-02-27T12:39:44.000Z</time>
      </trkpt>
      <trkpt lat="44.42688" lon="4.4996">
        <ele>665.40002441406</ele>
        <time>2013-02-27T12:39:45.000Z</time>
      </trkpt>
      <trkpt lat="44.42688" lon="4.4996">
        <ele>665.79998779297</ele>
        <time>2013-02-27T12:39:46.000Z</time>
      </trkpt>
      <trkpt lat="44.42689" lon="4.49961">
        <ele>665.40002441406</ele>
        <time>2013-02-27T12:39:47.000Z</time>
      </trkpt>
      <trkpt lat="44.4269" lon="4.49962">
        <ele>665.79998779297</ele>
        <time>2013-02-27T12:39:48.000Z</time>
      </trkpt>
      <trkpt lat="44.42692" lon="4.49962">
        <ele>667.20001220703</ele>
        <time>2013-02-27T12:39:49.000Z</time>
      </trkpt>
      <trkpt lat="44.42693" lon="4.49962">
        <ele>668.20001220703</ele>
        <time>2013-02-27T12:39:50.000Z</time>
      </trkpt>
      <trkpt lat="44.42693" lon="4.49963">
        <ele>669.20001220703</ele>
        <time>2013-02-27T12:39:51.000Z</time>
      </trkpt>
      <trkpt lat="44.42694" lon="4.49963">
        <ele>670.59997558594</ele>
        <time>2013-02-27T12:39:52.000Z</time>
      </trkpt>
      <trkpt lat="44.42694" lon="4.49963">
        <ele>670.20001220703</ele>
        <time>2013-02-27T12:39:53.000Z</time>
      </trkpt>
      <trkpt lat="44.42694" lon="4.49963">
        <ele>670.20001220703</ele>
        <time>2013-02-27T12:39:54.000Z</time>
      </trkpt>
      <trkpt lat="44.42695" lon="4.49963">
        <ele>670.59997558594</ele>
        <time>2013-02-27T12:39:55.000Z</time>
      </trkpt>
      <trkpt lat="44.42695" lon="4.49963">
        <ele>670.59997558594</ele>
        <time>2013-02-27T12:39:56.000Z</time>
      </trkpt>
      <trkpt lat="44.42695" lon="4.49963">
        <ele>670.59997558594</ele>
        <time>2013-02-27T12:39:57.000Z</time>
      </trkpt>
      <trkpt lat="44.42696" lon="4.49962">
        <ele>671.20001220703</ele>
        <time>2013-02-27T12:39:58.000Z</time>
      </trkpt>
      <trkpt lat="44.42696" lon="4.49962">
        <ele>671.20001220703</ele>
        <time>2013-02-27T12:39:59.000Z</time>
      </trkpt>
      <trkpt lat="44.42697" lon="4.49963">
        <ele>671.59997558594</ele>
        <time>2013-02-27T12:40:00.000Z</time>
      </trkpt>
      <trkpt lat="44.42698" lon="4.49963">
        <ele>671.59997558594</ele>
        <time>2013-02-27T12:40:01.000Z</time>
      </trkpt>
      <trkpt lat="44.42698" lon="4.49964">
        <ele>672</ele>
        <time>2013-02-27T12:40:02.000Z</time>
      </trkpt>
      <trkpt lat="44.42699" lon="4.49964">
        <ele>672</ele>
        <time>2013-02-27T12:40:03.000Z</time>
      </trkpt>
      <trkpt lat="44.42699" lon="4.49964">
        <ele>671.59997558594</ele>
        <time>2013-02-27T12:40:04.000Z</time>
      </trkpt>
      <trkpt lat="44.427" lon="4.49963">
        <ele>671.59997558594</ele>
        <time>2013-02-27T12:40:05.000Z</time>
      </trkpt>
      <trkpt lat="44.427" lon="4.49963">
        <ele>672</ele>
        <time>2013-02-27T12:40:06.000Z</time>
      </trkpt>
      <trkpt lat="44.42701" lon="4.49964">
        <ele>672.59997558594</ele>
        <time>2013-02-27T12:40:07.000Z</time>
      </trkpt>
      <trkpt lat="44.42701" lon="4.49964">
        <ele>673.59997558594</ele>
        <time>2013-02-27T12:40:08.000Z</time>
      </trkpt>
      <trkpt lat="44.42701" lon="4.49965">
        <ele>673.59997558594</ele>
        <time>2013-02-27T12:40:09.000Z</time>
      </trkpt>
      <trkpt lat="44.42702" lon="4.49965">
        <ele>673.59997558594</ele>
        <time>2013-02-27T12:40:10.000Z</time>
      </trkpt>
      <trkpt lat="44.42702" lon="4.49966">
        <ele>674</ele>
        <time>2013-02-27T12:40:11.000Z</time>
      </trkpt>
      <trkpt lat="44.42703" lon="4.49967">
        <ele>674</ele>
        <time>2013-02-27T12:40:12.000Z</time>
      </trkpt>
      <trkpt lat="44.42703" lon="4.49967">
        <ele>674.59997558594</ele>
        <time>2013-02-27T12:40:13.000Z</time>
      </trkpt>
      <trkpt lat="44.42703" lon="4.49967">
        <ele>674.59997558594</ele>
        <time>2013-02-27T12:40:14.000Z</time>
      </trkpt>
      <trkpt lat="44.42703" lon="4.49967">
        <ele>676</ele>
        <time>2013-02-27T12:40:15.000Z</time>
      </trkpt>
      <trkpt lat="44.42704" lon="4.49967">
        <ele>676</ele>
        <time>2013-02-27T12:40:16.000Z</time>
      </trkpt>
      <trkpt lat="44.42704" lon="4.49968">
        <ele>677</ele>
        <time>2013-02-27T12:40:17.000Z</time>
      </trkpt>
      <trkpt lat="44.42704" lon="4.49968">
        <ele>678.40002441406</ele>
        <time>2013-02-27T12:40:18.000Z</time>
      </trkpt>
      <trkpt lat="44.42705" lon="4.49968">
        <ele>678.79998779297</ele>
        <time>2013-02-27T12:40:19.000Z</time>
      </trkpt>
      <trkpt lat="44.42706" lon="4.49968">
        <ele>678.79998779297</ele>
        <time>2013-02-27T12:40:20.000Z</time>
      </trkpt>
      <trkpt lat="44.42706" lon="4.49968">
        <ele>678.79998779297</ele>
        <time>2013-02-27T12:40:21.000Z</time>
      </trkpt>
      <trkpt lat="44.42707" lon="4.49969">
        <ele>679.79998779297</ele>
        <time>2013-02-27T12:40:22.000Z</time>
      </trkpt>
      <trkpt lat="44.42707" lon="4.4997">
        <ele>680.20001220703</ele>
        <time>2013-02-27T12:40:23.000Z</time>
      </trkpt>
      <trkpt lat="44.42707" lon="4.4997">
        <ele>680.20001220703</ele>
        <time>2013-02-27T12:40:24.000Z</time>
      </trkpt>
      <trkpt lat="44.42707" lon="4.4997">
        <ele>681.20001220703</ele>
        <time>2013-02-27T12:40:25.000Z</time>
      </trkpt>
      <trkpt lat="44.42707" lon="4.4997">
        <ele>680.79998779297</ele>
        <time>2013-02-27T12:40:26.000Z</time>
      </trkpt>
      <trkpt lat="44.42707" lon="4.4997">
        <ele>681.20001220703</ele>
        <time>2013-02-27T12:40:27.000Z</time>
      </trkpt>
      <trkpt lat="44.42708" lon="4.4997">
        <ele>681.79998779297</ele>
        <time>2013-02-27T12:40:28.000Z</time>
      </trkpt>
      <trkpt lat="44.42708" lon="4.4997">
        <ele>681.20001220703</ele>
        <time>2013-02-27T12:40:29.000Z</time>
      </trkpt>
      <trkpt lat="44.42708" lon="4.49969">
        <ele>681.20001220703</ele>
        <time>2013-02-27T12:40:30.000Z</time>
      </trkpt>
      <trkpt lat="44.42708" lon="4.49969">
        <ele>680.79998779297</ele>
        <time>2013-02-27T12:40:31.000Z</time>
      </trkpt>
      <trkpt lat="44.42708" lon="4.4997">
        <ele>681.20001220703</ele>
        <time>2013-02-27T12:40:32.000Z</time>
      </trkpt>
      <trkpt lat="44.42708" lon="4.49971">
        <ele>681.79998779297</ele>
        <time>2013-02-27T12:40:33.000Z</time>
      </trkpt>
      <trkpt lat="44.42709" lon="4.49971">
        <ele>682.59997558594</ele>
        <time>2013-02-27T12:40:34.000Z</time>
      </trkpt>
      <trkpt lat="44.42709" lon="4.49972">
        <ele>683.20001220703</ele>
        <time>2013-02-27T12:40:35.000Z</time>
      </trkpt>
      <trkpt lat="44.42709" lon="4.49972">
        <ele>683.20001220703</ele>
        <time>2013-02-27T12:40:36.000Z</time>
      </trkpt>
      <trkpt lat="44.4271" lon="4.49972">
        <ele>684.20001220703</ele>
        <time>2013-02-27T12:40:37.000Z</time>
      </trkpt>
      <trkpt lat="44.4271" lon="4.49972">
        <ele>684.59997558594</ele>
        <time>2013-02-27T12:40:38.000Z</time>
      </trkpt>
      <trkpt lat="44.4271" lon="4.49972">
        <ele>684.59997558594</ele>
        <time>2013-02-27T12:40:39.000Z</time>
      </trkpt>
      <trkpt lat="44.4271" lon="4.49972">
        <ele>684.20001220703</ele>
        <time>2013-02-27T12:40:40.000Z</time>
      </trkpt>
      <trkpt lat="44.4271" lon="4.49972">
        <ele>683.20001220703</ele>
        <time>2013-02-27T12:40:41.000Z</time>
      </trkpt>
      <trkpt lat="44.42711" lon="4.49972">
        <ele>684.20001220703</ele>
        <time>2013-02-27T12:40:42.000Z</time>
      </trkpt>
      <trkpt lat="44.4271" lon="4.49972">
        <ele>683.59997558594</ele>
        <time>2013-02-27T12:40:43.000Z</time>
      </trkpt>
      <trkpt lat="44.42709" lon="4.49972">
        <ele>682.20001220703</ele>
        <time>2013-02-27T12:40:44.000Z</time>
      </trkpt>
      <trkpt lat="44.42709" lon="4.49973">
        <ele>681.79998779297</ele>
        <time>2013-02-27T12:40:45.000Z</time>
      </trkpt>
      <trkpt lat="44.42709" lon="4.49973">
        <ele>681.20001220703</ele>
        <time>2013-02-27T12:40:46.000Z</time>
      </trkpt>
      <trkpt lat="44.42708" lon="4.49973">
        <ele>680.79998779297</ele>
        <time>2013-02-27T12:40:47.000Z</time>
      </trkpt>
      <trkpt lat="44.42708" lon="4.49973">
        <ele>680.20001220703</ele>
        <time>2013-02-27T12:40:48.000Z</time>
      </trkpt>
      <trkpt lat="44.42708" lon="4.49973">
        <ele>679.79998779297</ele>
        <time>2013-02-27T12:40:49.000Z</time>
      </trkpt>
      <trkpt lat="44.42708" lon="4.49973">
        <ele>679.79998779297</ele>
        <time>2013-02-27T12:40:50.000Z</time>
      </trkpt>
      <trkpt lat="44.42707" lon="4.49974">
        <ele>679.79998779297</ele>
        <time>2013-02-27T12:40:51.000Z</time>
      </trkpt>
      <trkpt lat="44.42707" lon="4.49974">
        <ele>679.40002441406</ele>
        <time>2013-02-27T12:40:52.000Z</time>
      </trkpt>
      <trkpt lat="44.42707" lon="4.49974">
        <ele>678.79998779297</ele>
        <time>2013-02-27T12:40:53.000Z</time>
      </trkpt>
      <trkpt lat="44.42707" lon="4.49974">
        <ele>678.40002441406</ele>
        <time>2013-02-27T12:40:54.000Z</time>
      </trkpt>
      <trkpt lat="44.42707" lon="4.49974">
        <ele>677.79998779297</ele>
        <time>2013-02-27T12:40:55.000Z</time>
      </trkpt>
      <trkpt lat="44.42707" lon="4.49974">
        <ele>677.40002441406</ele>
        <time>2013-02-27T12:40:56.000Z</time>
      </trkpt>
      <trkpt lat="44.42707" lon="4.49974">
        <ele>677</ele>
        <time>2013-02-27T12:40:57.000Z</time>
      </trkpt>
      <trkpt lat="44.42707" lon="4.49974">
        <ele>677</ele>
        <time>2013-02-27T12:40:58.000Z</time>
      </trkpt>
      <trkpt lat="44.42707" lon="4.49973">
        <ele>676.40002441406</ele>
        <time>2013-02-27T12:40:59.000Z</time>
      </trkpt>
      <trkpt lat="44.42707" lon="4.49973">
        <ele>676</ele>
        <time>2013-02-27T12:41:00.000Z</time>
      </trkpt>
      <trkpt lat="44.42707" lon="4.49973">
        <ele>676</ele>
        <time>2013-02-27T12:41:01.000Z</time>
      </trkpt>
      <trkpt lat="44.42707" lon="4.49973">
        <ele>675.40002441406</ele>
        <time>2013-02-27T12:41:02.000Z</time>
      </trkpt>
      <trkpt lat="44.42707" lon="4.49973">
        <ele>675.40002441406</ele>
        <time>2013-02-27T12:41:03.000Z</time>
      </trkpt>
      <trkpt lat="44.42707" lon="4.49973">
        <ele>675.40002441406</ele>
        <time>2013-02-27T12:41:04.000Z</time>
      </trkpt>
      <trkpt lat="44.42707" lon="4.49973">
        <ele>675</ele>
        <time>2013-02-27T12:41:05.000Z</time>
      </trkpt>
      <trkpt lat="44.42707" lon="4.49973">
        <ele>675</ele>
        <time>2013-02-27T12:41:06.000Z</time>
      </trkpt>
      <trkpt lat="44.42707" lon="4.49973">
        <ele>675</ele>
        <time>2013-02-27T12:41:07.000Z</time>
      </trkpt>
      <trkpt lat="44.42707" lon="4.49973">
        <ele>675</ele>
        <time>2013-02-27T12:41:08.000Z</time>
      </trkpt>
      <trkpt lat="44.42707" lon="4.49973">
        <ele>675</ele>
        <time>2013-02-27T12:41:09.000Z</time>
      </trkpt>
      <trkpt lat="44.42707" lon="4.49973">
        <ele>675</ele>
        <time>2013-02-27T12:41:10.000Z</time>
      </trkpt>
      <trkpt lat="44.42707" lon="4.49973">
        <ele>675</ele>
        <time>2013-02-27T12:41:11.000Z</time>
      </trkpt>
      <trkpt lat="44.42706" lon="4.49974">
        <ele>675</ele>
        <time>2013-02-27T12:41:12.000Z</time>
      </trkpt>
      <trkpt lat="44.42706" lon="4.49974">
        <ele>675</ele>
        <time>2013-02-27T12:41:13.000Z</time>
      </trkpt>
      <trkpt lat="44.42706" lon="4.49974">
        <ele>674.59997558594</ele>
        <time>2013-02-27T12:41:14.000Z</time>
      </trkpt>
      <trkpt lat="44.42706" lon="4.49974">
        <ele>674.59997558594</ele>
        <time>2013-02-27T12:41:15.000Z</time>
      </trkpt>
      <trkpt lat="44.42706" lon="4.49975">
        <ele>674.59997558594</ele>
        <time>2013-02-27T12:41:16.000Z</time>
      </trkpt>
      <trkpt lat="44.42706" lon="4.49975">
        <ele>674.59997558594</ele>
        <time>2013-02-27T12:41:17.000Z</time>
      </trkpt>
      <trkpt lat="44.42706" lon="4.49975">
        <ele>674.59997558594</ele>
        <time>2013-02-27T12:41:18.000Z</time>
      </trkpt>
      <trkpt lat="44.42706" lon="4.49975">
        <ele>674.59997558594</ele>
        <time>2013-02-27T12:41:19.000Z</time>
      </trkpt>
      <trkpt lat="44.42706" lon="4.49975">
        <ele>675</ele>
        <time>2013-02-27T12:41:20.000Z</time>
      </trkpt>
      <trkpt lat="44.42706" lon="4.49974">
        <ele>675</ele>
        <time>2013-02-27T12:41:21.000Z</time>
      </trkpt>
      <trkpt lat="44.42705" lon="4.49974">
        <ele>675</ele>
        <time>2013-02-27T12:41:22.000Z</time>
      </trkpt>
      <trkpt lat="44.42705" lon="4.49974">
        <ele>675</ele>
        <time>2013-02-27T12:41:23.000Z</time>
      </trkpt>
      <trkpt lat="44.42705" lon="4.49973">
        <ele>675</ele>
        <time>2013-02-27T12:41:24.000Z</time>
      </trkpt>
      <trkpt lat="44.42705" lon="4.49973">
        <ele>675</ele>
        <time>2013-02-27T12:41:25.000Z</time>
      </trkpt>
      <trkpt lat="44.42705" lon="4.49973">
        <ele>675</ele>
        <time>2013-02-27T12:41:26.000Z</time>
      </trkpt>
      <trkpt lat="44.42705" lon="4.49973">
        <ele>675.40002441406</ele>
        <time>2013-02-27T12:41:27.000Z</time>
      </trkpt>
      <trkpt lat="44.42705" lon="4.49973">
        <ele>675.40002441406</ele>
        <time>2013-02-27T12:41:28.000Z</time>
      </trkpt>
      <trkpt lat="44.42704" lon="4.49973">
        <ele>676</ele>
        <time>2013-02-27T12:41:29.000Z</time>
      </trkpt>
      <trkpt lat="44.42704" lon="4.49973">
        <ele>676.40002441406</ele>
        <time>2013-02-27T12:41:30.000Z</time>
      </trkpt>
      <trkpt lat="44.42704" lon="4.49973">
        <ele>676.40002441406</ele>
        <time>2013-02-27T12:41:31.000Z</time>
      </trkpt>
      <trkpt lat="44.42704" lon="4.49973">
        <ele>677</ele>
        <time>2013-02-27T12:41:32.000Z</time>
      </trkpt>
      <trkpt lat="44.42704" lon="4.49973">
        <ele>677</ele>
        <time>2013-02-27T12:41:33.000Z</time>
      </trkpt>
      <trkpt lat="44.42704" lon="4.49973">
        <ele>677</ele>
        <time>2013-02-27T12:41:34.000Z</time>
      </trkpt>
      <trkpt lat="44.42704" lon="4.49973">
        <ele>677</ele>
        <time>2013-02-27T12:41:35.000Z</time>
      </trkpt>
      <trkpt lat="44.42704" lon="4.49973">
        <ele>677.40002441406</ele>
        <time>2013-02-27T12:41:36.000Z</time>
      </trkpt>
      <trkpt lat="44.42704" lon="4.49973">
        <ele>677.40002441406</ele>
        <time>2013-02-27T12:41:37.000Z</time>
      </trkpt>
      <trkpt lat="44.42703" lon="4.49972">
        <ele>677.79998779297</ele>
        <time>2013-02-27T12:41:38.000Z</time>
      </trkpt>
      <trkpt lat="44.42703" lon="4.49972">
        <ele>677.79998779297</ele>
        <time>2013-02-27T12:41:39.000Z</time>
      </trkpt>
      <trkpt lat="44.42703" lon="4.49972">
        <ele>678.79998779297</ele>
        <time>2013-02-27T12:41:40.000Z</time>
      </trkpt>
      <trkpt lat="44.42703" lon="4.49973">
        <ele>677.79998779297</ele>
        <time>2013-02-27T12:41:41.000Z</time>
      </trkpt>
      <trkpt lat="44.42703" lon="4.49973">
        <ele>678.40002441406</ele>
        <time>2013-02-27T12:41:42.000Z</time>
      </trkpt>
      <trkpt lat="44.42702" lon="4.49974">
        <ele>678.40002441406</ele>
        <time>2013-02-27T12:41:43.000Z</time>
      </trkpt>
      <trkpt lat="44.42702" lon="4.49975">
        <ele>678.40002441406</ele>
        <time>2013-02-27T12:41:44.000Z</time>
      </trkpt>
      <trkpt lat="44.42702" lon="4.49974">
        <ele>678.79998779297</ele>
        <time>2013-02-27T12:41:45.000Z</time>
      </trkpt>
      <trkpt lat="44.42703" lon="4.49974">
        <ele>679.40002441406</ele>
        <time>2013-02-27T12:41:46.000Z</time>
      </trkpt>
      <trkpt lat="44.42702" lon="4.49974">
        <ele>680.20001220703</ele>
        <time>2013-02-27T12:41:47.000Z</time>
      </trkpt>
      <trkpt lat="44.42702" lon="4.49974">
        <ele>680.79998779297</ele>
        <time>2013-02-27T12:41:48.000Z</time>
      </trkpt>
      <trkpt lat="44.42702" lon="4.49975">
        <ele>682.59997558594</ele>
        <time>2013-02-27T12:41:49.000Z</time>
      </trkpt>
      <trkpt lat="44.42702" lon="4.49977">
        <ele>684.20001220703</ele>
        <time>2013-02-27T12:41:50.000Z</time>
      </trkpt>
      <trkpt lat="44.42702" lon="4.49978">
        <ele>685.59997558594</ele>
        <time>2013-02-27T12:41:51.000Z</time>
      </trkpt>
      <trkpt lat="44.42703" lon="4.49979">
        <ele>686.59997558594</ele>
        <time>2013-02-27T12:41:52.000Z</time>
      </trkpt>
      <trkpt lat="44.42704" lon="4.49979">
        <ele>687</ele>
        <time>2013-02-27T12:41:53.000Z</time>
      </trkpt>
      <trkpt lat="44.42704" lon="4.49978">
        <ele>687.40002441406</ele>
        <time>2013-02-27T12:41:54.000Z</time>
      </trkpt>
      <trkpt lat="44.42704" lon="4.49978">
        <ele>687</ele>
        <time>2013-02-27T12:41:55.000Z</time>
      </trkpt>
      <trkpt lat="44.42704" lon="4.49978">
        <ele>686.59997558594</ele>
        <time>2013-02-27T12:41:56.000Z</time>
      </trkpt>
      <trkpt lat="44.42704" lon="4.49978">
        <ele>686.59997558594</ele>
        <time>2013-02-27T12:41:57.000Z</time>
      </trkpt>
      <trkpt lat="44.42704" lon="4.49978">
        <ele>686.59997558594</ele>
        <time>2013-02-27T12:41:58.000Z</time>
      </trkpt>
      <trkpt lat="44.42704" lon="4.49978">
        <ele>686.59997558594</ele>
        <time>2013-02-27T12:41:59.000Z</time>
      </trkpt>
      <trkpt lat="44.42704" lon="4.49978">
        <ele>686</ele>
        <time>2013-02-27T12:42:00.000Z</time>
      </trkpt>
      <trkpt lat="44.42704" lon="4.49978">
        <ele>685.59997558594</ele>
        <time>2013-02-27T12:42:01.000Z</time>
      </trkpt>
      <trkpt lat="44.42704" lon="4.49978">
        <ele>685</ele>
        <time>2013-02-27T12:42:02.000Z</time>
      </trkpt>
      <trkpt lat="44.42704" lon="4.49978">
        <ele>684.59997558594</ele>
        <time>2013-02-27T12:42:03.000Z</time>
      </trkpt>
      <trkpt lat="44.42704" lon="4.49977">
        <ele>684.20001220703</ele>
        <time>2013-02-27T12:42:04.000Z</time>
      </trkpt>
      <trkpt lat="44.42704" lon="4.49977">
        <ele>684.20001220703</ele>
        <time>2013-02-27T12:42:05.000Z</time>
      </trkpt>
      <trkpt lat="44.42704" lon="4.49977">
        <ele>684.59997558594</ele>
        <time>2013-02-27T12:42:06.000Z</time>
      </trkpt>
      <trkpt lat="44.42704" lon="4.49977">
        <ele>684.20001220703</ele>
        <time>2013-02-27T12:42:07.000Z</time>
      </trkpt>
      <trkpt lat="44.42704" lon="4.49977">
        <ele>684.20001220703</ele>
        <time>2013-02-27T12:42:08.000Z</time>
      </trkpt>
      <trkpt lat="44.42704" lon="4.49977">
        <ele>684.20001220703</ele>
        <time>2013-02-27T12:42:09.000Z</time>
      </trkpt>
      <trkpt lat="44.42704" lon="4.49977">
        <ele>683.59997558594</ele>
        <time>2013-02-27T12:42:10.000Z</time>
      </trkpt>
      <trkpt lat="44.42704" lon="4.49977">
        <ele>683.59997558594</ele>
        <time>2013-02-27T12:42:11.000Z</time>
      </trkpt>
      <trkpt lat="44.42704" lon="4.49976">
        <ele>683.20001220703</ele>
        <time>2013-02-27T12:42:12.000Z</time>
      </trkpt>
      <trkpt lat="44.42704" lon="4.49976">
        <ele>682.59997558594</ele>
        <time>2013-02-27T12:42:13.000Z</time>
      </trkpt>
      <trkpt lat="44.42704" lon="4.49976">
        <ele>682.59997558594</ele>
        <time>2013-02-27T12:42:14.000Z</time>
      </trkpt>
      <trkpt lat="44.42703" lon="4.49976">
        <ele>682.59997558594</ele>
        <time>2013-02-27T12:42:15.000Z</time>
      </trkpt>
      <trkpt lat="44.42703" lon="4.49975">
        <ele>682.59997558594</ele>
        <time>2013-02-27T12:42:16.000Z</time>
      </trkpt>
      <trkpt lat="44.42703" lon="4.49975">
        <ele>682.20001220703</ele>
        <time>2013-02-27T12:42:17.000Z</time>
      </trkpt>
      <trkpt lat="44.42703" lon="4.49975">
        <ele>682.20001220703</ele>
        <time>2013-02-27T12:42:18.000Z</time>
      </trkpt>
      <trkpt lat="44.42703" lon="4.49974">
        <ele>682.20001220703</ele>
        <time>2013-02-27T12:42:19.000Z</time>
      </trkpt>
      <trkpt lat="44.42702" lon="4.49973">
        <ele>682.20001220703</ele>
        <time>2013-02-27T12:42:20.000Z</time>
      </trkpt>
      <trkpt lat="44.42702" lon="4.49973">
        <ele>682.20001220703</ele>
        <time>2013-02-27T12:42:21.000Z</time>
      </trkpt>
      <trkpt lat="44.42702" lon="4.49972">
        <ele>682.20001220703</ele>
        <time>2013-02-27T12:42:22.000Z</time>
      </trkpt>
      <trkpt lat="44.42702" lon="4.49972">
        <ele>682.59997558594</ele>
        <time>2013-02-27T12:42:23.000Z</time>
      </trkpt>
      <trkpt lat="44.42702" lon="4.49972">
        <ele>682.20001220703</ele>
        <time>2013-02-27T12:42:24.000Z</time>
      </trkpt>
      <trkpt lat="44.42702" lon="4.49972">
        <ele>681.79998779297</ele>
        <time>2013-02-27T12:42:25.000Z</time>
      </trkpt>
      <trkpt lat="44.42701" lon="4.49976">
        <ele>684.20001220703</ele>
        <time>2013-02-27T12:42:26.000Z</time>
      </trkpt>
      <trkpt lat="44.42702" lon="4.49974">
        <ele>682.59997558594</ele>
        <time>2013-02-27T12:42:27.000Z</time>
      </trkpt>
      <trkpt lat="44.42704" lon="4.49974">
        <ele>682.59997558594</ele>
        <time>2013-02-27T12:42:28.000Z</time>
      </trkpt>
      <trkpt lat="44.42704" lon="4.49973">
        <ele>682.20001220703</ele>
        <time>2013-02-27T12:42:29.000Z</time>
      </trkpt>
      <trkpt lat="44.42704" lon="4.49972">
        <ele>681.79998779297</ele>
        <time>2013-02-27T12:42:30.000Z</time>
      </trkpt>
      <trkpt lat="44.42704" lon="4.49972">
        <ele>682.20001220703</ele>
        <time>2013-02-27T12:42:31.000Z</time>
      </trkpt>
      <trkpt lat="44.42704" lon="4.49971">
        <ele>682.59997558594</ele>
        <time>2013-02-27T12:42:32.000Z</time>
      </trkpt>
      <trkpt lat="44.42704" lon="4.49971">
        <ele>683.20001220703</ele>
        <time>2013-02-27T12:42:33.000Z</time>
      </trkpt>
      <trkpt lat="44.42704" lon="4.49971">
        <ele>684.20001220703</ele>
        <time>2013-02-27T12:42:34.000Z</time>
      </trkpt>
      <trkpt lat="44.42704" lon="4.49971">
        <ele>684.20001220703</ele>
        <time>2013-02-27T12:42:35.000Z</time>
      </trkpt>
      <trkpt lat="44.42704" lon="4.49971">
        <ele>683.20001220703</ele>
        <time>2013-02-27T12:42:36.000Z</time>
      </trkpt>
      <trkpt lat="44.42704" lon="4.4997">
        <ele>683.59997558594</ele>
        <time>2013-02-27T12:42:37.000Z</time>
      </trkpt>
      <trkpt lat="44.42705" lon="4.49969">
        <ele>684.20001220703</ele>
        <time>2013-02-27T12:42:38.000Z</time>
      </trkpt>
      <trkpt lat="44.42706" lon="4.49968">
        <ele>682.20001220703</ele>
        <time>2013-02-27T12:42:39.000Z</time>
      </trkpt>
      <trkpt lat="44.42707" lon="4.49968">
        <ele>681.79998779297</ele>
        <time>2013-02-27T12:42:40.000Z</time>
      </trkpt>
      <trkpt lat="44.42708" lon="4.49967">
        <ele>682.20001220703</ele>
        <time>2013-02-27T12:42:41.000Z</time>
      </trkpt>
      <trkpt lat="44.42709" lon="4.49967">
        <ele>682.20001220703</ele>
        <time>2013-02-27T12:42:42.000Z</time>
      </trkpt>
      <trkpt lat="44.42709" lon="4.49967">
        <ele>683.59997558594</ele>
        <time>2013-02-27T12:42:43.000Z</time>
      </trkpt>
      <trkpt lat="44.4271" lon="4.49967">
        <ele>682.59997558594</ele>
        <time>2013-02-27T12:42:44.000Z</time>
      </trkpt>
      <trkpt lat="44.42711" lon="4.49967">
        <ele>682.59997558594</ele>
        <time>2013-02-27T12:42:45.000Z</time>
      </trkpt>
      <trkpt lat="44.42711" lon="4.49966">
        <ele>681.20001220703</ele>
        <time>2013-02-27T12:42:46.000Z</time>
      </trkpt>
      <trkpt lat="44.42711" lon="4.49967">
        <ele>681.79998779297</ele>
        <time>2013-02-27T12:42:47.000Z</time>
      </trkpt>
      <trkpt lat="44.42711" lon="4.49967">
        <ele>681.20001220703</ele>
        <time>2013-02-27T12:42:48.000Z</time>
      </trkpt>
      <trkpt lat="44.42711" lon="4.49966">
        <ele>680.79998779297</ele>
        <time>2013-02-27T12:42:49.000Z</time>
      </trkpt>
      <trkpt lat="44.42711" lon="4.49966">
        <ele>681.79998779297</ele>
        <time>2013-02-27T12:42:50.000Z</time>
      </trkpt>
      <trkpt lat="44.42712" lon="4.49966">
        <ele>680.79998779297</ele>
        <time>2013-02-27T12:42:51.000Z</time>
      </trkpt>
      <trkpt lat="44.42712" lon="4.49967">
        <ele>680.20001220703</ele>
        <time>2013-02-27T12:42:52.000Z</time>
      </trkpt>
      <trkpt lat="44.42711" lon="4.49967">
        <ele>682.59997558594</ele>
        <time>2013-02-27T12:42:53.000Z</time>
      </trkpt>
      <trkpt lat="44.42712" lon="4.49967">
        <ele>683.59997558594</ele>
        <time>2013-02-27T12:42:55.000Z</time>
      </trkpt>
      <trkpt lat="44.42713" lon="4.49966">
        <ele>683.59997558594</ele>
        <time>2013-02-27T12:42:56.000Z</time>
      </trkpt>
      <trkpt lat="44.42713" lon="4.49966">
        <ele>684.20001220703</ele>
        <time>2013-02-27T12:42:57.000Z</time>
      </trkpt>
      <trkpt lat="44.42712" lon="4.49967">
        <ele>685.59997558594</ele>
        <time>2013-02-27T12:42:58.000Z</time>
      </trkpt>
      <trkpt lat="44.42711" lon="4.49966">
        <ele>686.59997558594</ele>
        <time>2013-02-27T12:42:59.000Z</time>
      </trkpt>
      <trkpt lat="44.42711" lon="4.49965">
        <ele>687</ele>
        <time>2013-02-27T12:43:00.000Z</time>
      </trkpt>
      <trkpt lat="44.42711" lon="4.49964">
        <ele>687.40002441406</ele>
        <time>2013-02-27T12:43:01.000Z</time>
      </trkpt>
      <trkpt lat="44.42711" lon="4.49964">
        <ele>687.40002441406</ele>
        <time>2013-02-27T12:43:02.000Z</time>
      </trkpt>
      <trkpt lat="44.42711" lon="4.49963">
        <ele>688</ele>
        <time>2013-02-27T12:43:03.000Z</time>
      </trkpt>
      <trkpt lat="44.42711" lon="4.49963">
        <ele>687.40002441406</ele>
        <time>2013-02-27T12:43:04.000Z</time>
      </trkpt>
      <trkpt lat="44.4271" lon="4.49963">
        <ele>688.40002441406</ele>
        <time>2013-02-27T12:43:05.000Z</time>
      </trkpt>
      <trkpt lat="44.4271" lon="4.49962">
        <ele>689.79998779297</ele>
        <time>2013-02-27T12:43:06.000Z</time>
      </trkpt>
      <trkpt lat="44.4271" lon="4.49962">
        <ele>690.40002441406</ele>
        <time>2013-02-27T12:43:07.000Z</time>
      </trkpt>
      <trkpt lat="44.42709" lon="4.49961">
        <ele>691.79998779297</ele>
        <time>2013-02-27T12:43:08.000Z</time>
      </trkpt>
      <trkpt lat="44.42709" lon="4.4996">
        <ele>694.20001220703</ele>
        <time>2013-02-27T12:43:09.000Z</time>
      </trkpt>
      <trkpt lat="44.42708" lon="4.49959">
        <ele>694.59997558594</ele>
        <time>2013-02-27T12:43:10.000Z</time>
      </trkpt>
      <trkpt lat="44.42708" lon="4.49958">
        <ele>696.20001220703</ele>
        <time>2013-02-27T12:43:11.000Z</time>
      </trkpt>
      <trkpt lat="44.42708" lon="4.49959">
        <ele>697.59997558594</ele>
        <time>2013-02-27T12:43:12.000Z</time>
      </trkpt>
      <trkpt lat="44.42708" lon="4.4996">
        <ele>699.40002441406</ele>
        <time>2013-02-27T12:43:13.000Z</time>
      </trkpt>
      <trkpt lat="44.42709" lon="4.49962">
        <ele>700.40002441406</ele>
        <time>2013-02-27T12:43:14.000Z</time>
      </trkpt>
      <trkpt lat="44.42709" lon="4.49962">
        <ele>701</ele>
        <time>2013-02-27T12:43:15.000Z</time>
      </trkpt>
      <trkpt lat="44.42709" lon="4.49962">
        <ele>701.40002441406</ele>
        <time>2013-02-27T12:43:16.000Z</time>
      </trkpt>
      <trkpt lat="44.42709" lon="4.49961">
        <ele>701.79998779297</ele>
        <time>2013-02-27T12:43:17.000Z</time>
      </trkpt>
      <trkpt lat="44.42709" lon="4.49961">
        <ele>703.40002441406</ele>
        <time>2013-02-27T12:43:18.000Z</time>
      </trkpt>
      <trkpt lat="44.42708" lon="4.4996">
        <ele>704.40002441406</ele>
        <time>2013-02-27T12:43:19.000Z</time>
      </trkpt>
      <trkpt lat="44.42708" lon="4.4996">
        <ele>704.79998779297</ele>
        <time>2013-02-27T12:43:20.000Z</time>
      </trkpt>
      <trkpt lat="44.42708" lon="4.49959">
        <ele>704.79998779297</ele>
        <time>2013-02-27T12:43:21.000Z</time>
      </trkpt>
      <trkpt lat="44.42707" lon="4.49959">
        <ele>706.79998779297</ele>
        <time>2013-02-27T12:43:22.000Z</time>
      </trkpt>
      <trkpt lat="44.42706" lon="4.49958">
        <ele>708.20001220703</ele>
        <time>2013-02-27T12:43:23.000Z</time>
      </trkpt>
      <trkpt lat="44.42706" lon="4.49958">
        <ele>709.20001220703</ele>
        <time>2013-02-27T12:43:24.000Z</time>
      </trkpt>
      <trkpt lat="44.42705" lon="4.49957">
        <ele>709.20001220703</ele>
        <time>2013-02-27T12:43:25.000Z</time>
      </trkpt>
      <trkpt lat="44.42705" lon="4.49956">
        <ele>709.20001220703</ele>
        <time>2013-02-27T12:43:26.000Z</time>
      </trkpt>
      <trkpt lat="44.42706" lon="4.49956">
        <ele>707.59997558594</ele>
        <time>2013-02-27T12:43:27.000Z</time>
      </trkpt>
      <trkpt lat="44.42706" lon="4.49956">
        <ele>705.79998779297</ele>
        <time>2013-02-27T12:43:28.000Z</time>
      </trkpt>
      <trkpt lat="44.42705" lon="4.49955">
        <ele>706.20001220703</ele>
        <time>2013-02-27T12:43:29.000Z</time>
      </trkpt>
      <trkpt lat="44.42705" lon="4.49955">
        <ele>706.79998779297</ele>
        <time>2013-02-27T12:43:30.000Z</time>
      </trkpt>
      <trkpt lat="44.42705" lon="4.49956">
        <ele>705.20001220703</ele>
        <time>2013-02-27T12:43:31.000Z</time>
      </trkpt>
      <trkpt lat="44.42705" lon="4.49957">
        <ele>704.40002441406</ele>
        <time>2013-02-27T12:43:32.000Z</time>
      </trkpt>
      <trkpt lat="44.42706" lon="4.49957">
        <ele>702.40002441406</ele>
        <time>2013-02-27T12:43:33.000Z</time>
      </trkpt>
      <trkpt lat="44.42706" lon="4.49958">
        <ele>702.79998779297</ele>
        <time>2013-02-27T12:43:34.000Z</time>
      </trkpt>
      <trkpt lat="44.42706" lon="4.49958">
        <ele>701.79998779297</ele>
        <time>2013-02-27T12:43:35.000Z</time>
      </trkpt>
      <trkpt lat="44.42706" lon="4.49959">
        <ele>701</ele>
        <time>2013-02-27T12:43:36.000Z</time>
      </trkpt>
      <trkpt lat="44.42706" lon="4.4996">
        <ele>699.40002441406</ele>
        <time>2013-02-27T12:43:37.000Z</time>
      </trkpt>
      <trkpt lat="44.42707" lon="4.49961">
        <ele>697.59997558594</ele>
        <time>2013-02-27T12:43:38.000Z</time>
      </trkpt>
      <trkpt lat="44.42708" lon="4.49963">
        <ele>693.79998779297</ele>
        <time>2013-02-27T12:43:39.000Z</time>
      </trkpt>
      <trkpt lat="44.42709" lon="4.49964">
        <ele>691.40002441406</ele>
        <time>2013-02-27T12:43:40.000Z</time>
      </trkpt>
      <trkpt lat="44.42708" lon="4.49964">
        <ele>690.79998779297</ele>
        <time>2013-02-27T12:43:41.000Z</time>
      </trkpt>
      <trkpt lat="44.42708" lon="4.49964">
        <ele>690.40002441406</ele>
        <time>2013-02-27T12:43:42.000Z</time>
      </trkpt>
      <trkpt lat="44.42707" lon="4.49963">
        <ele>692.20001220703</ele>
        <time>2013-02-27T12:43:43.000Z</time>
      </trkpt>
      <trkpt lat="44.42706" lon="4.49962">
        <ele>694.20001220703</ele>
        <time>2013-02-27T12:43:44.000Z</time>
      </trkpt>
      <trkpt lat="44.42705" lon="4.49963">
        <ele>694.59997558594</ele>
        <time>2013-02-27T12:43:45.000Z</time>
      </trkpt>
      <trkpt lat="44.42702" lon="4.49964">
        <ele>694.59997558594</ele>
        <time>2013-02-27T12:43:46.000Z</time>
      </trkpt>
      <trkpt lat="44.42702" lon="4.49962">
        <ele>694.59997558594</ele>
        <time>2013-02-27T12:43:47.000Z</time>
      </trkpt>
      <trkpt lat="44.42702" lon="4.49958">
        <ele>694.59997558594</ele>
        <time>2013-02-27T12:43:48.000Z</time>
      </trkpt>
      <trkpt lat="44.42702" lon="4.49955">
        <ele>696.20001220703</ele>
        <time>2013-02-27T12:43:49.000Z</time>
      </trkpt>
      <trkpt lat="44.42701" lon="4.49953">
        <ele>698.59997558594</ele>
        <time>2013-02-27T12:43:50.000Z</time>
      </trkpt>
      <trkpt lat="44.42701" lon="4.49953">
        <ele>701</ele>
        <time>2013-02-27T12:43:51.000Z</time>
      </trkpt>
      <trkpt lat="44.42701" lon="4.49953">
        <ele>701.79998779297</ele>
        <time>2013-02-27T12:43:52.000Z</time>
      </trkpt>
      <trkpt lat="44.42701" lon="4.49954">
        <ele>702.79998779297</ele>
        <time>2013-02-27T12:43:53.000Z</time>
      </trkpt>
      <trkpt lat="44.42701" lon="4.49955">
        <ele>703.40002441406</ele>
        <time>2013-02-27T12:43:54.000Z</time>
      </trkpt>
      <trkpt lat="44.42701" lon="4.49956">
        <ele>704.40002441406</ele>
        <time>2013-02-27T12:43:55.000Z</time>
      </trkpt>
      <trkpt lat="44.42701" lon="4.49957">
        <ele>704.79998779297</ele>
        <time>2013-02-27T12:43:56.000Z</time>
      </trkpt>
      <trkpt lat="44.42702" lon="4.49958">
        <ele>705.20001220703</ele>
        <time>2013-02-27T12:43:57.000Z</time>
      </trkpt>
      <trkpt lat="44.42702" lon="4.49958">
        <ele>705.79998779297</ele>
        <time>2013-02-27T12:43:58.000Z</time>
      </trkpt>
      <trkpt lat="44.42702" lon="4.49959">
        <ele>706.20001220703</ele>
        <time>2013-02-27T12:43:59.000Z</time>
      </trkpt>
      <trkpt lat="44.42703" lon="4.4996">
        <ele>704.40002441406</ele>
        <time>2013-02-27T12:44:00.000Z</time>
      </trkpt>
      <trkpt lat="44.42703" lon="4.49961">
        <ele>702.79998779297</ele>
        <time>2013-02-27T12:44:01.000Z</time>
      </trkpt>
      <trkpt lat="44.42703" lon="4.49962">
        <ele>701.79998779297</ele>
        <time>2013-02-27T12:44:02.000Z</time>
      </trkpt>
      <trkpt lat="44.42704" lon="4.49964">
        <ele>700</ele>
        <time>2013-02-27T12:44:03.000Z</time>
      </trkpt>
      <trkpt lat="44.42704" lon="4.49963">
        <ele>700.40002441406</ele>
        <time>2013-02-27T12:44:04.000Z</time>
      </trkpt>
      <trkpt lat="44.42704" lon="4.49962">
        <ele>700.40002441406</ele>
        <time>2013-02-27T12:44:05.000Z</time>
      </trkpt>
      <trkpt lat="44.42705" lon="4.49962">
        <ele>699</ele>
        <time>2013-02-27T12:44:06.000Z</time>
      </trkpt>
      <trkpt lat="44.42706" lon="4.49961">
        <ele>697</ele>
        <time>2013-02-27T12:44:07.000Z</time>
      </trkpt>
      <trkpt lat="44.42706" lon="4.49961">
        <ele>695.59997558594</ele>
        <time>2013-02-27T12:44:08.000Z</time>
      </trkpt>
      <trkpt lat="44.42707" lon="4.49961">
        <ele>695.20001220703</ele>
        <time>2013-02-27T12:44:09.000Z</time>
      </trkpt>
      <trkpt lat="44.42708" lon="4.4996">
        <ele>695.20001220703</ele>
        <time>2013-02-27T12:44:10.000Z</time>
      </trkpt>
      <trkpt lat="44.42709" lon="4.4996">
        <ele>695.20001220703</ele>
        <time>2013-02-27T12:44:11.000Z</time>
      </trkpt>
      <trkpt lat="44.42709" lon="4.49959">
        <ele>696.20001220703</ele>
        <time>2013-02-27T12:44:12.000Z</time>
      </trkpt>
      <trkpt lat="44.42711" lon="4.4996">
        <ele>697</ele>
        <time>2013-02-27T12:44:13.000Z</time>
      </trkpt>
      <trkpt lat="44.42713" lon="4.4996">
        <ele>697</ele>
        <time>2013-02-27T12:44:14.000Z</time>
      </trkpt>
      <trkpt lat="44.42713" lon="4.49963">
        <ele>698</ele>
        <time>2013-02-27T12:44:15.000Z</time>
      </trkpt>
      <trkpt lat="44.42713" lon="4.49964">
        <ele>697</ele>
        <time>2013-02-27T12:44:16.000Z</time>
      </trkpt>
      <trkpt lat="44.42713" lon="4.49963">
        <ele>696.20001220703</ele>
        <time>2013-02-27T12:44:17.000Z</time>
      </trkpt>
      <trkpt lat="44.42713" lon="4.49963">
        <ele>696.20001220703</ele>
        <time>2013-02-27T12:44:18.000Z</time>
      </trkpt>
      <trkpt lat="44.42713" lon="4.49963">
        <ele>695.59997558594</ele>
        <time>2013-02-27T12:44:19.000Z</time>
      </trkpt>
      <trkpt lat="44.42712" lon="4.49963">
        <ele>695.20001220703</ele>
        <time>2013-02-27T12:44:20.000Z</time>
      </trkpt>
      <trkpt lat="44.42712" lon="4.49963">
        <ele>694.59997558594</ele>
        <time>2013-02-27T12:44:21.000Z</time>
      </trkpt>
      <trkpt lat="44.42712" lon="4.49964">
        <ele>694.59997558594</ele>
        <time>2013-02-27T12:44:22.000Z</time>
      </trkpt>
      <trkpt lat="44.42712" lon="4.49964">
        <ele>694.20001220703</ele>
        <time>2013-02-27T12:44:23.000Z</time>
      </trkpt>
      <trkpt lat="44.42712" lon="4.49963">
        <ele>693.79998779297</ele>
        <time>2013-02-27T12:44:24.000Z</time>
      </trkpt>
      <trkpt lat="44.42712" lon="4.49964">
        <ele>693.79998779297</ele>
        <time>2013-02-27T12:44:25.000Z</time>
      </trkpt>
      <trkpt lat="44.42712" lon="4.49964">
        <ele>692.79998779297</ele>
        <time>2013-02-27T12:44:26.000Z</time>
      </trkpt>
      <trkpt lat="44.42712" lon="4.49963">
        <ele>692.79998779297</ele>
        <time>2013-02-27T12:44:27.000Z</time>
      </trkpt>
      <trkpt lat="44.42712" lon="4.49965">
        <ele>691.79998779297</ele>
        <time>2013-02-27T12:44:28.000Z</time>
      </trkpt>
      <trkpt lat="44.42712" lon="4.49965">
        <ele>691.40002441406</ele>
        <time>2013-02-27T12:44:29.000Z</time>
      </trkpt>
      <trkpt lat="44.42712" lon="4.49965">
        <ele>691.40002441406</ele>
        <time>2013-02-27T12:44:30.000Z</time>
      </trkpt>
      <trkpt lat="44.42713" lon="4.49966">
        <ele>690.79998779297</ele>
        <time>2013-02-27T12:44:31.000Z</time>
      </trkpt>
      <trkpt lat="44.42713" lon="4.49966">
        <ele>690.40002441406</ele>
        <time>2013-02-27T12:44:32.000Z</time>
      </trkpt>
      <trkpt lat="44.42711" lon="4.49965">
        <ele>692.79998779297</ele>
        <time>2013-02-27T12:44:33.000Z</time>
      </trkpt>
      <trkpt lat="44.4271" lon="4.49964">
        <ele>694.20001220703</ele>
        <time>2013-02-27T12:44:34.000Z</time>
      </trkpt>
      <trkpt lat="44.42709" lon="4.49962">
        <ele>696.20001220703</ele>
        <time>2013-02-27T12:44:35.000Z</time>
      </trkpt>
      <trkpt lat="44.42709" lon="4.49961">
        <ele>698</ele>
        <time>2013-02-27T12:44:36.000Z</time>
      </trkpt>
      <trkpt lat="44.42709" lon="4.49961">
        <ele>697.59997558594</ele>
        <time>2013-02-27T12:44:37.000Z</time>
      </trkpt>
      <trkpt lat="44.42709" lon="4.49961">
        <ele>697.59997558594</ele>
        <time>2013-02-27T12:44:38.000Z</time>
      </trkpt>
      <trkpt lat="44.42709" lon="4.49962">
        <ele>696.59997558594</ele>
        <time>2013-02-27T12:44:39.000Z</time>
      </trkpt>
      <trkpt lat="44.42709" lon="4.49963">
        <ele>695.59997558594</ele>
        <time>2013-02-27T12:44:40.000Z</time>
      </trkpt>
      <trkpt lat="44.42709" lon="4.49963">
        <ele>695.59997558594</ele>
        <time>2013-02-27T12:44:41.000Z</time>
      </trkpt>
      <trkpt lat="44.42709" lon="4.49963">
        <ele>695.20001220703</ele>
        <time>2013-02-27T12:44:42.000Z</time>
      </trkpt>
      <trkpt lat="44.42709" lon="4.49963">
        <ele>694.20001220703</ele>
        <time>2013-02-27T12:44:43.000Z</time>
      </trkpt>
      <trkpt lat="44.42709" lon="4.49962">
        <ele>694.20001220703</ele>
        <time>2013-02-27T12:44:44.000Z</time>
      </trkpt>
      <trkpt lat="44.42709" lon="4.49963">
        <ele>693.79998779297</ele>
        <time>2013-02-27T12:44:45.000Z</time>
      </trkpt>
      <trkpt lat="44.42709" lon="4.49963">
        <ele>692.20001220703</ele>
        <time>2013-02-27T12:44:46.000Z</time>
      </trkpt>
      <trkpt lat="44.42709" lon="4.49963">
        <ele>691.79998779297</ele>
        <time>2013-02-27T12:44:47.000Z</time>
      </trkpt>
      <trkpt lat="44.42709" lon="4.49963">
        <ele>691.40002441406</ele>
        <time>2013-02-27T12:44:48.000Z</time>
      </trkpt>
      <trkpt lat="44.42709" lon="4.49963">
        <ele>691.40002441406</ele>
        <time>2013-02-27T12:44:49.000Z</time>
      </trkpt>
      <trkpt lat="44.42709" lon="4.49963">
        <ele>690.40002441406</ele>
        <time>2013-02-27T12:44:50.000Z</time>
      </trkpt>
      <trkpt lat="44.42709" lon="4.49964">
        <ele>689.40002441406</ele>
        <time>2013-02-27T12:44:51.000Z</time>
      </trkpt>
      <trkpt lat="44.42709" lon="4.49963">
        <ele>689.79998779297</ele>
        <time>2013-02-27T12:44:52.000Z</time>
      </trkpt>
      <trkpt lat="44.42709" lon="4.49963">
        <ele>690.40002441406</ele>
        <time>2013-02-27T12:44:53.000Z</time>
      </trkpt>
      <trkpt lat="44.42709" lon="4.49963">
        <ele>690.79998779297</ele>
        <time>2013-02-27T12:44:54.000Z</time>
      </trkpt>
      <trkpt lat="44.42709" lon="4.49963">
        <ele>690.40002441406</ele>
        <time>2013-02-27T12:44:55.000Z</time>
      </trkpt>
      <trkpt lat="44.42709" lon="4.49962">
        <ele>689.79998779297</ele>
        <time>2013-02-27T12:44:56.000Z</time>
      </trkpt>
      <trkpt lat="44.42709" lon="4.49963">
        <ele>690.40002441406</ele>
        <time>2013-02-27T12:44:57.000Z</time>
      </trkpt>
      <trkpt lat="44.42709" lon="4.49963">
        <ele>690.79998779297</ele>
        <time>2013-02-27T12:44:58.000Z</time>
      </trkpt>
      <trkpt lat="44.42709" lon="4.49962">
        <ele>691.79998779297</ele>
        <time>2013-02-27T12:44:59.000Z</time>
      </trkpt>
      <trkpt lat="44.42708" lon="4.49961">
        <ele>693.79998779297</ele>
        <time>2013-02-27T12:45:00.000Z</time>
      </trkpt>
      <trkpt lat="44.42707" lon="4.4996">
        <ele>694.20001220703</ele>
        <time>2013-02-27T12:45:01.000Z</time>
      </trkpt>
      <trkpt lat="44.42708" lon="4.49961">
        <ele>693.79998779297</ele>
        <time>2013-02-27T12:45:02.000Z</time>
      </trkpt>
      <trkpt lat="44.42708" lon="4.49961">
        <ele>693.79998779297</ele>
        <time>2013-02-27T12:45:03.000Z</time>
      </trkpt>
      <trkpt lat="44.42708" lon="4.49961">
        <ele>693.79998779297</ele>
        <time>2013-02-27T12:45:04.000Z</time>
      </trkpt>
      <trkpt lat="44.42708" lon="4.49962">
        <ele>693.79998779297</ele>
        <time>2013-02-27T12:45:05.000Z</time>
      </trkpt>
      <trkpt lat="44.42708" lon="4.49961">
        <ele>694.20001220703</ele>
        <time>2013-02-27T12:45:06.000Z</time>
      </trkpt>
      <trkpt lat="44.42708" lon="4.49962">
        <ele>694.59997558594</ele>
        <time>2013-02-27T12:45:07.000Z</time>
      </trkpt>
      <trkpt lat="44.42708" lon="4.49962">
        <ele>694.59997558594</ele>
        <time>2013-02-27T12:45:08.000Z</time>
      </trkpt>
      <trkpt lat="44.42708" lon="4.49962">
        <ele>694.59997558594</ele>
        <time>2013-02-27T12:45:09.000Z</time>
      </trkpt>
      <trkpt lat="44.42708" lon="4.49962">
        <ele>695.20001220703</ele>
        <time>2013-02-27T12:45:10.000Z</time>
      </trkpt>
      <trkpt lat="44.42708" lon="4.49962">
        <ele>695.20001220703</ele>
        <time>2013-02-27T12:45:11.000Z</time>
      </trkpt>
      <trkpt lat="44.42708" lon="4.49962">
        <ele>695.20001220703</ele>
        <time>2013-02-27T12:45:12.000Z</time>
      </trkpt>
      <trkpt lat="44.42708" lon="4.49962">
        <ele>695.20001220703</ele>
        <time>2013-02-27T12:45:13.000Z</time>
      </trkpt>
      <trkpt lat="44.42708" lon="4.49962">
        <ele>695.20001220703</ele>
        <time>2013-02-27T12:45:14.000Z</time>
      </trkpt>
      <trkpt lat="44.42708" lon="4.49962">
        <ele>695.20001220703</ele>
        <time>2013-02-27T12:45:15.000Z</time>
      </trkpt>
      <trkpt lat="44.42708" lon="4.49962">
        <ele>695.20001220703</ele>
        <time>2013-02-27T12:45:16.000Z</time>
      </trkpt>
      <trkpt lat="44.42708" lon="4.49962">
        <ele>695.20001220703</ele>
        <time>2013-02-27T12:45:17.000Z</time>
      </trkpt>
      <trkpt lat="44.42709" lon="4.49963">
        <ele>694.59997558594</ele>
        <time>2013-02-27T12:45:18.000Z</time>
      </trkpt>
      <trkpt lat="44.42709" lon="4.49963">
        <ele>694.59997558594</ele>
        <time>2013-02-27T12:45:19.000Z</time>
      </trkpt>
      <trkpt lat="44.42708" lon="4.49961">
        <ele>697.59997558594</ele>
        <time>2013-02-27T12:45:20.000Z</time>
      </trkpt>
      <trkpt lat="44.42707" lon="4.4996">
        <ele>699.40002441406</ele>
        <time>2013-02-27T12:45:21.000Z</time>
      </trkpt>
      <trkpt lat="44.42708" lon="4.49961">
        <ele>698.59997558594</ele>
        <time>2013-02-27T12:45:22.000Z</time>
      </trkpt>
      <trkpt lat="44.42708" lon="4.49962">
        <ele>698</ele>
        <time>2013-02-27T12:45:23.000Z</time>
      </trkpt>
      <trkpt lat="44.42708" lon="4.49962">
        <ele>698.59997558594</ele>
        <time>2013-02-27T12:45:24.000Z</time>
      </trkpt>
      <trkpt lat="44.42708" lon="4.49962">
        <ele>698</ele>
        <time>2013-02-27T12:45:25.000Z</time>
      </trkpt>
      <trkpt lat="44.42708" lon="4.49962">
        <ele>697</ele>
        <time>2013-02-27T12:45:26.000Z</time>
      </trkpt>
      <trkpt lat="44.42708" lon="4.49962">
        <ele>699</ele>
        <time>2013-02-27T12:45:27.000Z</time>
      </trkpt>
      <trkpt lat="44.42708" lon="4.49962">
        <ele>700</ele>
        <time>2013-02-27T12:45:28.000Z</time>
      </trkpt>
      <trkpt lat="44.42708" lon="4.49963">
        <ele>699.40002441406</ele>
        <time>2013-02-27T12:45:29.000Z</time>
      </trkpt>
      <trkpt lat="44.42709" lon="4.49963">
        <ele>700</ele>
        <time>2013-02-27T12:45:30.000Z</time>
      </trkpt>
      <trkpt lat="44.4271" lon="4.49963">
        <ele>701</ele>
        <time>2013-02-27T12:45:31.000Z</time>
      </trkpt>
      <trkpt lat="44.4271" lon="4.49962">
        <ele>700.40002441406</ele>
        <time>2013-02-27T12:45:32.000Z</time>
      </trkpt>
      <trkpt lat="44.42711" lon="4.49962">
        <ele>699.40002441406</ele>
        <time>2013-02-27T12:45:33.000Z</time>
      </trkpt>
      <trkpt lat="44.42712" lon="4.49963">
        <ele>698</ele>
        <time>2013-02-27T12:45:34.000Z</time>
      </trkpt>
      <trkpt lat="44.42712" lon="4.49963">
        <ele>696.20001220703</ele>
        <time>2013-02-27T12:45:35.000Z</time>
      </trkpt>
      <trkpt lat="44.42712" lon="4.49964">
        <ele>694.20001220703</ele>
        <time>2013-02-27T12:45:36.000Z</time>
      </trkpt>
      <trkpt lat="44.42712" lon="4.49964">
        <ele>692.20001220703</ele>
        <time>2013-02-27T12:45:37.000Z</time>
      </trkpt>
      <trkpt lat="44.42713" lon="4.49965">
        <ele>690.40002441406</ele>
        <time>2013-02-27T12:45:38.000Z</time>
      </trkpt>
      <trkpt lat="44.42712" lon="4.49965">
        <ele>689.79998779297</ele>
        <time>2013-02-27T12:45:39.000Z</time>
      </trkpt>
      <trkpt lat="44.42712" lon="4.49964">
        <ele>690.40002441406</ele>
        <time>2013-02-27T12:45:40.000Z</time>
      </trkpt>
      <trkpt lat="44.42711" lon="4.49964">
        <ele>691.40002441406</ele>
        <time>2013-02-27T12:45:41.000Z</time>
      </trkpt>
      <trkpt lat="44.42712" lon="4.49965">
        <ele>690.40002441406</ele>
        <time>2013-02-27T12:45:42.000Z</time>
      </trkpt>
      <trkpt lat="44.42712" lon="4.49966">
        <ele>688.40002441406</ele>
        <time>2013-02-27T12:45:43.000Z</time>
      </trkpt>
      <trkpt lat="44.42712" lon="4.49966">
        <ele>686</ele>
        <time>2013-02-27T12:45:44.000Z</time>
      </trkpt>
      <trkpt lat="44.42712" lon="4.49966">
        <ele>685.59997558594</ele>
        <time>2013-02-27T12:45:45.000Z</time>
      </trkpt>
      <trkpt lat="44.42712" lon="4.49965">
        <ele>685.59997558594</ele>
        <time>2013-02-27T12:45:46.000Z</time>
      </trkpt>
      <trkpt lat="44.42712" lon="4.49964">
        <ele>687</ele>
        <time>2013-02-27T12:45:47.000Z</time>
      </trkpt>
      <trkpt lat="44.42711" lon="4.49964">
        <ele>687</ele>
        <time>2013-02-27T12:45:48.000Z</time>
      </trkpt>
      <trkpt lat="44.42711" lon="4.49964">
        <ele>687.40002441406</ele>
        <time>2013-02-27T12:45:49.000Z</time>
      </trkpt>
      <trkpt lat="44.42711" lon="4.49963">
        <ele>688.40002441406</ele>
        <time>2013-02-27T12:45:50.000Z</time>
      </trkpt>
      <trkpt lat="44.42711" lon="4.49963">
        <ele>689.40002441406</ele>
        <time>2013-02-27T12:45:51.000Z</time>
      </trkpt>
      <trkpt lat="44.4271" lon="4.49964">
        <ele>689.40002441406</ele>
        <time>2013-02-27T12:45:52.000Z</time>
      </trkpt>
      <trkpt lat="44.4271" lon="4.49963">
        <ele>690.40002441406</ele>
        <time>2013-02-27T12:45:53.000Z</time>
      </trkpt>
      <trkpt lat="44.4271" lon="4.49964">
        <ele>690.40002441406</ele>
        <time>2013-02-27T12:45:54.000Z</time>
      </trkpt>
      <trkpt lat="44.42709" lon="4.49963">
        <ele>690.40002441406</ele>
        <time>2013-02-27T12:45:55.000Z</time>
      </trkpt>
      <trkpt lat="44.42709" lon="4.49963">
        <ele>690.79998779297</ele>
        <time>2013-02-27T12:45:56.000Z</time>
      </trkpt>
      <trkpt lat="44.42709" lon="4.49963">
        <ele>690.79998779297</ele>
        <time>2013-02-27T12:45:57.000Z</time>
      </trkpt>
      <trkpt lat="44.42708" lon="4.49963">
        <ele>690.79998779297</ele>
        <time>2013-02-27T12:45:58.000Z</time>
      </trkpt>
      <trkpt lat="44.42708" lon="4.49962">
        <ele>690.40002441406</ele>
        <time>2013-02-27T12:45:59.000Z</time>
      </trkpt>
      <trkpt lat="44.42708" lon="4.49962">
        <ele>690.79998779297</ele>
        <time>2013-02-27T12:46:00.000Z</time>
      </trkpt>
      <trkpt lat="44.42707" lon="4.49961">
        <ele>690.79998779297</ele>
        <time>2013-02-27T12:46:01.000Z</time>
      </trkpt>
      <trkpt lat="44.42707" lon="4.49961">
        <ele>690.40002441406</ele>
        <time>2013-02-27T12:46:02.000Z</time>
      </trkpt>
      <trkpt lat="44.42707" lon="4.49961">
        <ele>690.40002441406</ele>
        <time>2013-02-27T12:46:03.000Z</time>
      </trkpt>
      <trkpt lat="44.42707" lon="4.4996">
        <ele>691.40002441406</ele>
        <time>2013-02-27T12:46:04.000Z</time>
      </trkpt>
      <trkpt lat="44.42706" lon="4.4996">
        <ele>691.40002441406</ele>
        <time>2013-02-27T12:46:05.000Z</time>
      </trkpt>
      <trkpt lat="44.42706" lon="4.49959">
        <ele>692.79998779297</ele>
        <time>2013-02-27T12:46:06.000Z</time>
      </trkpt>
      <trkpt lat="44.42705" lon="4.49958">
        <ele>693.79998779297</ele>
        <time>2013-02-27T12:46:07.000Z</time>
      </trkpt>
      <trkpt lat="44.42705" lon="4.49958">
        <ele>694.59997558594</ele>
        <time>2013-02-27T12:46:08.000Z</time>
      </trkpt>
      <trkpt lat="44.42704" lon="4.49957">
        <ele>695.20001220703</ele>
        <time>2013-02-27T12:46:09.000Z</time>
      </trkpt>
      <trkpt lat="44.42704" lon="4.49957">
        <ele>696.20001220703</ele>
        <time>2013-02-27T12:46:10.000Z</time>
      </trkpt>
      <trkpt lat="44.42703" lon="4.49956">
        <ele>697.59997558594</ele>
        <time>2013-02-27T12:46:11.000Z</time>
      </trkpt>
      <trkpt lat="44.42703" lon="4.49956">
        <ele>698.59997558594</ele>
        <time>2013-02-27T12:46:12.000Z</time>
      </trkpt>
      <trkpt lat="44.42703" lon="4.49955">
        <ele>698.59997558594</ele>
        <time>2013-02-27T12:46:13.000Z</time>
      </trkpt>
      <trkpt lat="44.42704" lon="4.49955">
        <ele>698.59997558594</ele>
        <time>2013-02-27T12:46:14.000Z</time>
      </trkpt>
      <trkpt lat="44.42704" lon="4.49956">
        <ele>698</ele>
        <time>2013-02-27T12:46:15.000Z</time>
      </trkpt>
      <trkpt lat="44.42704" lon="4.49956">
        <ele>697.59997558594</ele>
        <time>2013-02-27T12:46:16.000Z</time>
      </trkpt>
      <trkpt lat="44.42704" lon="4.49956">
        <ele>697</ele>
        <time>2013-02-27T12:46:17.000Z</time>
      </trkpt>
      <trkpt lat="44.42704" lon="4.49956">
        <ele>697</ele>
        <time>2013-02-27T12:46:18.000Z</time>
      </trkpt>
      <trkpt lat="44.42705" lon="4.49957">
        <ele>696.59997558594</ele>
        <time>2013-02-27T12:46:19.000Z</time>
      </trkpt>
      <trkpt lat="44.42705" lon="4.49958">
        <ele>695.20001220703</ele>
        <time>2013-02-27T12:46:20.000Z</time>
      </trkpt>
      <trkpt lat="44.42705" lon="4.49958">
        <ele>695.20001220703</ele>
        <time>2013-02-27T12:46:21.000Z</time>
      </trkpt>
      <trkpt lat="44.42705" lon="4.49957">
        <ele>695.20001220703</ele>
        <time>2013-02-27T12:46:22.000Z</time>
      </trkpt>
      <trkpt lat="44.42705" lon="4.49956">
        <ele>694.59997558594</ele>
        <time>2013-02-27T12:46:23.000Z</time>
      </trkpt>
      <trkpt lat="44.42705" lon="4.49956">
        <ele>694.59997558594</ele>
        <time>2013-02-27T12:46:24.000Z</time>
      </trkpt>
      <trkpt lat="44.42705" lon="4.49957">
        <ele>694.20001220703</ele>
        <time>2013-02-27T12:46:25.000Z</time>
      </trkpt>
      <trkpt lat="44.42705" lon="4.49957">
        <ele>692.79998779297</ele>
        <time>2013-02-27T12:46:26.000Z</time>
      </trkpt>
      <trkpt lat="44.42706" lon="4.49957">
        <ele>690.40002441406</ele>
        <time>2013-02-27T12:46:27.000Z</time>
      </trkpt>
      <trkpt lat="44.42707" lon="4.49956">
        <ele>690.40002441406</ele>
        <time>2013-02-27T12:46:28.000Z</time>
      </trkpt>
      <trkpt lat="44.42707" lon="4.49956">
        <ele>690.79998779297</ele>
        <time>2013-02-27T12:46:29.000Z</time>
      </trkpt>
      <trkpt lat="44.42707" lon="4.49957">
        <ele>692.20001220703</ele>
        <time>2013-02-27T12:46:30.000Z</time>
      </trkpt>
      <trkpt lat="44.42707" lon="4.49958">
        <ele>693.20001220703</ele>
        <time>2013-02-27T12:46:31.000Z</time>
      </trkpt>
      <trkpt lat="44.42707" lon="4.49958">
        <ele>693.20001220703</ele>
        <time>2013-02-27T12:46:32.000Z</time>
      </trkpt>
      <trkpt lat="44.42707" lon="4.49957">
        <ele>693.20001220703</ele>
        <time>2013-02-27T12:46:33.000Z</time>
      </trkpt>
      <trkpt lat="44.42707" lon="4.49957">
        <ele>693.79998779297</ele>
        <time>2013-02-27T12:46:34.000Z</time>
      </trkpt>
      <trkpt lat="44.42708" lon="4.49957">
        <ele>694.20001220703</ele>
        <time>2013-02-27T12:46:35.000Z</time>
      </trkpt>
      <trkpt lat="44.42708" lon="4.49957">
        <ele>694.20001220703</ele>
        <time>2013-02-27T12:46:36.000Z</time>
      </trkpt>
      <trkpt lat="44.42709" lon="4.49959">
        <ele>693.20001220703</ele>
        <time>2013-02-27T12:46:37.000Z</time>
      </trkpt>
      <trkpt lat="44.42709" lon="4.49959">
        <ele>693.79998779297</ele>
        <time>2013-02-27T12:46:38.000Z</time>
      </trkpt>
      <trkpt lat="44.4271" lon="4.49959">
        <ele>692.79998779297</ele>
        <time>2013-02-27T12:46:39.000Z</time>
      </trkpt>
      <trkpt lat="44.42711" lon="4.49958">
        <ele>692.20001220703</ele>
        <time>2013-02-27T12:46:40.000Z</time>
      </trkpt>
      <trkpt lat="44.42711" lon="4.49956">
        <ele>691.79998779297</ele>
        <time>2013-02-27T12:46:41.000Z</time>
      </trkpt>
      <trkpt lat="44.4271" lon="4.49954">
        <ele>693.79998779297</ele>
        <time>2013-02-27T12:46:42.000Z</time>
      </trkpt>
      <trkpt lat="44.4271" lon="4.49953">
        <ele>694.59997558594</ele>
        <time>2013-02-27T12:46:43.000Z</time>
      </trkpt>
      <trkpt lat="44.42709" lon="4.49953">
        <ele>695.59997558594</ele>
        <time>2013-02-27T12:46:44.000Z</time>
      </trkpt>
      <trkpt lat="44.4271" lon="4.49953">
        <ele>694.59997558594</ele>
        <time>2013-02-27T12:46:45.000Z</time>
      </trkpt>
      <trkpt lat="44.4271" lon="4.49952">
        <ele>696.20001220703</ele>
        <time>2013-02-27T12:46:46.000Z</time>
      </trkpt>
      <trkpt lat="44.4271" lon="4.49952">
        <ele>697.59997558594</ele>
        <time>2013-02-27T12:46:47.000Z</time>
      </trkpt>
      <trkpt lat="44.4271" lon="4.49952">
        <ele>699</ele>
        <time>2013-02-27T12:46:48.000Z</time>
      </trkpt>
      <trkpt lat="44.4271" lon="4.49953">
        <ele>699.40002441406</ele>
        <time>2013-02-27T12:46:49.000Z</time>
      </trkpt>
      <trkpt lat="44.4271" lon="4.49953">
        <ele>700.40002441406</ele>
        <time>2013-02-27T12:46:50.000Z</time>
      </trkpt>
      <trkpt lat="44.4271" lon="4.49954">
        <ele>701.40002441406</ele>
        <time>2013-02-27T12:46:51.000Z</time>
      </trkpt>
      <trkpt lat="44.4271" lon="4.49954">
        <ele>701</ele>
        <time>2013-02-27T12:46:52.000Z</time>
      </trkpt>
      <trkpt lat="44.42711" lon="4.49953">
        <ele>700.40002441406</ele>
        <time>2013-02-27T12:46:53.000Z</time>
      </trkpt>
      <trkpt lat="44.4271" lon="4.49953">
        <ele>700</ele>
        <time>2013-02-27T12:46:54.000Z</time>
      </trkpt>
      <trkpt lat="44.42709" lon="4.49954">
        <ele>700.40002441406</ele>
        <time>2013-02-27T12:46:55.000Z</time>
      </trkpt>
      <trkpt lat="44.42709" lon="4.49953">
        <ele>699.40002441406</ele>
        <time>2013-02-27T12:46:56.000Z</time>
      </trkpt>
      <trkpt lat="44.42709" lon="4.49954">
        <ele>699</ele>
        <time>2013-02-27T12:46:57.000Z</time>
      </trkpt>
      <trkpt lat="44.4271" lon="4.49954">
        <ele>698.59997558594</ele>
        <time>2013-02-27T12:46:58.000Z</time>
      </trkpt>
      <trkpt lat="44.4271" lon="4.49955">
        <ele>698</ele>
        <time>2013-02-27T12:46:59.000Z</time>
      </trkpt>
      <trkpt lat="44.4271" lon="4.49955">
        <ele>697.59997558594</ele>
        <time>2013-02-27T12:47:00.000Z</time>
      </trkpt>
      <trkpt lat="44.42708" lon="4.49953">
        <ele>699.40002441406</ele>
        <time>2013-02-27T12:47:01.000Z</time>
      </trkpt>
      <trkpt lat="44.42709" lon="4.49954">
        <ele>696.59997558594</ele>
        <time>2013-02-27T12:47:02.000Z</time>
      </trkpt>
      <trkpt lat="44.4271" lon="4.49955">
        <ele>694.59997558594</ele>
        <time>2013-02-27T12:47:03.000Z</time>
      </trkpt>
      <trkpt lat="44.4271" lon="4.49956">
        <ele>692.79998779297</ele>
        <time>2013-02-27T12:47:04.000Z</time>
      </trkpt>
      <trkpt lat="44.42709" lon="4.49955">
        <ele>692.20001220703</ele>
        <time>2013-02-27T12:47:05.000Z</time>
      </trkpt>
      <trkpt lat="44.42709" lon="4.49955">
        <ele>690.79998779297</ele>
        <time>2013-02-27T12:47:06.000Z</time>
      </trkpt>
      <trkpt lat="44.4271" lon="4.49955">
        <ele>689</ele>
        <time>2013-02-27T12:47:07.000Z</time>
      </trkpt>
      <trkpt lat="44.42711" lon="4.49956">
        <ele>685.59997558594</ele>
        <time>2013-02-27T12:47:08.000Z</time>
      </trkpt>
      <trkpt lat="44.42711" lon="4.49956">
        <ele>683.59997558594</ele>
        <time>2013-02-27T12:47:09.000Z</time>
      </trkpt>
      <trkpt lat="44.42711" lon="4.49955">
        <ele>683.59997558594</ele>
        <time>2013-02-27T12:47:10.000Z</time>
      </trkpt>
      <trkpt lat="44.42711" lon="4.49955">
        <ele>682.59997558594</ele>
        <time>2013-02-27T12:47:11.000Z</time>
      </trkpt>
      <trkpt lat="44.42711" lon="4.49955">
        <ele>682.59997558594</ele>
        <time>2013-02-27T12:47:12.000Z</time>
      </trkpt>
      <trkpt lat="44.42711" lon="4.49956">
        <ele>682.59997558594</ele>
        <time>2013-02-27T12:47:13.000Z</time>
      </trkpt>
      <trkpt lat="44.42711" lon="4.49957">
        <ele>682.20001220703</ele>
        <time>2013-02-27T12:47:14.000Z</time>
      </trkpt>
      <trkpt lat="44.42712" lon="4.49958">
        <ele>681.79998779297</ele>
        <time>2013-02-27T12:47:15.000Z</time>
      </trkpt>
      <trkpt lat="44.42713" lon="4.49958">
        <ele>681.79998779297</ele>
        <time>2013-02-27T12:47:16.000Z</time>
      </trkpt>
      <trkpt lat="44.42714" lon="4.49958">
        <ele>681.79998779297</ele>
        <time>2013-02-27T12:47:17.000Z</time>
      </trkpt>
      <trkpt lat="44.42714" lon="4.4996">
        <ele>682.59997558594</ele>
        <time>2013-02-27T12:47:18.000Z</time>
      </trkpt>
      <trkpt lat="44.42715" lon="4.4996">
        <ele>682.59997558594</ele>
        <time>2013-02-27T12:47:19.000Z</time>
      </trkpt>
      <trkpt lat="44.42715" lon="4.4996">
        <ele>682.59997558594</ele>
        <time>2013-02-27T12:47:20.000Z</time>
      </trkpt>
      <trkpt lat="44.42715" lon="4.49961">
        <ele>683.59997558594</ele>
        <time>2013-02-27T12:47:21.000Z</time>
      </trkpt>
      <trkpt lat="44.42715" lon="4.4996">
        <ele>683.20001220703</ele>
        <time>2013-02-27T12:47:22.000Z</time>
      </trkpt>
      <trkpt lat="44.42715" lon="4.49961">
        <ele>683.20001220703</ele>
        <time>2013-02-27T12:47:23.000Z</time>
      </trkpt>
      <trkpt lat="44.42715" lon="4.49961">
        <ele>682.59997558594</ele>
        <time>2013-02-27T12:47:24.000Z</time>
      </trkpt>
      <trkpt lat="44.42715" lon="4.4996">
        <ele>681.79998779297</ele>
        <time>2013-02-27T12:47:25.000Z</time>
      </trkpt>
      <trkpt lat="44.42715" lon="4.4996">
        <ele>682.20001220703</ele>
        <time>2013-02-27T12:47:26.000Z</time>
      </trkpt>
      <trkpt lat="44.42715" lon="4.49958">
        <ele>683.20001220703</ele>
        <time>2013-02-27T12:47:27.000Z</time>
      </trkpt>
      <trkpt lat="44.42715" lon="4.49957">
        <ele>682.20001220703</ele>
        <time>2013-02-27T12:47:28.000Z</time>
      </trkpt>
      <trkpt lat="44.42715" lon="4.49956">
        <ele>681.79998779297</ele>
        <time>2013-02-27T12:47:29.000Z</time>
      </trkpt>
      <trkpt lat="44.42714" lon="4.49957">
        <ele>682.59997558594</ele>
        <time>2013-02-27T12:47:30.000Z</time>
      </trkpt>
      <trkpt lat="44.42715" lon="4.49957">
        <ele>682.59997558594</ele>
        <time>2013-02-27T12:47:31.000Z</time>
      </trkpt>
      <trkpt lat="44.42715" lon="4.49957">
        <ele>682.59997558594</ele>
        <time>2013-02-27T12:47:32.000Z</time>
      </trkpt>
      <trkpt lat="44.42715" lon="4.49958">
        <ele>682.20001220703</ele>
        <time>2013-02-27T12:47:33.000Z</time>
      </trkpt>
      <trkpt lat="44.42715" lon="4.49959">
        <ele>682.59997558594</ele>
        <time>2013-02-27T12:47:34.000Z</time>
      </trkpt>
      <trkpt lat="44.42716" lon="4.49961">
        <ele>683.20001220703</ele>
        <time>2013-02-27T12:47:35.000Z</time>
      </trkpt>
      <trkpt lat="44.42716" lon="4.49962">
        <ele>685</ele>
        <time>2013-02-27T12:47:36.000Z</time>
      </trkpt>
      <trkpt lat="44.42716" lon="4.49962">
        <ele>686.59997558594</ele>
        <time>2013-02-27T12:47:37.000Z</time>
      </trkpt>
      <trkpt lat="44.42716" lon="4.49964">
        <ele>688.40002441406</ele>
        <time>2013-02-27T12:47:38.000Z</time>
      </trkpt>
      <trkpt lat="44.42715" lon="4.49965">
        <ele>690.40002441406</ele>
        <time>2013-02-27T12:47:39.000Z</time>
      </trkpt>
      <trkpt lat="44.42716" lon="4.49966">
        <ele>690.40002441406</ele>
        <time>2013-02-27T12:47:40.000Z</time>
      </trkpt>
      <trkpt lat="44.42716" lon="4.49967">
        <ele>689</ele>
        <time>2013-02-27T12:47:41.000Z</time>
      </trkpt>
      <trkpt lat="44.42716" lon="4.49967">
        <ele>689.40002441406</ele>
        <time>2013-02-27T12:47:42.000Z</time>
      </trkpt>
      <trkpt lat="44.42716" lon="4.49967">
        <ele>689.79998779297</ele>
        <time>2013-02-27T12:47:43.000Z</time>
      </trkpt>
      <trkpt lat="44.42716" lon="4.49967">
        <ele>690.40002441406</ele>
        <time>2013-02-27T12:47:44.000Z</time>
      </trkpt>
      <trkpt lat="44.42717" lon="4.49967">
        <ele>690.40002441406</ele>
        <time>2013-02-27T12:47:45.000Z</time>
      </trkpt>
      <trkpt lat="44.42717" lon="4.49965">
        <ele>690.40002441406</ele>
        <time>2013-02-27T12:47:46.000Z</time>
      </trkpt>
      <trkpt lat="44.42718" lon="4.49965">
        <ele>689.40002441406</ele>
        <time>2013-02-27T12:47:47.000Z</time>
      </trkpt>
      <trkpt lat="44.42718" lon="4.49966">
        <ele>690.40002441406</ele>
        <time>2013-02-27T12:47:48.000Z</time>
      </trkpt>
      <trkpt lat="44.42717" lon="4.49966">
        <ele>689.79998779297</ele>
        <time>2013-02-27T12:47:49.000Z</time>
      </trkpt>
      <trkpt lat="44.42717" lon="4.49966">
        <ele>691.79998779297</ele>
        <time>2013-02-27T12:47:50.000Z</time>
      </trkpt>
      <trkpt lat="44.42717" lon="4.49966">
        <ele>691.40002441406</ele>
        <time>2013-02-27T12:47:51.000Z</time>
      </trkpt>
      <trkpt lat="44.42717" lon="4.49965">
        <ele>690.40002441406</ele>
        <time>2013-02-27T12:47:52.000Z</time>
      </trkpt>
      <trkpt lat="44.42717" lon="4.49965">
        <ele>691.79998779297</ele>
        <time>2013-02-27T12:47:53.000Z</time>
      </trkpt>
      <trkpt lat="44.42717" lon="4.49963">
        <ele>692.79998779297</ele>
        <time>2013-02-27T12:47:54.000Z</time>
      </trkpt>
      <trkpt lat="44.42716" lon="4.49963">
        <ele>692.79998779297</ele>
        <time>2013-02-27T12:47:55.000Z</time>
      </trkpt>
      <trkpt lat="44.42716" lon="4.49962">
        <ele>692.79998779297</ele>
        <time>2013-02-27T12:47:56.000Z</time>
      </trkpt>
      <trkpt lat="44.42717" lon="4.49961">
        <ele>693.20001220703</ele>
        <time>2013-02-27T12:47:57.000Z</time>
      </trkpt>
      <trkpt lat="44.42717" lon="4.4996">
        <ele>694.59997558594</ele>
        <time>2013-02-27T12:47:58.000Z</time>
      </trkpt>
      <trkpt lat="44.42717" lon="4.49959">
        <ele>695.20001220703</ele>
        <time>2013-02-27T12:47:59.000Z</time>
      </trkpt>
      <trkpt lat="44.42717" lon="4.49957">
        <ele>694.59997558594</ele>
        <time>2013-02-27T12:48:00.000Z</time>
      </trkpt>
      <trkpt lat="44.42717" lon="4.49956">
        <ele>694.20001220703</ele>
        <time>2013-02-27T12:48:01.000Z</time>
      </trkpt>
      <trkpt lat="44.42717" lon="4.49956">
        <ele>694.59997558594</ele>
        <time>2013-02-27T12:48:02.000Z</time>
      </trkpt>
      <trkpt lat="44.42717" lon="4.49958">
        <ele>694.59997558594</ele>
        <time>2013-02-27T12:48:03.000Z</time>
      </trkpt>
      <trkpt lat="44.42716" lon="4.49957">
        <ele>697.59997558594</ele>
        <time>2013-02-27T12:48:04.000Z</time>
      </trkpt>
      <trkpt lat="44.42718" lon="4.49959">
        <ele>696.20001220703</ele>
        <time>2013-02-27T12:48:05.000Z</time>
      </trkpt>
      <trkpt lat="44.42718" lon="4.49961">
        <ele>696.59997558594</ele>
        <time>2013-02-27T12:48:06.000Z</time>
      </trkpt>
      <trkpt lat="44.42719" lon="4.49963">
        <ele>697</ele>
        <time>2013-02-27T12:48:07.000Z</time>
      </trkpt>
      <trkpt lat="44.4272" lon="4.49964">
        <ele>697</ele>
        <time>2013-02-27T12:48:08.000Z</time>
      </trkpt>
      <trkpt lat="44.42721" lon="4.49964">
        <ele>696.59997558594</ele>
        <time>2013-02-27T12:48:09.000Z</time>
      </trkpt>
      <trkpt lat="44.42721" lon="4.49964">
        <ele>697.59997558594</ele>
        <time>2013-02-27T12:48:10.000Z</time>
      </trkpt>
      <trkpt lat="44.42721" lon="4.49963">
        <ele>698.59997558594</ele>
        <time>2013-02-27T12:48:11.000Z</time>
      </trkpt>
      <trkpt lat="44.4272" lon="4.49963">
        <ele>699</ele>
        <time>2013-02-27T12:48:12.000Z</time>
      </trkpt>
      <trkpt lat="44.4272" lon="4.49963">
        <ele>698.59997558594</ele>
        <time>2013-02-27T12:48:13.000Z</time>
      </trkpt>
      <trkpt lat="44.4272" lon="4.49962">
        <ele>697.59997558594</ele>
        <time>2013-02-27T12:48:14.000Z</time>
      </trkpt>
      <trkpt lat="44.4272" lon="4.49964">
        <ele>698</ele>
        <time>2013-02-27T12:48:15.000Z</time>
      </trkpt>
      <trkpt lat="44.4272" lon="4.49963">
        <ele>697.59997558594</ele>
        <time>2013-02-27T12:48:16.000Z</time>
      </trkpt>
      <trkpt lat="44.42721" lon="4.49964">
        <ele>697.59997558594</ele>
        <time>2013-02-27T12:48:17.000Z</time>
      </trkpt>
      <trkpt lat="44.42721" lon="4.49965">
        <ele>698</ele>
        <time>2013-02-27T12:48:18.000Z</time>
      </trkpt>
      <trkpt lat="44.42721" lon="4.49967">
        <ele>699</ele>
        <time>2013-02-27T12:48:19.000Z</time>
      </trkpt>
      <trkpt lat="44.42721" lon="4.49967">
        <ele>698.59997558594</ele>
        <time>2013-02-27T12:48:20.000Z</time>
      </trkpt>
      <trkpt lat="44.42722" lon="4.49967">
        <ele>697.59997558594</ele>
        <time>2013-02-27T12:48:21.000Z</time>
      </trkpt>
      <trkpt lat="44.42722" lon="4.49966">
        <ele>697.59997558594</ele>
        <time>2013-02-27T12:48:22.000Z</time>
      </trkpt>
      <trkpt lat="44.42722" lon="4.49966">
        <ele>698</ele>
        <time>2013-02-27T12:48:23.000Z</time>
      </trkpt>
      <trkpt lat="44.42721" lon="4.49966">
        <ele>698.59997558594</ele>
        <time>2013-02-27T12:48:24.000Z</time>
      </trkpt>
      <trkpt lat="44.4272" lon="4.49966">
        <ele>699</ele>
        <time>2013-02-27T12:48:25.000Z</time>
      </trkpt>
      <trkpt lat="44.42721" lon="4.49966">
        <ele>699</ele>
        <time>2013-02-27T12:48:26.000Z</time>
      </trkpt>
      <trkpt lat="44.42721" lon="4.49965">
        <ele>699</ele>
        <time>2013-02-27T12:48:27.000Z</time>
      </trkpt>
      <trkpt lat="44.42721" lon="4.49964">
        <ele>698.59997558594</ele>
        <time>2013-02-27T12:48:28.000Z</time>
      </trkpt>
      <trkpt lat="44.42721" lon="4.49964">
        <ele>698.59997558594</ele>
        <time>2013-02-27T12:48:29.000Z</time>
      </trkpt>
      <trkpt lat="44.42721" lon="4.49967">
        <ele>697.59997558594</ele>
        <time>2013-02-27T12:48:30.000Z</time>
      </trkpt>
      <trkpt lat="44.42721" lon="4.49968">
        <ele>698.59997558594</ele>
        <time>2013-02-27T12:48:31.000Z</time>
      </trkpt>
      <trkpt lat="44.42721" lon="4.49969">
        <ele>698.59997558594</ele>
        <time>2013-02-27T12:48:32.000Z</time>
      </trkpt>
      <trkpt lat="44.42721" lon="4.4997">
        <ele>698.59997558594</ele>
        <time>2013-02-27T12:48:33.000Z</time>
      </trkpt>
      <trkpt lat="44.42721" lon="4.49969">
        <ele>699</ele>
        <time>2013-02-27T12:48:34.000Z</time>
      </trkpt>
      <trkpt lat="44.4272" lon="4.49969">
        <ele>700</ele>
        <time>2013-02-27T12:48:35.000Z</time>
      </trkpt>
      <trkpt lat="44.42719" lon="4.49968">
        <ele>700.40002441406</ele>
        <time>2013-02-27T12:48:36.000Z</time>
      </trkpt>
      <trkpt lat="44.42719" lon="4.49968">
        <ele>701.40002441406</ele>
        <time>2013-02-27T12:48:37.000Z</time>
      </trkpt>
      <trkpt lat="44.42718" lon="4.49967">
        <ele>701.79998779297</ele>
        <time>2013-02-27T12:48:38.000Z</time>
      </trkpt>
      <trkpt lat="44.42718" lon="4.49966">
        <ele>702.40002441406</ele>
        <time>2013-02-27T12:48:39.000Z</time>
      </trkpt>
      <trkpt lat="44.42717" lon="4.49965">
        <ele>702.79998779297</ele>
        <time>2013-02-27T12:48:40.000Z</time>
      </trkpt>
      <trkpt lat="44.42718" lon="4.49964">
        <ele>702.40002441406</ele>
        <time>2013-02-27T12:48:41.000Z</time>
      </trkpt>
      <trkpt lat="44.42717" lon="4.49963">
        <ele>702.79998779297</ele>
        <time>2013-02-27T12:48:42.000Z</time>
      </trkpt>
      <trkpt lat="44.42717" lon="4.49963">
        <ele>703.40002441406</ele>
        <time>2013-02-27T12:48:43.000Z</time>
      </trkpt>
      <trkpt lat="44.42718" lon="4.49963">
        <ele>703.40002441406</ele>
        <time>2013-02-27T12:48:44.000Z</time>
      </trkpt>
      <trkpt lat="44.42717" lon="4.49963">
        <ele>703.40002441406</ele>
        <time>2013-02-27T12:48:45.000Z</time>
      </trkpt>
      <trkpt lat="44.42718" lon="4.49963">
        <ele>702.79998779297</ele>
        <time>2013-02-27T12:48:46.000Z</time>
      </trkpt>
      <trkpt lat="44.42718" lon="4.49963">
        <ele>702.40002441406</ele>
        <time>2013-02-27T12:48:47.000Z</time>
      </trkpt>
      <trkpt lat="44.42719" lon="4.49963">
        <ele>702.40002441406</ele>
        <time>2013-02-27T12:48:48.000Z</time>
      </trkpt>
      <trkpt lat="44.42719" lon="4.49965">
        <ele>701.79998779297</ele>
        <time>2013-02-27T12:48:49.000Z</time>
      </trkpt>
      <trkpt lat="44.42719" lon="4.49966">
        <ele>701</ele>
        <time>2013-02-27T12:48:50.000Z</time>
      </trkpt>
      <trkpt lat="44.4272" lon="4.49966">
        <ele>700.40002441406</ele>
        <time>2013-02-27T12:48:51.000Z</time>
      </trkpt>
      <trkpt lat="44.4272" lon="4.49965">
        <ele>701.40002441406</ele>
        <time>2013-02-27T12:48:52.000Z</time>
      </trkpt>
      <trkpt lat="44.42721" lon="4.49965">
        <ele>699.40002441406</ele>
        <time>2013-02-27T12:48:53.000Z</time>
      </trkpt>
      <trkpt lat="44.42721" lon="4.49965">
        <ele>698.59997558594</ele>
        <time>2013-02-27T12:48:54.000Z</time>
      </trkpt>
      <trkpt lat="44.42721" lon="4.49965">
        <ele>697</ele>
        <time>2013-02-27T12:48:55.000Z</time>
      </trkpt>
      <trkpt lat="44.42722" lon="4.49965">
        <ele>694.20001220703</ele>
        <time>2013-02-27T12:48:56.000Z</time>
      </trkpt>
      <trkpt lat="44.42721" lon="4.49962">
        <ele>697</ele>
        <time>2013-02-27T12:48:57.000Z</time>
      </trkpt>
      <trkpt lat="44.42722" lon="4.49962">
        <ele>697</ele>
        <time>2013-02-27T12:48:58.000Z</time>
      </trkpt>
      <trkpt lat="44.42722" lon="4.49961">
        <ele>698.59997558594</ele>
        <time>2013-02-27T12:48:59.000Z</time>
      </trkpt>
      <trkpt lat="44.42723" lon="4.49959">
        <ele>701</ele>
        <time>2013-02-27T12:49:00.000Z</time>
      </trkpt>
      <trkpt lat="44.42723" lon="4.49958">
        <ele>702.79998779297</ele>
        <time>2013-02-27T12:49:01.000Z</time>
      </trkpt>
      <trkpt lat="44.42724" lon="4.49957">
        <ele>703.79998779297</ele>
        <time>2013-02-27T12:49:02.000Z</time>
      </trkpt>
      <trkpt lat="44.42725" lon="4.49958">
        <ele>702.79998779297</ele>
        <time>2013-02-27T12:49:03.000Z</time>
      </trkpt>
      <trkpt lat="44.42725" lon="4.49958">
        <ele>702.40002441406</ele>
        <time>2013-02-27T12:49:04.000Z</time>
      </trkpt>
      <trkpt lat="44.42726" lon="4.49958">
        <ele>702.79998779297</ele>
        <time>2013-02-27T12:49:05.000Z</time>
      </trkpt>
      <trkpt lat="44.42726" lon="4.49958">
        <ele>701.79998779297</ele>
        <time>2013-02-27T12:49:06.000Z</time>
      </trkpt>
      <trkpt lat="44.42726" lon="4.49958">
        <ele>701.40002441406</ele>
        <time>2013-02-27T12:49:07.000Z</time>
      </trkpt>
      <trkpt lat="44.42727" lon="4.49958">
        <ele>701.79998779297</ele>
        <time>2013-02-27T12:49:08.000Z</time>
      </trkpt>
      <trkpt lat="44.42728" lon="4.49959">
        <ele>701</ele>
        <time>2013-02-27T12:49:09.000Z</time>
      </trkpt>
      <trkpt lat="44.42728" lon="4.49958">
        <ele>701.79998779297</ele>
        <time>2013-02-27T12:49:10.000Z</time>
      </trkpt>
      <trkpt lat="44.42729" lon="4.49958">
        <ele>701.79998779297</ele>
        <time>2013-02-27T12:49:11.000Z</time>
      </trkpt>
      <trkpt lat="44.42729" lon="4.49958">
        <ele>702.79998779297</ele>
        <time>2013-02-27T12:49:12.000Z</time>
      </trkpt>
      <trkpt lat="44.42729" lon="4.49959">
        <ele>703.40002441406</ele>
        <time>2013-02-27T12:49:13.000Z</time>
      </trkpt>
      <trkpt lat="44.4273" lon="4.49959">
        <ele>703.40002441406</ele>
        <time>2013-02-27T12:49:14.000Z</time>
      </trkpt>
      <trkpt lat="44.4273" lon="4.49959">
        <ele>703.40002441406</ele>
        <time>2013-02-27T12:49:15.000Z</time>
      </trkpt>
      <trkpt lat="44.42731" lon="4.49959">
        <ele>702.79998779297</ele>
        <time>2013-02-27T12:49:16.000Z</time>
      </trkpt>
      <trkpt lat="44.42731" lon="4.49959">
        <ele>702.79998779297</ele>
        <time>2013-02-27T12:49:17.000Z</time>
      </trkpt>
      <trkpt lat="44.42731" lon="4.49959">
        <ele>702.79998779297</ele>
        <time>2013-02-27T12:49:18.000Z</time>
      </trkpt>
      <trkpt lat="44.42731" lon="4.49959">
        <ele>703.40002441406</ele>
        <time>2013-02-27T12:49:19.000Z</time>
      </trkpt>
      <trkpt lat="44.42731" lon="4.49959">
        <ele>703.40002441406</ele>
        <time>2013-02-27T12:49:20.000Z</time>
      </trkpt>
      <trkpt lat="44.42731" lon="4.49958">
        <ele>703.40002441406</ele>
        <time>2013-02-27T12:49:21.000Z</time>
      </trkpt>
      <trkpt lat="44.42731" lon="4.49957">
        <ele>703.40002441406</ele>
        <time>2013-02-27T12:49:22.000Z</time>
      </trkpt>
      <trkpt lat="44.42731" lon="4.49957">
        <ele>702.79998779297</ele>
        <time>2013-02-27T12:49:23.000Z</time>
      </trkpt>
      <trkpt lat="44.42732" lon="4.49958">
        <ele>702.40002441406</ele>
        <time>2013-02-27T12:49:24.000Z</time>
      </trkpt>
      <trkpt lat="44.42732" lon="4.49959">
        <ele>702.40002441406</ele>
        <time>2013-02-27T12:49:25.000Z</time>
      </trkpt>
      <trkpt lat="44.42732" lon="4.49961">
        <ele>701.40002441406</ele>
        <time>2013-02-27T12:49:26.000Z</time>
      </trkpt>
      <trkpt lat="44.42732" lon="4.49962">
        <ele>701</ele>
        <time>2013-02-27T12:49:27.000Z</time>
      </trkpt>
      <trkpt lat="44.42731" lon="4.49963">
        <ele>701</ele>
        <time>2013-02-27T12:49:28.000Z</time>
      </trkpt>
      <trkpt lat="44.42731" lon="4.49965">
        <ele>701</ele>
        <time>2013-02-27T12:49:29.000Z</time>
      </trkpt>
      <trkpt lat="44.42731" lon="4.49966">
        <ele>701</ele>
        <time>2013-02-27T12:49:30.000Z</time>
      </trkpt>
      <trkpt lat="44.42731" lon="4.49967">
        <ele>700.40002441406</ele>
        <time>2013-02-27T12:49:31.000Z</time>
      </trkpt>
      <trkpt lat="44.42731" lon="4.49968">
        <ele>700.40002441406</ele>
        <time>2013-02-27T12:49:32.000Z</time>
      </trkpt>
      <trkpt lat="44.4273" lon="4.49968">
        <ele>700</ele>
        <time>2013-02-27T12:49:33.000Z</time>
      </trkpt>
      <trkpt lat="44.42731" lon="4.49968">
        <ele>700.40002441406</ele>
        <time>2013-02-27T12:49:34.000Z</time>
      </trkpt>
      <trkpt lat="44.42731" lon="4.49968">
        <ele>701</ele>
        <time>2013-02-27T12:49:35.000Z</time>
      </trkpt>
      <trkpt lat="44.42731" lon="4.49968">
        <ele>701</ele>
        <time>2013-02-27T12:49:36.000Z</time>
      </trkpt>
      <trkpt lat="44.42731" lon="4.49968">
        <ele>701.40002441406</ele>
        <time>2013-02-27T12:49:37.000Z</time>
      </trkpt>
      <trkpt lat="44.42731" lon="4.49969">
        <ele>701.79998779297</ele>
        <time>2013-02-27T12:49:38.000Z</time>
      </trkpt>
      <trkpt lat="44.42731" lon="4.49969">
        <ele>702.40002441406</ele>
        <time>2013-02-27T12:49:39.000Z</time>
      </trkpt>
      <trkpt lat="44.42731" lon="4.49969">
        <ele>702.40002441406</ele>
        <time>2013-02-27T12:49:40.000Z</time>
      </trkpt>
      <trkpt lat="44.42731" lon="4.49969">
        <ele>702.79998779297</ele>
        <time>2013-02-27T12:49:41.000Z</time>
      </trkpt>
      <trkpt lat="44.42731" lon="4.49969">
        <ele>703.40002441406</ele>
        <time>2013-02-27T12:49:42.000Z</time>
      </trkpt>
      <trkpt lat="44.42731" lon="4.49969">
        <ele>703.79998779297</ele>
        <time>2013-02-27T12:49:43.000Z</time>
      </trkpt>
      <trkpt lat="44.42731" lon="4.49969">
        <ele>703.79998779297</ele>
        <time>2013-02-27T12:49:44.000Z</time>
      </trkpt>
      <trkpt lat="44.42731" lon="4.49969">
        <ele>704.40002441406</ele>
        <time>2013-02-27T12:49:45.000Z</time>
      </trkpt>
      <trkpt lat="44.42731" lon="4.49969">
        <ele>704.40002441406</ele>
        <time>2013-02-27T12:49:46.000Z</time>
      </trkpt>
      <trkpt lat="44.42731" lon="4.49969">
        <ele>704.79998779297</ele>
        <time>2013-02-27T12:49:47.000Z</time>
      </trkpt>
      <trkpt lat="44.42731" lon="4.49969">
        <ele>704.79998779297</ele>
        <time>2013-02-27T12:49:48.000Z</time>
      </trkpt>
      <trkpt lat="44.42731" lon="4.49969">
        <ele>705.20001220703</ele>
        <time>2013-02-27T12:49:49.000Z</time>
      </trkpt>
      <trkpt lat="44.42731" lon="4.49969">
        <ele>705.79998779297</ele>
        <time>2013-02-27T12:49:50.000Z</time>
      </trkpt>
      <trkpt lat="44.42731" lon="4.4997">
        <ele>705.79998779297</ele>
        <time>2013-02-27T12:49:51.000Z</time>
      </trkpt>
      <trkpt lat="44.42731" lon="4.4997">
        <ele>706.20001220703</ele>
        <time>2013-02-27T12:49:52.000Z</time>
      </trkpt>
      <trkpt lat="44.42731" lon="4.4997">
        <ele>706.20001220703</ele>
        <time>2013-02-27T12:49:53.000Z</time>
      </trkpt>
      <trkpt lat="44.42731" lon="4.4997">
        <ele>706.20001220703</ele>
        <time>2013-02-27T12:49:54.000Z</time>
      </trkpt>
      <trkpt lat="44.4273" lon="4.4997">
        <ele>705.79998779297</ele>
        <time>2013-02-27T12:49:55.000Z</time>
      </trkpt>
      <trkpt lat="44.4273" lon="4.49971">
        <ele>705.79998779297</ele>
        <time>2013-02-27T12:49:56.000Z</time>
      </trkpt>
      <trkpt lat="44.4273" lon="4.49971">
        <ele>705.20001220703</ele>
        <time>2013-02-27T12:49:57.000Z</time>
      </trkpt>
      <trkpt lat="44.4273" lon="4.49971">
        <ele>705.20001220703</ele>
        <time>2013-02-27T12:49:58.000Z</time>
      </trkpt>
      <trkpt lat="44.4273" lon="4.49971">
        <ele>705.79998779297</ele>
        <time>2013-02-27T12:49:59.000Z</time>
      </trkpt>
      <trkpt lat="44.4273" lon="4.4997">
        <ele>705.20001220703</ele>
        <time>2013-02-27T12:50:00.000Z</time>
      </trkpt>
      <trkpt lat="44.4273" lon="4.49968">
        <ele>704.40002441406</ele>
        <time>2013-02-27T12:50:01.000Z</time>
      </trkpt>
      <trkpt lat="44.4273" lon="4.49966">
        <ele>703.40002441406</ele>
        <time>2013-02-27T12:50:02.000Z</time>
      </trkpt>
      <trkpt lat="44.4273" lon="4.49964">
        <ele>703.40002441406</ele>
        <time>2013-02-27T12:50:03.000Z</time>
      </trkpt>
      <trkpt lat="44.4273" lon="4.49962">
        <ele>702.79998779297</ele>
        <time>2013-02-27T12:50:04.000Z</time>
      </trkpt>
      <trkpt lat="44.4273" lon="4.49961">
        <ele>702.40002441406</ele>
        <time>2013-02-27T12:50:05.000Z</time>
      </trkpt>
      <trkpt lat="44.4273" lon="4.49959">
        <ele>701.79998779297</ele>
        <time>2013-02-27T12:50:06.000Z</time>
      </trkpt>
      <trkpt lat="44.4273" lon="4.49958">
        <ele>701.40002441406</ele>
        <time>2013-02-27T12:50:07.000Z</time>
      </trkpt>
      <trkpt lat="44.42729" lon="4.49956">
        <ele>701.40002441406</ele>
        <time>2013-02-27T12:50:08.000Z</time>
      </trkpt>
      <trkpt lat="44.42729" lon="4.49955">
        <ele>701.40002441406</ele>
        <time>2013-02-27T12:50:09.000Z</time>
      </trkpt>
      <trkpt lat="44.42728" lon="4.49954">
        <ele>701</ele>
        <time>2013-02-27T12:50:10.000Z</time>
      </trkpt>
      <trkpt lat="44.42727" lon="4.49952">
        <ele>700.40002441406</ele>
        <time>2013-02-27T12:50:11.000Z</time>
      </trkpt>
      <trkpt lat="44.42727" lon="4.49951">
        <ele>700.40002441406</ele>
        <time>2013-02-27T12:50:12.000Z</time>
      </trkpt>
      <trkpt lat="44.42726" lon="4.49949">
        <ele>700.40002441406</ele>
        <time>2013-02-27T12:50:13.000Z</time>
      </trkpt>
      <trkpt lat="44.42726" lon="4.49947">
        <ele>699.40002441406</ele>
        <time>2013-02-27T12:50:14.000Z</time>
      </trkpt>
      <trkpt lat="44.42725" lon="4.49946">
        <ele>699.40002441406</ele>
        <time>2013-02-27T12:50:15.000Z</time>
      </trkpt>
      <trkpt lat="44.42723" lon="4.49945">
        <ele>699.40002441406</ele>
        <time>2013-02-27T12:50:16.000Z</time>
      </trkpt>
      <trkpt lat="44.42722" lon="4.49944">
        <ele>699.40002441406</ele>
        <time>2013-02-27T12:50:17.000Z</time>
      </trkpt>
      <trkpt lat="44.42721" lon="4.49944">
        <ele>699</ele>
        <time>2013-02-27T12:50:18.000Z</time>
      </trkpt>
      <trkpt lat="44.4272" lon="4.49943">
        <ele>698.59997558594</ele>
        <time>2013-02-27T12:50:19.000Z</time>
      </trkpt>
      <trkpt lat="44.42719" lon="4.49943">
        <ele>698</ele>
        <time>2013-02-27T12:50:20.000Z</time>
      </trkpt>
      <trkpt lat="44.42718" lon="4.49942">
        <ele>698</ele>
        <time>2013-02-27T12:50:21.000Z</time>
      </trkpt>
      <trkpt lat="44.42717" lon="4.49941">
        <ele>697.59997558594</ele>
        <time>2013-02-27T12:50:22.000Z</time>
      </trkpt>
      <trkpt lat="44.42716" lon="4.49941">
        <ele>697</ele>
        <time>2013-02-27T12:50:23.000Z</time>
      </trkpt>
      <trkpt lat="44.42715" lon="4.4994">
        <ele>696.59997558594</ele>
        <time>2013-02-27T12:50:24.000Z</time>
      </trkpt>
      <trkpt lat="44.42714" lon="4.4994">
        <ele>696.20001220703</ele>
        <time>2013-02-27T12:50:25.000Z</time>
      </trkpt>
      <trkpt lat="44.42714" lon="4.49939">
        <ele>696.20001220703</ele>
        <time>2013-02-27T12:50:26.000Z</time>
      </trkpt>
      <trkpt lat="44.42713" lon="4.49939">
        <ele>696.20001220703</ele>
        <time>2013-02-27T12:50:27.000Z</time>
      </trkpt>
      <trkpt lat="44.42712" lon="4.49939">
        <ele>695.59997558594</ele>
        <time>2013-02-27T12:50:28.000Z</time>
      </trkpt>
      <trkpt lat="44.42711" lon="4.49939">
        <ele>695.20001220703</ele>
        <time>2013-02-27T12:50:29.000Z</time>
      </trkpt>
      <trkpt lat="44.4271" lon="4.49938">
        <ele>694.59997558594</ele>
        <time>2013-02-27T12:50:30.000Z</time>
      </trkpt>
      <trkpt lat="44.42709" lon="4.49938">
        <ele>694.20001220703</ele>
        <time>2013-02-27T12:50:31.000Z</time>
      </trkpt>
      <trkpt lat="44.42709" lon="4.49938">
        <ele>693.79998779297</ele>
        <time>2013-02-27T12:50:32.000Z</time>
      </trkpt>
      <trkpt lat="44.42708" lon="4.49938">
        <ele>693.20001220703</ele>
        <time>2013-02-27T12:50:33.000Z</time>
      </trkpt>
      <trkpt lat="44.42707" lon="4.49938">
        <ele>692.79998779297</ele>
        <time>2013-02-27T12:50:34.000Z</time>
      </trkpt>
      <trkpt lat="44.42706" lon="4.49939">
        <ele>692.79998779297</ele>
        <time>2013-02-27T12:50:35.000Z</time>
      </trkpt>
      <trkpt lat="44.42705" lon="4.49939">
        <ele>692.79998779297</ele>
        <time>2013-02-27T12:50:36.000Z</time>
      </trkpt>
      <trkpt lat="44.42704" lon="4.49939">
        <ele>692.79998779297</ele>
        <time>2013-02-27T12:50:37.000Z</time>
      </trkpt>
      <trkpt lat="44.42703" lon="4.49939">
        <ele>693.20001220703</ele>
        <time>2013-02-27T12:50:38.000Z</time>
      </trkpt>
      <trkpt lat="44.42703" lon="4.49939">
        <ele>693.79998779297</ele>
        <time>2013-02-27T12:50:39.000Z</time>
      </trkpt>
      <trkpt lat="44.42702" lon="4.49939">
        <ele>694.20001220703</ele>
        <time>2013-02-27T12:50:40.000Z</time>
      </trkpt>
      <trkpt lat="44.42702" lon="4.49939">
        <ele>694.59997558594</ele>
        <time>2013-02-27T12:50:41.000Z</time>
      </trkpt>
      <trkpt lat="44.42702" lon="4.49939">
        <ele>695.20001220703</ele>
        <time>2013-02-27T12:50:42.000Z</time>
      </trkpt>
      <trkpt lat="44.42702" lon="4.49939">
        <ele>695.59997558594</ele>
        <time>2013-02-27T12:50:43.000Z</time>
      </trkpt>
      <trkpt lat="44.42702" lon="4.4994">
        <ele>696.20001220703</ele>
        <time>2013-02-27T12:50:44.000Z</time>
      </trkpt>
      <trkpt lat="44.42702" lon="4.4994">
        <ele>696.59997558594</ele>
        <time>2013-02-27T12:50:45.000Z</time>
      </trkpt>
      <trkpt lat="44.42702" lon="4.4994">
        <ele>696.59997558594</ele>
        <time>2013-02-27T12:50:46.000Z</time>
      </trkpt>
      <trkpt lat="44.42702" lon="4.4994">
        <ele>697</ele>
        <time>2013-02-27T12:50:47.000Z</time>
      </trkpt>
      <trkpt lat="44.42702" lon="4.4994">
        <ele>697</ele>
        <time>2013-02-27T12:50:48.000Z</time>
      </trkpt>
      <trkpt lat="44.42702" lon="4.49939">
        <ele>697</ele>
        <time>2013-02-27T12:50:49.000Z</time>
      </trkpt>
      <trkpt lat="44.42702" lon="4.49939">
        <ele>697</ele>
        <time>2013-02-27T12:50:50.000Z</time>
      </trkpt>
      <trkpt lat="44.42702" lon="4.49939">
        <ele>697.59997558594</ele>
        <time>2013-02-27T12:50:51.000Z</time>
      </trkpt>
      <trkpt lat="44.42702" lon="4.49939">
        <ele>697.59997558594</ele>
        <time>2013-02-27T12:50:52.000Z</time>
      </trkpt>
      <trkpt lat="44.42702" lon="4.49939">
        <ele>697.59997558594</ele>
        <time>2013-02-27T12:50:53.000Z</time>
      </trkpt>
      <trkpt lat="44.42702" lon="4.49939">
        <ele>697.59997558594</ele>
        <time>2013-02-27T12:50:54.000Z</time>
      </trkpt>
      <trkpt lat="44.42702" lon="4.49939">
        <ele>697.59997558594</ele>
        <time>2013-02-27T12:50:55.000Z</time>
      </trkpt>
      <trkpt lat="44.42702" lon="4.4994">
        <ele>698</ele>
        <time>2013-02-27T12:50:56.000Z</time>
      </trkpt>
      <trkpt lat="44.42702" lon="4.4994">
        <ele>698</ele>
        <time>2013-02-27T12:50:57.000Z</time>
      </trkpt>
      <trkpt lat="44.42701" lon="4.49939">
        <ele>697.59997558594</ele>
        <time>2013-02-27T12:50:58.000Z</time>
      </trkpt>
      <trkpt lat="44.42701" lon="4.49939">
        <ele>697.59997558594</ele>
        <time>2013-02-27T12:50:59.000Z</time>
      </trkpt>
      <trkpt lat="44.42701" lon="4.4994">
        <ele>698</ele>
        <time>2013-02-27T12:51:00.000Z</time>
      </trkpt>
      <trkpt lat="44.42701" lon="4.4994">
        <ele>698</ele>
        <time>2013-02-27T12:51:01.000Z</time>
      </trkpt>
      <trkpt lat="44.42701" lon="4.4994">
        <ele>698.59997558594</ele>
        <time>2013-02-27T12:51:02.000Z</time>
      </trkpt>
      <trkpt lat="44.42701" lon="4.4994">
        <ele>699</ele>
        <time>2013-02-27T12:51:03.000Z</time>
      </trkpt>
      <trkpt lat="44.42701" lon="4.4994">
        <ele>699</ele>
        <time>2013-02-27T12:51:04.000Z</time>
      </trkpt>
      <trkpt lat="44.42701" lon="4.4994">
        <ele>699.40002441406</ele>
        <time>2013-02-27T12:51:05.000Z</time>
      </trkpt>
      <trkpt lat="44.42701" lon="4.4994">
        <ele>699.40002441406</ele>
        <time>2013-02-27T12:51:06.000Z</time>
      </trkpt>
      <trkpt lat="44.42701" lon="4.4994">
        <ele>699.40002441406</ele>
        <time>2013-02-27T12:51:07.000Z</time>
      </trkpt>
      <trkpt lat="44.42701" lon="4.4994">
        <ele>700</ele>
        <time>2013-02-27T12:51:08.000Z</time>
      </trkpt>
      <trkpt lat="44.42701" lon="4.4994">
        <ele>700</ele>
        <time>2013-02-27T12:51:09.000Z</time>
      </trkpt>
      <trkpt lat="44.42701" lon="4.49941">
        <ele>700.40002441406</ele>
        <time>2013-02-27T12:51:10.000Z</time>
      </trkpt>
      <trkpt lat="44.42701" lon="4.49941">
        <ele>700.40002441406</ele>
        <time>2013-02-27T12:51:11.000Z</time>
      </trkpt>
      <trkpt lat="44.42701" lon="4.49941">
        <ele>700.40002441406</ele>
        <time>2013-02-27T12:51:12.000Z</time>
      </trkpt>
      <trkpt lat="44.42702" lon="4.4994">
        <ele>700.40002441406</ele>
        <time>2013-02-27T12:51:13.000Z</time>
      </trkpt>
      <trkpt lat="44.42702" lon="4.49939">
        <ele>700</ele>
        <time>2013-02-27T12:51:14.000Z</time>
      </trkpt>
      <trkpt lat="44.42702" lon="4.49939">
        <ele>700</ele>
        <time>2013-02-27T12:51:15.000Z</time>
      </trkpt>
      <trkpt lat="44.42701" lon="4.49939">
        <ele>699.40002441406</ele>
        <time>2013-02-27T12:51:16.000Z</time>
      </trkpt>
      <trkpt lat="44.42701" lon="4.49939">
        <ele>699.40002441406</ele>
        <time>2013-02-27T12:51:17.000Z</time>
      </trkpt>
      <trkpt lat="44.42701" lon="4.4994">
        <ele>699.40002441406</ele>
        <time>2013-02-27T12:51:18.000Z</time>
      </trkpt>
      <trkpt lat="44.42701" lon="4.4994">
        <ele>699.40002441406</ele>
        <time>2013-02-27T12:51:19.000Z</time>
      </trkpt>
      <trkpt lat="44.42701" lon="4.4994">
        <ele>699.40002441406</ele>
        <time>2013-02-27T12:51:20.000Z</time>
      </trkpt>
      <trkpt lat="44.42701" lon="4.4994">
        <ele>699.40002441406</ele>
        <time>2013-02-27T12:51:21.000Z</time>
      </trkpt>
      <trkpt lat="44.42701" lon="4.4994">
        <ele>699.40002441406</ele>
        <time>2013-02-27T12:51:22.000Z</time>
      </trkpt>
      <trkpt lat="44.42701" lon="4.49939">
        <ele>699.40002441406</ele>
        <time>2013-02-27T12:51:23.000Z</time>
      </trkpt>
      <trkpt lat="44.42701" lon="4.49939">
        <ele>699.40002441406</ele>
        <time>2013-02-27T12:51:24.000Z</time>
      </trkpt>
      <trkpt lat="44.42701" lon="4.4994">
        <ele>699.40002441406</ele>
        <time>2013-02-27T12:51:25.000Z</time>
      </trkpt>
      <trkpt lat="44.42701" lon="4.4994">
        <ele>700</ele>
        <time>2013-02-27T12:51:26.000Z</time>
      </trkpt>
      <trkpt lat="44.42701" lon="4.4994">
        <ele>700</ele>
        <time>2013-02-27T12:51:27.000Z</time>
      </trkpt>
      <trkpt lat="44.42701" lon="4.49941">
        <ele>700</ele>
        <time>2013-02-27T12:51:28.000Z</time>
      </trkpt>
      <trkpt lat="44.42701" lon="4.49941">
        <ele>700</ele>
        <time>2013-02-27T12:51:29.000Z</time>
      </trkpt>
      <trkpt lat="44.42701" lon="4.49941">
        <ele>700</ele>
        <time>2013-02-27T12:51:30.000Z</time>
      </trkpt>
      <trkpt lat="44.42701" lon="4.49941">
        <ele>700</ele>
        <time>2013-02-27T12:51:31.000Z</time>
      </trkpt>
      <trkpt lat="44.427" lon="4.49942">
        <ele>700.40002441406</ele>
        <time>2013-02-27T12:51:32.000Z</time>
      </trkpt>
      <trkpt lat="44.427" lon="4.49942">
        <ele>700</ele>
        <time>2013-02-27T12:51:33.000Z</time>
      </trkpt>
      <trkpt lat="44.427" lon="4.49942">
        <ele>700</ele>
        <time>2013-02-27T12:51:34.000Z</time>
      </trkpt>
      <trkpt lat="44.427" lon="4.49942">
        <ele>699.40002441406</ele>
        <time>2013-02-27T12:51:35.000Z</time>
      </trkpt>
      <trkpt lat="44.427" lon="4.49942">
        <ele>700</ele>
        <time>2013-02-27T12:51:36.000Z</time>
      </trkpt>
      <trkpt lat="44.427" lon="4.49942">
        <ele>700</ele>
        <time>2013-02-27T12:51:37.000Z</time>
      </trkpt>
      <trkpt lat="44.427" lon="4.49941">
        <ele>700</ele>
        <time>2013-02-27T12:51:38.000Z</time>
      </trkpt>
      <trkpt lat="44.42701" lon="4.49941">
        <ele>700</ele>
        <time>2013-02-27T12:51:39.000Z</time>
      </trkpt>
      <trkpt lat="44.42701" lon="4.49941">
        <ele>700</ele>
        <time>2013-02-27T12:51:40.000Z</time>
      </trkpt>
      <trkpt lat="44.42701" lon="4.49941">
        <ele>700</ele>
        <time>2013-02-27T12:51:41.000Z</time>
      </trkpt>
      <trkpt lat="44.42701" lon="4.49941">
        <ele>700</ele>
        <time>2013-02-27T12:51:42.000Z</time>
      </trkpt>
      <trkpt lat="44.42701" lon="4.49941">
        <ele>700</ele>
        <time>2013-02-27T12:51:43.000Z</time>
      </trkpt>
      <trkpt lat="44.42701" lon="4.49941">
        <ele>700.40002441406</ele>
        <time>2013-02-27T12:51:44.000Z</time>
      </trkpt>
      <trkpt lat="44.42701" lon="4.49941">
        <ele>700.40002441406</ele>
        <time>2013-02-27T12:51:45.000Z</time>
      </trkpt>
      <trkpt lat="44.42702" lon="4.49941">
        <ele>700.40002441406</ele>
        <time>2013-02-27T12:51:46.000Z</time>
      </trkpt>
      <trkpt lat="44.42702" lon="4.49941">
        <ele>700.40002441406</ele>
        <time>2013-02-27T12:51:47.000Z</time>
      </trkpt>
      <trkpt lat="44.42701" lon="4.49941">
        <ele>700</ele>
        <time>2013-02-27T12:51:48.000Z</time>
      </trkpt>
      <trkpt lat="44.42702" lon="4.4994">
        <ele>700</ele>
        <time>2013-02-27T12:51:49.000Z</time>
      </trkpt>
      <trkpt lat="44.42702" lon="4.4994">
        <ele>699.40002441406</ele>
        <time>2013-02-27T12:51:50.000Z</time>
      </trkpt>
      <trkpt lat="44.42702" lon="4.49938">
        <ele>699.40002441406</ele>
        <time>2013-02-27T12:51:51.000Z</time>
      </trkpt>
      <trkpt lat="44.42703" lon="4.49937">
        <ele>700.40002441406</ele>
        <time>2013-02-27T12:51:52.000Z</time>
      </trkpt>
      <trkpt lat="44.42703" lon="4.49937">
        <ele>700.40002441406</ele>
        <time>2013-02-27T12:51:53.000Z</time>
      </trkpt>
      <trkpt lat="44.42704" lon="4.49937">
        <ele>700.40002441406</ele>
        <time>2013-02-27T12:51:54.000Z</time>
      </trkpt>
      <trkpt lat="44.42704" lon="4.49937">
        <ele>700.40002441406</ele>
        <time>2013-02-27T12:51:55.000Z</time>
      </trkpt>
      <trkpt lat="44.42704" lon="4.49937">
        <ele>700.40002441406</ele>
        <time>2013-02-27T12:51:56.000Z</time>
      </trkpt>
      <trkpt lat="44.42704" lon="4.49937">
        <ele>700</ele>
        <time>2013-02-27T12:51:57.000Z</time>
      </trkpt>
      <trkpt lat="44.42703" lon="4.49937">
        <ele>700</ele>
        <time>2013-02-27T12:51:58.000Z</time>
      </trkpt>
      <trkpt lat="44.42703" lon="4.49937">
        <ele>700.40002441406</ele>
        <time>2013-02-27T12:51:59.000Z</time>
      </trkpt>
      <trkpt lat="44.42703" lon="4.49937">
        <ele>700</ele>
        <time>2013-02-27T12:52:00.000Z</time>
      </trkpt>
      <trkpt lat="44.42703" lon="4.49937">
        <ele>700</ele>
        <time>2013-02-27T12:52:01.000Z</time>
      </trkpt>
      <trkpt lat="44.42704" lon="4.49938">
        <ele>699.40002441406</ele>
        <time>2013-02-27T12:52:02.000Z</time>
      </trkpt>
      <trkpt lat="44.42704" lon="4.49939">
        <ele>700</ele>
        <time>2013-02-27T12:52:03.000Z</time>
      </trkpt>
      <trkpt lat="44.42704" lon="4.49939">
        <ele>699.40002441406</ele>
        <time>2013-02-27T12:52:04.000Z</time>
      </trkpt>
      <trkpt lat="44.42704" lon="4.4994">
        <ele>699.40002441406</ele>
        <time>2013-02-27T12:52:05.000Z</time>
      </trkpt>
      <trkpt lat="44.42704" lon="4.4994">
        <ele>699.40002441406</ele>
        <time>2013-02-27T12:52:06.000Z</time>
      </trkpt>
      <trkpt lat="44.42704" lon="4.4994">
        <ele>699.40002441406</ele>
        <time>2013-02-27T12:52:07.000Z</time>
      </trkpt>
      <trkpt lat="44.42704" lon="4.4994">
        <ele>699.40002441406</ele>
        <time>2013-02-27T12:52:08.000Z</time>
      </trkpt>
      <trkpt lat="44.42704" lon="4.4994">
        <ele>699.40002441406</ele>
        <time>2013-02-27T12:52:09.000Z</time>
      </trkpt>
      <trkpt lat="44.42704" lon="4.4994">
        <ele>699.40002441406</ele>
        <time>2013-02-27T12:52:10.000Z</time>
      </trkpt>
      <trkpt lat="44.42704" lon="4.49939">
        <ele>699.40002441406</ele>
        <time>2013-02-27T12:52:11.000Z</time>
      </trkpt>
      <trkpt lat="44.42704" lon="4.49939">
        <ele>699.40002441406</ele>
        <time>2013-02-27T12:52:12.000Z</time>
      </trkpt>
      <trkpt lat="44.42704" lon="4.49939">
        <ele>699.40002441406</ele>
        <time>2013-02-27T12:52:13.000Z</time>
      </trkpt>
      <trkpt lat="44.42705" lon="4.49939">
        <ele>699.40002441406</ele>
        <time>2013-02-27T12:52:14.000Z</time>
      </trkpt>
      <trkpt lat="44.42705" lon="4.49938">
        <ele>699.40002441406</ele>
        <time>2013-02-27T12:52:15.000Z</time>
      </trkpt>
      <trkpt lat="44.42705" lon="4.49938">
        <ele>699.40002441406</ele>
        <time>2013-02-27T12:52:16.000Z</time>
      </trkpt>
      <trkpt lat="44.42705" lon="4.49938">
        <ele>699.40002441406</ele>
        <time>2013-02-27T12:52:17.000Z</time>
      </trkpt>
      <trkpt lat="44.42705" lon="4.49938">
        <ele>699.40002441406</ele>
        <time>2013-02-27T12:52:18.000Z</time>
      </trkpt>
      <trkpt lat="44.42705" lon="4.49938">
        <ele>699.40002441406</ele>
        <time>2013-02-27T12:52:19.000Z</time>
      </trkpt>
      <trkpt lat="44.42705" lon="4.49938">
        <ele>700</ele>
        <time>2013-02-27T12:52:20.000Z</time>
      </trkpt>
      <trkpt lat="44.42705" lon="4.49938">
        <ele>700</ele>
        <time>2013-02-27T12:52:21.000Z</time>
      </trkpt>
      <trkpt lat="44.42705" lon="4.49939">
        <ele>700.40002441406</ele>
        <time>2013-02-27T12:52:22.000Z</time>
      </trkpt>
      <trkpt lat="44.42705" lon="4.49938">
        <ele>700.40002441406</ele>
        <time>2013-02-27T12:52:23.000Z</time>
      </trkpt>
      <trkpt lat="44.42705" lon="4.49938">
        <ele>700.40002441406</ele>
        <time>2013-02-27T12:52:24.000Z</time>
      </trkpt>
      <trkpt lat="44.42706" lon="4.49938">
        <ele>700.40002441406</ele>
        <time>2013-02-27T12:52:25.000Z</time>
      </trkpt>
      <trkpt lat="44.42707" lon="4.49938">
        <ele>701</ele>
        <time>2013-02-27T12:52:26.000Z</time>
      </trkpt>
      <trkpt lat="44.42707" lon="4.49937">
        <ele>701.40002441406</ele>
        <time>2013-02-27T12:52:27.000Z</time>
      </trkpt>
      <trkpt lat="44.42708" lon="4.49937">
        <ele>702.40002441406</ele>
        <time>2013-02-27T12:52:28.000Z</time>
      </trkpt>
      <trkpt lat="44.42708" lon="4.49937">
        <ele>702.79998779297</ele>
        <time>2013-02-27T12:52:29.000Z</time>
      </trkpt>
      <trkpt lat="44.42708" lon="4.49937">
        <ele>702.79998779297</ele>
        <time>2013-02-27T12:52:30.000Z</time>
      </trkpt>
      <trkpt lat="44.42708" lon="4.49937">
        <ele>703.40002441406</ele>
        <time>2013-02-27T12:52:31.000Z</time>
      </trkpt>
      <trkpt lat="44.42708" lon="4.49937">
        <ele>703.40002441406</ele>
        <time>2013-02-27T12:52:32.000Z</time>
      </trkpt>
      <trkpt lat="44.42708" lon="4.49936">
        <ele>703.79998779297</ele>
        <time>2013-02-27T12:52:33.000Z</time>
      </trkpt>
      <trkpt lat="44.42708" lon="4.49936">
        <ele>703.79998779297</ele>
        <time>2013-02-27T12:52:34.000Z</time>
      </trkpt>
      <trkpt lat="44.42709" lon="4.49936">
        <ele>703.40002441406</ele>
        <time>2013-02-27T12:52:35.000Z</time>
      </trkpt>
      <trkpt lat="44.42709" lon="4.49936">
        <ele>702.79998779297</ele>
        <time>2013-02-27T12:52:36.000Z</time>
      </trkpt>
      <trkpt lat="44.42709" lon="4.49936">
        <ele>702.79998779297</ele>
        <time>2013-02-27T12:52:37.000Z</time>
      </trkpt>
      <trkpt lat="44.42709" lon="4.49937">
        <ele>702.79998779297</ele>
        <time>2013-02-27T12:52:38.000Z</time>
      </trkpt>
      <trkpt lat="44.42709" lon="4.49937">
        <ele>702.79998779297</ele>
        <time>2013-02-27T12:52:39.000Z</time>
      </trkpt>
      <trkpt lat="44.42709" lon="4.49937">
        <ele>702.40002441406</ele>
        <time>2013-02-27T12:52:40.000Z</time>
      </trkpt>
      <trkpt lat="44.42708" lon="4.49937">
        <ele>701.79998779297</ele>
        <time>2013-02-27T12:52:41.000Z</time>
      </trkpt>
      <trkpt lat="44.42708" lon="4.49937">
        <ele>701.79998779297</ele>
        <time>2013-02-27T12:52:42.000Z</time>
      </trkpt>
      <trkpt lat="44.42708" lon="4.49937">
        <ele>701.40002441406</ele>
        <time>2013-02-27T12:52:43.000Z</time>
      </trkpt>
      <trkpt lat="44.42708" lon="4.49937">
        <ele>701.40002441406</ele>
        <time>2013-02-27T12:52:44.000Z</time>
      </trkpt>
      <trkpt lat="44.42707" lon="4.49937">
        <ele>701</ele>
        <time>2013-02-27T12:52:45.000Z</time>
      </trkpt>
      <trkpt lat="44.42707" lon="4.49937">
        <ele>700.40002441406</ele>
        <time>2013-02-27T12:52:46.000Z</time>
      </trkpt>
      <trkpt lat="44.42707" lon="4.49937">
        <ele>700.40002441406</ele>
        <time>2013-02-27T12:52:47.000Z</time>
      </trkpt>
      <trkpt lat="44.42707" lon="4.49937">
        <ele>700.40002441406</ele>
        <time>2013-02-27T12:52:48.000Z</time>
      </trkpt>
      <trkpt lat="44.42707" lon="4.49937">
        <ele>701</ele>
        <time>2013-02-27T12:52:49.000Z</time>
      </trkpt>
      <trkpt lat="44.42707" lon="4.49938">
        <ele>701</ele>
        <time>2013-02-27T12:52:50.000Z</time>
      </trkpt>
      <trkpt lat="44.42707" lon="4.49938">
        <ele>701.40002441406</ele>
        <time>2013-02-27T12:52:51.000Z</time>
      </trkpt>
      <trkpt lat="44.42707" lon="4.49938">
        <ele>701.40002441406</ele>
        <time>2013-02-27T12:52:52.000Z</time>
      </trkpt>
      <trkpt lat="44.42707" lon="4.49938">
        <ele>701.40002441406</ele>
        <time>2013-02-27T12:52:53.000Z</time>
      </trkpt>
      <trkpt lat="44.42707" lon="4.49938">
        <ele>701.40002441406</ele>
        <time>2013-02-27T12:52:54.000Z</time>
      </trkpt>
      <trkpt lat="44.42706" lon="4.49938">
        <ele>701.40002441406</ele>
        <time>2013-02-27T12:52:55.000Z</time>
      </trkpt>
      <trkpt lat="44.42706" lon="4.49938">
        <ele>701.40002441406</ele>
        <time>2013-02-27T12:52:56.000Z</time>
      </trkpt>
      <trkpt lat="44.42706" lon="4.49938">
        <ele>701.40002441406</ele>
        <time>2013-02-27T12:52:57.000Z</time>
      </trkpt>
      <trkpt lat="44.42706" lon="4.49938">
        <ele>701.40002441406</ele>
        <time>2013-02-27T12:52:58.000Z</time>
      </trkpt>
      <trkpt lat="44.42706" lon="4.49938">
        <ele>701.40002441406</ele>
        <time>2013-02-27T12:52:59.000Z</time>
      </trkpt>
      <trkpt lat="44.42706" lon="4.49938">
        <ele>701.40002441406</ele>
        <time>2013-02-27T12:53:00.000Z</time>
      </trkpt>
      <trkpt lat="44.42706" lon="4.49938">
        <ele>701</ele>
        <time>2013-02-27T12:53:01.000Z</time>
      </trkpt>
      <trkpt lat="44.42706" lon="4.49938">
        <ele>701</ele>
        <time>2013-02-27T12:53:02.000Z</time>
      </trkpt>
      <trkpt lat="44.42706" lon="4.49938">
        <ele>701</ele>
        <time>2013-02-27T12:53:03.000Z</time>
      </trkpt>
      <trkpt lat="44.42706" lon="4.49938">
        <ele>701</ele>
        <time>2013-02-27T12:53:04.000Z</time>
      </trkpt>
      <trkpt lat="44.42706" lon="4.49938">
        <ele>701</ele>
        <time>2013-02-27T12:53:05.000Z</time>
      </trkpt>
      <trkpt lat="44.42706" lon="4.49938">
        <ele>701</ele>
        <time>2013-02-27T12:53:06.000Z</time>
      </trkpt>
      <trkpt lat="44.42706" lon="4.49938">
        <ele>701</ele>
        <time>2013-02-27T12:53:07.000Z</time>
      </trkpt>
      <trkpt lat="44.42705" lon="4.49938">
        <ele>701</ele>
        <time>2013-02-27T12:53:08.000Z</time>
      </trkpt>
      <trkpt lat="44.42705" lon="4.49939">
        <ele>701</ele>
        <time>2013-02-27T12:53:09.000Z</time>
      </trkpt>
      <trkpt lat="44.42704" lon="4.49939">
        <ele>701</ele>
        <time>2013-02-27T12:53:10.000Z</time>
      </trkpt>
      <trkpt lat="44.42704" lon="4.49939">
        <ele>701.40002441406</ele>
        <time>2013-02-27T12:53:11.000Z</time>
      </trkpt>
      <trkpt lat="44.42704" lon="4.49939">
        <ele>701.40002441406</ele>
        <time>2013-02-27T12:53:12.000Z</time>
      </trkpt>
      <trkpt lat="44.42704" lon="4.49939">
        <ele>701.40002441406</ele>
        <time>2013-02-27T12:53:13.000Z</time>
      </trkpt>
      <trkpt lat="44.42704" lon="4.49939">
        <ele>701.79998779297</ele>
        <time>2013-02-27T12:53:14.000Z</time>
      </trkpt>
      <trkpt lat="44.42704" lon="4.49939">
        <ele>701.79998779297</ele>
        <time>2013-02-27T12:53:15.000Z</time>
      </trkpt>
      <trkpt lat="44.42704" lon="4.49939">
        <ele>701.79998779297</ele>
        <time>2013-02-27T12:53:16.000Z</time>
      </trkpt>
      <trkpt lat="44.42704" lon="4.49939">
        <ele>701.79998779297</ele>
        <time>2013-02-27T12:53:17.000Z</time>
      </trkpt>
      <trkpt lat="44.42704" lon="4.49939">
        <ele>701.79998779297</ele>
        <time>2013-02-27T12:53:18.000Z</time>
      </trkpt>
      <trkpt lat="44.42704" lon="4.49939">
        <ele>701.79998779297</ele>
        <time>2013-02-27T12:53:19.000Z</time>
      </trkpt>
      <trkpt lat="44.42704" lon="4.49939">
        <ele>701.79998779297</ele>
        <time>2013-02-27T12:53:20.000Z</time>
      </trkpt>
      <trkpt lat="44.42704" lon="4.49939">
        <ele>701.79998779297</ele>
        <time>2013-02-27T12:53:21.000Z</time>
      </trkpt>
      <trkpt lat="44.42704" lon="4.49939">
        <ele>701.79998779297</ele>
        <time>2013-02-27T12:53:22.000Z</time>
      </trkpt>
      <trkpt lat="44.42704" lon="4.49939">
        <ele>701.79998779297</ele>
        <time>2013-02-27T12:53:23.000Z</time>
      </trkpt>
      <trkpt lat="44.42704" lon="4.49939">
        <ele>701.79998779297</ele>
        <time>2013-02-27T12:53:24.000Z</time>
      </trkpt>
      <trkpt lat="44.42704" lon="4.49939">
        <ele>701.79998779297</ele>
        <time>2013-02-27T12:53:25.000Z</time>
      </trkpt>
      <trkpt lat="44.42704" lon="4.49939">
        <ele>701.79998779297</ele>
        <time>2013-02-27T12:53:26.000Z</time>
      </trkpt>
      <trkpt lat="44.42704" lon="4.49939">
        <ele>701.79998779297</ele>
        <time>2013-02-27T12:53:27.000Z</time>
      </trkpt>
      <trkpt lat="44.42704" lon="4.49939">
        <ele>701.79998779297</ele>
        <time>2013-02-27T12:53:28.000Z</time>
      </trkpt>
      <trkpt lat="44.42704" lon="4.49939">
        <ele>701.79998779297</ele>
        <time>2013-02-27T12:53:29.000Z</time>
      </trkpt>
      <trkpt lat="44.42704" lon="4.49939">
        <ele>701.79998779297</ele>
        <time>2013-02-27T12:53:30.000Z</time>
      </trkpt>
      <trkpt lat="44.42704" lon="4.49939">
        <ele>701.40002441406</ele>
        <time>2013-02-27T12:53:31.000Z</time>
      </trkpt>
      <trkpt lat="44.42704" lon="4.49939">
        <ele>701.40002441406</ele>
        <time>2013-02-27T12:53:32.000Z</time>
      </trkpt>
      <trkpt lat="44.42704" lon="4.49939">
        <ele>701.40002441406</ele>
        <time>2013-02-27T12:53:33.000Z</time>
      </trkpt>
      <trkpt lat="44.42704" lon="4.49939">
        <ele>701.40002441406</ele>
        <time>2013-02-27T12:53:34.000Z</time>
      </trkpt>
      <trkpt lat="44.42704" lon="4.49939">
        <ele>701.40002441406</ele>
        <time>2013-02-27T12:53:35.000Z</time>
      </trkpt>
      <trkpt lat="44.42704" lon="4.49939">
        <ele>701.40002441406</ele>
        <time>2013-02-27T12:53:36.000Z</time>
      </trkpt>
      <trkpt lat="44.42704" lon="4.49939">
        <ele>701.40002441406</ele>
        <time>2013-02-27T12:53:37.000Z</time>
      </trkpt>
      <trkpt lat="44.42704" lon="4.49939">
        <ele>701.40002441406</ele>
        <time>2013-02-27T12:53:38.000Z</time>
      </trkpt>
      <trkpt lat="44.42704" lon="4.49939">
        <ele>701.40002441406</ele>
        <time>2013-02-27T12:53:39.000Z</time>
      </trkpt>
      <trkpt lat="44.42704" lon="4.49939">
        <ele>701.40002441406</ele>
        <time>2013-02-27T12:53:40.000Z</time>
      </trkpt>
      <trkpt lat="44.42704" lon="4.49939">
        <ele>701.40002441406</ele>
        <time>2013-02-27T12:53:42.000Z</time>
      </trkpt>
      <trkpt lat="44.42704" lon="4.49939">
        <ele>701</ele>
        <time>2013-02-27T12:53:43.000Z</time>
      </trkpt>
      <trkpt lat="44.42704" lon="4.49939">
        <ele>701</ele>
        <time>2013-02-27T12:53:44.000Z</time>
      </trkpt>
      <trkpt lat="44.42704" lon="4.49939">
        <ele>701</ele>
        <time>2013-02-27T12:53:45.000Z</time>
      </trkpt>
      <trkpt lat="44.42704" lon="4.49939">
        <ele>701</ele>
        <time>2013-02-27T12:53:46.000Z</time>
      </trkpt>
      <trkpt lat="44.42704" lon="4.49939">
        <ele>701</ele>
        <time>2013-02-27T12:53:47.000Z</time>
      </trkpt>
      <trkpt lat="44.42704" lon="4.49939">
        <ele>701</ele>
        <time>2013-02-27T12:53:48.000Z</time>
      </trkpt>
      <trkpt lat="44.42704" lon="4.49939">
        <ele>701</ele>
        <time>2013-02-27T12:53:49.000Z</time>
      </trkpt>
      <trkpt lat="44.42704" lon="4.49939">
        <ele>701</ele>
        <time>2013-02-27T12:53:50.000Z</time>
      </trkpt>
      <trkpt lat="44.42704" lon="4.49939">
        <ele>700.40002441406</ele>
        <time>2013-02-27T12:53:51.000Z</time>
      </trkpt>
      <trkpt lat="44.42704" lon="4.49939">
        <ele>701</ele>
        <time>2013-02-27T12:53:52.000Z</time>
      </trkpt>
      <trkpt lat="44.42704" lon="4.4994">
        <ele>701</ele>
        <time>2013-02-27T12:53:53.000Z</time>
      </trkpt>
      <trkpt lat="44.42705" lon="4.4994">
        <ele>701</ele>
        <time>2013-02-27T12:53:54.000Z</time>
      </trkpt>
      <trkpt lat="44.42705" lon="4.4994">
        <ele>701</ele>
        <time>2013-02-27T12:53:55.000Z</time>
      </trkpt>
      <trkpt lat="44.42705" lon="4.4994">
        <ele>701</ele>
        <time>2013-02-27T12:53:56.000Z</time>
      </trkpt>
      <trkpt lat="44.42705" lon="4.4994">
        <ele>701</ele>
        <time>2013-02-27T12:53:57.000Z</time>
      </trkpt>
      <trkpt lat="44.42704" lon="4.49939">
        <ele>701.40002441406</ele>
        <time>2013-02-27T12:53:58.000Z</time>
      </trkpt>
      <trkpt lat="44.42704" lon="4.4994">
        <ele>701</ele>
        <time>2013-02-27T12:53:59.000Z</time>
      </trkpt>
      <trkpt lat="44.42704" lon="4.4994">
        <ele>701</ele>
        <time>2013-02-27T12:54:00.000Z</time>
      </trkpt>
      <trkpt lat="44.42704" lon="4.4994">
        <ele>701</ele>
        <time>2013-02-27T12:54:01.000Z</time>
      </trkpt>
      <trkpt lat="44.42704" lon="4.49939">
        <ele>700.40002441406</ele>
        <time>2013-02-27T12:54:02.000Z</time>
      </trkpt>
      <trkpt lat="44.42704" lon="4.49939">
        <ele>701</ele>
        <time>2013-02-27T12:54:03.000Z</time>
      </trkpt>
      <trkpt lat="44.42704" lon="4.49939">
        <ele>701</ele>
        <time>2013-02-27T12:54:04.000Z</time>
      </trkpt>
      <trkpt lat="44.42704" lon="4.49939">
        <ele>700.40002441406</ele>
        <time>2013-02-27T12:54:05.000Z</time>
      </trkpt>
      <trkpt lat="44.42705" lon="4.49939">
        <ele>700.40002441406</ele>
        <time>2013-02-27T12:54:06.000Z</time>
      </trkpt>
      <trkpt lat="44.42705" lon="4.49939">
        <ele>701</ele>
        <time>2013-02-27T12:54:07.000Z</time>
      </trkpt>
      <trkpt lat="44.42705" lon="4.49939">
        <ele>701</ele>
        <time>2013-02-27T12:54:08.000Z</time>
      </trkpt>
      <trkpt lat="44.42705" lon="4.49939">
        <ele>701</ele>
        <time>2013-02-27T12:54:09.000Z</time>
      </trkpt>
      <trkpt lat="44.42705" lon="4.49939">
        <ele>701</ele>
        <time>2013-02-27T12:54:10.000Z</time>
      </trkpt>
      <trkpt lat="44.42705" lon="4.49939">
        <ele>701.40002441406</ele>
        <time>2013-02-27T12:54:11.000Z</time>
      </trkpt>
      <trkpt lat="44.42706" lon="4.49939">
        <ele>701.40002441406</ele>
        <time>2013-02-27T12:54:12.000Z</time>
      </trkpt>
      <trkpt lat="44.42706" lon="4.49938">
        <ele>701.79998779297</ele>
        <time>2013-02-27T12:54:13.000Z</time>
      </trkpt>
      <trkpt lat="44.42706" lon="4.49938">
        <ele>702.40002441406</ele>
        <time>2013-02-27T12:54:14.000Z</time>
      </trkpt>
      <trkpt lat="44.42707" lon="4.49939">
        <ele>702.40002441406</ele>
        <time>2013-02-27T12:54:15.000Z</time>
      </trkpt>
      <trkpt lat="44.42707" lon="4.49939">
        <ele>702.79998779297</ele>
        <time>2013-02-27T12:54:16.000Z</time>
      </trkpt>
      <trkpt lat="44.42707" lon="4.49939">
        <ele>702.79998779297</ele>
        <time>2013-02-27T12:54:17.000Z</time>
      </trkpt>
      <trkpt lat="44.42707" lon="4.49939">
        <ele>702.79998779297</ele>
        <time>2013-02-27T12:54:18.000Z</time>
      </trkpt>
      <trkpt lat="44.42707" lon="4.49939">
        <ele>703.40002441406</ele>
        <time>2013-02-27T12:54:19.000Z</time>
      </trkpt>
      <trkpt lat="44.42707" lon="4.49939">
        <ele>703.40002441406</ele>
        <time>2013-02-27T12:54:20.000Z</time>
      </trkpt>
      <trkpt lat="44.42707" lon="4.49939">
        <ele>703.40002441406</ele>
        <time>2013-02-27T12:54:21.000Z</time>
      </trkpt>
      <trkpt lat="44.42707" lon="4.49939">
        <ele>703.40002441406</ele>
        <time>2013-02-27T12:54:22.000Z</time>
      </trkpt>
      <trkpt lat="44.42707" lon="4.49939">
        <ele>703.40002441406</ele>
        <time>2013-02-27T12:54:23.000Z</time>
      </trkpt>
      <trkpt lat="44.42707" lon="4.49939">
        <ele>703.79998779297</ele>
        <time>2013-02-27T12:54:24.000Z</time>
      </trkpt>
      <trkpt lat="44.42707" lon="4.49939">
        <ele>703.79998779297</ele>
        <time>2013-02-27T12:54:25.000Z</time>
      </trkpt>
      <trkpt lat="44.42707" lon="4.49939">
        <ele>703.79998779297</ele>
        <time>2013-02-27T12:54:26.000Z</time>
      </trkpt>
      <trkpt lat="44.42707" lon="4.49939">
        <ele>703.79998779297</ele>
        <time>2013-02-27T12:54:27.000Z</time>
      </trkpt>
      <trkpt lat="44.42707" lon="4.49939">
        <ele>703.79998779297</ele>
        <time>2013-02-27T12:54:28.000Z</time>
      </trkpt>
      <trkpt lat="44.42707" lon="4.49939">
        <ele>703.79998779297</ele>
        <time>2013-02-27T12:54:29.000Z</time>
      </trkpt>
      <trkpt lat="44.42707" lon="4.49939">
        <ele>703.79998779297</ele>
        <time>2013-02-27T12:54:30.000Z</time>
      </trkpt>
      <trkpt lat="44.42707" lon="4.49939">
        <ele>703.40002441406</ele>
        <time>2013-02-27T12:54:31.000Z</time>
      </trkpt>
      <trkpt lat="44.42707" lon="4.49939">
        <ele>702.79998779297</ele>
        <time>2013-02-27T12:54:32.000Z</time>
      </trkpt>
      <trkpt lat="44.42707" lon="4.49939">
        <ele>702.79998779297</ele>
        <time>2013-02-27T12:54:33.000Z</time>
      </trkpt>
      <trkpt lat="44.42707" lon="4.49939">
        <ele>702.79998779297</ele>
        <time>2013-02-27T12:54:34.000Z</time>
      </trkpt>
      <trkpt lat="44.42707" lon="4.49939">
        <ele>702.79998779297</ele>
        <time>2013-02-27T12:54:35.000Z</time>
      </trkpt>
      <trkpt lat="44.42707" lon="4.49939">
        <ele>702.79998779297</ele>
        <time>2013-02-27T12:54:36.000Z</time>
      </trkpt>
      <trkpt lat="44.42707" lon="4.49939">
        <ele>702.79998779297</ele>
        <time>2013-02-27T12:54:37.000Z</time>
      </trkpt>
      <trkpt lat="44.42707" lon="4.49939">
        <ele>702.79998779297</ele>
        <time>2013-02-27T12:54:38.000Z</time>
      </trkpt>
      <trkpt lat="44.42707" lon="4.49939">
        <ele>702.79998779297</ele>
        <time>2013-02-27T12:54:39.000Z</time>
      </trkpt>
      <trkpt lat="44.42707" lon="4.49939">
        <ele>702.79998779297</ele>
        <time>2013-02-27T12:54:40.000Z</time>
      </trkpt>
      <trkpt lat="44.42707" lon="4.49939">
        <ele>702.79998779297</ele>
        <time>2013-02-27T12:54:41.000Z</time>
      </trkpt>
      <trkpt lat="44.42707" lon="4.49939">
        <ele>702.79998779297</ele>
        <time>2013-02-27T12:54:42.000Z</time>
      </trkpt>
      <trkpt lat="44.42707" lon="4.49939">
        <ele>702.79998779297</ele>
        <time>2013-02-27T12:54:43.000Z</time>
      </trkpt>
      <trkpt lat="44.42707" lon="4.49939">
        <ele>703.40002441406</ele>
        <time>2013-02-27T12:54:44.000Z</time>
      </trkpt>
      <trkpt lat="44.42707" lon="4.49939">
        <ele>703.40002441406</ele>
        <time>2013-02-27T12:54:45.000Z</time>
      </trkpt>
      <trkpt lat="44.42707" lon="4.49939">
        <ele>703.79998779297</ele>
        <time>2013-02-27T12:54:46.000Z</time>
      </trkpt>
      <trkpt lat="44.42706" lon="4.49939">
        <ele>703.79998779297</ele>
        <time>2013-02-27T12:54:47.000Z</time>
      </trkpt>
      <trkpt lat="44.42707" lon="4.49939">
        <ele>703.79998779297</ele>
        <time>2013-02-27T12:54:48.000Z</time>
      </trkpt>
      <trkpt lat="44.42706" lon="4.49939">
        <ele>704.40002441406</ele>
        <time>2013-02-27T12:54:49.000Z</time>
      </trkpt>
      <trkpt lat="44.42706" lon="4.49939">
        <ele>704.40002441406</ele>
        <time>2013-02-27T12:54:50.000Z</time>
      </trkpt>
      <trkpt lat="44.42706" lon="4.49939">
        <ele>704.40002441406</ele>
        <time>2013-02-27T12:54:51.000Z</time>
      </trkpt>
      <trkpt lat="44.42706" lon="4.49939">
        <ele>704.79998779297</ele>
        <time>2013-02-27T12:54:52.000Z</time>
      </trkpt>
      <trkpt lat="44.42706" lon="4.49939">
        <ele>704.40002441406</ele>
        <time>2013-02-27T12:54:53.000Z</time>
      </trkpt>
      <trkpt lat="44.42706" lon="4.49939">
        <ele>704.40002441406</ele>
        <time>2013-02-27T12:54:54.000Z</time>
      </trkpt>
      <trkpt lat="44.42706" lon="4.49939">
        <ele>704.40002441406</ele>
        <time>2013-02-27T12:54:55.000Z</time>
      </trkpt>
      <trkpt lat="44.42706" lon="4.49939">
        <ele>704.40002441406</ele>
        <time>2013-02-27T12:54:56.000Z</time>
      </trkpt>
      <trkpt lat="44.42706" lon="4.49939">
        <ele>703.79998779297</ele>
        <time>2013-02-27T12:54:57.000Z</time>
      </trkpt>
      <trkpt lat="44.42706" lon="4.49938">
        <ele>703.79998779297</ele>
        <time>2013-02-27T12:54:58.000Z</time>
      </trkpt>
      <trkpt lat="44.42706" lon="4.49938">
        <ele>703.79998779297</ele>
        <time>2013-02-27T12:54:59.000Z</time>
      </trkpt>
      <trkpt lat="44.42706" lon="4.49938">
        <ele>703.79998779297</ele>
        <time>2013-02-27T12:55:00.000Z</time>
      </trkpt>
      <trkpt lat="44.42706" lon="4.49938">
        <ele>703.79998779297</ele>
        <time>2013-02-27T12:55:01.000Z</time>
      </trkpt>
      <trkpt lat="44.42706" lon="4.49938">
        <ele>703.79998779297</ele>
        <time>2013-02-27T12:55:02.000Z</time>
      </trkpt>
      <trkpt lat="44.42706" lon="4.49938">
        <ele>703.79998779297</ele>
        <time>2013-02-27T12:55:03.000Z</time>
      </trkpt>
      <trkpt lat="44.42706" lon="4.49938">
        <ele>703.79998779297</ele>
        <time>2013-02-27T12:55:04.000Z</time>
      </trkpt>
      <trkpt lat="44.42706" lon="4.49938">
        <ele>704.40002441406</ele>
        <time>2013-02-27T12:55:05.000Z</time>
      </trkpt>
      <trkpt lat="44.42706" lon="4.49938">
        <ele>704.79998779297</ele>
        <time>2013-02-27T12:55:06.000Z</time>
      </trkpt>
      <trkpt lat="44.42706" lon="4.49938">
        <ele>704.79998779297</ele>
        <time>2013-02-27T12:55:07.000Z</time>
      </trkpt>
      <trkpt lat="44.42706" lon="4.49938">
        <ele>704.79998779297</ele>
        <time>2013-02-27T12:55:08.000Z</time>
      </trkpt>
      <trkpt lat="44.42706" lon="4.49938">
        <ele>705.20001220703</ele>
        <time>2013-02-27T12:55:09.000Z</time>
      </trkpt>
      <trkpt lat="44.42706" lon="4.49938">
        <ele>705.20001220703</ele>
        <time>2013-02-27T12:55:10.000Z</time>
      </trkpt>
      <trkpt lat="44.42706" lon="4.49938">
        <ele>705.20001220703</ele>
        <time>2013-02-27T12:55:11.000Z</time>
      </trkpt>
      <trkpt lat="44.42705" lon="4.49937">
        <ele>705.20001220703</ele>
        <time>2013-02-27T12:55:12.000Z</time>
      </trkpt>
      <trkpt lat="44.42705" lon="4.49937">
        <ele>705.79998779297</ele>
        <time>2013-02-27T12:55:13.000Z</time>
      </trkpt>
      <trkpt lat="44.42705" lon="4.49937">
        <ele>705.79998779297</ele>
        <time>2013-02-27T12:55:14.000Z</time>
      </trkpt>
      <trkpt lat="44.42705" lon="4.49936">
        <ele>705.79998779297</ele>
        <time>2013-02-27T12:55:16.000Z</time>
      </trkpt>
      <trkpt lat="44.42705" lon="4.49936">
        <ele>705.79998779297</ele>
        <time>2013-02-27T12:55:17.000Z</time>
      </trkpt>
      <trkpt lat="44.42705" lon="4.49937">
        <ele>705.20001220703</ele>
        <time>2013-02-27T12:55:18.000Z</time>
      </trkpt>
      <trkpt lat="44.42706" lon="4.49937">
        <ele>705.20001220703</ele>
        <time>2013-02-27T12:55:19.000Z</time>
      </trkpt>
      <trkpt lat="44.42706" lon="4.49937">
        <ele>704.79998779297</ele>
        <time>2013-02-27T12:55:20.000Z</time>
      </trkpt>
      <trkpt lat="44.42706" lon="4.49938">
        <ele>704.79998779297</ele>
        <time>2013-02-27T12:55:21.000Z</time>
      </trkpt>
      <trkpt lat="44.42706" lon="4.49938">
        <ele>704.40002441406</ele>
        <time>2013-02-27T12:55:22.000Z</time>
      </trkpt>
      <trkpt lat="44.42706" lon="4.49938">
        <ele>704.40002441406</ele>
        <time>2013-02-27T12:55:23.000Z</time>
      </trkpt>
      <trkpt lat="44.42706" lon="4.49938">
        <ele>703.40002441406</ele>
        <time>2013-02-27T12:55:24.000Z</time>
      </trkpt>
      <trkpt lat="44.42706" lon="4.49938">
        <ele>702.79998779297</ele>
        <time>2013-02-27T12:55:25.000Z</time>
      </trkpt>
      <trkpt lat="44.42706" lon="4.49938">
        <ele>702.40002441406</ele>
        <time>2013-02-27T12:55:26.000Z</time>
      </trkpt>
      <trkpt lat="44.42706" lon="4.49938">
        <ele>701.79998779297</ele>
        <time>2013-02-27T12:55:27.000Z</time>
      </trkpt>
      <trkpt lat="44.42706" lon="4.49938">
        <ele>701.40002441406</ele>
        <time>2013-02-27T12:55:28.000Z</time>
      </trkpt>
      <trkpt lat="44.42707" lon="4.49938">
        <ele>701</ele>
        <time>2013-02-27T12:55:29.000Z</time>
      </trkpt>
      <trkpt lat="44.42707" lon="4.49938">
        <ele>700.40002441406</ele>
        <time>2013-02-27T12:55:30.000Z</time>
      </trkpt>
      <trkpt lat="44.42707" lon="4.49938">
        <ele>700</ele>
        <time>2013-02-27T12:55:31.000Z</time>
      </trkpt>
      <trkpt lat="44.42707" lon="4.49938">
        <ele>700</ele>
        <time>2013-02-27T12:55:32.000Z</time>
      </trkpt>
      <trkpt lat="44.42707" lon="4.49938">
        <ele>699.40002441406</ele>
        <time>2013-02-27T12:55:33.000Z</time>
      </trkpt>
      <trkpt lat="44.42707" lon="4.49939">
        <ele>699</ele>
        <time>2013-02-27T12:55:34.000Z</time>
      </trkpt>
      <trkpt lat="44.42707" lon="4.49939">
        <ele>699</ele>
        <time>2013-02-27T12:55:35.000Z</time>
      </trkpt>
      <trkpt lat="44.42707" lon="4.49939">
        <ele>698.59997558594</ele>
        <time>2013-02-27T12:55:36.000Z</time>
      </trkpt>
      <trkpt lat="44.42707" lon="4.49939">
        <ele>698.59997558594</ele>
        <time>2013-02-27T12:55:37.000Z</time>
      </trkpt>
      <trkpt lat="44.42707" lon="4.49938">
        <ele>699</ele>
        <time>2013-02-27T12:55:38.000Z</time>
      </trkpt>
      <trkpt lat="44.42707" lon="4.49938">
        <ele>699</ele>
        <time>2013-02-27T12:55:39.000Z</time>
      </trkpt>
      <trkpt lat="44.42707" lon="4.49938">
        <ele>700</ele>
        <time>2013-02-27T12:55:40.000Z</time>
      </trkpt>
      <trkpt lat="44.42707" lon="4.49938">
        <ele>700.40002441406</ele>
        <time>2013-02-27T12:55:41.000Z</time>
      </trkpt>
      <trkpt lat="44.42707" lon="4.49937">
        <ele>701</ele>
        <time>2013-02-27T12:55:42.000Z</time>
      </trkpt>
      <trkpt lat="44.42707" lon="4.49937">
        <ele>701</ele>
        <time>2013-02-27T12:55:43.000Z</time>
      </trkpt>
      <trkpt lat="44.42707" lon="4.49937">
        <ele>701</ele>
        <time>2013-02-27T12:55:44.000Z</time>
      </trkpt>
      <trkpt lat="44.42706" lon="4.49937">
        <ele>701</ele>
        <time>2013-02-27T12:55:45.000Z</time>
      </trkpt>
      <trkpt lat="44.42706" lon="4.49937">
        <ele>701</ele>
        <time>2013-02-27T12:55:46.000Z</time>
      </trkpt>
      <trkpt lat="44.42706" lon="4.49937">
        <ele>700.40002441406</ele>
        <time>2013-02-27T12:55:47.000Z</time>
      </trkpt>
      <trkpt lat="44.42706" lon="4.49937">
        <ele>700</ele>
        <time>2013-02-27T12:55:48.000Z</time>
      </trkpt>
      <trkpt lat="44.42706" lon="4.49937">
        <ele>700</ele>
        <time>2013-02-27T12:55:49.000Z</time>
      </trkpt>
      <trkpt lat="44.42706" lon="4.49938">
        <ele>700</ele>
        <time>2013-02-27T12:55:50.000Z</time>
      </trkpt>
      <trkpt lat="44.42706" lon="4.49938">
        <ele>700.40002441406</ele>
        <time>2013-02-27T12:55:51.000Z</time>
      </trkpt>
      <trkpt lat="44.42706" lon="4.49938">
        <ele>700.40002441406</ele>
        <time>2013-02-27T12:55:52.000Z</time>
      </trkpt>
      <trkpt lat="44.42706" lon="4.49938">
        <ele>700.40002441406</ele>
        <time>2013-02-27T12:55:53.000Z</time>
      </trkpt>
      <trkpt lat="44.42706" lon="4.49938">
        <ele>700</ele>
        <time>2013-02-27T12:55:54.000Z</time>
      </trkpt>
      <trkpt lat="44.42706" lon="4.49939">
        <ele>700</ele>
        <time>2013-02-27T12:55:55.000Z</time>
      </trkpt>
      <trkpt lat="44.42706" lon="4.49939">
        <ele>700</ele>
        <time>2013-02-27T12:55:56.000Z</time>
      </trkpt>
      <trkpt lat="44.42706" lon="4.4994">
        <ele>700</ele>
        <time>2013-02-27T12:55:57.000Z</time>
      </trkpt>
      <trkpt lat="44.42706" lon="4.4994">
        <ele>700</ele>
        <time>2013-02-27T12:55:58.000Z</time>
      </trkpt>
      <trkpt lat="44.42706" lon="4.4994">
        <ele>700</ele>
        <time>2013-02-27T12:55:59.000Z</time>
      </trkpt>
      <trkpt lat="44.42705" lon="4.4994">
        <ele>700.40002441406</ele>
        <time>2013-02-27T12:56:00.000Z</time>
      </trkpt>
      <trkpt lat="44.42706" lon="4.4994">
        <ele>700.40002441406</ele>
        <time>2013-02-27T12:56:01.000Z</time>
      </trkpt>
      <trkpt lat="44.42706" lon="4.4994">
        <ele>700.40002441406</ele>
        <time>2013-02-27T12:56:02.000Z</time>
      </trkpt>
      <trkpt lat="44.42706" lon="4.49941">
        <ele>701</ele>
        <time>2013-02-27T12:56:03.000Z</time>
      </trkpt>
      <trkpt lat="44.42706" lon="4.49941">
        <ele>701</ele>
        <time>2013-02-27T12:56:04.000Z</time>
      </trkpt>
      <trkpt lat="44.42706" lon="4.49941">
        <ele>701</ele>
        <time>2013-02-27T12:56:05.000Z</time>
      </trkpt>
      <trkpt lat="44.42706" lon="4.49941">
        <ele>701.40002441406</ele>
        <time>2013-02-27T12:56:06.000Z</time>
      </trkpt>
      <trkpt lat="44.42706" lon="4.49941">
        <ele>701.40002441406</ele>
        <time>2013-02-27T12:56:07.000Z</time>
      </trkpt>
      <trkpt lat="44.42706" lon="4.49941">
        <ele>701.40002441406</ele>
        <time>2013-02-27T12:56:08.000Z</time>
      </trkpt>
      <trkpt lat="44.42705" lon="4.49941">
        <ele>701.40002441406</ele>
        <time>2013-02-27T12:56:09.000Z</time>
      </trkpt>
      <trkpt lat="44.42705" lon="4.49941">
        <ele>701.79998779297</ele>
        <time>2013-02-27T12:56:10.000Z</time>
      </trkpt>
      <trkpt lat="44.42705" lon="4.49941">
        <ele>701.79998779297</ele>
        <time>2013-02-27T12:56:11.000Z</time>
      </trkpt>
      <trkpt lat="44.42705" lon="4.49941">
        <ele>702.40002441406</ele>
        <time>2013-02-27T12:56:12.000Z</time>
      </trkpt>
      <trkpt lat="44.42704" lon="4.49941">
        <ele>702.40002441406</ele>
        <time>2013-02-27T12:56:13.000Z</time>
      </trkpt>
      <trkpt lat="44.42704" lon="4.49941">
        <ele>702.40002441406</ele>
        <time>2013-02-27T12:56:14.000Z</time>
      </trkpt>
      <trkpt lat="44.42704" lon="4.49941">
        <ele>702.79998779297</ele>
        <time>2013-02-27T12:56:15.000Z</time>
      </trkpt>
      <trkpt lat="44.42704" lon="4.49941">
        <ele>702.79998779297</ele>
        <time>2013-02-27T12:56:16.000Z</time>
      </trkpt>
      <trkpt lat="44.42704" lon="4.49941">
        <ele>702.79998779297</ele>
        <time>2013-02-27T12:56:17.000Z</time>
      </trkpt>
      <trkpt lat="44.42704" lon="4.49942">
        <ele>703.40002441406</ele>
        <time>2013-02-27T12:56:18.000Z</time>
      </trkpt>
      <trkpt lat="44.42704" lon="4.49942">
        <ele>703.40002441406</ele>
        <time>2013-02-27T12:56:19.000Z</time>
      </trkpt>
      <trkpt lat="44.42704" lon="4.49942">
        <ele>703.79998779297</ele>
        <time>2013-02-27T12:56:20.000Z</time>
      </trkpt>
      <trkpt lat="44.42703" lon="4.49942">
        <ele>704.40002441406</ele>
        <time>2013-02-27T12:56:21.000Z</time>
      </trkpt>
      <trkpt lat="44.42703" lon="4.49943">
        <ele>704.40002441406</ele>
        <time>2013-02-27T12:56:22.000Z</time>
      </trkpt>
      <trkpt lat="44.42703" lon="4.49943">
        <ele>704.79998779297</ele>
        <time>2013-02-27T12:56:23.000Z</time>
      </trkpt>
      <trkpt lat="44.42703" lon="4.49943">
        <ele>704.79998779297</ele>
        <time>2013-02-27T12:56:24.000Z</time>
      </trkpt>
      <trkpt lat="44.42703" lon="4.49943">
        <ele>704.79998779297</ele>
        <time>2013-02-27T12:56:25.000Z</time>
      </trkpt>
      <trkpt lat="44.42703" lon="4.49943">
        <ele>704.79998779297</ele>
        <time>2013-02-27T12:56:26.000Z</time>
      </trkpt>
      <trkpt lat="44.42703" lon="4.49943">
        <ele>704.79998779297</ele>
        <time>2013-02-27T12:56:27.000Z</time>
      </trkpt>
      <trkpt lat="44.42703" lon="4.49943">
        <ele>704.79998779297</ele>
        <time>2013-02-27T12:56:28.000Z</time>
      </trkpt>
      <trkpt lat="44.42703" lon="4.49942">
        <ele>704.79998779297</ele>
        <time>2013-02-27T12:56:29.000Z</time>
      </trkpt>
      <trkpt lat="44.42703" lon="4.49942">
        <ele>704.79998779297</ele>
        <time>2013-02-27T12:56:30.000Z</time>
      </trkpt>
      <trkpt lat="44.42703" lon="4.49942">
        <ele>704.79998779297</ele>
        <time>2013-02-27T12:56:31.000Z</time>
      </trkpt>
      <trkpt lat="44.42703" lon="4.49942">
        <ele>704.79998779297</ele>
        <time>2013-02-27T12:56:32.000Z</time>
      </trkpt>
      <trkpt lat="44.42703" lon="4.49942">
        <ele>705.20001220703</ele>
        <time>2013-02-27T12:56:33.000Z</time>
      </trkpt>
      <trkpt lat="44.42703" lon="4.49942">
        <ele>705.20001220703</ele>
        <time>2013-02-27T12:56:34.000Z</time>
      </trkpt>
      <trkpt lat="44.42703" lon="4.49942">
        <ele>705.20001220703</ele>
        <time>2013-02-27T12:56:35.000Z</time>
      </trkpt>
      <trkpt lat="44.42703" lon="4.49943">
        <ele>705.20001220703</ele>
        <time>2013-02-27T12:56:36.000Z</time>
      </trkpt>
      <trkpt lat="44.42703" lon="4.49943">
        <ele>705.20001220703</ele>
        <time>2013-02-27T12:56:37.000Z</time>
      </trkpt>
      <trkpt lat="44.42703" lon="4.49943">
        <ele>705.20001220703</ele>
        <time>2013-02-27T12:56:38.000Z</time>
      </trkpt>
      <trkpt lat="44.42703" lon="4.49943">
        <ele>705.20001220703</ele>
        <time>2013-02-27T12:56:39.000Z</time>
      </trkpt>
      <trkpt lat="44.42703" lon="4.49943">
        <ele>705.20001220703</ele>
        <time>2013-02-27T12:56:40.000Z</time>
      </trkpt>
      <trkpt lat="44.42703" lon="4.49943">
        <ele>705.20001220703</ele>
        <time>2013-02-27T12:56:41.000Z</time>
      </trkpt>
      <trkpt lat="44.42703" lon="4.49943">
        <ele>705.20001220703</ele>
        <time>2013-02-27T12:56:42.000Z</time>
      </trkpt>
      <trkpt lat="44.42703" lon="4.49943">
        <ele>705.20001220703</ele>
        <time>2013-02-27T12:56:43.000Z</time>
      </trkpt>
      <trkpt lat="44.42703" lon="4.49943">
        <ele>705.20001220703</ele>
        <time>2013-02-27T12:56:44.000Z</time>
      </trkpt>
      <trkpt lat="44.42703" lon="4.49943">
        <ele>705.20001220703</ele>
        <time>2013-02-27T12:56:45.000Z</time>
      </trkpt>
      <trkpt lat="44.42703" lon="4.49943">
        <ele>705.20001220703</ele>
        <time>2013-02-27T12:56:46.000Z</time>
      </trkpt>
      <trkpt lat="44.42703" lon="4.49943">
        <ele>705.20001220703</ele>
        <time>2013-02-27T12:56:47.000Z</time>
      </trkpt>
      <trkpt lat="44.42703" lon="4.49943">
        <ele>705.20001220703</ele>
        <time>2013-02-27T12:56:48.000Z</time>
      </trkpt>
      <trkpt lat="44.42703" lon="4.49943">
        <ele>705.20001220703</ele>
        <time>2013-02-27T12:56:49.000Z</time>
      </trkpt>
      <trkpt lat="44.42703" lon="4.49943">
        <ele>705.20001220703</ele>
        <time>2013-02-27T12:56:50.000Z</time>
      </trkpt>
      <trkpt lat="44.42703" lon="4.49943">
        <ele>705.20001220703</ele>
        <time>2013-02-27T12:56:51.000Z</time>
      </trkpt>
      <trkpt lat="44.42703" lon="4.49944">
        <ele>705.79998779297</ele>
        <time>2013-02-27T12:56:52.000Z</time>
      </trkpt>
      <trkpt lat="44.42703" lon="4.49944">
        <ele>705.79998779297</ele>
        <time>2013-02-27T12:56:53.000Z</time>
      </trkpt>
      <trkpt lat="44.42703" lon="4.49944">
        <ele>705.79998779297</ele>
        <time>2013-02-27T12:56:54.000Z</time>
      </trkpt>
      <trkpt lat="44.42703" lon="4.49943">
        <ele>705.79998779297</ele>
        <time>2013-02-27T12:56:55.000Z</time>
      </trkpt>
      <trkpt lat="44.42703" lon="4.49943">
        <ele>705.79998779297</ele>
        <time>2013-02-27T12:56:56.000Z</time>
      </trkpt>
      <trkpt lat="44.42703" lon="4.49943">
        <ele>705.79998779297</ele>
        <time>2013-02-27T12:56:57.000Z</time>
      </trkpt>
      <trkpt lat="44.42703" lon="4.49943">
        <ele>705.79998779297</ele>
        <time>2013-02-27T12:56:58.000Z</time>
      </trkpt>
      <trkpt lat="44.42703" lon="4.49943">
        <ele>705.20001220703</ele>
        <time>2013-02-27T12:56:59.000Z</time>
      </trkpt>
      <trkpt lat="44.42703" lon="4.49942">
        <ele>704.79998779297</ele>
        <time>2013-02-27T12:57:00.000Z</time>
      </trkpt>
      <trkpt lat="44.42704" lon="4.49941">
        <ele>704.40002441406</ele>
        <time>2013-02-27T12:57:01.000Z</time>
      </trkpt>
      <trkpt lat="44.42704" lon="4.49941">
        <ele>703.79998779297</ele>
        <time>2013-02-27T12:57:02.000Z</time>
      </trkpt>
      <trkpt lat="44.42704" lon="4.49941">
        <ele>703.79998779297</ele>
        <time>2013-02-27T12:57:03.000Z</time>
      </trkpt>
      <trkpt lat="44.42704" lon="4.49941">
        <ele>703.40002441406</ele>
        <time>2013-02-27T12:57:04.000Z</time>
      </trkpt>
      <trkpt lat="44.42705" lon="4.4994">
        <ele>703.40002441406</ele>
        <time>2013-02-27T12:57:05.000Z</time>
      </trkpt>
      <trkpt lat="44.42705" lon="4.49941">
        <ele>703.40002441406</ele>
        <time>2013-02-27T12:57:06.000Z</time>
      </trkpt>
      <trkpt lat="44.42704" lon="4.49941">
        <ele>703.40002441406</ele>
        <time>2013-02-27T12:57:07.000Z</time>
      </trkpt>
      <trkpt lat="44.42704" lon="4.49941">
        <ele>703.79998779297</ele>
        <time>2013-02-27T12:57:08.000Z</time>
      </trkpt>
      <trkpt lat="44.42704" lon="4.49941">
        <ele>703.40002441406</ele>
        <time>2013-02-27T12:57:09.000Z</time>
      </trkpt>
      <trkpt lat="44.42704" lon="4.49941">
        <ele>703.40002441406</ele>
        <time>2013-02-27T12:57:10.000Z</time>
      </trkpt>
      <trkpt lat="44.42704" lon="4.49941">
        <ele>703.79998779297</ele>
        <time>2013-02-27T12:57:11.000Z</time>
      </trkpt>
      <trkpt lat="44.42704" lon="4.49942">
        <ele>703.79998779297</ele>
        <time>2013-02-27T12:57:12.000Z</time>
      </trkpt>
      <trkpt lat="44.42703" lon="4.49941">
        <ele>703.79998779297</ele>
        <time>2013-02-27T12:57:13.000Z</time>
      </trkpt>
      <trkpt lat="44.42703" lon="4.49941">
        <ele>703.40002441406</ele>
        <time>2013-02-27T12:57:14.000Z</time>
      </trkpt>
      <trkpt lat="44.42703" lon="4.49941">
        <ele>703.40002441406</ele>
        <time>2013-02-27T12:57:15.000Z</time>
      </trkpt>
      <trkpt lat="44.42703" lon="4.49941">
        <ele>702.79998779297</ele>
        <time>2013-02-27T12:57:16.000Z</time>
      </trkpt>
      <trkpt lat="44.42703" lon="4.49941">
        <ele>702.40002441406</ele>
        <time>2013-02-27T12:57:17.000Z</time>
      </trkpt>
      <trkpt lat="44.42703" lon="4.4994">
        <ele>701.79998779297</ele>
        <time>2013-02-27T12:57:18.000Z</time>
      </trkpt>
      <trkpt lat="44.42704" lon="4.4994">
        <ele>701.40002441406</ele>
        <time>2013-02-27T12:57:19.000Z</time>
      </trkpt>
      <trkpt lat="44.42704" lon="4.49939">
        <ele>701</ele>
        <time>2013-02-27T12:57:20.000Z</time>
      </trkpt>
      <trkpt lat="44.42704" lon="4.49939">
        <ele>700.40002441406</ele>
        <time>2013-02-27T12:57:21.000Z</time>
      </trkpt>
      <trkpt lat="44.42704" lon="4.49939">
        <ele>700.40002441406</ele>
        <time>2013-02-27T12:57:22.000Z</time>
      </trkpt>
      <trkpt lat="44.42704" lon="4.49939">
        <ele>700.40002441406</ele>
        <time>2013-02-27T12:57:23.000Z</time>
      </trkpt>
      <trkpt lat="44.42704" lon="4.49939">
        <ele>700</ele>
        <time>2013-02-27T12:57:24.000Z</time>
      </trkpt>
      <trkpt lat="44.42704" lon="4.49939">
        <ele>700</ele>
        <time>2013-02-27T12:57:25.000Z</time>
      </trkpt>
      <trkpt lat="44.42704" lon="4.49939">
        <ele>700</ele>
        <time>2013-02-27T12:57:26.000Z</time>
      </trkpt>
      <trkpt lat="44.42704" lon="4.49939">
        <ele>700</ele>
        <time>2013-02-27T12:57:27.000Z</time>
      </trkpt>
      <trkpt lat="44.42705" lon="4.49939">
        <ele>700</ele>
        <time>2013-02-27T12:57:28.000Z</time>
      </trkpt>
      <trkpt lat="44.42705" lon="4.49939">
        <ele>699.40002441406</ele>
        <time>2013-02-27T12:57:29.000Z</time>
      </trkpt>
      <trkpt lat="44.42705" lon="4.49939">
        <ele>699.40002441406</ele>
        <time>2013-02-27T12:57:30.000Z</time>
      </trkpt>
      <trkpt lat="44.42705" lon="4.49938">
        <ele>699</ele>
        <time>2013-02-27T12:57:31.000Z</time>
      </trkpt>
      <trkpt lat="44.42706" lon="4.49938">
        <ele>699</ele>
        <time>2013-02-27T12:57:32.000Z</time>
      </trkpt>
      <trkpt lat="44.42706" lon="4.49937">
        <ele>698.59997558594</ele>
        <time>2013-02-27T12:57:33.000Z</time>
      </trkpt>
      <trkpt lat="44.42706" lon="4.49937">
        <ele>698.59997558594</ele>
        <time>2013-02-27T12:57:34.000Z</time>
      </trkpt>
      <trkpt lat="44.42706" lon="4.49936">
        <ele>698.59997558594</ele>
        <time>2013-02-27T12:57:35.000Z</time>
      </trkpt>
      <trkpt lat="44.42707" lon="4.49936">
        <ele>698.59997558594</ele>
        <time>2013-02-27T12:57:36.000Z</time>
      </trkpt>
      <trkpt lat="44.42707" lon="4.49936">
        <ele>698.59997558594</ele>
        <time>2013-02-27T12:57:37.000Z</time>
      </trkpt>
      <trkpt lat="44.42707" lon="4.49936">
        <ele>699</ele>
        <time>2013-02-27T12:57:38.000Z</time>
      </trkpt>
      <trkpt lat="44.42707" lon="4.49936">
        <ele>699</ele>
        <time>2013-02-27T12:57:39.000Z</time>
      </trkpt>
      <trkpt lat="44.42707" lon="4.49936">
        <ele>699.40002441406</ele>
        <time>2013-02-27T12:57:40.000Z</time>
      </trkpt>
      <trkpt lat="44.42707" lon="4.49936">
        <ele>700</ele>
        <time>2013-02-27T12:57:41.000Z</time>
      </trkpt>
      <trkpt lat="44.42708" lon="4.49936">
        <ele>700</ele>
        <time>2013-02-27T12:57:42.000Z</time>
      </trkpt>
      <trkpt lat="44.42708" lon="4.49936">
        <ele>700.40002441406</ele>
        <time>2013-02-27T12:57:43.000Z</time>
      </trkpt>
      <trkpt lat="44.42709" lon="4.49935">
        <ele>700</ele>
        <time>2013-02-27T12:57:44.000Z</time>
      </trkpt>
      <trkpt lat="44.4271" lon="4.49935">
        <ele>700.40002441406</ele>
        <time>2013-02-27T12:57:45.000Z</time>
      </trkpt>
      <trkpt lat="44.42711" lon="4.49935">
        <ele>700.40002441406</ele>
        <time>2013-02-27T12:57:46.000Z</time>
      </trkpt>
      <trkpt lat="44.42712" lon="4.49936">
        <ele>700.40002441406</ele>
        <time>2013-02-27T12:57:47.000Z</time>
      </trkpt>
      <trkpt lat="44.42713" lon="4.49936">
        <ele>700</ele>
        <time>2013-02-27T12:57:48.000Z</time>
      </trkpt>
      <trkpt lat="44.42714" lon="4.49935">
        <ele>700</ele>
        <time>2013-02-27T12:57:49.000Z</time>
      </trkpt>
      <trkpt lat="44.42714" lon="4.49934">
        <ele>700</ele>
        <time>2013-02-27T12:57:50.000Z</time>
      </trkpt>
      <trkpt lat="44.42714" lon="4.49934">
        <ele>699.40002441406</ele>
        <time>2013-02-27T12:57:51.000Z</time>
      </trkpt>
      <trkpt lat="44.42714" lon="4.49933">
        <ele>699</ele>
        <time>2013-02-27T12:57:52.000Z</time>
      </trkpt>
      <trkpt lat="44.42714" lon="4.49933">
        <ele>699.40002441406</ele>
        <time>2013-02-27T12:57:53.000Z</time>
      </trkpt>
      <trkpt lat="44.42715" lon="4.49932">
        <ele>700</ele>
        <time>2013-02-27T12:57:54.000Z</time>
      </trkpt>
      <trkpt lat="44.42715" lon="4.49932">
        <ele>700</ele>
        <time>2013-02-27T12:57:55.000Z</time>
      </trkpt>
      <trkpt lat="44.42716" lon="4.49932">
        <ele>700</ele>
        <time>2013-02-27T12:57:56.000Z</time>
      </trkpt>
      <trkpt lat="44.42717" lon="4.49932">
        <ele>700.40002441406</ele>
        <time>2013-02-27T12:57:57.000Z</time>
      </trkpt>
      <trkpt lat="44.42718" lon="4.49932">
        <ele>700.40002441406</ele>
        <time>2013-02-27T12:57:58.000Z</time>
      </trkpt>
      <trkpt lat="44.42718" lon="4.49933">
        <ele>700</ele>
        <time>2013-02-27T12:57:59.000Z</time>
      </trkpt>
      <trkpt lat="44.42719" lon="4.49933">
        <ele>700.40002441406</ele>
        <time>2013-02-27T12:58:00.000Z</time>
      </trkpt>
      <trkpt lat="44.4272" lon="4.49933">
        <ele>700.40002441406</ele>
        <time>2013-02-27T12:58:01.000Z</time>
      </trkpt>
      <trkpt lat="44.4272" lon="4.49933">
        <ele>700.40002441406</ele>
        <time>2013-02-27T12:58:02.000Z</time>
      </trkpt>
      <trkpt lat="44.42721" lon="4.49933">
        <ele>700.40002441406</ele>
        <time>2013-02-27T12:58:03.000Z</time>
      </trkpt>
      <trkpt lat="44.42722" lon="4.49933">
        <ele>700.40002441406</ele>
        <time>2013-02-27T12:58:04.000Z</time>
      </trkpt>
      <trkpt lat="44.42723" lon="4.49933">
        <ele>700.40002441406</ele>
        <time>2013-02-27T12:58:05.000Z</time>
      </trkpt>
      <trkpt lat="44.42723" lon="4.49934">
        <ele>701</ele>
        <time>2013-02-27T12:58:06.000Z</time>
      </trkpt>
      <trkpt lat="44.42724" lon="4.49935">
        <ele>701</ele>
        <time>2013-02-27T12:58:07.000Z</time>
      </trkpt>
      <trkpt lat="44.42724" lon="4.49936">
        <ele>701</ele>
        <time>2013-02-27T12:58:08.000Z</time>
      </trkpt>
      <trkpt lat="44.42725" lon="4.49937">
        <ele>701</ele>
        <time>2013-02-27T12:58:09.000Z</time>
      </trkpt>
      <trkpt lat="44.42726" lon="4.49937">
        <ele>701.40002441406</ele>
        <time>2013-02-27T12:58:10.000Z</time>
      </trkpt>
      <trkpt lat="44.42726" lon="4.49939">
        <ele>701</ele>
        <time>2013-02-27T12:58:11.000Z</time>
      </trkpt>
      <trkpt lat="44.42726" lon="4.4994">
        <ele>701.40002441406</ele>
        <time>2013-02-27T12:58:12.000Z</time>
      </trkpt>
      <trkpt lat="44.42726" lon="4.49942">
        <ele>701.40002441406</ele>
        <time>2013-02-27T12:58:13.000Z</time>
      </trkpt>
      <trkpt lat="44.42727" lon="4.49943">
        <ele>701.40002441406</ele>
        <time>2013-02-27T12:58:14.000Z</time>
      </trkpt>
      <trkpt lat="44.42728" lon="4.49943">
        <ele>701.40002441406</ele>
        <time>2013-02-27T12:58:15.000Z</time>
      </trkpt>
      <trkpt lat="44.42729" lon="4.49944">
        <ele>701.40002441406</ele>
        <time>2013-02-27T12:58:16.000Z</time>
      </trkpt>
      <trkpt lat="44.42729" lon="4.49946">
        <ele>701.40002441406</ele>
        <time>2013-02-27T12:58:17.000Z</time>
      </trkpt>
      <trkpt lat="44.42729" lon="4.49947">
        <ele>701.40002441406</ele>
        <time>2013-02-27T12:58:18.000Z</time>
      </trkpt>
      <trkpt lat="44.4273" lon="4.49948">
        <ele>701.40002441406</ele>
        <time>2013-02-27T12:58:19.000Z</time>
      </trkpt>
      <trkpt lat="44.4273" lon="4.49949">
        <ele>701.40002441406</ele>
        <time>2013-02-27T12:58:20.000Z</time>
      </trkpt>
      <trkpt lat="44.4273" lon="4.49951">
        <ele>701.40002441406</ele>
        <time>2013-02-27T12:58:21.000Z</time>
      </trkpt>
      <trkpt lat="44.4273" lon="4.49952">
        <ele>701.40002441406</ele>
        <time>2013-02-27T12:58:22.000Z</time>
      </trkpt>
      <trkpt lat="44.4273" lon="4.49953">
        <ele>701.40002441406</ele>
        <time>2013-02-27T12:58:23.000Z</time>
      </trkpt>
      <trkpt lat="44.42731" lon="4.49954">
        <ele>701.40002441406</ele>
        <time>2013-02-27T12:58:24.000Z</time>
      </trkpt>
      <trkpt lat="44.42731" lon="4.49955">
        <ele>701.40002441406</ele>
        <time>2013-02-27T12:58:25.000Z</time>
      </trkpt>
      <trkpt lat="44.42731" lon="4.49956">
        <ele>701</ele>
        <time>2013-02-27T12:58:26.000Z</time>
      </trkpt>
      <trkpt lat="44.42731" lon="4.49958">
        <ele>701</ele>
        <time>2013-02-27T12:58:27.000Z</time>
      </trkpt>
      <trkpt lat="44.42731" lon="4.49959">
        <ele>701</ele>
        <time>2013-02-27T12:58:28.000Z</time>
      </trkpt>
      <trkpt lat="44.42731" lon="4.4996">
        <ele>701</ele>
        <time>2013-02-27T12:58:29.000Z</time>
      </trkpt>
      <trkpt lat="44.42732" lon="4.49961">
        <ele>701</ele>
        <time>2013-02-27T12:58:30.000Z</time>
      </trkpt>
      <trkpt lat="44.42732" lon="4.49962">
        <ele>701</ele>
        <time>2013-02-27T12:58:31.000Z</time>
      </trkpt>
      <trkpt lat="44.42732" lon="4.49963">
        <ele>701.40002441406</ele>
        <time>2013-02-27T12:58:32.000Z</time>
      </trkpt>
      <trkpt lat="44.42732" lon="4.49964">
        <ele>701.40002441406</ele>
        <time>2013-02-27T12:58:33.000Z</time>
      </trkpt>
      <trkpt lat="44.42732" lon="4.49965">
        <ele>701</ele>
        <time>2013-02-27T12:58:34.000Z</time>
      </trkpt>
      <trkpt lat="44.42732" lon="4.49966">
        <ele>701</ele>
        <time>2013-02-27T12:58:35.000Z</time>
      </trkpt>
      <trkpt lat="44.42732" lon="4.49967">
        <ele>701</ele>
        <time>2013-02-27T12:58:36.000Z</time>
      </trkpt>
      <trkpt lat="44.42732" lon="4.49969">
        <ele>701</ele>
        <time>2013-02-27T12:58:37.000Z</time>
      </trkpt>
      <trkpt lat="44.42732" lon="4.4997">
        <ele>701.40002441406</ele>
        <time>2013-02-27T12:58:38.000Z</time>
      </trkpt>
      <trkpt lat="44.42732" lon="4.49971">
        <ele>701.40002441406</ele>
        <time>2013-02-27T12:58:39.000Z</time>
      </trkpt>
      <trkpt lat="44.42732" lon="4.49971">
        <ele>701</ele>
        <time>2013-02-27T12:58:40.000Z</time>
      </trkpt>
      <trkpt lat="44.42732" lon="4.49972">
        <ele>700.40002441406</ele>
        <time>2013-02-27T12:58:41.000Z</time>
      </trkpt>
      <trkpt lat="44.42731" lon="4.49973">
        <ele>700</ele>
        <time>2013-02-27T12:58:42.000Z</time>
      </trkpt>
      <trkpt lat="44.42731" lon="4.49974">
        <ele>700.40002441406</ele>
        <time>2013-02-27T12:58:43.000Z</time>
      </trkpt>
      <trkpt lat="44.42732" lon="4.49975">
        <ele>700.40002441406</ele>
        <time>2013-02-27T12:58:44.000Z</time>
      </trkpt>
      <trkpt lat="44.42732" lon="4.49976">
        <ele>700.40002441406</ele>
        <time>2013-02-27T12:58:45.000Z</time>
      </trkpt>
      <trkpt lat="44.42732" lon="4.49977">
        <ele>700.40002441406</ele>
        <time>2013-02-27T12:58:46.000Z</time>
      </trkpt>
      <trkpt lat="44.42733" lon="4.49978">
        <ele>700.40002441406</ele>
        <time>2013-02-27T12:58:47.000Z</time>
      </trkpt>
      <trkpt lat="44.42733" lon="4.49979">
        <ele>700.40002441406</ele>
        <time>2013-02-27T12:58:48.000Z</time>
      </trkpt>
      <trkpt lat="44.42733" lon="4.49981">
        <ele>700.40002441406</ele>
        <time>2013-02-27T12:58:49.000Z</time>
      </trkpt>
      <trkpt lat="44.42734" lon="4.49982">
        <ele>701</ele>
        <time>2013-02-27T12:58:50.000Z</time>
      </trkpt>
      <trkpt lat="44.42734" lon="4.49983">
        <ele>701</ele>
        <time>2013-02-27T12:58:51.000Z</time>
      </trkpt>
      <trkpt lat="44.42735" lon="4.49985">
        <ele>701.40002441406</ele>
        <time>2013-02-27T12:58:52.000Z</time>
      </trkpt>
      <trkpt lat="44.42736" lon="4.49986">
        <ele>701.40002441406</ele>
        <time>2013-02-27T12:58:53.000Z</time>
      </trkpt>
      <trkpt lat="44.42736" lon="4.49988">
        <ele>701.40002441406</ele>
        <time>2013-02-27T12:58:54.000Z</time>
      </trkpt>
      <trkpt lat="44.42736" lon="4.49989">
        <ele>701.40002441406</ele>
        <time>2013-02-27T12:58:55.000Z</time>
      </trkpt>
      <trkpt lat="44.42737" lon="4.4999">
        <ele>701.40002441406</ele>
        <time>2013-02-27T12:58:56.000Z</time>
      </trkpt>
      <trkpt lat="44.42737" lon="4.49991">
        <ele>701.40002441406</ele>
        <time>2013-02-27T12:58:57.000Z</time>
      </trkpt>
      <trkpt lat="44.42738" lon="4.49992">
        <ele>701.79998779297</ele>
        <time>2013-02-27T12:58:58.000Z</time>
      </trkpt>
      <trkpt lat="44.42738" lon="4.49993">
        <ele>701.79998779297</ele>
        <time>2013-02-27T12:58:59.000Z</time>
      </trkpt>
      <trkpt lat="44.42738" lon="4.49994">
        <ele>702.40002441406</ele>
        <time>2013-02-27T12:59:00.000Z</time>
      </trkpt>
      <trkpt lat="44.42739" lon="4.49994">
        <ele>702.79998779297</ele>
        <time>2013-02-27T12:59:01.000Z</time>
      </trkpt>
      <trkpt lat="44.42739" lon="4.49994">
        <ele>702.79998779297</ele>
        <time>2013-02-27T12:59:02.000Z</time>
      </trkpt>
      <trkpt lat="44.4274" lon="4.49995">
        <ele>702.79998779297</ele>
        <time>2013-02-27T12:59:03.000Z</time>
      </trkpt>
      <trkpt lat="44.4274" lon="4.49997">
        <ele>702.79998779297</ele>
        <time>2013-02-27T12:59:04.000Z</time>
      </trkpt>
      <trkpt lat="44.42741" lon="4.49997">
        <ele>702.79998779297</ele>
        <time>2013-02-27T12:59:05.000Z</time>
      </trkpt>
      <trkpt lat="44.42741" lon="4.49997">
        <ele>703.40002441406</ele>
        <time>2013-02-27T12:59:06.000Z</time>
      </trkpt>
      <trkpt lat="44.42742" lon="4.49998">
        <ele>703.40002441406</ele>
        <time>2013-02-27T12:59:07.000Z</time>
      </trkpt>
      <trkpt lat="44.42743" lon="4.49999">
        <ele>703.40002441406</ele>
        <time>2013-02-27T12:59:08.000Z</time>
      </trkpt>
      <trkpt lat="44.42744" lon="4.5">
        <ele>703.40002441406</ele>
        <time>2013-02-27T12:59:09.000Z</time>
      </trkpt>
      <trkpt lat="44.42745" lon="4.50001">
        <ele>703.79998779297</ele>
        <time>2013-02-27T12:59:10.000Z</time>
      </trkpt>
      <trkpt lat="44.42745" lon="4.50002">
        <ele>703.79998779297</ele>
        <time>2013-02-27T12:59:11.000Z</time>
      </trkpt>
      <trkpt lat="44.42745" lon="4.50003">
        <ele>703.79998779297</ele>
        <time>2013-02-27T12:59:12.000Z</time>
      </trkpt>
      <trkpt lat="44.42746" lon="4.50004">
        <ele>703.79998779297</ele>
        <time>2013-02-27T12:59:13.000Z</time>
      </trkpt>
      <trkpt lat="44.42747" lon="4.50004">
        <ele>703.79998779297</ele>
        <time>2013-02-27T12:59:14.000Z</time>
      </trkpt>
      <trkpt lat="44.42747" lon="4.50005">
        <ele>703.79998779297</ele>
        <time>2013-02-27T12:59:15.000Z</time>
      </trkpt>
      <trkpt lat="44.42748" lon="4.50006">
        <ele>703.79998779297</ele>
        <time>2013-02-27T12:59:16.000Z</time>
      </trkpt>
      <trkpt lat="44.42748" lon="4.50007">
        <ele>703.79998779297</ele>
        <time>2013-02-27T12:59:17.000Z</time>
      </trkpt>
      <trkpt lat="44.42748" lon="4.50008">
        <ele>703.79998779297</ele>
        <time>2013-02-27T12:59:18.000Z</time>
      </trkpt>
      <trkpt lat="44.42749" lon="4.50008">
        <ele>704.40002441406</ele>
        <time>2013-02-27T12:59:19.000Z</time>
      </trkpt>
      <trkpt lat="44.42751" lon="4.50008">
        <ele>704.79998779297</ele>
        <time>2013-02-27T12:59:20.000Z</time>
      </trkpt>
      <trkpt lat="44.42751" lon="4.50009">
        <ele>704.40002441406</ele>
        <time>2013-02-27T12:59:21.000Z</time>
      </trkpt>
      <trkpt lat="44.42752" lon="4.50009">
        <ele>704.40002441406</ele>
        <time>2013-02-27T12:59:22.000Z</time>
      </trkpt>
      <trkpt lat="44.42753" lon="4.5001">
        <ele>704.40002441406</ele>
        <time>2013-02-27T12:59:23.000Z</time>
      </trkpt>
      <trkpt lat="44.42753" lon="4.50011">
        <ele>703.79998779297</ele>
        <time>2013-02-27T12:59:24.000Z</time>
      </trkpt>
      <trkpt lat="44.42753" lon="4.50013">
        <ele>703.79998779297</ele>
        <time>2013-02-27T12:59:25.000Z</time>
      </trkpt>
      <trkpt lat="44.42754" lon="4.50013">
        <ele>703.40002441406</ele>
        <time>2013-02-27T12:59:26.000Z</time>
      </trkpt>
      <trkpt lat="44.42754" lon="4.50014">
        <ele>703.40002441406</ele>
        <time>2013-02-27T12:59:27.000Z</time>
      </trkpt>
      <trkpt lat="44.42754" lon="4.50015">
        <ele>703.40002441406</ele>
        <time>2013-02-27T12:59:28.000Z</time>
      </trkpt>
      <trkpt lat="44.42754" lon="4.50016">
        <ele>702.79998779297</ele>
        <time>2013-02-27T12:59:29.000Z</time>
      </trkpt>
      <trkpt lat="44.42754" lon="4.50017">
        <ele>702.79998779297</ele>
        <time>2013-02-27T12:59:30.000Z</time>
      </trkpt>
      <trkpt lat="44.42753" lon="4.50018">
        <ele>702.79998779297</ele>
        <time>2013-02-27T12:59:31.000Z</time>
      </trkpt>
      <trkpt lat="44.42753" lon="4.50019">
        <ele>702.79998779297</ele>
        <time>2013-02-27T12:59:32.000Z</time>
      </trkpt>
      <trkpt lat="44.42753" lon="4.5002">
        <ele>702.40002441406</ele>
        <time>2013-02-27T12:59:33.000Z</time>
      </trkpt>
      <trkpt lat="44.42753" lon="4.50021">
        <ele>702.40002441406</ele>
        <time>2013-02-27T12:59:34.000Z</time>
      </trkpt>
      <trkpt lat="44.42752" lon="4.50023">
        <ele>702.79998779297</ele>
        <time>2013-02-27T12:59:35.000Z</time>
      </trkpt>
      <trkpt lat="44.42752" lon="4.50025">
        <ele>702.79998779297</ele>
        <time>2013-02-27T12:59:36.000Z</time>
      </trkpt>
      <trkpt lat="44.42753" lon="4.50026">
        <ele>702.79998779297</ele>
        <time>2013-02-27T12:59:37.000Z</time>
      </trkpt>
      <trkpt lat="44.42753" lon="4.50027">
        <ele>703.40002441406</ele>
        <time>2013-02-27T12:59:38.000Z</time>
      </trkpt>
      <trkpt lat="44.42753" lon="4.50027">
        <ele>702.79998779297</ele>
        <time>2013-02-27T12:59:39.000Z</time>
      </trkpt>
      <trkpt lat="44.42754" lon="4.50028">
        <ele>702.79998779297</ele>
        <time>2013-02-27T12:59:40.000Z</time>
      </trkpt>
      <trkpt lat="44.42754" lon="4.5003">
        <ele>702.79998779297</ele>
        <time>2013-02-27T12:59:41.000Z</time>
      </trkpt>
      <trkpt lat="44.42754" lon="4.50031">
        <ele>702.79998779297</ele>
        <time>2013-02-27T12:59:42.000Z</time>
      </trkpt>
      <trkpt lat="44.42754" lon="4.50032">
        <ele>702.79998779297</ele>
        <time>2013-02-27T12:59:43.000Z</time>
      </trkpt>
      <trkpt lat="44.42754" lon="4.50033">
        <ele>702.79998779297</ele>
        <time>2013-02-27T12:59:44.000Z</time>
      </trkpt>
      <trkpt lat="44.42754" lon="4.50034">
        <ele>703.40002441406</ele>
        <time>2013-02-27T12:59:45.000Z</time>
      </trkpt>
      <trkpt lat="44.42754" lon="4.50034">
        <ele>703.40002441406</ele>
        <time>2013-02-27T12:59:46.000Z</time>
      </trkpt>
      <trkpt lat="44.42754" lon="4.50034">
        <ele>703.40002441406</ele>
        <time>2013-02-27T12:59:47.000Z</time>
      </trkpt>
      <trkpt lat="44.42754" lon="4.50034">
        <ele>703.79998779297</ele>
        <time>2013-02-27T12:59:48.000Z</time>
      </trkpt>
      <trkpt lat="44.42754" lon="4.50034">
        <ele>703.79998779297</ele>
        <time>2013-02-27T12:59:49.000Z</time>
      </trkpt>
      <trkpt lat="44.42755" lon="4.50034">
        <ele>704.40002441406</ele>
        <time>2013-02-27T12:59:50.000Z</time>
      </trkpt>
      <trkpt lat="44.42755" lon="4.50035">
        <ele>704.40002441406</ele>
        <time>2013-02-27T12:59:51.000Z</time>
      </trkpt>
      <trkpt lat="44.42755" lon="4.50035">
        <ele>704.79998779297</ele>
        <time>2013-02-27T12:59:52.000Z</time>
      </trkpt>
      <trkpt lat="44.42755" lon="4.50035">
        <ele>705.79998779297</ele>
        <time>2013-02-27T12:59:53.000Z</time>
      </trkpt>
      <trkpt lat="44.42755" lon="4.50035">
        <ele>706.20001220703</ele>
        <time>2013-02-27T12:59:54.000Z</time>
      </trkpt>
      <trkpt lat="44.42755" lon="4.50036">
        <ele>706.79998779297</ele>
        <time>2013-02-27T12:59:55.000Z</time>
      </trkpt>
      <trkpt lat="44.42756" lon="4.50036">
        <ele>707.20001220703</ele>
        <time>2013-02-27T12:59:56.000Z</time>
      </trkpt>
      <trkpt lat="44.42756" lon="4.50036">
        <ele>707.20001220703</ele>
        <time>2013-02-27T12:59:57.000Z</time>
      </trkpt>
      <trkpt lat="44.42756" lon="4.50036">
        <ele>707.59997558594</ele>
        <time>2013-02-27T12:59:58.000Z</time>
      </trkpt>
      <trkpt lat="44.42756" lon="4.50036">
        <ele>707.59997558594</ele>
        <time>2013-02-27T12:59:59.000Z</time>
      </trkpt>
      <trkpt lat="44.42756" lon="4.50036">
        <ele>707.59997558594</ele>
        <time>2013-02-27T13:00:00.000Z</time>
      </trkpt>
      <trkpt lat="44.42756" lon="4.50036">
        <ele>708.20001220703</ele>
        <time>2013-02-27T13:00:01.000Z</time>
      </trkpt>
      <trkpt lat="44.42756" lon="4.50037">
        <ele>708.20001220703</ele>
        <time>2013-02-27T13:00:02.000Z</time>
      </trkpt>
      <trkpt lat="44.42757" lon="4.50037">
        <ele>708.59997558594</ele>
        <time>2013-02-27T13:00:03.000Z</time>
      </trkpt>
      <trkpt lat="44.42757" lon="4.50036">
        <ele>708.59997558594</ele>
        <time>2013-02-27T13:00:04.000Z</time>
      </trkpt>
      <trkpt lat="44.42757" lon="4.50036">
        <ele>708.59997558594</ele>
        <time>2013-02-27T13:00:05.000Z</time>
      </trkpt>
      <trkpt lat="44.42757" lon="4.50036">
        <ele>708.20001220703</ele>
        <time>2013-02-27T13:00:06.000Z</time>
      </trkpt>
      <trkpt lat="44.42757" lon="4.50036">
        <ele>707.59997558594</ele>
        <time>2013-02-27T13:00:07.000Z</time>
      </trkpt>
      <trkpt lat="44.42758" lon="4.50037">
        <ele>707.59997558594</ele>
        <time>2013-02-27T13:00:08.000Z</time>
      </trkpt>
      <trkpt lat="44.42758" lon="4.50037">
        <ele>707.20001220703</ele>
        <time>2013-02-27T13:00:09.000Z</time>
      </trkpt>
      <trkpt lat="44.42759" lon="4.50038">
        <ele>707.20001220703</ele>
        <time>2013-02-27T13:00:10.000Z</time>
      </trkpt>
      <trkpt lat="44.42759" lon="4.50039">
        <ele>707.20001220703</ele>
        <time>2013-02-27T13:00:11.000Z</time>
      </trkpt>
      <trkpt lat="44.4276" lon="4.5004">
        <ele>707.20001220703</ele>
        <time>2013-02-27T13:00:12.000Z</time>
      </trkpt>
      <trkpt lat="44.4276" lon="4.50041">
        <ele>706.79998779297</ele>
        <time>2013-02-27T13:00:13.000Z</time>
      </trkpt>
      <trkpt lat="44.42761" lon="4.5004">
        <ele>707.20001220703</ele>
        <time>2013-02-27T13:00:14.000Z</time>
      </trkpt>
      <trkpt lat="44.42762" lon="4.5004">
        <ele>707.59997558594</ele>
        <time>2013-02-27T13:00:15.000Z</time>
      </trkpt>
      <trkpt lat="44.42763" lon="4.5004">
        <ele>707.59997558594</ele>
        <time>2013-02-27T13:00:16.000Z</time>
      </trkpt>
      <trkpt lat="44.42763" lon="4.50041">
        <ele>707.59997558594</ele>
        <time>2013-02-27T13:00:17.000Z</time>
      </trkpt>
      <trkpt lat="44.42764" lon="4.50041">
        <ele>707.59997558594</ele>
        <time>2013-02-27T13:00:18.000Z</time>
      </trkpt>
      <trkpt lat="44.42765" lon="4.50041">
        <ele>707.59997558594</ele>
        <time>2013-02-27T13:00:19.000Z</time>
      </trkpt>
      <trkpt lat="44.42766" lon="4.50042">
        <ele>707.59997558594</ele>
        <time>2013-02-27T13:00:20.000Z</time>
      </trkpt>
      <trkpt lat="44.42767" lon="4.50042">
        <ele>707.59997558594</ele>
        <time>2013-02-27T13:00:21.000Z</time>
      </trkpt>
      <trkpt lat="44.42768" lon="4.50041">
        <ele>708.20001220703</ele>
        <time>2013-02-27T13:00:22.000Z</time>
      </trkpt>
      <trkpt lat="44.42769" lon="4.50041">
        <ele>708.59997558594</ele>
        <time>2013-02-27T13:00:23.000Z</time>
      </trkpt>
      <trkpt lat="44.4277" lon="4.50041">
        <ele>708.59997558594</ele>
        <time>2013-02-27T13:00:24.000Z</time>
      </trkpt>
      <trkpt lat="44.42771" lon="4.50041">
        <ele>708.59997558594</ele>
        <time>2013-02-27T13:00:25.000Z</time>
      </trkpt>
      <trkpt lat="44.42772" lon="4.50041">
        <ele>708.59997558594</ele>
        <time>2013-02-27T13:00:26.000Z</time>
      </trkpt>
      <trkpt lat="44.42773" lon="4.50041">
        <ele>708.59997558594</ele>
        <time>2013-02-27T13:00:27.000Z</time>
      </trkpt>
      <trkpt lat="44.42774" lon="4.50041">
        <ele>708.59997558594</ele>
        <time>2013-02-27T13:00:28.000Z</time>
      </trkpt>
      <trkpt lat="44.42774" lon="4.50041">
        <ele>708.59997558594</ele>
        <time>2013-02-27T13:00:29.000Z</time>
      </trkpt>
      <trkpt lat="44.42775" lon="4.50041">
        <ele>709.20001220703</ele>
        <time>2013-02-27T13:00:30.000Z</time>
      </trkpt>
      <trkpt lat="44.42775" lon="4.5004">
        <ele>709.20001220703</ele>
        <time>2013-02-27T13:00:31.000Z</time>
      </trkpt>
      <trkpt lat="44.42776" lon="4.50039">
        <ele>709.20001220703</ele>
        <time>2013-02-27T13:00:32.000Z</time>
      </trkpt>
      <trkpt lat="44.42776" lon="4.50038">
        <ele>709.20001220703</ele>
        <time>2013-02-27T13:00:33.000Z</time>
      </trkpt>
      <trkpt lat="44.42776" lon="4.50037">
        <ele>709.20001220703</ele>
        <time>2013-02-27T13:00:34.000Z</time>
      </trkpt>
      <trkpt lat="44.42777" lon="4.50036">
        <ele>709.59997558594</ele>
        <time>2013-02-27T13:00:35.000Z</time>
      </trkpt>
      <trkpt lat="44.42778" lon="4.50035">
        <ele>709.59997558594</ele>
        <time>2013-02-27T13:00:36.000Z</time>
      </trkpt>
      <trkpt lat="44.42779" lon="4.50035">
        <ele>709.59997558594</ele>
        <time>2013-02-27T13:00:37.000Z</time>
      </trkpt>
      <trkpt lat="44.4278" lon="4.50034">
        <ele>709.59997558594</ele>
        <time>2013-02-27T13:00:38.000Z</time>
      </trkpt>
      <trkpt lat="44.42781" lon="4.50034">
        <ele>709.59997558594</ele>
        <time>2013-02-27T13:00:39.000Z</time>
      </trkpt>
      <trkpt lat="44.42782" lon="4.50034">
        <ele>709.59997558594</ele>
        <time>2013-02-27T13:00:40.000Z</time>
      </trkpt>
      <trkpt lat="44.42783" lon="4.50034">
        <ele>709.59997558594</ele>
        <time>2013-02-27T13:00:41.000Z</time>
      </trkpt>
      <trkpt lat="44.42784" lon="4.50034">
        <ele>709.20001220703</ele>
        <time>2013-02-27T13:00:42.000Z</time>
      </trkpt>
      <trkpt lat="44.42785" lon="4.50034">
        <ele>709.20001220703</ele>
        <time>2013-02-27T13:00:43.000Z</time>
      </trkpt>
      <trkpt lat="44.42785" lon="4.50035">
        <ele>709.20001220703</ele>
        <time>2013-02-27T13:00:44.000Z</time>
      </trkpt>
      <trkpt lat="44.42785" lon="4.50035">
        <ele>709.20001220703</ele>
        <time>2013-02-27T13:00:45.000Z</time>
      </trkpt>
      <trkpt lat="44.42785" lon="4.50035">
        <ele>709.20001220703</ele>
        <time>2013-02-27T13:00:46.000Z</time>
      </trkpt>
      <trkpt lat="44.42785" lon="4.50035">
        <ele>709.20001220703</ele>
        <time>2013-02-27T13:00:47.000Z</time>
      </trkpt>
      <trkpt lat="44.42785" lon="4.50035">
        <ele>709.20001220703</ele>
        <time>2013-02-27T13:00:48.000Z</time>
      </trkpt>
      <trkpt lat="44.42785" lon="4.50035">
        <ele>709.20001220703</ele>
        <time>2013-02-27T13:00:49.000Z</time>
      </trkpt>
      <trkpt lat="44.42785" lon="4.50035">
        <ele>708.59997558594</ele>
        <time>2013-02-27T13:00:50.000Z</time>
      </trkpt>
      <trkpt lat="44.42785" lon="4.50036">
        <ele>708.59997558594</ele>
        <time>2013-02-27T13:00:51.000Z</time>
      </trkpt>
      <trkpt lat="44.42785" lon="4.50035">
        <ele>708.59997558594</ele>
        <time>2013-02-27T13:00:52.000Z</time>
      </trkpt>
      <trkpt lat="44.42784" lon="4.50035">
        <ele>708.59997558594</ele>
        <time>2013-02-27T13:00:53.000Z</time>
      </trkpt>
      <trkpt lat="44.42784" lon="4.50035">
        <ele>708.59997558594</ele>
        <time>2013-02-27T13:00:54.000Z</time>
      </trkpt>
      <trkpt lat="44.42784" lon="4.50035">
        <ele>708.59997558594</ele>
        <time>2013-02-27T13:00:55.000Z</time>
      </trkpt>
      <trkpt lat="44.42784" lon="4.50035">
        <ele>708.59997558594</ele>
        <time>2013-02-27T13:00:56.000Z</time>
      </trkpt>
      <trkpt lat="44.42784" lon="4.50035">
        <ele>708.59997558594</ele>
        <time>2013-02-27T13:00:57.000Z</time>
      </trkpt>
      <trkpt lat="44.42784" lon="4.50035">
        <ele>708.59997558594</ele>
        <time>2013-02-27T13:00:58.000Z</time>
      </trkpt>
      <trkpt lat="44.42784" lon="4.50035">
        <ele>708.20001220703</ele>
        <time>2013-02-27T13:00:59.000Z</time>
      </trkpt>
      <trkpt lat="44.42784" lon="4.50035">
        <ele>708.20001220703</ele>
        <time>2013-02-27T13:01:00.000Z</time>
      </trkpt>
      <trkpt lat="44.42785" lon="4.50035">
        <ele>708.59997558594</ele>
        <time>2013-02-27T13:01:01.000Z</time>
      </trkpt>
      <trkpt lat="44.42785" lon="4.50035">
        <ele>708.20001220703</ele>
        <time>2013-02-27T13:01:02.000Z</time>
      </trkpt>
      <trkpt lat="44.42786" lon="4.50035">
        <ele>708.20001220703</ele>
        <time>2013-02-27T13:01:03.000Z</time>
      </trkpt>
      <trkpt lat="44.42787" lon="4.50036">
        <ele>708.20001220703</ele>
        <time>2013-02-27T13:01:04.000Z</time>
      </trkpt>
      <trkpt lat="44.42788" lon="4.50036">
        <ele>708.20001220703</ele>
        <time>2013-02-27T13:01:05.000Z</time>
      </trkpt>
      <trkpt lat="44.42789" lon="4.50037">
        <ele>708.20001220703</ele>
        <time>2013-02-27T13:01:06.000Z</time>
      </trkpt>
      <trkpt lat="44.42789" lon="4.50037">
        <ele>708.20001220703</ele>
        <time>2013-02-27T13:01:07.000Z</time>
      </trkpt>
      <trkpt lat="44.4279" lon="4.50038">
        <ele>708.20001220703</ele>
        <time>2013-02-27T13:01:08.000Z</time>
      </trkpt>
      <trkpt lat="44.42791" lon="4.50039">
        <ele>708.20001220703</ele>
        <time>2013-02-27T13:01:09.000Z</time>
      </trkpt>
      <trkpt lat="44.42791" lon="4.50041">
        <ele>707.59997558594</ele>
        <time>2013-02-27T13:01:10.000Z</time>
      </trkpt>
      <trkpt lat="44.42792" lon="4.50042">
        <ele>707.59997558594</ele>
        <time>2013-02-27T13:01:11.000Z</time>
      </trkpt>
      <trkpt lat="44.42792" lon="4.50043">
        <ele>707.59997558594</ele>
        <time>2013-02-27T13:01:12.000Z</time>
      </trkpt>
      <trkpt lat="44.42793" lon="4.50044">
        <ele>707.59997558594</ele>
        <time>2013-02-27T13:01:13.000Z</time>
      </trkpt>
      <trkpt lat="44.42793" lon="4.50045">
        <ele>707.20001220703</ele>
        <time>2013-02-27T13:01:14.000Z</time>
      </trkpt>
      <trkpt lat="44.42794" lon="4.50046">
        <ele>707.20001220703</ele>
        <time>2013-02-27T13:01:15.000Z</time>
      </trkpt>
      <trkpt lat="44.42795" lon="4.50046">
        <ele>707.20001220703</ele>
        <time>2013-02-27T13:01:16.000Z</time>
      </trkpt>
      <trkpt lat="44.42796" lon="4.50047">
        <ele>707.20001220703</ele>
        <time>2013-02-27T13:01:17.000Z</time>
      </trkpt>
      <trkpt lat="44.42797" lon="4.50047">
        <ele>706.79998779297</ele>
        <time>2013-02-27T13:01:18.000Z</time>
      </trkpt>
      <trkpt lat="44.42798" lon="4.50048">
        <ele>706.79998779297</ele>
        <time>2013-02-27T13:01:19.000Z</time>
      </trkpt>
      <trkpt lat="44.42799" lon="4.50049">
        <ele>706.79998779297</ele>
        <time>2013-02-27T13:01:20.000Z</time>
      </trkpt>
      <trkpt lat="44.428" lon="4.5005">
        <ele>706.79998779297</ele>
        <time>2013-02-27T13:01:21.000Z</time>
      </trkpt>
      <trkpt lat="44.42801" lon="4.50051">
        <ele>706.79998779297</ele>
        <time>2013-02-27T13:01:22.000Z</time>
      </trkpt>
      <trkpt lat="44.42802" lon="4.50051">
        <ele>706.79998779297</ele>
        <time>2013-02-27T13:01:23.000Z</time>
      </trkpt>
      <trkpt lat="44.42803" lon="4.50052">
        <ele>706.20001220703</ele>
        <time>2013-02-27T13:01:24.000Z</time>
      </trkpt>
      <trkpt lat="44.42804" lon="4.50052">
        <ele>706.79998779297</ele>
        <time>2013-02-27T13:01:25.000Z</time>
      </trkpt>
      <trkpt lat="44.42805" lon="4.50052">
        <ele>706.79998779297</ele>
        <time>2013-02-27T13:01:26.000Z</time>
      </trkpt>
      <trkpt lat="44.42806" lon="4.50052">
        <ele>706.79998779297</ele>
        <time>2013-02-27T13:01:27.000Z</time>
      </trkpt>
      <trkpt lat="44.42807" lon="4.50053">
        <ele>706.79998779297</ele>
        <time>2013-02-27T13:01:28.000Z</time>
      </trkpt>
      <trkpt lat="44.42808" lon="4.50054">
        <ele>706.79998779297</ele>
        <time>2013-02-27T13:01:29.000Z</time>
      </trkpt>
      <trkpt lat="44.42809" lon="4.50055">
        <ele>706.79998779297</ele>
        <time>2013-02-27T13:01:30.000Z</time>
      </trkpt>
      <trkpt lat="44.42809" lon="4.50056">
        <ele>706.79998779297</ele>
        <time>2013-02-27T13:01:31.000Z</time>
      </trkpt>
      <trkpt lat="44.4281" lon="4.50057">
        <ele>706.79998779297</ele>
        <time>2013-02-27T13:01:32.000Z</time>
      </trkpt>
      <trkpt lat="44.42811" lon="4.50059">
        <ele>706.79998779297</ele>
        <time>2013-02-27T13:01:33.000Z</time>
      </trkpt>
      <trkpt lat="44.42811" lon="4.5006">
        <ele>706.79998779297</ele>
        <time>2013-02-27T13:01:34.000Z</time>
      </trkpt>
      <trkpt lat="44.42812" lon="4.50061">
        <ele>706.79998779297</ele>
        <time>2013-02-27T13:01:35.000Z</time>
      </trkpt>
      <trkpt lat="44.42812" lon="4.50063">
        <ele>706.79998779297</ele>
        <time>2013-02-27T13:01:36.000Z</time>
      </trkpt>
      <trkpt lat="44.42812" lon="4.50064">
        <ele>706.79998779297</ele>
        <time>2013-02-27T13:01:37.000Z</time>
      </trkpt>
      <trkpt lat="44.42812" lon="4.50066">
        <ele>706.79998779297</ele>
        <time>2013-02-27T13:01:38.000Z</time>
      </trkpt>
      <trkpt lat="44.42812" lon="4.50068">
        <ele>706.79998779297</ele>
        <time>2013-02-27T13:01:39.000Z</time>
      </trkpt>
      <trkpt lat="44.42812" lon="4.50069">
        <ele>706.79998779297</ele>
        <time>2013-02-27T13:01:40.000Z</time>
      </trkpt>
      <trkpt lat="44.42812" lon="4.5007">
        <ele>706.79998779297</ele>
        <time>2013-02-27T13:01:41.000Z</time>
      </trkpt>
      <trkpt lat="44.42812" lon="4.50072">
        <ele>706.79998779297</ele>
        <time>2013-02-27T13:01:42.000Z</time>
      </trkpt>
      <trkpt lat="44.42812" lon="4.50073">
        <ele>706.20001220703</ele>
        <time>2013-02-27T13:01:43.000Z</time>
      </trkpt>
      <trkpt lat="44.42812" lon="4.50075">
        <ele>706.20001220703</ele>
        <time>2013-02-27T13:01:44.000Z</time>
      </trkpt>
      <trkpt lat="44.42812" lon="4.50076">
        <ele>706.20001220703</ele>
        <time>2013-02-27T13:01:45.000Z</time>
      </trkpt>
      <trkpt lat="44.42812" lon="4.50078">
        <ele>706.20001220703</ele>
        <time>2013-02-27T13:01:46.000Z</time>
      </trkpt>
      <trkpt lat="44.42812" lon="4.50079">
        <ele>705.79998779297</ele>
        <time>2013-02-27T13:01:47.000Z</time>
      </trkpt>
      <trkpt lat="44.42812" lon="4.5008">
        <ele>705.79998779297</ele>
        <time>2013-02-27T13:01:48.000Z</time>
      </trkpt>
      <trkpt lat="44.42812" lon="4.50082">
        <ele>705.79998779297</ele>
        <time>2013-02-27T13:01:49.000Z</time>
      </trkpt>
      <trkpt lat="44.42812" lon="4.50083">
        <ele>705.79998779297</ele>
        <time>2013-02-27T13:01:50.000Z</time>
      </trkpt>
      <trkpt lat="44.42813" lon="4.50084">
        <ele>705.79998779297</ele>
        <time>2013-02-27T13:01:51.000Z</time>
      </trkpt>
      <trkpt lat="44.42813" lon="4.50086">
        <ele>705.79998779297</ele>
        <time>2013-02-27T13:01:52.000Z</time>
      </trkpt>
      <trkpt lat="44.42813" lon="4.50087">
        <ele>705.79998779297</ele>
        <time>2013-02-27T13:01:53.000Z</time>
      </trkpt>
      <trkpt lat="44.42813" lon="4.50089">
        <ele>705.79998779297</ele>
        <time>2013-02-27T13:01:54.000Z</time>
      </trkpt>
      <trkpt lat="44.42813" lon="4.5009">
        <ele>705.79998779297</ele>
        <time>2013-02-27T13:01:55.000Z</time>
      </trkpt>
      <trkpt lat="44.42813" lon="4.50092">
        <ele>706.20001220703</ele>
        <time>2013-02-27T13:01:56.000Z</time>
      </trkpt>
      <trkpt lat="44.42812" lon="4.50093">
        <ele>705.79998779297</ele>
        <time>2013-02-27T13:01:57.000Z</time>
      </trkpt>
      <trkpt lat="44.42812" lon="4.50094">
        <ele>705.79998779297</ele>
        <time>2013-02-27T13:01:58.000Z</time>
      </trkpt>
      <trkpt lat="44.42812" lon="4.50096">
        <ele>706.20001220703</ele>
        <time>2013-02-27T13:01:59.000Z</time>
      </trkpt>
      <trkpt lat="44.42813" lon="4.50097">
        <ele>707.20001220703</ele>
        <time>2013-02-27T13:02:00.000Z</time>
      </trkpt>
      <trkpt lat="44.42813" lon="4.50098">
        <ele>707.20001220703</ele>
        <time>2013-02-27T13:02:01.000Z</time>
      </trkpt>
      <trkpt lat="44.42813" lon="4.501">
        <ele>707.59997558594</ele>
        <time>2013-02-27T13:02:02.000Z</time>
      </trkpt>
      <trkpt lat="44.42813" lon="4.50101">
        <ele>707.59997558594</ele>
        <time>2013-02-27T13:02:03.000Z</time>
      </trkpt>
      <trkpt lat="44.42813" lon="4.50102">
        <ele>708.20001220703</ele>
        <time>2013-02-27T13:02:04.000Z</time>
      </trkpt>
      <trkpt lat="44.42813" lon="4.50104">
        <ele>708.59997558594</ele>
        <time>2013-02-27T13:02:05.000Z</time>
      </trkpt>
      <trkpt lat="44.42812" lon="4.50105">
        <ele>708.59997558594</ele>
        <time>2013-02-27T13:02:06.000Z</time>
      </trkpt>
      <trkpt lat="44.42812" lon="4.50105">
        <ele>708.59997558594</ele>
        <time>2013-02-27T13:02:07.000Z</time>
      </trkpt>
      <trkpt lat="44.42811" lon="4.50106">
        <ele>709.20001220703</ele>
        <time>2013-02-27T13:02:08.000Z</time>
      </trkpt>
      <trkpt lat="44.42811" lon="4.50107">
        <ele>709.20001220703</ele>
        <time>2013-02-27T13:02:09.000Z</time>
      </trkpt>
      <trkpt lat="44.4281" lon="4.50108">
        <ele>709.20001220703</ele>
        <time>2013-02-27T13:02:11.000Z</time>
      </trkpt>
      <trkpt lat="44.42809" lon="4.50109">
        <ele>709.20001220703</ele>
        <time>2013-02-27T13:02:12.000Z</time>
      </trkpt>
      <trkpt lat="44.42809" lon="4.5011">
        <ele>709.59997558594</ele>
        <time>2013-02-27T13:02:13.000Z</time>
      </trkpt>
      <trkpt lat="44.42808" lon="4.50111">
        <ele>709.59997558594</ele>
        <time>2013-02-27T13:02:14.000Z</time>
      </trkpt>
      <trkpt lat="44.42808" lon="4.50112">
        <ele>709.59997558594</ele>
        <time>2013-02-27T13:02:15.000Z</time>
      </trkpt>
      <trkpt lat="44.42808" lon="4.50113">
        <ele>709.59997558594</ele>
        <time>2013-02-27T13:02:16.000Z</time>
      </trkpt>
      <trkpt lat="44.42808" lon="4.50114">
        <ele>709.59997558594</ele>
        <time>2013-02-27T13:02:17.000Z</time>
      </trkpt>
      <trkpt lat="44.42808" lon="4.50115">
        <ele>709.59997558594</ele>
        <time>2013-02-27T13:02:18.000Z</time>
      </trkpt>
      <trkpt lat="44.42808" lon="4.50117">
        <ele>709.59997558594</ele>
        <time>2013-02-27T13:02:19.000Z</time>
      </trkpt>
      <trkpt lat="44.42808" lon="4.50118">
        <ele>709.59997558594</ele>
        <time>2013-02-27T13:02:20.000Z</time>
      </trkpt>
      <trkpt lat="44.42808" lon="4.50119">
        <ele>709.59997558594</ele>
        <time>2013-02-27T13:02:21.000Z</time>
      </trkpt>
      <trkpt lat="44.42809" lon="4.5012">
        <ele>710</ele>
        <time>2013-02-27T13:02:22.000Z</time>
      </trkpt>
      <trkpt lat="44.42809" lon="4.50122">
        <ele>709.59997558594</ele>
        <time>2013-02-27T13:02:23.000Z</time>
      </trkpt>
      <trkpt lat="44.42808" lon="4.50123">
        <ele>709.59997558594</ele>
        <time>2013-02-27T13:02:24.000Z</time>
      </trkpt>
      <trkpt lat="44.42808" lon="4.50124">
        <ele>709.59997558594</ele>
        <time>2013-02-27T13:02:25.000Z</time>
      </trkpt>
      <trkpt lat="44.42808" lon="4.50125">
        <ele>709.59997558594</ele>
        <time>2013-02-27T13:02:26.000Z</time>
      </trkpt>
      <trkpt lat="44.42809" lon="4.50126">
        <ele>709.59997558594</ele>
        <time>2013-02-27T13:02:27.000Z</time>
      </trkpt>
      <trkpt lat="44.42809" lon="4.50128">
        <ele>709.20001220703</ele>
        <time>2013-02-27T13:02:28.000Z</time>
      </trkpt>
      <trkpt lat="44.42809" lon="4.50129">
        <ele>709.20001220703</ele>
        <time>2013-02-27T13:02:29.000Z</time>
      </trkpt>
      <trkpt lat="44.42809" lon="4.50131">
        <ele>709.20001220703</ele>
        <time>2013-02-27T13:02:30.000Z</time>
      </trkpt>
      <trkpt lat="44.4281" lon="4.50132">
        <ele>709.20001220703</ele>
        <time>2013-02-27T13:02:31.000Z</time>
      </trkpt>
      <trkpt lat="44.4281" lon="4.50133">
        <ele>709.20001220703</ele>
        <time>2013-02-27T13:02:32.000Z</time>
      </trkpt>
      <trkpt lat="44.4281" lon="4.50135">
        <ele>708.59997558594</ele>
        <time>2013-02-27T13:02:33.000Z</time>
      </trkpt>
      <trkpt lat="44.42809" lon="4.50136">
        <ele>708.59997558594</ele>
        <time>2013-02-27T13:02:34.000Z</time>
      </trkpt>
      <trkpt lat="44.42809" lon="4.50138">
        <ele>708.59997558594</ele>
        <time>2013-02-27T13:02:35.000Z</time>
      </trkpt>
      <trkpt lat="44.42809" lon="4.50139">
        <ele>708.59997558594</ele>
        <time>2013-02-27T13:02:36.000Z</time>
      </trkpt>
      <trkpt lat="44.42809" lon="4.50141">
        <ele>709.20001220703</ele>
        <time>2013-02-27T13:02:37.000Z</time>
      </trkpt>
      <trkpt lat="44.42809" lon="4.50142">
        <ele>708.59997558594</ele>
        <time>2013-02-27T13:02:38.000Z</time>
      </trkpt>
      <trkpt lat="44.42808" lon="4.50143">
        <ele>708.59997558594</ele>
        <time>2013-02-27T13:02:39.000Z</time>
      </trkpt>
      <trkpt lat="44.42808" lon="4.50144">
        <ele>708.59997558594</ele>
        <time>2013-02-27T13:02:40.000Z</time>
      </trkpt>
      <trkpt lat="44.42807" lon="4.50146">
        <ele>708.59997558594</ele>
        <time>2013-02-27T13:02:41.000Z</time>
      </trkpt>
      <trkpt lat="44.42807" lon="4.50147">
        <ele>708.59997558594</ele>
        <time>2013-02-27T13:02:42.000Z</time>
      </trkpt>
      <trkpt lat="44.42807" lon="4.50149">
        <ele>709.20001220703</ele>
        <time>2013-02-27T13:02:43.000Z</time>
      </trkpt>
      <trkpt lat="44.42807" lon="4.5015">
        <ele>709.20001220703</ele>
        <time>2013-02-27T13:02:44.000Z</time>
      </trkpt>
      <trkpt lat="44.42807" lon="4.50151">
        <ele>709.59997558594</ele>
        <time>2013-02-27T13:02:45.000Z</time>
      </trkpt>
      <trkpt lat="44.42807" lon="4.50152">
        <ele>709.59997558594</ele>
        <time>2013-02-27T13:02:46.000Z</time>
      </trkpt>
      <trkpt lat="44.42807" lon="4.50154">
        <ele>710</ele>
        <time>2013-02-27T13:02:47.000Z</time>
      </trkpt>
      <trkpt lat="44.42807" lon="4.50155">
        <ele>710</ele>
        <time>2013-02-27T13:02:48.000Z</time>
      </trkpt>
      <trkpt lat="44.42807" lon="4.50157">
        <ele>710.59997558594</ele>
        <time>2013-02-27T13:02:49.000Z</time>
      </trkpt>
      <trkpt lat="44.42807" lon="4.50158">
        <ele>710.59997558594</ele>
        <time>2013-02-27T13:02:50.000Z</time>
      </trkpt>
      <trkpt lat="44.42807" lon="4.5016">
        <ele>710.59997558594</ele>
        <time>2013-02-27T13:02:51.000Z</time>
      </trkpt>
      <trkpt lat="44.42807" lon="4.50161">
        <ele>710.59997558594</ele>
        <time>2013-02-27T13:02:52.000Z</time>
      </trkpt>
      <trkpt lat="44.42806" lon="4.50163">
        <ele>710.59997558594</ele>
        <time>2013-02-27T13:02:53.000Z</time>
      </trkpt>
      <trkpt lat="44.42806" lon="4.50164">
        <ele>710</ele>
        <time>2013-02-27T13:02:54.000Z</time>
      </trkpt>
      <trkpt lat="44.42806" lon="4.50166">
        <ele>710</ele>
        <time>2013-02-27T13:02:55.000Z</time>
      </trkpt>
      <trkpt lat="44.42806" lon="4.50168">
        <ele>710.59997558594</ele>
        <time>2013-02-27T13:02:56.000Z</time>
      </trkpt>
      <trkpt lat="44.42806" lon="4.50169">
        <ele>711</ele>
        <time>2013-02-27T13:02:57.000Z</time>
      </trkpt>
      <trkpt lat="44.42806" lon="4.50171">
        <ele>711</ele>
        <time>2013-02-27T13:02:58.000Z</time>
      </trkpt>
      <trkpt lat="44.42806" lon="4.50172">
        <ele>711</ele>
        <time>2013-02-27T13:02:59.000Z</time>
      </trkpt>
      <trkpt lat="44.42806" lon="4.50174">
        <ele>711</ele>
        <time>2013-02-27T13:03:00.000Z</time>
      </trkpt>
      <trkpt lat="44.42806" lon="4.50175">
        <ele>711</ele>
        <time>2013-02-27T13:03:01.000Z</time>
      </trkpt>
      <trkpt lat="44.42806" lon="4.50177">
        <ele>711</ele>
        <time>2013-02-27T13:03:02.000Z</time>
      </trkpt>
      <trkpt lat="44.42806" lon="4.50178">
        <ele>711</ele>
        <time>2013-02-27T13:03:03.000Z</time>
      </trkpt>
      <trkpt lat="44.42806" lon="4.50179">
        <ele>711</ele>
        <time>2013-02-27T13:03:04.000Z</time>
      </trkpt>
      <trkpt lat="44.42806" lon="4.50181">
        <ele>711</ele>
        <time>2013-02-27T13:03:05.000Z</time>
      </trkpt>
      <trkpt lat="44.42806" lon="4.50182">
        <ele>711</ele>
        <time>2013-02-27T13:03:06.000Z</time>
      </trkpt>
      <trkpt lat="44.42806" lon="4.50183">
        <ele>711</ele>
        <time>2013-02-27T13:03:07.000Z</time>
      </trkpt>
      <trkpt lat="44.42807" lon="4.50185">
        <ele>711</ele>
        <time>2013-02-27T13:03:08.000Z</time>
      </trkpt>
      <trkpt lat="44.42807" lon="4.50186">
        <ele>711</ele>
        <time>2013-02-27T13:03:09.000Z</time>
      </trkpt>
      <trkpt lat="44.42807" lon="4.50188">
        <ele>711</ele>
        <time>2013-02-27T13:03:10.000Z</time>
      </trkpt>
      <trkpt lat="44.42807" lon="4.50189">
        <ele>711.59997558594</ele>
        <time>2013-02-27T13:03:11.000Z</time>
      </trkpt>
      <trkpt lat="44.42807" lon="4.5019">
        <ele>711.59997558594</ele>
        <time>2013-02-27T13:03:12.000Z</time>
      </trkpt>
      <trkpt lat="44.42807" lon="4.50191">
        <ele>711.59997558594</ele>
        <time>2013-02-27T13:03:13.000Z</time>
      </trkpt>
      <trkpt lat="44.42807" lon="4.50193">
        <ele>711.59997558594</ele>
        <time>2013-02-27T13:03:14.000Z</time>
      </trkpt>
      <trkpt lat="44.42808" lon="4.50194">
        <ele>711.59997558594</ele>
        <time>2013-02-27T13:03:15.000Z</time>
      </trkpt>
      <trkpt lat="44.42809" lon="4.50195">
        <ele>711.59997558594</ele>
        <time>2013-02-27T13:03:16.000Z</time>
      </trkpt>
      <trkpt lat="44.42809" lon="4.50196">
        <ele>711.59997558594</ele>
        <time>2013-02-27T13:03:17.000Z</time>
      </trkpt>
      <trkpt lat="44.4281" lon="4.50198">
        <ele>711.59997558594</ele>
        <time>2013-02-27T13:03:18.000Z</time>
      </trkpt>
      <trkpt lat="44.4281" lon="4.50199">
        <ele>711.59997558594</ele>
        <time>2013-02-27T13:03:19.000Z</time>
      </trkpt>
      <trkpt lat="44.42811" lon="4.502">
        <ele>711.59997558594</ele>
        <time>2013-02-27T13:03:20.000Z</time>
      </trkpt>
      <trkpt lat="44.42811" lon="4.50201">
        <ele>712</ele>
        <time>2013-02-27T13:03:21.000Z</time>
      </trkpt>
      <trkpt lat="44.42812" lon="4.50202">
        <ele>712</ele>
        <time>2013-02-27T13:03:22.000Z</time>
      </trkpt>
      <trkpt lat="44.42812" lon="4.50204">
        <ele>712</ele>
        <time>2013-02-27T13:03:23.000Z</time>
      </trkpt>
      <trkpt lat="44.42812" lon="4.50205">
        <ele>712</ele>
        <time>2013-02-27T13:03:24.000Z</time>
      </trkpt>
      <trkpt lat="44.42813" lon="4.50206">
        <ele>712</ele>
        <time>2013-02-27T13:03:25.000Z</time>
      </trkpt>
      <trkpt lat="44.42813" lon="4.50207">
        <ele>712</ele>
        <time>2013-02-27T13:03:26.000Z</time>
      </trkpt>
      <trkpt lat="44.42814" lon="4.50209">
        <ele>712.40002441406</ele>
        <time>2013-02-27T13:03:27.000Z</time>
      </trkpt>
      <trkpt lat="44.42814" lon="4.5021">
        <ele>712</ele>
        <time>2013-02-27T13:03:28.000Z</time>
      </trkpt>
      <trkpt lat="44.42815" lon="4.50212">
        <ele>712.40002441406</ele>
        <time>2013-02-27T13:03:29.000Z</time>
      </trkpt>
      <trkpt lat="44.42815" lon="4.50213">
        <ele>712</ele>
        <time>2013-02-27T13:03:30.000Z</time>
      </trkpt>
      <trkpt lat="44.42815" lon="4.50214">
        <ele>712</ele>
        <time>2013-02-27T13:03:31.000Z</time>
      </trkpt>
      <trkpt lat="44.42816" lon="4.50215">
        <ele>712.40002441406</ele>
        <time>2013-02-27T13:03:32.000Z</time>
      </trkpt>
      <trkpt lat="44.42816" lon="4.50217">
        <ele>712.40002441406</ele>
        <time>2013-02-27T13:03:33.000Z</time>
      </trkpt>
      <trkpt lat="44.42817" lon="4.50218">
        <ele>712.40002441406</ele>
        <time>2013-02-27T13:03:34.000Z</time>
      </trkpt>
      <trkpt lat="44.42817" lon="4.50219">
        <ele>712.40002441406</ele>
        <time>2013-02-27T13:03:35.000Z</time>
      </trkpt>
      <trkpt lat="44.42818" lon="4.50221">
        <ele>712.40002441406</ele>
        <time>2013-02-27T13:03:36.000Z</time>
      </trkpt>
      <trkpt lat="44.42818" lon="4.50222">
        <ele>712.40002441406</ele>
        <time>2013-02-27T13:03:37.000Z</time>
      </trkpt>
      <trkpt lat="44.42818" lon="4.50223">
        <ele>712.40002441406</ele>
        <time>2013-02-27T13:03:38.000Z</time>
      </trkpt>
      <trkpt lat="44.42819" lon="4.50225">
        <ele>712.40002441406</ele>
        <time>2013-02-27T13:03:39.000Z</time>
      </trkpt>
      <trkpt lat="44.42819" lon="4.50226">
        <ele>712.40002441406</ele>
        <time>2013-02-27T13:03:40.000Z</time>
      </trkpt>
      <trkpt lat="44.4282" lon="4.50227">
        <ele>712.40002441406</ele>
        <time>2013-02-27T13:03:41.000Z</time>
      </trkpt>
      <trkpt lat="44.4282" lon="4.50228">
        <ele>712.40002441406</ele>
        <time>2013-02-27T13:03:42.000Z</time>
      </trkpt>
      <trkpt lat="44.42821" lon="4.50229">
        <ele>712.40002441406</ele>
        <time>2013-02-27T13:03:43.000Z</time>
      </trkpt>
      <trkpt lat="44.42822" lon="4.5023">
        <ele>712.40002441406</ele>
        <time>2013-02-27T13:03:44.000Z</time>
      </trkpt>
      <trkpt lat="44.42823" lon="4.50231">
        <ele>712.40002441406</ele>
        <time>2013-02-27T13:03:45.000Z</time>
      </trkpt>
      <trkpt lat="44.42823" lon="4.50232">
        <ele>712.40002441406</ele>
        <time>2013-02-27T13:03:46.000Z</time>
      </trkpt>
      <trkpt lat="44.42823" lon="4.50234">
        <ele>712.40002441406</ele>
        <time>2013-02-27T13:03:47.000Z</time>
      </trkpt>
      <trkpt lat="44.42824" lon="4.50235">
        <ele>712.40002441406</ele>
        <time>2013-02-27T13:03:48.000Z</time>
      </trkpt>
      <trkpt lat="44.42825" lon="4.50236">
        <ele>713</ele>
        <time>2013-02-27T13:03:49.000Z</time>
      </trkpt>
      <trkpt lat="44.42825" lon="4.50237">
        <ele>713</ele>
        <time>2013-02-27T13:03:50.000Z</time>
      </trkpt>
      <trkpt lat="44.42826" lon="4.50238">
        <ele>712.40002441406</ele>
        <time>2013-02-27T13:03:51.000Z</time>
      </trkpt>
      <trkpt lat="44.42827" lon="4.50239">
        <ele>713</ele>
        <time>2013-02-27T13:03:52.000Z</time>
      </trkpt>
      <trkpt lat="44.42827" lon="4.5024">
        <ele>713</ele>
        <time>2013-02-27T13:03:53.000Z</time>
      </trkpt>
      <trkpt lat="44.42828" lon="4.50241">
        <ele>712.40002441406</ele>
        <time>2013-02-27T13:03:54.000Z</time>
      </trkpt>
      <trkpt lat="44.42829" lon="4.50242">
        <ele>712.40002441406</ele>
        <time>2013-02-27T13:03:55.000Z</time>
      </trkpt>
      <trkpt lat="44.42829" lon="4.50243">
        <ele>712.40002441406</ele>
        <time>2013-02-27T13:03:56.000Z</time>
      </trkpt>
      <trkpt lat="44.42829" lon="4.50244">
        <ele>712.40002441406</ele>
        <time>2013-02-27T13:03:57.000Z</time>
      </trkpt>
      <trkpt lat="44.4283" lon="4.50244">
        <ele>712.40002441406</ele>
        <time>2013-02-27T13:03:58.000Z</time>
      </trkpt>
      <trkpt lat="44.42831" lon="4.50244">
        <ele>713</ele>
        <time>2013-02-27T13:03:59.000Z</time>
      </trkpt>
      <trkpt lat="44.42832" lon="4.50244">
        <ele>713.40002441406</ele>
        <time>2013-02-27T13:04:00.000Z</time>
      </trkpt>
      <trkpt lat="44.42834" lon="4.50243">
        <ele>713.40002441406</ele>
        <time>2013-02-27T13:04:01.000Z</time>
      </trkpt>
      <trkpt lat="44.42835" lon="4.50243">
        <ele>714</ele>
        <time>2013-02-27T13:04:02.000Z</time>
      </trkpt>
      <trkpt lat="44.42836" lon="4.50242">
        <ele>714</ele>
        <time>2013-02-27T13:04:03.000Z</time>
      </trkpt>
      <trkpt lat="44.42837" lon="4.50242">
        <ele>714</ele>
        <time>2013-02-27T13:04:04.000Z</time>
      </trkpt>
      <trkpt lat="44.42838" lon="4.50241">
        <ele>714</ele>
        <time>2013-02-27T13:04:05.000Z</time>
      </trkpt>
      <trkpt lat="44.42839" lon="4.5024">
        <ele>714</ele>
        <time>2013-02-27T13:04:06.000Z</time>
      </trkpt>
      <trkpt lat="44.4284" lon="4.50239">
        <ele>714</ele>
        <time>2013-02-27T13:04:07.000Z</time>
      </trkpt>
      <trkpt lat="44.42841" lon="4.50239">
        <ele>714</ele>
        <time>2013-02-27T13:04:08.000Z</time>
      </trkpt>
      <trkpt lat="44.42842" lon="4.50238">
        <ele>714</ele>
        <time>2013-02-27T13:04:09.000Z</time>
      </trkpt>
      <trkpt lat="44.42843" lon="4.50238">
        <ele>714</ele>
        <time>2013-02-27T13:04:10.000Z</time>
      </trkpt>
      <trkpt lat="44.42844" lon="4.50237">
        <ele>714</ele>
        <time>2013-02-27T13:04:11.000Z</time>
      </trkpt>
      <trkpt lat="44.42845" lon="4.50237">
        <ele>714</ele>
        <time>2013-02-27T13:04:12.000Z</time>
      </trkpt>
      <trkpt lat="44.42846" lon="4.50237">
        <ele>714</ele>
        <time>2013-02-27T13:04:13.000Z</time>
      </trkpt>
      <trkpt lat="44.42847" lon="4.50236">
        <ele>713.40002441406</ele>
        <time>2013-02-27T13:04:14.000Z</time>
      </trkpt>
      <trkpt lat="44.42848" lon="4.50236">
        <ele>713.40002441406</ele>
        <time>2013-02-27T13:04:15.000Z</time>
      </trkpt>
      <trkpt lat="44.42849" lon="4.50236">
        <ele>713.40002441406</ele>
        <time>2013-02-27T13:04:16.000Z</time>
      </trkpt>
      <trkpt lat="44.4285" lon="4.50236">
        <ele>713.40002441406</ele>
        <time>2013-02-27T13:04:17.000Z</time>
      </trkpt>
      <trkpt lat="44.42851" lon="4.50235">
        <ele>713.40002441406</ele>
        <time>2013-02-27T13:04:18.000Z</time>
      </trkpt>
      <trkpt lat="44.42852" lon="4.50235">
        <ele>713.40002441406</ele>
        <time>2013-02-27T13:04:19.000Z</time>
      </trkpt>
      <trkpt lat="44.42853" lon="4.50234">
        <ele>713.40002441406</ele>
        <time>2013-02-27T13:04:20.000Z</time>
      </trkpt>
      <trkpt lat="44.42854" lon="4.50234">
        <ele>713</ele>
        <time>2013-02-27T13:04:21.000Z</time>
      </trkpt>
      <trkpt lat="44.42854" lon="4.50233">
        <ele>713</ele>
        <time>2013-02-27T13:04:22.000Z</time>
      </trkpt>
      <trkpt lat="44.42855" lon="4.50232">
        <ele>713</ele>
        <time>2013-02-27T13:04:23.000Z</time>
      </trkpt>
      <trkpt lat="44.42856" lon="4.50231">
        <ele>713</ele>
        <time>2013-02-27T13:04:24.000Z</time>
      </trkpt>
      <trkpt lat="44.42858" lon="4.5023">
        <ele>713</ele>
        <time>2013-02-27T13:04:25.000Z</time>
      </trkpt>
      <trkpt lat="44.42859" lon="4.5023">
        <ele>713</ele>
        <time>2013-02-27T13:04:26.000Z</time>
      </trkpt>
      <trkpt lat="44.4286" lon="4.50229">
        <ele>713</ele>
        <time>2013-02-27T13:04:27.000Z</time>
      </trkpt>
      <trkpt lat="44.42861" lon="4.50229">
        <ele>713</ele>
        <time>2013-02-27T13:04:28.000Z</time>
      </trkpt>
      <trkpt lat="44.42862" lon="4.50229">
        <ele>713</ele>
        <time>2013-02-27T13:04:29.000Z</time>
      </trkpt>
      <trkpt lat="44.42863" lon="4.50228">
        <ele>713</ele>
        <time>2013-02-27T13:04:30.000Z</time>
      </trkpt>
      <trkpt lat="44.42864" lon="4.50228">
        <ele>713</ele>
        <time>2013-02-27T13:04:31.000Z</time>
      </trkpt>
      <trkpt lat="44.42866" lon="4.50227">
        <ele>713</ele>
        <time>2013-02-27T13:04:32.000Z</time>
      </trkpt>
      <trkpt lat="44.42867" lon="4.50227">
        <ele>713.40002441406</ele>
        <time>2013-02-27T13:04:33.000Z</time>
      </trkpt>
      <trkpt lat="44.42868" lon="4.50226">
        <ele>713.40002441406</ele>
        <time>2013-02-27T13:04:34.000Z</time>
      </trkpt>
      <trkpt lat="44.42869" lon="4.50226">
        <ele>713.40002441406</ele>
        <time>2013-02-27T13:04:35.000Z</time>
      </trkpt>
      <trkpt lat="44.4287" lon="4.50225">
        <ele>713.40002441406</ele>
        <time>2013-02-27T13:04:36.000Z</time>
      </trkpt>
      <trkpt lat="44.42871" lon="4.50225">
        <ele>713.40002441406</ele>
        <time>2013-02-27T13:04:37.000Z</time>
      </trkpt>
      <trkpt lat="44.42872" lon="4.50224">
        <ele>713.40002441406</ele>
        <time>2013-02-27T13:04:38.000Z</time>
      </trkpt>
      <trkpt lat="44.42873" lon="4.50225">
        <ele>713.40002441406</ele>
        <time>2013-02-27T13:04:39.000Z</time>
      </trkpt>
      <trkpt lat="44.42874" lon="4.50225">
        <ele>713</ele>
        <time>2013-02-27T13:04:40.000Z</time>
      </trkpt>
      <trkpt lat="44.42874" lon="4.50225">
        <ele>713</ele>
        <time>2013-02-27T13:04:41.000Z</time>
      </trkpt>
      <trkpt lat="44.42874" lon="4.50225">
        <ele>713</ele>
        <time>2013-02-27T13:04:42.000Z</time>
      </trkpt>
      <trkpt lat="44.42875" lon="4.50225">
        <ele>713</ele>
        <time>2013-02-27T13:04:43.000Z</time>
      </trkpt>
      <trkpt lat="44.42876" lon="4.50225">
        <ele>712.40002441406</ele>
        <time>2013-02-27T13:04:44.000Z</time>
      </trkpt>
      <trkpt lat="44.42877" lon="4.50225">
        <ele>712.40002441406</ele>
        <time>2013-02-27T13:04:45.000Z</time>
      </trkpt>
      <trkpt lat="44.42878" lon="4.50225">
        <ele>712.40002441406</ele>
        <time>2013-02-27T13:04:46.000Z</time>
      </trkpt>
      <trkpt lat="44.42879" lon="4.50224">
        <ele>713</ele>
        <time>2013-02-27T13:04:47.000Z</time>
      </trkpt>
      <trkpt lat="44.4288" lon="4.50224">
        <ele>713</ele>
        <time>2013-02-27T13:04:48.000Z</time>
      </trkpt>
      <trkpt lat="44.42881" lon="4.50224">
        <ele>713</ele>
        <time>2013-02-27T13:04:49.000Z</time>
      </trkpt>
      <trkpt lat="44.42883" lon="4.50224">
        <ele>713</ele>
        <time>2013-02-27T13:04:50.000Z</time>
      </trkpt>
      <trkpt lat="44.42884" lon="4.50224">
        <ele>713</ele>
        <time>2013-02-27T13:04:51.000Z</time>
      </trkpt>
      <trkpt lat="44.42885" lon="4.50224">
        <ele>713</ele>
        <time>2013-02-27T13:04:52.000Z</time>
      </trkpt>
      <trkpt lat="44.42886" lon="4.50224">
        <ele>713.40002441406</ele>
        <time>2013-02-27T13:04:53.000Z</time>
      </trkpt>
      <trkpt lat="44.42887" lon="4.50224">
        <ele>713.40002441406</ele>
        <time>2013-02-27T13:04:54.000Z</time>
      </trkpt>
      <trkpt lat="44.42888" lon="4.50223">
        <ele>714</ele>
        <time>2013-02-27T13:04:55.000Z</time>
      </trkpt>
      <trkpt lat="44.42888" lon="4.50223">
        <ele>714</ele>
        <time>2013-02-27T13:04:56.000Z</time>
      </trkpt>
      <trkpt lat="44.42889" lon="4.50223">
        <ele>714.40002441406</ele>
        <time>2013-02-27T13:04:57.000Z</time>
      </trkpt>
      <trkpt lat="44.4289" lon="4.50224">
        <ele>714.40002441406</ele>
        <time>2013-02-27T13:04:58.000Z</time>
      </trkpt>
      <trkpt lat="44.42891" lon="4.50224">
        <ele>714.40002441406</ele>
        <time>2013-02-27T13:04:59.000Z</time>
      </trkpt>
      <trkpt lat="44.42892" lon="4.50225">
        <ele>714.40002441406</ele>
        <time>2013-02-27T13:05:00.000Z</time>
      </trkpt>
      <trkpt lat="44.42892" lon="4.50225">
        <ele>714.40002441406</ele>
        <time>2013-02-27T13:05:01.000Z</time>
      </trkpt>
      <trkpt lat="44.42893" lon="4.50225">
        <ele>714.40002441406</ele>
        <time>2013-02-27T13:05:02.000Z</time>
      </trkpt>
      <trkpt lat="44.42894" lon="4.50225">
        <ele>714.79998779297</ele>
        <time>2013-02-27T13:05:03.000Z</time>
      </trkpt>
      <trkpt lat="44.42895" lon="4.50225">
        <ele>714.79998779297</ele>
        <time>2013-02-27T13:05:04.000Z</time>
      </trkpt>
      <trkpt lat="44.42896" lon="4.50226">
        <ele>715.40002441406</ele>
        <time>2013-02-27T13:05:05.000Z</time>
      </trkpt>
      <trkpt lat="44.42896" lon="4.50227">
        <ele>715.40002441406</ele>
        <time>2013-02-27T13:05:06.000Z</time>
      </trkpt>
      <trkpt lat="44.42897" lon="4.50228">
        <ele>715.40002441406</ele>
        <time>2013-02-27T13:05:07.000Z</time>
      </trkpt>
      <trkpt lat="44.42897" lon="4.50229">
        <ele>715.79998779297</ele>
        <time>2013-02-27T13:05:08.000Z</time>
      </trkpt>
      <trkpt lat="44.42897" lon="4.5023">
        <ele>715.40002441406</ele>
        <time>2013-02-27T13:05:09.000Z</time>
      </trkpt>
      <trkpt lat="44.42898" lon="4.50231">
        <ele>715.40002441406</ele>
        <time>2013-02-27T13:05:10.000Z</time>
      </trkpt>
      <trkpt lat="44.42899" lon="4.50231">
        <ele>715.40002441406</ele>
        <time>2013-02-27T13:05:11.000Z</time>
      </trkpt>
      <trkpt lat="44.429" lon="4.50231">
        <ele>715.40002441406</ele>
        <time>2013-02-27T13:05:12.000Z</time>
      </trkpt>
      <trkpt lat="44.42901" lon="4.50231">
        <ele>715.40002441406</ele>
        <time>2013-02-27T13:05:13.000Z</time>
      </trkpt>
      <trkpt lat="44.42902" lon="4.50232">
        <ele>715.40002441406</ele>
        <time>2013-02-27T13:05:14.000Z</time>
      </trkpt>
      <trkpt lat="44.42902" lon="4.50232">
        <ele>714.79998779297</ele>
        <time>2013-02-27T13:05:15.000Z</time>
      </trkpt>
      <trkpt lat="44.42903" lon="4.50233">
        <ele>714.79998779297</ele>
        <time>2013-02-27T13:05:16.000Z</time>
      </trkpt>
      <trkpt lat="44.42904" lon="4.50233">
        <ele>714.79998779297</ele>
        <time>2013-02-27T13:05:17.000Z</time>
      </trkpt>
      <trkpt lat="44.42905" lon="4.50234">
        <ele>714.79998779297</ele>
        <time>2013-02-27T13:05:18.000Z</time>
      </trkpt>
      <trkpt lat="44.42906" lon="4.50235">
        <ele>714.79998779297</ele>
        <time>2013-02-27T13:05:19.000Z</time>
      </trkpt>
      <trkpt lat="44.42906" lon="4.50235">
        <ele>714.79998779297</ele>
        <time>2013-02-27T13:05:20.000Z</time>
      </trkpt>
      <trkpt lat="44.42907" lon="4.50235">
        <ele>714.79998779297</ele>
        <time>2013-02-27T13:05:21.000Z</time>
      </trkpt>
      <trkpt lat="44.42908" lon="4.50235">
        <ele>714.79998779297</ele>
        <time>2013-02-27T13:05:22.000Z</time>
      </trkpt>
      <trkpt lat="44.42909" lon="4.50235">
        <ele>714.79998779297</ele>
        <time>2013-02-27T13:05:23.000Z</time>
      </trkpt>
      <trkpt lat="44.4291" lon="4.50235">
        <ele>714.40002441406</ele>
        <time>2013-02-27T13:05:24.000Z</time>
      </trkpt>
      <trkpt lat="44.42911" lon="4.50236">
        <ele>714.40002441406</ele>
        <time>2013-02-27T13:05:25.000Z</time>
      </trkpt>
      <trkpt lat="44.42912" lon="4.50236">
        <ele>714.40002441406</ele>
        <time>2013-02-27T13:05:26.000Z</time>
      </trkpt>
      <trkpt lat="44.42913" lon="4.50236">
        <ele>714.40002441406</ele>
        <time>2013-02-27T13:05:27.000Z</time>
      </trkpt>
      <trkpt lat="44.42914" lon="4.50237">
        <ele>714.40002441406</ele>
        <time>2013-02-27T13:05:28.000Z</time>
      </trkpt>
      <trkpt lat="44.42915" lon="4.50238">
        <ele>714.40002441406</ele>
        <time>2013-02-27T13:05:29.000Z</time>
      </trkpt>
      <trkpt lat="44.42915" lon="4.50239">
        <ele>714.40002441406</ele>
        <time>2013-02-27T13:05:30.000Z</time>
      </trkpt>
      <trkpt lat="44.42916" lon="4.5024">
        <ele>714.40002441406</ele>
        <time>2013-02-27T13:05:31.000Z</time>
      </trkpt>
      <trkpt lat="44.42916" lon="4.50241">
        <ele>714.40002441406</ele>
        <time>2013-02-27T13:05:32.000Z</time>
      </trkpt>
      <trkpt lat="44.42915" lon="4.50243">
        <ele>714.40002441406</ele>
        <time>2013-02-27T13:05:33.000Z</time>
      </trkpt>
      <trkpt lat="44.42915" lon="4.50244">
        <ele>714</ele>
        <time>2013-02-27T13:05:34.000Z</time>
      </trkpt>
      <trkpt lat="44.42915" lon="4.50245">
        <ele>714</ele>
        <time>2013-02-27T13:05:35.000Z</time>
      </trkpt>
      <trkpt lat="44.42916" lon="4.50246">
        <ele>714</ele>
        <time>2013-02-27T13:05:36.000Z</time>
      </trkpt>
      <trkpt lat="44.42916" lon="4.50247">
        <ele>714</ele>
        <time>2013-02-27T13:05:37.000Z</time>
      </trkpt>
      <trkpt lat="44.42917" lon="4.50248">
        <ele>714</ele>
        <time>2013-02-27T13:05:38.000Z</time>
      </trkpt>
      <trkpt lat="44.42917" lon="4.50249">
        <ele>714</ele>
        <time>2013-02-27T13:05:39.000Z</time>
      </trkpt>
      <trkpt lat="44.42916" lon="4.50251">
        <ele>714</ele>
        <time>2013-02-27T13:05:40.000Z</time>
      </trkpt>
      <trkpt lat="44.42916" lon="4.50252">
        <ele>714</ele>
        <time>2013-02-27T13:05:41.000Z</time>
      </trkpt>
      <trkpt lat="44.42917" lon="4.50253">
        <ele>713.40002441406</ele>
        <time>2013-02-27T13:05:42.000Z</time>
      </trkpt>
      <trkpt lat="44.42917" lon="4.50254">
        <ele>714</ele>
        <time>2013-02-27T13:05:43.000Z</time>
      </trkpt>
      <trkpt lat="44.42917" lon="4.50255">
        <ele>714</ele>
        <time>2013-02-27T13:05:44.000Z</time>
      </trkpt>
      <trkpt lat="44.42918" lon="4.50255">
        <ele>714</ele>
        <time>2013-02-27T13:05:45.000Z</time>
      </trkpt>
      <trkpt lat="44.42918" lon="4.50255">
        <ele>714.40002441406</ele>
        <time>2013-02-27T13:05:46.000Z</time>
      </trkpt>
      <trkpt lat="44.42918" lon="4.50255">
        <ele>714.40002441406</ele>
        <time>2013-02-27T13:05:47.000Z</time>
      </trkpt>
      <trkpt lat="44.42918" lon="4.50255">
        <ele>714.40002441406</ele>
        <time>2013-02-27T13:05:48.000Z</time>
      </trkpt>
      <trkpt lat="44.42919" lon="4.50255">
        <ele>714.79998779297</ele>
        <time>2013-02-27T13:05:49.000Z</time>
      </trkpt>
      <trkpt lat="44.42919" lon="4.50255">
        <ele>714.79998779297</ele>
        <time>2013-02-27T13:05:50.000Z</time>
      </trkpt>
      <trkpt lat="44.42919" lon="4.50256">
        <ele>714.79998779297</ele>
        <time>2013-02-27T13:05:51.000Z</time>
      </trkpt>
      <trkpt lat="44.42919" lon="4.50256">
        <ele>714.79998779297</ele>
        <time>2013-02-27T13:05:52.000Z</time>
      </trkpt>
      <trkpt lat="44.42919" lon="4.50256">
        <ele>714.79998779297</ele>
        <time>2013-02-27T13:05:53.000Z</time>
      </trkpt>
      <trkpt lat="44.42919" lon="4.50256">
        <ele>714.79998779297</ele>
        <time>2013-02-27T13:05:54.000Z</time>
      </trkpt>
      <trkpt lat="44.42919" lon="4.50256">
        <ele>714.79998779297</ele>
        <time>2013-02-27T13:05:55.000Z</time>
      </trkpt>
      <trkpt lat="44.42919" lon="4.50256">
        <ele>714.79998779297</ele>
        <time>2013-02-27T13:05:56.000Z</time>
      </trkpt>
      <trkpt lat="44.42919" lon="4.50256">
        <ele>715.40002441406</ele>
        <time>2013-02-27T13:05:57.000Z</time>
      </trkpt>
      <trkpt lat="44.42919" lon="4.50256">
        <ele>715.40002441406</ele>
        <time>2013-02-27T13:05:58.000Z</time>
      </trkpt>
      <trkpt lat="44.42919" lon="4.50256">
        <ele>715.40002441406</ele>
        <time>2013-02-27T13:05:59.000Z</time>
      </trkpt>
      <trkpt lat="44.42919" lon="4.50256">
        <ele>715.40002441406</ele>
        <time>2013-02-27T13:06:00.000Z</time>
      </trkpt>
      <trkpt lat="44.42919" lon="4.50256">
        <ele>715.40002441406</ele>
        <time>2013-02-27T13:06:01.000Z</time>
      </trkpt>
      <trkpt lat="44.42919" lon="4.50256">
        <ele>715.40002441406</ele>
        <time>2013-02-27T13:06:02.000Z</time>
      </trkpt>
      <trkpt lat="44.42919" lon="4.50256">
        <ele>715.40002441406</ele>
        <time>2013-02-27T13:06:03.000Z</time>
      </trkpt>
      <trkpt lat="44.42919" lon="4.50256">
        <ele>715.40002441406</ele>
        <time>2013-02-27T13:06:04.000Z</time>
      </trkpt>
      <trkpt lat="44.42919" lon="4.50256">
        <ele>715.79998779297</ele>
        <time>2013-02-27T13:06:05.000Z</time>
      </trkpt>
      <trkpt lat="44.42919" lon="4.50256">
        <ele>715.79998779297</ele>
        <time>2013-02-27T13:06:06.000Z</time>
      </trkpt>
      <trkpt lat="44.42919" lon="4.50257">
        <ele>715.79998779297</ele>
        <time>2013-02-27T13:06:07.000Z</time>
      </trkpt>
      <trkpt lat="44.42919" lon="4.50257">
        <ele>716.40002441406</ele>
        <time>2013-02-27T13:06:08.000Z</time>
      </trkpt>
      <trkpt lat="44.42919" lon="4.50257">
        <ele>716.40002441406</ele>
        <time>2013-02-27T13:06:09.000Z</time>
      </trkpt>
      <trkpt lat="44.42919" lon="4.50257">
        <ele>716.40002441406</ele>
        <time>2013-02-27T13:06:10.000Z</time>
      </trkpt>
      <trkpt lat="44.42919" lon="4.50257">
        <ele>716.40002441406</ele>
        <time>2013-02-27T13:06:11.000Z</time>
      </trkpt>
      <trkpt lat="44.4292" lon="4.50258">
        <ele>716.40002441406</ele>
        <time>2013-02-27T13:06:12.000Z</time>
      </trkpt>
      <trkpt lat="44.4292" lon="4.50259">
        <ele>716.40002441406</ele>
        <time>2013-02-27T13:06:13.000Z</time>
      </trkpt>
      <trkpt lat="44.42921" lon="4.5026">
        <ele>716.40002441406</ele>
        <time>2013-02-27T13:06:14.000Z</time>
      </trkpt>
      <trkpt lat="44.42922" lon="4.5026">
        <ele>716.40002441406</ele>
        <time>2013-02-27T13:06:15.000Z</time>
      </trkpt>
      <trkpt lat="44.42922" lon="4.5026">
        <ele>716.40002441406</ele>
        <time>2013-02-27T13:06:16.000Z</time>
      </trkpt>
      <trkpt lat="44.42923" lon="4.5026">
        <ele>716.40002441406</ele>
        <time>2013-02-27T13:06:17.000Z</time>
      </trkpt>
      <trkpt lat="44.42924" lon="4.50259">
        <ele>716.40002441406</ele>
        <time>2013-02-27T13:06:18.000Z</time>
      </trkpt>
      <trkpt lat="44.42924" lon="4.5026">
        <ele>716.40002441406</ele>
        <time>2013-02-27T13:06:19.000Z</time>
      </trkpt>
      <trkpt lat="44.42924" lon="4.5026">
        <ele>716.40002441406</ele>
        <time>2013-02-27T13:06:20.000Z</time>
      </trkpt>
      <trkpt lat="44.42924" lon="4.5026">
        <ele>716.40002441406</ele>
        <time>2013-02-27T13:06:21.000Z</time>
      </trkpt>
      <trkpt lat="44.42924" lon="4.5026">
        <ele>716.40002441406</ele>
        <time>2013-02-27T13:06:22.000Z</time>
      </trkpt>
      <trkpt lat="44.42924" lon="4.5026">
        <ele>715.79998779297</ele>
        <time>2013-02-27T13:06:23.000Z</time>
      </trkpt>
      <trkpt lat="44.42924" lon="4.5026">
        <ele>715.79998779297</ele>
        <time>2013-02-27T13:06:24.000Z</time>
      </trkpt>
      <trkpt lat="44.42924" lon="4.5026">
        <ele>715.79998779297</ele>
        <time>2013-02-27T13:06:25.000Z</time>
      </trkpt>
      <trkpt lat="44.42924" lon="4.5026">
        <ele>715.79998779297</ele>
        <time>2013-02-27T13:06:26.000Z</time>
      </trkpt>
      <trkpt lat="44.42924" lon="4.5026">
        <ele>715.79998779297</ele>
        <time>2013-02-27T13:06:27.000Z</time>
      </trkpt>
      <trkpt lat="44.42924" lon="4.5026">
        <ele>715.79998779297</ele>
        <time>2013-02-27T13:06:28.000Z</time>
      </trkpt>
      <trkpt lat="44.42924" lon="4.5026">
        <ele>715.79998779297</ele>
        <time>2013-02-27T13:06:29.000Z</time>
      </trkpt>
      <trkpt lat="44.42924" lon="4.5026">
        <ele>715.79998779297</ele>
        <time>2013-02-27T13:06:30.000Z</time>
      </trkpt>
      <trkpt lat="44.42923" lon="4.5026">
        <ele>715.79998779297</ele>
        <time>2013-02-27T13:06:31.000Z</time>
      </trkpt>
      <trkpt lat="44.42923" lon="4.5026">
        <ele>715.79998779297</ele>
        <time>2013-02-27T13:06:32.000Z</time>
      </trkpt>
      <trkpt lat="44.42923" lon="4.5026">
        <ele>716.40002441406</ele>
        <time>2013-02-27T13:06:33.000Z</time>
      </trkpt>
      <trkpt lat="44.42923" lon="4.5026">
        <ele>716.40002441406</ele>
        <time>2013-02-27T13:06:34.000Z</time>
      </trkpt>
      <trkpt lat="44.42923" lon="4.5026">
        <ele>716.40002441406</ele>
        <time>2013-02-27T13:06:35.000Z</time>
      </trkpt>
      <trkpt lat="44.42923" lon="4.5026">
        <ele>716.40002441406</ele>
        <time>2013-02-27T13:06:36.000Z</time>
      </trkpt>
      <trkpt lat="44.42923" lon="4.5026">
        <ele>715.79998779297</ele>
        <time>2013-02-27T13:06:37.000Z</time>
      </trkpt>
      <trkpt lat="44.42923" lon="4.5026">
        <ele>715.79998779297</ele>
        <time>2013-02-27T13:06:38.000Z</time>
      </trkpt>
      <trkpt lat="44.42923" lon="4.5026">
        <ele>715.79998779297</ele>
        <time>2013-02-27T13:06:39.000Z</time>
      </trkpt>
      <trkpt lat="44.42923" lon="4.5026">
        <ele>715.79998779297</ele>
        <time>2013-02-27T13:06:40.000Z</time>
      </trkpt>
      <trkpt lat="44.42923" lon="4.5026">
        <ele>715.79998779297</ele>
        <time>2013-02-27T13:06:41.000Z</time>
      </trkpt>
      <trkpt lat="44.42923" lon="4.5026">
        <ele>715.79998779297</ele>
        <time>2013-02-27T13:06:42.000Z</time>
      </trkpt>
      <trkpt lat="44.42923" lon="4.5026">
        <ele>715.79998779297</ele>
        <time>2013-02-27T13:06:43.000Z</time>
      </trkpt>
      <trkpt lat="44.42923" lon="4.5026">
        <ele>715.79998779297</ele>
        <time>2013-02-27T13:06:44.000Z</time>
      </trkpt>
      <trkpt lat="44.42923" lon="4.5026">
        <ele>715.79998779297</ele>
        <time>2013-02-27T13:06:45.000Z</time>
      </trkpt>
      <trkpt lat="44.42923" lon="4.5026">
        <ele>715.40002441406</ele>
        <time>2013-02-27T13:06:46.000Z</time>
      </trkpt>
      <trkpt lat="44.42923" lon="4.5026">
        <ele>715.40002441406</ele>
        <time>2013-02-27T13:06:47.000Z</time>
      </trkpt>
      <trkpt lat="44.42923" lon="4.5026">
        <ele>715.79998779297</ele>
        <time>2013-02-27T13:06:48.000Z</time>
      </trkpt>
      <trkpt lat="44.42923" lon="4.5026">
        <ele>715.79998779297</ele>
        <time>2013-02-27T13:06:49.000Z</time>
      </trkpt>
      <trkpt lat="44.42923" lon="4.5026">
        <ele>716.40002441406</ele>
        <time>2013-02-27T13:06:50.000Z</time>
      </trkpt>
      <trkpt lat="44.42923" lon="4.5026">
        <ele>716.40002441406</ele>
        <time>2013-02-27T13:06:51.000Z</time>
      </trkpt>
      <trkpt lat="44.42923" lon="4.5026">
        <ele>716.40002441406</ele>
        <time>2013-02-27T13:06:52.000Z</time>
      </trkpt>
      <trkpt lat="44.42923" lon="4.5026">
        <ele>716.79998779297</ele>
        <time>2013-02-27T13:06:53.000Z</time>
      </trkpt>
      <trkpt lat="44.42923" lon="4.5026">
        <ele>716.79998779297</ele>
        <time>2013-02-27T13:06:54.000Z</time>
      </trkpt>
      <trkpt lat="44.42924" lon="4.5026">
        <ele>717.20001220703</ele>
        <time>2013-02-27T13:06:55.000Z</time>
      </trkpt>
      <trkpt lat="44.42924" lon="4.5026">
        <ele>717.20001220703</ele>
        <time>2013-02-27T13:06:56.000Z</time>
      </trkpt>
      <trkpt lat="44.42924" lon="4.5026">
        <ele>717.20001220703</ele>
        <time>2013-02-27T13:06:57.000Z</time>
      </trkpt>
      <trkpt lat="44.42924" lon="4.50259">
        <ele>717.20001220703</ele>
        <time>2013-02-27T13:06:58.000Z</time>
      </trkpt>
      <trkpt lat="44.42924" lon="4.50259">
        <ele>717.79998779297</ele>
        <time>2013-02-27T13:06:59.000Z</time>
      </trkpt>
      <trkpt lat="44.42924" lon="4.50259">
        <ele>718.20001220703</ele>
        <time>2013-02-27T13:07:00.000Z</time>
      </trkpt>
      <trkpt lat="44.42924" lon="4.50259">
        <ele>718.20001220703</ele>
        <time>2013-02-27T13:07:01.000Z</time>
      </trkpt>
      <trkpt lat="44.42924" lon="4.50259">
        <ele>718.79998779297</ele>
        <time>2013-02-27T13:07:02.000Z</time>
      </trkpt>
      <trkpt lat="44.42924" lon="4.50259">
        <ele>718.79998779297</ele>
        <time>2013-02-27T13:07:03.000Z</time>
      </trkpt>
      <trkpt lat="44.42924" lon="4.50259">
        <ele>718.79998779297</ele>
        <time>2013-02-27T13:07:04.000Z</time>
      </trkpt>
      <trkpt lat="44.42924" lon="4.50259">
        <ele>719.20001220703</ele>
        <time>2013-02-27T13:07:05.000Z</time>
      </trkpt>
      <trkpt lat="44.42924" lon="4.50259">
        <ele>719.20001220703</ele>
        <time>2013-02-27T13:07:06.000Z</time>
      </trkpt>
      <trkpt lat="44.42924" lon="4.50259">
        <ele>719.20001220703</ele>
        <time>2013-02-27T13:07:07.000Z</time>
      </trkpt>
      <trkpt lat="44.42924" lon="4.50259">
        <ele>719.20001220703</ele>
        <time>2013-02-27T13:07:08.000Z</time>
      </trkpt>
      <trkpt lat="44.42924" lon="4.50259">
        <ele>719.20001220703</ele>
        <time>2013-02-27T13:07:09.000Z</time>
      </trkpt>
      <trkpt lat="44.42923" lon="4.5026">
        <ele>719.20001220703</ele>
        <time>2013-02-27T13:07:10.000Z</time>
      </trkpt>
      <trkpt lat="44.42923" lon="4.5026">
        <ele>719.20001220703</ele>
        <time>2013-02-27T13:07:11.000Z</time>
      </trkpt>
      <trkpt lat="44.42923" lon="4.5026">
        <ele>719.20001220703</ele>
        <time>2013-02-27T13:07:12.000Z</time>
      </trkpt>
      <trkpt lat="44.42923" lon="4.5026">
        <ele>719.20001220703</ele>
        <time>2013-02-27T13:07:13.000Z</time>
      </trkpt>
      <trkpt lat="44.42923" lon="4.5026">
        <ele>719.20001220703</ele>
        <time>2013-02-27T13:07:14.000Z</time>
      </trkpt>
      <trkpt lat="44.42923" lon="4.50261">
        <ele>719.20001220703</ele>
        <time>2013-02-27T13:07:15.000Z</time>
      </trkpt>
      <trkpt lat="44.42923" lon="4.50261">
        <ele>718.79998779297</ele>
        <time>2013-02-27T13:07:16.000Z</time>
      </trkpt>
      <trkpt lat="44.42923" lon="4.50261">
        <ele>718.79998779297</ele>
        <time>2013-02-27T13:07:17.000Z</time>
      </trkpt>
      <trkpt lat="44.42923" lon="4.50261">
        <ele>718.79998779297</ele>
        <time>2013-02-27T13:07:18.000Z</time>
      </trkpt>
      <trkpt lat="44.42923" lon="4.50261">
        <ele>718.20001220703</ele>
        <time>2013-02-27T13:07:19.000Z</time>
      </trkpt>
      <trkpt lat="44.42923" lon="4.50261">
        <ele>718.20001220703</ele>
        <time>2013-02-27T13:07:20.000Z</time>
      </trkpt>
      <trkpt lat="44.42923" lon="4.50261">
        <ele>718.20001220703</ele>
        <time>2013-02-27T13:07:21.000Z</time>
      </trkpt>
      <trkpt lat="44.42923" lon="4.50261">
        <ele>718.20001220703</ele>
        <time>2013-02-27T13:07:22.000Z</time>
      </trkpt>
      <trkpt lat="44.42924" lon="4.50261">
        <ele>717.79998779297</ele>
        <time>2013-02-27T13:07:23.000Z</time>
      </trkpt>
      <trkpt lat="44.42924" lon="4.50261">
        <ele>717.79998779297</ele>
        <time>2013-02-27T13:07:24.000Z</time>
      </trkpt>
      <trkpt lat="44.42923" lon="4.50261">
        <ele>717.79998779297</ele>
        <time>2013-02-27T13:07:25.000Z</time>
      </trkpt>
      <trkpt lat="44.42923" lon="4.50261">
        <ele>717.20001220703</ele>
        <time>2013-02-27T13:07:26.000Z</time>
      </trkpt>
      <trkpt lat="44.42923" lon="4.50261">
        <ele>717.20001220703</ele>
        <time>2013-02-27T13:07:27.000Z</time>
      </trkpt>
      <trkpt lat="44.42923" lon="4.50262">
        <ele>717.20001220703</ele>
        <time>2013-02-27T13:07:28.000Z</time>
      </trkpt>
      <trkpt lat="44.42923" lon="4.50262">
        <ele>717.20001220703</ele>
        <time>2013-02-27T13:07:29.000Z</time>
      </trkpt>
      <trkpt lat="44.42923" lon="4.50262">
        <ele>717.20001220703</ele>
        <time>2013-02-27T13:07:30.000Z</time>
      </trkpt>
      <trkpt lat="44.42923" lon="4.50262">
        <ele>717.20001220703</ele>
        <time>2013-02-27T13:07:31.000Z</time>
      </trkpt>
      <trkpt lat="44.42923" lon="4.50262">
        <ele>716.79998779297</ele>
        <time>2013-02-27T13:07:32.000Z</time>
      </trkpt>
      <trkpt lat="44.42923" lon="4.50262">
        <ele>716.79998779297</ele>
        <time>2013-02-27T13:07:33.000Z</time>
      </trkpt>
      <trkpt lat="44.42923" lon="4.50262">
        <ele>716.79998779297</ele>
        <time>2013-02-27T13:07:34.000Z</time>
      </trkpt>
      <trkpt lat="44.42923" lon="4.50262">
        <ele>716.79998779297</ele>
        <time>2013-02-27T13:07:35.000Z</time>
      </trkpt>
      <trkpt lat="44.42924" lon="4.50262">
        <ele>716.40002441406</ele>
        <time>2013-02-27T13:07:36.000Z</time>
      </trkpt>
      <trkpt lat="44.42924" lon="4.50262">
        <ele>716.40002441406</ele>
        <time>2013-02-27T13:07:37.000Z</time>
      </trkpt>
      <trkpt lat="44.42923" lon="4.50262">
        <ele>715.79998779297</ele>
        <time>2013-02-27T13:07:38.000Z</time>
      </trkpt>
      <trkpt lat="44.42923" lon="4.50262">
        <ele>715.79998779297</ele>
        <time>2013-02-27T13:07:39.000Z</time>
      </trkpt>
      <trkpt lat="44.42923" lon="4.50262">
        <ele>715.79998779297</ele>
        <time>2013-02-27T13:07:40.000Z</time>
      </trkpt>
      <trkpt lat="44.42923" lon="4.50262">
        <ele>715.79998779297</ele>
        <time>2013-02-27T13:07:41.000Z</time>
      </trkpt>
      <trkpt lat="44.42923" lon="4.50262">
        <ele>715.79998779297</ele>
        <time>2013-02-27T13:07:42.000Z</time>
      </trkpt>
      <trkpt lat="44.42924" lon="4.50261">
        <ele>715.40002441406</ele>
        <time>2013-02-27T13:07:43.000Z</time>
      </trkpt>
      <trkpt lat="44.42924" lon="4.50262">
        <ele>715.40002441406</ele>
        <time>2013-02-27T13:07:44.000Z</time>
      </trkpt>
      <trkpt lat="44.42924" lon="4.50262">
        <ele>715.40002441406</ele>
        <time>2013-02-27T13:07:45.000Z</time>
      </trkpt>
      <trkpt lat="44.42924" lon="4.50262">
        <ele>714.79998779297</ele>
        <time>2013-02-27T13:07:46.000Z</time>
      </trkpt>
      <trkpt lat="44.42924" lon="4.50262">
        <ele>714.79998779297</ele>
        <time>2013-02-27T13:07:47.000Z</time>
      </trkpt>
      <trkpt lat="44.42924" lon="4.50262">
        <ele>714.79998779297</ele>
        <time>2013-02-27T13:07:48.000Z</time>
      </trkpt>
      <trkpt lat="44.42924" lon="4.50262">
        <ele>714.79998779297</ele>
        <time>2013-02-27T13:07:49.000Z</time>
      </trkpt>
      <trkpt lat="44.42924" lon="4.50262">
        <ele>714.40002441406</ele>
        <time>2013-02-27T13:07:50.000Z</time>
      </trkpt>
      <trkpt lat="44.42924" lon="4.50262">
        <ele>714.40002441406</ele>
        <time>2013-02-27T13:07:51.000Z</time>
      </trkpt>
      <trkpt lat="44.42924" lon="4.50262">
        <ele>714</ele>
        <time>2013-02-27T13:07:52.000Z</time>
      </trkpt>
      <trkpt lat="44.42924" lon="4.50262">
        <ele>714</ele>
        <time>2013-02-27T13:07:53.000Z</time>
      </trkpt>
      <trkpt lat="44.42924" lon="4.50262">
        <ele>714</ele>
        <time>2013-02-27T13:07:54.000Z</time>
      </trkpt>
      <trkpt lat="44.42924" lon="4.50262">
        <ele>714</ele>
        <time>2013-02-27T13:07:55.000Z</time>
      </trkpt>
      <trkpt lat="44.42924" lon="4.50262">
        <ele>714</ele>
        <time>2013-02-27T13:07:56.000Z</time>
      </trkpt>
      <trkpt lat="44.42924" lon="4.50262">
        <ele>714</ele>
        <time>2013-02-27T13:07:57.000Z</time>
      </trkpt>
      <trkpt lat="44.42924" lon="4.50262">
        <ele>713.40002441406</ele>
        <time>2013-02-27T13:07:58.000Z</time>
      </trkpt>
      <trkpt lat="44.42924" lon="4.50262">
        <ele>713.40002441406</ele>
        <time>2013-02-27T13:07:59.000Z</time>
      </trkpt>
      <trkpt lat="44.42924" lon="4.50261">
        <ele>714</ele>
        <time>2013-02-27T13:08:00.000Z</time>
      </trkpt>
      <trkpt lat="44.42924" lon="4.50261">
        <ele>714</ele>
        <time>2013-02-27T13:08:01.000Z</time>
      </trkpt>
      <trkpt lat="44.42924" lon="4.50261">
        <ele>714</ele>
        <time>2013-02-27T13:08:02.000Z</time>
      </trkpt>
      <trkpt lat="44.42924" lon="4.50261">
        <ele>714</ele>
        <time>2013-02-27T13:08:03.000Z</time>
      </trkpt>
      <trkpt lat="44.42924" lon="4.50261">
        <ele>714</ele>
        <time>2013-02-27T13:08:04.000Z</time>
      </trkpt>
      <trkpt lat="44.42924" lon="4.50262">
        <ele>714</ele>
        <time>2013-02-27T13:08:05.000Z</time>
      </trkpt>
      <trkpt lat="44.42924" lon="4.50262">
        <ele>714</ele>
        <time>2013-02-27T13:08:06.000Z</time>
      </trkpt>
      <trkpt lat="44.42924" lon="4.50262">
        <ele>714</ele>
        <time>2013-02-27T13:08:07.000Z</time>
      </trkpt>
      <trkpt lat="44.42924" lon="4.50262">
        <ele>713.40002441406</ele>
        <time>2013-02-27T13:08:08.000Z</time>
      </trkpt>
      <trkpt lat="44.42924" lon="4.50262">
        <ele>713.40002441406</ele>
        <time>2013-02-27T13:08:09.000Z</time>
      </trkpt>
      <trkpt lat="44.42924" lon="4.50262">
        <ele>713.40002441406</ele>
        <time>2013-02-27T13:08:10.000Z</time>
      </trkpt>
      <trkpt lat="44.42924" lon="4.50262">
        <ele>713.40002441406</ele>
        <time>2013-02-27T13:08:11.000Z</time>
      </trkpt>
      <trkpt lat="44.42924" lon="4.50262">
        <ele>714</ele>
        <time>2013-02-27T13:08:12.000Z</time>
      </trkpt>
      <trkpt lat="44.42924" lon="4.50262">
        <ele>714</ele>
        <time>2013-02-27T13:08:13.000Z</time>
      </trkpt>
      <trkpt lat="44.42924" lon="4.50262">
        <ele>714</ele>
        <time>2013-02-27T13:08:14.000Z</time>
      </trkpt>
      <trkpt lat="44.42924" lon="4.50262">
        <ele>714</ele>
        <time>2013-02-27T13:08:15.000Z</time>
      </trkpt>
      <trkpt lat="44.42924" lon="4.50262">
        <ele>714</ele>
        <time>2013-02-27T13:08:16.000Z</time>
      </trkpt>
      <trkpt lat="44.42924" lon="4.50262">
        <ele>713.40002441406</ele>
        <time>2013-02-27T13:08:17.000Z</time>
      </trkpt>
      <trkpt lat="44.42924" lon="4.50262">
        <ele>713.40002441406</ele>
        <time>2013-02-27T13:08:18.000Z</time>
      </trkpt>
      <trkpt lat="44.42924" lon="4.50262">
        <ele>713.40002441406</ele>
        <time>2013-02-27T13:08:19.000Z</time>
      </trkpt>
      <trkpt lat="44.42924" lon="4.50261">
        <ele>713.40002441406</ele>
        <time>2013-02-27T13:08:20.000Z</time>
      </trkpt>
      <trkpt lat="44.42924" lon="4.50261">
        <ele>714.40002441406</ele>
        <time>2013-02-27T13:08:21.000Z</time>
      </trkpt>
      <trkpt lat="44.42924" lon="4.50262">
        <ele>714.79998779297</ele>
        <time>2013-02-27T13:08:22.000Z</time>
      </trkpt>
      <trkpt lat="44.42924" lon="4.50262">
        <ele>714.79998779297</ele>
        <time>2013-02-27T13:08:23.000Z</time>
      </trkpt>
      <trkpt lat="44.42924" lon="4.50262">
        <ele>715.40002441406</ele>
        <time>2013-02-27T13:08:24.000Z</time>
      </trkpt>
      <trkpt lat="44.42924" lon="4.50262">
        <ele>715.40002441406</ele>
        <time>2013-02-27T13:08:25.000Z</time>
      </trkpt>
      <trkpt lat="44.42924" lon="4.50262">
        <ele>715.40002441406</ele>
        <time>2013-02-27T13:08:26.000Z</time>
      </trkpt>
      <trkpt lat="44.42924" lon="4.50262">
        <ele>715.40002441406</ele>
        <time>2013-02-27T13:08:27.000Z</time>
      </trkpt>
      <trkpt lat="44.42924" lon="4.50262">
        <ele>715.40002441406</ele>
        <time>2013-02-27T13:08:28.000Z</time>
      </trkpt>
      <trkpt lat="44.42924" lon="4.50262">
        <ele>715.79998779297</ele>
        <time>2013-02-27T13:08:29.000Z</time>
      </trkpt>
      <trkpt lat="44.42924" lon="4.50262">
        <ele>715.79998779297</ele>
        <time>2013-02-27T13:08:30.000Z</time>
      </trkpt>
      <trkpt lat="44.42924" lon="4.50261">
        <ele>715.79998779297</ele>
        <time>2013-02-27T13:08:31.000Z</time>
      </trkpt>
      <trkpt lat="44.42924" lon="4.50261">
        <ele>716.40002441406</ele>
        <time>2013-02-27T13:08:32.000Z</time>
      </trkpt>
      <trkpt lat="44.42924" lon="4.50261">
        <ele>716.40002441406</ele>
        <time>2013-02-27T13:08:33.000Z</time>
      </trkpt>
      <trkpt lat="44.42923" lon="4.50261">
        <ele>716.79998779297</ele>
        <time>2013-02-27T13:08:34.000Z</time>
      </trkpt>
      <trkpt lat="44.42923" lon="4.50261">
        <ele>717.20001220703</ele>
        <time>2013-02-27T13:08:35.000Z</time>
      </trkpt>
      <trkpt lat="44.42923" lon="4.50261">
        <ele>717.20001220703</ele>
        <time>2013-02-27T13:08:36.000Z</time>
      </trkpt>
      <trkpt lat="44.42923" lon="4.50261">
        <ele>717.20001220703</ele>
        <time>2013-02-27T13:08:37.000Z</time>
      </trkpt>
      <trkpt lat="44.42924" lon="4.5026">
        <ele>717.79998779297</ele>
        <time>2013-02-27T13:08:38.000Z</time>
      </trkpt>
      <trkpt lat="44.42924" lon="4.5026">
        <ele>718.20001220703</ele>
        <time>2013-02-27T13:08:39.000Z</time>
      </trkpt>
      <trkpt lat="44.42924" lon="4.5026">
        <ele>718.20001220703</ele>
        <time>2013-02-27T13:08:40.000Z</time>
      </trkpt>
      <trkpt lat="44.42924" lon="4.5026">
        <ele>718.20001220703</ele>
        <time>2013-02-27T13:08:41.000Z</time>
      </trkpt>
      <trkpt lat="44.42923" lon="4.5026">
        <ele>718.20001220703</ele>
        <time>2013-02-27T13:08:42.000Z</time>
      </trkpt>
      <trkpt lat="44.42923" lon="4.5026">
        <ele>718.20001220703</ele>
        <time>2013-02-27T13:08:43.000Z</time>
      </trkpt>
      <trkpt lat="44.42923" lon="4.5026">
        <ele>718.20001220703</ele>
        <time>2013-02-27T13:08:44.000Z</time>
      </trkpt>
      <trkpt lat="44.42923" lon="4.5026">
        <ele>718.20001220703</ele>
        <time>2013-02-27T13:08:45.000Z</time>
      </trkpt>
      <trkpt lat="44.42923" lon="4.5026">
        <ele>718.20001220703</ele>
        <time>2013-02-27T13:08:46.000Z</time>
      </trkpt>
      <trkpt lat="44.42923" lon="4.50259">
        <ele>718.20001220703</ele>
        <time>2013-02-27T13:08:47.000Z</time>
      </trkpt>
      <trkpt lat="44.42923" lon="4.50259">
        <ele>718.79998779297</ele>
        <time>2013-02-27T13:08:48.000Z</time>
      </trkpt>
      <trkpt lat="44.42923" lon="4.50258">
        <ele>719.20001220703</ele>
        <time>2013-02-27T13:08:49.000Z</time>
      </trkpt>
      <trkpt lat="44.42923" lon="4.50259">
        <ele>718.20001220703</ele>
        <time>2013-02-27T13:08:50.000Z</time>
      </trkpt>
      <trkpt lat="44.42923" lon="4.50259">
        <ele>718.20001220703</ele>
        <time>2013-02-27T13:08:51.000Z</time>
      </trkpt>
      <trkpt lat="44.42923" lon="4.50259">
        <ele>718.20001220703</ele>
        <time>2013-02-27T13:08:52.000Z</time>
      </trkpt>
      <trkpt lat="44.42923" lon="4.50259">
        <ele>718.20001220703</ele>
        <time>2013-02-27T13:08:53.000Z</time>
      </trkpt>
      <trkpt lat="44.42923" lon="4.50259">
        <ele>718.20001220703</ele>
        <time>2013-02-27T13:08:54.000Z</time>
      </trkpt>
      <trkpt lat="44.42923" lon="4.50259">
        <ele>718.20001220703</ele>
        <time>2013-02-27T13:08:55.000Z</time>
      </trkpt>
      <trkpt lat="44.42923" lon="4.50259">
        <ele>718.20001220703</ele>
        <time>2013-02-27T13:08:56.000Z</time>
      </trkpt>
      <trkpt lat="44.42924" lon="4.50259">
        <ele>718.20001220703</ele>
        <time>2013-02-27T13:08:57.000Z</time>
      </trkpt>
      <trkpt lat="44.42923" lon="4.50259">
        <ele>718.20001220703</ele>
        <time>2013-02-27T13:08:58.000Z</time>
      </trkpt>
      <trkpt lat="44.42924" lon="4.50259">
        <ele>718.20001220703</ele>
        <time>2013-02-27T13:08:59.000Z</time>
      </trkpt>
      <trkpt lat="44.42924" lon="4.50259">
        <ele>717.79998779297</ele>
        <time>2013-02-27T13:09:00.000Z</time>
      </trkpt>
      <trkpt lat="44.42924" lon="4.50259">
        <ele>717.79998779297</ele>
        <time>2013-02-27T13:09:01.000Z</time>
      </trkpt>
      <trkpt lat="44.42924" lon="4.50259">
        <ele>717.79998779297</ele>
        <time>2013-02-27T13:09:02.000Z</time>
      </trkpt>
      <trkpt lat="44.42924" lon="4.50259">
        <ele>717.20001220703</ele>
        <time>2013-02-27T13:09:03.000Z</time>
      </trkpt>
      <trkpt lat="44.42924" lon="4.50259">
        <ele>717.20001220703</ele>
        <time>2013-02-27T13:09:04.000Z</time>
      </trkpt>
      <trkpt lat="44.42924" lon="4.50259">
        <ele>717.20001220703</ele>
        <time>2013-02-27T13:09:05.000Z</time>
      </trkpt>
      <trkpt lat="44.42924" lon="4.50259">
        <ele>717.79998779297</ele>
        <time>2013-02-27T13:09:06.000Z</time>
      </trkpt>
      <trkpt lat="44.42925" lon="4.50259">
        <ele>718.20001220703</ele>
        <time>2013-02-27T13:09:07.000Z</time>
      </trkpt>
      <trkpt lat="44.42925" lon="4.50259">
        <ele>718.20001220703</ele>
        <time>2013-02-27T13:09:08.000Z</time>
      </trkpt>
      <trkpt lat="44.42925" lon="4.50259">
        <ele>718.20001220703</ele>
        <time>2013-02-27T13:09:09.000Z</time>
      </trkpt>
      <trkpt lat="44.42925" lon="4.50259">
        <ele>718.20001220703</ele>
        <time>2013-02-27T13:09:10.000Z</time>
      </trkpt>
      <trkpt lat="44.42925" lon="4.50259">
        <ele>718.20001220703</ele>
        <time>2013-02-27T13:09:11.000Z</time>
      </trkpt>
      <trkpt lat="44.42925" lon="4.5026">
        <ele>718.79998779297</ele>
        <time>2013-02-27T13:09:12.000Z</time>
      </trkpt>
      <trkpt lat="44.42925" lon="4.5026">
        <ele>718.79998779297</ele>
        <time>2013-02-27T13:09:13.000Z</time>
      </trkpt>
      <trkpt lat="44.42925" lon="4.5026">
        <ele>719.20001220703</ele>
        <time>2013-02-27T13:09:14.000Z</time>
      </trkpt>
      <trkpt lat="44.42925" lon="4.5026">
        <ele>719.20001220703</ele>
        <time>2013-02-27T13:09:15.000Z</time>
      </trkpt>
      <trkpt lat="44.42925" lon="4.5026">
        <ele>719.20001220703</ele>
        <time>2013-02-27T13:09:16.000Z</time>
      </trkpt>
      <trkpt lat="44.42925" lon="4.5026">
        <ele>719.20001220703</ele>
        <time>2013-02-27T13:09:17.000Z</time>
      </trkpt>
      <trkpt lat="44.42926" lon="4.5026">
        <ele>719.59997558594</ele>
        <time>2013-02-27T13:09:18.000Z</time>
      </trkpt>
      <trkpt lat="44.42926" lon="4.5026">
        <ele>719.59997558594</ele>
        <time>2013-02-27T13:09:19.000Z</time>
      </trkpt>
      <trkpt lat="44.42926" lon="4.5026">
        <ele>719.59997558594</ele>
        <time>2013-02-27T13:09:20.000Z</time>
      </trkpt>
      <trkpt lat="44.42926" lon="4.5026">
        <ele>719.59997558594</ele>
        <time>2013-02-27T13:09:21.000Z</time>
      </trkpt>
      <trkpt lat="44.42926" lon="4.5026">
        <ele>719.59997558594</ele>
        <time>2013-02-27T13:09:22.000Z</time>
      </trkpt>
      <trkpt lat="44.42926" lon="4.5026">
        <ele>719.20001220703</ele>
        <time>2013-02-27T13:09:23.000Z</time>
      </trkpt>
      <trkpt lat="44.42926" lon="4.5026">
        <ele>719.20001220703</ele>
        <time>2013-02-27T13:09:24.000Z</time>
      </trkpt>
      <trkpt lat="44.42925" lon="4.5026">
        <ele>719.20001220703</ele>
        <time>2013-02-27T13:09:25.000Z</time>
      </trkpt>
      <trkpt lat="44.42925" lon="4.5026">
        <ele>718.79998779297</ele>
        <time>2013-02-27T13:09:26.000Z</time>
      </trkpt>
      <trkpt lat="44.42925" lon="4.5026">
        <ele>718.79998779297</ele>
        <time>2013-02-27T13:09:27.000Z</time>
      </trkpt>
      <trkpt lat="44.42925" lon="4.5026">
        <ele>718.79998779297</ele>
        <time>2013-02-27T13:09:28.000Z</time>
      </trkpt>
      <trkpt lat="44.42925" lon="4.50261">
        <ele>718.79998779297</ele>
        <time>2013-02-27T13:09:29.000Z</time>
      </trkpt>
      <trkpt lat="44.42925" lon="4.50261">
        <ele>718.79998779297</ele>
        <time>2013-02-27T13:09:30.000Z</time>
      </trkpt>
      <trkpt lat="44.42925" lon="4.5026">
        <ele>718.20001220703</ele>
        <time>2013-02-27T13:09:31.000Z</time>
      </trkpt>
      <trkpt lat="44.42925" lon="4.5026">
        <ele>718.20001220703</ele>
        <time>2013-02-27T13:09:32.000Z</time>
      </trkpt>
      <trkpt lat="44.42925" lon="4.5026">
        <ele>718.20001220703</ele>
        <time>2013-02-27T13:09:33.000Z</time>
      </trkpt>
      <trkpt lat="44.42925" lon="4.5026">
        <ele>718.20001220703</ele>
        <time>2013-02-27T13:09:34.000Z</time>
      </trkpt>
      <trkpt lat="44.42925" lon="4.5026">
        <ele>718.20001220703</ele>
        <time>2013-02-27T13:09:35.000Z</time>
      </trkpt>
      <trkpt lat="44.42925" lon="4.50261">
        <ele>718.20001220703</ele>
        <time>2013-02-27T13:09:36.000Z</time>
      </trkpt>
      <trkpt lat="44.42925" lon="4.50261">
        <ele>718.20001220703</ele>
        <time>2013-02-27T13:09:37.000Z</time>
      </trkpt>
      <trkpt lat="44.42925" lon="4.50261">
        <ele>718.20001220703</ele>
        <time>2013-02-27T13:09:38.000Z</time>
      </trkpt>
      <trkpt lat="44.42925" lon="4.50261">
        <ele>718.20001220703</ele>
        <time>2013-02-27T13:09:39.000Z</time>
      </trkpt>
      <trkpt lat="44.42925" lon="4.50261">
        <ele>718.20001220703</ele>
        <time>2013-02-27T13:09:40.000Z</time>
      </trkpt>
      <trkpt lat="44.42925" lon="4.50261">
        <ele>718.20001220703</ele>
        <time>2013-02-27T13:09:41.000Z</time>
      </trkpt>
      <trkpt lat="44.42925" lon="4.50261">
        <ele>718.20001220703</ele>
        <time>2013-02-27T13:09:42.000Z</time>
      </trkpt>
      <trkpt lat="44.42925" lon="4.50261">
        <ele>717.79998779297</ele>
        <time>2013-02-27T13:09:43.000Z</time>
      </trkpt>
      <trkpt lat="44.42925" lon="4.50261">
        <ele>717.79998779297</ele>
        <time>2013-02-27T13:09:44.000Z</time>
      </trkpt>
      <trkpt lat="44.42925" lon="4.50261">
        <ele>717.79998779297</ele>
        <time>2013-02-27T13:09:45.000Z</time>
      </trkpt>
      <trkpt lat="44.42925" lon="4.50261">
        <ele>717.79998779297</ele>
        <time>2013-02-27T13:09:46.000Z</time>
      </trkpt>
      <trkpt lat="44.42925" lon="4.50261">
        <ele>717.79998779297</ele>
        <time>2013-02-27T13:09:47.000Z</time>
      </trkpt>
      <trkpt lat="44.42925" lon="4.50261">
        <ele>717.79998779297</ele>
        <time>2013-02-27T13:09:48.000Z</time>
      </trkpt>
      <trkpt lat="44.42925" lon="4.50261">
        <ele>717.79998779297</ele>
        <time>2013-02-27T13:09:49.000Z</time>
      </trkpt>
      <trkpt lat="44.42925" lon="4.50261">
        <ele>717.79998779297</ele>
        <time>2013-02-27T13:09:50.000Z</time>
      </trkpt>
      <trkpt lat="44.42925" lon="4.50261">
        <ele>717.79998779297</ele>
        <time>2013-02-27T13:09:51.000Z</time>
      </trkpt>
      <trkpt lat="44.42925" lon="4.50261">
        <ele>717.79998779297</ele>
        <time>2013-02-27T13:09:52.000Z</time>
      </trkpt>
      <trkpt lat="44.42925" lon="4.50261">
        <ele>717.79998779297</ele>
        <time>2013-02-27T13:09:53.000Z</time>
      </trkpt>
      <trkpt lat="44.42925" lon="4.50261">
        <ele>717.79998779297</ele>
        <time>2013-02-27T13:09:54.000Z</time>
      </trkpt>
      <trkpt lat="44.42925" lon="4.50261">
        <ele>717.79998779297</ele>
        <time>2013-02-27T13:09:55.000Z</time>
      </trkpt>
      <trkpt lat="44.42925" lon="4.50261">
        <ele>717.79998779297</ele>
        <time>2013-02-27T13:09:56.000Z</time>
      </trkpt>
      <trkpt lat="44.42925" lon="4.50261">
        <ele>717.79998779297</ele>
        <time>2013-02-27T13:09:57.000Z</time>
      </trkpt>
      <trkpt lat="44.42925" lon="4.50261">
        <ele>717.79998779297</ele>
        <time>2013-02-27T13:09:58.000Z</time>
      </trkpt>
      <trkpt lat="44.42924" lon="4.50261">
        <ele>717.79998779297</ele>
        <time>2013-02-27T13:09:59.000Z</time>
      </trkpt>
      <trkpt lat="44.42924" lon="4.50261">
        <ele>717.79998779297</ele>
        <time>2013-02-27T13:10:00.000Z</time>
      </trkpt>
      <trkpt lat="44.42924" lon="4.50261">
        <ele>717.79998779297</ele>
        <time>2013-02-27T13:10:01.000Z</time>
      </trkpt>
      <trkpt lat="44.42924" lon="4.50261">
        <ele>717.79998779297</ele>
        <time>2013-02-27T13:10:02.000Z</time>
      </trkpt>
      <trkpt lat="44.42924" lon="4.50261">
        <ele>717.20001220703</ele>
        <time>2013-02-27T13:10:04.000Z</time>
      </trkpt>
      <trkpt lat="44.42924" lon="4.50261">
        <ele>717.20001220703</ele>
        <time>2013-02-27T13:10:07.000Z</time>
      </trkpt>
      <trkpt lat="44.42924" lon="4.50261">
        <ele>717.20001220703</ele>
        <time>2013-02-27T13:10:08.000Z</time>
      </trkpt>
      <trkpt lat="44.42924" lon="4.50261">
        <ele>717.79998779297</ele>
        <time>2013-02-27T13:10:09.000Z</time>
      </trkpt>
      <trkpt lat="44.42924" lon="4.50261">
        <ele>717.79998779297</ele>
        <time>2013-02-27T13:10:10.000Z</time>
      </trkpt>
      <trkpt lat="44.42924" lon="4.50261">
        <ele>717.79998779297</ele>
        <time>2013-02-27T13:10:11.000Z</time>
      </trkpt>
      <trkpt lat="44.42924" lon="4.50261">
        <ele>717.79998779297</ele>
        <time>2013-02-27T13:10:12.000Z</time>
      </trkpt>
      <trkpt lat="44.42925" lon="4.50261">
        <ele>718.20001220703</ele>
        <time>2013-02-27T13:10:13.000Z</time>
      </trkpt>
      <trkpt lat="44.42924" lon="4.50261">
        <ele>717.79998779297</ele>
        <time>2013-02-27T13:10:14.000Z</time>
      </trkpt>
      <trkpt lat="44.42924" lon="4.50261">
        <ele>717.79998779297</ele>
        <time>2013-02-27T13:10:15.000Z</time>
      </trkpt>
      <trkpt lat="44.42924" lon="4.50261">
        <ele>717.79998779297</ele>
        <time>2013-02-27T13:10:17.000Z</time>
      </trkpt>
      <trkpt lat="44.42924" lon="4.50261">
        <ele>717.79998779297</ele>
        <time>2013-02-27T13:10:18.000Z</time>
      </trkpt>
      <trkpt lat="44.42924" lon="4.50261">
        <ele>717.79998779297</ele>
        <time>2013-02-27T13:10:19.000Z</time>
      </trkpt>
      <trkpt lat="44.42924" lon="4.50261">
        <ele>717.20001220703</ele>
        <time>2013-02-27T13:10:20.000Z</time>
      </trkpt>
      <trkpt lat="44.42924" lon="4.50261">
        <ele>717.20001220703</ele>
        <time>2013-02-27T13:10:21.000Z</time>
      </trkpt>
      <trkpt lat="44.42924" lon="4.50261">
        <ele>717.20001220703</ele>
        <time>2013-02-27T13:10:22.000Z</time>
      </trkpt>
      <trkpt lat="44.42924" lon="4.50261">
        <ele>717.20001220703</ele>
        <time>2013-02-27T13:10:23.000Z</time>
      </trkpt>
      <trkpt lat="44.42924" lon="4.50261">
        <ele>717.20001220703</ele>
        <time>2013-02-27T13:10:24.000Z</time>
      </trkpt>
      <trkpt lat="44.42924" lon="4.50261">
        <ele>717.20001220703</ele>
        <time>2013-02-27T13:10:25.000Z</time>
      </trkpt>
      <trkpt lat="44.42924" lon="4.50261">
        <ele>717.20001220703</ele>
        <time>2013-02-27T13:10:26.000Z</time>
      </trkpt>
      <trkpt lat="44.42924" lon="4.50261">
        <ele>717.20001220703</ele>
        <time>2013-02-27T13:10:27.000Z</time>
      </trkpt>
      <trkpt lat="44.42924" lon="4.50261">
        <ele>717.20001220703</ele>
        <time>2013-02-27T13:10:28.000Z</time>
      </trkpt>
      <trkpt lat="44.42924" lon="4.50261">
        <ele>717.20001220703</ele>
        <time>2013-02-27T13:10:29.000Z</time>
      </trkpt>
      <trkpt lat="44.42924" lon="4.50261">
        <ele>717.20001220703</ele>
        <time>2013-02-27T13:10:30.000Z</time>
      </trkpt>
      <trkpt lat="44.42924" lon="4.50261">
        <ele>717.20001220703</ele>
        <time>2013-02-27T13:10:31.000Z</time>
      </trkpt>
      <trkpt lat="44.42924" lon="4.50261">
        <ele>716.79998779297</ele>
        <time>2013-02-27T13:10:32.000Z</time>
      </trkpt>
      <trkpt lat="44.42924" lon="4.50261">
        <ele>716.79998779297</ele>
        <time>2013-02-27T13:10:33.000Z</time>
      </trkpt>
      <trkpt lat="44.42924" lon="4.50261">
        <ele>716.79998779297</ele>
        <time>2013-02-27T13:10:34.000Z</time>
      </trkpt>
      <trkpt lat="44.42924" lon="4.50261">
        <ele>716.79998779297</ele>
        <time>2013-02-27T13:10:35.000Z</time>
      </trkpt>
      <trkpt lat="44.42924" lon="4.50261">
        <ele>716.79998779297</ele>
        <time>2013-02-27T13:10:36.000Z</time>
      </trkpt>
      <trkpt lat="44.42924" lon="4.50261">
        <ele>716.79998779297</ele>
        <time>2013-02-27T13:10:37.000Z</time>
      </trkpt>
      <trkpt lat="44.42924" lon="4.50261">
        <ele>716.79998779297</ele>
        <time>2013-02-27T13:10:38.000Z</time>
      </trkpt>
      <trkpt lat="44.42924" lon="4.50261">
        <ele>716.40002441406</ele>
        <time>2013-02-27T13:10:39.000Z</time>
      </trkpt>
      <trkpt lat="44.42924" lon="4.50261">
        <ele>716.40002441406</ele>
        <time>2013-02-27T13:10:40.000Z</time>
      </trkpt>
      <trkpt lat="44.42924" lon="4.50261">
        <ele>716.79998779297</ele>
        <time>2013-02-27T13:10:41.000Z</time>
      </trkpt>
      <trkpt lat="44.42924" lon="4.50261">
        <ele>716.79998779297</ele>
        <time>2013-02-27T13:10:42.000Z</time>
      </trkpt>
      <trkpt lat="44.42924" lon="4.50261">
        <ele>716.79998779297</ele>
        <time>2013-02-27T13:10:43.000Z</time>
      </trkpt>
      <trkpt lat="44.42924" lon="4.50261">
        <ele>716.79998779297</ele>
        <time>2013-02-27T13:10:44.000Z</time>
      </trkpt>
      <trkpt lat="44.42925" lon="4.5026">
        <ele>716.79998779297</ele>
        <time>2013-02-27T13:10:45.000Z</time>
      </trkpt>
      <trkpt lat="44.42925" lon="4.5026">
        <ele>716.79998779297</ele>
        <time>2013-02-27T13:10:46.000Z</time>
      </trkpt>
      <trkpt lat="44.42925" lon="4.5026">
        <ele>717.20001220703</ele>
        <time>2013-02-27T13:10:47.000Z</time>
      </trkpt>
      <trkpt lat="44.42925" lon="4.5026">
        <ele>717.20001220703</ele>
        <time>2013-02-27T13:10:48.000Z</time>
      </trkpt>
      <trkpt lat="44.42925" lon="4.5026">
        <ele>717.20001220703</ele>
        <time>2013-02-27T13:10:49.000Z</time>
      </trkpt>
      <trkpt lat="44.42925" lon="4.5026">
        <ele>717.20001220703</ele>
        <time>2013-02-27T13:10:50.000Z</time>
      </trkpt>
      <trkpt lat="44.42925" lon="4.5026">
        <ele>717.20001220703</ele>
        <time>2013-02-27T13:10:51.000Z</time>
      </trkpt>
      <trkpt lat="44.42925" lon="4.5026">
        <ele>717.20001220703</ele>
        <time>2013-02-27T13:10:52.000Z</time>
      </trkpt>
      <trkpt lat="44.42925" lon="4.5026">
        <ele>717.20001220703</ele>
        <time>2013-02-27T13:10:54.000Z</time>
      </trkpt>
      <trkpt lat="44.42925" lon="4.5026">
        <ele>717.20001220703</ele>
        <time>2013-02-27T13:10:55.000Z</time>
      </trkpt>
      <trkpt lat="44.42925" lon="4.50261">
        <ele>717.20001220703</ele>
        <time>2013-02-27T13:10:56.000Z</time>
      </trkpt>
      <trkpt lat="44.42925" lon="4.50261">
        <ele>717.20001220703</ele>
        <time>2013-02-27T13:10:57.000Z</time>
      </trkpt>
      <trkpt lat="44.42926" lon="4.50261">
        <ele>717.20001220703</ele>
        <time>2013-02-27T13:10:58.000Z</time>
      </trkpt>
      <trkpt lat="44.42926" lon="4.50261">
        <ele>717.20001220703</ele>
        <time>2013-02-27T13:10:59.000Z</time>
      </trkpt>
      <trkpt lat="44.42926" lon="4.50262">
        <ele>716.79998779297</ele>
        <time>2013-02-27T13:11:00.000Z</time>
      </trkpt>
      <trkpt lat="44.42926" lon="4.50263">
        <ele>716.79998779297</ele>
        <time>2013-02-27T13:11:01.000Z</time>
      </trkpt>
      <trkpt lat="44.42926" lon="4.50264">
        <ele>716.79998779297</ele>
        <time>2013-02-27T13:11:02.000Z</time>
      </trkpt>
      <trkpt lat="44.42927" lon="4.50264">
        <ele>716.40002441406</ele>
        <time>2013-02-27T13:11:03.000Z</time>
      </trkpt>
      <trkpt lat="44.42928" lon="4.50264">
        <ele>716.40002441406</ele>
        <time>2013-02-27T13:11:04.000Z</time>
      </trkpt>
      <trkpt lat="44.42929" lon="4.50265">
        <ele>716.40002441406</ele>
        <time>2013-02-27T13:11:05.000Z</time>
      </trkpt>
      <trkpt lat="44.4293" lon="4.50265">
        <ele>716.40002441406</ele>
        <time>2013-02-27T13:11:06.000Z</time>
      </trkpt>
      <trkpt lat="44.42931" lon="4.50265">
        <ele>716.40002441406</ele>
        <time>2013-02-27T13:11:07.000Z</time>
      </trkpt>
      <trkpt lat="44.42932" lon="4.50265">
        <ele>716.40002441406</ele>
        <time>2013-02-27T13:11:08.000Z</time>
      </trkpt>
      <trkpt lat="44.42933" lon="4.50266">
        <ele>716.40002441406</ele>
        <time>2013-02-27T13:11:09.000Z</time>
      </trkpt>
      <trkpt lat="44.42934" lon="4.50266">
        <ele>716.40002441406</ele>
        <time>2013-02-27T13:11:10.000Z</time>
      </trkpt>
      <trkpt lat="44.42935" lon="4.50265">
        <ele>715.79998779297</ele>
        <time>2013-02-27T13:11:11.000Z</time>
      </trkpt>
      <trkpt lat="44.42937" lon="4.50266">
        <ele>715.79998779297</ele>
        <time>2013-02-27T13:11:12.000Z</time>
      </trkpt>
      <trkpt lat="44.42938" lon="4.50266">
        <ele>715.79998779297</ele>
        <time>2013-02-27T13:11:13.000Z</time>
      </trkpt>
      <trkpt lat="44.42939" lon="4.50266">
        <ele>715.79998779297</ele>
        <time>2013-02-27T13:11:14.000Z</time>
      </trkpt>
      <trkpt lat="44.4294" lon="4.50266">
        <ele>715.79998779297</ele>
        <time>2013-02-27T13:11:15.000Z</time>
      </trkpt>
      <trkpt lat="44.42942" lon="4.50265">
        <ele>715.79998779297</ele>
        <time>2013-02-27T13:11:16.000Z</time>
      </trkpt>
      <trkpt lat="44.42943" lon="4.50265">
        <ele>715.79998779297</ele>
        <time>2013-02-27T13:11:17.000Z</time>
      </trkpt>
      <trkpt lat="44.42944" lon="4.50265">
        <ele>715.79998779297</ele>
        <time>2013-02-27T13:11:18.000Z</time>
      </trkpt>
      <trkpt lat="44.42945" lon="4.50265">
        <ele>715.79998779297</ele>
        <time>2013-02-27T13:11:19.000Z</time>
      </trkpt>
      <trkpt lat="44.42947" lon="4.50265">
        <ele>715.79998779297</ele>
        <time>2013-02-27T13:11:20.000Z</time>
      </trkpt>
      <trkpt lat="44.42948" lon="4.50265">
        <ele>715.79998779297</ele>
        <time>2013-02-27T13:11:21.000Z</time>
      </trkpt>
      <trkpt lat="44.42949" lon="4.50265">
        <ele>715.79998779297</ele>
        <time>2013-02-27T13:11:22.000Z</time>
      </trkpt>
      <trkpt lat="44.4295" lon="4.50265">
        <ele>715.79998779297</ele>
        <time>2013-02-27T13:11:23.000Z</time>
      </trkpt>
      <trkpt lat="44.42951" lon="4.50266">
        <ele>715.79998779297</ele>
        <time>2013-02-27T13:11:24.000Z</time>
      </trkpt>
      <trkpt lat="44.42952" lon="4.50266">
        <ele>715.79998779297</ele>
        <time>2013-02-27T13:11:25.000Z</time>
      </trkpt>
      <trkpt lat="44.42953" lon="4.50266">
        <ele>715.79998779297</ele>
        <time>2013-02-27T13:11:26.000Z</time>
      </trkpt>
      <trkpt lat="44.42954" lon="4.50265">
        <ele>715.79998779297</ele>
        <time>2013-02-27T13:11:27.000Z</time>
      </trkpt>
      <trkpt lat="44.42955" lon="4.50265">
        <ele>715.40002441406</ele>
        <time>2013-02-27T13:11:28.000Z</time>
      </trkpt>
      <trkpt lat="44.42956" lon="4.50265">
        <ele>715.40002441406</ele>
        <time>2013-02-27T13:11:29.000Z</time>
      </trkpt>
      <trkpt lat="44.42957" lon="4.50265">
        <ele>715.40002441406</ele>
        <time>2013-02-27T13:11:30.000Z</time>
      </trkpt>
      <trkpt lat="44.42958" lon="4.50266">
        <ele>715.40002441406</ele>
        <time>2013-02-27T13:11:31.000Z</time>
      </trkpt>
      <trkpt lat="44.42959" lon="4.50266">
        <ele>715.40002441406</ele>
        <time>2013-02-27T13:11:32.000Z</time>
      </trkpt>
      <trkpt lat="44.4296" lon="4.50266">
        <ele>715.40002441406</ele>
        <time>2013-02-27T13:11:33.000Z</time>
      </trkpt>
      <trkpt lat="44.42962" lon="4.50267">
        <ele>715.40002441406</ele>
        <time>2013-02-27T13:11:34.000Z</time>
      </trkpt>
      <trkpt lat="44.42963" lon="4.50266">
        <ele>715.40002441406</ele>
        <time>2013-02-27T13:11:35.000Z</time>
      </trkpt>
      <trkpt lat="44.42964" lon="4.50266">
        <ele>715.40002441406</ele>
        <time>2013-02-27T13:11:36.000Z</time>
      </trkpt>
      <trkpt lat="44.42965" lon="4.50266">
        <ele>714.79998779297</ele>
        <time>2013-02-27T13:11:37.000Z</time>
      </trkpt>
      <trkpt lat="44.42966" lon="4.50265">
        <ele>714.79998779297</ele>
        <time>2013-02-27T13:11:38.000Z</time>
      </trkpt>
      <trkpt lat="44.42967" lon="4.50265">
        <ele>714.79998779297</ele>
        <time>2013-02-27T13:11:39.000Z</time>
      </trkpt>
      <trkpt lat="44.42968" lon="4.50264">
        <ele>714.79998779297</ele>
        <time>2013-02-27T13:11:40.000Z</time>
      </trkpt>
      <trkpt lat="44.42969" lon="4.50263">
        <ele>714.79998779297</ele>
        <time>2013-02-27T13:11:41.000Z</time>
      </trkpt>
      <trkpt lat="44.4297" lon="4.50263">
        <ele>714.40002441406</ele>
        <time>2013-02-27T13:11:42.000Z</time>
      </trkpt>
      <trkpt lat="44.42971" lon="4.50262">
        <ele>714.40002441406</ele>
        <time>2013-02-27T13:11:43.000Z</time>
      </trkpt>
      <trkpt lat="44.42972" lon="4.50262">
        <ele>714.40002441406</ele>
        <time>2013-02-27T13:11:44.000Z</time>
      </trkpt>
      <trkpt lat="44.42973" lon="4.50262">
        <ele>714.40002441406</ele>
        <time>2013-02-27T13:11:45.000Z</time>
      </trkpt>
      <trkpt lat="44.42974" lon="4.50261">
        <ele>714.40002441406</ele>
        <time>2013-02-27T13:11:46.000Z</time>
      </trkpt>
      <trkpt lat="44.42975" lon="4.5026">
        <ele>714.40002441406</ele>
        <time>2013-02-27T13:11:47.000Z</time>
      </trkpt>
      <trkpt lat="44.42977" lon="4.5026">
        <ele>714.40002441406</ele>
        <time>2013-02-27T13:11:48.000Z</time>
      </trkpt>
      <trkpt lat="44.42978" lon="4.50259">
        <ele>714</ele>
        <time>2013-02-27T13:11:49.000Z</time>
      </trkpt>
      <trkpt lat="44.42979" lon="4.50259">
        <ele>714</ele>
        <time>2013-02-27T13:11:50.000Z</time>
      </trkpt>
      <trkpt lat="44.4298" lon="4.50259">
        <ele>714</ele>
        <time>2013-02-27T13:11:51.000Z</time>
      </trkpt>
      <trkpt lat="44.42981" lon="4.50258">
        <ele>713.40002441406</ele>
        <time>2013-02-27T13:11:52.000Z</time>
      </trkpt>
      <trkpt lat="44.42982" lon="4.50258">
        <ele>713.40002441406</ele>
        <time>2013-02-27T13:11:53.000Z</time>
      </trkpt>
      <trkpt lat="44.42983" lon="4.50257">
        <ele>713</ele>
        <time>2013-02-27T13:11:54.000Z</time>
      </trkpt>
      <trkpt lat="44.42984" lon="4.50257">
        <ele>713</ele>
        <time>2013-02-27T13:11:55.000Z</time>
      </trkpt>
      <trkpt lat="44.42986" lon="4.50256">
        <ele>713</ele>
        <time>2013-02-27T13:11:56.000Z</time>
      </trkpt>
      <trkpt lat="44.42987" lon="4.50256">
        <ele>713</ele>
        <time>2013-02-27T13:11:57.000Z</time>
      </trkpt>
      <trkpt lat="44.42988" lon="4.50255">
        <ele>712.40002441406</ele>
        <time>2013-02-27T13:11:58.000Z</time>
      </trkpt>
      <trkpt lat="44.42989" lon="4.50254">
        <ele>712.40002441406</ele>
        <time>2013-02-27T13:11:59.000Z</time>
      </trkpt>
      <trkpt lat="44.4299" lon="4.50253">
        <ele>712.40002441406</ele>
        <time>2013-02-27T13:12:00.000Z</time>
      </trkpt>
      <trkpt lat="44.42991" lon="4.50253">
        <ele>712</ele>
        <time>2013-02-27T13:12:01.000Z</time>
      </trkpt>
      <trkpt lat="44.42992" lon="4.50252">
        <ele>712</ele>
        <time>2013-02-27T13:12:02.000Z</time>
      </trkpt>
      <trkpt lat="44.42994" lon="4.50252">
        <ele>712</ele>
        <time>2013-02-27T13:12:03.000Z</time>
      </trkpt>
      <trkpt lat="44.42995" lon="4.50252">
        <ele>712</ele>
        <time>2013-02-27T13:12:04.000Z</time>
      </trkpt>
      <trkpt lat="44.42996" lon="4.50253">
        <ele>711.59997558594</ele>
        <time>2013-02-27T13:12:05.000Z</time>
      </trkpt>
      <trkpt lat="44.42997" lon="4.50253">
        <ele>711.59997558594</ele>
        <time>2013-02-27T13:12:06.000Z</time>
      </trkpt>
      <trkpt lat="44.42998" lon="4.50253">
        <ele>711</ele>
        <time>2013-02-27T13:12:07.000Z</time>
      </trkpt>
      <trkpt lat="44.42999" lon="4.50252">
        <ele>710.59997558594</ele>
        <time>2013-02-27T13:12:08.000Z</time>
      </trkpt>
      <trkpt lat="44.43" lon="4.50252">
        <ele>710.59997558594</ele>
        <time>2013-02-27T13:12:09.000Z</time>
      </trkpt>
      <trkpt lat="44.43002" lon="4.50252">
        <ele>710.59997558594</ele>
        <time>2013-02-27T13:12:10.000Z</time>
      </trkpt>
      <trkpt lat="44.43003" lon="4.50253">
        <ele>710.59997558594</ele>
        <time>2013-02-27T13:12:11.000Z</time>
      </trkpt>
      <trkpt lat="44.43004" lon="4.50253">
        <ele>710.59997558594</ele>
        <time>2013-02-27T13:12:12.000Z</time>
      </trkpt>
      <trkpt lat="44.43005" lon="4.50253">
        <ele>710.59997558594</ele>
        <time>2013-02-27T13:12:13.000Z</time>
      </trkpt>
      <trkpt lat="44.43006" lon="4.50253">
        <ele>710</ele>
        <time>2013-02-27T13:12:14.000Z</time>
      </trkpt>
      <trkpt lat="44.43007" lon="4.50253">
        <ele>710</ele>
        <time>2013-02-27T13:12:15.000Z</time>
      </trkpt>
      <trkpt lat="44.43009" lon="4.50252">
        <ele>710</ele>
        <time>2013-02-27T13:12:16.000Z</time>
      </trkpt>
      <trkpt lat="44.4301" lon="4.50252">
        <ele>710</ele>
        <time>2013-02-27T13:12:17.000Z</time>
      </trkpt>
      <trkpt lat="44.43011" lon="4.50251">
        <ele>710.59997558594</ele>
        <time>2013-02-27T13:12:18.000Z</time>
      </trkpt>
      <trkpt lat="44.43012" lon="4.50251">
        <ele>710</ele>
        <time>2013-02-27T13:12:19.000Z</time>
      </trkpt>
      <trkpt lat="44.43013" lon="4.50251">
        <ele>710</ele>
        <time>2013-02-27T13:12:20.000Z</time>
      </trkpt>
      <trkpt lat="44.43015" lon="4.50251">
        <ele>710.59997558594</ele>
        <time>2013-02-27T13:12:21.000Z</time>
      </trkpt>
      <trkpt lat="44.43016" lon="4.5025">
        <ele>710.59997558594</ele>
        <time>2013-02-27T13:12:22.000Z</time>
      </trkpt>
      <trkpt lat="44.43017" lon="4.5025">
        <ele>710.59997558594</ele>
        <time>2013-02-27T13:12:23.000Z</time>
      </trkpt>
      <trkpt lat="44.43018" lon="4.50249">
        <ele>710.59997558594</ele>
        <time>2013-02-27T13:12:24.000Z</time>
      </trkpt>
      <trkpt lat="44.4302" lon="4.50249">
        <ele>710.59997558594</ele>
        <time>2013-02-27T13:12:25.000Z</time>
      </trkpt>
      <trkpt lat="44.43021" lon="4.50249">
        <ele>710</ele>
        <time>2013-02-27T13:12:26.000Z</time>
      </trkpt>
      <trkpt lat="44.43022" lon="4.50249">
        <ele>710</ele>
        <time>2013-02-27T13:12:27.000Z</time>
      </trkpt>
      <trkpt lat="44.43023" lon="4.50249">
        <ele>710</ele>
        <time>2013-02-27T13:12:28.000Z</time>
      </trkpt>
      <trkpt lat="44.43024" lon="4.50249">
        <ele>709.59997558594</ele>
        <time>2013-02-27T13:12:29.000Z</time>
      </trkpt>
      <trkpt lat="44.43026" lon="4.50249">
        <ele>709.59997558594</ele>
        <time>2013-02-27T13:12:30.000Z</time>
      </trkpt>
      <trkpt lat="44.43027" lon="4.50249">
        <ele>709.59997558594</ele>
        <time>2013-02-27T13:12:31.000Z</time>
      </trkpt>
      <trkpt lat="44.43028" lon="4.50249">
        <ele>709.20001220703</ele>
        <time>2013-02-27T13:12:32.000Z</time>
      </trkpt>
      <trkpt lat="44.43029" lon="4.50249">
        <ele>709.20001220703</ele>
        <time>2013-02-27T13:12:33.000Z</time>
      </trkpt>
      <trkpt lat="44.4303" lon="4.50249">
        <ele>708.59997558594</ele>
        <time>2013-02-27T13:12:34.000Z</time>
      </trkpt>
      <trkpt lat="44.43031" lon="4.50249">
        <ele>708.59997558594</ele>
        <time>2013-02-27T13:12:35.000Z</time>
      </trkpt>
      <trkpt lat="44.43032" lon="4.50249">
        <ele>708.59997558594</ele>
        <time>2013-02-27T13:12:36.000Z</time>
      </trkpt>
      <trkpt lat="44.43033" lon="4.50249">
        <ele>708.20001220703</ele>
        <time>2013-02-27T13:12:37.000Z</time>
      </trkpt>
      <trkpt lat="44.43035" lon="4.50248">
        <ele>708.59997558594</ele>
        <time>2013-02-27T13:12:38.000Z</time>
      </trkpt>
      <trkpt lat="44.43036" lon="4.50248">
        <ele>708.59997558594</ele>
        <time>2013-02-27T13:12:39.000Z</time>
      </trkpt>
      <trkpt lat="44.43037" lon="4.50248">
        <ele>708.59997558594</ele>
        <time>2013-02-27T13:12:40.000Z</time>
      </trkpt>
      <trkpt lat="44.43038" lon="4.50248">
        <ele>708.59997558594</ele>
        <time>2013-02-27T13:12:41.000Z</time>
      </trkpt>
      <trkpt lat="44.43039" lon="4.50248">
        <ele>709.20001220703</ele>
        <time>2013-02-27T13:12:42.000Z</time>
      </trkpt>
      <trkpt lat="44.4304" lon="4.50248">
        <ele>709.20001220703</ele>
        <time>2013-02-27T13:12:43.000Z</time>
      </trkpt>
      <trkpt lat="44.43042" lon="4.50248">
        <ele>708.59997558594</ele>
        <time>2013-02-27T13:12:44.000Z</time>
      </trkpt>
      <trkpt lat="44.43043" lon="4.50248">
        <ele>709.20001220703</ele>
        <time>2013-02-27T13:12:45.000Z</time>
      </trkpt>
      <trkpt lat="44.43044" lon="4.50248">
        <ele>709.20001220703</ele>
        <time>2013-02-27T13:12:46.000Z</time>
      </trkpt>
      <trkpt lat="44.43045" lon="4.50247">
        <ele>709.20001220703</ele>
        <time>2013-02-27T13:12:47.000Z</time>
      </trkpt>
      <trkpt lat="44.43046" lon="4.50247">
        <ele>709.20001220703</ele>
        <time>2013-02-27T13:12:48.000Z</time>
      </trkpt>
      <trkpt lat="44.43048" lon="4.50247">
        <ele>709.20001220703</ele>
        <time>2013-02-27T13:12:49.000Z</time>
      </trkpt>
      <trkpt lat="44.43049" lon="4.50247">
        <ele>708.59997558594</ele>
        <time>2013-02-27T13:12:50.000Z</time>
      </trkpt>
      <trkpt lat="44.4305" lon="4.50247">
        <ele>708.59997558594</ele>
        <time>2013-02-27T13:12:51.000Z</time>
      </trkpt>
      <trkpt lat="44.43051" lon="4.50247">
        <ele>708.59997558594</ele>
        <time>2013-02-27T13:12:52.000Z</time>
      </trkpt>
      <trkpt lat="44.43052" lon="4.50246">
        <ele>708.59997558594</ele>
        <time>2013-02-27T13:12:53.000Z</time>
      </trkpt>
      <trkpt lat="44.43054" lon="4.50246">
        <ele>708.20001220703</ele>
        <time>2013-02-27T13:12:54.000Z</time>
      </trkpt>
      <trkpt lat="44.43055" lon="4.50246">
        <ele>708.20001220703</ele>
        <time>2013-02-27T13:12:55.000Z</time>
      </trkpt>
      <trkpt lat="44.43056" lon="4.50246">
        <ele>708.20001220703</ele>
        <time>2013-02-27T13:12:56.000Z</time>
      </trkpt>
      <trkpt lat="44.43057" lon="4.50245">
        <ele>708.20001220703</ele>
        <time>2013-02-27T13:12:57.000Z</time>
      </trkpt>
      <trkpt lat="44.43058" lon="4.50245">
        <ele>707.59997558594</ele>
        <time>2013-02-27T13:12:58.000Z</time>
      </trkpt>
      <trkpt lat="44.43059" lon="4.50245">
        <ele>707.59997558594</ele>
        <time>2013-02-27T13:12:59.000Z</time>
      </trkpt>
      <trkpt lat="44.43061" lon="4.50245">
        <ele>707.59997558594</ele>
        <time>2013-02-27T13:13:00.000Z</time>
      </trkpt>
      <trkpt lat="44.43062" lon="4.50244">
        <ele>707.20001220703</ele>
        <time>2013-02-27T13:13:01.000Z</time>
      </trkpt>
      <trkpt lat="44.43063" lon="4.50244">
        <ele>707.20001220703</ele>
        <time>2013-02-27T13:13:02.000Z</time>
      </trkpt>
      <trkpt lat="44.43064" lon="4.50244">
        <ele>707.20001220703</ele>
        <time>2013-02-27T13:13:03.000Z</time>
      </trkpt>
      <trkpt lat="44.43065" lon="4.50244">
        <ele>707.20001220703</ele>
        <time>2013-02-27T13:13:04.000Z</time>
      </trkpt>
      <trkpt lat="44.43066" lon="4.50244">
        <ele>706.79998779297</ele>
        <time>2013-02-27T13:13:05.000Z</time>
      </trkpt>
      <trkpt lat="44.43067" lon="4.50244">
        <ele>706.79998779297</ele>
        <time>2013-02-27T13:13:06.000Z</time>
      </trkpt>
      <trkpt lat="44.43069" lon="4.50243">
        <ele>706.20001220703</ele>
        <time>2013-02-27T13:13:07.000Z</time>
      </trkpt>
      <trkpt lat="44.4307" lon="4.50243">
        <ele>706.20001220703</ele>
        <time>2013-02-27T13:13:08.000Z</time>
      </trkpt>
      <trkpt lat="44.43071" lon="4.50243">
        <ele>705.79998779297</ele>
        <time>2013-02-27T13:13:09.000Z</time>
      </trkpt>
      <trkpt lat="44.43072" lon="4.50243">
        <ele>705.79998779297</ele>
        <time>2013-02-27T13:13:10.000Z</time>
      </trkpt>
      <trkpt lat="44.43073" lon="4.50243">
        <ele>705.20001220703</ele>
        <time>2013-02-27T13:13:11.000Z</time>
      </trkpt>
      <trkpt lat="44.43074" lon="4.50242">
        <ele>705.20001220703</ele>
        <time>2013-02-27T13:13:12.000Z</time>
      </trkpt>
      <trkpt lat="44.43076" lon="4.50242">
        <ele>705.20001220703</ele>
        <time>2013-02-27T13:13:13.000Z</time>
      </trkpt>
      <trkpt lat="44.43077" lon="4.50242">
        <ele>704.79998779297</ele>
        <time>2013-02-27T13:13:14.000Z</time>
      </trkpt>
      <trkpt lat="44.43078" lon="4.50242">
        <ele>704.79998779297</ele>
        <time>2013-02-27T13:13:15.000Z</time>
      </trkpt>
      <trkpt lat="44.43079" lon="4.50241">
        <ele>704.79998779297</ele>
        <time>2013-02-27T13:13:16.000Z</time>
      </trkpt>
      <trkpt lat="44.4308" lon="4.50241">
        <ele>704.40002441406</ele>
        <time>2013-02-27T13:13:17.000Z</time>
      </trkpt>
      <trkpt lat="44.43081" lon="4.50241">
        <ele>704.40002441406</ele>
        <time>2013-02-27T13:13:18.000Z</time>
      </trkpt>
      <trkpt lat="44.43082" lon="4.50241">
        <ele>704.40002441406</ele>
        <time>2013-02-27T13:13:19.000Z</time>
      </trkpt>
      <trkpt lat="44.43083" lon="4.50241">
        <ele>704.40002441406</ele>
        <time>2013-02-27T13:13:20.000Z</time>
      </trkpt>
      <trkpt lat="44.43085" lon="4.50241">
        <ele>703.79998779297</ele>
        <time>2013-02-27T13:13:21.000Z</time>
      </trkpt>
      <trkpt lat="44.43086" lon="4.50241">
        <ele>703.79998779297</ele>
        <time>2013-02-27T13:13:22.000Z</time>
      </trkpt>
      <trkpt lat="44.43087" lon="4.50241">
        <ele>703.79998779297</ele>
        <time>2013-02-27T13:13:23.000Z</time>
      </trkpt>
      <trkpt lat="44.43088" lon="4.50241">
        <ele>703.79998779297</ele>
        <time>2013-02-27T13:13:24.000Z</time>
      </trkpt>
      <trkpt lat="44.43089" lon="4.50241">
        <ele>703.79998779297</ele>
        <time>2013-02-27T13:13:25.000Z</time>
      </trkpt>
      <trkpt lat="44.4309" lon="4.50241">
        <ele>703.79998779297</ele>
        <time>2013-02-27T13:13:26.000Z</time>
      </trkpt>
      <trkpt lat="44.43092" lon="4.50241">
        <ele>703.40002441406</ele>
        <time>2013-02-27T13:13:27.000Z</time>
      </trkpt>
      <trkpt lat="44.43093" lon="4.5024">
        <ele>703.40002441406</ele>
        <time>2013-02-27T13:13:28.000Z</time>
      </trkpt>
      <trkpt lat="44.43094" lon="4.5024">
        <ele>703.40002441406</ele>
        <time>2013-02-27T13:13:29.000Z</time>
      </trkpt>
      <trkpt lat="44.43095" lon="4.5024">
        <ele>702.79998779297</ele>
        <time>2013-02-27T13:13:30.000Z</time>
      </trkpt>
      <trkpt lat="44.43096" lon="4.5024">
        <ele>702.79998779297</ele>
        <time>2013-02-27T13:13:31.000Z</time>
      </trkpt>
      <trkpt lat="44.43097" lon="4.50239">
        <ele>702.79998779297</ele>
        <time>2013-02-27T13:13:32.000Z</time>
      </trkpt>
      <trkpt lat="44.43098" lon="4.50239">
        <ele>702.79998779297</ele>
        <time>2013-02-27T13:13:33.000Z</time>
      </trkpt>
      <trkpt lat="44.43099" lon="4.50239">
        <ele>702.40002441406</ele>
        <time>2013-02-27T13:13:34.000Z</time>
      </trkpt>
      <trkpt lat="44.431" lon="4.50239">
        <ele>702.40002441406</ele>
        <time>2013-02-27T13:13:35.000Z</time>
      </trkpt>
      <trkpt lat="44.43102" lon="4.50239">
        <ele>702.40002441406</ele>
        <time>2013-02-27T13:13:36.000Z</time>
      </trkpt>
      <trkpt lat="44.43103" lon="4.50239">
        <ele>702.40002441406</ele>
        <time>2013-02-27T13:13:37.000Z</time>
      </trkpt>
      <trkpt lat="44.43104" lon="4.50239">
        <ele>702.40002441406</ele>
        <time>2013-02-27T13:13:38.000Z</time>
      </trkpt>
      <trkpt lat="44.43105" lon="4.50238">
        <ele>701.79998779297</ele>
        <time>2013-02-27T13:13:39.000Z</time>
      </trkpt>
      <trkpt lat="44.43107" lon="4.50238">
        <ele>702.40002441406</ele>
        <time>2013-02-27T13:13:40.000Z</time>
      </trkpt>
      <trkpt lat="44.43108" lon="4.50238">
        <ele>702.79998779297</ele>
        <time>2013-02-27T13:13:41.000Z</time>
      </trkpt>
      <trkpt lat="44.4311" lon="4.50238">
        <ele>703.40002441406</ele>
        <time>2013-02-27T13:13:42.000Z</time>
      </trkpt>
      <trkpt lat="44.43111" lon="4.50238">
        <ele>703.79998779297</ele>
        <time>2013-02-27T13:13:43.000Z</time>
      </trkpt>
      <trkpt lat="44.43113" lon="4.50238">
        <ele>703.79998779297</ele>
        <time>2013-02-27T13:13:44.000Z</time>
      </trkpt>
      <trkpt lat="44.43114" lon="4.50238">
        <ele>704.40002441406</ele>
        <time>2013-02-27T13:13:45.000Z</time>
      </trkpt>
      <trkpt lat="44.43115" lon="4.50238">
        <ele>704.40002441406</ele>
        <time>2013-02-27T13:13:46.000Z</time>
      </trkpt>
      <trkpt lat="44.43116" lon="4.50238">
        <ele>704.40002441406</ele>
        <time>2013-02-27T13:13:47.000Z</time>
      </trkpt>
      <trkpt lat="44.43118" lon="4.50238">
        <ele>704.79998779297</ele>
        <time>2013-02-27T13:13:48.000Z</time>
      </trkpt>
      <trkpt lat="44.43119" lon="4.50237">
        <ele>704.79998779297</ele>
        <time>2013-02-27T13:13:49.000Z</time>
      </trkpt>
      <trkpt lat="44.43121" lon="4.50237">
        <ele>704.79998779297</ele>
        <time>2013-02-27T13:13:50.000Z</time>
      </trkpt>
      <trkpt lat="44.43122" lon="4.50238">
        <ele>704.79998779297</ele>
        <time>2013-02-27T13:13:51.000Z</time>
      </trkpt>
      <trkpt lat="44.43123" lon="4.50238">
        <ele>704.40002441406</ele>
        <time>2013-02-27T13:13:52.000Z</time>
      </trkpt>
      <trkpt lat="44.43124" lon="4.50238">
        <ele>704.40002441406</ele>
        <time>2013-02-27T13:13:53.000Z</time>
      </trkpt>
      <trkpt lat="44.43125" lon="4.50238">
        <ele>703.79998779297</ele>
        <time>2013-02-27T13:13:54.000Z</time>
      </trkpt>
      <trkpt lat="44.43126" lon="4.50238">
        <ele>703.79998779297</ele>
        <time>2013-02-27T13:13:55.000Z</time>
      </trkpt>
      <trkpt lat="44.43128" lon="4.50237">
        <ele>703.79998779297</ele>
        <time>2013-02-27T13:13:56.000Z</time>
      </trkpt>
      <trkpt lat="44.43129" lon="4.50237">
        <ele>703.79998779297</ele>
        <time>2013-02-27T13:13:57.000Z</time>
      </trkpt>
      <trkpt lat="44.4313" lon="4.50237">
        <ele>703.79998779297</ele>
        <time>2013-02-27T13:13:58.000Z</time>
      </trkpt>
      <trkpt lat="44.43131" lon="4.50237">
        <ele>703.79998779297</ele>
        <time>2013-02-27T13:13:59.000Z</time>
      </trkpt>
      <trkpt lat="44.43132" lon="4.50237">
        <ele>704.40002441406</ele>
        <time>2013-02-27T13:14:00.000Z</time>
      </trkpt>
      <trkpt lat="44.43133" lon="4.50237">
        <ele>704.40002441406</ele>
        <time>2013-02-27T13:14:01.000Z</time>
      </trkpt>
      <trkpt lat="44.43134" lon="4.50237">
        <ele>704.40002441406</ele>
        <time>2013-02-27T13:14:02.000Z</time>
      </trkpt>
      <trkpt lat="44.43136" lon="4.50236">
        <ele>704.40002441406</ele>
        <time>2013-02-27T13:14:03.000Z</time>
      </trkpt>
      <trkpt lat="44.43137" lon="4.50236">
        <ele>704.40002441406</ele>
        <time>2013-02-27T13:14:04.000Z</time>
      </trkpt>
      <trkpt lat="44.43138" lon="4.50236">
        <ele>704.40002441406</ele>
        <time>2013-02-27T13:14:05.000Z</time>
      </trkpt>
      <trkpt lat="44.43139" lon="4.50237">
        <ele>704.40002441406</ele>
        <time>2013-02-27T13:14:06.000Z</time>
      </trkpt>
      <trkpt lat="44.43139" lon="4.50238">
        <ele>703.79998779297</ele>
        <time>2013-02-27T13:14:07.000Z</time>
      </trkpt>
      <trkpt lat="44.4314" lon="4.5024">
        <ele>703.79998779297</ele>
        <time>2013-02-27T13:14:08.000Z</time>
      </trkpt>
      <trkpt lat="44.43141" lon="4.50241">
        <ele>703.79998779297</ele>
        <time>2013-02-27T13:14:09.000Z</time>
      </trkpt>
      <trkpt lat="44.43142" lon="4.50242">
        <ele>703.40002441406</ele>
        <time>2013-02-27T13:14:10.000Z</time>
      </trkpt>
      <trkpt lat="44.43143" lon="4.50243">
        <ele>703.40002441406</ele>
        <time>2013-02-27T13:14:11.000Z</time>
      </trkpt>
      <trkpt lat="44.43143" lon="4.50244">
        <ele>703.40002441406</ele>
        <time>2013-02-27T13:14:12.000Z</time>
      </trkpt>
      <trkpt lat="44.43144" lon="4.50246">
        <ele>702.79998779297</ele>
        <time>2013-02-27T13:14:13.000Z</time>
      </trkpt>
      <trkpt lat="44.43144" lon="4.50247">
        <ele>702.79998779297</ele>
        <time>2013-02-27T13:14:14.000Z</time>
      </trkpt>
      <trkpt lat="44.43144" lon="4.50248">
        <ele>702.79998779297</ele>
        <time>2013-02-27T13:14:15.000Z</time>
      </trkpt>
      <trkpt lat="44.43145" lon="4.50249">
        <ele>702.40002441406</ele>
        <time>2013-02-27T13:14:16.000Z</time>
      </trkpt>
      <trkpt lat="44.43145" lon="4.5025">
        <ele>702.40002441406</ele>
        <time>2013-02-27T13:14:17.000Z</time>
      </trkpt>
      <trkpt lat="44.43146" lon="4.50252">
        <ele>702.40002441406</ele>
        <time>2013-02-27T13:14:18.000Z</time>
      </trkpt>
      <trkpt lat="44.43146" lon="4.50253">
        <ele>702.40002441406</ele>
        <time>2013-02-27T13:14:19.000Z</time>
      </trkpt>
      <trkpt lat="44.43146" lon="4.50255">
        <ele>702.40002441406</ele>
        <time>2013-02-27T13:14:20.000Z</time>
      </trkpt>
      <trkpt lat="44.43147" lon="4.50256">
        <ele>701.79998779297</ele>
        <time>2013-02-27T13:14:21.000Z</time>
      </trkpt>
      <trkpt lat="44.43147" lon="4.50258">
        <ele>701.79998779297</ele>
        <time>2013-02-27T13:14:22.000Z</time>
      </trkpt>
      <trkpt lat="44.43147" lon="4.50259">
        <ele>701.79998779297</ele>
        <time>2013-02-27T13:14:23.000Z</time>
      </trkpt>
      <trkpt lat="44.43147" lon="4.50261">
        <ele>701.40002441406</ele>
        <time>2013-02-27T13:14:24.000Z</time>
      </trkpt>
      <trkpt lat="44.43148" lon="4.50263">
        <ele>701.40002441406</ele>
        <time>2013-02-27T13:14:25.000Z</time>
      </trkpt>
      <trkpt lat="44.43148" lon="4.50264">
        <ele>701</ele>
        <time>2013-02-27T13:14:26.000Z</time>
      </trkpt>
      <trkpt lat="44.43148" lon="4.50266">
        <ele>701</ele>
        <time>2013-02-27T13:14:27.000Z</time>
      </trkpt>
      <trkpt lat="44.43149" lon="4.50268">
        <ele>701</ele>
        <time>2013-02-27T13:14:28.000Z</time>
      </trkpt>
      <trkpt lat="44.43149" lon="4.50269">
        <ele>701</ele>
        <time>2013-02-27T13:14:29.000Z</time>
      </trkpt>
      <trkpt lat="44.43149" lon="4.50271">
        <ele>701</ele>
        <time>2013-02-27T13:14:30.000Z</time>
      </trkpt>
      <trkpt lat="44.4315" lon="4.50272">
        <ele>700.40002441406</ele>
        <time>2013-02-27T13:14:31.000Z</time>
      </trkpt>
      <trkpt lat="44.4315" lon="4.50274">
        <ele>700.40002441406</ele>
        <time>2013-02-27T13:14:32.000Z</time>
      </trkpt>
      <trkpt lat="44.4315" lon="4.50276">
        <ele>700.40002441406</ele>
        <time>2013-02-27T13:14:33.000Z</time>
      </trkpt>
      <trkpt lat="44.43151" lon="4.50277">
        <ele>700.40002441406</ele>
        <time>2013-02-27T13:14:34.000Z</time>
      </trkpt>
      <trkpt lat="44.43151" lon="4.50279">
        <ele>700.40002441406</ele>
        <time>2013-02-27T13:14:35.000Z</time>
      </trkpt>
      <trkpt lat="44.43152" lon="4.5028">
        <ele>700</ele>
        <time>2013-02-27T13:14:36.000Z</time>
      </trkpt>
      <trkpt lat="44.43152" lon="4.50282">
        <ele>700</ele>
        <time>2013-02-27T13:14:37.000Z</time>
      </trkpt>
      <trkpt lat="44.43153" lon="4.50283">
        <ele>700</ele>
        <time>2013-02-27T13:14:38.000Z</time>
      </trkpt>
      <trkpt lat="44.43153" lon="4.50285">
        <ele>700</ele>
        <time>2013-02-27T13:14:39.000Z</time>
      </trkpt>
      <trkpt lat="44.43154" lon="4.50286">
        <ele>700</ele>
        <time>2013-02-27T13:14:40.000Z</time>
      </trkpt>
      <trkpt lat="44.43155" lon="4.50287">
        <ele>700</ele>
        <time>2013-02-27T13:14:41.000Z</time>
      </trkpt>
      <trkpt lat="44.43156" lon="4.50289">
        <ele>700</ele>
        <time>2013-02-27T13:14:42.000Z</time>
      </trkpt>
      <trkpt lat="44.43156" lon="4.50291">
        <ele>700</ele>
        <time>2013-02-27T13:14:43.000Z</time>
      </trkpt>
      <trkpt lat="44.43157" lon="4.50292">
        <ele>700</ele>
        <time>2013-02-27T13:14:44.000Z</time>
      </trkpt>
      <trkpt lat="44.43157" lon="4.50294">
        <ele>699.40002441406</ele>
        <time>2013-02-27T13:14:45.000Z</time>
      </trkpt>
      <trkpt lat="44.43158" lon="4.50295">
        <ele>699.40002441406</ele>
        <time>2013-02-27T13:14:46.000Z</time>
      </trkpt>
      <trkpt lat="44.43159" lon="4.50296">
        <ele>699.40002441406</ele>
        <time>2013-02-27T13:14:47.000Z</time>
      </trkpt>
      <trkpt lat="44.43159" lon="4.50297">
        <ele>699.40002441406</ele>
        <time>2013-02-27T13:14:48.000Z</time>
      </trkpt>
      <trkpt lat="44.4316" lon="4.50299">
        <ele>699</ele>
        <time>2013-02-27T13:14:49.000Z</time>
      </trkpt>
      <trkpt lat="44.43161" lon="4.503">
        <ele>699</ele>
        <time>2013-02-27T13:14:50.000Z</time>
      </trkpt>
      <trkpt lat="44.43161" lon="4.50302">
        <ele>699</ele>
        <time>2013-02-27T13:14:51.000Z</time>
      </trkpt>
      <trkpt lat="44.43162" lon="4.50304">
        <ele>699.40002441406</ele>
        <time>2013-02-27T13:14:52.000Z</time>
      </trkpt>
      <trkpt lat="44.43162" lon="4.50305">
        <ele>699.40002441406</ele>
        <time>2013-02-27T13:14:53.000Z</time>
      </trkpt>
      <trkpt lat="44.43163" lon="4.50307">
        <ele>699.40002441406</ele>
        <time>2013-02-27T13:14:54.000Z</time>
      </trkpt>
      <trkpt lat="44.43163" lon="4.50308">
        <ele>699.40002441406</ele>
        <time>2013-02-27T13:14:55.000Z</time>
      </trkpt>
      <trkpt lat="44.43163" lon="4.5031">
        <ele>699.40002441406</ele>
        <time>2013-02-27T13:14:56.000Z</time>
      </trkpt>
      <trkpt lat="44.43164" lon="4.50312">
        <ele>699</ele>
        <time>2013-02-27T13:14:57.000Z</time>
      </trkpt>
      <trkpt lat="44.43164" lon="4.50313">
        <ele>699</ele>
        <time>2013-02-27T13:14:58.000Z</time>
      </trkpt>
      <trkpt lat="44.43164" lon="4.50315">
        <ele>699</ele>
        <time>2013-02-27T13:14:59.000Z</time>
      </trkpt>
      <trkpt lat="44.43165" lon="4.50317">
        <ele>699</ele>
        <time>2013-02-27T13:15:00.000Z</time>
      </trkpt>
      <trkpt lat="44.43165" lon="4.50318">
        <ele>699</ele>
        <time>2013-02-27T13:15:01.000Z</time>
      </trkpt>
      <trkpt lat="44.43165" lon="4.5032">
        <ele>698.59997558594</ele>
        <time>2013-02-27T13:15:02.000Z</time>
      </trkpt>
      <trkpt lat="44.43166" lon="4.50322">
        <ele>698.59997558594</ele>
        <time>2013-02-27T13:15:03.000Z</time>
      </trkpt>
      <trkpt lat="44.43166" lon="4.50323">
        <ele>698.59997558594</ele>
        <time>2013-02-27T13:15:04.000Z</time>
      </trkpt>
      <trkpt lat="44.43166" lon="4.50325">
        <ele>698.59997558594</ele>
        <time>2013-02-27T13:15:05.000Z</time>
      </trkpt>
      <trkpt lat="44.43167" lon="4.50326">
        <ele>698.59997558594</ele>
        <time>2013-02-27T13:15:06.000Z</time>
      </trkpt>
      <trkpt lat="44.43167" lon="4.50328">
        <ele>698.59997558594</ele>
        <time>2013-02-27T13:15:07.000Z</time>
      </trkpt>
      <trkpt lat="44.43167" lon="4.5033">
        <ele>698.59997558594</ele>
        <time>2013-02-27T13:15:08.000Z</time>
      </trkpt>
      <trkpt lat="44.43167" lon="4.50331">
        <ele>698.59997558594</ele>
        <time>2013-02-27T13:15:09.000Z</time>
      </trkpt>
      <trkpt lat="44.43168" lon="4.50333">
        <ele>698.59997558594</ele>
        <time>2013-02-27T13:15:10.000Z</time>
      </trkpt>
      <trkpt lat="44.43168" lon="4.50334">
        <ele>698.59997558594</ele>
        <time>2013-02-27T13:15:11.000Z</time>
      </trkpt>
      <trkpt lat="44.43169" lon="4.50336">
        <ele>698.59997558594</ele>
        <time>2013-02-27T13:15:12.000Z</time>
      </trkpt>
      <trkpt lat="44.4317" lon="4.50337">
        <ele>698.59997558594</ele>
        <time>2013-02-27T13:15:13.000Z</time>
      </trkpt>
      <trkpt lat="44.43171" lon="4.50338">
        <ele>698.59997558594</ele>
        <time>2013-02-27T13:15:14.000Z</time>
      </trkpt>
      <trkpt lat="44.43171" lon="4.50339">
        <ele>698.59997558594</ele>
        <time>2013-02-27T13:15:15.000Z</time>
      </trkpt>
      <trkpt lat="44.43172" lon="4.50341">
        <ele>698</ele>
        <time>2013-02-27T13:15:16.000Z</time>
      </trkpt>
      <trkpt lat="44.43173" lon="4.50342">
        <ele>698</ele>
        <time>2013-02-27T13:15:17.000Z</time>
      </trkpt>
      <trkpt lat="44.43174" lon="4.50343">
        <ele>698</ele>
        <time>2013-02-27T13:15:18.000Z</time>
      </trkpt>
      <trkpt lat="44.43175" lon="4.50344">
        <ele>697.59997558594</ele>
        <time>2013-02-27T13:15:19.000Z</time>
      </trkpt>
      <trkpt lat="44.43176" lon="4.50345">
        <ele>697.59997558594</ele>
        <time>2013-02-27T13:15:20.000Z</time>
      </trkpt>
      <trkpt lat="44.43177" lon="4.50347">
        <ele>697.59997558594</ele>
        <time>2013-02-27T13:15:21.000Z</time>
      </trkpt>
      <trkpt lat="44.43177" lon="4.50348">
        <ele>697</ele>
        <time>2013-02-27T13:15:22.000Z</time>
      </trkpt>
      <trkpt lat="44.43178" lon="4.50349">
        <ele>697</ele>
        <time>2013-02-27T13:15:23.000Z</time>
      </trkpt>
      <trkpt lat="44.43179" lon="4.50351">
        <ele>696.59997558594</ele>
        <time>2013-02-27T13:15:24.000Z</time>
      </trkpt>
      <trkpt lat="44.4318" lon="4.50352">
        <ele>696.20001220703</ele>
        <time>2013-02-27T13:15:25.000Z</time>
      </trkpt>
      <trkpt lat="44.4318" lon="4.50353">
        <ele>696.20001220703</ele>
        <time>2013-02-27T13:15:26.000Z</time>
      </trkpt>
      <trkpt lat="44.43181" lon="4.50355">
        <ele>695.59997558594</ele>
        <time>2013-02-27T13:15:27.000Z</time>
      </trkpt>
      <trkpt lat="44.43182" lon="4.50356">
        <ele>695.59997558594</ele>
        <time>2013-02-27T13:15:28.000Z</time>
      </trkpt>
      <trkpt lat="44.43183" lon="4.50357">
        <ele>695.59997558594</ele>
        <time>2013-02-27T13:15:29.000Z</time>
      </trkpt>
      <trkpt lat="44.43184" lon="4.50358">
        <ele>695.20001220703</ele>
        <time>2013-02-27T13:15:30.000Z</time>
      </trkpt>
      <trkpt lat="44.43185" lon="4.50359">
        <ele>695.20001220703</ele>
        <time>2013-02-27T13:15:31.000Z</time>
      </trkpt>
      <trkpt lat="44.43186" lon="4.5036">
        <ele>695.20001220703</ele>
        <time>2013-02-27T13:15:32.000Z</time>
      </trkpt>
      <trkpt lat="44.43187" lon="4.50361">
        <ele>695.20001220703</ele>
        <time>2013-02-27T13:15:33.000Z</time>
      </trkpt>
      <trkpt lat="44.43187" lon="4.50362">
        <ele>694.59997558594</ele>
        <time>2013-02-27T13:15:34.000Z</time>
      </trkpt>
      <trkpt lat="44.43188" lon="4.50364">
        <ele>694.59997558594</ele>
        <time>2013-02-27T13:15:35.000Z</time>
      </trkpt>
      <trkpt lat="44.43189" lon="4.50365">
        <ele>694.59997558594</ele>
        <time>2013-02-27T13:15:36.000Z</time>
      </trkpt>
      <trkpt lat="44.4319" lon="4.50366">
        <ele>694.59997558594</ele>
        <time>2013-02-27T13:15:37.000Z</time>
      </trkpt>
      <trkpt lat="44.43191" lon="4.50367">
        <ele>694.59997558594</ele>
        <time>2013-02-27T13:15:38.000Z</time>
      </trkpt>
      <trkpt lat="44.43191" lon="4.50369">
        <ele>694.59997558594</ele>
        <time>2013-02-27T13:15:39.000Z</time>
      </trkpt>
      <trkpt lat="44.43192" lon="4.5037">
        <ele>694.59997558594</ele>
        <time>2013-02-27T13:15:40.000Z</time>
      </trkpt>
      <trkpt lat="44.43193" lon="4.50371">
        <ele>694.59997558594</ele>
        <time>2013-02-27T13:15:41.000Z</time>
      </trkpt>
      <trkpt lat="44.43194" lon="4.50372">
        <ele>694.59997558594</ele>
        <time>2013-02-27T13:15:42.000Z</time>
      </trkpt>
      <trkpt lat="44.43195" lon="4.50374">
        <ele>694.59997558594</ele>
        <time>2013-02-27T13:15:43.000Z</time>
      </trkpt>
      <trkpt lat="44.43196" lon="4.50375">
        <ele>694.59997558594</ele>
        <time>2013-02-27T13:15:44.000Z</time>
      </trkpt>
      <trkpt lat="44.43196" lon="4.50376">
        <ele>694.20001220703</ele>
        <time>2013-02-27T13:15:45.000Z</time>
      </trkpt>
      <trkpt lat="44.43197" lon="4.50377">
        <ele>693.79998779297</ele>
        <time>2013-02-27T13:15:46.000Z</time>
      </trkpt>
      <trkpt lat="44.43198" lon="4.50378">
        <ele>693.79998779297</ele>
        <time>2013-02-27T13:15:47.000Z</time>
      </trkpt>
      <trkpt lat="44.43199" lon="4.50379">
        <ele>693.79998779297</ele>
        <time>2013-02-27T13:15:48.000Z</time>
      </trkpt>
      <trkpt lat="44.432" lon="4.5038">
        <ele>693.20001220703</ele>
        <time>2013-02-27T13:15:49.000Z</time>
      </trkpt>
      <trkpt lat="44.43201" lon="4.50381">
        <ele>693.20001220703</ele>
        <time>2013-02-27T13:15:50.000Z</time>
      </trkpt>
      <trkpt lat="44.43202" lon="4.50382">
        <ele>692.79998779297</ele>
        <time>2013-02-27T13:15:51.000Z</time>
      </trkpt>
      <trkpt lat="44.43202" lon="4.50383">
        <ele>692.79998779297</ele>
        <time>2013-02-27T13:15:52.000Z</time>
      </trkpt>
      <trkpt lat="44.43203" lon="4.50384">
        <ele>692.20001220703</ele>
        <time>2013-02-27T13:15:53.000Z</time>
      </trkpt>
      <trkpt lat="44.43204" lon="4.50385">
        <ele>692.20001220703</ele>
        <time>2013-02-27T13:15:54.000Z</time>
      </trkpt>
      <trkpt lat="44.43205" lon="4.50386">
        <ele>691.79998779297</ele>
        <time>2013-02-27T13:15:55.000Z</time>
      </trkpt>
      <trkpt lat="44.43206" lon="4.50387">
        <ele>691.79998779297</ele>
        <time>2013-02-27T13:15:56.000Z</time>
      </trkpt>
      <trkpt lat="44.43206" lon="4.50389">
        <ele>691.79998779297</ele>
        <time>2013-02-27T13:15:57.000Z</time>
      </trkpt>
      <trkpt lat="44.43207" lon="4.5039">
        <ele>691.79998779297</ele>
        <time>2013-02-27T13:15:58.000Z</time>
      </trkpt>
      <trkpt lat="44.43208" lon="4.50392">
        <ele>691.40002441406</ele>
        <time>2013-02-27T13:15:59.000Z</time>
      </trkpt>
      <trkpt lat="44.43208" lon="4.50393">
        <ele>691.40002441406</ele>
        <time>2013-02-27T13:16:00.000Z</time>
      </trkpt>
      <trkpt lat="44.43209" lon="4.50395">
        <ele>691.40002441406</ele>
        <time>2013-02-27T13:16:01.000Z</time>
      </trkpt>
      <trkpt lat="44.4321" lon="4.50396">
        <ele>690.79998779297</ele>
        <time>2013-02-27T13:16:02.000Z</time>
      </trkpt>
      <trkpt lat="44.4321" lon="4.50397">
        <ele>690.79998779297</ele>
        <time>2013-02-27T13:16:03.000Z</time>
      </trkpt>
      <trkpt lat="44.43211" lon="4.50399">
        <ele>690.79998779297</ele>
        <time>2013-02-27T13:16:04.000Z</time>
      </trkpt>
      <trkpt lat="44.43212" lon="4.504">
        <ele>690.40002441406</ele>
        <time>2013-02-27T13:16:05.000Z</time>
      </trkpt>
      <trkpt lat="44.43213" lon="4.50402">
        <ele>690.40002441406</ele>
        <time>2013-02-27T13:16:06.000Z</time>
      </trkpt>
      <trkpt lat="44.43214" lon="4.50403">
        <ele>690.40002441406</ele>
        <time>2013-02-27T13:16:07.000Z</time>
      </trkpt>
      <trkpt lat="44.43214" lon="4.50404">
        <ele>690.79998779297</ele>
        <time>2013-02-27T13:16:08.000Z</time>
      </trkpt>
      <trkpt lat="44.43215" lon="4.50406">
        <ele>690.79998779297</ele>
        <time>2013-02-27T13:16:09.000Z</time>
      </trkpt>
      <trkpt lat="44.43216" lon="4.50407">
        <ele>690.79998779297</ele>
        <time>2013-02-27T13:16:10.000Z</time>
      </trkpt>
      <trkpt lat="44.43217" lon="4.50408">
        <ele>690.79998779297</ele>
        <time>2013-02-27T13:16:11.000Z</time>
      </trkpt>
      <trkpt lat="44.43217" lon="4.5041">
        <ele>690.79998779297</ele>
        <time>2013-02-27T13:16:12.000Z</time>
      </trkpt>
      <trkpt lat="44.43218" lon="4.50411">
        <ele>690.79998779297</ele>
        <time>2013-02-27T13:16:13.000Z</time>
      </trkpt>
      <trkpt lat="44.43218" lon="4.50413">
        <ele>690.79998779297</ele>
        <time>2013-02-27T13:16:14.000Z</time>
      </trkpt>
      <trkpt lat="44.43219" lon="4.50415">
        <ele>690.79998779297</ele>
        <time>2013-02-27T13:16:15.000Z</time>
      </trkpt>
      <trkpt lat="44.43219" lon="4.50416">
        <ele>690.79998779297</ele>
        <time>2013-02-27T13:16:16.000Z</time>
      </trkpt>
      <trkpt lat="44.4322" lon="4.50417">
        <ele>690.79998779297</ele>
        <time>2013-02-27T13:16:17.000Z</time>
      </trkpt>
      <trkpt lat="44.43221" lon="4.50419">
        <ele>691.40002441406</ele>
        <time>2013-02-27T13:16:18.000Z</time>
      </trkpt>
      <trkpt lat="44.43222" lon="4.5042">
        <ele>691.40002441406</ele>
        <time>2013-02-27T13:16:19.000Z</time>
      </trkpt>
      <trkpt lat="44.43223" lon="4.50422">
        <ele>690.79998779297</ele>
        <time>2013-02-27T13:16:20.000Z</time>
      </trkpt>
      <trkpt lat="44.43224" lon="4.50423">
        <ele>690.79998779297</ele>
        <time>2013-02-27T13:16:21.000Z</time>
      </trkpt>
      <trkpt lat="44.43224" lon="4.50424">
        <ele>690.79998779297</ele>
        <time>2013-02-27T13:16:22.000Z</time>
      </trkpt>
      <trkpt lat="44.43225" lon="4.50426">
        <ele>690.40002441406</ele>
        <time>2013-02-27T13:16:23.000Z</time>
      </trkpt>
      <trkpt lat="44.43225" lon="4.50428">
        <ele>690.40002441406</ele>
        <time>2013-02-27T13:16:24.000Z</time>
      </trkpt>
      <trkpt lat="44.43225" lon="4.50429">
        <ele>690.40002441406</ele>
        <time>2013-02-27T13:16:25.000Z</time>
      </trkpt>
      <trkpt lat="44.43226" lon="4.50431">
        <ele>689.79998779297</ele>
        <time>2013-02-27T13:16:26.000Z</time>
      </trkpt>
      <trkpt lat="44.43226" lon="4.50432">
        <ele>689.79998779297</ele>
        <time>2013-02-27T13:16:27.000Z</time>
      </trkpt>
      <trkpt lat="44.43227" lon="4.50434">
        <ele>689.79998779297</ele>
        <time>2013-02-27T13:16:28.000Z</time>
      </trkpt>
      <trkpt lat="44.43227" lon="4.50435">
        <ele>689.79998779297</ele>
        <time>2013-02-27T13:16:29.000Z</time>
      </trkpt>
      <trkpt lat="44.43228" lon="4.50437">
        <ele>689.40002441406</ele>
        <time>2013-02-27T13:16:30.000Z</time>
      </trkpt>
      <trkpt lat="44.43228" lon="4.50438">
        <ele>689.40002441406</ele>
        <time>2013-02-27T13:16:31.000Z</time>
      </trkpt>
      <trkpt lat="44.43228" lon="4.5044">
        <ele>689.40002441406</ele>
        <time>2013-02-27T13:16:32.000Z</time>
      </trkpt>
      <trkpt lat="44.43229" lon="4.50441">
        <ele>689.40002441406</ele>
        <time>2013-02-27T13:16:33.000Z</time>
      </trkpt>
      <trkpt lat="44.43229" lon="4.50443">
        <ele>689.40002441406</ele>
        <time>2013-02-27T13:16:34.000Z</time>
      </trkpt>
      <trkpt lat="44.43229" lon="4.50444">
        <ele>689</ele>
        <time>2013-02-27T13:16:35.000Z</time>
      </trkpt>
      <trkpt lat="44.43229" lon="4.50446">
        <ele>689</ele>
        <time>2013-02-27T13:16:36.000Z</time>
      </trkpt>
      <trkpt lat="44.4323" lon="4.50447">
        <ele>689</ele>
        <time>2013-02-27T13:16:37.000Z</time>
      </trkpt>
      <trkpt lat="44.4323" lon="4.50448">
        <ele>688.40002441406</ele>
        <time>2013-02-27T13:16:38.000Z</time>
      </trkpt>
      <trkpt lat="44.43231" lon="4.5045">
        <ele>688.40002441406</ele>
        <time>2013-02-27T13:16:39.000Z</time>
      </trkpt>
      <trkpt lat="44.43231" lon="4.50451">
        <ele>688.40002441406</ele>
        <time>2013-02-27T13:16:40.000Z</time>
      </trkpt>
      <trkpt lat="44.43231" lon="4.50453">
        <ele>688.40002441406</ele>
        <time>2013-02-27T13:16:41.000Z</time>
      </trkpt>
      <trkpt lat="44.43231" lon="4.50454">
        <ele>688.40002441406</ele>
        <time>2013-02-27T13:16:42.000Z</time>
      </trkpt>
      <trkpt lat="44.43231" lon="4.50456">
        <ele>688</ele>
        <time>2013-02-27T13:16:43.000Z</time>
      </trkpt>
      <trkpt lat="44.43232" lon="4.50457">
        <ele>688</ele>
        <time>2013-02-27T13:16:44.000Z</time>
      </trkpt>
      <trkpt lat="44.43232" lon="4.50458">
        <ele>688</ele>
        <time>2013-02-27T13:16:45.000Z</time>
      </trkpt>
      <trkpt lat="44.43232" lon="4.5046">
        <ele>687.40002441406</ele>
        <time>2013-02-27T13:16:46.000Z</time>
      </trkpt>
      <trkpt lat="44.43232" lon="4.50461">
        <ele>687.40002441406</ele>
        <time>2013-02-27T13:16:47.000Z</time>
      </trkpt>
      <trkpt lat="44.43233" lon="4.50463">
        <ele>687.40002441406</ele>
        <time>2013-02-27T13:16:48.000Z</time>
      </trkpt>
      <trkpt lat="44.43233" lon="4.50464">
        <ele>687</ele>
        <time>2013-02-27T13:16:49.000Z</time>
      </trkpt>
      <trkpt lat="44.43234" lon="4.50464">
        <ele>687.40002441406</ele>
        <time>2013-02-27T13:16:50.000Z</time>
      </trkpt>
      <trkpt lat="44.43234" lon="4.50465">
        <ele>687.40002441406</ele>
        <time>2013-02-27T13:16:51.000Z</time>
      </trkpt>
      <trkpt lat="44.43234" lon="4.50465">
        <ele>687.40002441406</ele>
        <time>2013-02-27T13:16:52.000Z</time>
      </trkpt>
      <trkpt lat="44.43234" lon="4.50465">
        <ele>687.40002441406</ele>
        <time>2013-02-27T13:16:53.000Z</time>
      </trkpt>
      <trkpt lat="44.43234" lon="4.50465">
        <ele>687.40002441406</ele>
        <time>2013-02-27T13:16:54.000Z</time>
      </trkpt>
      <trkpt lat="44.43234" lon="4.50465">
        <ele>688</ele>
        <time>2013-02-27T13:16:55.000Z</time>
      </trkpt>
      <trkpt lat="44.43234" lon="4.50465">
        <ele>688</ele>
        <time>2013-02-27T13:16:56.000Z</time>
      </trkpt>
      <trkpt lat="44.43234" lon="4.50465">
        <ele>688</ele>
        <time>2013-02-27T13:16:57.000Z</time>
      </trkpt>
      <trkpt lat="44.43235" lon="4.50465">
        <ele>688</ele>
        <time>2013-02-27T13:16:58.000Z</time>
      </trkpt>
      <trkpt lat="44.43235" lon="4.50465">
        <ele>688</ele>
        <time>2013-02-27T13:16:59.000Z</time>
      </trkpt>
      <trkpt lat="44.43235" lon="4.50465">
        <ele>688</ele>
        <time>2013-02-27T13:17:00.000Z</time>
      </trkpt>
      <trkpt lat="44.43235" lon="4.50465">
        <ele>688</ele>
        <time>2013-02-27T13:17:01.000Z</time>
      </trkpt>
      <trkpt lat="44.43235" lon="4.50465">
        <ele>688</ele>
        <time>2013-02-27T13:17:02.000Z</time>
      </trkpt>
      <trkpt lat="44.43235" lon="4.50465">
        <ele>688</ele>
        <time>2013-02-27T13:17:03.000Z</time>
      </trkpt>
      <trkpt lat="44.43235" lon="4.50465">
        <ele>687.40002441406</ele>
        <time>2013-02-27T13:17:04.000Z</time>
      </trkpt>
      <trkpt lat="44.43235" lon="4.50465">
        <ele>687.40002441406</ele>
        <time>2013-02-27T13:17:05.000Z</time>
      </trkpt>
      <trkpt lat="44.43235" lon="4.50465">
        <ele>687.40002441406</ele>
        <time>2013-02-27T13:17:06.000Z</time>
      </trkpt>
      <trkpt lat="44.43235" lon="4.50465">
        <ele>687</ele>
        <time>2013-02-27T13:17:07.000Z</time>
      </trkpt>
      <trkpt lat="44.43235" lon="4.50465">
        <ele>687</ele>
        <time>2013-02-27T13:17:08.000Z</time>
      </trkpt>
      <trkpt lat="44.43235" lon="4.50465">
        <ele>687</ele>
        <time>2013-02-27T13:17:09.000Z</time>
      </trkpt>
      <trkpt lat="44.43235" lon="4.50465">
        <ele>686.59997558594</ele>
        <time>2013-02-27T13:17:10.000Z</time>
      </trkpt>
      <trkpt lat="44.43235" lon="4.50465">
        <ele>686.59997558594</ele>
        <time>2013-02-27T13:17:11.000Z</time>
      </trkpt>
      <trkpt lat="44.43235" lon="4.50465">
        <ele>686.59997558594</ele>
        <time>2013-02-27T13:17:12.000Z</time>
      </trkpt>
      <trkpt lat="44.43235" lon="4.50465">
        <ele>686.59997558594</ele>
        <time>2013-02-27T13:17:13.000Z</time>
      </trkpt>
      <trkpt lat="44.43235" lon="4.50465">
        <ele>686.59997558594</ele>
        <time>2013-02-27T13:17:14.000Z</time>
      </trkpt>
      <trkpt lat="44.43235" lon="4.50464">
        <ele>686.59997558594</ele>
        <time>2013-02-27T13:17:15.000Z</time>
      </trkpt>
      <trkpt lat="44.43235" lon="4.50464">
        <ele>686.59997558594</ele>
        <time>2013-02-27T13:17:16.000Z</time>
      </trkpt>
      <trkpt lat="44.43235" lon="4.50464">
        <ele>686.59997558594</ele>
        <time>2013-02-27T13:17:17.000Z</time>
      </trkpt>
      <trkpt lat="44.43235" lon="4.50464">
        <ele>686.59997558594</ele>
        <time>2013-02-27T13:17:18.000Z</time>
      </trkpt>
      <trkpt lat="44.43236" lon="4.50464">
        <ele>686</ele>
        <time>2013-02-27T13:17:19.000Z</time>
      </trkpt>
      <trkpt lat="44.43236" lon="4.50464">
        <ele>686</ele>
        <time>2013-02-27T13:17:20.000Z</time>
      </trkpt>
      <trkpt lat="44.43236" lon="4.50464">
        <ele>686</ele>
        <time>2013-02-27T13:17:21.000Z</time>
      </trkpt>
      <trkpt lat="44.43237" lon="4.50465">
        <ele>686</ele>
        <time>2013-02-27T13:17:22.000Z</time>
      </trkpt>
      <trkpt lat="44.43237" lon="4.50465">
        <ele>686</ele>
        <time>2013-02-27T13:17:23.000Z</time>
      </trkpt>
      <trkpt lat="44.43238" lon="4.50466">
        <ele>686</ele>
        <time>2013-02-27T13:17:24.000Z</time>
      </trkpt>
      <trkpt lat="44.43239" lon="4.50467">
        <ele>686</ele>
        <time>2013-02-27T13:17:25.000Z</time>
      </trkpt>
      <trkpt lat="44.43239" lon="4.50468">
        <ele>686</ele>
        <time>2013-02-27T13:17:26.000Z</time>
      </trkpt>
      <trkpt lat="44.4324" lon="4.50468">
        <ele>685.59997558594</ele>
        <time>2013-02-27T13:17:27.000Z</time>
      </trkpt>
      <trkpt lat="44.43241" lon="4.50469">
        <ele>685.59997558594</ele>
        <time>2013-02-27T13:17:28.000Z</time>
      </trkpt>
      <trkpt lat="44.43242" lon="4.5047">
        <ele>685.59997558594</ele>
        <time>2013-02-27T13:17:29.000Z</time>
      </trkpt>
      <trkpt lat="44.43243" lon="4.50471">
        <ele>685.59997558594</ele>
        <time>2013-02-27T13:17:30.000Z</time>
      </trkpt>
      <trkpt lat="44.43244" lon="4.50471">
        <ele>685</ele>
        <time>2013-02-27T13:17:31.000Z</time>
      </trkpt>
      <trkpt lat="44.43245" lon="4.50472">
        <ele>685</ele>
        <time>2013-02-27T13:17:32.000Z</time>
      </trkpt>
      <trkpt lat="44.43246" lon="4.50472">
        <ele>685</ele>
        <time>2013-02-27T13:17:33.000Z</time>
      </trkpt>
      <trkpt lat="44.43247" lon="4.50473">
        <ele>684.59997558594</ele>
        <time>2013-02-27T13:17:34.000Z</time>
      </trkpt>
      <trkpt lat="44.43248" lon="4.50474">
        <ele>684.59997558594</ele>
        <time>2013-02-27T13:17:35.000Z</time>
      </trkpt>
      <trkpt lat="44.4325" lon="4.50474">
        <ele>684.59997558594</ele>
        <time>2013-02-27T13:17:36.000Z</time>
      </trkpt>
      <trkpt lat="44.43251" lon="4.50475">
        <ele>684.20001220703</ele>
        <time>2013-02-27T13:17:37.000Z</time>
      </trkpt>
      <trkpt lat="44.43252" lon="4.50475">
        <ele>684.20001220703</ele>
        <time>2013-02-27T13:17:38.000Z</time>
      </trkpt>
      <trkpt lat="44.43253" lon="4.50476">
        <ele>683.59997558594</ele>
        <time>2013-02-27T13:17:39.000Z</time>
      </trkpt>
      <trkpt lat="44.43254" lon="4.50477">
        <ele>683.59997558594</ele>
        <time>2013-02-27T13:17:40.000Z</time>
      </trkpt>
      <trkpt lat="44.43255" lon="4.50478">
        <ele>683.20001220703</ele>
        <time>2013-02-27T13:17:41.000Z</time>
      </trkpt>
      <trkpt lat="44.43255" lon="4.50479">
        <ele>683.20001220703</ele>
        <time>2013-02-27T13:17:42.000Z</time>
      </trkpt>
      <trkpt lat="44.43256" lon="4.5048">
        <ele>682.59997558594</ele>
        <time>2013-02-27T13:17:43.000Z</time>
      </trkpt>
      <trkpt lat="44.43258" lon="4.5048">
        <ele>682.59997558594</ele>
        <time>2013-02-27T13:17:44.000Z</time>
      </trkpt>
      <trkpt lat="44.43259" lon="4.50481">
        <ele>682.20001220703</ele>
        <time>2013-02-27T13:17:45.000Z</time>
      </trkpt>
      <trkpt lat="44.4326" lon="4.50481">
        <ele>682.20001220703</ele>
        <time>2013-02-27T13:17:46.000Z</time>
      </trkpt>
      <trkpt lat="44.43261" lon="4.50481">
        <ele>682.20001220703</ele>
        <time>2013-02-27T13:17:47.000Z</time>
      </trkpt>
      <trkpt lat="44.43262" lon="4.50482">
        <ele>681.79998779297</ele>
        <time>2013-02-27T13:17:48.000Z</time>
      </trkpt>
      <trkpt lat="44.43263" lon="4.50483">
        <ele>681.79998779297</ele>
        <time>2013-02-27T13:17:49.000Z</time>
      </trkpt>
      <trkpt lat="44.43264" lon="4.50483">
        <ele>681.20001220703</ele>
        <time>2013-02-27T13:17:50.000Z</time>
      </trkpt>
      <trkpt lat="44.43265" lon="4.50484">
        <ele>681.20001220703</ele>
        <time>2013-02-27T13:17:51.000Z</time>
      </trkpt>
      <trkpt lat="44.43266" lon="4.50484">
        <ele>681.20001220703</ele>
        <time>2013-02-27T13:17:52.000Z</time>
      </trkpt>
      <trkpt lat="44.43267" lon="4.50485">
        <ele>680.79998779297</ele>
        <time>2013-02-27T13:17:53.000Z</time>
      </trkpt>
      <trkpt lat="44.43268" lon="4.50486">
        <ele>680.79998779297</ele>
        <time>2013-02-27T13:17:54.000Z</time>
      </trkpt>
      <trkpt lat="44.4327" lon="4.50486">
        <ele>681.20001220703</ele>
        <time>2013-02-27T13:17:55.000Z</time>
      </trkpt>
      <trkpt lat="44.43271" lon="4.50487">
        <ele>681.20001220703</ele>
        <time>2013-02-27T13:17:56.000Z</time>
      </trkpt>
      <trkpt lat="44.43272" lon="4.50487">
        <ele>681.20001220703</ele>
        <time>2013-02-27T13:17:57.000Z</time>
      </trkpt>
      <trkpt lat="44.43273" lon="4.50488">
        <ele>681.20001220703</ele>
        <time>2013-02-27T13:17:58.000Z</time>
      </trkpt>
      <trkpt lat="44.43274" lon="4.50488">
        <ele>680.79998779297</ele>
        <time>2013-02-27T13:17:59.000Z</time>
      </trkpt>
      <trkpt lat="44.43276" lon="4.50488">
        <ele>680.79998779297</ele>
        <time>2013-02-27T13:18:00.000Z</time>
      </trkpt>
      <trkpt lat="44.43277" lon="4.50488">
        <ele>680.79998779297</ele>
        <time>2013-02-27T13:18:01.000Z</time>
      </trkpt>
      <trkpt lat="44.43278" lon="4.50488">
        <ele>680.20001220703</ele>
        <time>2013-02-27T13:18:02.000Z</time>
      </trkpt>
      <trkpt lat="44.43279" lon="4.50488">
        <ele>680.20001220703</ele>
        <time>2013-02-27T13:18:03.000Z</time>
      </trkpt>
      <trkpt lat="44.4328" lon="4.50488">
        <ele>679.79998779297</ele>
        <time>2013-02-27T13:18:04.000Z</time>
      </trkpt>
      <trkpt lat="44.43281" lon="4.50488">
        <ele>679.79998779297</ele>
        <time>2013-02-27T13:18:05.000Z</time>
      </trkpt>
      <trkpt lat="44.43282" lon="4.50488">
        <ele>679.40002441406</ele>
        <time>2013-02-27T13:18:06.000Z</time>
      </trkpt>
      <trkpt lat="44.43283" lon="4.50488">
        <ele>679.40002441406</ele>
        <time>2013-02-27T13:18:07.000Z</time>
      </trkpt>
      <trkpt lat="44.43284" lon="4.50489">
        <ele>679.40002441406</ele>
        <time>2013-02-27T13:18:08.000Z</time>
      </trkpt>
      <trkpt lat="44.43285" lon="4.50489">
        <ele>679.40002441406</ele>
        <time>2013-02-27T13:18:09.000Z</time>
      </trkpt>
      <trkpt lat="44.43287" lon="4.50489">
        <ele>678.79998779297</ele>
        <time>2013-02-27T13:18:10.000Z</time>
      </trkpt>
      <trkpt lat="44.43288" lon="4.5049">
        <ele>678.79998779297</ele>
        <time>2013-02-27T13:18:11.000Z</time>
      </trkpt>
      <trkpt lat="44.43289" lon="4.5049">
        <ele>678.79998779297</ele>
        <time>2013-02-27T13:18:12.000Z</time>
      </trkpt>
      <trkpt lat="44.4329" lon="4.50491">
        <ele>678.79998779297</ele>
        <time>2013-02-27T13:18:13.000Z</time>
      </trkpt>
      <trkpt lat="44.43291" lon="4.50491">
        <ele>678.79998779297</ele>
        <time>2013-02-27T13:18:14.000Z</time>
      </trkpt>
      <trkpt lat="44.43292" lon="4.50492">
        <ele>678.79998779297</ele>
        <time>2013-02-27T13:18:15.000Z</time>
      </trkpt>
      <trkpt lat="44.43294" lon="4.50492">
        <ele>678.79998779297</ele>
        <time>2013-02-27T13:18:16.000Z</time>
      </trkpt>
      <trkpt lat="44.43295" lon="4.50493">
        <ele>678.79998779297</ele>
        <time>2013-02-27T13:18:17.000Z</time>
      </trkpt>
      <trkpt lat="44.43296" lon="4.50494">
        <ele>678.79998779297</ele>
        <time>2013-02-27T13:18:18.000Z</time>
      </trkpt>
      <trkpt lat="44.43297" lon="4.50495">
        <ele>678.40002441406</ele>
        <time>2013-02-27T13:18:19.000Z</time>
      </trkpt>
      <trkpt lat="44.43298" lon="4.50495">
        <ele>678.40002441406</ele>
        <time>2013-02-27T13:18:20.000Z</time>
      </trkpt>
      <trkpt lat="44.43299" lon="4.50496">
        <ele>678.40002441406</ele>
        <time>2013-02-27T13:18:21.000Z</time>
      </trkpt>
      <trkpt lat="44.433" lon="4.50497">
        <ele>678.40002441406</ele>
        <time>2013-02-27T13:18:22.000Z</time>
      </trkpt>
      <trkpt lat="44.43301" lon="4.50497">
        <ele>677.79998779297</ele>
        <time>2013-02-27T13:18:23.000Z</time>
      </trkpt>
      <trkpt lat="44.43302" lon="4.50498">
        <ele>677.79998779297</ele>
        <time>2013-02-27T13:18:24.000Z</time>
      </trkpt>
      <trkpt lat="44.43303" lon="4.50499">
        <ele>677.79998779297</ele>
        <time>2013-02-27T13:18:25.000Z</time>
      </trkpt>
      <trkpt lat="44.43304" lon="4.50499">
        <ele>677.79998779297</ele>
        <time>2013-02-27T13:18:26.000Z</time>
      </trkpt>
      <trkpt lat="44.43306" lon="4.505">
        <ele>677.79998779297</ele>
        <time>2013-02-27T13:18:27.000Z</time>
      </trkpt>
      <trkpt lat="44.43307" lon="4.50501">
        <ele>677.40002441406</ele>
        <time>2013-02-27T13:18:28.000Z</time>
      </trkpt>
      <trkpt lat="44.43308" lon="4.50501">
        <ele>677.40002441406</ele>
        <time>2013-02-27T13:18:29.000Z</time>
      </trkpt>
      <trkpt lat="44.43309" lon="4.50503">
        <ele>677.40002441406</ele>
        <time>2013-02-27T13:18:30.000Z</time>
      </trkpt>
      <trkpt lat="44.4331" lon="4.50504">
        <ele>677</ele>
        <time>2013-02-27T13:18:31.000Z</time>
      </trkpt>
      <trkpt lat="44.43311" lon="4.50505">
        <ele>677</ele>
        <time>2013-02-27T13:18:32.000Z</time>
      </trkpt>
      <trkpt lat="44.43312" lon="4.50505">
        <ele>677</ele>
        <time>2013-02-27T13:18:33.000Z</time>
      </trkpt>
      <trkpt lat="44.43313" lon="4.50506">
        <ele>677</ele>
        <time>2013-02-27T13:18:34.000Z</time>
      </trkpt>
      <trkpt lat="44.43314" lon="4.50507">
        <ele>677</ele>
        <time>2013-02-27T13:18:35.000Z</time>
      </trkpt>
      <trkpt lat="44.43316" lon="4.50507">
        <ele>676.40002441406</ele>
        <time>2013-02-27T13:18:36.000Z</time>
      </trkpt>
      <trkpt lat="44.43317" lon="4.50508">
        <ele>676.40002441406</ele>
        <time>2013-02-27T13:18:37.000Z</time>
      </trkpt>
      <trkpt lat="44.43318" lon="4.50508">
        <ele>676.40002441406</ele>
        <time>2013-02-27T13:18:38.000Z</time>
      </trkpt>
      <trkpt lat="44.43319" lon="4.50509">
        <ele>676</ele>
        <time>2013-02-27T13:18:39.000Z</time>
      </trkpt>
      <trkpt lat="44.4332" lon="4.50509">
        <ele>676</ele>
        <time>2013-02-27T13:18:40.000Z</time>
      </trkpt>
      <trkpt lat="44.43321" lon="4.50509">
        <ele>676</ele>
        <time>2013-02-27T13:18:41.000Z</time>
      </trkpt>
      <trkpt lat="44.43322" lon="4.50509">
        <ele>676</ele>
        <time>2013-02-27T13:18:42.000Z</time>
      </trkpt>
      <trkpt lat="44.43323" lon="4.50509">
        <ele>675.40002441406</ele>
        <time>2013-02-27T13:18:43.000Z</time>
      </trkpt>
      <trkpt lat="44.43324" lon="4.50509">
        <ele>675.40002441406</ele>
        <time>2013-02-27T13:18:44.000Z</time>
      </trkpt>
      <trkpt lat="44.43325" lon="4.5051">
        <ele>675</ele>
        <time>2013-02-27T13:18:45.000Z</time>
      </trkpt>
      <trkpt lat="44.43326" lon="4.5051">
        <ele>675</ele>
        <time>2013-02-27T13:18:46.000Z</time>
      </trkpt>
      <trkpt lat="44.43328" lon="4.50511">
        <ele>674.59997558594</ele>
        <time>2013-02-27T13:18:47.000Z</time>
      </trkpt>
      <trkpt lat="44.43329" lon="4.50512">
        <ele>674.59997558594</ele>
        <time>2013-02-27T13:18:48.000Z</time>
      </trkpt>
      <trkpt lat="44.4333" lon="4.50512">
        <ele>674.59997558594</ele>
        <time>2013-02-27T13:18:49.000Z</time>
      </trkpt>
      <trkpt lat="44.43331" lon="4.50512">
        <ele>674</ele>
        <time>2013-02-27T13:18:50.000Z</time>
      </trkpt>
      <trkpt lat="44.43333" lon="4.50512">
        <ele>674</ele>
        <time>2013-02-27T13:18:51.000Z</time>
      </trkpt>
      <trkpt lat="44.43334" lon="4.50512">
        <ele>674</ele>
        <time>2013-02-27T13:18:52.000Z</time>
      </trkpt>
      <trkpt lat="44.43335" lon="4.50512">
        <ele>674</ele>
        <time>2013-02-27T13:18:53.000Z</time>
      </trkpt>
      <trkpt lat="44.43336" lon="4.50512">
        <ele>674</ele>
        <time>2013-02-27T13:18:54.000Z</time>
      </trkpt>
      <trkpt lat="44.43337" lon="4.50513">
        <ele>673.59997558594</ele>
        <time>2013-02-27T13:18:55.000Z</time>
      </trkpt>
      <trkpt lat="44.43338" lon="4.50514">
        <ele>673.59997558594</ele>
        <time>2013-02-27T13:18:56.000Z</time>
      </trkpt>
      <trkpt lat="44.43339" lon="4.50515">
        <ele>673.59997558594</ele>
        <time>2013-02-27T13:18:57.000Z</time>
      </trkpt>
      <trkpt lat="44.4334" lon="4.50516">
        <ele>673.59997558594</ele>
        <time>2013-02-27T13:18:58.000Z</time>
      </trkpt>
      <trkpt lat="44.43342" lon="4.50516">
        <ele>673.59997558594</ele>
        <time>2013-02-27T13:18:59.000Z</time>
      </trkpt>
      <trkpt lat="44.43343" lon="4.50517">
        <ele>673.59997558594</ele>
        <time>2013-02-27T13:19:00.000Z</time>
      </trkpt>
      <trkpt lat="44.43344" lon="4.50517">
        <ele>673.59997558594</ele>
        <time>2013-02-27T13:19:01.000Z</time>
      </trkpt>
      <trkpt lat="44.43345" lon="4.50517">
        <ele>673.59997558594</ele>
        <time>2013-02-27T13:19:02.000Z</time>
      </trkpt>
      <trkpt lat="44.43346" lon="4.50518">
        <ele>673.59997558594</ele>
        <time>2013-02-27T13:19:03.000Z</time>
      </trkpt>
      <trkpt lat="44.43347" lon="4.50518">
        <ele>673.59997558594</ele>
        <time>2013-02-27T13:19:04.000Z</time>
      </trkpt>
      <trkpt lat="44.43348" lon="4.50518">
        <ele>673</ele>
        <time>2013-02-27T13:19:05.000Z</time>
      </trkpt>
      <trkpt lat="44.4335" lon="4.50518">
        <ele>673</ele>
        <time>2013-02-27T13:19:06.000Z</time>
      </trkpt>
      <trkpt lat="44.43351" lon="4.50519">
        <ele>673</ele>
        <time>2013-02-27T13:19:07.000Z</time>
      </trkpt>
      <trkpt lat="44.43352" lon="4.50519">
        <ele>673</ele>
        <time>2013-02-27T13:19:08.000Z</time>
      </trkpt>
      <trkpt lat="44.43353" lon="4.50519">
        <ele>672.59997558594</ele>
        <time>2013-02-27T13:19:09.000Z</time>
      </trkpt>
      <trkpt lat="44.43354" lon="4.5052">
        <ele>672.59997558594</ele>
        <time>2013-02-27T13:19:10.000Z</time>
      </trkpt>
      <trkpt lat="44.43355" lon="4.5052">
        <ele>672</ele>
        <time>2013-02-27T13:19:11.000Z</time>
      </trkpt>
      <trkpt lat="44.43357" lon="4.5052">
        <ele>672</ele>
        <time>2013-02-27T13:19:12.000Z</time>
      </trkpt>
      <trkpt lat="44.43358" lon="4.50521">
        <ele>671.59997558594</ele>
        <time>2013-02-27T13:19:13.000Z</time>
      </trkpt>
      <trkpt lat="44.43359" lon="4.50521">
        <ele>671.59997558594</ele>
        <time>2013-02-27T13:19:14.000Z</time>
      </trkpt>
      <trkpt lat="44.4336" lon="4.50522">
        <ele>671.59997558594</ele>
        <time>2013-02-27T13:19:15.000Z</time>
      </trkpt>
      <trkpt lat="44.43361" lon="4.50522">
        <ele>671.59997558594</ele>
        <time>2013-02-27T13:19:16.000Z</time>
      </trkpt>
      <trkpt lat="44.43362" lon="4.50523">
        <ele>671.20001220703</ele>
        <time>2013-02-27T13:19:17.000Z</time>
      </trkpt>
      <trkpt lat="44.43363" lon="4.50524">
        <ele>671.20001220703</ele>
        <time>2013-02-27T13:19:18.000Z</time>
      </trkpt>
      <trkpt lat="44.43364" lon="4.50525">
        <ele>671.20001220703</ele>
        <time>2013-02-27T13:19:19.000Z</time>
      </trkpt>
      <trkpt lat="44.43365" lon="4.50525">
        <ele>670.59997558594</ele>
        <time>2013-02-27T13:19:20.000Z</time>
      </trkpt>
      <trkpt lat="44.43366" lon="4.50526">
        <ele>670.59997558594</ele>
        <time>2013-02-27T13:19:21.000Z</time>
      </trkpt>
      <trkpt lat="44.43367" lon="4.50527">
        <ele>670.20001220703</ele>
        <time>2013-02-27T13:19:22.000Z</time>
      </trkpt>
      <trkpt lat="44.43368" lon="4.50528">
        <ele>670.20001220703</ele>
        <time>2013-02-27T13:19:23.000Z</time>
      </trkpt>
      <trkpt lat="44.43369" lon="4.50529">
        <ele>670.20001220703</ele>
        <time>2013-02-27T13:19:24.000Z</time>
      </trkpt>
      <trkpt lat="44.4337" lon="4.5053">
        <ele>669.59997558594</ele>
        <time>2013-02-27T13:19:25.000Z</time>
      </trkpt>
      <trkpt lat="44.43371" lon="4.50531">
        <ele>669.59997558594</ele>
        <time>2013-02-27T13:19:26.000Z</time>
      </trkpt>
      <trkpt lat="44.43372" lon="4.50531">
        <ele>669.59997558594</ele>
        <time>2013-02-27T13:19:27.000Z</time>
      </trkpt>
      <trkpt lat="44.43373" lon="4.50532">
        <ele>669.59997558594</ele>
        <time>2013-02-27T13:19:28.000Z</time>
      </trkpt>
      <trkpt lat="44.43374" lon="4.50533">
        <ele>669.59997558594</ele>
        <time>2013-02-27T13:19:29.000Z</time>
      </trkpt>
      <trkpt lat="44.43376" lon="4.50534">
        <ele>669.59997558594</ele>
        <time>2013-02-27T13:19:30.000Z</time>
      </trkpt>
      <trkpt lat="44.43377" lon="4.50535">
        <ele>669.20001220703</ele>
        <time>2013-02-27T13:19:31.000Z</time>
      </trkpt>
      <trkpt lat="44.43378" lon="4.50535">
        <ele>669.20001220703</ele>
        <time>2013-02-27T13:19:32.000Z</time>
      </trkpt>
      <trkpt lat="44.43379" lon="4.50536">
        <ele>669.20001220703</ele>
        <time>2013-02-27T13:19:33.000Z</time>
      </trkpt>
      <trkpt lat="44.4338" lon="4.50536">
        <ele>668.79998779297</ele>
        <time>2013-02-27T13:19:34.000Z</time>
      </trkpt>
      <trkpt lat="44.43381" lon="4.50537">
        <ele>668.79998779297</ele>
        <time>2013-02-27T13:19:35.000Z</time>
      </trkpt>
      <trkpt lat="44.43382" lon="4.50538">
        <ele>668.20001220703</ele>
        <time>2013-02-27T13:19:36.000Z</time>
      </trkpt>
      <trkpt lat="44.43383" lon="4.50539">
        <ele>668.20001220703</ele>
        <time>2013-02-27T13:19:37.000Z</time>
      </trkpt>
      <trkpt lat="44.43384" lon="4.5054">
        <ele>668.20001220703</ele>
        <time>2013-02-27T13:19:38.000Z</time>
      </trkpt>
      <trkpt lat="44.43385" lon="4.5054">
        <ele>667.79998779297</ele>
        <time>2013-02-27T13:19:39.000Z</time>
      </trkpt>
      <trkpt lat="44.43386" lon="4.50541">
        <ele>667.20001220703</ele>
        <time>2013-02-27T13:19:40.000Z</time>
      </trkpt>
      <trkpt lat="44.43388" lon="4.50541">
        <ele>666.79998779297</ele>
        <time>2013-02-27T13:19:41.000Z</time>
      </trkpt>
      <trkpt lat="44.43389" lon="4.50542">
        <ele>666.79998779297</ele>
        <time>2013-02-27T13:19:42.000Z</time>
      </trkpt>
      <trkpt lat="44.4339" lon="4.50542">
        <ele>666.40002441406</ele>
        <time>2013-02-27T13:19:43.000Z</time>
      </trkpt>
      <trkpt lat="44.43391" lon="4.50542">
        <ele>665.79998779297</ele>
        <time>2013-02-27T13:19:44.000Z</time>
      </trkpt>
      <trkpt lat="44.43392" lon="4.50542">
        <ele>665.79998779297</ele>
        <time>2013-02-27T13:19:45.000Z</time>
      </trkpt>
      <trkpt lat="44.43393" lon="4.50542">
        <ele>665.40002441406</ele>
        <time>2013-02-27T13:19:46.000Z</time>
      </trkpt>
      <trkpt lat="44.43394" lon="4.50542">
        <ele>665.40002441406</ele>
        <time>2013-02-27T13:19:47.000Z</time>
      </trkpt>
      <trkpt lat="44.43395" lon="4.50542">
        <ele>665.40002441406</ele>
        <time>2013-02-27T13:19:48.000Z</time>
      </trkpt>
      <trkpt lat="44.43396" lon="4.50543">
        <ele>664.79998779297</ele>
        <time>2013-02-27T13:19:49.000Z</time>
      </trkpt>
      <trkpt lat="44.43397" lon="4.50543">
        <ele>664.79998779297</ele>
        <time>2013-02-27T13:19:50.000Z</time>
      </trkpt>
      <trkpt lat="44.43399" lon="4.50543">
        <ele>665.40002441406</ele>
        <time>2013-02-27T13:19:51.000Z</time>
      </trkpt>
      <trkpt lat="44.434" lon="4.50543">
        <ele>665.40002441406</ele>
        <time>2013-02-27T13:19:52.000Z</time>
      </trkpt>
      <trkpt lat="44.43401" lon="4.50544">
        <ele>665.40002441406</ele>
        <time>2013-02-27T13:19:53.000Z</time>
      </trkpt>
      <trkpt lat="44.43403" lon="4.50544">
        <ele>666.40002441406</ele>
        <time>2013-02-27T13:19:54.000Z</time>
      </trkpt>
      <trkpt lat="44.43404" lon="4.50545">
        <ele>666.79998779297</ele>
        <time>2013-02-27T13:19:55.000Z</time>
      </trkpt>
      <trkpt lat="44.43405" lon="4.50545">
        <ele>666.79998779297</ele>
        <time>2013-02-27T13:19:56.000Z</time>
      </trkpt>
      <trkpt lat="44.43406" lon="4.50545">
        <ele>666.79998779297</ele>
        <time>2013-02-27T13:19:57.000Z</time>
      </trkpt>
      <trkpt lat="44.43408" lon="4.50546">
        <ele>666.40002441406</ele>
        <time>2013-02-27T13:19:58.000Z</time>
      </trkpt>
      <trkpt lat="44.43409" lon="4.50547">
        <ele>666.40002441406</ele>
        <time>2013-02-27T13:19:59.000Z</time>
      </trkpt>
      <trkpt lat="44.4341" lon="4.50548">
        <ele>666.40002441406</ele>
        <time>2013-02-27T13:20:00.000Z</time>
      </trkpt>
      <trkpt lat="44.43411" lon="4.50549">
        <ele>666.40002441406</ele>
        <time>2013-02-27T13:20:01.000Z</time>
      </trkpt>
      <trkpt lat="44.43411" lon="4.5055">
        <ele>665.79998779297</ele>
        <time>2013-02-27T13:20:02.000Z</time>
      </trkpt>
      <trkpt lat="44.43412" lon="4.50551">
        <ele>665.79998779297</ele>
        <time>2013-02-27T13:20:03.000Z</time>
      </trkpt>
      <trkpt lat="44.43413" lon="4.50553">
        <ele>665.79998779297</ele>
        <time>2013-02-27T13:20:04.000Z</time>
      </trkpt>
      <trkpt lat="44.43413" lon="4.50554">
        <ele>665.79998779297</ele>
        <time>2013-02-27T13:20:05.000Z</time>
      </trkpt>
      <trkpt lat="44.43414" lon="4.50555">
        <ele>665.79998779297</ele>
        <time>2013-02-27T13:20:06.000Z</time>
      </trkpt>
      <trkpt lat="44.43415" lon="4.50556">
        <ele>665.40002441406</ele>
        <time>2013-02-27T13:20:07.000Z</time>
      </trkpt>
      <trkpt lat="44.43415" lon="4.50558">
        <ele>665.40002441406</ele>
        <time>2013-02-27T13:20:08.000Z</time>
      </trkpt>
      <trkpt lat="44.43416" lon="4.50559">
        <ele>665.40002441406</ele>
        <time>2013-02-27T13:20:09.000Z</time>
      </trkpt>
      <trkpt lat="44.43417" lon="4.5056">
        <ele>665.40002441406</ele>
        <time>2013-02-27T13:20:10.000Z</time>
      </trkpt>
      <trkpt lat="44.43417" lon="4.50562">
        <ele>664.79998779297</ele>
        <time>2013-02-27T13:20:11.000Z</time>
      </trkpt>
      <trkpt lat="44.43418" lon="4.50563">
        <ele>664.79998779297</ele>
        <time>2013-02-27T13:20:12.000Z</time>
      </trkpt>
      <trkpt lat="44.43418" lon="4.50564">
        <ele>664.79998779297</ele>
        <time>2013-02-27T13:20:13.000Z</time>
      </trkpt>
      <trkpt lat="44.43419" lon="4.50565">
        <ele>664.40002441406</ele>
        <time>2013-02-27T13:20:14.000Z</time>
      </trkpt>
      <trkpt lat="44.43419" lon="4.50566">
        <ele>664.40002441406</ele>
        <time>2013-02-27T13:20:15.000Z</time>
      </trkpt>
      <trkpt lat="44.4342" lon="4.50567">
        <ele>664</ele>
        <time>2013-02-27T13:20:16.000Z</time>
      </trkpt>
      <trkpt lat="44.4342" lon="4.50568">
        <ele>663.40002441406</ele>
        <time>2013-02-27T13:20:17.000Z</time>
      </trkpt>
      <trkpt lat="44.43421" lon="4.50569">
        <ele>663</ele>
        <time>2013-02-27T13:20:18.000Z</time>
      </trkpt>
      <trkpt lat="44.43421" lon="4.5057">
        <ele>663</ele>
        <time>2013-02-27T13:20:19.000Z</time>
      </trkpt>
      <trkpt lat="44.43421" lon="4.50571">
        <ele>662.40002441406</ele>
        <time>2013-02-27T13:20:20.000Z</time>
      </trkpt>
      <trkpt lat="44.43422" lon="4.50572">
        <ele>662</ele>
        <time>2013-02-27T13:20:21.000Z</time>
      </trkpt>
      <trkpt lat="44.43422" lon="4.50573">
        <ele>661.59997558594</ele>
        <time>2013-02-27T13:20:22.000Z</time>
      </trkpt>
      <trkpt lat="44.43423" lon="4.50574">
        <ele>661</ele>
        <time>2013-02-27T13:20:23.000Z</time>
      </trkpt>
      <trkpt lat="44.43423" lon="4.50575">
        <ele>660.59997558594</ele>
        <time>2013-02-27T13:20:24.000Z</time>
      </trkpt>
      <trkpt lat="44.43424" lon="4.50576">
        <ele>660.59997558594</ele>
        <time>2013-02-27T13:20:25.000Z</time>
      </trkpt>
      <trkpt lat="44.43424" lon="4.50577">
        <ele>660</ele>
        <time>2013-02-27T13:20:26.000Z</time>
      </trkpt>
      <trkpt lat="44.43425" lon="4.50579">
        <ele>659.59997558594</ele>
        <time>2013-02-27T13:20:27.000Z</time>
      </trkpt>
      <trkpt lat="44.43425" lon="4.50579">
        <ele>659.59997558594</ele>
        <time>2013-02-27T13:20:28.000Z</time>
      </trkpt>
      <trkpt lat="44.43426" lon="4.5058">
        <ele>659.20001220703</ele>
        <time>2013-02-27T13:20:29.000Z</time>
      </trkpt>
      <trkpt lat="44.43426" lon="4.50581">
        <ele>659.20001220703</ele>
        <time>2013-02-27T13:20:30.000Z</time>
      </trkpt>
      <trkpt lat="44.43426" lon="4.50583">
        <ele>659.20001220703</ele>
        <time>2013-02-27T13:20:31.000Z</time>
      </trkpt>
      <trkpt lat="44.43427" lon="4.50584">
        <ele>659.20001220703</ele>
        <time>2013-02-27T13:20:32.000Z</time>
      </trkpt>
      <trkpt lat="44.43427" lon="4.50585">
        <ele>658.59997558594</ele>
        <time>2013-02-27T13:20:33.000Z</time>
      </trkpt>
      <trkpt lat="44.43428" lon="4.50586">
        <ele>658.59997558594</ele>
        <time>2013-02-27T13:20:34.000Z</time>
      </trkpt>
      <trkpt lat="44.43428" lon="4.50587">
        <ele>658.59997558594</ele>
        <time>2013-02-27T13:20:35.000Z</time>
      </trkpt>
      <trkpt lat="44.43428" lon="4.50589">
        <ele>658.59997558594</ele>
        <time>2013-02-27T13:20:36.000Z</time>
      </trkpt>
      <trkpt lat="44.43428" lon="4.5059">
        <ele>658.59997558594</ele>
        <time>2013-02-27T13:20:37.000Z</time>
      </trkpt>
      <trkpt lat="44.43429" lon="4.50592">
        <ele>658.59997558594</ele>
        <time>2013-02-27T13:20:38.000Z</time>
      </trkpt>
      <trkpt lat="44.43429" lon="4.50593">
        <ele>658.59997558594</ele>
        <time>2013-02-27T13:20:39.000Z</time>
      </trkpt>
      <trkpt lat="44.43429" lon="4.50594">
        <ele>658.20001220703</ele>
        <time>2013-02-27T13:20:40.000Z</time>
      </trkpt>
      <trkpt lat="44.43429" lon="4.50595">
        <ele>657.59997558594</ele>
        <time>2013-02-27T13:20:41.000Z</time>
      </trkpt>
      <trkpt lat="44.43429" lon="4.50597">
        <ele>657.59997558594</ele>
        <time>2013-02-27T13:20:42.000Z</time>
      </trkpt>
      <trkpt lat="44.43429" lon="4.50598">
        <ele>657.59997558594</ele>
        <time>2013-02-27T13:20:43.000Z</time>
      </trkpt>
      <trkpt lat="44.43429" lon="4.50599">
        <ele>657.20001220703</ele>
        <time>2013-02-27T13:20:44.000Z</time>
      </trkpt>
      <trkpt lat="44.43429" lon="4.506">
        <ele>657.20001220703</ele>
        <time>2013-02-27T13:20:45.000Z</time>
      </trkpt>
      <trkpt lat="44.43429" lon="4.50602">
        <ele>657.20001220703</ele>
        <time>2013-02-27T13:20:46.000Z</time>
      </trkpt>
      <trkpt lat="44.43429" lon="4.50603">
        <ele>656.79998779297</ele>
        <time>2013-02-27T13:20:47.000Z</time>
      </trkpt>
      <trkpt lat="44.4343" lon="4.50604">
        <ele>656.79998779297</ele>
        <time>2013-02-27T13:20:48.000Z</time>
      </trkpt>
      <trkpt lat="44.4343" lon="4.50606">
        <ele>656.79998779297</ele>
        <time>2013-02-27T13:20:49.000Z</time>
      </trkpt>
      <trkpt lat="44.4343" lon="4.50607">
        <ele>656.79998779297</ele>
        <time>2013-02-27T13:20:50.000Z</time>
      </trkpt>
      <trkpt lat="44.43431" lon="4.50607">
        <ele>656.79998779297</ele>
        <time>2013-02-27T13:20:51.000Z</time>
      </trkpt>
      <trkpt lat="44.43432" lon="4.50608">
        <ele>656.79998779297</ele>
        <time>2013-02-27T13:20:52.000Z</time>
      </trkpt>
      <trkpt lat="44.43433" lon="4.50608">
        <ele>656.79998779297</ele>
        <time>2013-02-27T13:20:53.000Z</time>
      </trkpt>
      <trkpt lat="44.43434" lon="4.50609">
        <ele>656.79998779297</ele>
        <time>2013-02-27T13:20:54.000Z</time>
      </trkpt>
      <trkpt lat="44.43435" lon="4.50609">
        <ele>656.20001220703</ele>
        <time>2013-02-27T13:20:55.000Z</time>
      </trkpt>
      <trkpt lat="44.43436" lon="4.50609">
        <ele>656.20001220703</ele>
        <time>2013-02-27T13:20:56.000Z</time>
      </trkpt>
      <trkpt lat="44.43436" lon="4.50609">
        <ele>656.20001220703</ele>
        <time>2013-02-27T13:20:57.000Z</time>
      </trkpt>
      <trkpt lat="44.43437" lon="4.5061">
        <ele>656.20001220703</ele>
        <time>2013-02-27T13:20:58.000Z</time>
      </trkpt>
      <trkpt lat="44.43438" lon="4.5061">
        <ele>656.20001220703</ele>
        <time>2013-02-27T13:20:59.000Z</time>
      </trkpt>
      <trkpt lat="44.43439" lon="4.50611">
        <ele>656.20001220703</ele>
        <time>2013-02-27T13:21:00.000Z</time>
      </trkpt>
      <trkpt lat="44.4344" lon="4.50612">
        <ele>656.20001220703</ele>
        <time>2013-02-27T13:21:01.000Z</time>
      </trkpt>
      <trkpt lat="44.43441" lon="4.50613">
        <ele>656.20001220703</ele>
        <time>2013-02-27T13:21:02.000Z</time>
      </trkpt>
      <trkpt lat="44.43442" lon="4.50613">
        <ele>656.20001220703</ele>
        <time>2013-02-27T13:21:03.000Z</time>
      </trkpt>
      <trkpt lat="44.43442" lon="4.50614">
        <ele>655.79998779297</ele>
        <time>2013-02-27T13:21:04.000Z</time>
      </trkpt>
      <trkpt lat="44.43443" lon="4.50614">
        <ele>655.79998779297</ele>
        <time>2013-02-27T13:21:05.000Z</time>
      </trkpt>
      <trkpt lat="44.43444" lon="4.50614">
        <ele>655.79998779297</ele>
        <time>2013-02-27T13:21:06.000Z</time>
      </trkpt>
      <trkpt lat="44.43446" lon="4.50614">
        <ele>656.20001220703</ele>
        <time>2013-02-27T13:21:07.000Z</time>
      </trkpt>
      <trkpt lat="44.43447" lon="4.50614">
        <ele>656.20001220703</ele>
        <time>2013-02-27T13:21:08.000Z</time>
      </trkpt>
      <trkpt lat="44.43448" lon="4.50615">
        <ele>656.20001220703</ele>
        <time>2013-02-27T13:21:09.000Z</time>
      </trkpt>
      <trkpt lat="44.43449" lon="4.50615">
        <ele>656.20001220703</ele>
        <time>2013-02-27T13:21:10.000Z</time>
      </trkpt>
      <trkpt lat="44.4345" lon="4.50615">
        <ele>656.20001220703</ele>
        <time>2013-02-27T13:21:11.000Z</time>
      </trkpt>
      <trkpt lat="44.43452" lon="4.50615">
        <ele>656.20001220703</ele>
        <time>2013-02-27T13:21:12.000Z</time>
      </trkpt>
      <trkpt lat="44.43453" lon="4.50616">
        <ele>656.20001220703</ele>
        <time>2013-02-27T13:21:13.000Z</time>
      </trkpt>
      <trkpt lat="44.43454" lon="4.50617">
        <ele>656.20001220703</ele>
        <time>2013-02-27T13:21:14.000Z</time>
      </trkpt>
      <trkpt lat="44.43455" lon="4.50618">
        <ele>656.20001220703</ele>
        <time>2013-02-27T13:21:15.000Z</time>
      </trkpt>
      <trkpt lat="44.43455" lon="4.50619">
        <ele>656.20001220703</ele>
        <time>2013-02-27T13:21:16.000Z</time>
      </trkpt>
      <trkpt lat="44.43456" lon="4.5062">
        <ele>656.20001220703</ele>
        <time>2013-02-27T13:21:17.000Z</time>
      </trkpt>
      <trkpt lat="44.43457" lon="4.50621">
        <ele>655.79998779297</ele>
        <time>2013-02-27T13:21:18.000Z</time>
      </trkpt>
      <trkpt lat="44.43458" lon="4.50622">
        <ele>655.79998779297</ele>
        <time>2013-02-27T13:21:19.000Z</time>
      </trkpt>
      <trkpt lat="44.43459" lon="4.50622">
        <ele>655.79998779297</ele>
        <time>2013-02-27T13:21:20.000Z</time>
      </trkpt>
      <trkpt lat="44.4346" lon="4.50623">
        <ele>655.79998779297</ele>
        <time>2013-02-27T13:21:21.000Z</time>
      </trkpt>
      <trkpt lat="44.43461" lon="4.50623">
        <ele>655.20001220703</ele>
        <time>2013-02-27T13:21:22.000Z</time>
      </trkpt>
      <trkpt lat="44.43462" lon="4.50623">
        <ele>655.20001220703</ele>
        <time>2013-02-27T13:21:23.000Z</time>
      </trkpt>
      <trkpt lat="44.43463" lon="4.50624">
        <ele>654.79998779297</ele>
        <time>2013-02-27T13:21:24.000Z</time>
      </trkpt>
      <trkpt lat="44.43465" lon="4.50625">
        <ele>654.79998779297</ele>
        <time>2013-02-27T13:21:25.000Z</time>
      </trkpt>
      <trkpt lat="44.43466" lon="4.50625">
        <ele>654.79998779297</ele>
        <time>2013-02-27T13:21:26.000Z</time>
      </trkpt>
      <trkpt lat="44.43467" lon="4.50626">
        <ele>654.79998779297</ele>
        <time>2013-02-27T13:21:27.000Z</time>
      </trkpt>
      <trkpt lat="44.43468" lon="4.50626">
        <ele>654.40002441406</ele>
        <time>2013-02-27T13:21:28.000Z</time>
      </trkpt>
      <trkpt lat="44.43469" lon="4.50627">
        <ele>654.40002441406</ele>
        <time>2013-02-27T13:21:29.000Z</time>
      </trkpt>
      <trkpt lat="44.4347" lon="4.50627">
        <ele>654.40002441406</ele>
        <time>2013-02-27T13:21:30.000Z</time>
      </trkpt>
      <trkpt lat="44.43471" lon="4.50628">
        <ele>653.79998779297</ele>
        <time>2013-02-27T13:21:31.000Z</time>
      </trkpt>
      <trkpt lat="44.43472" lon="4.50628">
        <ele>653.79998779297</ele>
        <time>2013-02-27T13:21:32.000Z</time>
      </trkpt>
      <trkpt lat="44.43473" lon="4.50628">
        <ele>653.79998779297</ele>
        <time>2013-02-27T13:21:33.000Z</time>
      </trkpt>
      <trkpt lat="44.43474" lon="4.50628">
        <ele>653.79998779297</ele>
        <time>2013-02-27T13:21:34.000Z</time>
      </trkpt>
      <trkpt lat="44.43475" lon="4.50629">
        <ele>653.79998779297</ele>
        <time>2013-02-27T13:21:35.000Z</time>
      </trkpt>
      <trkpt lat="44.43476" lon="4.50629">
        <ele>653.40002441406</ele>
        <time>2013-02-27T13:21:36.000Z</time>
      </trkpt>
      <trkpt lat="44.43477" lon="4.50629">
        <ele>653.40002441406</ele>
        <time>2013-02-27T13:21:37.000Z</time>
      </trkpt>
      <trkpt lat="44.43478" lon="4.50629">
        <ele>653.40002441406</ele>
        <time>2013-02-27T13:21:38.000Z</time>
      </trkpt>
      <trkpt lat="44.43479" lon="4.50629">
        <ele>652.79998779297</ele>
        <time>2013-02-27T13:21:39.000Z</time>
      </trkpt>
      <trkpt lat="44.4348" lon="4.50628">
        <ele>652.79998779297</ele>
        <time>2013-02-27T13:21:40.000Z</time>
      </trkpt>
      <trkpt lat="44.43481" lon="4.50628">
        <ele>652.79998779297</ele>
        <time>2013-02-27T13:21:41.000Z</time>
      </trkpt>
      <trkpt lat="44.43482" lon="4.50629">
        <ele>652.79998779297</ele>
        <time>2013-02-27T13:21:42.000Z</time>
      </trkpt>
      <trkpt lat="44.43483" lon="4.50629">
        <ele>652.40002441406</ele>
        <time>2013-02-27T13:21:43.000Z</time>
      </trkpt>
      <trkpt lat="44.43484" lon="4.5063">
        <ele>652</ele>
        <time>2013-02-27T13:21:44.000Z</time>
      </trkpt>
      <trkpt lat="44.43485" lon="4.50631">
        <ele>652</ele>
        <time>2013-02-27T13:21:45.000Z</time>
      </trkpt>
      <trkpt lat="44.43486" lon="4.50632">
        <ele>651.40002441406</ele>
        <time>2013-02-27T13:21:46.000Z</time>
      </trkpt>
      <trkpt lat="44.43486" lon="4.50633">
        <ele>651.40002441406</ele>
        <time>2013-02-27T13:21:47.000Z</time>
      </trkpt>
      <trkpt lat="44.43487" lon="4.50634">
        <ele>651</ele>
        <time>2013-02-27T13:21:48.000Z</time>
      </trkpt>
      <trkpt lat="44.43488" lon="4.50635">
        <ele>651</ele>
        <time>2013-02-27T13:21:49.000Z</time>
      </trkpt>
      <trkpt lat="44.43489" lon="4.50636">
        <ele>650.40002441406</ele>
        <time>2013-02-27T13:21:50.000Z</time>
      </trkpt>
      <trkpt lat="44.4349" lon="4.50637">
        <ele>650.40002441406</ele>
        <time>2013-02-27T13:21:51.000Z</time>
      </trkpt>
      <trkpt lat="44.4349" lon="4.50639">
        <ele>650.40002441406</ele>
        <time>2013-02-27T13:21:52.000Z</time>
      </trkpt>
      <trkpt lat="44.4349" lon="4.5064">
        <ele>650</ele>
        <time>2013-02-27T13:21:53.000Z</time>
      </trkpt>
      <trkpt lat="44.4349" lon="4.50642">
        <ele>650</ele>
        <time>2013-02-27T13:21:54.000Z</time>
      </trkpt>
      <trkpt lat="44.43489" lon="4.50643">
        <ele>649.59997558594</ele>
        <time>2013-02-27T13:21:55.000Z</time>
      </trkpt>
      <trkpt lat="44.43489" lon="4.50644">
        <ele>649.59997558594</ele>
        <time>2013-02-27T13:21:56.000Z</time>
      </trkpt>
      <trkpt lat="44.43489" lon="4.50646">
        <ele>649</ele>
        <time>2013-02-27T13:21:57.000Z</time>
      </trkpt>
      <trkpt lat="44.43489" lon="4.50647">
        <ele>648.59997558594</ele>
        <time>2013-02-27T13:21:58.000Z</time>
      </trkpt>
      <trkpt lat="44.43488" lon="4.50648">
        <ele>648.59997558594</ele>
        <time>2013-02-27T13:21:59.000Z</time>
      </trkpt>
      <trkpt lat="44.43488" lon="4.5065">
        <ele>648</ele>
        <time>2013-02-27T13:22:00.000Z</time>
      </trkpt>
      <trkpt lat="44.43487" lon="4.50651">
        <ele>648</ele>
        <time>2013-02-27T13:22:01.000Z</time>
      </trkpt>
      <trkpt lat="44.43487" lon="4.50652">
        <ele>647.59997558594</ele>
        <time>2013-02-27T13:22:02.000Z</time>
      </trkpt>
      <trkpt lat="44.43486" lon="4.50653">
        <ele>647.59997558594</ele>
        <time>2013-02-27T13:22:03.000Z</time>
      </trkpt>
      <trkpt lat="44.43486" lon="4.50655">
        <ele>647.59997558594</ele>
        <time>2013-02-27T13:22:04.000Z</time>
      </trkpt>
      <trkpt lat="44.43486" lon="4.50656">
        <ele>647.20001220703</ele>
        <time>2013-02-27T13:22:05.000Z</time>
      </trkpt>
      <trkpt lat="44.43485" lon="4.50657">
        <ele>647.20001220703</ele>
        <time>2013-02-27T13:22:06.000Z</time>
      </trkpt>
      <trkpt lat="44.43485" lon="4.50658">
        <ele>647.20001220703</ele>
        <time>2013-02-27T13:22:07.000Z</time>
      </trkpt>
      <trkpt lat="44.43484" lon="4.50659">
        <ele>646.59997558594</ele>
        <time>2013-02-27T13:22:08.000Z</time>
      </trkpt>
      <trkpt lat="44.43484" lon="4.5066">
        <ele>646.59997558594</ele>
        <time>2013-02-27T13:22:09.000Z</time>
      </trkpt>
      <trkpt lat="44.43484" lon="4.50662">
        <ele>646.59997558594</ele>
        <time>2013-02-27T13:22:10.000Z</time>
      </trkpt>
      <trkpt lat="44.43483" lon="4.50663">
        <ele>646.59997558594</ele>
        <time>2013-02-27T13:22:11.000Z</time>
      </trkpt>
      <trkpt lat="44.43483" lon="4.50664">
        <ele>646.59997558594</ele>
        <time>2013-02-27T13:22:12.000Z</time>
      </trkpt>
      <trkpt lat="44.43483" lon="4.50665">
        <ele>646.20001220703</ele>
        <time>2013-02-27T13:22:13.000Z</time>
      </trkpt>
      <trkpt lat="44.43482" lon="4.50666">
        <ele>646.20001220703</ele>
        <time>2013-02-27T13:22:14.000Z</time>
      </trkpt>
      <trkpt lat="44.43482" lon="4.50667">
        <ele>646.20001220703</ele>
        <time>2013-02-27T13:22:15.000Z</time>
      </trkpt>
      <trkpt lat="44.43482" lon="4.50668">
        <ele>645.59997558594</ele>
        <time>2013-02-27T13:22:16.000Z</time>
      </trkpt>
      <trkpt lat="44.43481" lon="4.5067">
        <ele>645.59997558594</ele>
        <time>2013-02-27T13:22:17.000Z</time>
      </trkpt>
      <trkpt lat="44.43481" lon="4.50671">
        <ele>645.20001220703</ele>
        <time>2013-02-27T13:22:18.000Z</time>
      </trkpt>
      <trkpt lat="44.4348" lon="4.50672">
        <ele>645.20001220703</ele>
        <time>2013-02-27T13:22:19.000Z</time>
      </trkpt>
      <trkpt lat="44.4348" lon="4.50674">
        <ele>645.20001220703</ele>
        <time>2013-02-27T13:22:20.000Z</time>
      </trkpt>
      <trkpt lat="44.43479" lon="4.50675">
        <ele>644.79998779297</ele>
        <time>2013-02-27T13:22:21.000Z</time>
      </trkpt>
      <trkpt lat="44.43479" lon="4.50676">
        <ele>644.79998779297</ele>
        <time>2013-02-27T13:22:22.000Z</time>
      </trkpt>
      <trkpt lat="44.43478" lon="4.50677">
        <ele>644.79998779297</ele>
        <time>2013-02-27T13:22:23.000Z</time>
      </trkpt>
      <trkpt lat="44.43477" lon="4.50678">
        <ele>644.79998779297</ele>
        <time>2013-02-27T13:22:24.000Z</time>
      </trkpt>
      <trkpt lat="44.43477" lon="4.50679">
        <ele>644.79998779297</ele>
        <time>2013-02-27T13:22:25.000Z</time>
      </trkpt>
      <trkpt lat="44.43476" lon="4.5068">
        <ele>644.20001220703</ele>
        <time>2013-02-27T13:22:26.000Z</time>
      </trkpt>
      <trkpt lat="44.43476" lon="4.50681">
        <ele>644.20001220703</ele>
        <time>2013-02-27T13:22:27.000Z</time>
      </trkpt>
      <trkpt lat="44.43475" lon="4.50682">
        <ele>644.20001220703</ele>
        <time>2013-02-27T13:22:28.000Z</time>
      </trkpt>
      <trkpt lat="44.43475" lon="4.50683">
        <ele>643.79998779297</ele>
        <time>2013-02-27T13:22:29.000Z</time>
      </trkpt>
      <trkpt lat="44.43474" lon="4.50684">
        <ele>643.79998779297</ele>
        <time>2013-02-27T13:22:30.000Z</time>
      </trkpt>
      <trkpt lat="44.43474" lon="4.50685">
        <ele>643.20001220703</ele>
        <time>2013-02-27T13:22:31.000Z</time>
      </trkpt>
      <trkpt lat="44.43473" lon="4.50685">
        <ele>643.20001220703</ele>
        <time>2013-02-27T13:22:32.000Z</time>
      </trkpt>
      <trkpt lat="44.43472" lon="4.50686">
        <ele>642.79998779297</ele>
        <time>2013-02-27T13:22:33.000Z</time>
      </trkpt>
      <trkpt lat="44.43472" lon="4.50687">
        <ele>642.79998779297</ele>
        <time>2013-02-27T13:22:34.000Z</time>
      </trkpt>
      <trkpt lat="44.43472" lon="4.50688">
        <ele>642.20001220703</ele>
        <time>2013-02-27T13:22:35.000Z</time>
      </trkpt>
      <trkpt lat="44.43471" lon="4.50688">
        <ele>642.20001220703</ele>
        <time>2013-02-27T13:22:36.000Z</time>
      </trkpt>
      <trkpt lat="44.4347" lon="4.50689">
        <ele>642.20001220703</ele>
        <time>2013-02-27T13:22:37.000Z</time>
      </trkpt>
      <trkpt lat="44.43469" lon="4.5069">
        <ele>642.20001220703</ele>
        <time>2013-02-27T13:22:38.000Z</time>
      </trkpt>
      <trkpt lat="44.43469" lon="4.50691">
        <ele>641.79998779297</ele>
        <time>2013-02-27T13:22:39.000Z</time>
      </trkpt>
      <trkpt lat="44.43468" lon="4.50692">
        <ele>641.79998779297</ele>
        <time>2013-02-27T13:22:40.000Z</time>
      </trkpt>
      <trkpt lat="44.43468" lon="4.50693">
        <ele>641.79998779297</ele>
        <time>2013-02-27T13:22:41.000Z</time>
      </trkpt>
      <trkpt lat="44.43467" lon="4.50694">
        <ele>641.40002441406</ele>
        <time>2013-02-27T13:22:42.000Z</time>
      </trkpt>
      <trkpt lat="44.43466" lon="4.50695">
        <ele>641.40002441406</ele>
        <time>2013-02-27T13:22:43.000Z</time>
      </trkpt>
      <trkpt lat="44.43466" lon="4.50696">
        <ele>641.40002441406</ele>
        <time>2013-02-27T13:22:44.000Z</time>
      </trkpt>
      <trkpt lat="44.43465" lon="4.50696">
        <ele>640.79998779297</ele>
        <time>2013-02-27T13:22:45.000Z</time>
      </trkpt>
      <trkpt lat="44.43465" lon="4.50697">
        <ele>640.79998779297</ele>
        <time>2013-02-27T13:22:46.000Z</time>
      </trkpt>
      <trkpt lat="44.43465" lon="4.50698">
        <ele>640.79998779297</ele>
        <time>2013-02-27T13:22:47.000Z</time>
      </trkpt>
      <trkpt lat="44.43464" lon="4.50699">
        <ele>640.79998779297</ele>
        <time>2013-02-27T13:22:48.000Z</time>
      </trkpt>
      <trkpt lat="44.43463" lon="4.507">
        <ele>640.40002441406</ele>
        <time>2013-02-27T13:22:49.000Z</time>
      </trkpt>
      <trkpt lat="44.43463" lon="4.50701">
        <ele>640.40002441406</ele>
        <time>2013-02-27T13:22:50.000Z</time>
      </trkpt>
      <trkpt lat="44.43462" lon="4.50702">
        <ele>640.40002441406</ele>
        <time>2013-02-27T13:22:51.000Z</time>
      </trkpt>
      <trkpt lat="44.43461" lon="4.50702">
        <ele>640.40002441406</ele>
        <time>2013-02-27T13:22:52.000Z</time>
      </trkpt>
      <trkpt lat="44.4346" lon="4.50703">
        <ele>639.79998779297</ele>
        <time>2013-02-27T13:22:53.000Z</time>
      </trkpt>
      <trkpt lat="44.43459" lon="4.50704">
        <ele>639.79998779297</ele>
        <time>2013-02-27T13:22:54.000Z</time>
      </trkpt>
      <trkpt lat="44.43459" lon="4.50704">
        <ele>639.40002441406</ele>
        <time>2013-02-27T13:22:55.000Z</time>
      </trkpt>
      <trkpt lat="44.43458" lon="4.50705">
        <ele>639.40002441406</ele>
        <time>2013-02-27T13:22:56.000Z</time>
      </trkpt>
      <trkpt lat="44.43457" lon="4.50706">
        <ele>639</ele>
        <time>2013-02-27T13:22:57.000Z</time>
      </trkpt>
      <trkpt lat="44.43456" lon="4.50706">
        <ele>639</ele>
        <time>2013-02-27T13:22:58.000Z</time>
      </trkpt>
      <trkpt lat="44.43455" lon="4.50706">
        <ele>638.40002441406</ele>
        <time>2013-02-27T13:22:59.000Z</time>
      </trkpt>
      <trkpt lat="44.43455" lon="4.50707">
        <ele>638.40002441406</ele>
        <time>2013-02-27T13:23:00.000Z</time>
      </trkpt>
      <trkpt lat="44.43454" lon="4.50708">
        <ele>638</ele>
        <time>2013-02-27T13:23:01.000Z</time>
      </trkpt>
      <trkpt lat="44.43454" lon="4.50709">
        <ele>637.40002441406</ele>
        <time>2013-02-27T13:23:02.000Z</time>
      </trkpt>
      <trkpt lat="44.43454" lon="4.5071">
        <ele>637.40002441406</ele>
        <time>2013-02-27T13:23:03.000Z</time>
      </trkpt>
      <trkpt lat="44.43453" lon="4.50711">
        <ele>637</ele>
        <time>2013-02-27T13:23:04.000Z</time>
      </trkpt>
      <trkpt lat="44.43453" lon="4.50713">
        <ele>637.40002441406</ele>
        <time>2013-02-27T13:23:05.000Z</time>
      </trkpt>
      <trkpt lat="44.43453" lon="4.50715">
        <ele>637</ele>
        <time>2013-02-27T13:23:06.000Z</time>
      </trkpt>
      <trkpt lat="44.43453" lon="4.50716">
        <ele>637</ele>
        <time>2013-02-27T13:23:07.000Z</time>
      </trkpt>
      <trkpt lat="44.43454" lon="4.50717">
        <ele>636.59997558594</ele>
        <time>2013-02-27T13:23:08.000Z</time>
      </trkpt>
      <trkpt lat="44.43454" lon="4.50718">
        <ele>636.59997558594</ele>
        <time>2013-02-27T13:23:09.000Z</time>
      </trkpt>
      <trkpt lat="44.43455" lon="4.50719">
        <ele>636.59997558594</ele>
        <time>2013-02-27T13:23:10.000Z</time>
      </trkpt>
      <trkpt lat="44.43456" lon="4.5072">
        <ele>636.59997558594</ele>
        <time>2013-02-27T13:23:11.000Z</time>
      </trkpt>
      <trkpt lat="44.43457" lon="4.50721">
        <ele>636</ele>
        <time>2013-02-27T13:23:12.000Z</time>
      </trkpt>
      <trkpt lat="44.43458" lon="4.50722">
        <ele>636</ele>
        <time>2013-02-27T13:23:13.000Z</time>
      </trkpt>
      <trkpt lat="44.43458" lon="4.50723">
        <ele>636</ele>
        <time>2013-02-27T13:23:14.000Z</time>
      </trkpt>
      <trkpt lat="44.43459" lon="4.50724">
        <ele>636</ele>
        <time>2013-02-27T13:23:15.000Z</time>
      </trkpt>
      <trkpt lat="44.4346" lon="4.50725">
        <ele>636</ele>
        <time>2013-02-27T13:23:16.000Z</time>
      </trkpt>
      <trkpt lat="44.43461" lon="4.50726">
        <ele>635.59997558594</ele>
        <time>2013-02-27T13:23:17.000Z</time>
      </trkpt>
      <trkpt lat="44.43462" lon="4.50727">
        <ele>635.59997558594</ele>
        <time>2013-02-27T13:23:18.000Z</time>
      </trkpt>
      <trkpt lat="44.43463" lon="4.50728">
        <ele>635.59997558594</ele>
        <time>2013-02-27T13:23:19.000Z</time>
      </trkpt>
      <trkpt lat="44.43464" lon="4.50729">
        <ele>635.59997558594</ele>
        <time>2013-02-27T13:23:20.000Z</time>
      </trkpt>
      <trkpt lat="44.43465" lon="4.5073">
        <ele>635.59997558594</ele>
        <time>2013-02-27T13:23:21.000Z</time>
      </trkpt>
      <trkpt lat="44.43466" lon="4.5073">
        <ele>635</ele>
        <time>2013-02-27T13:23:22.000Z</time>
      </trkpt>
      <trkpt lat="44.43466" lon="4.50731">
        <ele>635</ele>
        <time>2013-02-27T13:23:23.000Z</time>
      </trkpt>
      <trkpt lat="44.43467" lon="4.50732">
        <ele>634.59997558594</ele>
        <time>2013-02-27T13:23:24.000Z</time>
      </trkpt>
      <trkpt lat="44.43468" lon="4.50733">
        <ele>634.59997558594</ele>
        <time>2013-02-27T13:23:25.000Z</time>
      </trkpt>
      <trkpt lat="44.43469" lon="4.50734">
        <ele>634.59997558594</ele>
        <time>2013-02-27T13:23:26.000Z</time>
      </trkpt>
      <trkpt lat="44.4347" lon="4.50735">
        <ele>634.59997558594</ele>
        <time>2013-02-27T13:23:27.000Z</time>
      </trkpt>
      <trkpt lat="44.4347" lon="4.50736">
        <ele>634.59997558594</ele>
        <time>2013-02-27T13:23:28.000Z</time>
      </trkpt>
      <trkpt lat="44.43471" lon="4.50737">
        <ele>634.59997558594</ele>
        <time>2013-02-27T13:23:29.000Z</time>
      </trkpt>
      <trkpt lat="44.43472" lon="4.50737">
        <ele>634.59997558594</ele>
        <time>2013-02-27T13:23:30.000Z</time>
      </trkpt>
      <trkpt lat="44.43473" lon="4.50738">
        <ele>634.59997558594</ele>
        <time>2013-02-27T13:23:31.000Z</time>
      </trkpt>
      <trkpt lat="44.43474" lon="4.50739">
        <ele>634.20001220703</ele>
        <time>2013-02-27T13:23:32.000Z</time>
      </trkpt>
      <trkpt lat="44.43475" lon="4.5074">
        <ele>634.20001220703</ele>
        <time>2013-02-27T13:23:33.000Z</time>
      </trkpt>
      <trkpt lat="44.43476" lon="4.5074">
        <ele>634.20001220703</ele>
        <time>2013-02-27T13:23:34.000Z</time>
      </trkpt>
      <trkpt lat="44.43477" lon="4.50741">
        <ele>633.59997558594</ele>
        <time>2013-02-27T13:23:35.000Z</time>
      </trkpt>
      <trkpt lat="44.43478" lon="4.50742">
        <ele>633.59997558594</ele>
        <time>2013-02-27T13:23:36.000Z</time>
      </trkpt>
      <trkpt lat="44.43478" lon="4.50743">
        <ele>633.59997558594</ele>
        <time>2013-02-27T13:23:37.000Z</time>
      </trkpt>
      <trkpt lat="44.43479" lon="4.50744">
        <ele>633.20001220703</ele>
        <time>2013-02-27T13:23:38.000Z</time>
      </trkpt>
      <trkpt lat="44.4348" lon="4.50745">
        <ele>633.20001220703</ele>
        <time>2013-02-27T13:23:39.000Z</time>
      </trkpt>
      <trkpt lat="44.43481" lon="4.50745">
        <ele>633.20001220703</ele>
        <time>2013-02-27T13:23:40.000Z</time>
      </trkpt>
      <trkpt lat="44.43482" lon="4.50746">
        <ele>632.59997558594</ele>
        <time>2013-02-27T13:23:41.000Z</time>
      </trkpt>
      <trkpt lat="44.43483" lon="4.50747">
        <ele>632.59997558594</ele>
        <time>2013-02-27T13:23:42.000Z</time>
      </trkpt>
      <trkpt lat="44.43484" lon="4.50747">
        <ele>632.20001220703</ele>
        <time>2013-02-27T13:23:43.000Z</time>
      </trkpt>
      <trkpt lat="44.43485" lon="4.50748">
        <ele>632.20001220703</ele>
        <time>2013-02-27T13:23:44.000Z</time>
      </trkpt>
      <trkpt lat="44.43486" lon="4.50749">
        <ele>632.20001220703</ele>
        <time>2013-02-27T13:23:45.000Z</time>
      </trkpt>
      <trkpt lat="44.43487" lon="4.5075">
        <ele>631.79998779297</ele>
        <time>2013-02-27T13:23:46.000Z</time>
      </trkpt>
      <trkpt lat="44.43488" lon="4.50751">
        <ele>631.79998779297</ele>
        <time>2013-02-27T13:23:47.000Z</time>
      </trkpt>
      <trkpt lat="44.43489" lon="4.50752">
        <ele>631.79998779297</ele>
        <time>2013-02-27T13:23:48.000Z</time>
      </trkpt>
      <trkpt lat="44.4349" lon="4.50753">
        <ele>631.20001220703</ele>
        <time>2013-02-27T13:23:49.000Z</time>
      </trkpt>
      <trkpt lat="44.43491" lon="4.50754">
        <ele>631.20001220703</ele>
        <time>2013-02-27T13:23:50.000Z</time>
      </trkpt>
      <trkpt lat="44.43492" lon="4.50754">
        <ele>631.20001220703</ele>
        <time>2013-02-27T13:23:51.000Z</time>
      </trkpt>
      <trkpt lat="44.43493" lon="4.50755">
        <ele>630.79998779297</ele>
        <time>2013-02-27T13:23:52.000Z</time>
      </trkpt>
      <trkpt lat="44.43495" lon="4.50756">
        <ele>630.79998779297</ele>
        <time>2013-02-27T13:23:53.000Z</time>
      </trkpt>
      <trkpt lat="44.43496" lon="4.50757">
        <ele>630.20001220703</ele>
        <time>2013-02-27T13:23:54.000Z</time>
      </trkpt>
      <trkpt lat="44.43497" lon="4.50758">
        <ele>630.20001220703</ele>
        <time>2013-02-27T13:23:55.000Z</time>
      </trkpt>
      <trkpt lat="44.43498" lon="4.50759">
        <ele>629.79998779297</ele>
        <time>2013-02-27T13:23:56.000Z</time>
      </trkpt>
      <trkpt lat="44.43498" lon="4.5076">
        <ele>629.79998779297</ele>
        <time>2013-02-27T13:23:57.000Z</time>
      </trkpt>
      <trkpt lat="44.43499" lon="4.50762">
        <ele>629.40002441406</ele>
        <time>2013-02-27T13:23:58.000Z</time>
      </trkpt>
      <trkpt lat="44.435" lon="4.50763">
        <ele>629.40002441406</ele>
        <time>2013-02-27T13:23:59.000Z</time>
      </trkpt>
      <trkpt lat="44.43501" lon="4.50763">
        <ele>628.79998779297</ele>
        <time>2013-02-27T13:24:00.000Z</time>
      </trkpt>
      <trkpt lat="44.43502" lon="4.50764">
        <ele>628.79998779297</ele>
        <time>2013-02-27T13:24:01.000Z</time>
      </trkpt>
      <trkpt lat="44.43503" lon="4.50764">
        <ele>628.79998779297</ele>
        <time>2013-02-27T13:24:02.000Z</time>
      </trkpt>
      <trkpt lat="44.43504" lon="4.50765">
        <ele>628.40002441406</ele>
        <time>2013-02-27T13:24:03.000Z</time>
      </trkpt>
      <trkpt lat="44.43505" lon="4.50766">
        <ele>628.40002441406</ele>
        <time>2013-02-27T13:24:04.000Z</time>
      </trkpt>
      <trkpt lat="44.43506" lon="4.50766">
        <ele>627.79998779297</ele>
        <time>2013-02-27T13:24:05.000Z</time>
      </trkpt>
      <trkpt lat="44.43507" lon="4.50767">
        <ele>627.79998779297</ele>
        <time>2013-02-27T13:24:06.000Z</time>
      </trkpt>
      <trkpt lat="44.43507" lon="4.50768">
        <ele>627.79998779297</ele>
        <time>2013-02-27T13:24:07.000Z</time>
      </trkpt>
      <trkpt lat="44.43508" lon="4.50769">
        <ele>627.79998779297</ele>
        <time>2013-02-27T13:24:08.000Z</time>
      </trkpt>
      <trkpt lat="44.43509" lon="4.5077">
        <ele>627.40002441406</ele>
        <time>2013-02-27T13:24:09.000Z</time>
      </trkpt>
      <trkpt lat="44.4351" lon="4.5077">
        <ele>627.40002441406</ele>
        <time>2013-02-27T13:24:10.000Z</time>
      </trkpt>
      <trkpt lat="44.43511" lon="4.50771">
        <ele>627.40002441406</ele>
        <time>2013-02-27T13:24:11.000Z</time>
      </trkpt>
      <trkpt lat="44.43512" lon="4.50771">
        <ele>627</ele>
        <time>2013-02-27T13:24:12.000Z</time>
      </trkpt>
      <trkpt lat="44.43513" lon="4.50771">
        <ele>627</ele>
        <time>2013-02-27T13:24:13.000Z</time>
      </trkpt>
      <trkpt lat="44.43514" lon="4.50771">
        <ele>627</ele>
        <time>2013-02-27T13:24:14.000Z</time>
      </trkpt>
      <trkpt lat="44.43515" lon="4.50771">
        <ele>626.40002441406</ele>
        <time>2013-02-27T13:24:15.000Z</time>
      </trkpt>
      <trkpt lat="44.43516" lon="4.50772">
        <ele>626.40002441406</ele>
        <time>2013-02-27T13:24:16.000Z</time>
      </trkpt>
      <trkpt lat="44.43517" lon="4.50772">
        <ele>626.40002441406</ele>
        <time>2013-02-27T13:24:17.000Z</time>
      </trkpt>
      <trkpt lat="44.43518" lon="4.50773">
        <ele>626</ele>
        <time>2013-02-27T13:24:18.000Z</time>
      </trkpt>
      <trkpt lat="44.43519" lon="4.50773">
        <ele>626</ele>
        <time>2013-02-27T13:24:19.000Z</time>
      </trkpt>
      <trkpt lat="44.4352" lon="4.50773">
        <ele>626</ele>
        <time>2013-02-27T13:24:20.000Z</time>
      </trkpt>
      <trkpt lat="44.43521" lon="4.50774">
        <ele>625.40002441406</ele>
        <time>2013-02-27T13:24:21.000Z</time>
      </trkpt>
      <trkpt lat="44.43522" lon="4.50774">
        <ele>625.40002441406</ele>
        <time>2013-02-27T13:24:22.000Z</time>
      </trkpt>
      <trkpt lat="44.43523" lon="4.50775">
        <ele>625.40002441406</ele>
        <time>2013-02-27T13:24:23.000Z</time>
      </trkpt>
      <trkpt lat="44.43524" lon="4.50775">
        <ele>625.40002441406</ele>
        <time>2013-02-27T13:24:24.000Z</time>
      </trkpt>
      <trkpt lat="44.43525" lon="4.50775">
        <ele>625.40002441406</ele>
        <time>2013-02-27T13:24:25.000Z</time>
      </trkpt>
      <trkpt lat="44.43526" lon="4.50776">
        <ele>625.40002441406</ele>
        <time>2013-02-27T13:24:26.000Z</time>
      </trkpt>
      <trkpt lat="44.43527" lon="4.50776">
        <ele>625.40002441406</ele>
        <time>2013-02-27T13:24:27.000Z</time>
      </trkpt>
      <trkpt lat="44.43528" lon="4.50776">
        <ele>625.40002441406</ele>
        <time>2013-02-27T13:24:28.000Z</time>
      </trkpt>
      <trkpt lat="44.43529" lon="4.50777">
        <ele>625</ele>
        <time>2013-02-27T13:24:29.000Z</time>
      </trkpt>
      <trkpt lat="44.4353" lon="4.50778">
        <ele>625</ele>
        <time>2013-02-27T13:24:30.000Z</time>
      </trkpt>
      <trkpt lat="44.43531" lon="4.50778">
        <ele>625</ele>
        <time>2013-02-27T13:24:31.000Z</time>
      </trkpt>
      <trkpt lat="44.43532" lon="4.50779">
        <ele>625</ele>
        <time>2013-02-27T13:24:32.000Z</time>
      </trkpt>
      <trkpt lat="44.43533" lon="4.50779">
        <ele>625</ele>
        <time>2013-02-27T13:24:33.000Z</time>
      </trkpt>
      <trkpt lat="44.43534" lon="4.5078">
        <ele>624.59997558594</ele>
        <time>2013-02-27T13:24:34.000Z</time>
      </trkpt>
      <trkpt lat="44.43535" lon="4.5078">
        <ele>624.59997558594</ele>
        <time>2013-02-27T13:24:35.000Z</time>
      </trkpt>
      <trkpt lat="44.43536" lon="4.5078">
        <ele>624.59997558594</ele>
        <time>2013-02-27T13:24:36.000Z</time>
      </trkpt>
      <trkpt lat="44.43537" lon="4.5078">
        <ele>624.59997558594</ele>
        <time>2013-02-27T13:24:37.000Z</time>
      </trkpt>
      <trkpt lat="44.43538" lon="4.50781">
        <ele>624.59997558594</ele>
        <time>2013-02-27T13:24:38.000Z</time>
      </trkpt>
      <trkpt lat="44.43539" lon="4.50781">
        <ele>624.59997558594</ele>
        <time>2013-02-27T13:24:39.000Z</time>
      </trkpt>
      <trkpt lat="44.4354" lon="4.50781">
        <ele>624.59997558594</ele>
        <time>2013-02-27T13:24:40.000Z</time>
      </trkpt>
      <trkpt lat="44.43541" lon="4.50781">
        <ele>624</ele>
        <time>2013-02-27T13:24:41.000Z</time>
      </trkpt>
      <trkpt lat="44.43542" lon="4.50781">
        <ele>624</ele>
        <time>2013-02-27T13:24:42.000Z</time>
      </trkpt>
      <trkpt lat="44.43543" lon="4.50782">
        <ele>624</ele>
        <time>2013-02-27T13:24:43.000Z</time>
      </trkpt>
      <trkpt lat="44.43544" lon="4.50782">
        <ele>623.59997558594</ele>
        <time>2013-02-27T13:24:44.000Z</time>
      </trkpt>
      <trkpt lat="44.43545" lon="4.50783">
        <ele>623.59997558594</ele>
        <time>2013-02-27T13:24:45.000Z</time>
      </trkpt>
      <trkpt lat="44.43546" lon="4.50784">
        <ele>623</ele>
        <time>2013-02-27T13:24:46.000Z</time>
      </trkpt>
      <trkpt lat="44.43546" lon="4.50785">
        <ele>623</ele>
        <time>2013-02-27T13:24:47.000Z</time>
      </trkpt>
      <trkpt lat="44.43546" lon="4.50786">
        <ele>622.59997558594</ele>
        <time>2013-02-27T13:24:48.000Z</time>
      </trkpt>
      <trkpt lat="44.43546" lon="4.50788">
        <ele>622.59997558594</ele>
        <time>2013-02-27T13:24:49.000Z</time>
      </trkpt>
      <trkpt lat="44.43546" lon="4.50789">
        <ele>622.20001220703</ele>
        <time>2013-02-27T13:24:50.000Z</time>
      </trkpt>
      <trkpt lat="44.43545" lon="4.50791">
        <ele>622.20001220703</ele>
        <time>2013-02-27T13:24:51.000Z</time>
      </trkpt>
      <trkpt lat="44.43545" lon="4.50792">
        <ele>621.59997558594</ele>
        <time>2013-02-27T13:24:52.000Z</time>
      </trkpt>
      <trkpt lat="44.43544" lon="4.50793">
        <ele>621.20001220703</ele>
        <time>2013-02-27T13:24:53.000Z</time>
      </trkpt>
      <trkpt lat="44.43544" lon="4.50794">
        <ele>621.20001220703</ele>
        <time>2013-02-27T13:24:54.000Z</time>
      </trkpt>
      <trkpt lat="44.43544" lon="4.50795">
        <ele>621.20001220703</ele>
        <time>2013-02-27T13:24:55.000Z</time>
      </trkpt>
      <trkpt lat="44.43543" lon="4.50796">
        <ele>621.20001220703</ele>
        <time>2013-02-27T13:24:56.000Z</time>
      </trkpt>
      <trkpt lat="44.43543" lon="4.50798">
        <ele>620.59997558594</ele>
        <time>2013-02-27T13:24:57.000Z</time>
      </trkpt>
      <trkpt lat="44.43542" lon="4.50799">
        <ele>620.59997558594</ele>
        <time>2013-02-27T13:24:58.000Z</time>
      </trkpt>
      <trkpt lat="44.43542" lon="4.508">
        <ele>620.59997558594</ele>
        <time>2013-02-27T13:24:59.000Z</time>
      </trkpt>
      <trkpt lat="44.43542" lon="4.50801">
        <ele>620.20001220703</ele>
        <time>2013-02-27T13:25:00.000Z</time>
      </trkpt>
      <trkpt lat="44.43541" lon="4.50803">
        <ele>620.20001220703</ele>
        <time>2013-02-27T13:25:01.000Z</time>
      </trkpt>
      <trkpt lat="44.43541" lon="4.50804">
        <ele>619.79998779297</ele>
        <time>2013-02-27T13:25:02.000Z</time>
      </trkpt>
      <trkpt lat="44.4354" lon="4.50806">
        <ele>619.79998779297</ele>
        <time>2013-02-27T13:25:03.000Z</time>
      </trkpt>
      <trkpt lat="44.4354" lon="4.50807">
        <ele>619.79998779297</ele>
        <time>2013-02-27T13:25:04.000Z</time>
      </trkpt>
      <trkpt lat="44.43539" lon="4.50809">
        <ele>619.79998779297</ele>
        <time>2013-02-27T13:25:05.000Z</time>
      </trkpt>
      <trkpt lat="44.43538" lon="4.5081">
        <ele>619.79998779297</ele>
        <time>2013-02-27T13:25:06.000Z</time>
      </trkpt>
      <trkpt lat="44.43538" lon="4.50811">
        <ele>619.20001220703</ele>
        <time>2013-02-27T13:25:07.000Z</time>
      </trkpt>
      <trkpt lat="44.43538" lon="4.50813">
        <ele>619.20001220703</ele>
        <time>2013-02-27T13:25:08.000Z</time>
      </trkpt>
      <trkpt lat="44.43537" lon="4.50814">
        <ele>619.20001220703</ele>
        <time>2013-02-27T13:25:09.000Z</time>
      </trkpt>
      <trkpt lat="44.43537" lon="4.50815">
        <ele>619.20001220703</ele>
        <time>2013-02-27T13:25:10.000Z</time>
      </trkpt>
      <trkpt lat="44.43536" lon="4.50817">
        <ele>619.20001220703</ele>
        <time>2013-02-27T13:25:11.000Z</time>
      </trkpt>
      <trkpt lat="44.43536" lon="4.50818">
        <ele>618.79998779297</ele>
        <time>2013-02-27T13:25:12.000Z</time>
      </trkpt>
      <trkpt lat="44.43536" lon="4.50819">
        <ele>618.79998779297</ele>
        <time>2013-02-27T13:25:13.000Z</time>
      </trkpt>
      <trkpt lat="44.43536" lon="4.5082">
        <ele>618.79998779297</ele>
        <time>2013-02-27T13:25:14.000Z</time>
      </trkpt>
      <trkpt lat="44.43537" lon="4.50821">
        <ele>618.20001220703</ele>
        <time>2013-02-27T13:25:15.000Z</time>
      </trkpt>
      <trkpt lat="44.43538" lon="4.50822">
        <ele>618.20001220703</ele>
        <time>2013-02-27T13:25:16.000Z</time>
      </trkpt>
      <trkpt lat="44.43539" lon="4.50823">
        <ele>617.79998779297</ele>
        <time>2013-02-27T13:25:17.000Z</time>
      </trkpt>
      <trkpt lat="44.4354" lon="4.50823">
        <ele>617.79998779297</ele>
        <time>2013-02-27T13:25:18.000Z</time>
      </trkpt>
      <trkpt lat="44.4354" lon="4.50824">
        <ele>617.40002441406</ele>
        <time>2013-02-27T13:25:19.000Z</time>
      </trkpt>
      <trkpt lat="44.43541" lon="4.50825">
        <ele>617.40002441406</ele>
        <time>2013-02-27T13:25:20.000Z</time>
      </trkpt>
      <trkpt lat="44.43542" lon="4.50825">
        <ele>617.40002441406</ele>
        <time>2013-02-27T13:25:21.000Z</time>
      </trkpt>
      <trkpt lat="44.43543" lon="4.50826">
        <ele>617.40002441406</ele>
        <time>2013-02-27T13:25:22.000Z</time>
      </trkpt>
      <trkpt lat="44.43544" lon="4.50826">
        <ele>616.79998779297</ele>
        <time>2013-02-27T13:25:23.000Z</time>
      </trkpt>
      <trkpt lat="44.43545" lon="4.50826">
        <ele>616.79998779297</ele>
        <time>2013-02-27T13:25:24.000Z</time>
      </trkpt>
      <trkpt lat="44.43546" lon="4.50826">
        <ele>616.40002441406</ele>
        <time>2013-02-27T13:25:25.000Z</time>
      </trkpt>
      <trkpt lat="44.43547" lon="4.50826">
        <ele>616.40002441406</ele>
        <time>2013-02-27T13:25:26.000Z</time>
      </trkpt>
      <trkpt lat="44.43548" lon="4.50826">
        <ele>615.79998779297</ele>
        <time>2013-02-27T13:25:27.000Z</time>
      </trkpt>
      <trkpt lat="44.43549" lon="4.50826">
        <ele>615.79998779297</ele>
        <time>2013-02-27T13:25:28.000Z</time>
      </trkpt>
      <trkpt lat="44.4355" lon="4.50826">
        <ele>615.79998779297</ele>
        <time>2013-02-27T13:25:29.000Z</time>
      </trkpt>
      <trkpt lat="44.43551" lon="4.50826">
        <ele>615.40002441406</ele>
        <time>2013-02-27T13:25:30.000Z</time>
      </trkpt>
      <trkpt lat="44.43552" lon="4.50827">
        <ele>615.40002441406</ele>
        <time>2013-02-27T13:25:31.000Z</time>
      </trkpt>
      <trkpt lat="44.43553" lon="4.50827">
        <ele>615</ele>
        <time>2013-02-27T13:25:32.000Z</time>
      </trkpt>
      <trkpt lat="44.43554" lon="4.50827">
        <ele>615</ele>
        <time>2013-02-27T13:25:33.000Z</time>
      </trkpt>
      <trkpt lat="44.43555" lon="4.50827">
        <ele>615</ele>
        <time>2013-02-27T13:25:34.000Z</time>
      </trkpt>
      <trkpt lat="44.43556" lon="4.50828">
        <ele>615</ele>
        <time>2013-02-27T13:25:35.000Z</time>
      </trkpt>
      <trkpt lat="44.43557" lon="4.50828">
        <ele>614.40002441406</ele>
        <time>2013-02-27T13:25:36.000Z</time>
      </trkpt>
      <trkpt lat="44.43558" lon="4.50828">
        <ele>614.40002441406</ele>
        <time>2013-02-27T13:25:37.000Z</time>
      </trkpt>
      <trkpt lat="44.4356" lon="4.50827">
        <ele>614.40002441406</ele>
        <time>2013-02-27T13:25:38.000Z</time>
      </trkpt>
      <trkpt lat="44.43561" lon="4.50827">
        <ele>614.40002441406</ele>
        <time>2013-02-27T13:25:39.000Z</time>
      </trkpt>
      <trkpt lat="44.43562" lon="4.50827">
        <ele>614</ele>
        <time>2013-02-27T13:25:40.000Z</time>
      </trkpt>
      <trkpt lat="44.43563" lon="4.50828">
        <ele>614</ele>
        <time>2013-02-27T13:25:41.000Z</time>
      </trkpt>
      <trkpt lat="44.43564" lon="4.50828">
        <ele>613.40002441406</ele>
        <time>2013-02-27T13:25:42.000Z</time>
      </trkpt>
      <trkpt lat="44.43565" lon="4.50828">
        <ele>613.40002441406</ele>
        <time>2013-02-27T13:25:43.000Z</time>
      </trkpt>
      <trkpt lat="44.43566" lon="4.50829">
        <ele>613</ele>
        <time>2013-02-27T13:25:44.000Z</time>
      </trkpt>
      <trkpt lat="44.43567" lon="4.50829">
        <ele>613</ele>
        <time>2013-02-27T13:25:45.000Z</time>
      </trkpt>
      <trkpt lat="44.43568" lon="4.5083">
        <ele>613</ele>
        <time>2013-02-27T13:25:46.000Z</time>
      </trkpt>
      <trkpt lat="44.43569" lon="4.5083">
        <ele>612.40002441406</ele>
        <time>2013-02-27T13:25:47.000Z</time>
      </trkpt>
      <trkpt lat="44.4357" lon="4.5083">
        <ele>612.40002441406</ele>
        <time>2013-02-27T13:25:48.000Z</time>
      </trkpt>
      <trkpt lat="44.43571" lon="4.5083">
        <ele>612.40002441406</ele>
        <time>2013-02-27T13:25:49.000Z</time>
      </trkpt>
      <trkpt lat="44.43572" lon="4.50831">
        <ele>612</ele>
        <time>2013-02-27T13:25:50.000Z</time>
      </trkpt>
      <trkpt lat="44.43573" lon="4.50831">
        <ele>612</ele>
        <time>2013-02-27T13:25:51.000Z</time>
      </trkpt>
      <trkpt lat="44.43574" lon="4.50832">
        <ele>612</ele>
        <time>2013-02-27T13:25:52.000Z</time>
      </trkpt>
      <trkpt lat="44.43575" lon="4.50832">
        <ele>611.59997558594</ele>
        <time>2013-02-27T13:25:53.000Z</time>
      </trkpt>
      <trkpt lat="44.43576" lon="4.50832">
        <ele>611.59997558594</ele>
        <time>2013-02-27T13:25:54.000Z</time>
      </trkpt>
      <trkpt lat="44.43577" lon="4.50832">
        <ele>611</ele>
        <time>2013-02-27T13:25:55.000Z</time>
      </trkpt>
      <trkpt lat="44.43578" lon="4.50832">
        <ele>611</ele>
        <time>2013-02-27T13:25:56.000Z</time>
      </trkpt>
      <trkpt lat="44.43579" lon="4.50832">
        <ele>611</ele>
        <time>2013-02-27T13:25:57.000Z</time>
      </trkpt>
      <trkpt lat="44.4358" lon="4.50833">
        <ele>610.59997558594</ele>
        <time>2013-02-27T13:25:58.000Z</time>
      </trkpt>
      <trkpt lat="44.4358" lon="4.50833">
        <ele>610.59997558594</ele>
        <time>2013-02-27T13:25:59.000Z</time>
      </trkpt>
      <trkpt lat="44.43581" lon="4.50833">
        <ele>610.59997558594</ele>
        <time>2013-02-27T13:26:00.000Z</time>
      </trkpt>
      <trkpt lat="44.43583" lon="4.50833">
        <ele>610.59997558594</ele>
        <time>2013-02-27T13:26:01.000Z</time>
      </trkpt>
      <trkpt lat="44.43584" lon="4.50833">
        <ele>611</ele>
        <time>2013-02-27T13:26:02.000Z</time>
      </trkpt>
      <trkpt lat="44.43585" lon="4.50833">
        <ele>611</ele>
        <time>2013-02-27T13:26:03.000Z</time>
      </trkpt>
      <trkpt lat="44.43587" lon="4.50833">
        <ele>611</ele>
        <time>2013-02-27T13:26:04.000Z</time>
      </trkpt>
      <trkpt lat="44.43588" lon="4.50832">
        <ele>611</ele>
        <time>2013-02-27T13:26:05.000Z</time>
      </trkpt>
      <trkpt lat="44.43589" lon="4.50832">
        <ele>611</ele>
        <time>2013-02-27T13:26:06.000Z</time>
      </trkpt>
      <trkpt lat="44.4359" lon="4.50831">
        <ele>611</ele>
        <time>2013-02-27T13:26:07.000Z</time>
      </trkpt>
      <trkpt lat="44.43591" lon="4.50831">
        <ele>610.59997558594</ele>
        <time>2013-02-27T13:26:08.000Z</time>
      </trkpt>
      <trkpt lat="44.43592" lon="4.50831">
        <ele>610</ele>
        <time>2013-02-27T13:26:09.000Z</time>
      </trkpt>
      <trkpt lat="44.43593" lon="4.50831">
        <ele>610</ele>
        <time>2013-02-27T13:26:10.000Z</time>
      </trkpt>
      <trkpt lat="44.43594" lon="4.5083">
        <ele>609.59997558594</ele>
        <time>2013-02-27T13:26:11.000Z</time>
      </trkpt>
      <trkpt lat="44.43595" lon="4.5083">
        <ele>609.59997558594</ele>
        <time>2013-02-27T13:26:12.000Z</time>
      </trkpt>
      <trkpt lat="44.43596" lon="4.50829">
        <ele>609.59997558594</ele>
        <time>2013-02-27T13:26:13.000Z</time>
      </trkpt>
      <trkpt lat="44.43597" lon="4.50828">
        <ele>609.20001220703</ele>
        <time>2013-02-27T13:26:14.000Z</time>
      </trkpt>
      <trkpt lat="44.43598" lon="4.50828">
        <ele>609.20001220703</ele>
        <time>2013-02-27T13:26:15.000Z</time>
      </trkpt>
      <trkpt lat="44.43599" lon="4.50827">
        <ele>608.59997558594</ele>
        <time>2013-02-27T13:26:16.000Z</time>
      </trkpt>
      <trkpt lat="44.436" lon="4.50827">
        <ele>608.20001220703</ele>
        <time>2013-02-27T13:26:17.000Z</time>
      </trkpt>
      <trkpt lat="44.43601" lon="4.50826">
        <ele>608.20001220703</ele>
        <time>2013-02-27T13:26:18.000Z</time>
      </trkpt>
      <trkpt lat="44.43602" lon="4.50826">
        <ele>607.59997558594</ele>
        <time>2013-02-27T13:26:19.000Z</time>
      </trkpt>
      <trkpt lat="44.43603" lon="4.50825">
        <ele>607.20001220703</ele>
        <time>2013-02-27T13:26:20.000Z</time>
      </trkpt>
      <trkpt lat="44.43604" lon="4.50824">
        <ele>606.79998779297</ele>
        <time>2013-02-27T13:26:21.000Z</time>
      </trkpt>
      <trkpt lat="44.43605" lon="4.50824">
        <ele>606.20001220703</ele>
        <time>2013-02-27T13:26:22.000Z</time>
      </trkpt>
      <trkpt lat="44.43606" lon="4.50823">
        <ele>606.20001220703</ele>
        <time>2013-02-27T13:26:23.000Z</time>
      </trkpt>
      <trkpt lat="44.43607" lon="4.50822">
        <ele>606.20001220703</ele>
        <time>2013-02-27T13:26:24.000Z</time>
      </trkpt>
      <trkpt lat="44.43608" lon="4.50822">
        <ele>605.79998779297</ele>
        <time>2013-02-27T13:26:25.000Z</time>
      </trkpt>
      <trkpt lat="44.4361" lon="4.50821">
        <ele>605.79998779297</ele>
        <time>2013-02-27T13:26:26.000Z</time>
      </trkpt>
      <trkpt lat="44.43611" lon="4.5082">
        <ele>605.79998779297</ele>
        <time>2013-02-27T13:26:27.000Z</time>
      </trkpt>
      <trkpt lat="44.43612" lon="4.5082">
        <ele>605.20001220703</ele>
        <time>2013-02-27T13:26:28.000Z</time>
      </trkpt>
      <trkpt lat="44.43613" lon="4.50819">
        <ele>605.20001220703</ele>
        <time>2013-02-27T13:26:29.000Z</time>
      </trkpt>
      <trkpt lat="44.43614" lon="4.50818">
        <ele>605.20001220703</ele>
        <time>2013-02-27T13:26:30.000Z</time>
      </trkpt>
      <trkpt lat="44.43614" lon="4.50817">
        <ele>604.79998779297</ele>
        <time>2013-02-27T13:26:31.000Z</time>
      </trkpt>
      <trkpt lat="44.43615" lon="4.50816">
        <ele>604.79998779297</ele>
        <time>2013-02-27T13:26:32.000Z</time>
      </trkpt>
      <trkpt lat="44.43617" lon="4.50816">
        <ele>604.79998779297</ele>
        <time>2013-02-27T13:26:33.000Z</time>
      </trkpt>
      <trkpt lat="44.43618" lon="4.50816">
        <ele>604.40002441406</ele>
        <time>2013-02-27T13:26:34.000Z</time>
      </trkpt>
      <trkpt lat="44.43619" lon="4.50815">
        <ele>604.40002441406</ele>
        <time>2013-02-27T13:26:35.000Z</time>
      </trkpt>
      <trkpt lat="44.4362" lon="4.50815">
        <ele>603.79998779297</ele>
        <time>2013-02-27T13:26:36.000Z</time>
      </trkpt>
      <trkpt lat="44.43621" lon="4.50815">
        <ele>603.79998779297</ele>
        <time>2013-02-27T13:26:37.000Z</time>
      </trkpt>
      <trkpt lat="44.43622" lon="4.50814">
        <ele>603.79998779297</ele>
        <time>2013-02-27T13:26:38.000Z</time>
      </trkpt>
      <trkpt lat="44.43623" lon="4.50814">
        <ele>603.79998779297</ele>
        <time>2013-02-27T13:26:39.000Z</time>
      </trkpt>
      <trkpt lat="44.43624" lon="4.50813">
        <ele>603.79998779297</ele>
        <time>2013-02-27T13:26:40.000Z</time>
      </trkpt>
      <trkpt lat="44.43625" lon="4.50812">
        <ele>603.79998779297</ele>
        <time>2013-02-27T13:26:41.000Z</time>
      </trkpt>
      <trkpt lat="44.43626" lon="4.50811">
        <ele>603.79998779297</ele>
        <time>2013-02-27T13:26:42.000Z</time>
      </trkpt>
      <trkpt lat="44.43626" lon="4.5081">
        <ele>603.40002441406</ele>
        <time>2013-02-27T13:26:43.000Z</time>
      </trkpt>
      <trkpt lat="44.43627" lon="4.50809">
        <ele>603.40002441406</ele>
        <time>2013-02-27T13:26:44.000Z</time>
      </trkpt>
      <trkpt lat="44.43628" lon="4.50808">
        <ele>602.79998779297</ele>
        <time>2013-02-27T13:26:45.000Z</time>
      </trkpt>
      <trkpt lat="44.43629" lon="4.50807">
        <ele>602.40002441406</ele>
        <time>2013-02-27T13:26:46.000Z</time>
      </trkpt>
      <trkpt lat="44.4363" lon="4.50806">
        <ele>602.40002441406</ele>
        <time>2013-02-27T13:26:47.000Z</time>
      </trkpt>
      <trkpt lat="44.43631" lon="4.50806">
        <ele>602</ele>
        <time>2013-02-27T13:26:48.000Z</time>
      </trkpt>
      <trkpt lat="44.43632" lon="4.50805">
        <ele>602</ele>
        <time>2013-02-27T13:26:49.000Z</time>
      </trkpt>
      <trkpt lat="44.43633" lon="4.50804">
        <ele>601.40002441406</ele>
        <time>2013-02-27T13:26:50.000Z</time>
      </trkpt>
      <trkpt lat="44.43634" lon="4.50804">
        <ele>601.40002441406</ele>
        <time>2013-02-27T13:26:51.000Z</time>
      </trkpt>
      <trkpt lat="44.43635" lon="4.50804">
        <ele>601</ele>
        <time>2013-02-27T13:26:52.000Z</time>
      </trkpt>
      <trkpt lat="44.43636" lon="4.50804">
        <ele>601</ele>
        <time>2013-02-27T13:26:53.000Z</time>
      </trkpt>
      <trkpt lat="44.43637" lon="4.50803">
        <ele>601</ele>
        <time>2013-02-27T13:26:54.000Z</time>
      </trkpt>
      <trkpt lat="44.43638" lon="4.50803">
        <ele>601</ele>
        <time>2013-02-27T13:26:55.000Z</time>
      </trkpt>
      <trkpt lat="44.43639" lon="4.50802">
        <ele>601</ele>
        <time>2013-02-27T13:26:56.000Z</time>
      </trkpt>
      <trkpt lat="44.4364" lon="4.50801">
        <ele>600.40002441406</ele>
        <time>2013-02-27T13:26:57.000Z</time>
      </trkpt>
      <trkpt lat="44.43641" lon="4.50801">
        <ele>600.40002441406</ele>
        <time>2013-02-27T13:26:58.000Z</time>
      </trkpt>
      <trkpt lat="44.43642" lon="4.50801">
        <ele>600.40002441406</ele>
        <time>2013-02-27T13:26:59.000Z</time>
      </trkpt>
      <trkpt lat="44.43643" lon="4.508">
        <ele>600.40002441406</ele>
        <time>2013-02-27T13:27:00.000Z</time>
      </trkpt>
      <trkpt lat="44.43644" lon="4.508">
        <ele>600</ele>
        <time>2013-02-27T13:27:01.000Z</time>
      </trkpt>
      <trkpt lat="44.43644" lon="4.50799">
        <ele>600</ele>
        <time>2013-02-27T13:27:02.000Z</time>
      </trkpt>
      <trkpt lat="44.43645" lon="4.50798">
        <ele>600</ele>
        <time>2013-02-27T13:27:03.000Z</time>
      </trkpt>
      <trkpt lat="44.43646" lon="4.50797">
        <ele>599.59997558594</ele>
        <time>2013-02-27T13:27:04.000Z</time>
      </trkpt>
      <trkpt lat="44.43647" lon="4.50796">
        <ele>599</ele>
        <time>2013-02-27T13:27:05.000Z</time>
      </trkpt>
      <trkpt lat="44.43648" lon="4.50795">
        <ele>599</ele>
        <time>2013-02-27T13:27:06.000Z</time>
      </trkpt>
      <trkpt lat="44.43649" lon="4.50794">
        <ele>598.59997558594</ele>
        <time>2013-02-27T13:27:07.000Z</time>
      </trkpt>
      <trkpt lat="44.4365" lon="4.50794">
        <ele>598.59997558594</ele>
        <time>2013-02-27T13:27:08.000Z</time>
      </trkpt>
      <trkpt lat="44.43651" lon="4.50793">
        <ele>598</ele>
        <time>2013-02-27T13:27:09.000Z</time>
      </trkpt>
      <trkpt lat="44.43652" lon="4.50792">
        <ele>598</ele>
        <time>2013-02-27T13:27:10.000Z</time>
      </trkpt>
      <trkpt lat="44.43653" lon="4.50792">
        <ele>597.59997558594</ele>
        <time>2013-02-27T13:27:11.000Z</time>
      </trkpt>
      <trkpt lat="44.43654" lon="4.50791">
        <ele>597.59997558594</ele>
        <time>2013-02-27T13:27:12.000Z</time>
      </trkpt>
      <trkpt lat="44.43655" lon="4.50791">
        <ele>597.20001220703</ele>
        <time>2013-02-27T13:27:13.000Z</time>
      </trkpt>
      <trkpt lat="44.43657" lon="4.5079">
        <ele>597.20001220703</ele>
        <time>2013-02-27T13:27:14.000Z</time>
      </trkpt>
      <trkpt lat="44.43658" lon="4.5079">
        <ele>597.20001220703</ele>
        <time>2013-02-27T13:27:15.000Z</time>
      </trkpt>
      <trkpt lat="44.43659" lon="4.50789">
        <ele>596.59997558594</ele>
        <time>2013-02-27T13:27:16.000Z</time>
      </trkpt>
      <trkpt lat="44.4366" lon="4.50788">
        <ele>596.59997558594</ele>
        <time>2013-02-27T13:27:17.000Z</time>
      </trkpt>
      <trkpt lat="44.43661" lon="4.50787">
        <ele>596.20001220703</ele>
        <time>2013-02-27T13:27:18.000Z</time>
      </trkpt>
      <trkpt lat="44.43662" lon="4.50787">
        <ele>596.20001220703</ele>
        <time>2013-02-27T13:27:19.000Z</time>
      </trkpt>
      <trkpt lat="44.43663" lon="4.50786">
        <ele>596.20001220703</ele>
        <time>2013-02-27T13:27:20.000Z</time>
      </trkpt>
      <trkpt lat="44.43664" lon="4.50785">
        <ele>596.20001220703</ele>
        <time>2013-02-27T13:27:21.000Z</time>
      </trkpt>
      <trkpt lat="44.43664" lon="4.50784">
        <ele>595.59997558594</ele>
        <time>2013-02-27T13:27:22.000Z</time>
      </trkpt>
      <trkpt lat="44.43665" lon="4.50783">
        <ele>595.59997558594</ele>
        <time>2013-02-27T13:27:23.000Z</time>
      </trkpt>
      <trkpt lat="44.43666" lon="4.50782">
        <ele>595.59997558594</ele>
        <time>2013-02-27T13:27:24.000Z</time>
      </trkpt>
      <trkpt lat="44.43667" lon="4.50782">
        <ele>595.20001220703</ele>
        <time>2013-02-27T13:27:25.000Z</time>
      </trkpt>
      <trkpt lat="44.43668" lon="4.50782">
        <ele>595.20001220703</ele>
        <time>2013-02-27T13:27:26.000Z</time>
      </trkpt>
      <trkpt lat="44.43669" lon="4.50781">
        <ele>594.79998779297</ele>
        <time>2013-02-27T13:27:27.000Z</time>
      </trkpt>
      <trkpt lat="44.4367" lon="4.50781">
        <ele>594.20001220703</ele>
        <time>2013-02-27T13:27:28.000Z</time>
      </trkpt>
      <trkpt lat="44.4367" lon="4.50781">
        <ele>594.20001220703</ele>
        <time>2013-02-27T13:27:29.000Z</time>
      </trkpt>
      <trkpt lat="44.43671" lon="4.50782">
        <ele>594.20001220703</ele>
        <time>2013-02-27T13:27:30.000Z</time>
      </trkpt>
      <trkpt lat="44.43671" lon="4.50783">
        <ele>594.20001220703</ele>
        <time>2013-02-27T13:27:31.000Z</time>
      </trkpt>
      <trkpt lat="44.43671" lon="4.50784">
        <ele>593.79998779297</ele>
        <time>2013-02-27T13:27:32.000Z</time>
      </trkpt>
      <trkpt lat="44.43671" lon="4.50786">
        <ele>593.79998779297</ele>
        <time>2013-02-27T13:27:33.000Z</time>
      </trkpt>
      <trkpt lat="44.4367" lon="4.50786">
        <ele>593.20001220703</ele>
        <time>2013-02-27T13:27:34.000Z</time>
      </trkpt>
      <trkpt lat="44.4367" lon="4.50787">
        <ele>593.20001220703</ele>
        <time>2013-02-27T13:27:35.000Z</time>
      </trkpt>
      <trkpt lat="44.4367" lon="4.50789">
        <ele>592.79998779297</ele>
        <time>2013-02-27T13:27:36.000Z</time>
      </trkpt>
      <trkpt lat="44.43669" lon="4.5079">
        <ele>592.79998779297</ele>
        <time>2013-02-27T13:27:37.000Z</time>
      </trkpt>
      <trkpt lat="44.43669" lon="4.50791">
        <ele>592.79998779297</ele>
        <time>2013-02-27T13:27:38.000Z</time>
      </trkpt>
      <trkpt lat="44.43668" lon="4.50792">
        <ele>592.79998779297</ele>
        <time>2013-02-27T13:27:39.000Z</time>
      </trkpt>
      <trkpt lat="44.43668" lon="4.50793">
        <ele>592.40002441406</ele>
        <time>2013-02-27T13:27:40.000Z</time>
      </trkpt>
      <trkpt lat="44.43668" lon="4.50794">
        <ele>592.40002441406</ele>
        <time>2013-02-27T13:27:41.000Z</time>
      </trkpt>
      <trkpt lat="44.43667" lon="4.50795">
        <ele>591.79998779297</ele>
        <time>2013-02-27T13:27:42.000Z</time>
      </trkpt>
      <trkpt lat="44.43667" lon="4.50797">
        <ele>591.40002441406</ele>
        <time>2013-02-27T13:27:43.000Z</time>
      </trkpt>
      <trkpt lat="44.43666" lon="4.50798">
        <ele>591.40002441406</ele>
        <time>2013-02-27T13:27:44.000Z</time>
      </trkpt>
      <trkpt lat="44.43666" lon="4.50799">
        <ele>590.79998779297</ele>
        <time>2013-02-27T13:27:45.000Z</time>
      </trkpt>
      <trkpt lat="44.43665" lon="4.508">
        <ele>590.79998779297</ele>
        <time>2013-02-27T13:27:46.000Z</time>
      </trkpt>
      <trkpt lat="44.43665" lon="4.50801">
        <ele>590.40002441406</ele>
        <time>2013-02-27T13:27:47.000Z</time>
      </trkpt>
      <trkpt lat="44.43664" lon="4.50802">
        <ele>590.40002441406</ele>
        <time>2013-02-27T13:27:48.000Z</time>
      </trkpt>
      <trkpt lat="44.43663" lon="4.50803">
        <ele>590.40002441406</ele>
        <time>2013-02-27T13:27:49.000Z</time>
      </trkpt>
      <trkpt lat="44.43662" lon="4.50803">
        <ele>590</ele>
        <time>2013-02-27T13:27:50.000Z</time>
      </trkpt>
      <trkpt lat="44.43661" lon="4.50804">
        <ele>589.40002441406</ele>
        <time>2013-02-27T13:27:51.000Z</time>
      </trkpt>
      <trkpt lat="44.43661" lon="4.50805">
        <ele>589.40002441406</ele>
        <time>2013-02-27T13:27:52.000Z</time>
      </trkpt>
      <trkpt lat="44.4366" lon="4.50806">
        <ele>589</ele>
        <time>2013-02-27T13:27:53.000Z</time>
      </trkpt>
      <trkpt lat="44.4366" lon="4.50807">
        <ele>588.40002441406</ele>
        <time>2013-02-27T13:27:54.000Z</time>
      </trkpt>
      <trkpt lat="44.43659" lon="4.50808">
        <ele>588</ele>
        <time>2013-02-27T13:27:55.000Z</time>
      </trkpt>
      <trkpt lat="44.43658" lon="4.50809">
        <ele>587.59997558594</ele>
        <time>2013-02-27T13:27:56.000Z</time>
      </trkpt>
      <trkpt lat="44.43657" lon="4.5081">
        <ele>587.59997558594</ele>
        <time>2013-02-27T13:27:57.000Z</time>
      </trkpt>
      <trkpt lat="44.43656" lon="4.50811">
        <ele>587</ele>
        <time>2013-02-27T13:27:58.000Z</time>
      </trkpt>
      <trkpt lat="44.43655" lon="4.50813">
        <ele>587</ele>
        <time>2013-02-27T13:27:59.000Z</time>
      </trkpt>
      <trkpt lat="44.43655" lon="4.50814">
        <ele>586.59997558594</ele>
        <time>2013-02-27T13:28:00.000Z</time>
      </trkpt>
      <trkpt lat="44.43655" lon="4.50815">
        <ele>586.59997558594</ele>
        <time>2013-02-27T13:28:01.000Z</time>
      </trkpt>
      <trkpt lat="44.43654" lon="4.50816">
        <ele>586.59997558594</ele>
        <time>2013-02-27T13:28:02.000Z</time>
      </trkpt>
      <trkpt lat="44.43654" lon="4.50818">
        <ele>586</ele>
        <time>2013-02-27T13:28:03.000Z</time>
      </trkpt>
      <trkpt lat="44.43654" lon="4.50819">
        <ele>586</ele>
        <time>2013-02-27T13:28:04.000Z</time>
      </trkpt>
      <trkpt lat="44.43654" lon="4.5082">
        <ele>586</ele>
        <time>2013-02-27T13:28:05.000Z</time>
      </trkpt>
      <trkpt lat="44.43654" lon="4.50822">
        <ele>586</ele>
        <time>2013-02-27T13:28:06.000Z</time>
      </trkpt>
      <trkpt lat="44.43654" lon="4.50823">
        <ele>586</ele>
        <time>2013-02-27T13:28:07.000Z</time>
      </trkpt>
      <trkpt lat="44.43654" lon="4.50824">
        <ele>586</ele>
        <time>2013-02-27T13:28:08.000Z</time>
      </trkpt>
      <trkpt lat="44.43654" lon="4.50825">
        <ele>586.59997558594</ele>
        <time>2013-02-27T13:28:09.000Z</time>
      </trkpt>
      <trkpt lat="44.43655" lon="4.50827">
        <ele>587</ele>
        <time>2013-02-27T13:28:10.000Z</time>
      </trkpt>
      <trkpt lat="44.43656" lon="4.50827">
        <ele>587</ele>
        <time>2013-02-27T13:28:11.000Z</time>
      </trkpt>
      <trkpt lat="44.43657" lon="4.50828">
        <ele>587</ele>
        <time>2013-02-27T13:28:12.000Z</time>
      </trkpt>
      <trkpt lat="44.43658" lon="4.50828">
        <ele>587</ele>
        <time>2013-02-27T13:28:13.000Z</time>
      </trkpt>
      <trkpt lat="44.43658" lon="4.50827">
        <ele>587</ele>
        <time>2013-02-27T13:28:14.000Z</time>
      </trkpt>
      <trkpt lat="44.43659" lon="4.50827">
        <ele>587</ele>
        <time>2013-02-27T13:28:15.000Z</time>
      </trkpt>
      <trkpt lat="44.4366" lon="4.50826">
        <ele>586.59997558594</ele>
        <time>2013-02-27T13:28:16.000Z</time>
      </trkpt>
      <trkpt lat="44.4366" lon="4.50826">
        <ele>586.59997558594</ele>
        <time>2013-02-27T13:28:17.000Z</time>
      </trkpt>
      <trkpt lat="44.43661" lon="4.50825">
        <ele>586</ele>
        <time>2013-02-27T13:28:18.000Z</time>
      </trkpt>
      <trkpt lat="44.43662" lon="4.50825">
        <ele>586</ele>
        <time>2013-02-27T13:28:19.000Z</time>
      </trkpt>
      <trkpt lat="44.43663" lon="4.50824">
        <ele>585.59997558594</ele>
        <time>2013-02-27T13:28:20.000Z</time>
      </trkpt>
      <trkpt lat="44.43663" lon="4.50824">
        <ele>585.59997558594</ele>
        <time>2013-02-27T13:28:21.000Z</time>
      </trkpt>
      <trkpt lat="44.43664" lon="4.50823">
        <ele>585.59997558594</ele>
        <time>2013-02-27T13:28:22.000Z</time>
      </trkpt>
      <trkpt lat="44.43665" lon="4.50823">
        <ele>585.59997558594</ele>
        <time>2013-02-27T13:28:23.000Z</time>
      </trkpt>
      <trkpt lat="44.43666" lon="4.50822">
        <ele>585</ele>
        <time>2013-02-27T13:28:24.000Z</time>
      </trkpt>
      <trkpt lat="44.43667" lon="4.50822">
        <ele>585</ele>
        <time>2013-02-27T13:28:25.000Z</time>
      </trkpt>
      <trkpt lat="44.43668" lon="4.50822">
        <ele>584.59997558594</ele>
        <time>2013-02-27T13:28:26.000Z</time>
      </trkpt>
      <trkpt lat="44.43669" lon="4.50822">
        <ele>584.59997558594</ele>
        <time>2013-02-27T13:28:27.000Z</time>
      </trkpt>
      <trkpt lat="44.4367" lon="4.50822">
        <ele>584.59997558594</ele>
        <time>2013-02-27T13:28:28.000Z</time>
      </trkpt>
      <trkpt lat="44.43671" lon="4.50822">
        <ele>584.59997558594</ele>
        <time>2013-02-27T13:28:29.000Z</time>
      </trkpt>
      <trkpt lat="44.43672" lon="4.50822">
        <ele>584.59997558594</ele>
        <time>2013-02-27T13:28:30.000Z</time>
      </trkpt>
      <trkpt lat="44.43673" lon="4.50823">
        <ele>584.59997558594</ele>
        <time>2013-02-27T13:28:31.000Z</time>
      </trkpt>
      <trkpt lat="44.43674" lon="4.50823">
        <ele>584.20001220703</ele>
        <time>2013-02-27T13:28:32.000Z</time>
      </trkpt>
      <trkpt lat="44.43674" lon="4.50823">
        <ele>584.20001220703</ele>
        <time>2013-02-27T13:28:33.000Z</time>
      </trkpt>
      <trkpt lat="44.43675" lon="4.50823">
        <ele>584.20001220703</ele>
        <time>2013-02-27T13:28:34.000Z</time>
      </trkpt>
      <trkpt lat="44.43676" lon="4.50824">
        <ele>584.20001220703</ele>
        <time>2013-02-27T13:28:35.000Z</time>
      </trkpt>
      <trkpt lat="44.43677" lon="4.50824">
        <ele>583.59997558594</ele>
        <time>2013-02-27T13:28:36.000Z</time>
      </trkpt>
      <trkpt lat="44.43678" lon="4.50824">
        <ele>583.59997558594</ele>
        <time>2013-02-27T13:28:37.000Z</time>
      </trkpt>
      <trkpt lat="44.43679" lon="4.50824">
        <ele>583.59997558594</ele>
        <time>2013-02-27T13:28:38.000Z</time>
      </trkpt>
      <trkpt lat="44.4368" lon="4.50825">
        <ele>583.59997558594</ele>
        <time>2013-02-27T13:28:39.000Z</time>
      </trkpt>
      <trkpt lat="44.43681" lon="4.50825">
        <ele>583.59997558594</ele>
        <time>2013-02-27T13:28:40.000Z</time>
      </trkpt>
      <trkpt lat="44.43682" lon="4.50825">
        <ele>583.20001220703</ele>
        <time>2013-02-27T13:28:41.000Z</time>
      </trkpt>
      <trkpt lat="44.43683" lon="4.50826">
        <ele>583.20001220703</ele>
        <time>2013-02-27T13:28:42.000Z</time>
      </trkpt>
      <trkpt lat="44.43683" lon="4.50826">
        <ele>583.20001220703</ele>
        <time>2013-02-27T13:28:43.000Z</time>
      </trkpt>
      <trkpt lat="44.43684" lon="4.50826">
        <ele>583.20001220703</ele>
        <time>2013-02-27T13:28:44.000Z</time>
      </trkpt>
      <trkpt lat="44.43685" lon="4.50826">
        <ele>583.20001220703</ele>
        <time>2013-02-27T13:28:45.000Z</time>
      </trkpt>
      <trkpt lat="44.43686" lon="4.50826">
        <ele>583.20001220703</ele>
        <time>2013-02-27T13:28:46.000Z</time>
      </trkpt>
      <trkpt lat="44.43687" lon="4.50827">
        <ele>582.59997558594</ele>
        <time>2013-02-27T13:28:47.000Z</time>
      </trkpt>
      <trkpt lat="44.43688" lon="4.50827">
        <ele>582.59997558594</ele>
        <time>2013-02-27T13:28:48.000Z</time>
      </trkpt>
      <trkpt lat="44.43689" lon="4.50827">
        <ele>582.59997558594</ele>
        <time>2013-02-27T13:28:49.000Z</time>
      </trkpt>
      <trkpt lat="44.4369" lon="4.50827">
        <ele>582.59997558594</ele>
        <time>2013-02-27T13:28:50.000Z</time>
      </trkpt>
      <trkpt lat="44.43691" lon="4.50827">
        <ele>582.20001220703</ele>
        <time>2013-02-27T13:28:51.000Z</time>
      </trkpt>
      <trkpt lat="44.43692" lon="4.50828">
        <ele>582.20001220703</ele>
        <time>2013-02-27T13:28:52.000Z</time>
      </trkpt>
      <trkpt lat="44.43693" lon="4.50828">
        <ele>582.20001220703</ele>
        <time>2013-02-27T13:28:53.000Z</time>
      </trkpt>
      <trkpt lat="44.43694" lon="4.50828">
        <ele>581.79998779297</ele>
        <time>2013-02-27T13:28:54.000Z</time>
      </trkpt>
      <trkpt lat="44.43695" lon="4.50828">
        <ele>581.79998779297</ele>
        <time>2013-02-27T13:28:55.000Z</time>
      </trkpt>
      <trkpt lat="44.43696" lon="4.50829">
        <ele>581.79998779297</ele>
        <time>2013-02-27T13:28:56.000Z</time>
      </trkpt>
      <trkpt lat="44.43697" lon="4.50829">
        <ele>581.20001220703</ele>
        <time>2013-02-27T13:28:57.000Z</time>
      </trkpt>
      <trkpt lat="44.43698" lon="4.50829">
        <ele>581.20001220703</ele>
        <time>2013-02-27T13:28:58.000Z</time>
      </trkpt>
      <trkpt lat="44.43699" lon="4.5083">
        <ele>581.20001220703</ele>
        <time>2013-02-27T13:28:59.000Z</time>
      </trkpt>
      <trkpt lat="44.437" lon="4.5083">
        <ele>581.20001220703</ele>
        <time>2013-02-27T13:29:00.000Z</time>
      </trkpt>
      <trkpt lat="44.43701" lon="4.5083">
        <ele>581.20001220703</ele>
        <time>2013-02-27T13:29:01.000Z</time>
      </trkpt>
      <trkpt lat="44.43703" lon="4.50831">
        <ele>581.20001220703</ele>
        <time>2013-02-27T13:29:02.000Z</time>
      </trkpt>
      <trkpt lat="44.43704" lon="4.50831">
        <ele>581.20001220703</ele>
        <time>2013-02-27T13:29:03.000Z</time>
      </trkpt>
      <trkpt lat="44.43705" lon="4.50831">
        <ele>581.20001220703</ele>
        <time>2013-02-27T13:29:04.000Z</time>
      </trkpt>
      <trkpt lat="44.43706" lon="4.50832">
        <ele>580.79998779297</ele>
        <time>2013-02-27T13:29:05.000Z</time>
      </trkpt>
      <trkpt lat="44.43707" lon="4.50832">
        <ele>581.20001220703</ele>
        <time>2013-02-27T13:29:06.000Z</time>
      </trkpt>
      <trkpt lat="44.43708" lon="4.50832">
        <ele>580.79998779297</ele>
        <time>2013-02-27T13:29:07.000Z</time>
      </trkpt>
      <trkpt lat="44.4371" lon="4.50833">
        <ele>580.79998779297</ele>
        <time>2013-02-27T13:29:08.000Z</time>
      </trkpt>
      <trkpt lat="44.43711" lon="4.50833">
        <ele>580.79998779297</ele>
        <time>2013-02-27T13:29:09.000Z</time>
      </trkpt>
      <trkpt lat="44.43712" lon="4.50833">
        <ele>580.79998779297</ele>
        <time>2013-02-27T13:29:10.000Z</time>
      </trkpt>
      <trkpt lat="44.43712" lon="4.50834">
        <ele>580.79998779297</ele>
        <time>2013-02-27T13:29:11.000Z</time>
      </trkpt>
      <trkpt lat="44.43713" lon="4.50835">
        <ele>580.79998779297</ele>
        <time>2013-02-27T13:29:12.000Z</time>
      </trkpt>
      <trkpt lat="44.43714" lon="4.50836">
        <ele>580.79998779297</ele>
        <time>2013-02-27T13:29:13.000Z</time>
      </trkpt>
      <trkpt lat="44.43714" lon="4.50836">
        <ele>581.20001220703</ele>
        <time>2013-02-27T13:29:14.000Z</time>
      </trkpt>
      <trkpt lat="44.43714" lon="4.50836">
        <ele>581.20001220703</ele>
        <time>2013-02-27T13:29:15.000Z</time>
      </trkpt>
      <trkpt lat="44.43715" lon="4.50836">
        <ele>581.20001220703</ele>
        <time>2013-02-27T13:29:16.000Z</time>
      </trkpt>
      <trkpt lat="44.43716" lon="4.50836">
        <ele>581.20001220703</ele>
        <time>2013-02-27T13:29:17.000Z</time>
      </trkpt>
      <trkpt lat="44.43717" lon="4.50836">
        <ele>580.79998779297</ele>
        <time>2013-02-27T13:29:18.000Z</time>
      </trkpt>
      <trkpt lat="44.43718" lon="4.50836">
        <ele>580.79998779297</ele>
        <time>2013-02-27T13:29:19.000Z</time>
      </trkpt>
      <trkpt lat="44.43719" lon="4.50837">
        <ele>580.79998779297</ele>
        <time>2013-02-27T13:29:20.000Z</time>
      </trkpt>
      <trkpt lat="44.4372" lon="4.50837">
        <ele>580.79998779297</ele>
        <time>2013-02-27T13:29:21.000Z</time>
      </trkpt>
      <trkpt lat="44.43721" lon="4.50838">
        <ele>580.20001220703</ele>
        <time>2013-02-27T13:29:22.000Z</time>
      </trkpt>
      <trkpt lat="44.43722" lon="4.50839">
        <ele>580.79998779297</ele>
        <time>2013-02-27T13:29:23.000Z</time>
      </trkpt>
      <trkpt lat="44.43723" lon="4.50839">
        <ele>580.20001220703</ele>
        <time>2013-02-27T13:29:24.000Z</time>
      </trkpt>
      <trkpt lat="44.43724" lon="4.50839">
        <ele>580.20001220703</ele>
        <time>2013-02-27T13:29:25.000Z</time>
      </trkpt>
      <trkpt lat="44.43725" lon="4.5084">
        <ele>580.20001220703</ele>
        <time>2013-02-27T13:29:26.000Z</time>
      </trkpt>
      <trkpt lat="44.43726" lon="4.50841">
        <ele>580.20001220703</ele>
        <time>2013-02-27T13:29:27.000Z</time>
      </trkpt>
      <trkpt lat="44.43727" lon="4.50842">
        <ele>580.20001220703</ele>
        <time>2013-02-27T13:29:28.000Z</time>
      </trkpt>
      <trkpt lat="44.43728" lon="4.50843">
        <ele>579.79998779297</ele>
        <time>2013-02-27T13:29:29.000Z</time>
      </trkpt>
      <trkpt lat="44.43729" lon="4.50843">
        <ele>579.79998779297</ele>
        <time>2013-02-27T13:29:30.000Z</time>
      </trkpt>
      <trkpt lat="44.4373" lon="4.50844">
        <ele>579.79998779297</ele>
        <time>2013-02-27T13:29:31.000Z</time>
      </trkpt>
      <trkpt lat="44.43731" lon="4.50844">
        <ele>579.79998779297</ele>
        <time>2013-02-27T13:29:32.000Z</time>
      </trkpt>
      <trkpt lat="44.43732" lon="4.50844">
        <ele>579.40002441406</ele>
        <time>2013-02-27T13:29:33.000Z</time>
      </trkpt>
      <trkpt lat="44.43733" lon="4.50843">
        <ele>579.40002441406</ele>
        <time>2013-02-27T13:29:34.000Z</time>
      </trkpt>
      <trkpt lat="44.43734" lon="4.50843">
        <ele>579.40002441406</ele>
        <time>2013-02-27T13:29:35.000Z</time>
      </trkpt>
      <trkpt lat="44.43736" lon="4.50843">
        <ele>578.79998779297</ele>
        <time>2013-02-27T13:29:36.000Z</time>
      </trkpt>
      <trkpt lat="44.43737" lon="4.50843">
        <ele>578.79998779297</ele>
        <time>2013-02-27T13:29:37.000Z</time>
      </trkpt>
      <trkpt lat="44.43738" lon="4.50843">
        <ele>578.79998779297</ele>
        <time>2013-02-27T13:29:38.000Z</time>
      </trkpt>
      <trkpt lat="44.43739" lon="4.50843">
        <ele>578.79998779297</ele>
        <time>2013-02-27T13:29:39.000Z</time>
      </trkpt>
      <trkpt lat="44.4374" lon="4.50843">
        <ele>578.40002441406</ele>
        <time>2013-02-27T13:29:40.000Z</time>
      </trkpt>
      <trkpt lat="44.43741" lon="4.50843">
        <ele>578.40002441406</ele>
        <time>2013-02-27T13:29:41.000Z</time>
      </trkpt>
      <trkpt lat="44.43742" lon="4.50843">
        <ele>577.79998779297</ele>
        <time>2013-02-27T13:29:42.000Z</time>
      </trkpt>
      <trkpt lat="44.43743" lon="4.50843">
        <ele>577.79998779297</ele>
        <time>2013-02-27T13:29:43.000Z</time>
      </trkpt>
      <trkpt lat="44.43744" lon="4.50843">
        <ele>577.79998779297</ele>
        <time>2013-02-27T13:29:44.000Z</time>
      </trkpt>
      <trkpt lat="44.43745" lon="4.50843">
        <ele>578.40002441406</ele>
        <time>2013-02-27T13:29:45.000Z</time>
      </trkpt>
      <trkpt lat="44.43745" lon="4.50843">
        <ele>578.40002441406</ele>
        <time>2013-02-27T13:29:46.000Z</time>
      </trkpt>
      <trkpt lat="44.43745" lon="4.50842">
        <ele>578.40002441406</ele>
        <time>2013-02-27T13:29:47.000Z</time>
      </trkpt>
      <trkpt lat="44.43745" lon="4.50842">
        <ele>578.40002441406</ele>
        <time>2013-02-27T13:29:48.000Z</time>
      </trkpt>
      <trkpt lat="44.43746" lon="4.50842">
        <ele>578.79998779297</ele>
        <time>2013-02-27T13:29:49.000Z</time>
      </trkpt>
      <trkpt lat="44.43746" lon="4.50842">
        <ele>578.79998779297</ele>
        <time>2013-02-27T13:29:50.000Z</time>
      </trkpt>
      <trkpt lat="44.43746" lon="4.50842">
        <ele>578.79998779297</ele>
        <time>2013-02-27T13:29:51.000Z</time>
      </trkpt>
      <trkpt lat="44.43746" lon="4.50842">
        <ele>578.79998779297</ele>
        <time>2013-02-27T13:29:52.000Z</time>
      </trkpt>
      <trkpt lat="44.43746" lon="4.50841">
        <ele>578.79998779297</ele>
        <time>2013-02-27T13:29:53.000Z</time>
      </trkpt>
      <trkpt lat="44.43746" lon="4.5084">
        <ele>578.40002441406</ele>
        <time>2013-02-27T13:29:54.000Z</time>
      </trkpt>
      <trkpt lat="44.43746" lon="4.50839">
        <ele>578.40002441406</ele>
        <time>2013-02-27T13:29:55.000Z</time>
      </trkpt>
      <trkpt lat="44.43746" lon="4.50838">
        <ele>578.40002441406</ele>
        <time>2013-02-27T13:29:56.000Z</time>
      </trkpt>
      <trkpt lat="44.43747" lon="4.50836">
        <ele>577.79998779297</ele>
        <time>2013-02-27T13:29:57.000Z</time>
      </trkpt>
      <trkpt lat="44.43747" lon="4.50835">
        <ele>577.79998779297</ele>
        <time>2013-02-27T13:29:58.000Z</time>
      </trkpt>
      <trkpt lat="44.43747" lon="4.50833">
        <ele>577.40002441406</ele>
        <time>2013-02-27T13:29:59.000Z</time>
      </trkpt>
      <trkpt lat="44.43748" lon="4.50832">
        <ele>577.40002441406</ele>
        <time>2013-02-27T13:30:00.000Z</time>
      </trkpt>
      <trkpt lat="44.43748" lon="4.50831">
        <ele>577.40002441406</ele>
        <time>2013-02-27T13:30:01.000Z</time>
      </trkpt>
      <trkpt lat="44.43748" lon="4.50831">
        <ele>577.40002441406</ele>
        <time>2013-02-27T13:30:02.000Z</time>
      </trkpt>
      <trkpt lat="44.43748" lon="4.50831">
        <ele>577.40002441406</ele>
        <time>2013-02-27T13:30:03.000Z</time>
      </trkpt>
      <trkpt lat="44.43748" lon="4.50831">
        <ele>577.40002441406</ele>
        <time>2013-02-27T13:30:04.000Z</time>
      </trkpt>
      <trkpt lat="44.43748" lon="4.50831">
        <ele>577.40002441406</ele>
        <time>2013-02-27T13:30:05.000Z</time>
      </trkpt>
      <trkpt lat="44.43748" lon="4.50831">
        <ele>577.40002441406</ele>
        <time>2013-02-27T13:30:06.000Z</time>
      </trkpt>
      <trkpt lat="44.43748" lon="4.5083">
        <ele>577.40002441406</ele>
        <time>2013-02-27T13:30:07.000Z</time>
      </trkpt>
      <trkpt lat="44.43749" lon="4.5083">
        <ele>577.40002441406</ele>
        <time>2013-02-27T13:30:08.000Z</time>
      </trkpt>
      <trkpt lat="44.4375" lon="4.50829">
        <ele>577.40002441406</ele>
        <time>2013-02-27T13:30:09.000Z</time>
      </trkpt>
      <trkpt lat="44.4375" lon="4.50827">
        <ele>577.40002441406</ele>
        <time>2013-02-27T13:30:10.000Z</time>
      </trkpt>
      <trkpt lat="44.43751" lon="4.50826">
        <ele>577.40002441406</ele>
        <time>2013-02-27T13:30:11.000Z</time>
      </trkpt>
      <trkpt lat="44.43752" lon="4.50825">
        <ele>577</ele>
        <time>2013-02-27T13:30:12.000Z</time>
      </trkpt>
      <trkpt lat="44.43753" lon="4.50824">
        <ele>577</ele>
        <time>2013-02-27T13:30:13.000Z</time>
      </trkpt>
      <trkpt lat="44.43754" lon="4.50824">
        <ele>577</ele>
        <time>2013-02-27T13:30:14.000Z</time>
      </trkpt>
      <trkpt lat="44.43755" lon="4.50823">
        <ele>576.40002441406</ele>
        <time>2013-02-27T13:30:15.000Z</time>
      </trkpt>
      <trkpt lat="44.43756" lon="4.50823">
        <ele>576</ele>
        <time>2013-02-27T13:30:16.000Z</time>
      </trkpt>
      <trkpt lat="44.43757" lon="4.50822">
        <ele>576</ele>
        <time>2013-02-27T13:30:17.000Z</time>
      </trkpt>
      <trkpt lat="44.43758" lon="4.50822">
        <ele>576</ele>
        <time>2013-02-27T13:30:18.000Z</time>
      </trkpt>
      <trkpt lat="44.43759" lon="4.50822">
        <ele>576</ele>
        <time>2013-02-27T13:30:19.000Z</time>
      </trkpt>
      <trkpt lat="44.43759" lon="4.50821">
        <ele>576</ele>
        <time>2013-02-27T13:30:20.000Z</time>
      </trkpt>
      <trkpt lat="44.4376" lon="4.50821">
        <ele>576</ele>
        <time>2013-02-27T13:30:21.000Z</time>
      </trkpt>
      <trkpt lat="44.43761" lon="4.5082">
        <ele>576</ele>
        <time>2013-02-27T13:30:22.000Z</time>
      </trkpt>
      <trkpt lat="44.43762" lon="4.5082">
        <ele>576</ele>
        <time>2013-02-27T13:30:23.000Z</time>
      </trkpt>
      <trkpt lat="44.43762" lon="4.50819">
        <ele>576</ele>
        <time>2013-02-27T13:30:24.000Z</time>
      </trkpt>
      <trkpt lat="44.43763" lon="4.50818">
        <ele>575.40002441406</ele>
        <time>2013-02-27T13:30:25.000Z</time>
      </trkpt>
      <trkpt lat="44.43764" lon="4.50817">
        <ele>575</ele>
        <time>2013-02-27T13:30:26.000Z</time>
      </trkpt>
      <trkpt lat="44.43764" lon="4.50815">
        <ele>575</ele>
        <time>2013-02-27T13:30:27.000Z</time>
      </trkpt>
      <trkpt lat="44.43765" lon="4.50814">
        <ele>574.59997558594</ele>
        <time>2013-02-27T13:30:28.000Z</time>
      </trkpt>
      <trkpt lat="44.43766" lon="4.50813">
        <ele>574.59997558594</ele>
        <time>2013-02-27T13:30:29.000Z</time>
      </trkpt>
      <trkpt lat="44.43767" lon="4.50811">
        <ele>574</ele>
        <time>2013-02-27T13:30:30.000Z</time>
      </trkpt>
      <trkpt lat="44.43767" lon="4.5081">
        <ele>573.59997558594</ele>
        <time>2013-02-27T13:30:31.000Z</time>
      </trkpt>
      <trkpt lat="44.43768" lon="4.50809">
        <ele>573</ele>
        <time>2013-02-27T13:30:32.000Z</time>
      </trkpt>
      <trkpt lat="44.43769" lon="4.50808">
        <ele>572.59997558594</ele>
        <time>2013-02-27T13:30:33.000Z</time>
      </trkpt>
      <trkpt lat="44.4377" lon="4.50807">
        <ele>572.20001220703</ele>
        <time>2013-02-27T13:30:34.000Z</time>
      </trkpt>
      <trkpt lat="44.43771" lon="4.50806">
        <ele>571.59997558594</ele>
        <time>2013-02-27T13:30:35.000Z</time>
      </trkpt>
      <trkpt lat="44.43771" lon="4.50804">
        <ele>571.20001220703</ele>
        <time>2013-02-27T13:30:36.000Z</time>
      </trkpt>
      <trkpt lat="44.43772" lon="4.50803">
        <ele>570.59997558594</ele>
        <time>2013-02-27T13:30:37.000Z</time>
      </trkpt>
      <trkpt lat="44.43772" lon="4.50802">
        <ele>570.59997558594</ele>
        <time>2013-02-27T13:30:38.000Z</time>
      </trkpt>
      <trkpt lat="44.43773" lon="4.508">
        <ele>570.20001220703</ele>
        <time>2013-02-27T13:30:39.000Z</time>
      </trkpt>
      <trkpt lat="44.43773" lon="4.50799">
        <ele>570.20001220703</ele>
        <time>2013-02-27T13:30:40.000Z</time>
      </trkpt>
      <trkpt lat="44.43774" lon="4.50798">
        <ele>569.79998779297</ele>
        <time>2013-02-27T13:30:41.000Z</time>
      </trkpt>
      <trkpt lat="44.43775" lon="4.50796">
        <ele>569.79998779297</ele>
        <time>2013-02-27T13:30:42.000Z</time>
      </trkpt>
      <trkpt lat="44.43776" lon="4.50795">
        <ele>569.20001220703</ele>
        <time>2013-02-27T13:30:43.000Z</time>
      </trkpt>
      <trkpt lat="44.43776" lon="4.50794">
        <ele>568.79998779297</ele>
        <time>2013-02-27T13:30:44.000Z</time>
      </trkpt>
      <trkpt lat="44.43777" lon="4.50793">
        <ele>569.20001220703</ele>
        <time>2013-02-27T13:30:45.000Z</time>
      </trkpt>
      <trkpt lat="44.43778" lon="4.50791">
        <ele>568.79998779297</ele>
        <time>2013-02-27T13:30:46.000Z</time>
      </trkpt>
      <trkpt lat="44.43778" lon="4.5079">
        <ele>568.79998779297</ele>
        <time>2013-02-27T13:30:47.000Z</time>
      </trkpt>
      <trkpt lat="44.43779" lon="4.50789">
        <ele>568.20001220703</ele>
        <time>2013-02-27T13:30:48.000Z</time>
      </trkpt>
      <trkpt lat="44.43779" lon="4.50787">
        <ele>567.40002441406</ele>
        <time>2013-02-27T13:30:49.000Z</time>
      </trkpt>
      <trkpt lat="44.4378" lon="4.50786">
        <ele>566.40002441406</ele>
        <time>2013-02-27T13:30:50.000Z</time>
      </trkpt>
      <trkpt lat="44.43781" lon="4.50785">
        <ele>565.79998779297</ele>
        <time>2013-02-27T13:30:51.000Z</time>
      </trkpt>
      <trkpt lat="44.43781" lon="4.50784">
        <ele>565.79998779297</ele>
        <time>2013-02-27T13:30:52.000Z</time>
      </trkpt>
      <trkpt lat="44.43782" lon="4.50782">
        <ele>565.40002441406</ele>
        <time>2013-02-27T13:30:53.000Z</time>
      </trkpt>
      <trkpt lat="44.43782" lon="4.50781">
        <ele>565</ele>
        <time>2013-02-27T13:30:54.000Z</time>
      </trkpt>
      <trkpt lat="44.43783" lon="4.50779">
        <ele>564.40002441406</ele>
        <time>2013-02-27T13:30:55.000Z</time>
      </trkpt>
      <trkpt lat="44.43783" lon="4.50778">
        <ele>564.40002441406</ele>
        <time>2013-02-27T13:30:56.000Z</time>
      </trkpt>
      <trkpt lat="44.43784" lon="4.50776">
        <ele>564</ele>
        <time>2013-02-27T13:30:57.000Z</time>
      </trkpt>
      <trkpt lat="44.43784" lon="4.50775">
        <ele>563.40002441406</ele>
        <time>2013-02-27T13:30:58.000Z</time>
      </trkpt>
      <trkpt lat="44.43785" lon="4.50774">
        <ele>563.40002441406</ele>
        <time>2013-02-27T13:30:59.000Z</time>
      </trkpt>
      <trkpt lat="44.43786" lon="4.50772">
        <ele>563.40002441406</ele>
        <time>2013-02-27T13:31:00.000Z</time>
      </trkpt>
      <trkpt lat="44.43786" lon="4.50771">
        <ele>563.40002441406</ele>
        <time>2013-02-27T13:31:01.000Z</time>
      </trkpt>
      <trkpt lat="44.43787" lon="4.5077">
        <ele>563.40002441406</ele>
        <time>2013-02-27T13:31:02.000Z</time>
      </trkpt>
      <trkpt lat="44.43788" lon="4.50768">
        <ele>563</ele>
        <time>2013-02-27T13:31:03.000Z</time>
      </trkpt>
      <trkpt lat="44.43788" lon="4.50766">
        <ele>562.59997558594</ele>
        <time>2013-02-27T13:31:04.000Z</time>
      </trkpt>
      <trkpt lat="44.43789" lon="4.50765">
        <ele>562.59997558594</ele>
        <time>2013-02-27T13:31:05.000Z</time>
      </trkpt>
      <trkpt lat="44.43789" lon="4.50764">
        <ele>562</ele>
        <time>2013-02-27T13:31:06.000Z</time>
      </trkpt>
      <trkpt lat="44.43789" lon="4.50763">
        <ele>561.59997558594</ele>
        <time>2013-02-27T13:31:07.000Z</time>
      </trkpt>
      <trkpt lat="44.4379" lon="4.50761">
        <ele>561.59997558594</ele>
        <time>2013-02-27T13:31:08.000Z</time>
      </trkpt>
      <trkpt lat="44.4379" lon="4.5076">
        <ele>561.59997558594</ele>
        <time>2013-02-27T13:31:09.000Z</time>
      </trkpt>
      <trkpt lat="44.43791" lon="4.50759">
        <ele>561</ele>
        <time>2013-02-27T13:31:10.000Z</time>
      </trkpt>
      <trkpt lat="44.43791" lon="4.50757">
        <ele>561</ele>
        <time>2013-02-27T13:31:11.000Z</time>
      </trkpt>
      <trkpt lat="44.43792" lon="4.50756">
        <ele>560.59997558594</ele>
        <time>2013-02-27T13:31:12.000Z</time>
      </trkpt>
      <trkpt lat="44.43793" lon="4.50755">
        <ele>560.59997558594</ele>
        <time>2013-02-27T13:31:13.000Z</time>
      </trkpt>
      <trkpt lat="44.43793" lon="4.50753">
        <ele>560.20001220703</ele>
        <time>2013-02-27T13:31:14.000Z</time>
      </trkpt>
      <trkpt lat="44.43794" lon="4.50752">
        <ele>560.20001220703</ele>
        <time>2013-02-27T13:31:15.000Z</time>
      </trkpt>
      <trkpt lat="44.43794" lon="4.5075">
        <ele>559.59997558594</ele>
        <time>2013-02-27T13:31:16.000Z</time>
      </trkpt>
      <trkpt lat="44.43795" lon="4.50749">
        <ele>559.59997558594</ele>
        <time>2013-02-27T13:31:17.000Z</time>
      </trkpt>
      <trkpt lat="44.43795" lon="4.50748">
        <ele>559.20001220703</ele>
        <time>2013-02-27T13:31:18.000Z</time>
      </trkpt>
      <trkpt lat="44.43796" lon="4.50746">
        <ele>559.20001220703</ele>
        <time>2013-02-27T13:31:19.000Z</time>
      </trkpt>
      <trkpt lat="44.43796" lon="4.50745">
        <ele>558.59997558594</ele>
        <time>2013-02-27T13:31:20.000Z</time>
      </trkpt>
      <trkpt lat="44.43796" lon="4.50743">
        <ele>558.59997558594</ele>
        <time>2013-02-27T13:31:21.000Z</time>
      </trkpt>
      <trkpt lat="44.43797" lon="4.50741">
        <ele>558.20001220703</ele>
        <time>2013-02-27T13:31:22.000Z</time>
      </trkpt>
      <trkpt lat="44.43797" lon="4.5074">
        <ele>558.20001220703</ele>
        <time>2013-02-27T13:31:23.000Z</time>
      </trkpt>
      <trkpt lat="44.43798" lon="4.50738">
        <ele>558.20001220703</ele>
        <time>2013-02-27T13:31:24.000Z</time>
      </trkpt>
      <trkpt lat="44.43798" lon="4.50737">
        <ele>557.79998779297</ele>
        <time>2013-02-27T13:31:25.000Z</time>
      </trkpt>
      <trkpt lat="44.43799" lon="4.50736">
        <ele>557.79998779297</ele>
        <time>2013-02-27T13:31:26.000Z</time>
      </trkpt>
      <trkpt lat="44.43799" lon="4.50735">
        <ele>557.79998779297</ele>
        <time>2013-02-27T13:31:27.000Z</time>
      </trkpt>
      <trkpt lat="44.438" lon="4.50733">
        <ele>558.59997558594</ele>
        <time>2013-02-27T13:31:28.000Z</time>
      </trkpt>
      <trkpt lat="44.43801" lon="4.50732">
        <ele>558.59997558594</ele>
        <time>2013-02-27T13:31:29.000Z</time>
      </trkpt>
      <trkpt lat="44.43802" lon="4.50732">
        <ele>558.59997558594</ele>
        <time>2013-02-27T13:31:30.000Z</time>
      </trkpt>
      <trkpt lat="44.43803" lon="4.50731">
        <ele>558.59997558594</ele>
        <time>2013-02-27T13:31:31.000Z</time>
      </trkpt>
      <trkpt lat="44.43804" lon="4.5073">
        <ele>558.59997558594</ele>
        <time>2013-02-27T13:31:32.000Z</time>
      </trkpt>
      <trkpt lat="44.43804" lon="4.50729">
        <ele>558.20001220703</ele>
        <time>2013-02-27T13:31:33.000Z</time>
      </trkpt>
      <trkpt lat="44.43805" lon="4.50728">
        <ele>558.20001220703</ele>
        <time>2013-02-27T13:31:34.000Z</time>
      </trkpt>
      <trkpt lat="44.43806" lon="4.50727">
        <ele>558.20001220703</ele>
        <time>2013-02-27T13:31:35.000Z</time>
      </trkpt>
      <trkpt lat="44.43807" lon="4.50726">
        <ele>558.20001220703</ele>
        <time>2013-02-27T13:31:36.000Z</time>
      </trkpt>
      <trkpt lat="44.43808" lon="4.50726">
        <ele>558.20001220703</ele>
        <time>2013-02-27T13:31:37.000Z</time>
      </trkpt>
      <trkpt lat="44.43809" lon="4.50725">
        <ele>557.79998779297</ele>
        <time>2013-02-27T13:31:38.000Z</time>
      </trkpt>
      <trkpt lat="44.43809" lon="4.50725">
        <ele>557.79998779297</ele>
        <time>2013-02-27T13:31:39.000Z</time>
      </trkpt>
      <trkpt lat="44.4381" lon="4.50724">
        <ele>558.20001220703</ele>
        <time>2013-02-27T13:31:40.000Z</time>
      </trkpt>
      <trkpt lat="44.43811" lon="4.50723">
        <ele>558.59997558594</ele>
        <time>2013-02-27T13:31:41.000Z</time>
      </trkpt>
      <trkpt lat="44.43812" lon="4.50723">
        <ele>558.59997558594</ele>
        <time>2013-02-27T13:31:42.000Z</time>
      </trkpt>
      <trkpt lat="44.43812" lon="4.50722">
        <ele>559.20001220703</ele>
        <time>2013-02-27T13:31:43.000Z</time>
      </trkpt>
      <trkpt lat="44.43813" lon="4.50722">
        <ele>559.20001220703</ele>
        <time>2013-02-27T13:31:44.000Z</time>
      </trkpt>
      <trkpt lat="44.43814" lon="4.50722">
        <ele>559.20001220703</ele>
        <time>2013-02-27T13:31:45.000Z</time>
      </trkpt>
      <trkpt lat="44.43815" lon="4.50721">
        <ele>559.59997558594</ele>
        <time>2013-02-27T13:31:46.000Z</time>
      </trkpt>
      <trkpt lat="44.43816" lon="4.50721">
        <ele>559.59997558594</ele>
        <time>2013-02-27T13:31:47.000Z</time>
      </trkpt>
      <trkpt lat="44.43816" lon="4.5072">
        <ele>559.59997558594</ele>
        <time>2013-02-27T13:31:48.000Z</time>
      </trkpt>
      <trkpt lat="44.43817" lon="4.5072">
        <ele>559.59997558594</ele>
        <time>2013-02-27T13:31:49.000Z</time>
      </trkpt>
      <trkpt lat="44.43818" lon="4.50719">
        <ele>559.20001220703</ele>
        <time>2013-02-27T13:31:50.000Z</time>
      </trkpt>
      <trkpt lat="44.43819" lon="4.50718">
        <ele>559.20001220703</ele>
        <time>2013-02-27T13:31:51.000Z</time>
      </trkpt>
      <trkpt lat="44.4382" lon="4.50718">
        <ele>559.20001220703</ele>
        <time>2013-02-27T13:31:52.000Z</time>
      </trkpt>
      <trkpt lat="44.43821" lon="4.50717">
        <ele>559.20001220703</ele>
        <time>2013-02-27T13:31:53.000Z</time>
      </trkpt>
      <trkpt lat="44.43821" lon="4.50716">
        <ele>559.20001220703</ele>
        <time>2013-02-27T13:31:54.000Z</time>
      </trkpt>
      <trkpt lat="44.43822" lon="4.50715">
        <ele>559.20001220703</ele>
        <time>2013-02-27T13:31:55.000Z</time>
      </trkpt>
      <trkpt lat="44.43823" lon="4.50714">
        <ele>558.59997558594</ele>
        <time>2013-02-27T13:31:56.000Z</time>
      </trkpt>
      <trkpt lat="44.43824" lon="4.50713">
        <ele>558.20001220703</ele>
        <time>2013-02-27T13:31:57.000Z</time>
      </trkpt>
      <trkpt lat="44.43825" lon="4.50713">
        <ele>558.20001220703</ele>
        <time>2013-02-27T13:31:58.000Z</time>
      </trkpt>
      <trkpt lat="44.43826" lon="4.50712">
        <ele>557.79998779297</ele>
        <time>2013-02-27T13:31:59.000Z</time>
      </trkpt>
      <trkpt lat="44.43827" lon="4.50712">
        <ele>557.20001220703</ele>
        <time>2013-02-27T13:32:00.000Z</time>
      </trkpt>
      <trkpt lat="44.43828" lon="4.50712">
        <ele>557.20001220703</ele>
        <time>2013-02-27T13:32:01.000Z</time>
      </trkpt>
      <trkpt lat="44.43829" lon="4.50711">
        <ele>556.79998779297</ele>
        <time>2013-02-27T13:32:02.000Z</time>
      </trkpt>
      <trkpt lat="44.4383" lon="4.50711">
        <ele>556.79998779297</ele>
        <time>2013-02-27T13:32:03.000Z</time>
      </trkpt>
      <trkpt lat="44.43831" lon="4.5071">
        <ele>556.79998779297</ele>
        <time>2013-02-27T13:32:04.000Z</time>
      </trkpt>
      <trkpt lat="44.43831" lon="4.50709">
        <ele>556.79998779297</ele>
        <time>2013-02-27T13:32:05.000Z</time>
      </trkpt>
      <trkpt lat="44.43832" lon="4.50708">
        <ele>556.79998779297</ele>
        <time>2013-02-27T13:32:06.000Z</time>
      </trkpt>
      <trkpt lat="44.43833" lon="4.50707">
        <ele>556.20001220703</ele>
        <time>2013-02-27T13:32:07.000Z</time>
      </trkpt>
      <trkpt lat="44.43834" lon="4.50706">
        <ele>556.20001220703</ele>
        <time>2013-02-27T13:32:08.000Z</time>
      </trkpt>
      <trkpt lat="44.43835" lon="4.50705">
        <ele>556.20001220703</ele>
        <time>2013-02-27T13:32:09.000Z</time>
      </trkpt>
      <trkpt lat="44.43836" lon="4.50705">
        <ele>555.79998779297</ele>
        <time>2013-02-27T13:32:10.000Z</time>
      </trkpt>
      <trkpt lat="44.43837" lon="4.50704">
        <ele>555.79998779297</ele>
        <time>2013-02-27T13:32:11.000Z</time>
      </trkpt>
      <trkpt lat="44.43838" lon="4.50703">
        <ele>555.20001220703</ele>
        <time>2013-02-27T13:32:12.000Z</time>
      </trkpt>
      <trkpt lat="44.43839" lon="4.50703">
        <ele>554.79998779297</ele>
        <time>2013-02-27T13:32:13.000Z</time>
      </trkpt>
      <trkpt lat="44.4384" lon="4.50702">
        <ele>554.79998779297</ele>
        <time>2013-02-27T13:32:14.000Z</time>
      </trkpt>
      <trkpt lat="44.43841" lon="4.50702">
        <ele>554.40002441406</ele>
        <time>2013-02-27T13:32:15.000Z</time>
      </trkpt>
      <trkpt lat="44.43842" lon="4.50701">
        <ele>553.79998779297</ele>
        <time>2013-02-27T13:32:16.000Z</time>
      </trkpt>
      <trkpt lat="44.43842" lon="4.50701">
        <ele>553.79998779297</ele>
        <time>2013-02-27T13:32:17.000Z</time>
      </trkpt>
      <trkpt lat="44.43843" lon="4.507">
        <ele>553.40002441406</ele>
        <time>2013-02-27T13:32:18.000Z</time>
      </trkpt>
      <trkpt lat="44.43844" lon="4.507">
        <ele>553.40002441406</ele>
        <time>2013-02-27T13:32:19.000Z</time>
      </trkpt>
      <trkpt lat="44.43845" lon="4.507">
        <ele>553.40002441406</ele>
        <time>2013-02-27T13:32:20.000Z</time>
      </trkpt>
      <trkpt lat="44.43846" lon="4.507">
        <ele>553.40002441406</ele>
        <time>2013-02-27T13:32:21.000Z</time>
      </trkpt>
      <trkpt lat="44.43847" lon="4.50699">
        <ele>552.79998779297</ele>
        <time>2013-02-27T13:32:22.000Z</time>
      </trkpt>
      <trkpt lat="44.43848" lon="4.50699">
        <ele>552.79998779297</ele>
        <time>2013-02-27T13:32:23.000Z</time>
      </trkpt>
      <trkpt lat="44.43849" lon="4.50698">
        <ele>552.79998779297</ele>
        <time>2013-02-27T13:32:24.000Z</time>
      </trkpt>
      <trkpt lat="44.4385" lon="4.50698">
        <ele>552.40002441406</ele>
        <time>2013-02-27T13:32:25.000Z</time>
      </trkpt>
      <trkpt lat="44.43851" lon="4.50698">
        <ele>552.40002441406</ele>
        <time>2013-02-27T13:32:26.000Z</time>
      </trkpt>
      <trkpt lat="44.43852" lon="4.50698">
        <ele>552.40002441406</ele>
        <time>2013-02-27T13:32:27.000Z</time>
      </trkpt>
      <trkpt lat="44.43853" lon="4.50697">
        <ele>552</ele>
        <time>2013-02-27T13:32:28.000Z</time>
      </trkpt>
      <trkpt lat="44.43854" lon="4.50697">
        <ele>552</ele>
        <time>2013-02-27T13:32:29.000Z</time>
      </trkpt>
      <trkpt lat="44.43855" lon="4.50696">
        <ele>552</ele>
        <time>2013-02-27T13:32:30.000Z</time>
      </trkpt>
      <trkpt lat="44.43856" lon="4.50696">
        <ele>551.40002441406</ele>
        <time>2013-02-27T13:32:31.000Z</time>
      </trkpt>
      <trkpt lat="44.43856" lon="4.50696">
        <ele>551.40002441406</ele>
        <time>2013-02-27T13:32:32.000Z</time>
      </trkpt>
      <trkpt lat="44.43857" lon="4.50695">
        <ele>551</ele>
        <time>2013-02-27T13:32:33.000Z</time>
      </trkpt>
      <trkpt lat="44.43858" lon="4.50695">
        <ele>550.40002441406</ele>
        <time>2013-02-27T13:32:34.000Z</time>
      </trkpt>
      <trkpt lat="44.43859" lon="4.50694">
        <ele>550.40002441406</ele>
        <time>2013-02-27T13:32:35.000Z</time>
      </trkpt>
      <trkpt lat="44.4386" lon="4.50694">
        <ele>550</ele>
        <time>2013-02-27T13:32:36.000Z</time>
      </trkpt>
      <trkpt lat="44.43861" lon="4.50693">
        <ele>550</ele>
        <time>2013-02-27T13:32:37.000Z</time>
      </trkpt>
      <trkpt lat="44.43862" lon="4.50693">
        <ele>549.59997558594</ele>
        <time>2013-02-27T13:32:38.000Z</time>
      </trkpt>
      <trkpt lat="44.43863" lon="4.50692">
        <ele>549.59997558594</ele>
        <time>2013-02-27T13:32:39.000Z</time>
      </trkpt>
      <trkpt lat="44.43864" lon="4.50691">
        <ele>549</ele>
        <time>2013-02-27T13:32:40.000Z</time>
      </trkpt>
      <trkpt lat="44.43865" lon="4.50691">
        <ele>549</ele>
        <time>2013-02-27T13:32:41.000Z</time>
      </trkpt>
      <trkpt lat="44.43866" lon="4.5069">
        <ele>549</ele>
        <time>2013-02-27T13:32:42.000Z</time>
      </trkpt>
      <trkpt lat="44.43867" lon="4.5069">
        <ele>548.59997558594</ele>
        <time>2013-02-27T13:32:43.000Z</time>
      </trkpt>
      <trkpt lat="44.43868" lon="4.50689">
        <ele>548.59997558594</ele>
        <time>2013-02-27T13:32:44.000Z</time>
      </trkpt>
      <trkpt lat="44.43869" lon="4.50689">
        <ele>548</ele>
        <time>2013-02-27T13:32:45.000Z</time>
      </trkpt>
      <trkpt lat="44.4387" lon="4.50688">
        <ele>548</ele>
        <time>2013-02-27T13:32:46.000Z</time>
      </trkpt>
      <trkpt lat="44.43871" lon="4.50688">
        <ele>547.59997558594</ele>
        <time>2013-02-27T13:32:47.000Z</time>
      </trkpt>
      <trkpt lat="44.43872" lon="4.50687">
        <ele>547.59997558594</ele>
        <time>2013-02-27T13:32:48.000Z</time>
      </trkpt>
      <trkpt lat="44.43873" lon="4.50687">
        <ele>547.59997558594</ele>
        <time>2013-02-27T13:32:49.000Z</time>
      </trkpt>
      <trkpt lat="44.43874" lon="4.50686">
        <ele>547.20001220703</ele>
        <time>2013-02-27T13:32:50.000Z</time>
      </trkpt>
      <trkpt lat="44.43875" lon="4.50685">
        <ele>547.20001220703</ele>
        <time>2013-02-27T13:32:51.000Z</time>
      </trkpt>
      <trkpt lat="44.43876" lon="4.50684">
        <ele>546.59997558594</ele>
        <time>2013-02-27T13:32:52.000Z</time>
      </trkpt>
      <trkpt lat="44.43877" lon="4.50684">
        <ele>546.20001220703</ele>
        <time>2013-02-27T13:32:53.000Z</time>
      </trkpt>
      <trkpt lat="44.43878" lon="4.50683">
        <ele>546.20001220703</ele>
        <time>2013-02-27T13:32:54.000Z</time>
      </trkpt>
      <trkpt lat="44.43879" lon="4.50682">
        <ele>545.59997558594</ele>
        <time>2013-02-27T13:32:55.000Z</time>
      </trkpt>
      <trkpt lat="44.4388" lon="4.50681">
        <ele>545.20001220703</ele>
        <time>2013-02-27T13:32:56.000Z</time>
      </trkpt>
      <trkpt lat="44.4388" lon="4.5068">
        <ele>545.20001220703</ele>
        <time>2013-02-27T13:32:57.000Z</time>
      </trkpt>
      <trkpt lat="44.43881" lon="4.5068">
        <ele>544.79998779297</ele>
        <time>2013-02-27T13:32:58.000Z</time>
      </trkpt>
      <trkpt lat="44.43882" lon="4.50679">
        <ele>544.20001220703</ele>
        <time>2013-02-27T13:32:59.000Z</time>
      </trkpt>
      <trkpt lat="44.43883" lon="4.50679">
        <ele>544.20001220703</ele>
        <time>2013-02-27T13:33:00.000Z</time>
      </trkpt>
      <trkpt lat="44.43884" lon="4.50679">
        <ele>544.20001220703</ele>
        <time>2013-02-27T13:33:01.000Z</time>
      </trkpt>
      <trkpt lat="44.43885" lon="4.50679">
        <ele>543.79998779297</ele>
        <time>2013-02-27T13:33:02.000Z</time>
      </trkpt>
      <trkpt lat="44.43885" lon="4.50679">
        <ele>543.79998779297</ele>
        <time>2013-02-27T13:33:03.000Z</time>
      </trkpt>
      <trkpt lat="44.43886" lon="4.5068">
        <ele>543.79998779297</ele>
        <time>2013-02-27T13:33:04.000Z</time>
      </trkpt>
      <trkpt lat="44.43886" lon="4.50681">
        <ele>543.79998779297</ele>
        <time>2013-02-27T13:33:05.000Z</time>
      </trkpt>
      <trkpt lat="44.43887" lon="4.50682">
        <ele>543.79998779297</ele>
        <time>2013-02-27T13:33:06.000Z</time>
      </trkpt>
      <trkpt lat="44.43888" lon="4.50682">
        <ele>543.79998779297</ele>
        <time>2013-02-27T13:33:07.000Z</time>
      </trkpt>
      <trkpt lat="44.43888" lon="4.50683">
        <ele>543.79998779297</ele>
        <time>2013-02-27T13:33:08.000Z</time>
      </trkpt>
      <trkpt lat="44.43889" lon="4.50684">
        <ele>543.79998779297</ele>
        <time>2013-02-27T13:33:09.000Z</time>
      </trkpt>
      <trkpt lat="44.43889" lon="4.50685">
        <ele>543.79998779297</ele>
        <time>2013-02-27T13:33:10.000Z</time>
      </trkpt>
      <trkpt lat="44.4389" lon="4.50686">
        <ele>543.79998779297</ele>
        <time>2013-02-27T13:33:11.000Z</time>
      </trkpt>
      <trkpt lat="44.4389" lon="4.50687">
        <ele>543.79998779297</ele>
        <time>2013-02-27T13:33:12.000Z</time>
      </trkpt>
      <trkpt lat="44.43891" lon="4.50688">
        <ele>543.79998779297</ele>
        <time>2013-02-27T13:33:13.000Z</time>
      </trkpt>
      <trkpt lat="44.43892" lon="4.50688">
        <ele>543.20001220703</ele>
        <time>2013-02-27T13:33:14.000Z</time>
      </trkpt>
      <trkpt lat="44.43892" lon="4.50688">
        <ele>543.20001220703</ele>
        <time>2013-02-27T13:33:15.000Z</time>
      </trkpt>
      <trkpt lat="44.43893" lon="4.50688">
        <ele>543.20001220703</ele>
        <time>2013-02-27T13:33:16.000Z</time>
      </trkpt>
      <trkpt lat="44.43894" lon="4.50689">
        <ele>542.79998779297</ele>
        <time>2013-02-27T13:33:17.000Z</time>
      </trkpt>
      <trkpt lat="44.43895" lon="4.5069">
        <ele>542.79998779297</ele>
        <time>2013-02-27T13:33:18.000Z</time>
      </trkpt>
      <trkpt lat="44.43895" lon="4.5069">
        <ele>542.40002441406</ele>
        <time>2013-02-27T13:33:19.000Z</time>
      </trkpt>
      <trkpt lat="44.43896" lon="4.50691">
        <ele>542.40002441406</ele>
        <time>2013-02-27T13:33:20.000Z</time>
      </trkpt>
      <trkpt lat="44.43897" lon="4.50691">
        <ele>542.40002441406</ele>
        <time>2013-02-27T13:33:21.000Z</time>
      </trkpt>
      <trkpt lat="44.43898" lon="4.50692">
        <ele>542.40002441406</ele>
        <time>2013-02-27T13:33:22.000Z</time>
      </trkpt>
      <trkpt lat="44.43899" lon="4.50693">
        <ele>541.79998779297</ele>
        <time>2013-02-27T13:33:23.000Z</time>
      </trkpt>
      <trkpt lat="44.439" lon="4.50694">
        <ele>541.79998779297</ele>
        <time>2013-02-27T13:33:24.000Z</time>
      </trkpt>
      <trkpt lat="44.43901" lon="4.50694">
        <ele>541.79998779297</ele>
        <time>2013-02-27T13:33:25.000Z</time>
      </trkpt>
      <trkpt lat="44.43901" lon="4.50695">
        <ele>541.40002441406</ele>
        <time>2013-02-27T13:33:26.000Z</time>
      </trkpt>
      <trkpt lat="44.43902" lon="4.50695">
        <ele>541.40002441406</ele>
        <time>2013-02-27T13:33:27.000Z</time>
      </trkpt>
      <trkpt lat="44.43903" lon="4.50696">
        <ele>541.40002441406</ele>
        <time>2013-02-27T13:33:28.000Z</time>
      </trkpt>
      <trkpt lat="44.43904" lon="4.50696">
        <ele>541.40002441406</ele>
        <time>2013-02-27T13:33:29.000Z</time>
      </trkpt>
      <trkpt lat="44.43905" lon="4.50696">
        <ele>540.79998779297</ele>
        <time>2013-02-27T13:33:30.000Z</time>
      </trkpt>
      <trkpt lat="44.43906" lon="4.50697">
        <ele>540.79998779297</ele>
        <time>2013-02-27T13:33:31.000Z</time>
      </trkpt>
      <trkpt lat="44.43907" lon="4.50697">
        <ele>540.79998779297</ele>
        <time>2013-02-27T13:33:32.000Z</time>
      </trkpt>
      <trkpt lat="44.43908" lon="4.50698">
        <ele>540.79998779297</ele>
        <time>2013-02-27T13:33:33.000Z</time>
      </trkpt>
      <trkpt lat="44.43908" lon="4.50699">
        <ele>540.79998779297</ele>
        <time>2013-02-27T13:33:34.000Z</time>
      </trkpt>
      <trkpt lat="44.43909" lon="4.50699">
        <ele>540.79998779297</ele>
        <time>2013-02-27T13:33:35.000Z</time>
      </trkpt>
      <trkpt lat="44.43911" lon="4.50699">
        <ele>540.79998779297</ele>
        <time>2013-02-27T13:33:36.000Z</time>
      </trkpt>
      <trkpt lat="44.43912" lon="4.507">
        <ele>540.40002441406</ele>
        <time>2013-02-27T13:33:37.000Z</time>
      </trkpt>
      <trkpt lat="44.43913" lon="4.507">
        <ele>540.40002441406</ele>
        <time>2013-02-27T13:33:38.000Z</time>
      </trkpt>
      <trkpt lat="44.43913" lon="4.50701">
        <ele>540.40002441406</ele>
        <time>2013-02-27T13:33:39.000Z</time>
      </trkpt>
      <trkpt lat="44.43914" lon="4.50701">
        <ele>540.40002441406</ele>
        <time>2013-02-27T13:33:40.000Z</time>
      </trkpt>
      <trkpt lat="44.43915" lon="4.50702">
        <ele>540</ele>
        <time>2013-02-27T13:33:41.000Z</time>
      </trkpt>
      <trkpt lat="44.43916" lon="4.50702">
        <ele>540</ele>
        <time>2013-02-27T13:33:42.000Z</time>
      </trkpt>
      <trkpt lat="44.43917" lon="4.50702">
        <ele>540</ele>
        <time>2013-02-27T13:33:43.000Z</time>
      </trkpt>
      <trkpt lat="44.43918" lon="4.50702">
        <ele>539.40002441406</ele>
        <time>2013-02-27T13:33:44.000Z</time>
      </trkpt>
      <trkpt lat="44.43919" lon="4.50702">
        <ele>539.40002441406</ele>
        <time>2013-02-27T13:33:45.000Z</time>
      </trkpt>
      <trkpt lat="44.4392" lon="4.50702">
        <ele>539</ele>
        <time>2013-02-27T13:33:46.000Z</time>
      </trkpt>
      <trkpt lat="44.43921" lon="4.50702">
        <ele>539</ele>
        <time>2013-02-27T13:33:47.000Z</time>
      </trkpt>
      <trkpt lat="44.43922" lon="4.50702">
        <ele>539</ele>
        <time>2013-02-27T13:33:48.000Z</time>
      </trkpt>
      <trkpt lat="44.43924" lon="4.50701">
        <ele>539</ele>
        <time>2013-02-27T13:33:49.000Z</time>
      </trkpt>
      <trkpt lat="44.43925" lon="4.50701">
        <ele>538.40002441406</ele>
        <time>2013-02-27T13:33:50.000Z</time>
      </trkpt>
      <trkpt lat="44.43926" lon="4.507">
        <ele>539</ele>
        <time>2013-02-27T13:33:51.000Z</time>
      </trkpt>
      <trkpt lat="44.43927" lon="4.507">
        <ele>539</ele>
        <time>2013-02-27T13:33:52.000Z</time>
      </trkpt>
      <trkpt lat="44.43928" lon="4.50699">
        <ele>539</ele>
        <time>2013-02-27T13:33:53.000Z</time>
      </trkpt>
      <trkpt lat="44.43929" lon="4.50699">
        <ele>539</ele>
        <time>2013-02-27T13:33:54.000Z</time>
      </trkpt>
      <trkpt lat="44.4393" lon="4.50699">
        <ele>538.40002441406</ele>
        <time>2013-02-27T13:33:55.000Z</time>
      </trkpt>
      <trkpt lat="44.43931" lon="4.50699">
        <ele>538.40002441406</ele>
        <time>2013-02-27T13:33:56.000Z</time>
      </trkpt>
      <trkpt lat="44.43932" lon="4.50699">
        <ele>538.40002441406</ele>
        <time>2013-02-27T13:33:57.000Z</time>
      </trkpt>
      <trkpt lat="44.43933" lon="4.507">
        <ele>538</ele>
        <time>2013-02-27T13:33:58.000Z</time>
      </trkpt>
      <trkpt lat="44.43934" lon="4.507">
        <ele>538.40002441406</ele>
        <time>2013-02-27T13:33:59.000Z</time>
      </trkpt>
      <trkpt lat="44.43935" lon="4.50701">
        <ele>538</ele>
        <time>2013-02-27T13:34:00.000Z</time>
      </trkpt>
      <trkpt lat="44.43936" lon="4.50703">
        <ele>538.40002441406</ele>
        <time>2013-02-27T13:34:01.000Z</time>
      </trkpt>
      <trkpt lat="44.43936" lon="4.50704">
        <ele>538</ele>
        <time>2013-02-27T13:34:02.000Z</time>
      </trkpt>
      <trkpt lat="44.43936" lon="4.50705">
        <ele>538</ele>
        <time>2013-02-27T13:34:03.000Z</time>
      </trkpt>
      <trkpt lat="44.43936" lon="4.50707">
        <ele>537.59997558594</ele>
        <time>2013-02-27T13:34:04.000Z</time>
      </trkpt>
      <trkpt lat="44.43936" lon="4.50708">
        <ele>537.59997558594</ele>
        <time>2013-02-27T13:34:05.000Z</time>
      </trkpt>
      <trkpt lat="44.43936" lon="4.50709">
        <ele>537.59997558594</ele>
        <time>2013-02-27T13:34:06.000Z</time>
      </trkpt>
      <trkpt lat="44.43937" lon="4.50711">
        <ele>537.59997558594</ele>
        <time>2013-02-27T13:34:07.000Z</time>
      </trkpt>
      <trkpt lat="44.43937" lon="4.50712">
        <ele>537</ele>
        <time>2013-02-27T13:34:08.000Z</time>
      </trkpt>
      <trkpt lat="44.43937" lon="4.50713">
        <ele>536.59997558594</ele>
        <time>2013-02-27T13:34:09.000Z</time>
      </trkpt>
      <trkpt lat="44.43938" lon="4.50714">
        <ele>536</ele>
        <time>2013-02-27T13:34:10.000Z</time>
      </trkpt>
      <trkpt lat="44.43938" lon="4.50715">
        <ele>535.59997558594</ele>
        <time>2013-02-27T13:34:11.000Z</time>
      </trkpt>
      <trkpt lat="44.43939" lon="4.50717">
        <ele>535.59997558594</ele>
        <time>2013-02-27T13:34:12.000Z</time>
      </trkpt>
      <trkpt lat="44.43939" lon="4.50718">
        <ele>535.59997558594</ele>
        <time>2013-02-27T13:34:13.000Z</time>
      </trkpt>
      <trkpt lat="44.4394" lon="4.50719">
        <ele>535.20001220703</ele>
        <time>2013-02-27T13:34:14.000Z</time>
      </trkpt>
      <trkpt lat="44.4394" lon="4.5072">
        <ele>534.20001220703</ele>
        <time>2013-02-27T13:34:15.000Z</time>
      </trkpt>
      <trkpt lat="44.43941" lon="4.50721">
        <ele>533.20001220703</ele>
        <time>2013-02-27T13:34:16.000Z</time>
      </trkpt>
      <trkpt lat="44.43942" lon="4.50722">
        <ele>532.79998779297</ele>
        <time>2013-02-27T13:34:17.000Z</time>
      </trkpt>
      <trkpt lat="44.43942" lon="4.50722">
        <ele>532.20001220703</ele>
        <time>2013-02-27T13:34:18.000Z</time>
      </trkpt>
      <trkpt lat="44.43943" lon="4.50723">
        <ele>531.20001220703</ele>
        <time>2013-02-27T13:34:19.000Z</time>
      </trkpt>
      <trkpt lat="44.43944" lon="4.50724">
        <ele>530.40002441406</ele>
        <time>2013-02-27T13:34:20.000Z</time>
      </trkpt>
      <trkpt lat="44.43945" lon="4.50725">
        <ele>530.40002441406</ele>
        <time>2013-02-27T13:34:21.000Z</time>
      </trkpt>
      <trkpt lat="44.43947" lon="4.50726">
        <ele>530.79998779297</ele>
        <time>2013-02-27T13:34:22.000Z</time>
      </trkpt>
      <trkpt lat="44.43948" lon="4.50728">
        <ele>530.79998779297</ele>
        <time>2013-02-27T13:34:23.000Z</time>
      </trkpt>
      <trkpt lat="44.43948" lon="4.50729">
        <ele>531.20001220703</ele>
        <time>2013-02-27T13:34:24.000Z</time>
      </trkpt>
      <trkpt lat="44.43949" lon="4.50731">
        <ele>530.79998779297</ele>
        <time>2013-02-27T13:34:25.000Z</time>
      </trkpt>
      <trkpt lat="44.4395" lon="4.50732">
        <ele>530.79998779297</ele>
        <time>2013-02-27T13:34:26.000Z</time>
      </trkpt>
      <trkpt lat="44.4395" lon="4.50733">
        <ele>530.79998779297</ele>
        <time>2013-02-27T13:34:27.000Z</time>
      </trkpt>
      <trkpt lat="44.43952" lon="4.50733">
        <ele>530.79998779297</ele>
        <time>2013-02-27T13:34:28.000Z</time>
      </trkpt>
      <trkpt lat="44.43953" lon="4.50734">
        <ele>530.79998779297</ele>
        <time>2013-02-27T13:34:29.000Z</time>
      </trkpt>
      <trkpt lat="44.43954" lon="4.50735">
        <ele>530.79998779297</ele>
        <time>2013-02-27T13:34:30.000Z</time>
      </trkpt>
      <trkpt lat="44.43955" lon="4.50736">
        <ele>530.79998779297</ele>
        <time>2013-02-27T13:34:31.000Z</time>
      </trkpt>
      <trkpt lat="44.43956" lon="4.50737">
        <ele>530.79998779297</ele>
        <time>2013-02-27T13:34:32.000Z</time>
      </trkpt>
      <trkpt lat="44.43957" lon="4.50738">
        <ele>530.79998779297</ele>
        <time>2013-02-27T13:34:33.000Z</time>
      </trkpt>
      <trkpt lat="44.43958" lon="4.50739">
        <ele>531.20001220703</ele>
        <time>2013-02-27T13:34:34.000Z</time>
      </trkpt>
      <trkpt lat="44.43959" lon="4.5074">
        <ele>531.20001220703</ele>
        <time>2013-02-27T13:34:35.000Z</time>
      </trkpt>
      <trkpt lat="44.4396" lon="4.50742">
        <ele>531.20001220703</ele>
        <time>2013-02-27T13:34:36.000Z</time>
      </trkpt>
      <trkpt lat="44.43961" lon="4.50743">
        <ele>531.20001220703</ele>
        <time>2013-02-27T13:34:37.000Z</time>
      </trkpt>
      <trkpt lat="44.43961" lon="4.50745">
        <ele>531.79998779297</ele>
        <time>2013-02-27T13:34:38.000Z</time>
      </trkpt>
      <trkpt lat="44.43962" lon="4.50746">
        <ele>531.79998779297</ele>
        <time>2013-02-27T13:34:39.000Z</time>
      </trkpt>
      <trkpt lat="44.43963" lon="4.50747">
        <ele>531.79998779297</ele>
        <time>2013-02-27T13:34:40.000Z</time>
      </trkpt>
      <trkpt lat="44.43964" lon="4.50749">
        <ele>531.79998779297</ele>
        <time>2013-02-27T13:34:41.000Z</time>
      </trkpt>
      <trkpt lat="44.43965" lon="4.5075">
        <ele>531.79998779297</ele>
        <time>2013-02-27T13:34:42.000Z</time>
      </trkpt>
      <trkpt lat="44.43966" lon="4.50751">
        <ele>531.79998779297</ele>
        <time>2013-02-27T13:34:43.000Z</time>
      </trkpt>
      <trkpt lat="44.43967" lon="4.50752">
        <ele>531.79998779297</ele>
        <time>2013-02-27T13:34:44.000Z</time>
      </trkpt>
      <trkpt lat="44.43968" lon="4.50754">
        <ele>531.79998779297</ele>
        <time>2013-02-27T13:34:45.000Z</time>
      </trkpt>
      <trkpt lat="44.43969" lon="4.50755">
        <ele>531.79998779297</ele>
        <time>2013-02-27T13:34:46.000Z</time>
      </trkpt>
      <trkpt lat="44.43969" lon="4.50756">
        <ele>531.79998779297</ele>
        <time>2013-02-27T13:34:47.000Z</time>
      </trkpt>
      <trkpt lat="44.4397" lon="4.50757">
        <ele>531.79998779297</ele>
        <time>2013-02-27T13:34:48.000Z</time>
      </trkpt>
      <trkpt lat="44.43971" lon="4.50758">
        <ele>531.79998779297</ele>
        <time>2013-02-27T13:34:49.000Z</time>
      </trkpt>
      <trkpt lat="44.43972" lon="4.50759">
        <ele>531.79998779297</ele>
        <time>2013-02-27T13:34:50.000Z</time>
      </trkpt>
      <trkpt lat="44.43973" lon="4.5076">
        <ele>531.79998779297</ele>
        <time>2013-02-27T13:34:51.000Z</time>
      </trkpt>
      <trkpt lat="44.43974" lon="4.5076">
        <ele>531.79998779297</ele>
        <time>2013-02-27T13:34:52.000Z</time>
      </trkpt>
      <trkpt lat="44.43975" lon="4.5076">
        <ele>531.79998779297</ele>
        <time>2013-02-27T13:34:53.000Z</time>
      </trkpt>
      <trkpt lat="44.43976" lon="4.50761">
        <ele>531.79998779297</ele>
        <time>2013-02-27T13:34:54.000Z</time>
      </trkpt>
      <trkpt lat="44.43977" lon="4.50762">
        <ele>531.79998779297</ele>
        <time>2013-02-27T13:34:55.000Z</time>
      </trkpt>
      <trkpt lat="44.43978" lon="4.50762">
        <ele>531.79998779297</ele>
        <time>2013-02-27T13:34:56.000Z</time>
      </trkpt>
      <trkpt lat="44.43979" lon="4.50763">
        <ele>531.79998779297</ele>
        <time>2013-02-27T13:34:57.000Z</time>
      </trkpt>
      <trkpt lat="44.4398" lon="4.50763">
        <ele>531.79998779297</ele>
        <time>2013-02-27T13:34:58.000Z</time>
      </trkpt>
      <trkpt lat="44.43981" lon="4.50764">
        <ele>531.79998779297</ele>
        <time>2013-02-27T13:34:59.000Z</time>
      </trkpt>
      <trkpt lat="44.43981" lon="4.50765">
        <ele>531.20001220703</ele>
        <time>2013-02-27T13:35:00.000Z</time>
      </trkpt>
      <trkpt lat="44.43981" lon="4.50765">
        <ele>531.20001220703</ele>
        <time>2013-02-27T13:35:01.000Z</time>
      </trkpt>
      <trkpt lat="44.43982" lon="4.50766">
        <ele>531.20001220703</ele>
        <time>2013-02-27T13:35:02.000Z</time>
      </trkpt>
      <trkpt lat="44.43982" lon="4.50767">
        <ele>531.20001220703</ele>
        <time>2013-02-27T13:35:03.000Z</time>
      </trkpt>
      <trkpt lat="44.43982" lon="4.50767">
        <ele>530.79998779297</ele>
        <time>2013-02-27T13:35:04.000Z</time>
      </trkpt>
      <trkpt lat="44.43981" lon="4.50767">
        <ele>530.79998779297</ele>
        <time>2013-02-27T13:35:05.000Z</time>
      </trkpt>
      <trkpt lat="44.43981" lon="4.50766">
        <ele>530.40002441406</ele>
        <time>2013-02-27T13:35:06.000Z</time>
      </trkpt>
      <trkpt lat="44.43981" lon="4.50767">
        <ele>530.40002441406</ele>
        <time>2013-02-27T13:35:07.000Z</time>
      </trkpt>
      <trkpt lat="44.43981" lon="4.50767">
        <ele>530.40002441406</ele>
        <time>2013-02-27T13:35:08.000Z</time>
      </trkpt>
      <trkpt lat="44.4398" lon="4.50767">
        <ele>530.40002441406</ele>
        <time>2013-02-27T13:35:09.000Z</time>
      </trkpt>
      <trkpt lat="44.4398" lon="4.50767">
        <ele>530.40002441406</ele>
        <time>2013-02-27T13:35:10.000Z</time>
      </trkpt>
      <trkpt lat="44.4398" lon="4.50767">
        <ele>530.40002441406</ele>
        <time>2013-02-27T13:35:11.000Z</time>
      </trkpt>
      <trkpt lat="44.43979" lon="4.50767">
        <ele>530.40002441406</ele>
        <time>2013-02-27T13:35:12.000Z</time>
      </trkpt>
      <trkpt lat="44.43979" lon="4.50767">
        <ele>529.79998779297</ele>
        <time>2013-02-27T13:35:13.000Z</time>
      </trkpt>
      <trkpt lat="44.43979" lon="4.50767">
        <ele>529.79998779297</ele>
        <time>2013-02-27T13:35:14.000Z</time>
      </trkpt>
      <trkpt lat="44.43979" lon="4.50767">
        <ele>529.79998779297</ele>
        <time>2013-02-27T13:35:15.000Z</time>
      </trkpt>
      <trkpt lat="44.43979" lon="4.50767">
        <ele>529.79998779297</ele>
        <time>2013-02-27T13:35:16.000Z</time>
      </trkpt>
      <trkpt lat="44.43979" lon="4.50767">
        <ele>529.79998779297</ele>
        <time>2013-02-27T13:35:17.000Z</time>
      </trkpt>
      <trkpt lat="44.43979" lon="4.50767">
        <ele>529.79998779297</ele>
        <time>2013-02-27T13:35:18.000Z</time>
      </trkpt>
      <trkpt lat="44.43979" lon="4.50767">
        <ele>529.79998779297</ele>
        <time>2013-02-27T13:35:19.000Z</time>
      </trkpt>
      <trkpt lat="44.43979" lon="4.50767">
        <ele>529.79998779297</ele>
        <time>2013-02-27T13:35:20.000Z</time>
      </trkpt>
      <trkpt lat="44.43978" lon="4.50767">
        <ele>529.79998779297</ele>
        <time>2013-02-27T13:35:21.000Z</time>
      </trkpt>
      <trkpt lat="44.43978" lon="4.50767">
        <ele>529.79998779297</ele>
        <time>2013-02-27T13:35:22.000Z</time>
      </trkpt>
      <trkpt lat="44.43978" lon="4.50767">
        <ele>529.79998779297</ele>
        <time>2013-02-27T13:35:23.000Z</time>
      </trkpt>
      <trkpt lat="44.43978" lon="4.50766">
        <ele>529.79998779297</ele>
        <time>2013-02-27T13:35:24.000Z</time>
      </trkpt>
      <trkpt lat="44.43978" lon="4.50766">
        <ele>529.79998779297</ele>
        <time>2013-02-27T13:35:25.000Z</time>
      </trkpt>
      <trkpt lat="44.43978" lon="4.50765">
        <ele>530.40002441406</ele>
        <time>2013-02-27T13:35:26.000Z</time>
      </trkpt>
      <trkpt lat="44.43978" lon="4.50764">
        <ele>530.40002441406</ele>
        <time>2013-02-27T13:35:27.000Z</time>
      </trkpt>
      <trkpt lat="44.43977" lon="4.50764">
        <ele>529.79998779297</ele>
        <time>2013-02-27T13:35:28.000Z</time>
      </trkpt>
      <trkpt lat="44.43977" lon="4.50764">
        <ele>529.79998779297</ele>
        <time>2013-02-27T13:35:29.000Z</time>
      </trkpt>
      <trkpt lat="44.43977" lon="4.50764">
        <ele>529.79998779297</ele>
        <time>2013-02-27T13:35:30.000Z</time>
      </trkpt>
      <trkpt lat="44.43977" lon="4.50764">
        <ele>529.79998779297</ele>
        <time>2013-02-27T13:35:31.000Z</time>
      </trkpt>
      <trkpt lat="44.43977" lon="4.50764">
        <ele>529.79998779297</ele>
        <time>2013-02-27T13:35:32.000Z</time>
      </trkpt>
      <trkpt lat="44.43977" lon="4.50763">
        <ele>529.79998779297</ele>
        <time>2013-02-27T13:35:33.000Z</time>
      </trkpt>
      <trkpt lat="44.43977" lon="4.50763">
        <ele>529.79998779297</ele>
        <time>2013-02-27T13:35:34.000Z</time>
      </trkpt>
      <trkpt lat="44.43978" lon="4.50763">
        <ele>529.79998779297</ele>
        <time>2013-02-27T13:35:35.000Z</time>
      </trkpt>
      <trkpt lat="44.43978" lon="4.50763">
        <ele>529.79998779297</ele>
        <time>2013-02-27T13:35:36.000Z</time>
      </trkpt>
      <trkpt lat="44.43978" lon="4.50763">
        <ele>530.40002441406</ele>
        <time>2013-02-27T13:35:37.000Z</time>
      </trkpt>
      <trkpt lat="44.43978" lon="4.50763">
        <ele>530.40002441406</ele>
        <time>2013-02-27T13:35:38.000Z</time>
      </trkpt>
      <trkpt lat="44.43978" lon="4.50763">
        <ele>530.40002441406</ele>
        <time>2013-02-27T13:35:39.000Z</time>
      </trkpt>
      <trkpt lat="44.43978" lon="4.50763">
        <ele>530.40002441406</ele>
        <time>2013-02-27T13:35:40.000Z</time>
      </trkpt>
      <trkpt lat="44.43978" lon="4.50763">
        <ele>530.40002441406</ele>
        <time>2013-02-27T13:35:41.000Z</time>
      </trkpt>
      <trkpt lat="44.43978" lon="4.50763">
        <ele>530.40002441406</ele>
        <time>2013-02-27T13:35:42.000Z</time>
      </trkpt>
      <trkpt lat="44.43978" lon="4.50763">
        <ele>529.79998779297</ele>
        <time>2013-02-27T13:35:43.000Z</time>
      </trkpt>
      <trkpt lat="44.43978" lon="4.50763">
        <ele>530.40002441406</ele>
        <time>2013-02-27T13:35:44.000Z</time>
      </trkpt>
      <trkpt lat="44.43978" lon="4.50763">
        <ele>530.40002441406</ele>
        <time>2013-02-27T13:35:45.000Z</time>
      </trkpt>
      <trkpt lat="44.43978" lon="4.50763">
        <ele>530.40002441406</ele>
        <time>2013-02-27T13:35:46.000Z</time>
      </trkpt>
      <trkpt lat="44.43979" lon="4.50763">
        <ele>530.40002441406</ele>
        <time>2013-02-27T13:35:47.000Z</time>
      </trkpt>
      <trkpt lat="44.43979" lon="4.50763">
        <ele>530.40002441406</ele>
        <time>2013-02-27T13:35:48.000Z</time>
      </trkpt>
      <trkpt lat="44.43979" lon="4.50763">
        <ele>530.40002441406</ele>
        <time>2013-02-27T13:35:49.000Z</time>
      </trkpt>
      <trkpt lat="44.43979" lon="4.50763">
        <ele>529.79998779297</ele>
        <time>2013-02-27T13:35:50.000Z</time>
      </trkpt>
      <trkpt lat="44.43979" lon="4.50763">
        <ele>530.40002441406</ele>
        <time>2013-02-27T13:35:51.000Z</time>
      </trkpt>
      <trkpt lat="44.43979" lon="4.50763">
        <ele>530.40002441406</ele>
        <time>2013-02-27T13:35:52.000Z</time>
      </trkpt>
      <trkpt lat="44.43979" lon="4.50764">
        <ele>530.40002441406</ele>
        <time>2013-02-27T13:35:53.000Z</time>
      </trkpt>
      <trkpt lat="44.43979" lon="4.50764">
        <ele>530.40002441406</ele>
        <time>2013-02-27T13:35:54.000Z</time>
      </trkpt>
      <trkpt lat="44.43979" lon="4.50764">
        <ele>530.40002441406</ele>
        <time>2013-02-27T13:35:55.000Z</time>
      </trkpt>
      <trkpt lat="44.43979" lon="4.50764">
        <ele>530.40002441406</ele>
        <time>2013-02-27T13:35:56.000Z</time>
      </trkpt>
      <trkpt lat="44.43979" lon="4.50763">
        <ele>530.40002441406</ele>
        <time>2013-02-27T13:35:57.000Z</time>
      </trkpt>
      <trkpt lat="44.43979" lon="4.50763">
        <ele>530.40002441406</ele>
        <time>2013-02-27T13:35:58.000Z</time>
      </trkpt>
      <trkpt lat="44.43979" lon="4.50763">
        <ele>529.79998779297</ele>
        <time>2013-02-27T13:35:59.000Z</time>
      </trkpt>
      <trkpt lat="44.4398" lon="4.50763">
        <ele>529.79998779297</ele>
        <time>2013-02-27T13:36:00.000Z</time>
      </trkpt>
      <trkpt lat="44.4398" lon="4.50764">
        <ele>529.79998779297</ele>
        <time>2013-02-27T13:36:01.000Z</time>
      </trkpt>
      <trkpt lat="44.4398" lon="4.50764">
        <ele>529.79998779297</ele>
        <time>2013-02-27T13:36:02.000Z</time>
      </trkpt>
      <trkpt lat="44.4398" lon="4.50764">
        <ele>529.79998779297</ele>
        <time>2013-02-27T13:36:03.000Z</time>
      </trkpt>
      <trkpt lat="44.4398" lon="4.50764">
        <ele>529.79998779297</ele>
        <time>2013-02-27T13:36:04.000Z</time>
      </trkpt>
      <trkpt lat="44.4398" lon="4.50764">
        <ele>529.79998779297</ele>
        <time>2013-02-27T13:36:05.000Z</time>
      </trkpt>
      <trkpt lat="44.4398" lon="4.50764">
        <ele>529.79998779297</ele>
        <time>2013-02-27T13:36:06.000Z</time>
      </trkpt>
      <trkpt lat="44.4398" lon="4.50764">
        <ele>529.79998779297</ele>
        <time>2013-02-27T13:36:07.000Z</time>
      </trkpt>
      <trkpt lat="44.4398" lon="4.50764">
        <ele>529.79998779297</ele>
        <time>2013-02-27T13:36:08.000Z</time>
      </trkpt>
      <trkpt lat="44.4398" lon="4.50764">
        <ele>529.79998779297</ele>
        <time>2013-02-27T13:36:09.000Z</time>
      </trkpt>
      <trkpt lat="44.4398" lon="4.50764">
        <ele>529.79998779297</ele>
        <time>2013-02-27T13:36:10.000Z</time>
      </trkpt>
      <trkpt lat="44.4398" lon="4.50764">
        <ele>529.79998779297</ele>
        <time>2013-02-27T13:36:11.000Z</time>
      </trkpt>
      <trkpt lat="44.4398" lon="4.50764">
        <ele>530.40002441406</ele>
        <time>2013-02-27T13:36:12.000Z</time>
      </trkpt>
      <trkpt lat="44.4398" lon="4.50763">
        <ele>530.40002441406</ele>
        <time>2013-02-27T13:36:13.000Z</time>
      </trkpt>
      <trkpt lat="44.4398" lon="4.50763">
        <ele>530.40002441406</ele>
        <time>2013-02-27T13:36:14.000Z</time>
      </trkpt>
      <trkpt lat="44.4398" lon="4.50763">
        <ele>530.40002441406</ele>
        <time>2013-02-27T13:36:15.000Z</time>
      </trkpt>
      <trkpt lat="44.4398" lon="4.50763">
        <ele>530.40002441406</ele>
        <time>2013-02-27T13:36:16.000Z</time>
      </trkpt>
      <trkpt lat="44.4398" lon="4.50763">
        <ele>530.40002441406</ele>
        <time>2013-02-27T13:36:17.000Z</time>
      </trkpt>
      <trkpt lat="44.4398" lon="4.50763">
        <ele>530.40002441406</ele>
        <time>2013-02-27T13:36:18.000Z</time>
      </trkpt>
      <trkpt lat="44.4398" lon="4.50763">
        <ele>530.40002441406</ele>
        <time>2013-02-27T13:36:19.000Z</time>
      </trkpt>
      <trkpt lat="44.4398" lon="4.50763">
        <ele>530.40002441406</ele>
        <time>2013-02-27T13:36:20.000Z</time>
      </trkpt>
      <trkpt lat="44.4398" lon="4.50763">
        <ele>530.40002441406</ele>
        <time>2013-02-27T13:36:21.000Z</time>
      </trkpt>
      <trkpt lat="44.4398" lon="4.50763">
        <ele>530.40002441406</ele>
        <time>2013-02-27T13:36:22.000Z</time>
      </trkpt>
      <trkpt lat="44.43981" lon="4.50763">
        <ele>530.40002441406</ele>
        <time>2013-02-27T13:36:23.000Z</time>
      </trkpt>
      <trkpt lat="44.43981" lon="4.50764">
        <ele>530.40002441406</ele>
        <time>2013-02-27T13:36:24.000Z</time>
      </trkpt>
      <trkpt lat="44.43982" lon="4.50764">
        <ele>530.40002441406</ele>
        <time>2013-02-27T13:36:25.000Z</time>
      </trkpt>
      <trkpt lat="44.43982" lon="4.50765">
        <ele>530.40002441406</ele>
        <time>2013-02-27T13:36:26.000Z</time>
      </trkpt>
      <trkpt lat="44.43981" lon="4.50765">
        <ele>530.40002441406</ele>
        <time>2013-02-27T13:36:27.000Z</time>
      </trkpt>
      <trkpt lat="44.43981" lon="4.50764">
        <ele>530.79998779297</ele>
        <time>2013-02-27T13:36:28.000Z</time>
      </trkpt>
      <trkpt lat="44.43981" lon="4.50764">
        <ele>530.79998779297</ele>
        <time>2013-02-27T13:36:29.000Z</time>
      </trkpt>
      <trkpt lat="44.43981" lon="4.50764">
        <ele>530.79998779297</ele>
        <time>2013-02-27T13:36:30.000Z</time>
      </trkpt>
      <trkpt lat="44.43981" lon="4.50764">
        <ele>530.79998779297</ele>
        <time>2013-02-27T13:36:31.000Z</time>
      </trkpt>
      <trkpt lat="44.43981" lon="4.50764">
        <ele>531.20001220703</ele>
        <time>2013-02-27T13:36:32.000Z</time>
      </trkpt>
      <trkpt lat="44.43982" lon="4.50764">
        <ele>531.20001220703</ele>
        <time>2013-02-27T13:36:33.000Z</time>
      </trkpt>
      <trkpt lat="44.43982" lon="4.50764">
        <ele>531.20001220703</ele>
        <time>2013-02-27T13:36:34.000Z</time>
      </trkpt>
      <trkpt lat="44.43982" lon="4.50764">
        <ele>531.20001220703</ele>
        <time>2013-02-27T13:36:35.000Z</time>
      </trkpt>
      <trkpt lat="44.43982" lon="4.50765">
        <ele>531.20001220703</ele>
        <time>2013-02-27T13:36:36.000Z</time>
      </trkpt>
      <trkpt lat="44.43982" lon="4.50765">
        <ele>531.20001220703</ele>
        <time>2013-02-27T13:36:37.000Z</time>
      </trkpt>
      <trkpt lat="44.43982" lon="4.50765">
        <ele>531.79998779297</ele>
        <time>2013-02-27T13:36:38.000Z</time>
      </trkpt>
      <trkpt lat="44.43982" lon="4.50765">
        <ele>531.79998779297</ele>
        <time>2013-02-27T13:36:39.000Z</time>
      </trkpt>
      <trkpt lat="44.43982" lon="4.50765">
        <ele>532.20001220703</ele>
        <time>2013-02-27T13:36:40.000Z</time>
      </trkpt>
      <trkpt lat="44.43982" lon="4.50765">
        <ele>531.79998779297</ele>
        <time>2013-02-27T13:36:41.000Z</time>
      </trkpt>
      <trkpt lat="44.43982" lon="4.50765">
        <ele>532.20001220703</ele>
        <time>2013-02-27T13:36:42.000Z</time>
      </trkpt>
      <trkpt lat="44.43983" lon="4.50765">
        <ele>532.20001220703</ele>
        <time>2013-02-27T13:36:43.000Z</time>
      </trkpt>
      <trkpt lat="44.43983" lon="4.50765">
        <ele>532.79998779297</ele>
        <time>2013-02-27T13:36:44.000Z</time>
      </trkpt>
      <trkpt lat="44.43983" lon="4.50765">
        <ele>532.79998779297</ele>
        <time>2013-02-27T13:36:45.000Z</time>
      </trkpt>
      <trkpt lat="44.43983" lon="4.50765">
        <ele>532.79998779297</ele>
        <time>2013-02-27T13:36:46.000Z</time>
      </trkpt>
      <trkpt lat="44.43984" lon="4.50765">
        <ele>533.20001220703</ele>
        <time>2013-02-27T13:36:47.000Z</time>
      </trkpt>
      <trkpt lat="44.43984" lon="4.50765">
        <ele>533.20001220703</ele>
        <time>2013-02-27T13:36:48.000Z</time>
      </trkpt>
      <trkpt lat="44.43984" lon="4.50765">
        <ele>533.59997558594</ele>
        <time>2013-02-27T13:36:49.000Z</time>
      </trkpt>
      <trkpt lat="44.43984" lon="4.50765">
        <ele>533.59997558594</ele>
        <time>2013-02-27T13:36:50.000Z</time>
      </trkpt>
      <trkpt lat="44.43984" lon="4.50765">
        <ele>533.59997558594</ele>
        <time>2013-02-27T13:36:51.000Z</time>
      </trkpt>
      <trkpt lat="44.43984" lon="4.50765">
        <ele>533.59997558594</ele>
        <time>2013-02-27T13:36:52.000Z</time>
      </trkpt>
      <trkpt lat="44.43984" lon="4.50765">
        <ele>533.59997558594</ele>
        <time>2013-02-27T13:36:53.000Z</time>
      </trkpt>
      <trkpt lat="44.43984" lon="4.50765">
        <ele>533.59997558594</ele>
        <time>2013-02-27T13:36:54.000Z</time>
      </trkpt>
      <trkpt lat="44.43984" lon="4.50765">
        <ele>534.20001220703</ele>
        <time>2013-02-27T13:36:55.000Z</time>
      </trkpt>
      <trkpt lat="44.43984" lon="4.50765">
        <ele>534.20001220703</ele>
        <time>2013-02-27T13:36:56.000Z</time>
      </trkpt>
      <trkpt lat="44.43984" lon="4.50765">
        <ele>534.20001220703</ele>
        <time>2013-02-27T13:36:57.000Z</time>
      </trkpt>
      <trkpt lat="44.43984" lon="4.50765">
        <ele>534.20001220703</ele>
        <time>2013-02-27T13:36:58.000Z</time>
      </trkpt>
      <trkpt lat="44.43984" lon="4.50765">
        <ele>534.20001220703</ele>
        <time>2013-02-27T13:36:59.000Z</time>
      </trkpt>
      <trkpt lat="44.43984" lon="4.50766">
        <ele>534.20001220703</ele>
        <time>2013-02-27T13:37:00.000Z</time>
      </trkpt>
      <trkpt lat="44.43984" lon="4.50766">
        <ele>534.20001220703</ele>
        <time>2013-02-27T13:37:01.000Z</time>
      </trkpt>
      <trkpt lat="44.43985" lon="4.50766">
        <ele>534.20001220703</ele>
        <time>2013-02-27T13:37:02.000Z</time>
      </trkpt>
      <trkpt lat="44.43985" lon="4.50766">
        <ele>533.59997558594</ele>
        <time>2013-02-27T13:37:03.000Z</time>
      </trkpt>
      <trkpt lat="44.43986" lon="4.50767">
        <ele>533.59997558594</ele>
        <time>2013-02-27T13:37:04.000Z</time>
      </trkpt>
      <trkpt lat="44.43986" lon="4.50767">
        <ele>533.20001220703</ele>
        <time>2013-02-27T13:37:05.000Z</time>
      </trkpt>
      <trkpt lat="44.43987" lon="4.50768">
        <ele>532.79998779297</ele>
        <time>2013-02-27T13:37:06.000Z</time>
      </trkpt>
      <trkpt lat="44.43988" lon="4.50769">
        <ele>532.79998779297</ele>
        <time>2013-02-27T13:37:07.000Z</time>
      </trkpt>
      <trkpt lat="44.43988" lon="4.5077">
        <ele>532.20001220703</ele>
        <time>2013-02-27T13:37:08.000Z</time>
      </trkpt>
      <trkpt lat="44.43989" lon="4.50771">
        <ele>532.20001220703</ele>
        <time>2013-02-27T13:37:09.000Z</time>
      </trkpt>
      <trkpt lat="44.43989" lon="4.50772">
        <ele>532.20001220703</ele>
        <time>2013-02-27T13:37:10.000Z</time>
      </trkpt>
      <trkpt lat="44.4399" lon="4.50773">
        <ele>531.79998779297</ele>
        <time>2013-02-27T13:37:11.000Z</time>
      </trkpt>
      <trkpt lat="44.43991" lon="4.50774">
        <ele>531.79998779297</ele>
        <time>2013-02-27T13:37:12.000Z</time>
      </trkpt>
      <trkpt lat="44.43992" lon="4.50775">
        <ele>531.20001220703</ele>
        <time>2013-02-27T13:37:13.000Z</time>
      </trkpt>
      <trkpt lat="44.43992" lon="4.50776">
        <ele>531.20001220703</ele>
        <time>2013-02-27T13:37:14.000Z</time>
      </trkpt>
      <trkpt lat="44.43993" lon="4.50777">
        <ele>530.79998779297</ele>
        <time>2013-02-27T13:37:15.000Z</time>
      </trkpt>
      <trkpt lat="44.43994" lon="4.50777">
        <ele>530.79998779297</ele>
        <time>2013-02-27T13:37:16.000Z</time>
      </trkpt>
      <trkpt lat="44.43995" lon="4.50778">
        <ele>530.79998779297</ele>
        <time>2013-02-27T13:37:17.000Z</time>
      </trkpt>
      <trkpt lat="44.43996" lon="4.50779">
        <ele>530.40002441406</ele>
        <time>2013-02-27T13:37:18.000Z</time>
      </trkpt>
      <trkpt lat="44.43996" lon="4.5078">
        <ele>529.79998779297</ele>
        <time>2013-02-27T13:37:19.000Z</time>
      </trkpt>
      <trkpt lat="44.43997" lon="4.50781">
        <ele>529.79998779297</ele>
        <time>2013-02-27T13:37:20.000Z</time>
      </trkpt>
      <trkpt lat="44.43997" lon="4.50783">
        <ele>529.40002441406</ele>
        <time>2013-02-27T13:37:21.000Z</time>
      </trkpt>
      <trkpt lat="44.43998" lon="4.50784">
        <ele>529.40002441406</ele>
        <time>2013-02-27T13:37:22.000Z</time>
      </trkpt>
      <trkpt lat="44.43998" lon="4.50785">
        <ele>528.79998779297</ele>
        <time>2013-02-27T13:37:23.000Z</time>
      </trkpt>
      <trkpt lat="44.43999" lon="4.50787">
        <ele>528.79998779297</ele>
        <time>2013-02-27T13:37:24.000Z</time>
      </trkpt>
      <trkpt lat="44.43999" lon="4.50788">
        <ele>528.79998779297</ele>
        <time>2013-02-27T13:37:25.000Z</time>
      </trkpt>
      <trkpt lat="44.43999" lon="4.5079">
        <ele>528.40002441406</ele>
        <time>2013-02-27T13:37:26.000Z</time>
      </trkpt>
      <trkpt lat="44.43999" lon="4.50791">
        <ele>528.40002441406</ele>
        <time>2013-02-27T13:37:27.000Z</time>
      </trkpt>
      <trkpt lat="44.43999" lon="4.50793">
        <ele>528</ele>
        <time>2013-02-27T13:37:28.000Z</time>
      </trkpt>
      <trkpt lat="44.43999" lon="4.50794">
        <ele>528</ele>
        <time>2013-02-27T13:37:29.000Z</time>
      </trkpt>
      <trkpt lat="44.43999" lon="4.50795">
        <ele>528</ele>
        <time>2013-02-27T13:37:30.000Z</time>
      </trkpt>
      <trkpt lat="44.43998" lon="4.50797">
        <ele>527.40002441406</ele>
        <time>2013-02-27T13:37:31.000Z</time>
      </trkpt>
      <trkpt lat="44.43998" lon="4.50798">
        <ele>527.40002441406</ele>
        <time>2013-02-27T13:37:32.000Z</time>
      </trkpt>
      <trkpt lat="44.43998" lon="4.508">
        <ele>527</ele>
        <time>2013-02-27T13:37:33.000Z</time>
      </trkpt>
      <trkpt lat="44.43998" lon="4.50801">
        <ele>527</ele>
        <time>2013-02-27T13:37:34.000Z</time>
      </trkpt>
      <trkpt lat="44.43997" lon="4.50802">
        <ele>526.40002441406</ele>
        <time>2013-02-27T13:37:35.000Z</time>
      </trkpt>
      <trkpt lat="44.43997" lon="4.50803">
        <ele>526.40002441406</ele>
        <time>2013-02-27T13:37:36.000Z</time>
      </trkpt>
      <trkpt lat="44.43997" lon="4.50805">
        <ele>526</ele>
        <time>2013-02-27T13:37:37.000Z</time>
      </trkpt>
      <trkpt lat="44.43997" lon="4.50806">
        <ele>526</ele>
        <time>2013-02-27T13:37:38.000Z</time>
      </trkpt>
      <trkpt lat="44.43997" lon="4.50807">
        <ele>525.40002441406</ele>
        <time>2013-02-27T13:37:39.000Z</time>
      </trkpt>
      <trkpt lat="44.43997" lon="4.50809">
        <ele>525.40002441406</ele>
        <time>2013-02-27T13:37:40.000Z</time>
      </trkpt>
      <trkpt lat="44.43997" lon="4.5081">
        <ele>525.40002441406</ele>
        <time>2013-02-27T13:37:41.000Z</time>
      </trkpt>
      <trkpt lat="44.43997" lon="4.50812">
        <ele>525</ele>
        <time>2013-02-27T13:37:42.000Z</time>
      </trkpt>
      <trkpt lat="44.43997" lon="4.50813">
        <ele>525</ele>
        <time>2013-02-27T13:37:43.000Z</time>
      </trkpt>
      <trkpt lat="44.43996" lon="4.50815">
        <ele>524.59997558594</ele>
        <time>2013-02-27T13:37:44.000Z</time>
      </trkpt>
      <trkpt lat="44.43996" lon="4.50817">
        <ele>524.59997558594</ele>
        <time>2013-02-27T13:37:45.000Z</time>
      </trkpt>
      <trkpt lat="44.43996" lon="4.50818">
        <ele>524.59997558594</ele>
        <time>2013-02-27T13:37:46.000Z</time>
      </trkpt>
      <trkpt lat="44.43995" lon="4.5082">
        <ele>524.59997558594</ele>
        <time>2013-02-27T13:37:47.000Z</time>
      </trkpt>
      <trkpt lat="44.43995" lon="4.50822">
        <ele>524</ele>
        <time>2013-02-27T13:37:48.000Z</time>
      </trkpt>
      <trkpt lat="44.43995" lon="4.50823">
        <ele>524</ele>
        <time>2013-02-27T13:37:49.000Z</time>
      </trkpt>
      <trkpt lat="44.43994" lon="4.50825">
        <ele>524</ele>
        <time>2013-02-27T13:37:50.000Z</time>
      </trkpt>
      <trkpt lat="44.43993" lon="4.50826">
        <ele>524</ele>
        <time>2013-02-27T13:37:51.000Z</time>
      </trkpt>
      <trkpt lat="44.43993" lon="4.50828">
        <ele>523.59997558594</ele>
        <time>2013-02-27T13:37:52.000Z</time>
      </trkpt>
      <trkpt lat="44.43992" lon="4.50829">
        <ele>523.59997558594</ele>
        <time>2013-02-27T13:37:53.000Z</time>
      </trkpt>
      <trkpt lat="44.43991" lon="4.50831">
        <ele>523.59997558594</ele>
        <time>2013-02-27T13:37:54.000Z</time>
      </trkpt>
      <trkpt lat="44.4399" lon="4.50832">
        <ele>523.59997558594</ele>
        <time>2013-02-27T13:37:55.000Z</time>
      </trkpt>
      <trkpt lat="44.43989" lon="4.50833">
        <ele>523.59997558594</ele>
        <time>2013-02-27T13:37:56.000Z</time>
      </trkpt>
      <trkpt lat="44.43989" lon="4.50834">
        <ele>523.59997558594</ele>
        <time>2013-02-27T13:37:57.000Z</time>
      </trkpt>
      <trkpt lat="44.43989" lon="4.50835">
        <ele>523.59997558594</ele>
        <time>2013-02-27T13:37:58.000Z</time>
      </trkpt>
      <trkpt lat="44.43988" lon="4.50835">
        <ele>523.59997558594</ele>
        <time>2013-02-27T13:37:59.000Z</time>
      </trkpt>
      <trkpt lat="44.43988" lon="4.50835">
        <ele>523.59997558594</ele>
        <time>2013-02-27T13:38:00.000Z</time>
      </trkpt>
      <trkpt lat="44.43988" lon="4.50835">
        <ele>523.59997558594</ele>
        <time>2013-02-27T13:38:01.000Z</time>
      </trkpt>
      <trkpt lat="44.43988" lon="4.50835">
        <ele>523</ele>
        <time>2013-02-27T13:38:02.000Z</time>
      </trkpt>
      <trkpt lat="44.43988" lon="4.50836">
        <ele>523</ele>
        <time>2013-02-27T13:38:03.000Z</time>
      </trkpt>
      <trkpt lat="44.43988" lon="4.50836">
        <ele>523.59997558594</ele>
        <time>2013-02-27T13:38:04.000Z</time>
      </trkpt>
      <trkpt lat="44.43988" lon="4.50836">
        <ele>523.59997558594</ele>
        <time>2013-02-27T13:38:05.000Z</time>
      </trkpt>
      <trkpt lat="44.43988" lon="4.50837">
        <ele>523.59997558594</ele>
        <time>2013-02-27T13:38:06.000Z</time>
      </trkpt>
      <trkpt lat="44.43987" lon="4.50837">
        <ele>523</ele>
        <time>2013-02-27T13:38:07.000Z</time>
      </trkpt>
      <trkpt lat="44.43987" lon="4.50838">
        <ele>523</ele>
        <time>2013-02-27T13:38:08.000Z</time>
      </trkpt>
      <trkpt lat="44.43986" lon="4.5084">
        <ele>522.59997558594</ele>
        <time>2013-02-27T13:38:09.000Z</time>
      </trkpt>
      <trkpt lat="44.43986" lon="4.50841">
        <ele>522.59997558594</ele>
        <time>2013-02-27T13:38:10.000Z</time>
      </trkpt>
      <trkpt lat="44.43985" lon="4.50841">
        <ele>522.20001220703</ele>
        <time>2013-02-27T13:38:11.000Z</time>
      </trkpt>
      <trkpt lat="44.43985" lon="4.50842">
        <ele>522.20001220703</ele>
        <time>2013-02-27T13:38:12.000Z</time>
      </trkpt>
      <trkpt lat="44.43984" lon="4.50844">
        <ele>521.59997558594</ele>
        <time>2013-02-27T13:38:13.000Z</time>
      </trkpt>
      <trkpt lat="44.43984" lon="4.50844">
        <ele>521.59997558594</ele>
        <time>2013-02-27T13:38:14.000Z</time>
      </trkpt>
      <trkpt lat="44.43983" lon="4.50845">
        <ele>521.20001220703</ele>
        <time>2013-02-27T13:38:15.000Z</time>
      </trkpt>
      <trkpt lat="44.43983" lon="4.50846">
        <ele>521.20001220703</ele>
        <time>2013-02-27T13:38:16.000Z</time>
      </trkpt>
      <trkpt lat="44.43983" lon="4.50846">
        <ele>521.20001220703</ele>
        <time>2013-02-27T13:38:17.000Z</time>
      </trkpt>
      <trkpt lat="44.43983" lon="4.50846">
        <ele>520.59997558594</ele>
        <time>2013-02-27T13:38:18.000Z</time>
      </trkpt>
      <trkpt lat="44.43983" lon="4.50847">
        <ele>520.59997558594</ele>
        <time>2013-02-27T13:38:19.000Z</time>
      </trkpt>
      <trkpt lat="44.43983" lon="4.50848">
        <ele>520.59997558594</ele>
        <time>2013-02-27T13:38:20.000Z</time>
      </trkpt>
      <trkpt lat="44.43982" lon="4.50849">
        <ele>520.20001220703</ele>
        <time>2013-02-27T13:38:21.000Z</time>
      </trkpt>
      <trkpt lat="44.43982" lon="4.5085">
        <ele>520.20001220703</ele>
        <time>2013-02-27T13:38:22.000Z</time>
      </trkpt>
      <trkpt lat="44.43981" lon="4.50851">
        <ele>519.79998779297</ele>
        <time>2013-02-27T13:38:23.000Z</time>
      </trkpt>
      <trkpt lat="44.43979" lon="4.50852">
        <ele>519.79998779297</ele>
        <time>2013-02-27T13:38:24.000Z</time>
      </trkpt>
      <trkpt lat="44.43979" lon="4.50852">
        <ele>519.79998779297</ele>
        <time>2013-02-27T13:38:25.000Z</time>
      </trkpt>
      <trkpt lat="44.43978" lon="4.50853">
        <ele>519.20001220703</ele>
        <time>2013-02-27T13:38:26.000Z</time>
      </trkpt>
      <trkpt lat="44.43977" lon="4.50854">
        <ele>519.20001220703</ele>
        <time>2013-02-27T13:38:27.000Z</time>
      </trkpt>
      <trkpt lat="44.43976" lon="4.50855">
        <ele>519.20001220703</ele>
        <time>2013-02-27T13:38:28.000Z</time>
      </trkpt>
      <trkpt lat="44.43976" lon="4.50856">
        <ele>518.79998779297</ele>
        <time>2013-02-27T13:38:29.000Z</time>
      </trkpt>
      <trkpt lat="44.43975" lon="4.50856">
        <ele>518.79998779297</ele>
        <time>2013-02-27T13:38:30.000Z</time>
      </trkpt>
      <trkpt lat="44.43974" lon="4.50857">
        <ele>518.79998779297</ele>
        <time>2013-02-27T13:38:31.000Z</time>
      </trkpt>
      <trkpt lat="44.43973" lon="4.50858">
        <ele>518.79998779297</ele>
        <time>2013-02-27T13:38:32.000Z</time>
      </trkpt>
      <trkpt lat="44.43972" lon="4.50858">
        <ele>518.20001220703</ele>
        <time>2013-02-27T13:38:33.000Z</time>
      </trkpt>
      <trkpt lat="44.43971" lon="4.50858">
        <ele>518.20001220703</ele>
        <time>2013-02-27T13:38:34.000Z</time>
      </trkpt>
      <trkpt lat="44.4397" lon="4.50858">
        <ele>517.79998779297</ele>
        <time>2013-02-27T13:38:35.000Z</time>
      </trkpt>
      <trkpt lat="44.43969" lon="4.50858">
        <ele>517.79998779297</ele>
        <time>2013-02-27T13:38:36.000Z</time>
      </trkpt>
      <trkpt lat="44.43968" lon="4.50858">
        <ele>517.79998779297</ele>
        <time>2013-02-27T13:38:37.000Z</time>
      </trkpt>
      <trkpt lat="44.43967" lon="4.50858">
        <ele>517.79998779297</ele>
        <time>2013-02-27T13:38:38.000Z</time>
      </trkpt>
      <trkpt lat="44.43966" lon="4.50858">
        <ele>517.79998779297</ele>
        <time>2013-02-27T13:38:39.000Z</time>
      </trkpt>
      <trkpt lat="44.43965" lon="4.50857">
        <ele>517.79998779297</ele>
        <time>2013-02-27T13:38:40.000Z</time>
      </trkpt>
      <trkpt lat="44.43964" lon="4.50857">
        <ele>517.79998779297</ele>
        <time>2013-02-27T13:38:41.000Z</time>
      </trkpt>
      <trkpt lat="44.43963" lon="4.50857">
        <ele>517.40002441406</ele>
        <time>2013-02-27T13:38:42.000Z</time>
      </trkpt>
      <trkpt lat="44.43962" lon="4.50857">
        <ele>517.40002441406</ele>
        <time>2013-02-27T13:38:43.000Z</time>
      </trkpt>
      <trkpt lat="44.43961" lon="4.50857">
        <ele>517.40002441406</ele>
        <time>2013-02-27T13:38:44.000Z</time>
      </trkpt>
      <trkpt lat="44.43959" lon="4.50857">
        <ele>517.40002441406</ele>
        <time>2013-02-27T13:38:45.000Z</time>
      </trkpt>
      <trkpt lat="44.43958" lon="4.50856">
        <ele>517.40002441406</ele>
        <time>2013-02-27T13:38:46.000Z</time>
      </trkpt>
      <trkpt lat="44.43957" lon="4.50856">
        <ele>517.40002441406</ele>
        <time>2013-02-27T13:38:47.000Z</time>
      </trkpt>
      <trkpt lat="44.43956" lon="4.50856">
        <ele>516.79998779297</ele>
        <time>2013-02-27T13:38:48.000Z</time>
      </trkpt>
      <trkpt lat="44.43955" lon="4.50856">
        <ele>516.79998779297</ele>
        <time>2013-02-27T13:38:49.000Z</time>
      </trkpt>
      <trkpt lat="44.43954" lon="4.50855">
        <ele>516.79998779297</ele>
        <time>2013-02-27T13:38:50.000Z</time>
      </trkpt>
      <trkpt lat="44.43953" lon="4.50854">
        <ele>516.79998779297</ele>
        <time>2013-02-27T13:38:51.000Z</time>
      </trkpt>
      <trkpt lat="44.43952" lon="4.50853">
        <ele>516.79998779297</ele>
        <time>2013-02-27T13:38:52.000Z</time>
      </trkpt>
      <trkpt lat="44.43952" lon="4.50853">
        <ele>516.40002441406</ele>
        <time>2013-02-27T13:38:53.000Z</time>
      </trkpt>
      <trkpt lat="44.43951" lon="4.50852">
        <ele>516.40002441406</ele>
        <time>2013-02-27T13:38:54.000Z</time>
      </trkpt>
      <trkpt lat="44.4395" lon="4.50852">
        <ele>516.40002441406</ele>
        <time>2013-02-27T13:38:55.000Z</time>
      </trkpt>
      <trkpt lat="44.43949" lon="4.50851">
        <ele>516.40002441406</ele>
        <time>2013-02-27T13:38:56.000Z</time>
      </trkpt>
      <trkpt lat="44.43949" lon="4.50851">
        <ele>515.79998779297</ele>
        <time>2013-02-27T13:38:57.000Z</time>
      </trkpt>
      <trkpt lat="44.43948" lon="4.5085">
        <ele>515.79998779297</ele>
        <time>2013-02-27T13:38:58.000Z</time>
      </trkpt>
      <trkpt lat="44.43947" lon="4.50849">
        <ele>515.79998779297</ele>
        <time>2013-02-27T13:38:59.000Z</time>
      </trkpt>
      <trkpt lat="44.43947" lon="4.50849">
        <ele>515.79998779297</ele>
        <time>2013-02-27T13:39:00.000Z</time>
      </trkpt>
      <trkpt lat="44.43946" lon="4.50848">
        <ele>515.40002441406</ele>
        <time>2013-02-27T13:39:01.000Z</time>
      </trkpt>
      <trkpt lat="44.43945" lon="4.50847">
        <ele>515.40002441406</ele>
        <time>2013-02-27T13:39:02.000Z</time>
      </trkpt>
      <trkpt lat="44.43945" lon="4.50846">
        <ele>515.40002441406</ele>
        <time>2013-02-27T13:39:03.000Z</time>
      </trkpt>
      <trkpt lat="44.43944" lon="4.50845">
        <ele>515</ele>
        <time>2013-02-27T13:39:04.000Z</time>
      </trkpt>
      <trkpt lat="44.43943" lon="4.50844">
        <ele>515</ele>
        <time>2013-02-27T13:39:05.000Z</time>
      </trkpt>
      <trkpt lat="44.43943" lon="4.50843">
        <ele>514.40002441406</ele>
        <time>2013-02-27T13:39:06.000Z</time>
      </trkpt>
      <trkpt lat="44.43942" lon="4.50842">
        <ele>514</ele>
        <time>2013-02-27T13:39:07.000Z</time>
      </trkpt>
      <trkpt lat="44.43941" lon="4.50841">
        <ele>514</ele>
        <time>2013-02-27T13:39:08.000Z</time>
      </trkpt>
      <trkpt lat="44.4394" lon="4.5084">
        <ele>513.40002441406</ele>
        <time>2013-02-27T13:39:09.000Z</time>
      </trkpt>
      <trkpt lat="44.43939" lon="4.5084">
        <ele>513.40002441406</ele>
        <time>2013-02-27T13:39:10.000Z</time>
      </trkpt>
      <trkpt lat="44.43938" lon="4.50839">
        <ele>513.40002441406</ele>
        <time>2013-02-27T13:39:11.000Z</time>
      </trkpt>
      <trkpt lat="44.43937" lon="4.50839">
        <ele>513.40002441406</ele>
        <time>2013-02-27T13:39:12.000Z</time>
      </trkpt>
      <trkpt lat="44.43936" lon="4.50839">
        <ele>513.40002441406</ele>
        <time>2013-02-27T13:39:13.000Z</time>
      </trkpt>
      <trkpt lat="44.43935" lon="4.50839">
        <ele>513.40002441406</ele>
        <time>2013-02-27T13:39:14.000Z</time>
      </trkpt>
      <trkpt lat="44.43934" lon="4.50839">
        <ele>513</ele>
        <time>2013-02-27T13:39:15.000Z</time>
      </trkpt>
      <trkpt lat="44.43933" lon="4.50839">
        <ele>513</ele>
        <time>2013-02-27T13:39:16.000Z</time>
      </trkpt>
      <trkpt lat="44.43932" lon="4.5084">
        <ele>513</ele>
        <time>2013-02-27T13:39:17.000Z</time>
      </trkpt>
      <trkpt lat="44.43931" lon="4.50841">
        <ele>512.59997558594</ele>
        <time>2013-02-27T13:39:18.000Z</time>
      </trkpt>
      <trkpt lat="44.4393" lon="4.50841">
        <ele>512.59997558594</ele>
        <time>2013-02-27T13:39:19.000Z</time>
      </trkpt>
      <trkpt lat="44.43929" lon="4.50841">
        <ele>512.59997558594</ele>
        <time>2013-02-27T13:39:20.000Z</time>
      </trkpt>
      <trkpt lat="44.43928" lon="4.50842">
        <ele>512.59997558594</ele>
        <time>2013-02-27T13:39:21.000Z</time>
      </trkpt>
      <trkpt lat="44.43927" lon="4.50842">
        <ele>512</ele>
        <time>2013-02-27T13:39:22.000Z</time>
      </trkpt>
      <trkpt lat="44.43926" lon="4.50843">
        <ele>512</ele>
        <time>2013-02-27T13:39:23.000Z</time>
      </trkpt>
      <trkpt lat="44.43925" lon="4.50844">
        <ele>512</ele>
        <time>2013-02-27T13:39:24.000Z</time>
      </trkpt>
      <trkpt lat="44.43924" lon="4.50845">
        <ele>511.60000610352</ele>
        <time>2013-02-27T13:39:25.000Z</time>
      </trkpt>
      <trkpt lat="44.43923" lon="4.50846">
        <ele>511.60000610352</ele>
        <time>2013-02-27T13:39:26.000Z</time>
      </trkpt>
      <trkpt lat="44.43922" lon="4.50847">
        <ele>511.60000610352</ele>
        <time>2013-02-27T13:39:27.000Z</time>
      </trkpt>
      <trkpt lat="44.43921" lon="4.50848">
        <ele>511.60000610352</ele>
        <time>2013-02-27T13:39:28.000Z</time>
      </trkpt>
      <trkpt lat="44.43921" lon="4.50849">
        <ele>511</ele>
        <time>2013-02-27T13:39:29.000Z</time>
      </trkpt>
      <trkpt lat="44.4392" lon="4.50851">
        <ele>511</ele>
        <time>2013-02-27T13:39:30.000Z</time>
      </trkpt>
      <trkpt lat="44.4392" lon="4.50852">
        <ele>511</ele>
        <time>2013-02-27T13:39:31.000Z</time>
      </trkpt>
      <trkpt lat="44.4392" lon="4.50853">
        <ele>510.60000610352</ele>
        <time>2013-02-27T13:39:32.000Z</time>
      </trkpt>
      <trkpt lat="44.43919" lon="4.50855">
        <ele>510.60000610352</ele>
        <time>2013-02-27T13:39:33.000Z</time>
      </trkpt>
      <trkpt lat="44.43919" lon="4.50856">
        <ele>510.20001220703</ele>
        <time>2013-02-27T13:39:34.000Z</time>
      </trkpt>
      <trkpt lat="44.43918" lon="4.50858">
        <ele>510.20001220703</ele>
        <time>2013-02-27T13:39:35.000Z</time>
      </trkpt>
      <trkpt lat="44.43918" lon="4.50859">
        <ele>509.60000610352</ele>
        <time>2013-02-27T13:39:36.000Z</time>
      </trkpt>
      <trkpt lat="44.43917" lon="4.50861">
        <ele>509.60000610352</ele>
        <time>2013-02-27T13:39:37.000Z</time>
      </trkpt>
      <trkpt lat="44.43917" lon="4.50862">
        <ele>509.60000610352</ele>
        <time>2013-02-27T13:39:38.000Z</time>
      </trkpt>
      <trkpt lat="44.43916" lon="4.50863">
        <ele>509.20001220703</ele>
        <time>2013-02-27T13:39:39.000Z</time>
      </trkpt>
      <trkpt lat="44.43916" lon="4.50865">
        <ele>509.20001220703</ele>
        <time>2013-02-27T13:39:40.000Z</time>
      </trkpt>
      <trkpt lat="44.43915" lon="4.50867">
        <ele>508.60000610352</ele>
        <time>2013-02-27T13:39:41.000Z</time>
      </trkpt>
      <trkpt lat="44.43915" lon="4.50868">
        <ele>508.60000610352</ele>
        <time>2013-02-27T13:39:42.000Z</time>
      </trkpt>
      <trkpt lat="44.43914" lon="4.5087">
        <ele>508.20001220703</ele>
        <time>2013-02-27T13:39:43.000Z</time>
      </trkpt>
      <trkpt lat="44.43914" lon="4.50871">
        <ele>508.20001220703</ele>
        <time>2013-02-27T13:39:44.000Z</time>
      </trkpt>
      <trkpt lat="44.43913" lon="4.50873">
        <ele>508.20001220703</ele>
        <time>2013-02-27T13:39:45.000Z</time>
      </trkpt>
      <trkpt lat="44.43913" lon="4.50874">
        <ele>507.79998779297</ele>
        <time>2013-02-27T13:39:46.000Z</time>
      </trkpt>
      <trkpt lat="44.43912" lon="4.50876">
        <ele>507.79998779297</ele>
        <time>2013-02-27T13:39:47.000Z</time>
      </trkpt>
      <trkpt lat="44.43912" lon="4.50877">
        <ele>507.20001220703</ele>
        <time>2013-02-27T13:39:48.000Z</time>
      </trkpt>
      <trkpt lat="44.43911" lon="4.50879">
        <ele>506.79998779297</ele>
        <time>2013-02-27T13:39:49.000Z</time>
      </trkpt>
      <trkpt lat="44.43911" lon="4.5088">
        <ele>506.79998779297</ele>
        <time>2013-02-27T13:39:50.000Z</time>
      </trkpt>
      <trkpt lat="44.43911" lon="4.50881">
        <ele>506.20001220703</ele>
        <time>2013-02-27T13:39:51.000Z</time>
      </trkpt>
      <trkpt lat="44.43911" lon="4.50882">
        <ele>506.20001220703</ele>
        <time>2013-02-27T13:39:52.000Z</time>
      </trkpt>
      <trkpt lat="44.43911" lon="4.50884">
        <ele>505.79998779297</ele>
        <time>2013-02-27T13:39:53.000Z</time>
      </trkpt>
      <trkpt lat="44.4391" lon="4.50885">
        <ele>505.79998779297</ele>
        <time>2013-02-27T13:39:54.000Z</time>
      </trkpt>
      <trkpt lat="44.4391" lon="4.50886">
        <ele>505.39999389648</ele>
        <time>2013-02-27T13:39:55.000Z</time>
      </trkpt>
      <trkpt lat="44.43909" lon="4.50887">
        <ele>505.39999389648</ele>
        <time>2013-02-27T13:39:56.000Z</time>
      </trkpt>
      <trkpt lat="44.43909" lon="4.50889">
        <ele>504.79998779297</ele>
        <time>2013-02-27T13:39:57.000Z</time>
      </trkpt>
      <trkpt lat="44.43908" lon="4.5089">
        <ele>504.79998779297</ele>
        <time>2013-02-27T13:39:58.000Z</time>
      </trkpt>
      <trkpt lat="44.43908" lon="4.50891">
        <ele>504.39999389648</ele>
        <time>2013-02-27T13:39:59.000Z</time>
      </trkpt>
      <trkpt lat="44.43907" lon="4.50893">
        <ele>504.39999389648</ele>
        <time>2013-02-27T13:40:00.000Z</time>
      </trkpt>
      <trkpt lat="44.43907" lon="4.50894">
        <ele>503.79998779297</ele>
        <time>2013-02-27T13:40:01.000Z</time>
      </trkpt>
      <trkpt lat="44.43906" lon="4.50895">
        <ele>503.79998779297</ele>
        <time>2013-02-27T13:40:02.000Z</time>
      </trkpt>
      <trkpt lat="44.43906" lon="4.50897">
        <ele>503.79998779297</ele>
        <time>2013-02-27T13:40:03.000Z</time>
      </trkpt>
      <trkpt lat="44.43906" lon="4.50899">
        <ele>504.39999389648</ele>
        <time>2013-02-27T13:40:04.000Z</time>
      </trkpt>
      <trkpt lat="44.43906" lon="4.509">
        <ele>504.79998779297</ele>
        <time>2013-02-27T13:40:05.000Z</time>
      </trkpt>
      <trkpt lat="44.43906" lon="4.50902">
        <ele>504.79998779297</ele>
        <time>2013-02-27T13:40:06.000Z</time>
      </trkpt>
      <trkpt lat="44.43906" lon="4.50904">
        <ele>505.39999389648</ele>
        <time>2013-02-27T13:40:07.000Z</time>
      </trkpt>
      <trkpt lat="44.43906" lon="4.50905">
        <ele>505.39999389648</ele>
        <time>2013-02-27T13:40:08.000Z</time>
      </trkpt>
      <trkpt lat="44.43906" lon="4.50907">
        <ele>505.39999389648</ele>
        <time>2013-02-27T13:40:09.000Z</time>
      </trkpt>
      <trkpt lat="44.43905" lon="4.50908">
        <ele>504.79998779297</ele>
        <time>2013-02-27T13:40:10.000Z</time>
      </trkpt>
      <trkpt lat="44.43905" lon="4.5091">
        <ele>504.39999389648</ele>
        <time>2013-02-27T13:40:11.000Z</time>
      </trkpt>
      <trkpt lat="44.43905" lon="4.50911">
        <ele>504.39999389648</ele>
        <time>2013-02-27T13:40:12.000Z</time>
      </trkpt>
      <trkpt lat="44.43904" lon="4.50912">
        <ele>504.39999389648</ele>
        <time>2013-02-27T13:40:13.000Z</time>
      </trkpt>
      <trkpt lat="44.43904" lon="4.50914">
        <ele>503.79998779297</ele>
        <time>2013-02-27T13:40:14.000Z</time>
      </trkpt>
      <trkpt lat="44.43904" lon="4.50915">
        <ele>503.79998779297</ele>
        <time>2013-02-27T13:40:15.000Z</time>
      </trkpt>
      <trkpt lat="44.43903" lon="4.50916">
        <ele>503.39999389648</ele>
        <time>2013-02-27T13:40:16.000Z</time>
      </trkpt>
      <trkpt lat="44.43903" lon="4.50918">
        <ele>503.39999389648</ele>
        <time>2013-02-27T13:40:17.000Z</time>
      </trkpt>
      <trkpt lat="44.43902" lon="4.50919">
        <ele>503</ele>
        <time>2013-02-27T13:40:18.000Z</time>
      </trkpt>
      <trkpt lat="44.43902" lon="4.5092">
        <ele>503</ele>
        <time>2013-02-27T13:40:19.000Z</time>
      </trkpt>
      <trkpt lat="44.43902" lon="4.50922">
        <ele>503</ele>
        <time>2013-02-27T13:40:20.000Z</time>
      </trkpt>
      <trkpt lat="44.43902" lon="4.50924">
        <ele>503</ele>
        <time>2013-02-27T13:40:21.000Z</time>
      </trkpt>
      <trkpt lat="44.43901" lon="4.50925">
        <ele>503</ele>
        <time>2013-02-27T13:40:22.000Z</time>
      </trkpt>
      <trkpt lat="44.43901" lon="4.50926">
        <ele>503</ele>
        <time>2013-02-27T13:40:23.000Z</time>
      </trkpt>
      <trkpt lat="44.43901" lon="4.50928">
        <ele>503</ele>
        <time>2013-02-27T13:40:24.000Z</time>
      </trkpt>
      <trkpt lat="44.43901" lon="4.50929">
        <ele>502.39999389648</ele>
        <time>2013-02-27T13:40:25.000Z</time>
      </trkpt>
      <trkpt lat="44.43901" lon="4.50931">
        <ele>502.39999389648</ele>
        <time>2013-02-27T13:40:26.000Z</time>
      </trkpt>
      <trkpt lat="44.439" lon="4.50932">
        <ele>502.39999389648</ele>
        <time>2013-02-27T13:40:27.000Z</time>
      </trkpt>
      <trkpt lat="44.439" lon="4.50934">
        <ele>502</ele>
        <time>2013-02-27T13:40:28.000Z</time>
      </trkpt>
      <trkpt lat="44.43899" lon="4.50935">
        <ele>502</ele>
        <time>2013-02-27T13:40:29.000Z</time>
      </trkpt>
      <trkpt lat="44.43899" lon="4.50936">
        <ele>501.39999389648</ele>
        <time>2013-02-27T13:40:30.000Z</time>
      </trkpt>
      <trkpt lat="44.43898" lon="4.50937">
        <ele>501</ele>
        <time>2013-02-27T13:40:31.000Z</time>
      </trkpt>
      <trkpt lat="44.43897" lon="4.50938">
        <ele>501</ele>
        <time>2013-02-27T13:40:32.000Z</time>
      </trkpt>
      <trkpt lat="44.43897" lon="4.50939">
        <ele>500.60000610352</ele>
        <time>2013-02-27T13:40:33.000Z</time>
      </trkpt>
      <trkpt lat="44.43896" lon="4.5094">
        <ele>500</ele>
        <time>2013-02-27T13:40:34.000Z</time>
      </trkpt>
      <trkpt lat="44.43895" lon="4.50942">
        <ele>499.60000610352</ele>
        <time>2013-02-27T13:40:35.000Z</time>
      </trkpt>
      <trkpt lat="44.43895" lon="4.50943">
        <ele>499</ele>
        <time>2013-02-27T13:40:36.000Z</time>
      </trkpt>
      <trkpt lat="44.43894" lon="4.50944">
        <ele>498.60000610352</ele>
        <time>2013-02-27T13:40:37.000Z</time>
      </trkpt>
      <trkpt lat="44.43894" lon="4.50945">
        <ele>498.60000610352</ele>
        <time>2013-02-27T13:40:38.000Z</time>
      </trkpt>
      <trkpt lat="44.43894" lon="4.50947">
        <ele>498.60000610352</ele>
        <time>2013-02-27T13:40:39.000Z</time>
      </trkpt>
      <trkpt lat="44.43894" lon="4.50949">
        <ele>498.60000610352</ele>
        <time>2013-02-27T13:40:40.000Z</time>
      </trkpt>
      <trkpt lat="44.43893" lon="4.5095">
        <ele>498.20001220703</ele>
        <time>2013-02-27T13:40:41.000Z</time>
      </trkpt>
      <trkpt lat="44.43893" lon="4.50952">
        <ele>498.60000610352</ele>
        <time>2013-02-27T13:40:42.000Z</time>
      </trkpt>
      <trkpt lat="44.43893" lon="4.50953">
        <ele>498.60000610352</ele>
        <time>2013-02-27T13:40:43.000Z</time>
      </trkpt>
      <trkpt lat="44.43893" lon="4.50955">
        <ele>499</ele>
        <time>2013-02-27T13:40:44.000Z</time>
      </trkpt>
      <trkpt lat="44.43893" lon="4.50956">
        <ele>499</ele>
        <time>2013-02-27T13:40:45.000Z</time>
      </trkpt>
      <trkpt lat="44.43892" lon="4.50957">
        <ele>499</ele>
        <time>2013-02-27T13:40:46.000Z</time>
      </trkpt>
      <trkpt lat="44.43892" lon="4.50959">
        <ele>498.60000610352</ele>
        <time>2013-02-27T13:40:47.000Z</time>
      </trkpt>
      <trkpt lat="44.43892" lon="4.5096">
        <ele>498.60000610352</ele>
        <time>2013-02-27T13:40:48.000Z</time>
      </trkpt>
      <trkpt lat="44.43892" lon="4.50961">
        <ele>498.20001220703</ele>
        <time>2013-02-27T13:40:49.000Z</time>
      </trkpt>
      <trkpt lat="44.43891" lon="4.50962">
        <ele>497.60000610352</ele>
        <time>2013-02-27T13:40:50.000Z</time>
      </trkpt>
      <trkpt lat="44.43891" lon="4.50963">
        <ele>497.60000610352</ele>
        <time>2013-02-27T13:40:51.000Z</time>
      </trkpt>
      <trkpt lat="44.43891" lon="4.50964">
        <ele>497.60000610352</ele>
        <time>2013-02-27T13:40:52.000Z</time>
      </trkpt>
      <trkpt lat="44.43891" lon="4.50965">
        <ele>497.20001220703</ele>
        <time>2013-02-27T13:40:53.000Z</time>
      </trkpt>
      <trkpt lat="44.4389" lon="4.50966">
        <ele>496.60000610352</ele>
        <time>2013-02-27T13:40:54.000Z</time>
      </trkpt>
      <trkpt lat="44.4389" lon="4.50968">
        <ele>496.60000610352</ele>
        <time>2013-02-27T13:40:55.000Z</time>
      </trkpt>
      <trkpt lat="44.43889" lon="4.50969">
        <ele>496.20001220703</ele>
        <time>2013-02-27T13:40:56.000Z</time>
      </trkpt>
      <trkpt lat="44.43889" lon="4.5097">
        <ele>496.20001220703</ele>
        <time>2013-02-27T13:40:57.000Z</time>
      </trkpt>
      <trkpt lat="44.43888" lon="4.50971">
        <ele>496.20001220703</ele>
        <time>2013-02-27T13:40:58.000Z</time>
      </trkpt>
      <trkpt lat="44.43888" lon="4.50971">
        <ele>496.20001220703</ele>
        <time>2013-02-27T13:40:59.000Z</time>
      </trkpt>
      <trkpt lat="44.43888" lon="4.50972">
        <ele>496.20001220703</ele>
        <time>2013-02-27T13:41:00.000Z</time>
      </trkpt>
      <trkpt lat="44.43887" lon="4.50973">
        <ele>496.20001220703</ele>
        <time>2013-02-27T13:41:01.000Z</time>
      </trkpt>
      <trkpt lat="44.43887" lon="4.50974">
        <ele>496.20001220703</ele>
        <time>2013-02-27T13:41:02.000Z</time>
      </trkpt>
      <trkpt lat="44.43886" lon="4.50975">
        <ele>495.60000610352</ele>
        <time>2013-02-27T13:41:03.000Z</time>
      </trkpt>
      <trkpt lat="44.43885" lon="4.50976">
        <ele>495.60000610352</ele>
        <time>2013-02-27T13:41:04.000Z</time>
      </trkpt>
      <trkpt lat="44.43885" lon="4.50977">
        <ele>495.20001220703</ele>
        <time>2013-02-27T13:41:05.000Z</time>
      </trkpt>
      <trkpt lat="44.43884" lon="4.50979">
        <ele>494.79998779297</ele>
        <time>2013-02-27T13:41:06.000Z</time>
      </trkpt>
      <trkpt lat="44.43884" lon="4.5098">
        <ele>494.20001220703</ele>
        <time>2013-02-27T13:41:07.000Z</time>
      </trkpt>
      <trkpt lat="44.43884" lon="4.50981">
        <ele>493.79998779297</ele>
        <time>2013-02-27T13:41:08.000Z</time>
      </trkpt>
      <trkpt lat="44.43883" lon="4.50982">
        <ele>493.20001220703</ele>
        <time>2013-02-27T13:41:09.000Z</time>
      </trkpt>
      <trkpt lat="44.43883" lon="4.50983">
        <ele>492.79998779297</ele>
        <time>2013-02-27T13:41:10.000Z</time>
      </trkpt>
      <trkpt lat="44.43884" lon="4.50983">
        <ele>492.39999389648</ele>
        <time>2013-02-27T13:41:11.000Z</time>
      </trkpt>
      <trkpt lat="44.43885" lon="4.50984">
        <ele>493.20001220703</ele>
        <time>2013-02-27T13:41:12.000Z</time>
      </trkpt>
      <trkpt lat="44.43886" lon="4.50984">
        <ele>493.20001220703</ele>
        <time>2013-02-27T13:41:13.000Z</time>
      </trkpt>
      <trkpt lat="44.43887" lon="4.50985">
        <ele>493.79998779297</ele>
        <time>2013-02-27T13:41:14.000Z</time>
      </trkpt>
      <trkpt lat="44.43889" lon="4.50985">
        <ele>493.79998779297</ele>
        <time>2013-02-27T13:41:15.000Z</time>
      </trkpt>
      <trkpt lat="44.4389" lon="4.50986">
        <ele>494.20001220703</ele>
        <time>2013-02-27T13:41:16.000Z</time>
      </trkpt>
      <trkpt lat="44.43891" lon="4.50986">
        <ele>494.20001220703</ele>
        <time>2013-02-27T13:41:17.000Z</time>
      </trkpt>
      <trkpt lat="44.43892" lon="4.50986">
        <ele>494.20001220703</ele>
        <time>2013-02-27T13:41:18.000Z</time>
      </trkpt>
      <trkpt lat="44.43893" lon="4.50986">
        <ele>494.20001220703</ele>
        <time>2013-02-27T13:41:19.000Z</time>
      </trkpt>
      <trkpt lat="44.43894" lon="4.50986">
        <ele>494.20001220703</ele>
        <time>2013-02-27T13:41:20.000Z</time>
      </trkpt>
      <trkpt lat="44.43895" lon="4.50987">
        <ele>494.20001220703</ele>
        <time>2013-02-27T13:41:21.000Z</time>
      </trkpt>
      <trkpt lat="44.43896" lon="4.50987">
        <ele>494.20001220703</ele>
        <time>2013-02-27T13:41:22.000Z</time>
      </trkpt>
      <trkpt lat="44.43897" lon="4.50988">
        <ele>494.20001220703</ele>
        <time>2013-02-27T13:41:23.000Z</time>
      </trkpt>
      <trkpt lat="44.43898" lon="4.50988">
        <ele>494.20001220703</ele>
        <time>2013-02-27T13:41:24.000Z</time>
      </trkpt>
      <trkpt lat="44.43898" lon="4.50988">
        <ele>494.20001220703</ele>
        <time>2013-02-27T13:41:25.000Z</time>
      </trkpt>
      <trkpt lat="44.43899" lon="4.50988">
        <ele>494.20001220703</ele>
        <time>2013-02-27T13:41:26.000Z</time>
      </trkpt>
      <trkpt lat="44.439" lon="4.50988">
        <ele>493.79998779297</ele>
        <time>2013-02-27T13:41:27.000Z</time>
      </trkpt>
      <trkpt lat="44.43901" lon="4.50988">
        <ele>493.79998779297</ele>
        <time>2013-02-27T13:41:28.000Z</time>
      </trkpt>
      <trkpt lat="44.43902" lon="4.50988">
        <ele>493.79998779297</ele>
        <time>2013-02-27T13:41:29.000Z</time>
      </trkpt>
      <trkpt lat="44.43903" lon="4.50989">
        <ele>493.79998779297</ele>
        <time>2013-02-27T13:41:30.000Z</time>
      </trkpt>
      <trkpt lat="44.43904" lon="4.50989">
        <ele>493.79998779297</ele>
        <time>2013-02-27T13:41:31.000Z</time>
      </trkpt>
      <trkpt lat="44.43906" lon="4.50988">
        <ele>494.79998779297</ele>
        <time>2013-02-27T13:41:32.000Z</time>
      </trkpt>
      <trkpt lat="44.43907" lon="4.50988">
        <ele>494.79998779297</ele>
        <time>2013-02-27T13:41:33.000Z</time>
      </trkpt>
      <trkpt lat="44.43908" lon="4.50988">
        <ele>495.20001220703</ele>
        <time>2013-02-27T13:41:34.000Z</time>
      </trkpt>
      <trkpt lat="44.43908" lon="4.50988">
        <ele>495.20001220703</ele>
        <time>2013-02-27T13:41:35.000Z</time>
      </trkpt>
      <trkpt lat="44.43909" lon="4.50988">
        <ele>495.60000610352</ele>
        <time>2013-02-27T13:41:36.000Z</time>
      </trkpt>
      <trkpt lat="44.4391" lon="4.50988">
        <ele>495.60000610352</ele>
        <time>2013-02-27T13:41:37.000Z</time>
      </trkpt>
      <trkpt lat="44.43911" lon="4.50988">
        <ele>495.60000610352</ele>
        <time>2013-02-27T13:41:38.000Z</time>
      </trkpt>
      <trkpt lat="44.43912" lon="4.50988">
        <ele>496.20001220703</ele>
        <time>2013-02-27T13:41:39.000Z</time>
      </trkpt>
      <trkpt lat="44.43913" lon="4.50989">
        <ele>496.20001220703</ele>
        <time>2013-02-27T13:41:40.000Z</time>
      </trkpt>
      <trkpt lat="44.43914" lon="4.50989">
        <ele>496.20001220703</ele>
        <time>2013-02-27T13:41:41.000Z</time>
      </trkpt>
      <trkpt lat="44.43915" lon="4.50989">
        <ele>496.20001220703</ele>
        <time>2013-02-27T13:41:42.000Z</time>
      </trkpt>
      <trkpt lat="44.43916" lon="4.5099">
        <ele>496.20001220703</ele>
        <time>2013-02-27T13:41:43.000Z</time>
      </trkpt>
      <trkpt lat="44.43917" lon="4.5099">
        <ele>496.20001220703</ele>
        <time>2013-02-27T13:41:44.000Z</time>
      </trkpt>
      <trkpt lat="44.43917" lon="4.50991">
        <ele>496.20001220703</ele>
        <time>2013-02-27T13:41:45.000Z</time>
      </trkpt>
      <trkpt lat="44.43918" lon="4.50991">
        <ele>495.60000610352</ele>
        <time>2013-02-27T13:41:46.000Z</time>
      </trkpt>
      <trkpt lat="44.43919" lon="4.50992">
        <ele>495.60000610352</ele>
        <time>2013-02-27T13:41:47.000Z</time>
      </trkpt>
      <trkpt lat="44.43919" lon="4.50993">
        <ele>495.60000610352</ele>
        <time>2013-02-27T13:41:48.000Z</time>
      </trkpt>
      <trkpt lat="44.4392" lon="4.50993">
        <ele>495.60000610352</ele>
        <time>2013-02-27T13:41:49.000Z</time>
      </trkpt>
      <trkpt lat="44.43921" lon="4.50994">
        <ele>495.20001220703</ele>
        <time>2013-02-27T13:41:50.000Z</time>
      </trkpt>
      <trkpt lat="44.43921" lon="4.50994">
        <ele>495.20001220703</ele>
        <time>2013-02-27T13:41:51.000Z</time>
      </trkpt>
      <trkpt lat="44.43922" lon="4.50995">
        <ele>495.20001220703</ele>
        <time>2013-02-27T13:41:52.000Z</time>
      </trkpt>
      <trkpt lat="44.43923" lon="4.50996">
        <ele>494.79998779297</ele>
        <time>2013-02-27T13:41:53.000Z</time>
      </trkpt>
      <trkpt lat="44.43923" lon="4.50997">
        <ele>494.79998779297</ele>
        <time>2013-02-27T13:41:54.000Z</time>
      </trkpt>
      <trkpt lat="44.43924" lon="4.50997">
        <ele>494.79998779297</ele>
        <time>2013-02-27T13:41:55.000Z</time>
      </trkpt>
      <trkpt lat="44.43925" lon="4.50998">
        <ele>494.79998779297</ele>
        <time>2013-02-27T13:41:56.000Z</time>
      </trkpt>
      <trkpt lat="44.43925" lon="4.50998">
        <ele>494.20001220703</ele>
        <time>2013-02-27T13:41:57.000Z</time>
      </trkpt>
      <trkpt lat="44.43926" lon="4.50999">
        <ele>494.20001220703</ele>
        <time>2013-02-27T13:41:58.000Z</time>
      </trkpt>
      <trkpt lat="44.43927" lon="4.51">
        <ele>494.20001220703</ele>
        <time>2013-02-27T13:41:59.000Z</time>
      </trkpt>
      <trkpt lat="44.43927" lon="4.51">
        <ele>494.20001220703</ele>
        <time>2013-02-27T13:42:00.000Z</time>
      </trkpt>
      <trkpt lat="44.43928" lon="4.51001">
        <ele>493.79998779297</ele>
        <time>2013-02-27T13:42:01.000Z</time>
      </trkpt>
      <trkpt lat="44.43929" lon="4.51001">
        <ele>493.79998779297</ele>
        <time>2013-02-27T13:42:02.000Z</time>
      </trkpt>
      <trkpt lat="44.4393" lon="4.51002">
        <ele>493.20001220703</ele>
        <time>2013-02-27T13:42:03.000Z</time>
      </trkpt>
      <trkpt lat="44.43931" lon="4.51003">
        <ele>492.79998779297</ele>
        <time>2013-02-27T13:42:04.000Z</time>
      </trkpt>
      <trkpt lat="44.43931" lon="4.51003">
        <ele>492.79998779297</ele>
        <time>2013-02-27T13:42:05.000Z</time>
      </trkpt>
      <trkpt lat="44.43932" lon="4.51004">
        <ele>492.39999389648</ele>
        <time>2013-02-27T13:42:06.000Z</time>
      </trkpt>
      <trkpt lat="44.43933" lon="4.51005">
        <ele>492.39999389648</ele>
        <time>2013-02-27T13:42:07.000Z</time>
      </trkpt>
      <trkpt lat="44.43933" lon="4.51006">
        <ele>492.39999389648</ele>
        <time>2013-02-27T13:42:08.000Z</time>
      </trkpt>
      <trkpt lat="44.43934" lon="4.51007">
        <ele>491.79998779297</ele>
        <time>2013-02-27T13:42:09.000Z</time>
      </trkpt>
      <trkpt lat="44.43935" lon="4.51008">
        <ele>491.39999389648</ele>
        <time>2013-02-27T13:42:10.000Z</time>
      </trkpt>
      <trkpt lat="44.43935" lon="4.51009">
        <ele>491.39999389648</ele>
        <time>2013-02-27T13:42:11.000Z</time>
      </trkpt>
      <trkpt lat="44.43935" lon="4.5101">
        <ele>490.79998779297</ele>
        <time>2013-02-27T13:42:12.000Z</time>
      </trkpt>
      <trkpt lat="44.43936" lon="4.51012">
        <ele>490.39999389648</ele>
        <time>2013-02-27T13:42:13.000Z</time>
      </trkpt>
      <trkpt lat="44.43937" lon="4.51013">
        <ele>490.39999389648</ele>
        <time>2013-02-27T13:42:14.000Z</time>
      </trkpt>
      <trkpt lat="44.43938" lon="4.51014">
        <ele>490.39999389648</ele>
        <time>2013-02-27T13:42:15.000Z</time>
      </trkpt>
      <trkpt lat="44.43938" lon="4.51016">
        <ele>490</ele>
        <time>2013-02-27T13:42:16.000Z</time>
      </trkpt>
      <trkpt lat="44.43939" lon="4.51017">
        <ele>490</ele>
        <time>2013-02-27T13:42:17.000Z</time>
      </trkpt>
      <trkpt lat="44.4394" lon="4.51018">
        <ele>489.39999389648</ele>
        <time>2013-02-27T13:42:18.000Z</time>
      </trkpt>
      <trkpt lat="44.43941" lon="4.51019">
        <ele>489.39999389648</ele>
        <time>2013-02-27T13:42:19.000Z</time>
      </trkpt>
      <trkpt lat="44.43942" lon="4.51021">
        <ele>489.39999389648</ele>
        <time>2013-02-27T13:42:20.000Z</time>
      </trkpt>
      <trkpt lat="44.43943" lon="4.51022">
        <ele>489</ele>
        <time>2013-02-27T13:42:21.000Z</time>
      </trkpt>
      <trkpt lat="44.43944" lon="4.51023">
        <ele>489</ele>
        <time>2013-02-27T13:42:22.000Z</time>
      </trkpt>
      <trkpt lat="44.43944" lon="4.51024">
        <ele>488.39999389648</ele>
        <time>2013-02-27T13:42:23.000Z</time>
      </trkpt>
      <trkpt lat="44.43945" lon="4.51025">
        <ele>488.39999389648</ele>
        <time>2013-02-27T13:42:24.000Z</time>
      </trkpt>
      <trkpt lat="44.43946" lon="4.51026">
        <ele>488.39999389648</ele>
        <time>2013-02-27T13:42:25.000Z</time>
      </trkpt>
      <trkpt lat="44.43947" lon="4.51027">
        <ele>488.39999389648</ele>
        <time>2013-02-27T13:42:26.000Z</time>
      </trkpt>
      <trkpt lat="44.43948" lon="4.51028">
        <ele>488.39999389648</ele>
        <time>2013-02-27T13:42:27.000Z</time>
      </trkpt>
      <trkpt lat="44.43949" lon="4.51028">
        <ele>488.39999389648</ele>
        <time>2013-02-27T13:42:28.000Z</time>
      </trkpt>
      <trkpt lat="44.4395" lon="4.51029">
        <ele>488</ele>
        <time>2013-02-27T13:42:29.000Z</time>
      </trkpt>
      <trkpt lat="44.43951" lon="4.5103">
        <ele>488</ele>
        <time>2013-02-27T13:42:30.000Z</time>
      </trkpt>
      <trkpt lat="44.43952" lon="4.51031">
        <ele>487.60000610352</ele>
        <time>2013-02-27T13:42:31.000Z</time>
      </trkpt>
      <trkpt lat="44.43952" lon="4.51032">
        <ele>487.60000610352</ele>
        <time>2013-02-27T13:42:32.000Z</time>
      </trkpt>
      <trkpt lat="44.43953" lon="4.51033">
        <ele>487.60000610352</ele>
        <time>2013-02-27T13:42:33.000Z</time>
      </trkpt>
      <trkpt lat="44.43954" lon="4.51035">
        <ele>487.60000610352</ele>
        <time>2013-02-27T13:42:34.000Z</time>
      </trkpt>
      <trkpt lat="44.43955" lon="4.51036">
        <ele>487</ele>
        <time>2013-02-27T13:42:35.000Z</time>
      </trkpt>
      <trkpt lat="44.43956" lon="4.51037">
        <ele>487</ele>
        <time>2013-02-27T13:42:36.000Z</time>
      </trkpt>
      <trkpt lat="44.43956" lon="4.51037">
        <ele>487</ele>
        <time>2013-02-27T13:42:37.000Z</time>
      </trkpt>
      <trkpt lat="44.43957" lon="4.51038">
        <ele>487</ele>
        <time>2013-02-27T13:42:38.000Z</time>
      </trkpt>
      <trkpt lat="44.43958" lon="4.51039">
        <ele>487</ele>
        <time>2013-02-27T13:42:39.000Z</time>
      </trkpt>
      <trkpt lat="44.43959" lon="4.51039">
        <ele>486.60000610352</ele>
        <time>2013-02-27T13:42:40.000Z</time>
      </trkpt>
      <trkpt lat="44.4396" lon="4.51039">
        <ele>486.60000610352</ele>
        <time>2013-02-27T13:42:41.000Z</time>
      </trkpt>
      <trkpt lat="44.43961" lon="4.51039">
        <ele>486</ele>
        <time>2013-02-27T13:42:42.000Z</time>
      </trkpt>
      <trkpt lat="44.43962" lon="4.51039">
        <ele>486</ele>
        <time>2013-02-27T13:42:43.000Z</time>
      </trkpt>
      <trkpt lat="44.43963" lon="4.51038">
        <ele>486.60000610352</ele>
        <time>2013-02-27T13:42:44.000Z</time>
      </trkpt>
      <trkpt lat="44.43964" lon="4.51037">
        <ele>486</ele>
        <time>2013-02-27T13:42:45.000Z</time>
      </trkpt>
      <trkpt lat="44.43965" lon="4.51036">
        <ele>486</ele>
        <time>2013-02-27T13:42:46.000Z</time>
      </trkpt>
      <trkpt lat="44.43966" lon="4.51035">
        <ele>485.60000610352</ele>
        <time>2013-02-27T13:42:47.000Z</time>
      </trkpt>
      <trkpt lat="44.43966" lon="4.51034">
        <ele>485.20001220703</ele>
        <time>2013-02-27T13:42:48.000Z</time>
      </trkpt>
      <trkpt lat="44.43967" lon="4.51032">
        <ele>485.20001220703</ele>
        <time>2013-02-27T13:42:49.000Z</time>
      </trkpt>
      <trkpt lat="44.43968" lon="4.51031">
        <ele>484.60000610352</ele>
        <time>2013-02-27T13:42:50.000Z</time>
      </trkpt>
      <trkpt lat="44.43968" lon="4.5103">
        <ele>483.60000610352</ele>
        <time>2013-02-27T13:42:51.000Z</time>
      </trkpt>
      <trkpt lat="44.43969" lon="4.51029">
        <ele>483.20001220703</ele>
        <time>2013-02-27T13:42:52.000Z</time>
      </trkpt>
      <trkpt lat="44.43969" lon="4.51027">
        <ele>482.79998779297</ele>
        <time>2013-02-27T13:42:53.000Z</time>
      </trkpt>
      <trkpt lat="44.43969" lon="4.51026">
        <ele>482.79998779297</ele>
        <time>2013-02-27T13:42:54.000Z</time>
      </trkpt>
      <trkpt lat="44.4397" lon="4.51025">
        <ele>482.20001220703</ele>
        <time>2013-02-27T13:42:55.000Z</time>
      </trkpt>
      <trkpt lat="44.4397" lon="4.51024">
        <ele>481.79998779297</ele>
        <time>2013-02-27T13:42:56.000Z</time>
      </trkpt>
      <trkpt lat="44.43971" lon="4.51023">
        <ele>481.20001220703</ele>
        <time>2013-02-27T13:42:57.000Z</time>
      </trkpt>
      <trkpt lat="44.43971" lon="4.51021">
        <ele>480.79998779297</ele>
        <time>2013-02-27T13:42:58.000Z</time>
      </trkpt>
      <trkpt lat="44.43971" lon="4.5102">
        <ele>480.39999389648</ele>
        <time>2013-02-27T13:42:59.000Z</time>
      </trkpt>
      <trkpt lat="44.43972" lon="4.51019">
        <ele>479.39999389648</ele>
        <time>2013-02-27T13:43:00.000Z</time>
      </trkpt>
      <trkpt lat="44.43972" lon="4.51018">
        <ele>478.79998779297</ele>
        <time>2013-02-27T13:43:01.000Z</time>
      </trkpt>
      <trkpt lat="44.43972" lon="4.51017">
        <ele>478.79998779297</ele>
        <time>2013-02-27T13:43:02.000Z</time>
      </trkpt>
      <trkpt lat="44.43973" lon="4.51016">
        <ele>478.39999389648</ele>
        <time>2013-02-27T13:43:03.000Z</time>
      </trkpt>
      <trkpt lat="44.43973" lon="4.51014">
        <ele>478</ele>
        <time>2013-02-27T13:43:04.000Z</time>
      </trkpt>
      <trkpt lat="44.43974" lon="4.51013">
        <ele>477.39999389648</ele>
        <time>2013-02-27T13:43:05.000Z</time>
      </trkpt>
      <trkpt lat="44.43974" lon="4.51012">
        <ele>477</ele>
        <time>2013-02-27T13:43:06.000Z</time>
      </trkpt>
      <trkpt lat="44.43974" lon="4.51011">
        <ele>476.39999389648</ele>
        <time>2013-02-27T13:43:07.000Z</time>
      </trkpt>
      <trkpt lat="44.43974" lon="4.5101">
        <ele>476.39999389648</ele>
        <time>2013-02-27T13:43:08.000Z</time>
      </trkpt>
      <trkpt lat="44.43974" lon="4.51009">
        <ele>476</ele>
        <time>2013-02-27T13:43:09.000Z</time>
      </trkpt>
      <trkpt lat="44.43974" lon="4.51007">
        <ele>476</ele>
        <time>2013-02-27T13:43:10.000Z</time>
      </trkpt>
      <trkpt lat="44.43974" lon="4.51006">
        <ele>475.60000610352</ele>
        <time>2013-02-27T13:43:11.000Z</time>
      </trkpt>
      <trkpt lat="44.43974" lon="4.51005">
        <ele>475</ele>
        <time>2013-02-27T13:43:12.000Z</time>
      </trkpt>
      <trkpt lat="44.43974" lon="4.51003">
        <ele>475</ele>
        <time>2013-02-27T13:43:13.000Z</time>
      </trkpt>
      <trkpt lat="44.43974" lon="4.51001">
        <ele>475</ele>
        <time>2013-02-27T13:43:14.000Z</time>
      </trkpt>
      <trkpt lat="44.43974" lon="4.51">
        <ele>475</ele>
        <time>2013-02-27T13:43:15.000Z</time>
      </trkpt>
      <trkpt lat="44.43974" lon="4.50998">
        <ele>474.60000610352</ele>
        <time>2013-02-27T13:43:16.000Z</time>
      </trkpt>
      <trkpt lat="44.43974" lon="4.50997">
        <ele>474.60000610352</ele>
        <time>2013-02-27T13:43:17.000Z</time>
      </trkpt>
      <trkpt lat="44.43974" lon="4.50995">
        <ele>474.60000610352</ele>
        <time>2013-02-27T13:43:18.000Z</time>
      </trkpt>
      <trkpt lat="44.43974" lon="4.50994">
        <ele>474</ele>
        <time>2013-02-27T13:43:19.000Z</time>
      </trkpt>
      <trkpt lat="44.43975" lon="4.50993">
        <ele>473.60000610352</ele>
        <time>2013-02-27T13:43:20.000Z</time>
      </trkpt>
      <trkpt lat="44.43975" lon="4.50992">
        <ele>473.20001220703</ele>
        <time>2013-02-27T13:43:21.000Z</time>
      </trkpt>
      <trkpt lat="44.43975" lon="4.5099">
        <ele>473.20001220703</ele>
        <time>2013-02-27T13:43:22.000Z</time>
      </trkpt>
      <trkpt lat="44.43976" lon="4.50989">
        <ele>472.60000610352</ele>
        <time>2013-02-27T13:43:23.000Z</time>
      </trkpt>
      <trkpt lat="44.43976" lon="4.50987">
        <ele>472.60000610352</ele>
        <time>2013-02-27T13:43:24.000Z</time>
      </trkpt>
      <trkpt lat="44.43977" lon="4.50985">
        <ele>473.60000610352</ele>
        <time>2013-02-27T13:43:25.000Z</time>
      </trkpt>
      <trkpt lat="44.43977" lon="4.50985">
        <ele>473.60000610352</ele>
        <time>2013-02-27T13:43:26.000Z</time>
      </trkpt>
      <trkpt lat="44.43978" lon="4.50984">
        <ele>474</ele>
        <time>2013-02-27T13:43:27.000Z</time>
      </trkpt>
      <trkpt lat="44.43979" lon="4.50983">
        <ele>474.60000610352</ele>
        <time>2013-02-27T13:43:28.000Z</time>
      </trkpt>
      <trkpt lat="44.4398" lon="4.50983">
        <ele>474.60000610352</ele>
        <time>2013-02-27T13:43:29.000Z</time>
      </trkpt>
      <trkpt lat="44.4398" lon="4.50982">
        <ele>474</ele>
        <time>2013-02-27T13:43:30.000Z</time>
      </trkpt>
      <trkpt lat="44.43981" lon="4.50982">
        <ele>474</ele>
        <time>2013-02-27T13:43:31.000Z</time>
      </trkpt>
      <trkpt lat="44.43982" lon="4.50982">
        <ele>474</ele>
        <time>2013-02-27T13:43:32.000Z</time>
      </trkpt>
      <trkpt lat="44.43983" lon="4.50981">
        <ele>474</ele>
        <time>2013-02-27T13:43:33.000Z</time>
      </trkpt>
      <trkpt lat="44.43984" lon="4.50981">
        <ele>474</ele>
        <time>2013-02-27T13:43:34.000Z</time>
      </trkpt>
      <trkpt lat="44.43985" lon="4.50981">
        <ele>474</ele>
        <time>2013-02-27T13:43:35.000Z</time>
      </trkpt>
      <trkpt lat="44.43986" lon="4.50981">
        <ele>474</ele>
        <time>2013-02-27T13:43:36.000Z</time>
      </trkpt>
      <trkpt lat="44.43987" lon="4.50981">
        <ele>474</ele>
        <time>2013-02-27T13:43:37.000Z</time>
      </trkpt>
      <trkpt lat="44.43988" lon="4.5098">
        <ele>474.60000610352</ele>
        <time>2013-02-27T13:43:38.000Z</time>
      </trkpt>
      <trkpt lat="44.43989" lon="4.5098">
        <ele>474.60000610352</ele>
        <time>2013-02-27T13:43:39.000Z</time>
      </trkpt>
      <trkpt lat="44.4399" lon="4.5098">
        <ele>474.60000610352</ele>
        <time>2013-02-27T13:43:40.000Z</time>
      </trkpt>
      <trkpt lat="44.43991" lon="4.50979">
        <ele>474</ele>
        <time>2013-02-27T13:43:41.000Z</time>
      </trkpt>
      <trkpt lat="44.43992" lon="4.50979">
        <ele>474.60000610352</ele>
        <time>2013-02-27T13:43:42.000Z</time>
      </trkpt>
      <trkpt lat="44.43993" lon="4.50979">
        <ele>474.60000610352</ele>
        <time>2013-02-27T13:43:43.000Z</time>
      </trkpt>
      <trkpt lat="44.43994" lon="4.50979">
        <ele>474.60000610352</ele>
        <time>2013-02-27T13:43:44.000Z</time>
      </trkpt>
      <trkpt lat="44.43994" lon="4.50979">
        <ele>474.60000610352</ele>
        <time>2013-02-27T13:43:45.000Z</time>
      </trkpt>
      <trkpt lat="44.43995" lon="4.50979">
        <ele>474.60000610352</ele>
        <time>2013-02-27T13:43:46.000Z</time>
      </trkpt>
      <trkpt lat="44.43996" lon="4.50979">
        <ele>474.60000610352</ele>
        <time>2013-02-27T13:43:47.000Z</time>
      </trkpt>
      <trkpt lat="44.43997" lon="4.5098">
        <ele>474.60000610352</ele>
        <time>2013-02-27T13:43:48.000Z</time>
      </trkpt>
      <trkpt lat="44.43997" lon="4.5098">
        <ele>474.60000610352</ele>
        <time>2013-02-27T13:43:49.000Z</time>
      </trkpt>
      <trkpt lat="44.43998" lon="4.5098">
        <ele>474.60000610352</ele>
        <time>2013-02-27T13:43:50.000Z</time>
      </trkpt>
      <trkpt lat="44.43999" lon="4.50979">
        <ele>474.60000610352</ele>
        <time>2013-02-27T13:43:51.000Z</time>
      </trkpt>
      <trkpt lat="44.44" lon="4.50979">
        <ele>474.60000610352</ele>
        <time>2013-02-27T13:43:52.000Z</time>
      </trkpt>
      <trkpt lat="44.44" lon="4.50979">
        <ele>474.60000610352</ele>
        <time>2013-02-27T13:43:53.000Z</time>
      </trkpt>
      <trkpt lat="44.44001" lon="4.50979">
        <ele>474</ele>
        <time>2013-02-27T13:43:54.000Z</time>
      </trkpt>
      <trkpt lat="44.44002" lon="4.50979">
        <ele>474</ele>
        <time>2013-02-27T13:43:55.000Z</time>
      </trkpt>
      <trkpt lat="44.44003" lon="4.50979">
        <ele>474</ele>
        <time>2013-02-27T13:43:56.000Z</time>
      </trkpt>
      <trkpt lat="44.44003" lon="4.50979">
        <ele>474</ele>
        <time>2013-02-27T13:43:57.000Z</time>
      </trkpt>
      <trkpt lat="44.44004" lon="4.50979">
        <ele>474</ele>
        <time>2013-02-27T13:43:58.000Z</time>
      </trkpt>
      <trkpt lat="44.44005" lon="4.50979">
        <ele>474</ele>
        <time>2013-02-27T13:43:59.000Z</time>
      </trkpt>
      <trkpt lat="44.44006" lon="4.50979">
        <ele>474</ele>
        <time>2013-02-27T13:44:00.000Z</time>
      </trkpt>
      <trkpt lat="44.44006" lon="4.50979">
        <ele>474.60000610352</ele>
        <time>2013-02-27T13:44:01.000Z</time>
      </trkpt>
      <trkpt lat="44.44007" lon="4.50979">
        <ele>474</ele>
        <time>2013-02-27T13:44:02.000Z</time>
      </trkpt>
      <trkpt lat="44.44008" lon="4.50979">
        <ele>474</ele>
        <time>2013-02-27T13:44:03.000Z</time>
      </trkpt>
      <trkpt lat="44.44009" lon="4.5098">
        <ele>474</ele>
        <time>2013-02-27T13:44:04.000Z</time>
      </trkpt>
      <trkpt lat="44.44009" lon="4.5098">
        <ele>473.60000610352</ele>
        <time>2013-02-27T13:44:05.000Z</time>
      </trkpt>
      <trkpt lat="44.4401" lon="4.50981">
        <ele>473.60000610352</ele>
        <time>2013-02-27T13:44:06.000Z</time>
      </trkpt>
      <trkpt lat="44.44011" lon="4.50981">
        <ele>473.20001220703</ele>
        <time>2013-02-27T13:44:07.000Z</time>
      </trkpt>
      <trkpt lat="44.44011" lon="4.50981">
        <ele>473.20001220703</ele>
        <time>2013-02-27T13:44:08.000Z</time>
      </trkpt>
      <trkpt lat="44.44012" lon="4.50981">
        <ele>472.60000610352</ele>
        <time>2013-02-27T13:44:09.000Z</time>
      </trkpt>
      <trkpt lat="44.44013" lon="4.50981">
        <ele>472.60000610352</ele>
        <time>2013-02-27T13:44:10.000Z</time>
      </trkpt>
      <trkpt lat="44.44014" lon="4.50981">
        <ele>472.20001220703</ele>
        <time>2013-02-27T13:44:11.000Z</time>
      </trkpt>
      <trkpt lat="44.44015" lon="4.50982">
        <ele>472.20001220703</ele>
        <time>2013-02-27T13:44:12.000Z</time>
      </trkpt>
      <trkpt lat="44.44016" lon="4.50982">
        <ele>471.60000610352</ele>
        <time>2013-02-27T13:44:13.000Z</time>
      </trkpt>
      <trkpt lat="44.44017" lon="4.50982">
        <ele>471.60000610352</ele>
        <time>2013-02-27T13:44:14.000Z</time>
      </trkpt>
      <trkpt lat="44.44018" lon="4.50982">
        <ele>471.60000610352</ele>
        <time>2013-02-27T13:44:15.000Z</time>
      </trkpt>
      <trkpt lat="44.44018" lon="4.50982">
        <ele>471.20001220703</ele>
        <time>2013-02-27T13:44:16.000Z</time>
      </trkpt>
      <trkpt lat="44.4402" lon="4.50982">
        <ele>470.79998779297</ele>
        <time>2013-02-27T13:44:17.000Z</time>
      </trkpt>
      <trkpt lat="44.44021" lon="4.50982">
        <ele>470.79998779297</ele>
        <time>2013-02-27T13:44:18.000Z</time>
      </trkpt>
      <trkpt lat="44.44022" lon="4.50982">
        <ele>470.79998779297</ele>
        <time>2013-02-27T13:44:19.000Z</time>
      </trkpt>
      <trkpt lat="44.44023" lon="4.50982">
        <ele>471.20001220703</ele>
        <time>2013-02-27T13:44:20.000Z</time>
      </trkpt>
      <trkpt lat="44.44023" lon="4.50982">
        <ele>471.20001220703</ele>
        <time>2013-02-27T13:44:21.000Z</time>
      </trkpt>
      <trkpt lat="44.44024" lon="4.50982">
        <ele>470.79998779297</ele>
        <time>2013-02-27T13:44:22.000Z</time>
      </trkpt>
      <trkpt lat="44.44025" lon="4.50982">
        <ele>470.79998779297</ele>
        <time>2013-02-27T13:44:23.000Z</time>
      </trkpt>
      <trkpt lat="44.44026" lon="4.50983">
        <ele>470.79998779297</ele>
        <time>2013-02-27T13:44:24.000Z</time>
      </trkpt>
      <trkpt lat="44.44027" lon="4.50983">
        <ele>470.79998779297</ele>
        <time>2013-02-27T13:44:25.000Z</time>
      </trkpt>
      <trkpt lat="44.44028" lon="4.50983">
        <ele>470.79998779297</ele>
        <time>2013-02-27T13:44:26.000Z</time>
      </trkpt>
      <trkpt lat="44.44029" lon="4.50983">
        <ele>470.20001220703</ele>
        <time>2013-02-27T13:44:27.000Z</time>
      </trkpt>
      <trkpt lat="44.4403" lon="4.50984">
        <ele>470.79998779297</ele>
        <time>2013-02-27T13:44:28.000Z</time>
      </trkpt>
      <trkpt lat="44.44031" lon="4.50984">
        <ele>470.79998779297</ele>
        <time>2013-02-27T13:44:29.000Z</time>
      </trkpt>
      <trkpt lat="44.44032" lon="4.50984">
        <ele>470.79998779297</ele>
        <time>2013-02-27T13:44:30.000Z</time>
      </trkpt>
      <trkpt lat="44.44033" lon="4.50985">
        <ele>470.20001220703</ele>
        <time>2013-02-27T13:44:31.000Z</time>
      </trkpt>
      <trkpt lat="44.44034" lon="4.50985">
        <ele>470.20001220703</ele>
        <time>2013-02-27T13:44:32.000Z</time>
      </trkpt>
      <trkpt lat="44.44035" lon="4.50986">
        <ele>470.20001220703</ele>
        <time>2013-02-27T13:44:33.000Z</time>
      </trkpt>
      <trkpt lat="44.44036" lon="4.50986">
        <ele>469.79998779297</ele>
        <time>2013-02-27T13:44:34.000Z</time>
      </trkpt>
      <trkpt lat="44.44036" lon="4.50987">
        <ele>469.79998779297</ele>
        <time>2013-02-27T13:44:35.000Z</time>
      </trkpt>
      <trkpt lat="44.44037" lon="4.50987">
        <ele>469.20001220703</ele>
        <time>2013-02-27T13:44:36.000Z</time>
      </trkpt>
      <trkpt lat="44.44038" lon="4.50988">
        <ele>469.20001220703</ele>
        <time>2013-02-27T13:44:37.000Z</time>
      </trkpt>
      <trkpt lat="44.44039" lon="4.50988">
        <ele>469.20001220703</ele>
        <time>2013-02-27T13:44:38.000Z</time>
      </trkpt>
      <trkpt lat="44.4404" lon="4.50988">
        <ele>469.20001220703</ele>
        <time>2013-02-27T13:44:39.000Z</time>
      </trkpt>
      <trkpt lat="44.4404" lon="4.50989">
        <ele>468.79998779297</ele>
        <time>2013-02-27T13:44:40.000Z</time>
      </trkpt>
      <trkpt lat="44.44041" lon="4.5099">
        <ele>468.79998779297</ele>
        <time>2013-02-27T13:44:41.000Z</time>
      </trkpt>
      <trkpt lat="44.44042" lon="4.5099">
        <ele>468.79998779297</ele>
        <time>2013-02-27T13:44:42.000Z</time>
      </trkpt>
      <trkpt lat="44.44043" lon="4.5099">
        <ele>468.20001220703</ele>
        <time>2013-02-27T13:44:43.000Z</time>
      </trkpt>
      <trkpt lat="44.44044" lon="4.50991">
        <ele>468.20001220703</ele>
        <time>2013-02-27T13:44:44.000Z</time>
      </trkpt>
      <trkpt lat="44.44045" lon="4.50991">
        <ele>468.20001220703</ele>
        <time>2013-02-27T13:44:45.000Z</time>
      </trkpt>
      <trkpt lat="44.44046" lon="4.50992">
        <ele>468.20001220703</ele>
        <time>2013-02-27T13:44:46.000Z</time>
      </trkpt>
      <trkpt lat="44.44047" lon="4.50992">
        <ele>467.79998779297</ele>
        <time>2013-02-27T13:44:47.000Z</time>
      </trkpt>
      <trkpt lat="44.44048" lon="4.50993">
        <ele>467.79998779297</ele>
        <time>2013-02-27T13:44:48.000Z</time>
      </trkpt>
      <trkpt lat="44.44049" lon="4.50993">
        <ele>467.79998779297</ele>
        <time>2013-02-27T13:44:49.000Z</time>
      </trkpt>
      <trkpt lat="44.4405" lon="4.50993">
        <ele>467.39999389648</ele>
        <time>2013-02-27T13:44:50.000Z</time>
      </trkpt>
      <trkpt lat="44.44051" lon="4.50994">
        <ele>467.39999389648</ele>
        <time>2013-02-27T13:44:51.000Z</time>
      </trkpt>
      <trkpt lat="44.44052" lon="4.50995">
        <ele>467.39999389648</ele>
        <time>2013-02-27T13:44:52.000Z</time>
      </trkpt>
      <trkpt lat="44.44052" lon="4.50995">
        <ele>467.39999389648</ele>
        <time>2013-02-27T13:44:53.000Z</time>
      </trkpt>
      <trkpt lat="44.44053" lon="4.50996">
        <ele>466.79998779297</ele>
        <time>2013-02-27T13:44:54.000Z</time>
      </trkpt>
      <trkpt lat="44.44054" lon="4.50996">
        <ele>466.79998779297</ele>
        <time>2013-02-27T13:44:55.000Z</time>
      </trkpt>
      <trkpt lat="44.44055" lon="4.50997">
        <ele>466.79998779297</ele>
        <time>2013-02-27T13:44:56.000Z</time>
      </trkpt>
      <trkpt lat="44.44056" lon="4.50997">
        <ele>466.79998779297</ele>
        <time>2013-02-27T13:44:57.000Z</time>
      </trkpt>
      <trkpt lat="44.44056" lon="4.50998">
        <ele>466.79998779297</ele>
        <time>2013-02-27T13:44:58.000Z</time>
      </trkpt>
      <trkpt lat="44.44057" lon="4.50998">
        <ele>466.39999389648</ele>
        <time>2013-02-27T13:44:59.000Z</time>
      </trkpt>
      <trkpt lat="44.44058" lon="4.50999">
        <ele>466.39999389648</ele>
        <time>2013-02-27T13:45:00.000Z</time>
      </trkpt>
      <trkpt lat="44.44059" lon="4.51">
        <ele>466.39999389648</ele>
        <time>2013-02-27T13:45:01.000Z</time>
      </trkpt>
      <trkpt lat="44.4406" lon="4.51">
        <ele>466.39999389648</ele>
        <time>2013-02-27T13:45:02.000Z</time>
      </trkpt>
      <trkpt lat="44.4406" lon="4.51">
        <ele>465.79998779297</ele>
        <time>2013-02-27T13:45:03.000Z</time>
      </trkpt>
      <trkpt lat="44.44061" lon="4.51001">
        <ele>465.79998779297</ele>
        <time>2013-02-27T13:45:04.000Z</time>
      </trkpt>
      <trkpt lat="44.44062" lon="4.51001">
        <ele>465.79998779297</ele>
        <time>2013-02-27T13:45:05.000Z</time>
      </trkpt>
      <trkpt lat="44.44063" lon="4.51002">
        <ele>465.39999389648</ele>
        <time>2013-02-27T13:45:06.000Z</time>
      </trkpt>
      <trkpt lat="44.44064" lon="4.51003">
        <ele>465.39999389648</ele>
        <time>2013-02-27T13:45:07.000Z</time>
      </trkpt>
      <trkpt lat="44.44064" lon="4.51004">
        <ele>465</ele>
        <time>2013-02-27T13:45:08.000Z</time>
      </trkpt>
      <trkpt lat="44.44065" lon="4.51004">
        <ele>465</ele>
        <time>2013-02-27T13:45:09.000Z</time>
      </trkpt>
      <trkpt lat="44.44066" lon="4.51005">
        <ele>465</ele>
        <time>2013-02-27T13:45:10.000Z</time>
      </trkpt>
      <trkpt lat="44.44067" lon="4.51006">
        <ele>465</ele>
        <time>2013-02-27T13:45:11.000Z</time>
      </trkpt>
      <trkpt lat="44.44067" lon="4.51007">
        <ele>465</ele>
        <time>2013-02-27T13:45:12.000Z</time>
      </trkpt>
      <trkpt lat="44.44068" lon="4.51008">
        <ele>464.39999389648</ele>
        <time>2013-02-27T13:45:13.000Z</time>
      </trkpt>
      <trkpt lat="44.44068" lon="4.51008">
        <ele>464.39999389648</ele>
        <time>2013-02-27T13:45:14.000Z</time>
      </trkpt>
      <trkpt lat="44.44069" lon="4.51009">
        <ele>464.39999389648</ele>
        <time>2013-02-27T13:45:15.000Z</time>
      </trkpt>
      <trkpt lat="44.4407" lon="4.51009">
        <ele>464.39999389648</ele>
        <time>2013-02-27T13:45:16.000Z</time>
      </trkpt>
      <trkpt lat="44.4407" lon="4.5101">
        <ele>464</ele>
        <time>2013-02-27T13:45:17.000Z</time>
      </trkpt>
      <trkpt lat="44.44071" lon="4.51011">
        <ele>464</ele>
        <time>2013-02-27T13:45:18.000Z</time>
      </trkpt>
      <trkpt lat="44.44072" lon="4.51011">
        <ele>464</ele>
        <time>2013-02-27T13:45:19.000Z</time>
      </trkpt>
      <trkpt lat="44.44073" lon="4.51012">
        <ele>463.39999389648</ele>
        <time>2013-02-27T13:45:20.000Z</time>
      </trkpt>
      <trkpt lat="44.44074" lon="4.51013">
        <ele>463</ele>
        <time>2013-02-27T13:45:21.000Z</time>
      </trkpt>
      <trkpt lat="44.44074" lon="4.51014">
        <ele>463</ele>
        <time>2013-02-27T13:45:22.000Z</time>
      </trkpt>
      <trkpt lat="44.44075" lon="4.51014">
        <ele>462.60000610352</ele>
        <time>2013-02-27T13:45:23.000Z</time>
      </trkpt>
      <trkpt lat="44.44075" lon="4.51015">
        <ele>462.60000610352</ele>
        <time>2013-02-27T13:45:24.000Z</time>
      </trkpt>
      <trkpt lat="44.44076" lon="4.51015">
        <ele>462</ele>
        <time>2013-02-27T13:45:25.000Z</time>
      </trkpt>
      <trkpt lat="44.44076" lon="4.51016">
        <ele>462</ele>
        <time>2013-02-27T13:45:26.000Z</time>
      </trkpt>
      <trkpt lat="44.44077" lon="4.51017">
        <ele>462</ele>
        <time>2013-02-27T13:45:27.000Z</time>
      </trkpt>
      <trkpt lat="44.44078" lon="4.51018">
        <ele>462</ele>
        <time>2013-02-27T13:45:28.000Z</time>
      </trkpt>
      <trkpt lat="44.44078" lon="4.51019">
        <ele>461.60000610352</ele>
        <time>2013-02-27T13:45:29.000Z</time>
      </trkpt>
      <trkpt lat="44.44079" lon="4.5102">
        <ele>461.60000610352</ele>
        <time>2013-02-27T13:45:30.000Z</time>
      </trkpt>
      <trkpt lat="44.44079" lon="4.5102">
        <ele>461.60000610352</ele>
        <time>2013-02-27T13:45:31.000Z</time>
      </trkpt>
      <trkpt lat="44.4408" lon="4.51021">
        <ele>461.60000610352</ele>
        <time>2013-02-27T13:45:32.000Z</time>
      </trkpt>
      <trkpt lat="44.44081" lon="4.51022">
        <ele>461</ele>
        <time>2013-02-27T13:45:33.000Z</time>
      </trkpt>
      <trkpt lat="44.44081" lon="4.51023">
        <ele>461</ele>
        <time>2013-02-27T13:45:34.000Z</time>
      </trkpt>
      <trkpt lat="44.44082" lon="4.51024">
        <ele>461</ele>
        <time>2013-02-27T13:45:35.000Z</time>
      </trkpt>
      <trkpt lat="44.44083" lon="4.51025">
        <ele>460.60000610352</ele>
        <time>2013-02-27T13:45:36.000Z</time>
      </trkpt>
      <trkpt lat="44.44083" lon="4.51026">
        <ele>460.20001220703</ele>
        <time>2013-02-27T13:45:37.000Z</time>
      </trkpt>
      <trkpt lat="44.44084" lon="4.51027">
        <ele>460.20001220703</ele>
        <time>2013-02-27T13:45:38.000Z</time>
      </trkpt>
      <trkpt lat="44.44085" lon="4.51028">
        <ele>460.20001220703</ele>
        <time>2013-02-27T13:45:39.000Z</time>
      </trkpt>
      <trkpt lat="44.44086" lon="4.51029">
        <ele>460.20001220703</ele>
        <time>2013-02-27T13:45:40.000Z</time>
      </trkpt>
      <trkpt lat="44.44087" lon="4.5103">
        <ele>460.20001220703</ele>
        <time>2013-02-27T13:45:41.000Z</time>
      </trkpt>
      <trkpt lat="44.44088" lon="4.51031">
        <ele>459.60000610352</ele>
        <time>2013-02-27T13:45:42.000Z</time>
      </trkpt>
      <trkpt lat="44.44089" lon="4.51032">
        <ele>459.60000610352</ele>
        <time>2013-02-27T13:45:43.000Z</time>
      </trkpt>
      <trkpt lat="44.4409" lon="4.51033">
        <ele>459.60000610352</ele>
        <time>2013-02-27T13:45:44.000Z</time>
      </trkpt>
      <trkpt lat="44.4409" lon="4.51034">
        <ele>459.60000610352</ele>
        <time>2013-02-27T13:45:45.000Z</time>
      </trkpt>
      <trkpt lat="44.44091" lon="4.51035">
        <ele>459.20001220703</ele>
        <time>2013-02-27T13:45:46.000Z</time>
      </trkpt>
      <trkpt lat="44.44091" lon="4.51036">
        <ele>459.20001220703</ele>
        <time>2013-02-27T13:45:47.000Z</time>
      </trkpt>
      <trkpt lat="44.44092" lon="4.51037">
        <ele>459.20001220703</ele>
        <time>2013-02-27T13:45:48.000Z</time>
      </trkpt>
      <trkpt lat="44.44093" lon="4.51038">
        <ele>458.60000610352</ele>
        <time>2013-02-27T13:45:49.000Z</time>
      </trkpt>
      <trkpt lat="44.44094" lon="4.51039">
        <ele>458.60000610352</ele>
        <time>2013-02-27T13:45:50.000Z</time>
      </trkpt>
      <trkpt lat="44.44095" lon="4.5104">
        <ele>458.20001220703</ele>
        <time>2013-02-27T13:45:51.000Z</time>
      </trkpt>
      <trkpt lat="44.44095" lon="4.51041">
        <ele>458.20001220703</ele>
        <time>2013-02-27T13:45:52.000Z</time>
      </trkpt>
      <trkpt lat="44.44096" lon="4.51041">
        <ele>458.20001220703</ele>
        <time>2013-02-27T13:45:53.000Z</time>
      </trkpt>
      <trkpt lat="44.44097" lon="4.51042">
        <ele>458.20001220703</ele>
        <time>2013-02-27T13:45:54.000Z</time>
      </trkpt>
      <trkpt lat="44.44098" lon="4.51043">
        <ele>458.20001220703</ele>
        <time>2013-02-27T13:45:55.000Z</time>
      </trkpt>
      <trkpt lat="44.44099" lon="4.51044">
        <ele>458.20001220703</ele>
        <time>2013-02-27T13:45:56.000Z</time>
      </trkpt>
      <trkpt lat="44.441" lon="4.51045">
        <ele>458.20001220703</ele>
        <time>2013-02-27T13:45:57.000Z</time>
      </trkpt>
      <trkpt lat="44.441" lon="4.51046">
        <ele>458.20001220703</ele>
        <time>2013-02-27T13:45:58.000Z</time>
      </trkpt>
      <trkpt lat="44.44101" lon="4.51047">
        <ele>457.79998779297</ele>
        <time>2013-02-27T13:45:59.000Z</time>
      </trkpt>
      <trkpt lat="44.44102" lon="4.51048">
        <ele>457.79998779297</ele>
        <time>2013-02-27T13:46:00.000Z</time>
      </trkpt>
      <trkpt lat="44.44103" lon="4.51049">
        <ele>457.20001220703</ele>
        <time>2013-02-27T13:46:01.000Z</time>
      </trkpt>
      <trkpt lat="44.44104" lon="4.5105">
        <ele>456.79998779297</ele>
        <time>2013-02-27T13:46:02.000Z</time>
      </trkpt>
      <trkpt lat="44.44105" lon="4.5105">
        <ele>456.20001220703</ele>
        <time>2013-02-27T13:46:03.000Z</time>
      </trkpt>
      <trkpt lat="44.44106" lon="4.51051">
        <ele>456.20001220703</ele>
        <time>2013-02-27T13:46:04.000Z</time>
      </trkpt>
      <trkpt lat="44.44107" lon="4.51052">
        <ele>456.20001220703</ele>
        <time>2013-02-27T13:46:05.000Z</time>
      </trkpt>
      <trkpt lat="44.44108" lon="4.51053">
        <ele>456.20001220703</ele>
        <time>2013-02-27T13:46:06.000Z</time>
      </trkpt>
      <trkpt lat="44.44108" lon="4.51054">
        <ele>456.20001220703</ele>
        <time>2013-02-27T13:46:07.000Z</time>
      </trkpt>
      <trkpt lat="44.44109" lon="4.51055">
        <ele>456.20001220703</ele>
        <time>2013-02-27T13:46:08.000Z</time>
      </trkpt>
      <trkpt lat="44.4411" lon="4.51056">
        <ele>455.79998779297</ele>
        <time>2013-02-27T13:46:09.000Z</time>
      </trkpt>
      <trkpt lat="44.4411" lon="4.51057">
        <ele>455.79998779297</ele>
        <time>2013-02-27T13:46:10.000Z</time>
      </trkpt>
      <trkpt lat="44.44111" lon="4.51058">
        <ele>455.79998779297</ele>
        <time>2013-02-27T13:46:11.000Z</time>
      </trkpt>
      <trkpt lat="44.44112" lon="4.51059">
        <ele>455.79998779297</ele>
        <time>2013-02-27T13:46:12.000Z</time>
      </trkpt>
      <trkpt lat="44.44113" lon="4.5106">
        <ele>455.79998779297</ele>
        <time>2013-02-27T13:46:13.000Z</time>
      </trkpt>
      <trkpt lat="44.44114" lon="4.51062">
        <ele>455.79998779297</ele>
        <time>2013-02-27T13:46:14.000Z</time>
      </trkpt>
      <trkpt lat="44.44115" lon="4.51063">
        <ele>455.79998779297</ele>
        <time>2013-02-27T13:46:15.000Z</time>
      </trkpt>
      <trkpt lat="44.44115" lon="4.51064">
        <ele>455.39999389648</ele>
        <time>2013-02-27T13:46:16.000Z</time>
      </trkpt>
      <trkpt lat="44.44116" lon="4.51066">
        <ele>455.39999389648</ele>
        <time>2013-02-27T13:46:17.000Z</time>
      </trkpt>
      <trkpt lat="44.44117" lon="4.51066">
        <ele>454.79998779297</ele>
        <time>2013-02-27T13:46:18.000Z</time>
      </trkpt>
      <trkpt lat="44.44118" lon="4.51067">
        <ele>454.79998779297</ele>
        <time>2013-02-27T13:46:19.000Z</time>
      </trkpt>
      <trkpt lat="44.44119" lon="4.51068">
        <ele>454.79998779297</ele>
        <time>2013-02-27T13:46:20.000Z</time>
      </trkpt>
      <trkpt lat="44.4412" lon="4.51069">
        <ele>454.79998779297</ele>
        <time>2013-02-27T13:46:21.000Z</time>
      </trkpt>
      <trkpt lat="44.4412" lon="4.5107">
        <ele>455.39999389648</ele>
        <time>2013-02-27T13:46:22.000Z</time>
      </trkpt>
      <trkpt lat="44.44121" lon="4.51072">
        <ele>455.39999389648</ele>
        <time>2013-02-27T13:46:23.000Z</time>
      </trkpt>
      <trkpt lat="44.44122" lon="4.51073">
        <ele>454.79998779297</ele>
        <time>2013-02-27T13:46:24.000Z</time>
      </trkpt>
      <trkpt lat="44.44123" lon="4.51074">
        <ele>454.79998779297</ele>
        <time>2013-02-27T13:46:25.000Z</time>
      </trkpt>
      <trkpt lat="44.44123" lon="4.51075">
        <ele>454.79998779297</ele>
        <time>2013-02-27T13:46:26.000Z</time>
      </trkpt>
      <trkpt lat="44.44124" lon="4.51077">
        <ele>454.39999389648</ele>
        <time>2013-02-27T13:46:27.000Z</time>
      </trkpt>
      <trkpt lat="44.44124" lon="4.51078">
        <ele>453.79998779297</ele>
        <time>2013-02-27T13:46:28.000Z</time>
      </trkpt>
      <trkpt lat="44.44125" lon="4.51079">
        <ele>453.39999389648</ele>
        <time>2013-02-27T13:46:29.000Z</time>
      </trkpt>
      <trkpt lat="44.44125" lon="4.51081">
        <ele>453.39999389648</ele>
        <time>2013-02-27T13:46:30.000Z</time>
      </trkpt>
      <trkpt lat="44.44126" lon="4.51082">
        <ele>453.39999389648</ele>
        <time>2013-02-27T13:46:31.000Z</time>
      </trkpt>
      <trkpt lat="44.44127" lon="4.51084">
        <ele>453.39999389648</ele>
        <time>2013-02-27T13:46:32.000Z</time>
      </trkpt>
      <trkpt lat="44.44127" lon="4.51085">
        <ele>453.39999389648</ele>
        <time>2013-02-27T13:46:33.000Z</time>
      </trkpt>
      <trkpt lat="44.44128" lon="4.51087">
        <ele>453</ele>
        <time>2013-02-27T13:46:34.000Z</time>
      </trkpt>
      <trkpt lat="44.44129" lon="4.51089">
        <ele>453</ele>
        <time>2013-02-27T13:46:35.000Z</time>
      </trkpt>
      <trkpt lat="44.44129" lon="4.5109">
        <ele>452.39999389648</ele>
        <time>2013-02-27T13:46:36.000Z</time>
      </trkpt>
      <trkpt lat="44.4413" lon="4.51092">
        <ele>452.39999389648</ele>
        <time>2013-02-27T13:46:37.000Z</time>
      </trkpt>
      <trkpt lat="44.44131" lon="4.51093">
        <ele>452.39999389648</ele>
        <time>2013-02-27T13:46:38.000Z</time>
      </trkpt>
      <trkpt lat="44.44131" lon="4.51095">
        <ele>452.39999389648</ele>
        <time>2013-02-27T13:46:39.000Z</time>
      </trkpt>
      <trkpt lat="44.44132" lon="4.51097">
        <ele>452</ele>
        <time>2013-02-27T13:46:40.000Z</time>
      </trkpt>
      <trkpt lat="44.44132" lon="4.51098">
        <ele>452</ele>
        <time>2013-02-27T13:46:41.000Z</time>
      </trkpt>
      <trkpt lat="44.44133" lon="4.511">
        <ele>451.39999389648</ele>
        <time>2013-02-27T13:46:42.000Z</time>
      </trkpt>
      <trkpt lat="44.44133" lon="4.51102">
        <ele>451.39999389648</ele>
        <time>2013-02-27T13:46:43.000Z</time>
      </trkpt>
      <trkpt lat="44.44133" lon="4.51103">
        <ele>451.39999389648</ele>
        <time>2013-02-27T13:46:44.000Z</time>
      </trkpt>
      <trkpt lat="44.44134" lon="4.51105">
        <ele>451</ele>
        <time>2013-02-27T13:46:45.000Z</time>
      </trkpt>
      <trkpt lat="44.44134" lon="4.51107">
        <ele>451</ele>
        <time>2013-02-27T13:46:46.000Z</time>
      </trkpt>
      <trkpt lat="44.44134" lon="4.51108">
        <ele>451</ele>
        <time>2013-02-27T13:46:47.000Z</time>
      </trkpt>
      <trkpt lat="44.44135" lon="4.5111">
        <ele>451</ele>
        <time>2013-02-27T13:46:48.000Z</time>
      </trkpt>
      <trkpt lat="44.44135" lon="4.51112">
        <ele>451</ele>
        <time>2013-02-27T13:46:49.000Z</time>
      </trkpt>
      <trkpt lat="44.44136" lon="4.51113">
        <ele>451</ele>
        <time>2013-02-27T13:46:50.000Z</time>
      </trkpt>
      <trkpt lat="44.44136" lon="4.51115">
        <ele>450.60000610352</ele>
        <time>2013-02-27T13:46:51.000Z</time>
      </trkpt>
      <trkpt lat="44.44137" lon="4.51116">
        <ele>450.60000610352</ele>
        <time>2013-02-27T13:46:52.000Z</time>
      </trkpt>
      <trkpt lat="44.44138" lon="4.51117">
        <ele>450.60000610352</ele>
        <time>2013-02-27T13:46:53.000Z</time>
      </trkpt>
      <trkpt lat="44.44138" lon="4.51118">
        <ele>450.60000610352</ele>
        <time>2013-02-27T13:46:54.000Z</time>
      </trkpt>
      <trkpt lat="44.44139" lon="4.51118">
        <ele>450.60000610352</ele>
        <time>2013-02-27T13:46:55.000Z</time>
      </trkpt>
      <trkpt lat="44.44139" lon="4.51118">
        <ele>450.60000610352</ele>
        <time>2013-02-27T13:46:56.000Z</time>
      </trkpt>
      <trkpt lat="44.44139" lon="4.51118">
        <ele>451</ele>
        <time>2013-02-27T13:46:57.000Z</time>
      </trkpt>
      <trkpt lat="44.4414" lon="4.51118">
        <ele>450.60000610352</ele>
        <time>2013-02-27T13:46:58.000Z</time>
      </trkpt>
      <trkpt lat="44.4414" lon="4.51118">
        <ele>450.60000610352</ele>
        <time>2013-02-27T13:46:59.000Z</time>
      </trkpt>
      <trkpt lat="44.4414" lon="4.51118">
        <ele>450.60000610352</ele>
        <time>2013-02-27T13:47:00.000Z</time>
      </trkpt>
      <trkpt lat="44.4414" lon="4.51118">
        <ele>450.60000610352</ele>
        <time>2013-02-27T13:47:01.000Z</time>
      </trkpt>
      <trkpt lat="44.4414" lon="4.51118">
        <ele>450.60000610352</ele>
        <time>2013-02-27T13:47:02.000Z</time>
      </trkpt>
      <trkpt lat="44.4414" lon="4.51117">
        <ele>450.60000610352</ele>
        <time>2013-02-27T13:47:03.000Z</time>
      </trkpt>
      <trkpt lat="44.4414" lon="4.51117">
        <ele>450.60000610352</ele>
        <time>2013-02-27T13:47:04.000Z</time>
      </trkpt>
      <trkpt lat="44.4414" lon="4.51117">
        <ele>450.60000610352</ele>
        <time>2013-02-27T13:47:05.000Z</time>
      </trkpt>
      <trkpt lat="44.4414" lon="4.51117">
        <ele>450.60000610352</ele>
        <time>2013-02-27T13:47:06.000Z</time>
      </trkpt>
      <trkpt lat="44.4414" lon="4.51117">
        <ele>450.60000610352</ele>
        <time>2013-02-27T13:47:07.000Z</time>
      </trkpt>
      <trkpt lat="44.4414" lon="4.51117">
        <ele>450</ele>
        <time>2013-02-27T13:47:08.000Z</time>
      </trkpt>
      <trkpt lat="44.4414" lon="4.51116">
        <ele>450</ele>
        <time>2013-02-27T13:47:09.000Z</time>
      </trkpt>
      <trkpt lat="44.4414" lon="4.51116">
        <ele>450</ele>
        <time>2013-02-27T13:47:10.000Z</time>
      </trkpt>
      <trkpt lat="44.4414" lon="4.51116">
        <ele>450</ele>
        <time>2013-02-27T13:47:11.000Z</time>
      </trkpt>
      <trkpt lat="44.4414" lon="4.51116">
        <ele>450</ele>
        <time>2013-02-27T13:47:12.000Z</time>
      </trkpt>
      <trkpt lat="44.4414" lon="4.51116">
        <ele>449.60000610352</ele>
        <time>2013-02-27T13:47:13.000Z</time>
      </trkpt>
      <trkpt lat="44.4414" lon="4.51116">
        <ele>449.60000610352</ele>
        <time>2013-02-27T13:47:14.000Z</time>
      </trkpt>
      <trkpt lat="44.4414" lon="4.51116">
        <ele>449.60000610352</ele>
        <time>2013-02-27T13:47:15.000Z</time>
      </trkpt>
      <trkpt lat="44.4414" lon="4.51116">
        <ele>449.60000610352</ele>
        <time>2013-02-27T13:47:16.000Z</time>
      </trkpt>
      <trkpt lat="44.4414" lon="4.51116">
        <ele>449.60000610352</ele>
        <time>2013-02-27T13:47:17.000Z</time>
      </trkpt>
      <trkpt lat="44.4414" lon="4.51116">
        <ele>449.60000610352</ele>
        <time>2013-02-27T13:47:18.000Z</time>
      </trkpt>
      <trkpt lat="44.4414" lon="4.51116">
        <ele>449.60000610352</ele>
        <time>2013-02-27T13:47:19.000Z</time>
      </trkpt>
      <trkpt lat="44.4414" lon="4.51116">
        <ele>449.60000610352</ele>
        <time>2013-02-27T13:47:20.000Z</time>
      </trkpt>
      <trkpt lat="44.4414" lon="4.51116">
        <ele>449.60000610352</ele>
        <time>2013-02-27T13:47:21.000Z</time>
      </trkpt>
      <trkpt lat="44.4414" lon="4.51116">
        <ele>449.60000610352</ele>
        <time>2013-02-27T13:47:22.000Z</time>
      </trkpt>
      <trkpt lat="44.4414" lon="4.51116">
        <ele>449.60000610352</ele>
        <time>2013-02-27T13:47:23.000Z</time>
      </trkpt>
      <trkpt lat="44.4414" lon="4.51116">
        <ele>449.60000610352</ele>
        <time>2013-02-27T13:47:24.000Z</time>
      </trkpt>
      <trkpt lat="44.4414" lon="4.51116">
        <ele>449.60000610352</ele>
        <time>2013-02-27T13:47:25.000Z</time>
      </trkpt>
      <trkpt lat="44.4414" lon="4.51116">
        <ele>449</ele>
        <time>2013-02-27T13:47:26.000Z</time>
      </trkpt>
      <trkpt lat="44.44141" lon="4.51116">
        <ele>449</ele>
        <time>2013-02-27T13:47:27.000Z</time>
      </trkpt>
      <trkpt lat="44.44141" lon="4.51116">
        <ele>449</ele>
        <time>2013-02-27T13:47:28.000Z</time>
      </trkpt>
      <trkpt lat="44.44141" lon="4.51116">
        <ele>449</ele>
        <time>2013-02-27T13:47:29.000Z</time>
      </trkpt>
      <trkpt lat="44.44141" lon="4.51116">
        <ele>449</ele>
        <time>2013-02-27T13:47:30.000Z</time>
      </trkpt>
      <trkpt lat="44.44141" lon="4.51116">
        <ele>449</ele>
        <time>2013-02-27T13:47:31.000Z</time>
      </trkpt>
      <trkpt lat="44.44141" lon="4.51116">
        <ele>449</ele>
        <time>2013-02-27T13:47:32.000Z</time>
      </trkpt>
      <trkpt lat="44.44141" lon="4.51116">
        <ele>449</ele>
        <time>2013-02-27T13:47:33.000Z</time>
      </trkpt>
      <trkpt lat="44.44141" lon="4.51116">
        <ele>449.60000610352</ele>
        <time>2013-02-27T13:47:34.000Z</time>
      </trkpt>
      <trkpt lat="44.44141" lon="4.51116">
        <ele>449.60000610352</ele>
        <time>2013-02-27T13:47:35.000Z</time>
      </trkpt>
      <trkpt lat="44.44141" lon="4.51116">
        <ele>449.60000610352</ele>
        <time>2013-02-27T13:47:36.000Z</time>
      </trkpt>
      <trkpt lat="44.44141" lon="4.51116">
        <ele>449.60000610352</ele>
        <time>2013-02-27T13:47:37.000Z</time>
      </trkpt>
      <trkpt lat="44.44141" lon="4.51116">
        <ele>449.60000610352</ele>
        <time>2013-02-27T13:47:38.000Z</time>
      </trkpt>
      <trkpt lat="44.44141" lon="4.51116">
        <ele>450</ele>
        <time>2013-02-27T13:47:39.000Z</time>
      </trkpt>
      <trkpt lat="44.44142" lon="4.51116">
        <ele>450</ele>
        <time>2013-02-27T13:47:40.000Z</time>
      </trkpt>
      <trkpt lat="44.44142" lon="4.51116">
        <ele>450</ele>
        <time>2013-02-27T13:47:41.000Z</time>
      </trkpt>
      <trkpt lat="44.44142" lon="4.51116">
        <ele>450.60000610352</ele>
        <time>2013-02-27T13:47:42.000Z</time>
      </trkpt>
      <trkpt lat="44.44142" lon="4.51116">
        <ele>450</ele>
        <time>2013-02-27T13:47:43.000Z</time>
      </trkpt>
      <trkpt lat="44.44142" lon="4.51116">
        <ele>450</ele>
        <time>2013-02-27T13:47:44.000Z</time>
      </trkpt>
      <trkpt lat="44.44142" lon="4.51116">
        <ele>450</ele>
        <time>2013-02-27T13:47:45.000Z</time>
      </trkpt>
      <trkpt lat="44.44142" lon="4.51116">
        <ele>450</ele>
        <time>2013-02-27T13:47:46.000Z</time>
      </trkpt>
      <trkpt lat="44.44142" lon="4.51116">
        <ele>450.60000610352</ele>
        <time>2013-02-27T13:47:47.000Z</time>
      </trkpt>
      <trkpt lat="44.44142" lon="4.51116">
        <ele>450.60000610352</ele>
        <time>2013-02-27T13:47:48.000Z</time>
      </trkpt>
      <trkpt lat="44.44142" lon="4.51115">
        <ele>450</ele>
        <time>2013-02-27T13:47:49.000Z</time>
      </trkpt>
      <trkpt lat="44.44142" lon="4.51115">
        <ele>450</ele>
        <time>2013-02-27T13:47:50.000Z</time>
      </trkpt>
      <trkpt lat="44.44142" lon="4.51115">
        <ele>450.60000610352</ele>
        <time>2013-02-27T13:47:51.000Z</time>
      </trkpt>
      <trkpt lat="44.44142" lon="4.51114">
        <ele>451</ele>
        <time>2013-02-27T13:47:52.000Z</time>
      </trkpt>
      <trkpt lat="44.44142" lon="4.51114">
        <ele>450.60000610352</ele>
        <time>2013-02-27T13:47:53.000Z</time>
      </trkpt>
      <trkpt lat="44.44143" lon="4.51114">
        <ele>449.60000610352</ele>
        <time>2013-02-27T13:47:54.000Z</time>
      </trkpt>
      <trkpt lat="44.44143" lon="4.51114">
        <ele>450</ele>
        <time>2013-02-27T13:47:55.000Z</time>
      </trkpt>
      <trkpt lat="44.44143" lon="4.51114">
        <ele>449.60000610352</ele>
        <time>2013-02-27T13:47:56.000Z</time>
      </trkpt>
      <trkpt lat="44.44143" lon="4.51114">
        <ele>449.60000610352</ele>
        <time>2013-02-27T13:47:57.000Z</time>
      </trkpt>
      <trkpt lat="44.44143" lon="4.51114">
        <ele>449</ele>
        <time>2013-02-27T13:47:58.000Z</time>
      </trkpt>
      <trkpt lat="44.44144" lon="4.51114">
        <ele>449</ele>
        <time>2013-02-27T13:47:59.000Z</time>
      </trkpt>
      <trkpt lat="44.44144" lon="4.51113">
        <ele>449</ele>
        <time>2013-02-27T13:48:00.000Z</time>
      </trkpt>
      <trkpt lat="44.44144" lon="4.51113">
        <ele>448.60000610352</ele>
        <time>2013-02-27T13:48:01.000Z</time>
      </trkpt>
      <trkpt lat="44.44144" lon="4.51113">
        <ele>448.20001220703</ele>
        <time>2013-02-27T13:48:02.000Z</time>
      </trkpt>
      <trkpt lat="44.44144" lon="4.51113">
        <ele>447.60000610352</ele>
        <time>2013-02-27T13:48:03.000Z</time>
      </trkpt>
      <trkpt lat="44.44144" lon="4.51113">
        <ele>447.20001220703</ele>
        <time>2013-02-27T13:48:04.000Z</time>
      </trkpt>
      <trkpt lat="44.44145" lon="4.51113">
        <ele>446.60000610352</ele>
        <time>2013-02-27T13:48:05.000Z</time>
      </trkpt>
      <trkpt lat="44.44145" lon="4.51113">
        <ele>446.60000610352</ele>
        <time>2013-02-27T13:48:06.000Z</time>
      </trkpt>
      <trkpt lat="44.44145" lon="4.51113">
        <ele>446.60000610352</ele>
        <time>2013-02-27T13:48:07.000Z</time>
      </trkpt>
      <trkpt lat="44.44145" lon="4.51113">
        <ele>446.60000610352</ele>
        <time>2013-02-27T13:48:08.000Z</time>
      </trkpt>
      <trkpt lat="44.44145" lon="4.51113">
        <ele>446.60000610352</ele>
        <time>2013-02-27T13:48:09.000Z</time>
      </trkpt>
      <trkpt lat="44.44145" lon="4.51113">
        <ele>447.20001220703</ele>
        <time>2013-02-27T13:48:10.000Z</time>
      </trkpt>
      <trkpt lat="44.44145" lon="4.51113">
        <ele>447.20001220703</ele>
        <time>2013-02-27T13:48:11.000Z</time>
      </trkpt>
      <trkpt lat="44.44145" lon="4.51113">
        <ele>446.60000610352</ele>
        <time>2013-02-27T13:48:12.000Z</time>
      </trkpt>
      <trkpt lat="44.44145" lon="4.51113">
        <ele>446.60000610352</ele>
        <time>2013-02-27T13:48:13.000Z</time>
      </trkpt>
      <trkpt lat="44.44145" lon="4.51113">
        <ele>447.60000610352</ele>
        <time>2013-02-27T13:48:14.000Z</time>
      </trkpt>
      <trkpt lat="44.44145" lon="4.51112">
        <ele>448.20001220703</ele>
        <time>2013-02-27T13:48:15.000Z</time>
      </trkpt>
      <trkpt lat="44.44145" lon="4.51112">
        <ele>448.60000610352</ele>
        <time>2013-02-27T13:48:16.000Z</time>
      </trkpt>
      <trkpt lat="44.44146" lon="4.51112">
        <ele>449</ele>
        <time>2013-02-27T13:48:17.000Z</time>
      </trkpt>
      <trkpt lat="44.44146" lon="4.51112">
        <ele>449.60000610352</ele>
        <time>2013-02-27T13:48:18.000Z</time>
      </trkpt>
      <trkpt lat="44.44145" lon="4.51112">
        <ele>449.60000610352</ele>
        <time>2013-02-27T13:48:19.000Z</time>
      </trkpt>
      <trkpt lat="44.44145" lon="4.51112">
        <ele>449.60000610352</ele>
        <time>2013-02-27T13:48:20.000Z</time>
      </trkpt>
      <trkpt lat="44.44145" lon="4.51112">
        <ele>449.60000610352</ele>
        <time>2013-02-27T13:48:21.000Z</time>
      </trkpt>
      <trkpt lat="44.44145" lon="4.51111">
        <ele>449.60000610352</ele>
        <time>2013-02-27T13:48:22.000Z</time>
      </trkpt>
      <trkpt lat="44.44145" lon="4.51112">
        <ele>449.60000610352</ele>
        <time>2013-02-27T13:48:23.000Z</time>
      </trkpt>
      <trkpt lat="44.44145" lon="4.51112">
        <ele>449.60000610352</ele>
        <time>2013-02-27T13:48:24.000Z</time>
      </trkpt>
      <trkpt lat="44.44144" lon="4.51112">
        <ele>449.60000610352</ele>
        <time>2013-02-27T13:48:25.000Z</time>
      </trkpt>
      <trkpt lat="44.44144" lon="4.51112">
        <ele>449</ele>
        <time>2013-02-27T13:48:26.000Z</time>
      </trkpt>
      <trkpt lat="44.44144" lon="4.51112">
        <ele>449</ele>
        <time>2013-02-27T13:48:27.000Z</time>
      </trkpt>
      <trkpt lat="44.44144" lon="4.51112">
        <ele>449</ele>
        <time>2013-02-27T13:48:28.000Z</time>
      </trkpt>
      <trkpt lat="44.44144" lon="4.51112">
        <ele>449</ele>
        <time>2013-02-27T13:48:29.000Z</time>
      </trkpt>
      <trkpt lat="44.44144" lon="4.51112">
        <ele>448.60000610352</ele>
        <time>2013-02-27T13:48:30.000Z</time>
      </trkpt>
      <trkpt lat="44.44144" lon="4.51112">
        <ele>448.60000610352</ele>
        <time>2013-02-27T13:48:31.000Z</time>
      </trkpt>
      <trkpt lat="44.44143" lon="4.51112">
        <ele>448.60000610352</ele>
        <time>2013-02-27T13:48:32.000Z</time>
      </trkpt>
      <trkpt lat="44.44143" lon="4.51112">
        <ele>448.60000610352</ele>
        <time>2013-02-27T13:48:33.000Z</time>
      </trkpt>
      <trkpt lat="44.44143" lon="4.51112">
        <ele>448.20001220703</ele>
        <time>2013-02-27T13:48:34.000Z</time>
      </trkpt>
      <trkpt lat="44.44143" lon="4.51112">
        <ele>448.60000610352</ele>
        <time>2013-02-27T13:48:35.000Z</time>
      </trkpt>
      <trkpt lat="44.44143" lon="4.51112">
        <ele>448.60000610352</ele>
        <time>2013-02-27T13:48:36.000Z</time>
      </trkpt>
      <trkpt lat="44.44143" lon="4.51112">
        <ele>448.60000610352</ele>
        <time>2013-02-27T13:48:37.000Z</time>
      </trkpt>
      <trkpt lat="44.44143" lon="4.51112">
        <ele>448.60000610352</ele>
        <time>2013-02-27T13:48:38.000Z</time>
      </trkpt>
      <trkpt lat="44.44143" lon="4.51112">
        <ele>448.60000610352</ele>
        <time>2013-02-27T13:48:39.000Z</time>
      </trkpt>
      <trkpt lat="44.44143" lon="4.51112">
        <ele>448.60000610352</ele>
        <time>2013-02-27T13:48:40.000Z</time>
      </trkpt>
      <trkpt lat="44.44143" lon="4.51113">
        <ele>448.60000610352</ele>
        <time>2013-02-27T13:48:41.000Z</time>
      </trkpt>
      <trkpt lat="44.44143" lon="4.51113">
        <ele>448.60000610352</ele>
        <time>2013-02-27T13:48:42.000Z</time>
      </trkpt>
      <trkpt lat="44.44143" lon="4.51113">
        <ele>448.20001220703</ele>
        <time>2013-02-27T13:48:43.000Z</time>
      </trkpt>
      <trkpt lat="44.44143" lon="4.51113">
        <ele>448.20001220703</ele>
        <time>2013-02-27T13:48:44.000Z</time>
      </trkpt>
      <trkpt lat="44.44143" lon="4.51113">
        <ele>448.20001220703</ele>
        <time>2013-02-27T13:48:45.000Z</time>
      </trkpt>
      <trkpt lat="44.44143" lon="4.51113">
        <ele>448.60000610352</ele>
        <time>2013-02-27T13:48:46.000Z</time>
      </trkpt>
      <trkpt lat="44.44143" lon="4.51113">
        <ele>448.60000610352</ele>
        <time>2013-02-27T13:48:47.000Z</time>
      </trkpt>
      <trkpt lat="44.44142" lon="4.51113">
        <ele>448.60000610352</ele>
        <time>2013-02-27T13:48:48.000Z</time>
      </trkpt>
      <trkpt lat="44.44142" lon="4.51113">
        <ele>448.60000610352</ele>
        <time>2013-02-27T13:48:49.000Z</time>
      </trkpt>
      <trkpt lat="44.44142" lon="4.51113">
        <ele>449</ele>
        <time>2013-02-27T13:48:50.000Z</time>
      </trkpt>
      <trkpt lat="44.44143" lon="4.51113">
        <ele>449.60000610352</ele>
        <time>2013-02-27T13:48:51.000Z</time>
      </trkpt>
      <trkpt lat="44.44143" lon="4.51113">
        <ele>449.60000610352</ele>
        <time>2013-02-27T13:48:52.000Z</time>
      </trkpt>
      <trkpt lat="44.44144" lon="4.51113">
        <ele>449.60000610352</ele>
        <time>2013-02-27T13:48:53.000Z</time>
      </trkpt>
      <trkpt lat="44.44144" lon="4.51112">
        <ele>450</ele>
        <time>2013-02-27T13:48:54.000Z</time>
      </trkpt>
      <trkpt lat="44.44144" lon="4.51112">
        <ele>450</ele>
        <time>2013-02-27T13:48:55.000Z</time>
      </trkpt>
      <trkpt lat="44.44144" lon="4.51113">
        <ele>450.60000610352</ele>
        <time>2013-02-27T13:48:56.000Z</time>
      </trkpt>
      <trkpt lat="44.44144" lon="4.51113">
        <ele>450.60000610352</ele>
        <time>2013-02-27T13:48:57.000Z</time>
      </trkpt>
      <trkpt lat="44.44143" lon="4.51114">
        <ele>450.60000610352</ele>
        <time>2013-02-27T13:48:58.000Z</time>
      </trkpt>
      <trkpt lat="44.44143" lon="4.51113">
        <ele>450.60000610352</ele>
        <time>2013-02-27T13:48:59.000Z</time>
      </trkpt>
      <trkpt lat="44.44143" lon="4.51113">
        <ele>450.60000610352</ele>
        <time>2013-02-27T13:49:00.000Z</time>
      </trkpt>
      <trkpt lat="44.44142" lon="4.51113">
        <ele>450.60000610352</ele>
        <time>2013-02-27T13:49:01.000Z</time>
      </trkpt>
      <trkpt lat="44.44142" lon="4.51113">
        <ele>450.60000610352</ele>
        <time>2013-02-27T13:49:02.000Z</time>
      </trkpt>
      <trkpt lat="44.44143" lon="4.51113">
        <ele>450.60000610352</ele>
        <time>2013-02-27T13:49:03.000Z</time>
      </trkpt>
      <trkpt lat="44.44143" lon="4.51113">
        <ele>450.60000610352</ele>
        <time>2013-02-27T13:49:04.000Z</time>
      </trkpt>
      <trkpt lat="44.44143" lon="4.51113">
        <ele>450.60000610352</ele>
        <time>2013-02-27T13:49:05.000Z</time>
      </trkpt>
      <trkpt lat="44.44143" lon="4.51112">
        <ele>451</ele>
        <time>2013-02-27T13:49:06.000Z</time>
      </trkpt>
      <trkpt lat="44.44143" lon="4.51112">
        <ele>451</ele>
        <time>2013-02-27T13:49:07.000Z</time>
      </trkpt>
      <trkpt lat="44.44143" lon="4.51112">
        <ele>451</ele>
        <time>2013-02-27T13:49:08.000Z</time>
      </trkpt>
      <trkpt lat="44.44143" lon="4.51112">
        <ele>451</ele>
        <time>2013-02-27T13:49:09.000Z</time>
      </trkpt>
      <trkpt lat="44.44143" lon="4.51112">
        <ele>451</ele>
        <time>2013-02-27T13:49:10.000Z</time>
      </trkpt>
      <trkpt lat="44.44143" lon="4.51113">
        <ele>451</ele>
        <time>2013-02-27T13:49:11.000Z</time>
      </trkpt>
      <trkpt lat="44.44143" lon="4.51113">
        <ele>451</ele>
        <time>2013-02-27T13:49:12.000Z</time>
      </trkpt>
      <trkpt lat="44.44143" lon="4.51113">
        <ele>451</ele>
        <time>2013-02-27T13:49:13.000Z</time>
      </trkpt>
      <trkpt lat="44.44143" lon="4.51113">
        <ele>451</ele>
        <time>2013-02-27T13:49:14.000Z</time>
      </trkpt>
      <trkpt lat="44.44143" lon="4.51113">
        <ele>451</ele>
        <time>2013-02-27T13:49:15.000Z</time>
      </trkpt>
      <trkpt lat="44.44143" lon="4.51113">
        <ele>451</ele>
        <time>2013-02-27T13:49:16.000Z</time>
      </trkpt>
      <trkpt lat="44.44143" lon="4.51113">
        <ele>451</ele>
        <time>2013-02-27T13:49:17.000Z</time>
      </trkpt>
      <trkpt lat="44.44143" lon="4.51113">
        <ele>451</ele>
        <time>2013-02-27T13:49:18.000Z</time>
      </trkpt>
      <trkpt lat="44.44143" lon="4.51113">
        <ele>451</ele>
        <time>2013-02-27T13:49:19.000Z</time>
      </trkpt>
      <trkpt lat="44.44143" lon="4.51113">
        <ele>451</ele>
        <time>2013-02-27T13:49:20.000Z</time>
      </trkpt>
      <trkpt lat="44.44143" lon="4.51113">
        <ele>451</ele>
        <time>2013-02-27T13:49:21.000Z</time>
      </trkpt>
      <trkpt lat="44.44143" lon="4.51113">
        <ele>451</ele>
        <time>2013-02-27T13:49:22.000Z</time>
      </trkpt>
      <trkpt lat="44.44143" lon="4.51112">
        <ele>451</ele>
        <time>2013-02-27T13:49:23.000Z</time>
      </trkpt>
      <trkpt lat="44.44143" lon="4.51112">
        <ele>451</ele>
        <time>2013-02-27T13:49:24.000Z</time>
      </trkpt>
      <trkpt lat="44.44142" lon="4.51112">
        <ele>451.39999389648</ele>
        <time>2013-02-27T13:49:25.000Z</time>
      </trkpt>
      <trkpt lat="44.44142" lon="4.51111">
        <ele>451.39999389648</ele>
        <time>2013-02-27T13:49:26.000Z</time>
      </trkpt>
      <trkpt lat="44.44142" lon="4.51111">
        <ele>452</ele>
        <time>2013-02-27T13:49:27.000Z</time>
      </trkpt>
      <trkpt lat="44.44142" lon="4.51111">
        <ele>452</ele>
        <time>2013-02-27T13:49:28.000Z</time>
      </trkpt>
      <trkpt lat="44.44142" lon="4.51111">
        <ele>452</ele>
        <time>2013-02-27T13:49:29.000Z</time>
      </trkpt>
      <trkpt lat="44.44142" lon="4.51111">
        <ele>452</ele>
        <time>2013-02-27T13:49:30.000Z</time>
      </trkpt>
      <trkpt lat="44.44142" lon="4.51111">
        <ele>452</ele>
        <time>2013-02-27T13:49:31.000Z</time>
      </trkpt>
      <trkpt lat="44.44142" lon="4.51111">
        <ele>452</ele>
        <time>2013-02-27T13:49:32.000Z</time>
      </trkpt>
      <trkpt lat="44.44142" lon="4.51111">
        <ele>451.39999389648</ele>
        <time>2013-02-27T13:49:33.000Z</time>
      </trkpt>
      <trkpt lat="44.44142" lon="4.51111">
        <ele>451.39999389648</ele>
        <time>2013-02-27T13:49:34.000Z</time>
      </trkpt>
      <trkpt lat="44.44142" lon="4.51111">
        <ele>451</ele>
        <time>2013-02-27T13:49:35.000Z</time>
      </trkpt>
      <trkpt lat="44.44142" lon="4.51111">
        <ele>451</ele>
        <time>2013-02-27T13:49:36.000Z</time>
      </trkpt>
      <trkpt lat="44.44142" lon="4.51111">
        <ele>451</ele>
        <time>2013-02-27T13:49:37.000Z</time>
      </trkpt>
      <trkpt lat="44.44142" lon="4.51111">
        <ele>451</ele>
        <time>2013-02-27T13:49:38.000Z</time>
      </trkpt>
      <trkpt lat="44.44142" lon="4.51111">
        <ele>451</ele>
        <time>2013-02-27T13:49:39.000Z</time>
      </trkpt>
      <trkpt lat="44.44142" lon="4.51111">
        <ele>450.60000610352</ele>
        <time>2013-02-27T13:49:40.000Z</time>
      </trkpt>
      <trkpt lat="44.44142" lon="4.51111">
        <ele>450.60000610352</ele>
        <time>2013-02-27T13:49:41.000Z</time>
      </trkpt>
      <trkpt lat="44.44142" lon="4.51112">
        <ele>450.60000610352</ele>
        <time>2013-02-27T13:49:42.000Z</time>
      </trkpt>
      <trkpt lat="44.44142" lon="4.51112">
        <ele>450.60000610352</ele>
        <time>2013-02-27T13:49:43.000Z</time>
      </trkpt>
      <trkpt lat="44.44142" lon="4.51112">
        <ele>450</ele>
        <time>2013-02-27T13:49:44.000Z</time>
      </trkpt>
      <trkpt lat="44.44142" lon="4.51112">
        <ele>450</ele>
        <time>2013-02-27T13:49:45.000Z</time>
      </trkpt>
      <trkpt lat="44.44142" lon="4.51112">
        <ele>450</ele>
        <time>2013-02-27T13:49:46.000Z</time>
      </trkpt>
      <trkpt lat="44.44142" lon="4.51112">
        <ele>450</ele>
        <time>2013-02-27T13:49:47.000Z</time>
      </trkpt>
      <trkpt lat="44.44142" lon="4.51112">
        <ele>450</ele>
        <time>2013-02-27T13:49:48.000Z</time>
      </trkpt>
      <trkpt lat="44.44142" lon="4.51112">
        <ele>450.60000610352</ele>
        <time>2013-02-27T13:49:49.000Z</time>
      </trkpt>
      <trkpt lat="44.44142" lon="4.51112">
        <ele>449.60000610352</ele>
        <time>2013-02-27T13:49:50.000Z</time>
      </trkpt>
      <trkpt lat="44.44142" lon="4.51112">
        <ele>449.60000610352</ele>
        <time>2013-02-27T13:49:51.000Z</time>
      </trkpt>
      <trkpt lat="44.44142" lon="4.51112">
        <ele>449.60000610352</ele>
        <time>2013-02-27T13:49:52.000Z</time>
      </trkpt>
      <trkpt lat="44.44142" lon="4.51112">
        <ele>448.60000610352</ele>
        <time>2013-02-27T13:49:53.000Z</time>
      </trkpt>
      <trkpt lat="44.44143" lon="4.51112">
        <ele>447.60000610352</ele>
        <time>2013-02-27T13:49:54.000Z</time>
      </trkpt>
      <trkpt lat="44.44143" lon="4.51113">
        <ele>447.60000610352</ele>
        <time>2013-02-27T13:49:55.000Z</time>
      </trkpt>
      <trkpt lat="44.44143" lon="4.51113">
        <ele>446.60000610352</ele>
        <time>2013-02-27T13:49:56.000Z</time>
      </trkpt>
      <trkpt lat="44.44143" lon="4.51112">
        <ele>446.20001220703</ele>
        <time>2013-02-27T13:49:57.000Z</time>
      </trkpt>
      <trkpt lat="44.44143" lon="4.51112">
        <ele>446.60000610352</ele>
        <time>2013-02-27T13:49:58.000Z</time>
      </trkpt>
      <trkpt lat="44.44143" lon="4.51113">
        <ele>446.60000610352</ele>
        <time>2013-02-27T13:49:59.000Z</time>
      </trkpt>
      <trkpt lat="44.44143" lon="4.51112">
        <ele>446.20001220703</ele>
        <time>2013-02-27T13:50:00.000Z</time>
      </trkpt>
      <trkpt lat="44.44143" lon="4.51113">
        <ele>446.20001220703</ele>
        <time>2013-02-27T13:50:01.000Z</time>
      </trkpt>
      <trkpt lat="44.44143" lon="4.51113">
        <ele>446.60000610352</ele>
        <time>2013-02-27T13:50:02.000Z</time>
      </trkpt>
      <trkpt lat="44.44143" lon="4.51113">
        <ele>446.20001220703</ele>
        <time>2013-02-27T13:50:03.000Z</time>
      </trkpt>
      <trkpt lat="44.44143" lon="4.51113">
        <ele>446.60000610352</ele>
        <time>2013-02-27T13:50:04.000Z</time>
      </trkpt>
      <trkpt lat="44.44143" lon="4.51113">
        <ele>446.20001220703</ele>
        <time>2013-02-27T13:50:05.000Z</time>
      </trkpt>
      <trkpt lat="44.44143" lon="4.51113">
        <ele>446.20001220703</ele>
        <time>2013-02-27T13:50:06.000Z</time>
      </trkpt>
      <trkpt lat="44.44143" lon="4.51113">
        <ele>446.20001220703</ele>
        <time>2013-02-27T13:50:07.000Z</time>
      </trkpt>
      <trkpt lat="44.44143" lon="4.51113">
        <ele>446.60000610352</ele>
        <time>2013-02-27T13:50:08.000Z</time>
      </trkpt>
      <trkpt lat="44.44143" lon="4.51113">
        <ele>446.60000610352</ele>
        <time>2013-02-27T13:50:09.000Z</time>
      </trkpt>
      <trkpt lat="44.44143" lon="4.51113">
        <ele>446.60000610352</ele>
        <time>2013-02-27T13:50:10.000Z</time>
      </trkpt>
      <trkpt lat="44.44143" lon="4.51113">
        <ele>446.60000610352</ele>
        <time>2013-02-27T13:50:11.000Z</time>
      </trkpt>
      <trkpt lat="44.44142" lon="4.51113">
        <ele>446.60000610352</ele>
        <time>2013-02-27T13:50:12.000Z</time>
      </trkpt>
      <trkpt lat="44.44142" lon="4.51113">
        <ele>446.20001220703</ele>
        <time>2013-02-27T13:50:13.000Z</time>
      </trkpt>
      <trkpt lat="44.44143" lon="4.51113">
        <ele>445.20001220703</ele>
        <time>2013-02-27T13:50:14.000Z</time>
      </trkpt>
      <trkpt lat="44.44143" lon="4.51113">
        <ele>445.20001220703</ele>
        <time>2013-02-27T13:50:15.000Z</time>
      </trkpt>
      <trkpt lat="44.44143" lon="4.51114">
        <ele>445.79998779297</ele>
        <time>2013-02-27T13:50:16.000Z</time>
      </trkpt>
      <trkpt lat="44.44144" lon="4.51113">
        <ele>445.20001220703</ele>
        <time>2013-02-27T13:50:17.000Z</time>
      </trkpt>
      <trkpt lat="44.44144" lon="4.51114">
        <ele>444.79998779297</ele>
        <time>2013-02-27T13:50:18.000Z</time>
      </trkpt>
      <trkpt lat="44.44144" lon="4.51114">
        <ele>444.79998779297</ele>
        <time>2013-02-27T13:50:19.000Z</time>
      </trkpt>
      <trkpt lat="44.44144" lon="4.51114">
        <ele>445.79998779297</ele>
        <time>2013-02-27T13:50:20.000Z</time>
      </trkpt>
      <trkpt lat="44.44145" lon="4.51114">
        <ele>445.79998779297</ele>
        <time>2013-02-27T13:50:21.000Z</time>
      </trkpt>
      <trkpt lat="44.44145" lon="4.51114">
        <ele>446.20001220703</ele>
        <time>2013-02-27T13:50:22.000Z</time>
      </trkpt>
      <trkpt lat="44.44144" lon="4.51114">
        <ele>446.20001220703</ele>
        <time>2013-02-27T13:50:23.000Z</time>
      </trkpt>
      <trkpt lat="44.44144" lon="4.51114">
        <ele>446.60000610352</ele>
        <time>2013-02-27T13:50:24.000Z</time>
      </trkpt>
      <trkpt lat="44.44144" lon="4.51114">
        <ele>446.60000610352</ele>
        <time>2013-02-27T13:50:25.000Z</time>
      </trkpt>
      <trkpt lat="44.44144" lon="4.51114">
        <ele>446.60000610352</ele>
        <time>2013-02-27T13:50:26.000Z</time>
      </trkpt>
      <trkpt lat="44.44144" lon="4.51114">
        <ele>447.20001220703</ele>
        <time>2013-02-27T13:50:27.000Z</time>
      </trkpt>
      <trkpt lat="44.44144" lon="4.51114">
        <ele>447.20001220703</ele>
        <time>2013-02-27T13:50:28.000Z</time>
      </trkpt>
      <trkpt lat="44.44144" lon="4.51114">
        <ele>447.60000610352</ele>
        <time>2013-02-27T13:50:29.000Z</time>
      </trkpt>
      <trkpt lat="44.44144" lon="4.51114">
        <ele>447.60000610352</ele>
        <time>2013-02-27T13:50:30.000Z</time>
      </trkpt>
      <trkpt lat="44.44144" lon="4.51114">
        <ele>447.20001220703</ele>
        <time>2013-02-27T13:50:31.000Z</time>
      </trkpt>
      <trkpt lat="44.44144" lon="4.51113">
        <ele>447.20001220703</ele>
        <time>2013-02-27T13:50:32.000Z</time>
      </trkpt>
      <trkpt lat="44.44144" lon="4.51113">
        <ele>447.20001220703</ele>
        <time>2013-02-27T13:50:33.000Z</time>
      </trkpt>
      <trkpt lat="44.44144" lon="4.51114">
        <ele>446.60000610352</ele>
        <time>2013-02-27T13:50:34.000Z</time>
      </trkpt>
      <trkpt lat="44.44144" lon="4.51114">
        <ele>446.60000610352</ele>
        <time>2013-02-27T13:50:35.000Z</time>
      </trkpt>
      <trkpt lat="44.44144" lon="4.51114">
        <ele>446.60000610352</ele>
        <time>2013-02-27T13:50:36.000Z</time>
      </trkpt>
      <trkpt lat="44.44143" lon="4.51114">
        <ele>446.20001220703</ele>
        <time>2013-02-27T13:50:37.000Z</time>
      </trkpt>
      <trkpt lat="44.44144" lon="4.51114">
        <ele>446.20001220703</ele>
        <time>2013-02-27T13:50:38.000Z</time>
      </trkpt>
      <trkpt lat="44.44144" lon="4.51114">
        <ele>446.20001220703</ele>
        <time>2013-02-27T13:50:39.000Z</time>
      </trkpt>
      <trkpt lat="44.44144" lon="4.51114">
        <ele>446.60000610352</ele>
        <time>2013-02-27T13:50:40.000Z</time>
      </trkpt>
      <trkpt lat="44.44144" lon="4.51114">
        <ele>446.60000610352</ele>
        <time>2013-02-27T13:50:41.000Z</time>
      </trkpt>
      <trkpt lat="44.44144" lon="4.51115">
        <ele>447.20001220703</ele>
        <time>2013-02-27T13:50:42.000Z</time>
      </trkpt>
      <trkpt lat="44.44145" lon="4.51115">
        <ele>447.20001220703</ele>
        <time>2013-02-27T13:50:43.000Z</time>
      </trkpt>
      <trkpt lat="44.44145" lon="4.51115">
        <ele>447.20001220703</ele>
        <time>2013-02-27T13:50:44.000Z</time>
      </trkpt>
      <trkpt lat="44.44145" lon="4.51115">
        <ele>447.20001220703</ele>
        <time>2013-02-27T13:50:45.000Z</time>
      </trkpt>
      <trkpt lat="44.44145" lon="4.51115">
        <ele>447.20001220703</ele>
        <time>2013-02-27T13:50:46.000Z</time>
      </trkpt>
      <trkpt lat="44.44145" lon="4.51115">
        <ele>447.60000610352</ele>
        <time>2013-02-27T13:50:47.000Z</time>
      </trkpt>
      <trkpt lat="44.44145" lon="4.51115">
        <ele>448.20001220703</ele>
        <time>2013-02-27T13:50:48.000Z</time>
      </trkpt>
      <trkpt lat="44.44145" lon="4.51115">
        <ele>448.60000610352</ele>
        <time>2013-02-27T13:50:49.000Z</time>
      </trkpt>
      <trkpt lat="44.44145" lon="4.51115">
        <ele>448.60000610352</ele>
        <time>2013-02-27T13:50:50.000Z</time>
      </trkpt>
      <trkpt lat="44.44145" lon="4.51115">
        <ele>449</ele>
        <time>2013-02-27T13:50:51.000Z</time>
      </trkpt>
      <trkpt lat="44.44144" lon="4.51115">
        <ele>449</ele>
        <time>2013-02-27T13:50:52.000Z</time>
      </trkpt>
      <trkpt lat="44.44144" lon="4.51115">
        <ele>449</ele>
        <time>2013-02-27T13:50:53.000Z</time>
      </trkpt>
      <trkpt lat="44.44144" lon="4.51115">
        <ele>449</ele>
        <time>2013-02-27T13:50:54.000Z</time>
      </trkpt>
      <trkpt lat="44.44143" lon="4.51115">
        <ele>450</ele>
        <time>2013-02-27T13:50:55.000Z</time>
      </trkpt>
      <trkpt lat="44.44144" lon="4.51115">
        <ele>450.60000610352</ele>
        <time>2013-02-27T13:50:56.000Z</time>
      </trkpt>
      <trkpt lat="44.44144" lon="4.51114">
        <ele>450.60000610352</ele>
        <time>2013-02-27T13:50:57.000Z</time>
      </trkpt>
      <trkpt lat="44.44144" lon="4.51113">
        <ele>450</ele>
        <time>2013-02-27T13:50:58.000Z</time>
      </trkpt>
      <trkpt lat="44.44144" lon="4.51113">
        <ele>450</ele>
        <time>2013-02-27T13:50:59.000Z</time>
      </trkpt>
      <trkpt lat="44.44144" lon="4.51113">
        <ele>450</ele>
        <time>2013-02-27T13:51:00.000Z</time>
      </trkpt>
      <trkpt lat="44.44144" lon="4.51113">
        <ele>450</ele>
        <time>2013-02-27T13:51:01.000Z</time>
      </trkpt>
      <trkpt lat="44.44143" lon="4.51113">
        <ele>449.60000610352</ele>
        <time>2013-02-27T13:51:02.000Z</time>
      </trkpt>
      <trkpt lat="44.44143" lon="4.51113">
        <ele>449.60000610352</ele>
        <time>2013-02-27T13:51:03.000Z</time>
      </trkpt>
      <trkpt lat="44.44143" lon="4.51112">
        <ele>449</ele>
        <time>2013-02-27T13:51:04.000Z</time>
      </trkpt>
      <trkpt lat="44.44143" lon="4.51113">
        <ele>449</ele>
        <time>2013-02-27T13:51:05.000Z</time>
      </trkpt>
      <trkpt lat="44.44143" lon="4.51113">
        <ele>449</ele>
        <time>2013-02-27T13:51:06.000Z</time>
      </trkpt>
      <trkpt lat="44.44143" lon="4.51113">
        <ele>449</ele>
        <time>2013-02-27T13:51:07.000Z</time>
      </trkpt>
      <trkpt lat="44.44143" lon="4.51113">
        <ele>449</ele>
        <time>2013-02-27T13:51:08.000Z</time>
      </trkpt>
      <trkpt lat="44.44143" lon="4.51113">
        <ele>448.60000610352</ele>
        <time>2013-02-27T13:51:09.000Z</time>
      </trkpt>
      <trkpt lat="44.44143" lon="4.51113">
        <ele>448.60000610352</ele>
        <time>2013-02-27T13:51:10.000Z</time>
      </trkpt>
      <trkpt lat="44.44143" lon="4.51114">
        <ele>448.20001220703</ele>
        <time>2013-02-27T13:51:11.000Z</time>
      </trkpt>
      <trkpt lat="44.44143" lon="4.51114">
        <ele>448.20001220703</ele>
        <time>2013-02-27T13:51:12.000Z</time>
      </trkpt>
      <trkpt lat="44.44142" lon="4.51115">
        <ele>447.60000610352</ele>
        <time>2013-02-27T13:51:13.000Z</time>
      </trkpt>
      <trkpt lat="44.44141" lon="4.51116">
        <ele>447.60000610352</ele>
        <time>2013-02-27T13:51:14.000Z</time>
      </trkpt>
      <trkpt lat="44.4414" lon="4.51117">
        <ele>447.20001220703</ele>
        <time>2013-02-27T13:51:15.000Z</time>
      </trkpt>
      <trkpt lat="44.4414" lon="4.51117">
        <ele>446.60000610352</ele>
        <time>2013-02-27T13:51:16.000Z</time>
      </trkpt>
      <trkpt lat="44.44139" lon="4.51118">
        <ele>446.20001220703</ele>
        <time>2013-02-27T13:51:17.000Z</time>
      </trkpt>
      <trkpt lat="44.44139" lon="4.51118">
        <ele>446.60000610352</ele>
        <time>2013-02-27T13:51:18.000Z</time>
      </trkpt>
      <trkpt lat="44.44138" lon="4.51118">
        <ele>446.20001220703</ele>
        <time>2013-02-27T13:51:19.000Z</time>
      </trkpt>
      <trkpt lat="44.44138" lon="4.51118">
        <ele>446.20001220703</ele>
        <time>2013-02-27T13:51:20.000Z</time>
      </trkpt>
      <trkpt lat="44.44138" lon="4.51118">
        <ele>446.20001220703</ele>
        <time>2013-02-27T13:51:21.000Z</time>
      </trkpt>
      <trkpt lat="44.44137" lon="4.51118">
        <ele>446.20001220703</ele>
        <time>2013-02-27T13:51:22.000Z</time>
      </trkpt>
      <trkpt lat="44.44137" lon="4.51118">
        <ele>446.20001220703</ele>
        <time>2013-02-27T13:51:23.000Z</time>
      </trkpt>
      <trkpt lat="44.44137" lon="4.51118">
        <ele>446.20001220703</ele>
        <time>2013-02-27T13:51:24.000Z</time>
      </trkpt>
      <trkpt lat="44.44137" lon="4.51118">
        <ele>446.20001220703</ele>
        <time>2013-02-27T13:51:25.000Z</time>
      </trkpt>
      <trkpt lat="44.44137" lon="4.51117">
        <ele>446.60000610352</ele>
        <time>2013-02-27T13:51:26.000Z</time>
      </trkpt>
      <trkpt lat="44.44137" lon="4.51116">
        <ele>446.60000610352</ele>
        <time>2013-02-27T13:51:27.000Z</time>
      </trkpt>
      <trkpt lat="44.44137" lon="4.51115">
        <ele>446.60000610352</ele>
        <time>2013-02-27T13:51:28.000Z</time>
      </trkpt>
      <trkpt lat="44.44136" lon="4.51113">
        <ele>446.60000610352</ele>
        <time>2013-02-27T13:51:29.000Z</time>
      </trkpt>
      <trkpt lat="44.44135" lon="4.51112">
        <ele>446.60000610352</ele>
        <time>2013-02-27T13:51:30.000Z</time>
      </trkpt>
      <trkpt lat="44.44134" lon="4.51111">
        <ele>446.60000610352</ele>
        <time>2013-02-27T13:51:31.000Z</time>
      </trkpt>
      <trkpt lat="44.44134" lon="4.5111">
        <ele>446.60000610352</ele>
        <time>2013-02-27T13:51:32.000Z</time>
      </trkpt>
      <trkpt lat="44.44133" lon="4.51108">
        <ele>446.60000610352</ele>
        <time>2013-02-27T13:51:33.000Z</time>
      </trkpt>
      <trkpt lat="44.44132" lon="4.51107">
        <ele>446.20001220703</ele>
        <time>2013-02-27T13:51:34.000Z</time>
      </trkpt>
      <trkpt lat="44.44131" lon="4.51106">
        <ele>446.20001220703</ele>
        <time>2013-02-27T13:51:35.000Z</time>
      </trkpt>
      <trkpt lat="44.4413" lon="4.51105">
        <ele>446.20001220703</ele>
        <time>2013-02-27T13:51:36.000Z</time>
      </trkpt>
      <trkpt lat="44.44129" lon="4.51103">
        <ele>446.20001220703</ele>
        <time>2013-02-27T13:51:37.000Z</time>
      </trkpt>
      <trkpt lat="44.44128" lon="4.51102">
        <ele>446.20001220703</ele>
        <time>2013-02-27T13:51:38.000Z</time>
      </trkpt>
      <trkpt lat="44.44128" lon="4.51101">
        <ele>445.79998779297</ele>
        <time>2013-02-27T13:51:39.000Z</time>
      </trkpt>
      <trkpt lat="44.44127" lon="4.511">
        <ele>445.79998779297</ele>
        <time>2013-02-27T13:51:40.000Z</time>
      </trkpt>
      <trkpt lat="44.44126" lon="4.51099">
        <ele>445.20001220703</ele>
        <time>2013-02-27T13:51:41.000Z</time>
      </trkpt>
      <trkpt lat="44.44126" lon="4.51097">
        <ele>445.20001220703</ele>
        <time>2013-02-27T13:51:42.000Z</time>
      </trkpt>
      <trkpt lat="44.44125" lon="4.51096">
        <ele>444.79998779297</ele>
        <time>2013-02-27T13:51:43.000Z</time>
      </trkpt>
      <trkpt lat="44.44124" lon="4.51095">
        <ele>444.79998779297</ele>
        <time>2013-02-27T13:51:44.000Z</time>
      </trkpt>
      <trkpt lat="44.44124" lon="4.51094">
        <ele>444.79998779297</ele>
        <time>2013-02-27T13:51:45.000Z</time>
      </trkpt>
      <trkpt lat="44.44123" lon="4.51093">
        <ele>444.20001220703</ele>
        <time>2013-02-27T13:51:46.000Z</time>
      </trkpt>
      <trkpt lat="44.44122" lon="4.51092">
        <ele>444.20001220703</ele>
        <time>2013-02-27T13:51:47.000Z</time>
      </trkpt>
      <trkpt lat="44.44122" lon="4.5109">
        <ele>443.79998779297</ele>
        <time>2013-02-27T13:51:48.000Z</time>
      </trkpt>
      <trkpt lat="44.44121" lon="4.51089">
        <ele>443.79998779297</ele>
        <time>2013-02-27T13:51:49.000Z</time>
      </trkpt>
      <trkpt lat="44.4412" lon="4.51088">
        <ele>443.79998779297</ele>
        <time>2013-02-27T13:51:50.000Z</time>
      </trkpt>
      <trkpt lat="44.44119" lon="4.51087">
        <ele>444.20001220703</ele>
        <time>2013-02-27T13:51:51.000Z</time>
      </trkpt>
      <trkpt lat="44.44118" lon="4.51086">
        <ele>443.79998779297</ele>
        <time>2013-02-27T13:51:52.000Z</time>
      </trkpt>
      <trkpt lat="44.44117" lon="4.51085">
        <ele>443.79998779297</ele>
        <time>2013-02-27T13:51:53.000Z</time>
      </trkpt>
      <trkpt lat="44.44117" lon="4.51084">
        <ele>443.79998779297</ele>
        <time>2013-02-27T13:51:54.000Z</time>
      </trkpt>
      <trkpt lat="44.44116" lon="4.51082">
        <ele>443.79998779297</ele>
        <time>2013-02-27T13:51:55.000Z</time>
      </trkpt>
      <trkpt lat="44.44115" lon="4.51081">
        <ele>443.79998779297</ele>
        <time>2013-02-27T13:51:56.000Z</time>
      </trkpt>
      <trkpt lat="44.44114" lon="4.5108">
        <ele>443.39999389648</ele>
        <time>2013-02-27T13:51:57.000Z</time>
      </trkpt>
      <trkpt lat="44.44113" lon="4.51079">
        <ele>443.39999389648</ele>
        <time>2013-02-27T13:51:58.000Z</time>
      </trkpt>
      <trkpt lat="44.44112" lon="4.51078">
        <ele>443.39999389648</ele>
        <time>2013-02-27T13:51:59.000Z</time>
      </trkpt>
      <trkpt lat="44.44111" lon="4.51077">
        <ele>443.39999389648</ele>
        <time>2013-02-27T13:52:00.000Z</time>
      </trkpt>
      <trkpt lat="44.4411" lon="4.51076">
        <ele>443.39999389648</ele>
        <time>2013-02-27T13:52:01.000Z</time>
      </trkpt>
      <trkpt lat="44.44109" lon="4.51075">
        <ele>443.39999389648</ele>
        <time>2013-02-27T13:52:02.000Z</time>
      </trkpt>
      <trkpt lat="44.44108" lon="4.51074">
        <ele>442.79998779297</ele>
        <time>2013-02-27T13:52:03.000Z</time>
      </trkpt>
      <trkpt lat="44.44107" lon="4.51073">
        <ele>442.79998779297</ele>
        <time>2013-02-27T13:52:04.000Z</time>
      </trkpt>
      <trkpt lat="44.44106" lon="4.51072">
        <ele>442.79998779297</ele>
        <time>2013-02-27T13:52:05.000Z</time>
      </trkpt>
      <trkpt lat="44.44105" lon="4.51071">
        <ele>442.79998779297</ele>
        <time>2013-02-27T13:52:06.000Z</time>
      </trkpt>
      <trkpt lat="44.44104" lon="4.5107">
        <ele>442.79998779297</ele>
        <time>2013-02-27T13:52:07.000Z</time>
      </trkpt>
      <trkpt lat="44.44103" lon="4.51069">
        <ele>442.79998779297</ele>
        <time>2013-02-27T13:52:08.000Z</time>
      </trkpt>
      <trkpt lat="44.44102" lon="4.51068">
        <ele>442.39999389648</ele>
        <time>2013-02-27T13:52:09.000Z</time>
      </trkpt>
      <trkpt lat="44.44101" lon="4.51066">
        <ele>443.39999389648</ele>
        <time>2013-02-27T13:52:10.000Z</time>
      </trkpt>
      <trkpt lat="44.441" lon="4.51065">
        <ele>443.79998779297</ele>
        <time>2013-02-27T13:52:11.000Z</time>
      </trkpt>
      <trkpt lat="44.44099" lon="4.51064">
        <ele>444.20001220703</ele>
        <time>2013-02-27T13:52:12.000Z</time>
      </trkpt>
      <trkpt lat="44.44098" lon="4.51062">
        <ele>444.79998779297</ele>
        <time>2013-02-27T13:52:13.000Z</time>
      </trkpt>
      <trkpt lat="44.44097" lon="4.51061">
        <ele>445.20001220703</ele>
        <time>2013-02-27T13:52:14.000Z</time>
      </trkpt>
      <trkpt lat="44.44096" lon="4.5106">
        <ele>445.79998779297</ele>
        <time>2013-02-27T13:52:15.000Z</time>
      </trkpt>
      <trkpt lat="44.44095" lon="4.51059">
        <ele>446.20001220703</ele>
        <time>2013-02-27T13:52:16.000Z</time>
      </trkpt>
      <trkpt lat="44.44094" lon="4.51058">
        <ele>446.20001220703</ele>
        <time>2013-02-27T13:52:17.000Z</time>
      </trkpt>
      <trkpt lat="44.44093" lon="4.51057">
        <ele>446.60000610352</ele>
        <time>2013-02-27T13:52:18.000Z</time>
      </trkpt>
      <trkpt lat="44.44092" lon="4.51056">
        <ele>446.60000610352</ele>
        <time>2013-02-27T13:52:19.000Z</time>
      </trkpt>
      <trkpt lat="44.44091" lon="4.51055">
        <ele>447.20001220703</ele>
        <time>2013-02-27T13:52:20.000Z</time>
      </trkpt>
      <trkpt lat="44.44089" lon="4.51054">
        <ele>447.20001220703</ele>
        <time>2013-02-27T13:52:21.000Z</time>
      </trkpt>
      <trkpt lat="44.44089" lon="4.51053">
        <ele>447.60000610352</ele>
        <time>2013-02-27T13:52:22.000Z</time>
      </trkpt>
      <trkpt lat="44.44088" lon="4.51053">
        <ele>448.20001220703</ele>
        <time>2013-02-27T13:52:23.000Z</time>
      </trkpt>
      <trkpt lat="44.44086" lon="4.51052">
        <ele>448.20001220703</ele>
        <time>2013-02-27T13:52:24.000Z</time>
      </trkpt>
      <trkpt lat="44.44086" lon="4.51051">
        <ele>448.20001220703</ele>
        <time>2013-02-27T13:52:25.000Z</time>
      </trkpt>
      <trkpt lat="44.44084" lon="4.51051">
        <ele>448.60000610352</ele>
        <time>2013-02-27T13:52:26.000Z</time>
      </trkpt>
      <trkpt lat="44.44083" lon="4.51051">
        <ele>448.60000610352</ele>
        <time>2013-02-27T13:52:27.000Z</time>
      </trkpt>
      <trkpt lat="44.44081" lon="4.51052">
        <ele>448.60000610352</ele>
        <time>2013-02-27T13:52:28.000Z</time>
      </trkpt>
      <trkpt lat="44.4408" lon="4.51052">
        <ele>448.60000610352</ele>
        <time>2013-02-27T13:52:29.000Z</time>
      </trkpt>
      <trkpt lat="44.44078" lon="4.51053">
        <ele>448.20001220703</ele>
        <time>2013-02-27T13:52:30.000Z</time>
      </trkpt>
      <trkpt lat="44.44077" lon="4.51055">
        <ele>447.60000610352</ele>
        <time>2013-02-27T13:52:31.000Z</time>
      </trkpt>
      <trkpt lat="44.44076" lon="4.51056">
        <ele>447.60000610352</ele>
        <time>2013-02-27T13:52:32.000Z</time>
      </trkpt>
      <trkpt lat="44.44075" lon="4.51058">
        <ele>447.20001220703</ele>
        <time>2013-02-27T13:52:33.000Z</time>
      </trkpt>
      <trkpt lat="44.44074" lon="4.51059">
        <ele>446.60000610352</ele>
        <time>2013-02-27T13:52:34.000Z</time>
      </trkpt>
      <trkpt lat="44.44075" lon="4.51061">
        <ele>446.60000610352</ele>
        <time>2013-02-27T13:52:35.000Z</time>
      </trkpt>
      <trkpt lat="44.44075" lon="4.51062">
        <ele>446.20001220703</ele>
        <time>2013-02-27T13:52:36.000Z</time>
      </trkpt>
      <trkpt lat="44.44075" lon="4.51064">
        <ele>446.60000610352</ele>
        <time>2013-02-27T13:52:37.000Z</time>
      </trkpt>
      <trkpt lat="44.44075" lon="4.51066">
        <ele>446.60000610352</ele>
        <time>2013-02-27T13:52:38.000Z</time>
      </trkpt>
      <trkpt lat="44.44075" lon="4.51068">
        <ele>446.60000610352</ele>
        <time>2013-02-27T13:52:39.000Z</time>
      </trkpt>
      <trkpt lat="44.44076" lon="4.5107">
        <ele>447.20001220703</ele>
        <time>2013-02-27T13:52:40.000Z</time>
      </trkpt>
      <trkpt lat="44.44076" lon="4.51072">
        <ele>447.60000610352</ele>
        <time>2013-02-27T13:52:41.000Z</time>
      </trkpt>
      <trkpt lat="44.44077" lon="4.51073">
        <ele>447.60000610352</ele>
        <time>2013-02-27T13:52:42.000Z</time>
      </trkpt>
      <trkpt lat="44.44077" lon="4.51075">
        <ele>447.60000610352</ele>
        <time>2013-02-27T13:52:43.000Z</time>
      </trkpt>
      <trkpt lat="44.44077" lon="4.51077">
        <ele>448.20001220703</ele>
        <time>2013-02-27T13:52:44.000Z</time>
      </trkpt>
      <trkpt lat="44.44077" lon="4.51079">
        <ele>448.20001220703</ele>
        <time>2013-02-27T13:52:45.000Z</time>
      </trkpt>
      <trkpt lat="44.44078" lon="4.51081">
        <ele>448.60000610352</ele>
        <time>2013-02-27T13:52:46.000Z</time>
      </trkpt>
      <trkpt lat="44.44078" lon="4.51083">
        <ele>449.60000610352</ele>
        <time>2013-02-27T13:52:47.000Z</time>
      </trkpt>
      <trkpt lat="44.44079" lon="4.51085">
        <ele>450</ele>
        <time>2013-02-27T13:52:48.000Z</time>
      </trkpt>
      <trkpt lat="44.44079" lon="4.51087">
        <ele>450</ele>
        <time>2013-02-27T13:52:49.000Z</time>
      </trkpt>
      <trkpt lat="44.44079" lon="4.51088">
        <ele>450</ele>
        <time>2013-02-27T13:52:50.000Z</time>
      </trkpt>
      <trkpt lat="44.44079" lon="4.5109">
        <ele>450</ele>
        <time>2013-02-27T13:52:51.000Z</time>
      </trkpt>
      <trkpt lat="44.44079" lon="4.51092">
        <ele>450.60000610352</ele>
        <time>2013-02-27T13:52:52.000Z</time>
      </trkpt>
      <trkpt lat="44.44079" lon="4.51094">
        <ele>450.60000610352</ele>
        <time>2013-02-27T13:52:53.000Z</time>
      </trkpt>
      <trkpt lat="44.44079" lon="4.51096">
        <ele>451</ele>
        <time>2013-02-27T13:52:54.000Z</time>
      </trkpt>
      <trkpt lat="44.44079" lon="4.51097">
        <ele>451</ele>
        <time>2013-02-27T13:52:55.000Z</time>
      </trkpt>
      <trkpt lat="44.44079" lon="4.51099">
        <ele>451</ele>
        <time>2013-02-27T13:52:56.000Z</time>
      </trkpt>
      <trkpt lat="44.44079" lon="4.51101">
        <ele>451</ele>
        <time>2013-02-27T13:52:57.000Z</time>
      </trkpt>
      <trkpt lat="44.44079" lon="4.51103">
        <ele>452</ele>
        <time>2013-02-27T13:52:58.000Z</time>
      </trkpt>
      <trkpt lat="44.44078" lon="4.51105">
        <ele>452.39999389648</ele>
        <time>2013-02-27T13:52:59.000Z</time>
      </trkpt>
      <trkpt lat="44.44079" lon="4.51107">
        <ele>452.39999389648</ele>
        <time>2013-02-27T13:53:00.000Z</time>
      </trkpt>
      <trkpt lat="44.44079" lon="4.51109">
        <ele>453</ele>
        <time>2013-02-27T13:53:01.000Z</time>
      </trkpt>
      <trkpt lat="44.44079" lon="4.5111">
        <ele>453</ele>
        <time>2013-02-27T13:53:02.000Z</time>
      </trkpt>
      <trkpt lat="44.44078" lon="4.51112">
        <ele>452.39999389648</ele>
        <time>2013-02-27T13:53:03.000Z</time>
      </trkpt>
      <trkpt lat="44.44078" lon="4.51114">
        <ele>452.39999389648</ele>
        <time>2013-02-27T13:53:04.000Z</time>
      </trkpt>
      <trkpt lat="44.44077" lon="4.51115">
        <ele>452.39999389648</ele>
        <time>2013-02-27T13:53:05.000Z</time>
      </trkpt>
      <trkpt lat="44.44077" lon="4.51117">
        <ele>452</ele>
        <time>2013-02-27T13:53:06.000Z</time>
      </trkpt>
      <trkpt lat="44.44076" lon="4.51119">
        <ele>451.39999389648</ele>
        <time>2013-02-27T13:53:07.000Z</time>
      </trkpt>
      <trkpt lat="44.44076" lon="4.5112">
        <ele>452.39999389648</ele>
        <time>2013-02-27T13:53:08.000Z</time>
      </trkpt>
      <trkpt lat="44.44075" lon="4.51123">
        <ele>453</ele>
        <time>2013-02-27T13:53:09.000Z</time>
      </trkpt>
      <trkpt lat="44.44075" lon="4.51125">
        <ele>453</ele>
        <time>2013-02-27T13:53:10.000Z</time>
      </trkpt>
      <trkpt lat="44.44075" lon="4.51126">
        <ele>453</ele>
        <time>2013-02-27T13:53:11.000Z</time>
      </trkpt>
      <trkpt lat="44.44074" lon="4.51127">
        <ele>452</ele>
        <time>2013-02-27T13:53:12.000Z</time>
      </trkpt>
      <trkpt lat="44.44074" lon="4.51128">
        <ele>452</ele>
        <time>2013-02-27T13:53:13.000Z</time>
      </trkpt>
      <trkpt lat="44.44073" lon="4.5113">
        <ele>451.39999389648</ele>
        <time>2013-02-27T13:53:14.000Z</time>
      </trkpt>
      <trkpt lat="44.44072" lon="4.51132">
        <ele>451.39999389648</ele>
        <time>2013-02-27T13:53:15.000Z</time>
      </trkpt>
      <trkpt lat="44.44072" lon="4.51134">
        <ele>452</ele>
        <time>2013-02-27T13:53:16.000Z</time>
      </trkpt>
      <trkpt lat="44.44072" lon="4.51136">
        <ele>453</ele>
        <time>2013-02-27T13:53:17.000Z</time>
      </trkpt>
      <trkpt lat="44.44071" lon="4.51137">
        <ele>452</ele>
        <time>2013-02-27T13:53:18.000Z</time>
      </trkpt>
      <trkpt lat="44.44071" lon="4.51139">
        <ele>452</ele>
        <time>2013-02-27T13:53:19.000Z</time>
      </trkpt>
      <trkpt lat="44.4407" lon="4.5114">
        <ele>451</ele>
        <time>2013-02-27T13:53:20.000Z</time>
      </trkpt>
      <trkpt lat="44.44069" lon="4.51142">
        <ele>450.60000610352</ele>
        <time>2013-02-27T13:53:21.000Z</time>
      </trkpt>
      <trkpt lat="44.44069" lon="4.51143">
        <ele>450.60000610352</ele>
        <time>2013-02-27T13:53:22.000Z</time>
      </trkpt>
      <trkpt lat="44.44068" lon="4.51145">
        <ele>450.60000610352</ele>
        <time>2013-02-27T13:53:23.000Z</time>
      </trkpt>
      <trkpt lat="44.44067" lon="4.51147">
        <ele>450</ele>
        <time>2013-02-27T13:53:24.000Z</time>
      </trkpt>
      <trkpt lat="44.44066" lon="4.51149">
        <ele>450.60000610352</ele>
        <time>2013-02-27T13:53:25.000Z</time>
      </trkpt>
      <trkpt lat="44.44066" lon="4.51151">
        <ele>450.60000610352</ele>
        <time>2013-02-27T13:53:26.000Z</time>
      </trkpt>
      <trkpt lat="44.44065" lon="4.51152">
        <ele>450.60000610352</ele>
        <time>2013-02-27T13:53:27.000Z</time>
      </trkpt>
      <trkpt lat="44.44065" lon="4.51154">
        <ele>450</ele>
        <time>2013-02-27T13:53:28.000Z</time>
      </trkpt>
      <trkpt lat="44.44064" lon="4.51155">
        <ele>450</ele>
        <time>2013-02-27T13:53:29.000Z</time>
      </trkpt>
      <trkpt lat="44.44064" lon="4.51157">
        <ele>449.60000610352</ele>
        <time>2013-02-27T13:53:30.000Z</time>
      </trkpt>
      <trkpt lat="44.44064" lon="4.51158">
        <ele>449.60000610352</ele>
        <time>2013-02-27T13:53:31.000Z</time>
      </trkpt>
      <trkpt lat="44.44063" lon="4.5116">
        <ele>449.60000610352</ele>
        <time>2013-02-27T13:53:32.000Z</time>
      </trkpt>
      <trkpt lat="44.44063" lon="4.51162">
        <ele>449.60000610352</ele>
        <time>2013-02-27T13:53:33.000Z</time>
      </trkpt>
      <trkpt lat="44.44063" lon="4.51163">
        <ele>449.60000610352</ele>
        <time>2013-02-27T13:53:34.000Z</time>
      </trkpt>
      <trkpt lat="44.44063" lon="4.51165">
        <ele>449.60000610352</ele>
        <time>2013-02-27T13:53:35.000Z</time>
      </trkpt>
      <trkpt lat="44.44063" lon="4.51167">
        <ele>449.60000610352</ele>
        <time>2013-02-27T13:53:36.000Z</time>
      </trkpt>
      <trkpt lat="44.44063" lon="4.51168">
        <ele>449.60000610352</ele>
        <time>2013-02-27T13:53:37.000Z</time>
      </trkpt>
      <trkpt lat="44.44062" lon="4.5117">
        <ele>449.60000610352</ele>
        <time>2013-02-27T13:53:38.000Z</time>
      </trkpt>
      <trkpt lat="44.44062" lon="4.51172">
        <ele>449.60000610352</ele>
        <time>2013-02-27T13:53:39.000Z</time>
      </trkpt>
      <trkpt lat="44.44062" lon="4.51173">
        <ele>449.60000610352</ele>
        <time>2013-02-27T13:53:40.000Z</time>
      </trkpt>
      <trkpt lat="44.44062" lon="4.51175">
        <ele>450</ele>
        <time>2013-02-27T13:53:41.000Z</time>
      </trkpt>
      <trkpt lat="44.44061" lon="4.51177">
        <ele>450</ele>
        <time>2013-02-27T13:53:42.000Z</time>
      </trkpt>
      <trkpt lat="44.44061" lon="4.51178">
        <ele>450</ele>
        <time>2013-02-27T13:53:43.000Z</time>
      </trkpt>
      <trkpt lat="44.44061" lon="4.5118">
        <ele>450</ele>
        <time>2013-02-27T13:53:44.000Z</time>
      </trkpt>
      <trkpt lat="44.4406" lon="4.51181">
        <ele>449.60000610352</ele>
        <time>2013-02-27T13:53:45.000Z</time>
      </trkpt>
      <trkpt lat="44.4406" lon="4.51183">
        <ele>450</ele>
        <time>2013-02-27T13:53:46.000Z</time>
      </trkpt>
      <trkpt lat="44.4406" lon="4.51185">
        <ele>450</ele>
        <time>2013-02-27T13:53:47.000Z</time>
      </trkpt>
      <trkpt lat="44.44059" lon="4.51186">
        <ele>450.60000610352</ele>
        <time>2013-02-27T13:53:48.000Z</time>
      </trkpt>
      <trkpt lat="44.44059" lon="4.51188">
        <ele>450.60000610352</ele>
        <time>2013-02-27T13:53:49.000Z</time>
      </trkpt>
      <trkpt lat="44.44059" lon="4.51189">
        <ele>450.60000610352</ele>
        <time>2013-02-27T13:53:50.000Z</time>
      </trkpt>
      <trkpt lat="44.44059" lon="4.51191">
        <ele>451</ele>
        <time>2013-02-27T13:53:51.000Z</time>
      </trkpt>
      <trkpt lat="44.44058" lon="4.51192">
        <ele>451</ele>
        <time>2013-02-27T13:53:52.000Z</time>
      </trkpt>
      <trkpt lat="44.44058" lon="4.51194">
        <ele>451</ele>
        <time>2013-02-27T13:53:53.000Z</time>
      </trkpt>
      <trkpt lat="44.44058" lon="4.51196">
        <ele>451</ele>
        <time>2013-02-27T13:53:54.000Z</time>
      </trkpt>
      <trkpt lat="44.44057" lon="4.51197">
        <ele>451</ele>
        <time>2013-02-27T13:53:55.000Z</time>
      </trkpt>
      <trkpt lat="44.44057" lon="4.51199">
        <ele>451.39999389648</ele>
        <time>2013-02-27T13:53:56.000Z</time>
      </trkpt>
      <trkpt lat="44.44056" lon="4.51201">
        <ele>451.39999389648</ele>
        <time>2013-02-27T13:53:57.000Z</time>
      </trkpt>
      <trkpt lat="44.44055" lon="4.51203">
        <ele>451</ele>
        <time>2013-02-27T13:53:58.000Z</time>
      </trkpt>
      <trkpt lat="44.44054" lon="4.51204">
        <ele>451</ele>
        <time>2013-02-27T13:53:59.000Z</time>
      </trkpt>
      <trkpt lat="44.44054" lon="4.51205">
        <ele>450.60000610352</ele>
        <time>2013-02-27T13:54:00.000Z</time>
      </trkpt>
      <trkpt lat="44.44053" lon="4.51206">
        <ele>449.60000610352</ele>
        <time>2013-02-27T13:54:01.000Z</time>
      </trkpt>
      <trkpt lat="44.44052" lon="4.51208">
        <ele>449</ele>
        <time>2013-02-27T13:54:02.000Z</time>
      </trkpt>
      <trkpt lat="44.44051" lon="4.5121">
        <ele>449</ele>
        <time>2013-02-27T13:54:03.000Z</time>
      </trkpt>
      <trkpt lat="44.4405" lon="4.51211">
        <ele>449</ele>
        <time>2013-02-27T13:54:04.000Z</time>
      </trkpt>
      <trkpt lat="44.44049" lon="4.51212">
        <ele>448.60000610352</ele>
        <time>2013-02-27T13:54:05.000Z</time>
      </trkpt>
      <trkpt lat="44.44048" lon="4.51214">
        <ele>448.20001220703</ele>
        <time>2013-02-27T13:54:06.000Z</time>
      </trkpt>
      <trkpt lat="44.44048" lon="4.51216">
        <ele>448.60000610352</ele>
        <time>2013-02-27T13:54:07.000Z</time>
      </trkpt>
      <trkpt lat="44.44047" lon="4.51217">
        <ele>449</ele>
        <time>2013-02-27T13:54:08.000Z</time>
      </trkpt>
      <trkpt lat="44.44047" lon="4.51219">
        <ele>449.60000610352</ele>
        <time>2013-02-27T13:54:09.000Z</time>
      </trkpt>
      <trkpt lat="44.44046" lon="4.51221">
        <ele>449</ele>
        <time>2013-02-27T13:54:10.000Z</time>
      </trkpt>
      <trkpt lat="44.44045" lon="4.51222">
        <ele>449.60000610352</ele>
        <time>2013-02-27T13:54:11.000Z</time>
      </trkpt>
      <trkpt lat="44.44045" lon="4.51224">
        <ele>449.60000610352</ele>
        <time>2013-02-27T13:54:12.000Z</time>
      </trkpt>
      <trkpt lat="44.44044" lon="4.51225">
        <ele>449.60000610352</ele>
        <time>2013-02-27T13:54:13.000Z</time>
      </trkpt>
      <trkpt lat="44.44043" lon="4.51227">
        <ele>449.60000610352</ele>
        <time>2013-02-27T13:54:14.000Z</time>
      </trkpt>
      <trkpt lat="44.44043" lon="4.51228">
        <ele>450</ele>
        <time>2013-02-27T13:54:15.000Z</time>
      </trkpt>
      <trkpt lat="44.44042" lon="4.5123">
        <ele>450</ele>
        <time>2013-02-27T13:54:16.000Z</time>
      </trkpt>
      <trkpt lat="44.44042" lon="4.51231">
        <ele>450.60000610352</ele>
        <time>2013-02-27T13:54:17.000Z</time>
      </trkpt>
      <trkpt lat="44.44042" lon="4.51233">
        <ele>451</ele>
        <time>2013-02-27T13:54:18.000Z</time>
      </trkpt>
      <trkpt lat="44.44041" lon="4.51234">
        <ele>451</ele>
        <time>2013-02-27T13:54:19.000Z</time>
      </trkpt>
      <trkpt lat="44.44041" lon="4.51236">
        <ele>451.39999389648</ele>
        <time>2013-02-27T13:54:20.000Z</time>
      </trkpt>
      <trkpt lat="44.4404" lon="4.51237">
        <ele>451</ele>
        <time>2013-02-27T13:54:21.000Z</time>
      </trkpt>
      <trkpt lat="44.44039" lon="4.51238">
        <ele>451</ele>
        <time>2013-02-27T13:54:22.000Z</time>
      </trkpt>
      <trkpt lat="44.44038" lon="4.51239">
        <ele>450.60000610352</ele>
        <time>2013-02-27T13:54:23.000Z</time>
      </trkpt>
      <trkpt lat="44.44037" lon="4.5124">
        <ele>451</ele>
        <time>2013-02-27T13:54:24.000Z</time>
      </trkpt>
      <trkpt lat="44.44037" lon="4.51242">
        <ele>451.39999389648</ele>
        <time>2013-02-27T13:54:25.000Z</time>
      </trkpt>
      <trkpt lat="44.44037" lon="4.51243">
        <ele>452</ele>
        <time>2013-02-27T13:54:26.000Z</time>
      </trkpt>
      <trkpt lat="44.44035" lon="4.51244">
        <ele>451.39999389648</ele>
        <time>2013-02-27T13:54:27.000Z</time>
      </trkpt>
      <trkpt lat="44.44034" lon="4.51245">
        <ele>451.39999389648</ele>
        <time>2013-02-27T13:54:28.000Z</time>
      </trkpt>
      <trkpt lat="44.44033" lon="4.51246">
        <ele>451.39999389648</ele>
        <time>2013-02-27T13:54:29.000Z</time>
      </trkpt>
      <trkpt lat="44.44032" lon="4.51247">
        <ele>450.60000610352</ele>
        <time>2013-02-27T13:54:30.000Z</time>
      </trkpt>
      <trkpt lat="44.4403" lon="4.51248">
        <ele>450.60000610352</ele>
        <time>2013-02-27T13:54:31.000Z</time>
      </trkpt>
      <trkpt lat="44.44029" lon="4.51249">
        <ele>450.60000610352</ele>
        <time>2013-02-27T13:54:32.000Z</time>
      </trkpt>
      <trkpt lat="44.44029" lon="4.51251">
        <ele>451.39999389648</ele>
        <time>2013-02-27T13:54:33.000Z</time>
      </trkpt>
      <trkpt lat="44.44028" lon="4.51252">
        <ele>452</ele>
        <time>2013-02-27T13:54:34.000Z</time>
      </trkpt>
      <trkpt lat="44.44027" lon="4.51253">
        <ele>452.39999389648</ele>
        <time>2013-02-27T13:54:35.000Z</time>
      </trkpt>
      <trkpt lat="44.44026" lon="4.51253">
        <ele>452.39999389648</ele>
        <time>2013-02-27T13:54:36.000Z</time>
      </trkpt>
      <trkpt lat="44.44024" lon="4.51254">
        <ele>452.39999389648</ele>
        <time>2013-02-27T13:54:37.000Z</time>
      </trkpt>
      <trkpt lat="44.44022" lon="4.51255">
        <ele>452.39999389648</ele>
        <time>2013-02-27T13:54:38.000Z</time>
      </trkpt>
      <trkpt lat="44.44021" lon="4.51255">
        <ele>452.39999389648</ele>
        <time>2013-02-27T13:54:39.000Z</time>
      </trkpt>
      <trkpt lat="44.44019" lon="4.51255">
        <ele>452.39999389648</ele>
        <time>2013-02-27T13:54:40.000Z</time>
      </trkpt>
      <trkpt lat="44.44018" lon="4.51256">
        <ele>452</ele>
        <time>2013-02-27T13:54:41.000Z</time>
      </trkpt>
      <trkpt lat="44.44016" lon="4.51255">
        <ele>452</ele>
        <time>2013-02-27T13:54:42.000Z</time>
      </trkpt>
      <trkpt lat="44.44015" lon="4.51255">
        <ele>452.39999389648</ele>
        <time>2013-02-27T13:54:43.000Z</time>
      </trkpt>
      <trkpt lat="44.44013" lon="4.51255">
        <ele>452</ele>
        <time>2013-02-27T13:54:44.000Z</time>
      </trkpt>
      <trkpt lat="44.44012" lon="4.51254">
        <ele>452</ele>
        <time>2013-02-27T13:54:45.000Z</time>
      </trkpt>
      <trkpt lat="44.44011" lon="4.51253">
        <ele>452</ele>
        <time>2013-02-27T13:54:46.000Z</time>
      </trkpt>
      <trkpt lat="44.4401" lon="4.51253">
        <ele>452</ele>
        <time>2013-02-27T13:54:47.000Z</time>
      </trkpt>
      <trkpt lat="44.44008" lon="4.51252">
        <ele>452</ele>
        <time>2013-02-27T13:54:48.000Z</time>
      </trkpt>
      <trkpt lat="44.44007" lon="4.51251">
        <ele>452</ele>
        <time>2013-02-27T13:54:49.000Z</time>
      </trkpt>
      <trkpt lat="44.44005" lon="4.51251">
        <ele>452</ele>
        <time>2013-02-27T13:54:50.000Z</time>
      </trkpt>
      <trkpt lat="44.44004" lon="4.5125">
        <ele>451.39999389648</ele>
        <time>2013-02-27T13:54:51.000Z</time>
      </trkpt>
      <trkpt lat="44.44002" lon="4.5125">
        <ele>451.39999389648</ele>
        <time>2013-02-27T13:54:52.000Z</time>
      </trkpt>
      <trkpt lat="44.44001" lon="4.5125">
        <ele>451</ele>
        <time>2013-02-27T13:54:53.000Z</time>
      </trkpt>
      <trkpt lat="44.43999" lon="4.51249">
        <ele>451</ele>
        <time>2013-02-27T13:54:54.000Z</time>
      </trkpt>
      <trkpt lat="44.43998" lon="4.51249">
        <ele>451</ele>
        <time>2013-02-27T13:54:55.000Z</time>
      </trkpt>
      <trkpt lat="44.43996" lon="4.51248">
        <ele>451.39999389648</ele>
        <time>2013-02-27T13:54:56.000Z</time>
      </trkpt>
      <trkpt lat="44.43995" lon="4.51247">
        <ele>451.39999389648</ele>
        <time>2013-02-27T13:54:57.000Z</time>
      </trkpt>
      <trkpt lat="44.43994" lon="4.51247">
        <ele>451</ele>
        <time>2013-02-27T13:54:58.000Z</time>
      </trkpt>
      <trkpt lat="44.43993" lon="4.51246">
        <ele>451</ele>
        <time>2013-02-27T13:54:59.000Z</time>
      </trkpt>
      <trkpt lat="44.43991" lon="4.51245">
        <ele>451</ele>
        <time>2013-02-27T13:55:00.000Z</time>
      </trkpt>
      <trkpt lat="44.4399" lon="4.51244">
        <ele>451</ele>
        <time>2013-02-27T13:55:01.000Z</time>
      </trkpt>
      <trkpt lat="44.43988" lon="4.51244">
        <ele>450.60000610352</ele>
        <time>2013-02-27T13:55:02.000Z</time>
      </trkpt>
      <trkpt lat="44.43987" lon="4.51243">
        <ele>451</ele>
        <time>2013-02-27T13:55:03.000Z</time>
      </trkpt>
      <trkpt lat="44.43986" lon="4.51242">
        <ele>451</ele>
        <time>2013-02-27T13:55:04.000Z</time>
      </trkpt>
      <trkpt lat="44.43985" lon="4.5124">
        <ele>451</ele>
        <time>2013-02-27T13:55:05.000Z</time>
      </trkpt>
      <trkpt lat="44.43984" lon="4.5124">
        <ele>451.39999389648</ele>
        <time>2013-02-27T13:55:06.000Z</time>
      </trkpt>
      <trkpt lat="44.43983" lon="4.51239">
        <ele>451</ele>
        <time>2013-02-27T13:55:07.000Z</time>
      </trkpt>
      <trkpt lat="44.43982" lon="4.51237">
        <ele>452</ele>
        <time>2013-02-27T13:55:08.000Z</time>
      </trkpt>
      <trkpt lat="44.43981" lon="4.51235">
        <ele>453</ele>
        <time>2013-02-27T13:55:09.000Z</time>
      </trkpt>
      <trkpt lat="44.43981" lon="4.51234">
        <ele>453</ele>
        <time>2013-02-27T13:55:10.000Z</time>
      </trkpt>
      <trkpt lat="44.4398" lon="4.51233">
        <ele>453</ele>
        <time>2013-02-27T13:55:11.000Z</time>
      </trkpt>
      <trkpt lat="44.43979" lon="4.51232">
        <ele>453</ele>
        <time>2013-02-27T13:55:12.000Z</time>
      </trkpt>
      <trkpt lat="44.43978" lon="4.5123">
        <ele>453.79998779297</ele>
        <time>2013-02-27T13:55:13.000Z</time>
      </trkpt>
      <trkpt lat="44.43977" lon="4.51229">
        <ele>453.79998779297</ele>
        <time>2013-02-27T13:55:14.000Z</time>
      </trkpt>
      <trkpt lat="44.43975" lon="4.51228">
        <ele>453.79998779297</ele>
        <time>2013-02-27T13:55:15.000Z</time>
      </trkpt>
      <trkpt lat="44.43974" lon="4.51227">
        <ele>454.79998779297</ele>
        <time>2013-02-27T13:55:16.000Z</time>
      </trkpt>
      <trkpt lat="44.43973" lon="4.51226">
        <ele>454.79998779297</ele>
        <time>2013-02-27T13:55:17.000Z</time>
      </trkpt>
      <trkpt lat="44.43972" lon="4.51224">
        <ele>455.39999389648</ele>
        <time>2013-02-27T13:55:18.000Z</time>
      </trkpt>
      <trkpt lat="44.4397" lon="4.51224">
        <ele>454.79998779297</ele>
        <time>2013-02-27T13:55:19.000Z</time>
      </trkpt>
      <trkpt lat="44.43969" lon="4.51223">
        <ele>454.79998779297</ele>
        <time>2013-02-27T13:55:20.000Z</time>
      </trkpt>
      <trkpt lat="44.43968" lon="4.51221">
        <ele>455.39999389648</ele>
        <time>2013-02-27T13:55:21.000Z</time>
      </trkpt>
      <trkpt lat="44.43967" lon="4.5122">
        <ele>456.20001220703</ele>
        <time>2013-02-27T13:55:22.000Z</time>
      </trkpt>
      <trkpt lat="44.43966" lon="4.51219">
        <ele>455.39999389648</ele>
        <time>2013-02-27T13:55:23.000Z</time>
      </trkpt>
      <trkpt lat="44.43965" lon="4.51218">
        <ele>454.79998779297</ele>
        <time>2013-02-27T13:55:24.000Z</time>
      </trkpt>
      <trkpt lat="44.43964" lon="4.51217">
        <ele>453.79998779297</ele>
        <time>2013-02-27T13:55:25.000Z</time>
      </trkpt>
      <trkpt lat="44.43963" lon="4.51215">
        <ele>454.39999389648</ele>
        <time>2013-02-27T13:55:26.000Z</time>
      </trkpt>
      <trkpt lat="44.43962" lon="4.51214">
        <ele>453.79998779297</ele>
        <time>2013-02-27T13:55:27.000Z</time>
      </trkpt>
      <trkpt lat="44.43961" lon="4.51213">
        <ele>453.39999389648</ele>
        <time>2013-02-27T13:55:28.000Z</time>
      </trkpt>
      <trkpt lat="44.43961" lon="4.51212">
        <ele>453</ele>
        <time>2013-02-27T13:55:29.000Z</time>
      </trkpt>
      <trkpt lat="44.43959" lon="4.51211">
        <ele>452.39999389648</ele>
        <time>2013-02-27T13:55:30.000Z</time>
      </trkpt>
      <trkpt lat="44.43958" lon="4.5121">
        <ele>453.39999389648</ele>
        <time>2013-02-27T13:55:31.000Z</time>
      </trkpt>
      <trkpt lat="44.43957" lon="4.51208">
        <ele>453</ele>
        <time>2013-02-27T13:55:32.000Z</time>
      </trkpt>
      <trkpt lat="44.43957" lon="4.51207">
        <ele>453.39999389648</ele>
        <time>2013-02-27T13:55:33.000Z</time>
      </trkpt>
      <trkpt lat="44.43956" lon="4.51206">
        <ele>452.39999389648</ele>
        <time>2013-02-27T13:55:34.000Z</time>
      </trkpt>
      <trkpt lat="44.43955" lon="4.51204">
        <ele>452.39999389648</ele>
        <time>2013-02-27T13:55:35.000Z</time>
      </trkpt>
      <trkpt lat="44.43954" lon="4.51203">
        <ele>452.39999389648</ele>
        <time>2013-02-27T13:55:36.000Z</time>
      </trkpt>
      <trkpt lat="44.43953" lon="4.51202">
        <ele>452.39999389648</ele>
        <time>2013-02-27T13:55:37.000Z</time>
      </trkpt>
      <trkpt lat="44.43952" lon="4.512">
        <ele>452.39999389648</ele>
        <time>2013-02-27T13:55:38.000Z</time>
      </trkpt>
      <trkpt lat="44.43951" lon="4.51199">
        <ele>452</ele>
        <time>2013-02-27T13:55:39.000Z</time>
      </trkpt>
      <trkpt lat="44.43951" lon="4.51198">
        <ele>451</ele>
        <time>2013-02-27T13:55:40.000Z</time>
      </trkpt>
      <trkpt lat="44.4395" lon="4.51197">
        <ele>450.60000610352</ele>
        <time>2013-02-27T13:55:41.000Z</time>
      </trkpt>
      <trkpt lat="44.4395" lon="4.51196">
        <ele>450</ele>
        <time>2013-02-27T13:55:42.000Z</time>
      </trkpt>
      <trkpt lat="44.43949" lon="4.51195">
        <ele>449.60000610352</ele>
        <time>2013-02-27T13:55:43.000Z</time>
      </trkpt>
      <trkpt lat="44.43948" lon="4.51193">
        <ele>449</ele>
        <time>2013-02-27T13:55:44.000Z</time>
      </trkpt>
      <trkpt lat="44.43947" lon="4.51192">
        <ele>448.60000610352</ele>
        <time>2013-02-27T13:55:45.000Z</time>
      </trkpt>
      <trkpt lat="44.43946" lon="4.51191">
        <ele>448.20001220703</ele>
        <time>2013-02-27T13:55:46.000Z</time>
      </trkpt>
      <trkpt lat="44.43945" lon="4.51189">
        <ele>447.60000610352</ele>
        <time>2013-02-27T13:55:47.000Z</time>
      </trkpt>
      <trkpt lat="44.43945" lon="4.51188">
        <ele>447.20001220703</ele>
        <time>2013-02-27T13:55:48.000Z</time>
      </trkpt>
      <trkpt lat="44.43944" lon="4.51187">
        <ele>446.20001220703</ele>
        <time>2013-02-27T13:55:49.000Z</time>
      </trkpt>
      <trkpt lat="44.43943" lon="4.51186">
        <ele>445.20001220703</ele>
        <time>2013-02-27T13:55:50.000Z</time>
      </trkpt>
      <trkpt lat="44.43942" lon="4.51185">
        <ele>445.20001220703</ele>
        <time>2013-02-27T13:55:51.000Z</time>
      </trkpt>
      <trkpt lat="44.43942" lon="4.51184">
        <ele>444.20001220703</ele>
        <time>2013-02-27T13:55:52.000Z</time>
      </trkpt>
      <trkpt lat="44.43941" lon="4.51183">
        <ele>443.79998779297</ele>
        <time>2013-02-27T13:55:53.000Z</time>
      </trkpt>
      <trkpt lat="44.4394" lon="4.51182">
        <ele>443.39999389648</ele>
        <time>2013-02-27T13:55:54.000Z</time>
      </trkpt>
      <trkpt lat="44.43939" lon="4.51181">
        <ele>442.79998779297</ele>
        <time>2013-02-27T13:55:55.000Z</time>
      </trkpt>
      <trkpt lat="44.43938" lon="4.51179">
        <ele>442.79998779297</ele>
        <time>2013-02-27T13:55:56.000Z</time>
      </trkpt>
      <trkpt lat="44.43938" lon="4.51178">
        <ele>442.39999389648</ele>
        <time>2013-02-27T13:55:57.000Z</time>
      </trkpt>
      <trkpt lat="44.43937" lon="4.51178">
        <ele>441.79998779297</ele>
        <time>2013-02-27T13:55:58.000Z</time>
      </trkpt>
      <trkpt lat="44.43936" lon="4.51177">
        <ele>441.39999389648</ele>
        <time>2013-02-27T13:55:59.000Z</time>
      </trkpt>
      <trkpt lat="44.43935" lon="4.51176">
        <ele>440.39999389648</ele>
        <time>2013-02-27T13:56:00.000Z</time>
      </trkpt>
      <trkpt lat="44.43933" lon="4.51176">
        <ele>439.39999389648</ele>
        <time>2013-02-27T13:56:01.000Z</time>
      </trkpt>
      <trkpt lat="44.43932" lon="4.51175">
        <ele>438</ele>
        <time>2013-02-27T13:56:02.000Z</time>
      </trkpt>
      <trkpt lat="44.43931" lon="4.51174">
        <ele>438</ele>
        <time>2013-02-27T13:56:03.000Z</time>
      </trkpt>
      <trkpt lat="44.4393" lon="4.51173">
        <ele>438</ele>
        <time>2013-02-27T13:56:04.000Z</time>
      </trkpt>
      <trkpt lat="44.43929" lon="4.51172">
        <ele>438</ele>
        <time>2013-02-27T13:56:05.000Z</time>
      </trkpt>
      <trkpt lat="44.43928" lon="4.5117">
        <ele>440.39999389648</ele>
        <time>2013-02-27T13:56:06.000Z</time>
      </trkpt>
      <trkpt lat="44.43926" lon="4.51167">
        <ele>442.39999389648</ele>
        <time>2013-02-27T13:56:07.000Z</time>
      </trkpt>
      <trkpt lat="44.43925" lon="4.51165">
        <ele>443.79998779297</ele>
        <time>2013-02-27T13:56:08.000Z</time>
      </trkpt>
      <trkpt lat="44.43924" lon="4.51164">
        <ele>444.20001220703</ele>
        <time>2013-02-27T13:56:09.000Z</time>
      </trkpt>
      <trkpt lat="44.43923" lon="4.51162">
        <ele>446.20001220703</ele>
        <time>2013-02-27T13:56:10.000Z</time>
      </trkpt>
      <trkpt lat="44.43922" lon="4.5116">
        <ele>447.20001220703</ele>
        <time>2013-02-27T13:56:11.000Z</time>
      </trkpt>
      <trkpt lat="44.43921" lon="4.51158">
        <ele>447.60000610352</ele>
        <time>2013-02-27T13:56:12.000Z</time>
      </trkpt>
      <trkpt lat="44.43921" lon="4.51157">
        <ele>448.20001220703</ele>
        <time>2013-02-27T13:56:13.000Z</time>
      </trkpt>
      <trkpt lat="44.4392" lon="4.51156">
        <ele>447.20001220703</ele>
        <time>2013-02-27T13:56:14.000Z</time>
      </trkpt>
      <trkpt lat="44.43919" lon="4.51155">
        <ele>447.20001220703</ele>
        <time>2013-02-27T13:56:15.000Z</time>
      </trkpt>
      <trkpt lat="44.43917" lon="4.51154">
        <ele>446.20001220703</ele>
        <time>2013-02-27T13:56:16.000Z</time>
      </trkpt>
      <trkpt lat="44.43917" lon="4.51153">
        <ele>446.20001220703</ele>
        <time>2013-02-27T13:56:17.000Z</time>
      </trkpt>
      <trkpt lat="44.43915" lon="4.51153">
        <ele>445.79998779297</ele>
        <time>2013-02-27T13:56:18.000Z</time>
      </trkpt>
      <trkpt lat="44.43914" lon="4.51152">
        <ele>444.79998779297</ele>
        <time>2013-02-27T13:56:19.000Z</time>
      </trkpt>
      <trkpt lat="44.43914" lon="4.51151">
        <ele>444.79998779297</ele>
        <time>2013-02-27T13:56:20.000Z</time>
      </trkpt>
      <trkpt lat="44.43913" lon="4.51149">
        <ele>445.79998779297</ele>
        <time>2013-02-27T13:56:21.000Z</time>
      </trkpt>
      <trkpt lat="44.43912" lon="4.51148">
        <ele>446.60000610352</ele>
        <time>2013-02-27T13:56:22.000Z</time>
      </trkpt>
      <trkpt lat="44.43911" lon="4.51146">
        <ele>446.60000610352</ele>
        <time>2013-02-27T13:56:23.000Z</time>
      </trkpt>
      <trkpt lat="44.4391" lon="4.51145">
        <ele>446.60000610352</ele>
        <time>2013-02-27T13:56:24.000Z</time>
      </trkpt>
      <trkpt lat="44.4391" lon="4.51144">
        <ele>447.60000610352</ele>
        <time>2013-02-27T13:56:25.000Z</time>
      </trkpt>
      <trkpt lat="44.43909" lon="4.51142">
        <ele>448.60000610352</ele>
        <time>2013-02-27T13:56:26.000Z</time>
      </trkpt>
      <trkpt lat="44.43908" lon="4.51141">
        <ele>448.20001220703</ele>
        <time>2013-02-27T13:56:27.000Z</time>
      </trkpt>
      <trkpt lat="44.43907" lon="4.5114">
        <ele>447.60000610352</ele>
        <time>2013-02-27T13:56:28.000Z</time>
      </trkpt>
      <trkpt lat="44.43907" lon="4.51139">
        <ele>447.60000610352</ele>
        <time>2013-02-27T13:56:29.000Z</time>
      </trkpt>
      <trkpt lat="44.43905" lon="4.51138">
        <ele>447.20001220703</ele>
        <time>2013-02-27T13:56:30.000Z</time>
      </trkpt>
      <trkpt lat="44.43904" lon="4.51137">
        <ele>446.20001220703</ele>
        <time>2013-02-27T13:56:31.000Z</time>
      </trkpt>
      <trkpt lat="44.43902" lon="4.51137">
        <ele>445.20001220703</ele>
        <time>2013-02-27T13:56:32.000Z</time>
      </trkpt>
      <trkpt lat="44.43901" lon="4.51136">
        <ele>444.20001220703</ele>
        <time>2013-02-27T13:56:33.000Z</time>
      </trkpt>
      <trkpt lat="44.43899" lon="4.51136">
        <ele>443.39999389648</ele>
        <time>2013-02-27T13:56:34.000Z</time>
      </trkpt>
      <trkpt lat="44.43898" lon="4.51135">
        <ele>442.79998779297</ele>
        <time>2013-02-27T13:56:35.000Z</time>
      </trkpt>
      <trkpt lat="44.43897" lon="4.51135">
        <ele>441.79998779297</ele>
        <time>2013-02-27T13:56:36.000Z</time>
      </trkpt>
      <trkpt lat="44.43895" lon="4.51134">
        <ele>441.39999389648</ele>
        <time>2013-02-27T13:56:37.000Z</time>
      </trkpt>
      <trkpt lat="44.43894" lon="4.51133">
        <ele>441</ele>
        <time>2013-02-27T13:56:38.000Z</time>
      </trkpt>
      <trkpt lat="44.43893" lon="4.51133">
        <ele>440</ele>
        <time>2013-02-27T13:56:39.000Z</time>
      </trkpt>
      <trkpt lat="44.43892" lon="4.51131">
        <ele>441.39999389648</ele>
        <time>2013-02-27T13:56:40.000Z</time>
      </trkpt>
      <trkpt lat="44.4389" lon="4.5113">
        <ele>442.39999389648</ele>
        <time>2013-02-27T13:56:41.000Z</time>
      </trkpt>
      <trkpt lat="44.43889" lon="4.51128">
        <ele>443.79998779297</ele>
        <time>2013-02-27T13:56:42.000Z</time>
      </trkpt>
      <trkpt lat="44.43888" lon="4.51126">
        <ele>445.20001220703</ele>
        <time>2013-02-27T13:56:43.000Z</time>
      </trkpt>
      <trkpt lat="44.43887" lon="4.51125">
        <ele>445.79998779297</ele>
        <time>2013-02-27T13:56:44.000Z</time>
      </trkpt>
      <trkpt lat="44.43887" lon="4.51123">
        <ele>447.60000610352</ele>
        <time>2013-02-27T13:56:45.000Z</time>
      </trkpt>
      <trkpt lat="44.43886" lon="4.51122">
        <ele>447.60000610352</ele>
        <time>2013-02-27T13:56:46.000Z</time>
      </trkpt>
      <trkpt lat="44.43884" lon="4.51122">
        <ele>447.60000610352</ele>
        <time>2013-02-27T13:56:47.000Z</time>
      </trkpt>
      <trkpt lat="44.43882" lon="4.51121">
        <ele>448.20001220703</ele>
        <time>2013-02-27T13:56:48.000Z</time>
      </trkpt>
      <trkpt lat="44.43881" lon="4.51121">
        <ele>447.20001220703</ele>
        <time>2013-02-27T13:56:49.000Z</time>
      </trkpt>
      <trkpt lat="44.43879" lon="4.51121">
        <ele>447.20001220703</ele>
        <time>2013-02-27T13:56:50.000Z</time>
      </trkpt>
      <trkpt lat="44.43878" lon="4.5112">
        <ele>447.60000610352</ele>
        <time>2013-02-27T13:56:51.000Z</time>
      </trkpt>
      <trkpt lat="44.43877" lon="4.5112">
        <ele>447.60000610352</ele>
        <time>2013-02-27T13:56:52.000Z</time>
      </trkpt>
      <trkpt lat="44.43875" lon="4.51119">
        <ele>447.60000610352</ele>
        <time>2013-02-27T13:56:53.000Z</time>
      </trkpt>
      <trkpt lat="44.43874" lon="4.51119">
        <ele>447.60000610352</ele>
        <time>2013-02-27T13:56:54.000Z</time>
      </trkpt>
      <trkpt lat="44.43873" lon="4.51118">
        <ele>448.20001220703</ele>
        <time>2013-02-27T13:56:55.000Z</time>
      </trkpt>
      <trkpt lat="44.43872" lon="4.51117">
        <ele>448.60000610352</ele>
        <time>2013-02-27T13:56:56.000Z</time>
      </trkpt>
      <trkpt lat="44.43871" lon="4.51117">
        <ele>449</ele>
        <time>2013-02-27T13:56:57.000Z</time>
      </trkpt>
      <trkpt lat="44.4387" lon="4.51116">
        <ele>449.60000610352</ele>
        <time>2013-02-27T13:56:58.000Z</time>
      </trkpt>
      <trkpt lat="44.43867" lon="4.51116">
        <ele>449.60000610352</ele>
        <time>2013-02-27T13:56:59.000Z</time>
      </trkpt>
      <trkpt lat="44.43865" lon="4.51116">
        <ele>449</ele>
        <time>2013-02-27T13:57:00.000Z</time>
      </trkpt>
      <trkpt lat="44.43863" lon="4.51116">
        <ele>449.60000610352</ele>
        <time>2013-02-27T13:57:01.000Z</time>
      </trkpt>
      <trkpt lat="44.43862" lon="4.51116">
        <ele>449</ele>
        <time>2013-02-27T13:57:02.000Z</time>
      </trkpt>
      <trkpt lat="44.43861" lon="4.51115">
        <ele>449.60000610352</ele>
        <time>2013-02-27T13:57:03.000Z</time>
      </trkpt>
      <trkpt lat="44.4386" lon="4.51115">
        <ele>449</ele>
        <time>2013-02-27T13:57:04.000Z</time>
      </trkpt>
      <trkpt lat="44.4386" lon="4.51114">
        <ele>448.60000610352</ele>
        <time>2013-02-27T13:57:05.000Z</time>
      </trkpt>
      <trkpt lat="44.43859" lon="4.51113">
        <ele>448.60000610352</ele>
        <time>2013-02-27T13:57:06.000Z</time>
      </trkpt>
      <trkpt lat="44.43857" lon="4.51113">
        <ele>449</ele>
        <time>2013-02-27T13:57:07.000Z</time>
      </trkpt>
      <trkpt lat="44.43857" lon="4.51112">
        <ele>449</ele>
        <time>2013-02-27T13:57:08.000Z</time>
      </trkpt>
      <trkpt lat="44.43855" lon="4.51112">
        <ele>449</ele>
        <time>2013-02-27T13:57:09.000Z</time>
      </trkpt>
      <trkpt lat="44.43854" lon="4.51111">
        <ele>449.60000610352</ele>
        <time>2013-02-27T13:57:10.000Z</time>
      </trkpt>
      <trkpt lat="44.43852" lon="4.51112">
        <ele>449</ele>
        <time>2013-02-27T13:57:11.000Z</time>
      </trkpt>
      <trkpt lat="44.4385" lon="4.51112">
        <ele>448.60000610352</ele>
        <time>2013-02-27T13:57:12.000Z</time>
      </trkpt>
      <trkpt lat="44.43848" lon="4.51112">
        <ele>448.60000610352</ele>
        <time>2013-02-27T13:57:13.000Z</time>
      </trkpt>
      <trkpt lat="44.43847" lon="4.51112">
        <ele>448.60000610352</ele>
        <time>2013-02-27T13:57:14.000Z</time>
      </trkpt>
      <trkpt lat="44.43845" lon="4.51112">
        <ele>448.60000610352</ele>
        <time>2013-02-27T13:57:15.000Z</time>
      </trkpt>
      <trkpt lat="44.43844" lon="4.51112">
        <ele>448.60000610352</ele>
        <time>2013-02-27T13:57:16.000Z</time>
      </trkpt>
      <trkpt lat="44.43842" lon="4.51112">
        <ele>448.20001220703</ele>
        <time>2013-02-27T13:57:17.000Z</time>
      </trkpt>
      <trkpt lat="44.4384" lon="4.51113">
        <ele>447.60000610352</ele>
        <time>2013-02-27T13:57:18.000Z</time>
      </trkpt>
      <trkpt lat="44.43838" lon="4.51113">
        <ele>447.60000610352</ele>
        <time>2013-02-27T13:57:19.000Z</time>
      </trkpt>
      <trkpt lat="44.43837" lon="4.51112">
        <ele>447.60000610352</ele>
        <time>2013-02-27T13:57:20.000Z</time>
      </trkpt>
      <trkpt lat="44.43836" lon="4.51112">
        <ele>448.20001220703</ele>
        <time>2013-02-27T13:57:21.000Z</time>
      </trkpt>
      <trkpt lat="44.43835" lon="4.51111">
        <ele>448.20001220703</ele>
        <time>2013-02-27T13:57:22.000Z</time>
      </trkpt>
      <trkpt lat="44.43835" lon="4.5111">
        <ele>448.60000610352</ele>
        <time>2013-02-27T13:57:23.000Z</time>
      </trkpt>
      <trkpt lat="44.43833" lon="4.5111">
        <ele>448.60000610352</ele>
        <time>2013-02-27T13:57:24.000Z</time>
      </trkpt>
      <trkpt lat="44.43832" lon="4.51109">
        <ele>448.60000610352</ele>
        <time>2013-02-27T13:57:25.000Z</time>
      </trkpt>
      <trkpt lat="44.43831" lon="4.5111">
        <ele>448.60000610352</ele>
        <time>2013-02-27T13:57:26.000Z</time>
      </trkpt>
      <trkpt lat="44.43829" lon="4.5111">
        <ele>448.60000610352</ele>
        <time>2013-02-27T13:57:27.000Z</time>
      </trkpt>
      <trkpt lat="44.43827" lon="4.5111">
        <ele>448.60000610352</ele>
        <time>2013-02-27T13:57:28.000Z</time>
      </trkpt>
      <trkpt lat="44.43825" lon="4.51111">
        <ele>447.60000610352</ele>
        <time>2013-02-27T13:57:29.000Z</time>
      </trkpt>
      <trkpt lat="44.43824" lon="4.51111">
        <ele>448.20001220703</ele>
        <time>2013-02-27T13:57:30.000Z</time>
      </trkpt>
      <trkpt lat="44.43823" lon="4.5111">
        <ele>448.20001220703</ele>
        <time>2013-02-27T13:57:31.000Z</time>
      </trkpt>
      <trkpt lat="44.43822" lon="4.51109">
        <ele>449</ele>
        <time>2013-02-27T13:57:32.000Z</time>
      </trkpt>
      <trkpt lat="44.43821" lon="4.51109">
        <ele>450</ele>
        <time>2013-02-27T13:57:33.000Z</time>
      </trkpt>
      <trkpt lat="44.4382" lon="4.51108">
        <ele>450</ele>
        <time>2013-02-27T13:57:34.000Z</time>
      </trkpt>
      <trkpt lat="44.4382" lon="4.51108">
        <ele>450</ele>
        <time>2013-02-27T13:57:35.000Z</time>
      </trkpt>
      <trkpt lat="44.43819" lon="4.51109">
        <ele>450.60000610352</ele>
        <time>2013-02-27T13:57:36.000Z</time>
      </trkpt>
      <trkpt lat="44.43819" lon="4.51109">
        <ele>450.60000610352</ele>
        <time>2013-02-27T13:57:37.000Z</time>
      </trkpt>
      <trkpt lat="44.43818" lon="4.5111">
        <ele>450.60000610352</ele>
        <time>2013-02-27T13:57:38.000Z</time>
      </trkpt>
      <trkpt lat="44.43818" lon="4.5111">
        <ele>450.60000610352</ele>
        <time>2013-02-27T13:57:39.000Z</time>
      </trkpt>
      <trkpt lat="44.43819" lon="4.51111">
        <ele>451.39999389648</ele>
        <time>2013-02-27T13:57:40.000Z</time>
      </trkpt>
      <trkpt lat="44.4382" lon="4.51112">
        <ele>453.39999389648</ele>
        <time>2013-02-27T13:57:41.000Z</time>
      </trkpt>
      <trkpt lat="44.43819" lon="4.51113">
        <ele>453.79998779297</ele>
        <time>2013-02-27T13:57:42.000Z</time>
      </trkpt>
      <trkpt lat="44.43819" lon="4.51114">
        <ele>455.39999389648</ele>
        <time>2013-02-27T13:57:43.000Z</time>
      </trkpt>
      <trkpt lat="44.43819" lon="4.51116">
        <ele>456.20001220703</ele>
        <time>2013-02-27T13:57:44.000Z</time>
      </trkpt>
      <trkpt lat="44.43819" lon="4.51118">
        <ele>456.79998779297</ele>
        <time>2013-02-27T13:57:45.000Z</time>
      </trkpt>
      <trkpt lat="44.43819" lon="4.51119">
        <ele>457.79998779297</ele>
        <time>2013-02-27T13:57:46.000Z</time>
      </trkpt>
      <trkpt lat="44.43819" lon="4.5112">
        <ele>458.60000610352</ele>
        <time>2013-02-27T13:57:47.000Z</time>
      </trkpt>
      <trkpt lat="44.4382" lon="4.51122">
        <ele>460.20001220703</ele>
        <time>2013-02-27T13:57:48.000Z</time>
      </trkpt>
      <trkpt lat="44.43821" lon="4.51123">
        <ele>461</ele>
        <time>2013-02-27T13:57:49.000Z</time>
      </trkpt>
      <trkpt lat="44.43822" lon="4.51125">
        <ele>462</ele>
        <time>2013-02-27T13:57:50.000Z</time>
      </trkpt>
      <trkpt lat="44.43821" lon="4.51126">
        <ele>461.60000610352</ele>
        <time>2013-02-27T13:57:51.000Z</time>
      </trkpt>
      <trkpt lat="44.43821" lon="4.51128">
        <ele>462</ele>
        <time>2013-02-27T13:57:52.000Z</time>
      </trkpt>
      <trkpt lat="44.43821" lon="4.51129">
        <ele>461.60000610352</ele>
        <time>2013-02-27T13:57:53.000Z</time>
      </trkpt>
      <trkpt lat="44.43819" lon="4.5113">
        <ele>461.60000610352</ele>
        <time>2013-02-27T13:57:54.000Z</time>
      </trkpt>
      <trkpt lat="44.43819" lon="4.51132">
        <ele>461.60000610352</ele>
        <time>2013-02-27T13:57:55.000Z</time>
      </trkpt>
      <trkpt lat="44.43819" lon="4.51134">
        <ele>461.60000610352</ele>
        <time>2013-02-27T13:57:56.000Z</time>
      </trkpt>
      <trkpt lat="44.43818" lon="4.51136">
        <ele>462</ele>
        <time>2013-02-27T13:57:57.000Z</time>
      </trkpt>
      <trkpt lat="44.43818" lon="4.51137">
        <ele>461</ele>
        <time>2013-02-27T13:57:58.000Z</time>
      </trkpt>
      <trkpt lat="44.43817" lon="4.51139">
        <ele>460.60000610352</ele>
        <time>2013-02-27T13:57:59.000Z</time>
      </trkpt>
      <trkpt lat="44.43817" lon="4.5114">
        <ele>459.60000610352</ele>
        <time>2013-02-27T13:58:00.000Z</time>
      </trkpt>
      <trkpt lat="44.43817" lon="4.51141">
        <ele>458.60000610352</ele>
        <time>2013-02-27T13:58:01.000Z</time>
      </trkpt>
      <trkpt lat="44.43817" lon="4.51142">
        <ele>457.79998779297</ele>
        <time>2013-02-27T13:58:02.000Z</time>
      </trkpt>
      <trkpt lat="44.43816" lon="4.51144">
        <ele>456.79998779297</ele>
        <time>2013-02-27T13:58:03.000Z</time>
      </trkpt>
      <trkpt lat="44.43816" lon="4.51145">
        <ele>455.79998779297</ele>
        <time>2013-02-27T13:58:04.000Z</time>
      </trkpt>
      <trkpt lat="44.43815" lon="4.51147">
        <ele>454.79998779297</ele>
        <time>2013-02-27T13:58:05.000Z</time>
      </trkpt>
      <trkpt lat="44.43814" lon="4.51148">
        <ele>454.79998779297</ele>
        <time>2013-02-27T13:58:06.000Z</time>
      </trkpt>
      <trkpt lat="44.43814" lon="4.5115">
        <ele>454.79998779297</ele>
        <time>2013-02-27T13:58:07.000Z</time>
      </trkpt>
      <trkpt lat="44.43814" lon="4.51151">
        <ele>454.79998779297</ele>
        <time>2013-02-27T13:58:08.000Z</time>
      </trkpt>
      <trkpt lat="44.43814" lon="4.51153">
        <ele>454.79998779297</ele>
        <time>2013-02-27T13:58:09.000Z</time>
      </trkpt>
      <trkpt lat="44.43814" lon="4.51155">
        <ele>455.79998779297</ele>
        <time>2013-02-27T13:58:10.000Z</time>
      </trkpt>
      <trkpt lat="44.43813" lon="4.51157">
        <ele>455.79998779297</ele>
        <time>2013-02-27T13:58:11.000Z</time>
      </trkpt>
      <trkpt lat="44.43813" lon="4.51159">
        <ele>455.79998779297</ele>
        <time>2013-02-27T13:58:12.000Z</time>
      </trkpt>
      <trkpt lat="44.43812" lon="4.51161">
        <ele>455.79998779297</ele>
        <time>2013-02-27T13:58:13.000Z</time>
      </trkpt>
      <trkpt lat="44.43812" lon="4.51163">
        <ele>455.79998779297</ele>
        <time>2013-02-27T13:58:14.000Z</time>
      </trkpt>
      <trkpt lat="44.43812" lon="4.51164">
        <ele>455.39999389648</ele>
        <time>2013-02-27T13:58:15.000Z</time>
      </trkpt>
      <trkpt lat="44.43812" lon="4.51166">
        <ele>455.79998779297</ele>
        <time>2013-02-27T13:58:16.000Z</time>
      </trkpt>
      <trkpt lat="44.43811" lon="4.51168">
        <ele>456.20001220703</ele>
        <time>2013-02-27T13:58:17.000Z</time>
      </trkpt>
      <trkpt lat="44.4381" lon="4.51171">
        <ele>456.79998779297</ele>
        <time>2013-02-27T13:58:18.000Z</time>
      </trkpt>
      <trkpt lat="44.43809" lon="4.51172">
        <ele>456.20001220703</ele>
        <time>2013-02-27T13:58:19.000Z</time>
      </trkpt>
      <trkpt lat="44.43809" lon="4.51174">
        <ele>457.20001220703</ele>
        <time>2013-02-27T13:58:20.000Z</time>
      </trkpt>
      <trkpt lat="44.43808" lon="4.51177">
        <ele>458.20001220703</ele>
        <time>2013-02-27T13:58:21.000Z</time>
      </trkpt>
      <trkpt lat="44.43809" lon="4.51179">
        <ele>460.20001220703</ele>
        <time>2013-02-27T13:58:22.000Z</time>
      </trkpt>
      <trkpt lat="44.43809" lon="4.51181">
        <ele>460.60000610352</ele>
        <time>2013-02-27T13:58:23.000Z</time>
      </trkpt>
      <trkpt lat="44.43808" lon="4.51183">
        <ele>460.20001220703</ele>
        <time>2013-02-27T13:58:24.000Z</time>
      </trkpt>
      <trkpt lat="44.43808" lon="4.51185">
        <ele>461</ele>
        <time>2013-02-27T13:58:25.000Z</time>
      </trkpt>
      <trkpt lat="44.43808" lon="4.51187">
        <ele>461</ele>
        <time>2013-02-27T13:58:26.000Z</time>
      </trkpt>
      <trkpt lat="44.43808" lon="4.51189">
        <ele>462</ele>
        <time>2013-02-27T13:58:27.000Z</time>
      </trkpt>
      <trkpt lat="44.43808" lon="4.51191">
        <ele>463</ele>
        <time>2013-02-27T13:58:28.000Z</time>
      </trkpt>
      <trkpt lat="44.43808" lon="4.51193">
        <ele>462</ele>
        <time>2013-02-27T13:58:29.000Z</time>
      </trkpt>
      <trkpt lat="44.43808" lon="4.51195">
        <ele>462</ele>
        <time>2013-02-27T13:58:30.000Z</time>
      </trkpt>
      <trkpt lat="44.43808" lon="4.51196">
        <ele>462.60000610352</ele>
        <time>2013-02-27T13:58:31.000Z</time>
      </trkpt>
      <trkpt lat="44.43809" lon="4.51198">
        <ele>462</ele>
        <time>2013-02-27T13:58:32.000Z</time>
      </trkpt>
      <trkpt lat="44.43809" lon="4.51199">
        <ele>462</ele>
        <time>2013-02-27T13:58:33.000Z</time>
      </trkpt>
      <trkpt lat="44.43809" lon="4.51201">
        <ele>462</ele>
        <time>2013-02-27T13:58:34.000Z</time>
      </trkpt>
      <trkpt lat="44.4381" lon="4.51203">
        <ele>462</ele>
        <time>2013-02-27T13:58:35.000Z</time>
      </trkpt>
      <trkpt lat="44.43811" lon="4.51204">
        <ele>462</ele>
        <time>2013-02-27T13:58:36.000Z</time>
      </trkpt>
      <trkpt lat="44.43812" lon="4.51205">
        <ele>461.60000610352</ele>
        <time>2013-02-27T13:58:37.000Z</time>
      </trkpt>
      <trkpt lat="44.43812" lon="4.51207">
        <ele>462</ele>
        <time>2013-02-27T13:58:38.000Z</time>
      </trkpt>
      <trkpt lat="44.43814" lon="4.51208">
        <ele>462</ele>
        <time>2013-02-27T13:58:39.000Z</time>
      </trkpt>
      <trkpt lat="44.43814" lon="4.5121">
        <ele>462.60000610352</ele>
        <time>2013-02-27T13:58:40.000Z</time>
      </trkpt>
      <trkpt lat="44.43815" lon="4.5121">
        <ele>462.60000610352</ele>
        <time>2013-02-27T13:58:41.000Z</time>
      </trkpt>
      <trkpt lat="44.43816" lon="4.51211">
        <ele>463</ele>
        <time>2013-02-27T13:58:42.000Z</time>
      </trkpt>
      <trkpt lat="44.43816" lon="4.51212">
        <ele>462.60000610352</ele>
        <time>2013-02-27T13:58:43.000Z</time>
      </trkpt>
      <trkpt lat="44.43817" lon="4.51213">
        <ele>463</ele>
        <time>2013-02-27T13:58:44.000Z</time>
      </trkpt>
      <trkpt lat="44.43818" lon="4.51214">
        <ele>462</ele>
        <time>2013-02-27T13:58:45.000Z</time>
      </trkpt>
      <trkpt lat="44.4382" lon="4.51215">
        <ele>461</ele>
        <time>2013-02-27T13:58:46.000Z</time>
      </trkpt>
      <trkpt lat="44.4382" lon="4.51216">
        <ele>460.60000610352</ele>
        <time>2013-02-27T13:58:47.000Z</time>
      </trkpt>
      <trkpt lat="44.43821" lon="4.51218">
        <ele>460.60000610352</ele>
        <time>2013-02-27T13:58:48.000Z</time>
      </trkpt>
      <trkpt lat="44.43821" lon="4.5122">
        <ele>459.60000610352</ele>
        <time>2013-02-27T13:58:49.000Z</time>
      </trkpt>
      <trkpt lat="44.43822" lon="4.51221">
        <ele>458.60000610352</ele>
        <time>2013-02-27T13:58:50.000Z</time>
      </trkpt>
      <trkpt lat="44.43822" lon="4.51222">
        <ele>457.79998779297</ele>
        <time>2013-02-27T13:58:51.000Z</time>
      </trkpt>
      <trkpt lat="44.43823" lon="4.51224">
        <ele>457.79998779297</ele>
        <time>2013-02-27T13:58:52.000Z</time>
      </trkpt>
      <trkpt lat="44.43824" lon="4.51225">
        <ele>457.79998779297</ele>
        <time>2013-02-27T13:58:53.000Z</time>
      </trkpt>
      <trkpt lat="44.43824" lon="4.51226">
        <ele>457.20001220703</ele>
        <time>2013-02-27T13:58:54.000Z</time>
      </trkpt>
      <trkpt lat="44.43825" lon="4.51228">
        <ele>457.20001220703</ele>
        <time>2013-02-27T13:58:55.000Z</time>
      </trkpt>
      <trkpt lat="44.43826" lon="4.5123">
        <ele>457.79998779297</ele>
        <time>2013-02-27T13:58:56.000Z</time>
      </trkpt>
      <trkpt lat="44.43826" lon="4.51231">
        <ele>456.79998779297</ele>
        <time>2013-02-27T13:58:57.000Z</time>
      </trkpt>
      <trkpt lat="44.43827" lon="4.51233">
        <ele>456.20001220703</ele>
        <time>2013-02-27T13:58:58.000Z</time>
      </trkpt>
      <trkpt lat="44.43827" lon="4.51234">
        <ele>455.79998779297</ele>
        <time>2013-02-27T13:58:59.000Z</time>
      </trkpt>
      <trkpt lat="44.43829" lon="4.51236">
        <ele>455.39999389648</ele>
        <time>2013-02-27T13:59:00.000Z</time>
      </trkpt>
      <trkpt lat="44.43829" lon="4.51237">
        <ele>455.39999389648</ele>
        <time>2013-02-27T13:59:01.000Z</time>
      </trkpt>
      <trkpt lat="44.4383" lon="4.51239">
        <ele>454.79998779297</ele>
        <time>2013-02-27T13:59:02.000Z</time>
      </trkpt>
      <trkpt lat="44.43831" lon="4.51241">
        <ele>455.39999389648</ele>
        <time>2013-02-27T13:59:03.000Z</time>
      </trkpt>
      <trkpt lat="44.43832" lon="4.51243">
        <ele>456.20001220703</ele>
        <time>2013-02-27T13:59:04.000Z</time>
      </trkpt>
      <trkpt lat="44.43833" lon="4.51245">
        <ele>457.20001220703</ele>
        <time>2013-02-27T13:59:05.000Z</time>
      </trkpt>
      <trkpt lat="44.43833" lon="4.51247">
        <ele>456.79998779297</ele>
        <time>2013-02-27T13:59:06.000Z</time>
      </trkpt>
      <trkpt lat="44.43834" lon="4.51248">
        <ele>456.79998779297</ele>
        <time>2013-02-27T13:59:07.000Z</time>
      </trkpt>
      <trkpt lat="44.43834" lon="4.5125">
        <ele>456.20001220703</ele>
        <time>2013-02-27T13:59:08.000Z</time>
      </trkpt>
      <trkpt lat="44.43834" lon="4.51252">
        <ele>455.79998779297</ele>
        <time>2013-02-27T13:59:09.000Z</time>
      </trkpt>
      <trkpt lat="44.43834" lon="4.51253">
        <ele>455.79998779297</ele>
        <time>2013-02-27T13:59:10.000Z</time>
      </trkpt>
      <trkpt lat="44.43835" lon="4.51255">
        <ele>455.79998779297</ele>
        <time>2013-02-27T13:59:11.000Z</time>
      </trkpt>
      <trkpt lat="44.43835" lon="4.51257">
        <ele>455.79998779297</ele>
        <time>2013-02-27T13:59:12.000Z</time>
      </trkpt>
      <trkpt lat="44.43835" lon="4.51259">
        <ele>456.20001220703</ele>
        <time>2013-02-27T13:59:13.000Z</time>
      </trkpt>
      <trkpt lat="44.43836" lon="4.51261">
        <ele>456.20001220703</ele>
        <time>2013-02-27T13:59:14.000Z</time>
      </trkpt>
      <trkpt lat="44.43835" lon="4.51263">
        <ele>455.79998779297</ele>
        <time>2013-02-27T13:59:15.000Z</time>
      </trkpt>
      <trkpt lat="44.43835" lon="4.51265">
        <ele>455.39999389648</ele>
        <time>2013-02-27T13:59:16.000Z</time>
      </trkpt>
      <trkpt lat="44.43835" lon="4.51267">
        <ele>455.39999389648</ele>
        <time>2013-02-27T13:59:17.000Z</time>
      </trkpt>
      <trkpt lat="44.43836" lon="4.51269">
        <ele>455.39999389648</ele>
        <time>2013-02-27T13:59:18.000Z</time>
      </trkpt>
      <trkpt lat="44.43837" lon="4.51271">
        <ele>456.20001220703</ele>
        <time>2013-02-27T13:59:19.000Z</time>
      </trkpt>
      <trkpt lat="44.43837" lon="4.51273">
        <ele>457.79998779297</ele>
        <time>2013-02-27T13:59:20.000Z</time>
      </trkpt>
      <trkpt lat="44.43838" lon="4.51275">
        <ele>458.60000610352</ele>
        <time>2013-02-27T13:59:21.000Z</time>
      </trkpt>
      <trkpt lat="44.43838" lon="4.51277">
        <ele>459.20001220703</ele>
        <time>2013-02-27T13:59:22.000Z</time>
      </trkpt>
      <trkpt lat="44.43838" lon="4.51279">
        <ele>459.20001220703</ele>
        <time>2013-02-27T13:59:23.000Z</time>
      </trkpt>
      <trkpt lat="44.43838" lon="4.51281">
        <ele>459.20001220703</ele>
        <time>2013-02-27T13:59:24.000Z</time>
      </trkpt>
      <trkpt lat="44.43838" lon="4.51283">
        <ele>458.60000610352</ele>
        <time>2013-02-27T13:59:25.000Z</time>
      </trkpt>
      <trkpt lat="44.43838" lon="4.51285">
        <ele>458.20001220703</ele>
        <time>2013-02-27T13:59:26.000Z</time>
      </trkpt>
      <trkpt lat="44.43839" lon="4.51286">
        <ele>457.79998779297</ele>
        <time>2013-02-27T13:59:27.000Z</time>
      </trkpt>
      <trkpt lat="44.43839" lon="4.51288">
        <ele>457.20001220703</ele>
        <time>2013-02-27T13:59:28.000Z</time>
      </trkpt>
      <trkpt lat="44.43839" lon="4.51289">
        <ele>456.79998779297</ele>
        <time>2013-02-27T13:59:29.000Z</time>
      </trkpt>
      <trkpt lat="44.43839" lon="4.51291">
        <ele>456.79998779297</ele>
        <time>2013-02-27T13:59:30.000Z</time>
      </trkpt>
      <trkpt lat="44.43838" lon="4.51293">
        <ele>456.79998779297</ele>
        <time>2013-02-27T13:59:31.000Z</time>
      </trkpt>
      <trkpt lat="44.43838" lon="4.51295">
        <ele>456.20001220703</ele>
        <time>2013-02-27T13:59:32.000Z</time>
      </trkpt>
      <trkpt lat="44.43838" lon="4.51297">
        <ele>456.79998779297</ele>
        <time>2013-02-27T13:59:33.000Z</time>
      </trkpt>
      <trkpt lat="44.43838" lon="4.51298">
        <ele>456.79998779297</ele>
        <time>2013-02-27T13:59:34.000Z</time>
      </trkpt>
      <trkpt lat="44.43838" lon="4.513">
        <ele>456.20001220703</ele>
        <time>2013-02-27T13:59:35.000Z</time>
      </trkpt>
      <trkpt lat="44.43837" lon="4.51301">
        <ele>455.79998779297</ele>
        <time>2013-02-27T13:59:36.000Z</time>
      </trkpt>
      <trkpt lat="44.43837" lon="4.51303">
        <ele>455.79998779297</ele>
        <time>2013-02-27T13:59:37.000Z</time>
      </trkpt>
      <trkpt lat="44.43838" lon="4.51305">
        <ele>455.79998779297</ele>
        <time>2013-02-27T13:59:38.000Z</time>
      </trkpt>
      <trkpt lat="44.43837" lon="4.51307">
        <ele>455.79998779297</ele>
        <time>2013-02-27T13:59:39.000Z</time>
      </trkpt>
      <trkpt lat="44.43837" lon="4.51309">
        <ele>456.20001220703</ele>
        <time>2013-02-27T13:59:40.000Z</time>
      </trkpt>
      <trkpt lat="44.43837" lon="4.51311">
        <ele>456.20001220703</ele>
        <time>2013-02-27T13:59:41.000Z</time>
      </trkpt>
      <trkpt lat="44.43837" lon="4.51313">
        <ele>456.79998779297</ele>
        <time>2013-02-27T13:59:42.000Z</time>
      </trkpt>
      <trkpt lat="44.43837" lon="4.51314">
        <ele>457.20001220703</ele>
        <time>2013-02-27T13:59:43.000Z</time>
      </trkpt>
      <trkpt lat="44.43836" lon="4.51316">
        <ele>457.20001220703</ele>
        <time>2013-02-27T13:59:44.000Z</time>
      </trkpt>
      <trkpt lat="44.43836" lon="4.51318">
        <ele>456.79998779297</ele>
        <time>2013-02-27T13:59:45.000Z</time>
      </trkpt>
      <trkpt lat="44.43836" lon="4.5132">
        <ele>457.79998779297</ele>
        <time>2013-02-27T13:59:46.000Z</time>
      </trkpt>
      <trkpt lat="44.43836" lon="4.51321">
        <ele>457.79998779297</ele>
        <time>2013-02-27T13:59:47.000Z</time>
      </trkpt>
      <trkpt lat="44.43836" lon="4.51323">
        <ele>458.20001220703</ele>
        <time>2013-02-27T13:59:48.000Z</time>
      </trkpt>
      <trkpt lat="44.43837" lon="4.51324">
        <ele>458.20001220703</ele>
        <time>2013-02-27T13:59:49.000Z</time>
      </trkpt>
      <trkpt lat="44.43836" lon="4.51326">
        <ele>458.60000610352</ele>
        <time>2013-02-27T13:59:50.000Z</time>
      </trkpt>
      <trkpt lat="44.43836" lon="4.51328">
        <ele>458.60000610352</ele>
        <time>2013-02-27T13:59:51.000Z</time>
      </trkpt>
      <trkpt lat="44.43836" lon="4.51329">
        <ele>458.60000610352</ele>
        <time>2013-02-27T13:59:52.000Z</time>
      </trkpt>
      <trkpt lat="44.43836" lon="4.51331">
        <ele>458.60000610352</ele>
        <time>2013-02-27T13:59:53.000Z</time>
      </trkpt>
      <trkpt lat="44.43835" lon="4.51333">
        <ele>458.20001220703</ele>
        <time>2013-02-27T13:59:54.000Z</time>
      </trkpt>
      <trkpt lat="44.43835" lon="4.51335">
        <ele>458.20001220703</ele>
        <time>2013-02-27T13:59:55.000Z</time>
      </trkpt>
      <trkpt lat="44.43835" lon="4.51337">
        <ele>457.79998779297</ele>
        <time>2013-02-27T13:59:56.000Z</time>
      </trkpt>
      <trkpt lat="44.43835" lon="4.51338">
        <ele>457.79998779297</ele>
        <time>2013-02-27T13:59:57.000Z</time>
      </trkpt>
      <trkpt lat="44.43835" lon="4.5134">
        <ele>457.20001220703</ele>
        <time>2013-02-27T13:59:58.000Z</time>
      </trkpt>
      <trkpt lat="44.43835" lon="4.51342">
        <ele>457.20001220703</ele>
        <time>2013-02-27T13:59:59.000Z</time>
      </trkpt>
      <trkpt lat="44.43835" lon="4.51344">
        <ele>456.79998779297</ele>
        <time>2013-02-27T14:00:00.000Z</time>
      </trkpt>
      <trkpt lat="44.43835" lon="4.51346">
        <ele>457.20001220703</ele>
        <time>2013-02-27T14:00:01.000Z</time>
      </trkpt>
      <trkpt lat="44.43835" lon="4.51348">
        <ele>457.20001220703</ele>
        <time>2013-02-27T14:00:02.000Z</time>
      </trkpt>
      <trkpt lat="44.43836" lon="4.51349">
        <ele>457.20001220703</ele>
        <time>2013-02-27T14:00:03.000Z</time>
      </trkpt>
      <trkpt lat="44.43837" lon="4.51351">
        <ele>457.79998779297</ele>
        <time>2013-02-27T14:00:04.000Z</time>
      </trkpt>
      <trkpt lat="44.43837" lon="4.51352">
        <ele>458.20001220703</ele>
        <time>2013-02-27T14:00:05.000Z</time>
      </trkpt>
      <trkpt lat="44.43838" lon="4.51353">
        <ele>459.60000610352</ele>
        <time>2013-02-27T14:00:06.000Z</time>
      </trkpt>
      <trkpt lat="44.43839" lon="4.51355">
        <ele>460.20001220703</ele>
        <time>2013-02-27T14:00:07.000Z</time>
      </trkpt>
      <trkpt lat="44.4384" lon="4.51356">
        <ele>460.60000610352</ele>
        <time>2013-02-27T14:00:08.000Z</time>
      </trkpt>
      <trkpt lat="44.43841" lon="4.51357">
        <ele>461</ele>
        <time>2013-02-27T14:00:09.000Z</time>
      </trkpt>
      <trkpt lat="44.43841" lon="4.51359">
        <ele>461.60000610352</ele>
        <time>2013-02-27T14:00:10.000Z</time>
      </trkpt>
      <trkpt lat="44.43843" lon="4.5136">
        <ele>461</ele>
        <time>2013-02-27T14:00:11.000Z</time>
      </trkpt>
      <trkpt lat="44.43845" lon="4.51361">
        <ele>459.60000610352</ele>
        <time>2013-02-27T14:00:12.000Z</time>
      </trkpt>
      <trkpt lat="44.43846" lon="4.51362">
        <ele>459.20001220703</ele>
        <time>2013-02-27T14:00:13.000Z</time>
      </trkpt>
      <trkpt lat="44.43847" lon="4.51364">
        <ele>460.20001220703</ele>
        <time>2013-02-27T14:00:14.000Z</time>
      </trkpt>
      <trkpt lat="44.43848" lon="4.51365">
        <ele>461</ele>
        <time>2013-02-27T14:00:15.000Z</time>
      </trkpt>
      <trkpt lat="44.43849" lon="4.51366">
        <ele>462</ele>
        <time>2013-02-27T14:00:16.000Z</time>
      </trkpt>
      <trkpt lat="44.4385" lon="4.51368">
        <ele>462</ele>
        <time>2013-02-27T14:00:17.000Z</time>
      </trkpt>
      <trkpt lat="44.43851" lon="4.51369">
        <ele>462</ele>
        <time>2013-02-27T14:00:18.000Z</time>
      </trkpt>
      <trkpt lat="44.43852" lon="4.51371">
        <ele>462</ele>
        <time>2013-02-27T14:00:19.000Z</time>
      </trkpt>
      <trkpt lat="44.43852" lon="4.51372">
        <ele>463</ele>
        <time>2013-02-27T14:00:20.000Z</time>
      </trkpt>
      <trkpt lat="44.43853" lon="4.51374">
        <ele>464</ele>
        <time>2013-02-27T14:00:21.000Z</time>
      </trkpt>
      <trkpt lat="44.43854" lon="4.51376">
        <ele>464</ele>
        <time>2013-02-27T14:00:22.000Z</time>
      </trkpt>
      <trkpt lat="44.43855" lon="4.51378">
        <ele>464</ele>
        <time>2013-02-27T14:00:23.000Z</time>
      </trkpt>
      <trkpt lat="44.43856" lon="4.51379">
        <ele>464</ele>
        <time>2013-02-27T14:00:24.000Z</time>
      </trkpt>
      <trkpt lat="44.43857" lon="4.51381">
        <ele>464</ele>
        <time>2013-02-27T14:00:25.000Z</time>
      </trkpt>
      <trkpt lat="44.43858" lon="4.51383">
        <ele>463.39999389648</ele>
        <time>2013-02-27T14:00:26.000Z</time>
      </trkpt>
      <trkpt lat="44.43858" lon="4.51384">
        <ele>464</ele>
        <time>2013-02-27T14:00:27.000Z</time>
      </trkpt>
      <trkpt lat="44.43859" lon="4.51386">
        <ele>464</ele>
        <time>2013-02-27T14:00:28.000Z</time>
      </trkpt>
      <trkpt lat="44.4386" lon="4.51387">
        <ele>464</ele>
        <time>2013-02-27T14:00:29.000Z</time>
      </trkpt>
      <trkpt lat="44.4386" lon="4.51389">
        <ele>464</ele>
        <time>2013-02-27T14:00:30.000Z</time>
      </trkpt>
      <trkpt lat="44.4386" lon="4.51391">
        <ele>465</ele>
        <time>2013-02-27T14:00:31.000Z</time>
      </trkpt>
      <trkpt lat="44.43861" lon="4.51393">
        <ele>464.39999389648</ele>
        <time>2013-02-27T14:00:32.000Z</time>
      </trkpt>
      <trkpt lat="44.43861" lon="4.51394">
        <ele>463.39999389648</ele>
        <time>2013-02-27T14:00:33.000Z</time>
      </trkpt>
      <trkpt lat="44.43863" lon="4.51396">
        <ele>463.39999389648</ele>
        <time>2013-02-27T14:00:34.000Z</time>
      </trkpt>
      <trkpt lat="44.43864" lon="4.51397">
        <ele>463.39999389648</ele>
        <time>2013-02-27T14:00:35.000Z</time>
      </trkpt>
      <trkpt lat="44.43865" lon="4.51399">
        <ele>463.39999389648</ele>
        <time>2013-02-27T14:00:36.000Z</time>
      </trkpt>
      <trkpt lat="44.43866" lon="4.51401">
        <ele>464.39999389648</ele>
        <time>2013-02-27T14:00:37.000Z</time>
      </trkpt>
      <trkpt lat="44.43867" lon="4.51402">
        <ele>464</ele>
        <time>2013-02-27T14:00:38.000Z</time>
      </trkpt>
      <trkpt lat="44.43868" lon="4.51404">
        <ele>463.39999389648</ele>
        <time>2013-02-27T14:00:39.000Z</time>
      </trkpt>
      <trkpt lat="44.43869" lon="4.51405">
        <ele>463.39999389648</ele>
        <time>2013-02-27T14:00:40.000Z</time>
      </trkpt>
      <trkpt lat="44.4387" lon="4.51407">
        <ele>463.39999389648</ele>
        <time>2013-02-27T14:00:41.000Z</time>
      </trkpt>
      <trkpt lat="44.43871" lon="4.51408">
        <ele>463</ele>
        <time>2013-02-27T14:00:42.000Z</time>
      </trkpt>
      <trkpt lat="44.43872" lon="4.5141">
        <ele>462.60000610352</ele>
        <time>2013-02-27T14:00:43.000Z</time>
      </trkpt>
      <trkpt lat="44.43873" lon="4.51411">
        <ele>462</ele>
        <time>2013-02-27T14:00:44.000Z</time>
      </trkpt>
      <trkpt lat="44.43873" lon="4.51413">
        <ele>461</ele>
        <time>2013-02-27T14:00:45.000Z</time>
      </trkpt>
      <trkpt lat="44.43873" lon="4.51414">
        <ele>460.20001220703</ele>
        <time>2013-02-27T14:00:46.000Z</time>
      </trkpt>
      <trkpt lat="44.43874" lon="4.51416">
        <ele>460.20001220703</ele>
        <time>2013-02-27T14:00:47.000Z</time>
      </trkpt>
      <trkpt lat="44.43875" lon="4.51418">
        <ele>460.20001220703</ele>
        <time>2013-02-27T14:00:48.000Z</time>
      </trkpt>
      <trkpt lat="44.43876" lon="4.51419">
        <ele>459.60000610352</ele>
        <time>2013-02-27T14:00:49.000Z</time>
      </trkpt>
      <trkpt lat="44.43876" lon="4.51421">
        <ele>458.60000610352</ele>
        <time>2013-02-27T14:00:50.000Z</time>
      </trkpt>
      <trkpt lat="44.43876" lon="4.51422">
        <ele>458.60000610352</ele>
        <time>2013-02-27T14:00:51.000Z</time>
      </trkpt>
      <trkpt lat="44.43877" lon="4.51424">
        <ele>458.20001220703</ele>
        <time>2013-02-27T14:00:52.000Z</time>
      </trkpt>
      <trkpt lat="44.43877" lon="4.51425">
        <ele>459.20001220703</ele>
        <time>2013-02-27T14:00:53.000Z</time>
      </trkpt>
      <trkpt lat="44.43877" lon="4.51427">
        <ele>459.60000610352</ele>
        <time>2013-02-27T14:00:54.000Z</time>
      </trkpt>
      <trkpt lat="44.43878" lon="4.51428">
        <ele>459.20001220703</ele>
        <time>2013-02-27T14:00:55.000Z</time>
      </trkpt>
      <trkpt lat="44.43879" lon="4.5143">
        <ele>459.60000610352</ele>
        <time>2013-02-27T14:00:56.000Z</time>
      </trkpt>
      <trkpt lat="44.4388" lon="4.51432">
        <ele>460.20001220703</ele>
        <time>2013-02-27T14:00:57.000Z</time>
      </trkpt>
      <trkpt lat="44.4388" lon="4.51434">
        <ele>460.20001220703</ele>
        <time>2013-02-27T14:00:58.000Z</time>
      </trkpt>
      <trkpt lat="44.4388" lon="4.51435">
        <ele>459.60000610352</ele>
        <time>2013-02-27T14:00:59.000Z</time>
      </trkpt>
      <trkpt lat="44.43881" lon="4.51437">
        <ele>459.60000610352</ele>
        <time>2013-02-27T14:01:00.000Z</time>
      </trkpt>
      <trkpt lat="44.43882" lon="4.51439">
        <ele>460.20001220703</ele>
        <time>2013-02-27T14:01:01.000Z</time>
      </trkpt>
      <trkpt lat="44.43882" lon="4.51441">
        <ele>460.60000610352</ele>
        <time>2013-02-27T14:01:02.000Z</time>
      </trkpt>
      <trkpt lat="44.43883" lon="4.51443">
        <ele>460.20001220703</ele>
        <time>2013-02-27T14:01:03.000Z</time>
      </trkpt>
      <trkpt lat="44.43884" lon="4.51444">
        <ele>460.20001220703</ele>
        <time>2013-02-27T14:01:04.000Z</time>
      </trkpt>
      <trkpt lat="44.43884" lon="4.51446">
        <ele>459.60000610352</ele>
        <time>2013-02-27T14:01:05.000Z</time>
      </trkpt>
      <trkpt lat="44.43885" lon="4.51448">
        <ele>459.60000610352</ele>
        <time>2013-02-27T14:01:06.000Z</time>
      </trkpt>
      <trkpt lat="44.43886" lon="4.51449">
        <ele>459.60000610352</ele>
        <time>2013-02-27T14:01:07.000Z</time>
      </trkpt>
      <trkpt lat="44.43887" lon="4.51451">
        <ele>459.60000610352</ele>
        <time>2013-02-27T14:01:08.000Z</time>
      </trkpt>
      <trkpt lat="44.43887" lon="4.51452">
        <ele>459.60000610352</ele>
        <time>2013-02-27T14:01:09.000Z</time>
      </trkpt>
      <trkpt lat="44.43888" lon="4.51454">
        <ele>459.60000610352</ele>
        <time>2013-02-27T14:01:10.000Z</time>
      </trkpt>
      <trkpt lat="44.43888" lon="4.51456">
        <ele>459.60000610352</ele>
        <time>2013-02-27T14:01:11.000Z</time>
      </trkpt>
      <trkpt lat="44.43889" lon="4.51457">
        <ele>459.20001220703</ele>
        <time>2013-02-27T14:01:12.000Z</time>
      </trkpt>
      <trkpt lat="44.43889" lon="4.51459">
        <ele>459.20001220703</ele>
        <time>2013-02-27T14:01:13.000Z</time>
      </trkpt>
      <trkpt lat="44.4389" lon="4.51461">
        <ele>459.60000610352</ele>
        <time>2013-02-27T14:01:14.000Z</time>
      </trkpt>
      <trkpt lat="44.4389" lon="4.51463">
        <ele>459.60000610352</ele>
        <time>2013-02-27T14:01:15.000Z</time>
      </trkpt>
      <trkpt lat="44.43891" lon="4.51465">
        <ele>459.60000610352</ele>
        <time>2013-02-27T14:01:16.000Z</time>
      </trkpt>
      <trkpt lat="44.43891" lon="4.51467">
        <ele>460.20001220703</ele>
        <time>2013-02-27T14:01:17.000Z</time>
      </trkpt>
      <trkpt lat="44.43892" lon="4.51469">
        <ele>460.60000610352</ele>
        <time>2013-02-27T14:01:18.000Z</time>
      </trkpt>
      <trkpt lat="44.43892" lon="4.51471">
        <ele>461</ele>
        <time>2013-02-27T14:01:19.000Z</time>
      </trkpt>
      <trkpt lat="44.43892" lon="4.51473">
        <ele>462</ele>
        <time>2013-02-27T14:01:20.000Z</time>
      </trkpt>
      <trkpt lat="44.43892" lon="4.51474">
        <ele>461.60000610352</ele>
        <time>2013-02-27T14:01:21.000Z</time>
      </trkpt>
      <trkpt lat="44.43892" lon="4.51475">
        <ele>461</ele>
        <time>2013-02-27T14:01:22.000Z</time>
      </trkpt>
      <trkpt lat="44.43892" lon="4.51477">
        <ele>461</ele>
        <time>2013-02-27T14:01:23.000Z</time>
      </trkpt>
      <trkpt lat="44.43892" lon="4.51478">
        <ele>460.60000610352</ele>
        <time>2013-02-27T14:01:24.000Z</time>
      </trkpt>
      <trkpt lat="44.43892" lon="4.5148">
        <ele>460.60000610352</ele>
        <time>2013-02-27T14:01:25.000Z</time>
      </trkpt>
      <trkpt lat="44.43891" lon="4.51483">
        <ele>461</ele>
        <time>2013-02-27T14:01:26.000Z</time>
      </trkpt>
      <trkpt lat="44.43892" lon="4.51484">
        <ele>461.60000610352</ele>
        <time>2013-02-27T14:01:27.000Z</time>
      </trkpt>
      <trkpt lat="44.43891" lon="4.51486">
        <ele>461</ele>
        <time>2013-02-27T14:01:28.000Z</time>
      </trkpt>
      <trkpt lat="44.43891" lon="4.51488">
        <ele>461</ele>
        <time>2013-02-27T14:01:29.000Z</time>
      </trkpt>
      <trkpt lat="44.4389" lon="4.51489">
        <ele>460.60000610352</ele>
        <time>2013-02-27T14:01:30.000Z</time>
      </trkpt>
      <trkpt lat="44.4389" lon="4.51491">
        <ele>460.20001220703</ele>
        <time>2013-02-27T14:01:31.000Z</time>
      </trkpt>
      <trkpt lat="44.43889" lon="4.51492">
        <ele>460.20001220703</ele>
        <time>2013-02-27T14:01:32.000Z</time>
      </trkpt>
      <trkpt lat="44.43888" lon="4.51493">
        <ele>459.60000610352</ele>
        <time>2013-02-27T14:01:33.000Z</time>
      </trkpt>
      <trkpt lat="44.43886" lon="4.51494">
        <ele>458.20001220703</ele>
        <time>2013-02-27T14:01:34.000Z</time>
      </trkpt>
      <trkpt lat="44.43886" lon="4.51496">
        <ele>458.60000610352</ele>
        <time>2013-02-27T14:01:35.000Z</time>
      </trkpt>
      <trkpt lat="44.43886" lon="4.51498">
        <ele>458.60000610352</ele>
        <time>2013-02-27T14:01:36.000Z</time>
      </trkpt>
      <trkpt lat="44.43885" lon="4.51499">
        <ele>458.60000610352</ele>
        <time>2013-02-27T14:01:37.000Z</time>
      </trkpt>
      <trkpt lat="44.43884" lon="4.51501">
        <ele>459.20001220703</ele>
        <time>2013-02-27T14:01:38.000Z</time>
      </trkpt>
      <trkpt lat="44.43884" lon="4.51503">
        <ele>459.60000610352</ele>
        <time>2013-02-27T14:01:39.000Z</time>
      </trkpt>
      <trkpt lat="44.43883" lon="4.51504">
        <ele>459.20001220703</ele>
        <time>2013-02-27T14:01:40.000Z</time>
      </trkpt>
      <trkpt lat="44.43882" lon="4.51505">
        <ele>458.60000610352</ele>
        <time>2013-02-27T14:01:41.000Z</time>
      </trkpt>
      <trkpt lat="44.4388" lon="4.51506">
        <ele>458.60000610352</ele>
        <time>2013-02-27T14:01:42.000Z</time>
      </trkpt>
      <trkpt lat="44.4388" lon="4.51508">
        <ele>458.60000610352</ele>
        <time>2013-02-27T14:01:43.000Z</time>
      </trkpt>
      <trkpt lat="44.43878" lon="4.51509">
        <ele>458.20001220703</ele>
        <time>2013-02-27T14:01:44.000Z</time>
      </trkpt>
      <trkpt lat="44.43877" lon="4.51511">
        <ele>458.20001220703</ele>
        <time>2013-02-27T14:01:45.000Z</time>
      </trkpt>
      <trkpt lat="44.43876" lon="4.51511">
        <ele>457.79998779297</ele>
        <time>2013-02-27T14:01:46.000Z</time>
      </trkpt>
      <trkpt lat="44.43875" lon="4.51512">
        <ele>457.20001220703</ele>
        <time>2013-02-27T14:01:47.000Z</time>
      </trkpt>
      <trkpt lat="44.43874" lon="4.51513">
        <ele>457.20001220703</ele>
        <time>2013-02-27T14:01:48.000Z</time>
      </trkpt>
      <trkpt lat="44.43872" lon="4.51514">
        <ele>456.79998779297</ele>
        <time>2013-02-27T14:01:49.000Z</time>
      </trkpt>
      <trkpt lat="44.43871" lon="4.51515">
        <ele>456.79998779297</ele>
        <time>2013-02-27T14:01:50.000Z</time>
      </trkpt>
      <trkpt lat="44.4387" lon="4.51516">
        <ele>456.79998779297</ele>
        <time>2013-02-27T14:01:51.000Z</time>
      </trkpt>
      <trkpt lat="44.43869" lon="4.51517">
        <ele>457.79998779297</ele>
        <time>2013-02-27T14:01:52.000Z</time>
      </trkpt>
      <trkpt lat="44.43867" lon="4.51518">
        <ele>457.79998779297</ele>
        <time>2013-02-27T14:01:53.000Z</time>
      </trkpt>
      <trkpt lat="44.43866" lon="4.51519">
        <ele>457.79998779297</ele>
        <time>2013-02-27T14:01:54.000Z</time>
      </trkpt>
      <trkpt lat="44.43865" lon="4.51519">
        <ele>457.20001220703</ele>
        <time>2013-02-27T14:01:55.000Z</time>
      </trkpt>
      <trkpt lat="44.43864" lon="4.5152">
        <ele>457.20001220703</ele>
        <time>2013-02-27T14:01:56.000Z</time>
      </trkpt>
      <trkpt lat="44.43863" lon="4.51521">
        <ele>457.20001220703</ele>
        <time>2013-02-27T14:01:57.000Z</time>
      </trkpt>
      <trkpt lat="44.43861" lon="4.51521">
        <ele>456.79998779297</ele>
        <time>2013-02-27T14:01:58.000Z</time>
      </trkpt>
      <trkpt lat="44.4386" lon="4.51521">
        <ele>456.20001220703</ele>
        <time>2013-02-27T14:01:59.000Z</time>
      </trkpt>
      <trkpt lat="44.43859" lon="4.51521">
        <ele>456.20001220703</ele>
        <time>2013-02-27T14:02:00.000Z</time>
      </trkpt>
      <trkpt lat="44.43857" lon="4.51522">
        <ele>456.20001220703</ele>
        <time>2013-02-27T14:02:01.000Z</time>
      </trkpt>
      <trkpt lat="44.43855" lon="4.51523">
        <ele>456.20001220703</ele>
        <time>2013-02-27T14:02:02.000Z</time>
      </trkpt>
      <trkpt lat="44.43854" lon="4.51523">
        <ele>456.20001220703</ele>
        <time>2013-02-27T14:02:03.000Z</time>
      </trkpt>
      <trkpt lat="44.43853" lon="4.51524">
        <ele>456.20001220703</ele>
        <time>2013-02-27T14:02:04.000Z</time>
      </trkpt>
      <trkpt lat="44.43852" lon="4.51524">
        <ele>455.79998779297</ele>
        <time>2013-02-27T14:02:05.000Z</time>
      </trkpt>
      <trkpt lat="44.43851" lon="4.51524">
        <ele>455.79998779297</ele>
        <time>2013-02-27T14:02:06.000Z</time>
      </trkpt>
      <trkpt lat="44.4385" lon="4.51524">
        <ele>456.79998779297</ele>
        <time>2013-02-27T14:02:07.000Z</time>
      </trkpt>
      <trkpt lat="44.43849" lon="4.51524">
        <ele>457.20001220703</ele>
        <time>2013-02-27T14:02:08.000Z</time>
      </trkpt>
      <trkpt lat="44.43848" lon="4.51524">
        <ele>457.20001220703</ele>
        <time>2013-02-27T14:02:09.000Z</time>
      </trkpt>
      <trkpt lat="44.43846" lon="4.51524">
        <ele>457.20001220703</ele>
        <time>2013-02-27T14:02:10.000Z</time>
      </trkpt>
      <trkpt lat="44.43844" lon="4.51525">
        <ele>457.79998779297</ele>
        <time>2013-02-27T14:02:11.000Z</time>
      </trkpt>
      <trkpt lat="44.43842" lon="4.51525">
        <ele>457.79998779297</ele>
        <time>2013-02-27T14:02:12.000Z</time>
      </trkpt>
      <trkpt lat="44.43841" lon="4.51525">
        <ele>458.20001220703</ele>
        <time>2013-02-27T14:02:13.000Z</time>
      </trkpt>
      <trkpt lat="44.4384" lon="4.51525">
        <ele>458.20001220703</ele>
        <time>2013-02-27T14:02:14.000Z</time>
      </trkpt>
      <trkpt lat="44.43838" lon="4.51525">
        <ele>458.60000610352</ele>
        <time>2013-02-27T14:02:15.000Z</time>
      </trkpt>
      <trkpt lat="44.43837" lon="4.51525">
        <ele>458.20001220703</ele>
        <time>2013-02-27T14:02:16.000Z</time>
      </trkpt>
      <trkpt lat="44.43835" lon="4.51526">
        <ele>458.20001220703</ele>
        <time>2013-02-27T14:02:17.000Z</time>
      </trkpt>
      <trkpt lat="44.43833" lon="4.51526">
        <ele>458.20001220703</ele>
        <time>2013-02-27T14:02:18.000Z</time>
      </trkpt>
      <trkpt lat="44.43832" lon="4.51526">
        <ele>458.20001220703</ele>
        <time>2013-02-27T14:02:19.000Z</time>
      </trkpt>
      <trkpt lat="44.43831" lon="4.51526">
        <ele>458.20001220703</ele>
        <time>2013-02-27T14:02:20.000Z</time>
      </trkpt>
      <trkpt lat="44.4383" lon="4.51525">
        <ele>458.60000610352</ele>
        <time>2013-02-27T14:02:21.000Z</time>
      </trkpt>
      <trkpt lat="44.43828" lon="4.51526">
        <ele>458.60000610352</ele>
        <time>2013-02-27T14:02:22.000Z</time>
      </trkpt>
      <trkpt lat="44.43827" lon="4.51525">
        <ele>459.60000610352</ele>
        <time>2013-02-27T14:02:23.000Z</time>
      </trkpt>
      <trkpt lat="44.43826" lon="4.51525">
        <ele>459.20001220703</ele>
        <time>2013-02-27T14:02:24.000Z</time>
      </trkpt>
      <trkpt lat="44.43825" lon="4.51525">
        <ele>459.20001220703</ele>
        <time>2013-02-27T14:02:25.000Z</time>
      </trkpt>
      <trkpt lat="44.43824" lon="4.51525">
        <ele>459.20001220703</ele>
        <time>2013-02-27T14:02:26.000Z</time>
      </trkpt>
      <trkpt lat="44.43823" lon="4.51524">
        <ele>459.20001220703</ele>
        <time>2013-02-27T14:02:27.000Z</time>
      </trkpt>
      <trkpt lat="44.43821" lon="4.51524">
        <ele>459.20001220703</ele>
        <time>2013-02-27T14:02:28.000Z</time>
      </trkpt>
      <trkpt lat="44.4382" lon="4.51523">
        <ele>459.20001220703</ele>
        <time>2013-02-27T14:02:29.000Z</time>
      </trkpt>
      <trkpt lat="44.43819" lon="4.51523">
        <ele>459.20001220703</ele>
        <time>2013-02-27T14:02:30.000Z</time>
      </trkpt>
      <trkpt lat="44.43818" lon="4.51523">
        <ele>459.60000610352</ele>
        <time>2013-02-27T14:02:31.000Z</time>
      </trkpt>
      <trkpt lat="44.43817" lon="4.51522">
        <ele>459.20001220703</ele>
        <time>2013-02-27T14:02:32.000Z</time>
      </trkpt>
      <trkpt lat="44.43815" lon="4.51523">
        <ele>459.20001220703</ele>
        <time>2013-02-27T14:02:33.000Z</time>
      </trkpt>
      <trkpt lat="44.43814" lon="4.51523">
        <ele>459.20001220703</ele>
        <time>2013-02-27T14:02:34.000Z</time>
      </trkpt>
      <trkpt lat="44.43813" lon="4.51522">
        <ele>459.20001220703</ele>
        <time>2013-02-27T14:02:35.000Z</time>
      </trkpt>
      <trkpt lat="44.43812" lon="4.51522">
        <ele>459.20001220703</ele>
        <time>2013-02-27T14:02:36.000Z</time>
      </trkpt>
      <trkpt lat="44.43811" lon="4.51522">
        <ele>459.20001220703</ele>
        <time>2013-02-27T14:02:37.000Z</time>
      </trkpt>
      <trkpt lat="44.4381" lon="4.51522">
        <ele>459.20001220703</ele>
        <time>2013-02-27T14:02:38.000Z</time>
      </trkpt>
      <trkpt lat="44.43809" lon="4.51521">
        <ele>458.60000610352</ele>
        <time>2013-02-27T14:02:39.000Z</time>
      </trkpt>
      <trkpt lat="44.43808" lon="4.51521">
        <ele>458.60000610352</ele>
        <time>2013-02-27T14:02:40.000Z</time>
      </trkpt>
      <trkpt lat="44.43807" lon="4.5152">
        <ele>458.60000610352</ele>
        <time>2013-02-27T14:02:41.000Z</time>
      </trkpt>
      <trkpt lat="44.43806" lon="4.5152">
        <ele>458.60000610352</ele>
        <time>2013-02-27T14:02:42.000Z</time>
      </trkpt>
      <trkpt lat="44.43805" lon="4.51519">
        <ele>458.60000610352</ele>
        <time>2013-02-27T14:02:43.000Z</time>
      </trkpt>
      <trkpt lat="44.43804" lon="4.51518">
        <ele>459.20001220703</ele>
        <time>2013-02-27T14:02:44.000Z</time>
      </trkpt>
      <trkpt lat="44.43803" lon="4.51518">
        <ele>459.20001220703</ele>
        <time>2013-02-27T14:02:45.000Z</time>
      </trkpt>
      <trkpt lat="44.43802" lon="4.51517">
        <ele>458.60000610352</ele>
        <time>2013-02-27T14:02:46.000Z</time>
      </trkpt>
      <trkpt lat="44.43801" lon="4.51516">
        <ele>458.60000610352</ele>
        <time>2013-02-27T14:02:47.000Z</time>
      </trkpt>
      <trkpt lat="44.438" lon="4.51515">
        <ele>458.20001220703</ele>
        <time>2013-02-27T14:02:48.000Z</time>
      </trkpt>
      <trkpt lat="44.43799" lon="4.51514">
        <ele>458.20001220703</ele>
        <time>2013-02-27T14:02:49.000Z</time>
      </trkpt>
      <trkpt lat="44.43798" lon="4.51513">
        <ele>458.20001220703</ele>
        <time>2013-02-27T14:02:50.000Z</time>
      </trkpt>
      <trkpt lat="44.43797" lon="4.51513">
        <ele>457.79998779297</ele>
        <time>2013-02-27T14:02:51.000Z</time>
      </trkpt>
      <trkpt lat="44.43796" lon="4.51512">
        <ele>457.79998779297</ele>
        <time>2013-02-27T14:02:52.000Z</time>
      </trkpt>
      <trkpt lat="44.43794" lon="4.51511">
        <ele>458.20001220703</ele>
        <time>2013-02-27T14:02:53.000Z</time>
      </trkpt>
      <trkpt lat="44.43793" lon="4.51511">
        <ele>458.20001220703</ele>
        <time>2013-02-27T14:02:54.000Z</time>
      </trkpt>
      <trkpt lat="44.43792" lon="4.5151">
        <ele>458.20001220703</ele>
        <time>2013-02-27T14:02:55.000Z</time>
      </trkpt>
      <trkpt lat="44.43791" lon="4.5151">
        <ele>458.20001220703</ele>
        <time>2013-02-27T14:02:56.000Z</time>
      </trkpt>
      <trkpt lat="44.43789" lon="4.51509">
        <ele>458.20001220703</ele>
        <time>2013-02-27T14:02:57.000Z</time>
      </trkpt>
      <trkpt lat="44.43789" lon="4.51509">
        <ele>458.20001220703</ele>
        <time>2013-02-27T14:02:58.000Z</time>
      </trkpt>
      <trkpt lat="44.43788" lon="4.51508">
        <ele>458.20001220703</ele>
        <time>2013-02-27T14:02:59.000Z</time>
      </trkpt>
      <trkpt lat="44.43787" lon="4.51508">
        <ele>457.79998779297</ele>
        <time>2013-02-27T14:03:00.000Z</time>
      </trkpt>
      <trkpt lat="44.43785" lon="4.51507">
        <ele>458.20001220703</ele>
        <time>2013-02-27T14:03:01.000Z</time>
      </trkpt>
      <trkpt lat="44.43784" lon="4.51507">
        <ele>458.20001220703</ele>
        <time>2013-02-27T14:03:02.000Z</time>
      </trkpt>
      <trkpt lat="44.43782" lon="4.51506">
        <ele>458.20001220703</ele>
        <time>2013-02-27T14:03:03.000Z</time>
      </trkpt>
      <trkpt lat="44.43781" lon="4.51506">
        <ele>458.20001220703</ele>
        <time>2013-02-27T14:03:04.000Z</time>
      </trkpt>
      <trkpt lat="44.4378" lon="4.51505">
        <ele>458.20001220703</ele>
        <time>2013-02-27T14:03:05.000Z</time>
      </trkpt>
      <trkpt lat="44.43778" lon="4.51505">
        <ele>457.79998779297</ele>
        <time>2013-02-27T14:03:06.000Z</time>
      </trkpt>
      <trkpt lat="44.43776" lon="4.51505">
        <ele>457.79998779297</ele>
        <time>2013-02-27T14:03:07.000Z</time>
      </trkpt>
      <trkpt lat="44.43775" lon="4.51504">
        <ele>457.20001220703</ele>
        <time>2013-02-27T14:03:08.000Z</time>
      </trkpt>
      <trkpt lat="44.43773" lon="4.51504">
        <ele>457.20001220703</ele>
        <time>2013-02-27T14:03:09.000Z</time>
      </trkpt>
      <trkpt lat="44.43772" lon="4.51503">
        <ele>456.79998779297</ele>
        <time>2013-02-27T14:03:10.000Z</time>
      </trkpt>
      <trkpt lat="44.4377" lon="4.51503">
        <ele>456.79998779297</ele>
        <time>2013-02-27T14:03:11.000Z</time>
      </trkpt>
      <trkpt lat="44.43769" lon="4.51502">
        <ele>456.20001220703</ele>
        <time>2013-02-27T14:03:12.000Z</time>
      </trkpt>
      <trkpt lat="44.43768" lon="4.51502">
        <ele>456.20001220703</ele>
        <time>2013-02-27T14:03:13.000Z</time>
      </trkpt>
      <trkpt lat="44.43767" lon="4.51501">
        <ele>455.79998779297</ele>
        <time>2013-02-27T14:03:14.000Z</time>
      </trkpt>
      <trkpt lat="44.43766" lon="4.51501">
        <ele>455.79998779297</ele>
        <time>2013-02-27T14:03:15.000Z</time>
      </trkpt>
      <trkpt lat="44.43765" lon="4.515">
        <ele>455.39999389648</ele>
        <time>2013-02-27T14:03:16.000Z</time>
      </trkpt>
      <trkpt lat="44.43763" lon="4.51499">
        <ele>454.79998779297</ele>
        <time>2013-02-27T14:03:17.000Z</time>
      </trkpt>
      <trkpt lat="44.43762" lon="4.51499">
        <ele>454.39999389648</ele>
        <time>2013-02-27T14:03:18.000Z</time>
      </trkpt>
      <trkpt lat="44.43761" lon="4.51498">
        <ele>454.39999389648</ele>
        <time>2013-02-27T14:03:19.000Z</time>
      </trkpt>
      <trkpt lat="44.43759" lon="4.51497">
        <ele>453.79998779297</ele>
        <time>2013-02-27T14:03:20.000Z</time>
      </trkpt>
      <trkpt lat="44.43758" lon="4.51496">
        <ele>453.79998779297</ele>
        <time>2013-02-27T14:03:21.000Z</time>
      </trkpt>
      <trkpt lat="44.43757" lon="4.51496">
        <ele>453</ele>
        <time>2013-02-27T14:03:22.000Z</time>
      </trkpt>
      <trkpt lat="44.43756" lon="4.51495">
        <ele>453</ele>
        <time>2013-02-27T14:03:23.000Z</time>
      </trkpt>
      <trkpt lat="44.43755" lon="4.51494">
        <ele>452.39999389648</ele>
        <time>2013-02-27T14:03:24.000Z</time>
      </trkpt>
      <trkpt lat="44.43754" lon="4.51494">
        <ele>452.39999389648</ele>
        <time>2013-02-27T14:03:25.000Z</time>
      </trkpt>
      <trkpt lat="44.43753" lon="4.51492">
        <ele>452.39999389648</ele>
        <time>2013-02-27T14:03:26.000Z</time>
      </trkpt>
      <trkpt lat="44.43752" lon="4.51491">
        <ele>452</ele>
        <time>2013-02-27T14:03:27.000Z</time>
      </trkpt>
      <trkpt lat="44.4375" lon="4.51491">
        <ele>452</ele>
        <time>2013-02-27T14:03:28.000Z</time>
      </trkpt>
      <trkpt lat="44.43749" lon="4.5149">
        <ele>452</ele>
        <time>2013-02-27T14:03:29.000Z</time>
      </trkpt>
      <trkpt lat="44.43748" lon="4.51489">
        <ele>452</ele>
        <time>2013-02-27T14:03:30.000Z</time>
      </trkpt>
      <trkpt lat="44.43747" lon="4.51488">
        <ele>452</ele>
        <time>2013-02-27T14:03:31.000Z</time>
      </trkpt>
      <trkpt lat="44.43746" lon="4.51487">
        <ele>452</ele>
        <time>2013-02-27T14:03:32.000Z</time>
      </trkpt>
      <trkpt lat="44.43745" lon="4.51486">
        <ele>452</ele>
        <time>2013-02-27T14:03:33.000Z</time>
      </trkpt>
      <trkpt lat="44.43744" lon="4.51485">
        <ele>452</ele>
        <time>2013-02-27T14:03:34.000Z</time>
      </trkpt>
      <trkpt lat="44.43742" lon="4.51484">
        <ele>452</ele>
        <time>2013-02-27T14:03:35.000Z</time>
      </trkpt>
      <trkpt lat="44.43741" lon="4.51483">
        <ele>452</ele>
        <time>2013-02-27T14:03:36.000Z</time>
      </trkpt>
      <trkpt lat="44.4374" lon="4.51483">
        <ele>452</ele>
        <time>2013-02-27T14:03:37.000Z</time>
      </trkpt>
      <trkpt lat="44.43738" lon="4.51482">
        <ele>452</ele>
        <time>2013-02-27T14:03:38.000Z</time>
      </trkpt>
      <trkpt lat="44.43737" lon="4.51481">
        <ele>452</ele>
        <time>2013-02-27T14:03:39.000Z</time>
      </trkpt>
      <trkpt lat="44.43736" lon="4.51481">
        <ele>452</ele>
        <time>2013-02-27T14:03:40.000Z</time>
      </trkpt>
      <trkpt lat="44.43734" lon="4.5148">
        <ele>451.39999389648</ele>
        <time>2013-02-27T14:03:41.000Z</time>
      </trkpt>
      <trkpt lat="44.43733" lon="4.51479">
        <ele>452</ele>
        <time>2013-02-27T14:03:42.000Z</time>
      </trkpt>
      <trkpt lat="44.43732" lon="4.51477">
        <ele>452</ele>
        <time>2013-02-27T14:03:43.000Z</time>
      </trkpt>
      <trkpt lat="44.43731" lon="4.51477">
        <ele>452</ele>
        <time>2013-02-27T14:03:44.000Z</time>
      </trkpt>
      <trkpt lat="44.4373" lon="4.51475">
        <ele>452</ele>
        <time>2013-02-27T14:03:45.000Z</time>
      </trkpt>
      <trkpt lat="44.43729" lon="4.51475">
        <ele>452</ele>
        <time>2013-02-27T14:03:46.000Z</time>
      </trkpt>
      <trkpt lat="44.43728" lon="4.51474">
        <ele>452</ele>
        <time>2013-02-27T14:03:47.000Z</time>
      </trkpt>
      <trkpt lat="44.43727" lon="4.51473">
        <ele>452</ele>
        <time>2013-02-27T14:03:48.000Z</time>
      </trkpt>
      <trkpt lat="44.43726" lon="4.51472">
        <ele>451.39999389648</ele>
        <time>2013-02-27T14:03:49.000Z</time>
      </trkpt>
      <trkpt lat="44.43725" lon="4.51472">
        <ele>451.39999389648</ele>
        <time>2013-02-27T14:03:50.000Z</time>
      </trkpt>
      <trkpt lat="44.43723" lon="4.51471">
        <ele>451.39999389648</ele>
        <time>2013-02-27T14:03:51.000Z</time>
      </trkpt>
      <trkpt lat="44.43722" lon="4.51471">
        <ele>450.60000610352</ele>
        <time>2013-02-27T14:03:52.000Z</time>
      </trkpt>
      <trkpt lat="44.43721" lon="4.5147">
        <ele>450.60000610352</ele>
        <time>2013-02-27T14:03:53.000Z</time>
      </trkpt>
      <trkpt lat="44.4372" lon="4.51469">
        <ele>450.60000610352</ele>
        <time>2013-02-27T14:03:54.000Z</time>
      </trkpt>
      <trkpt lat="44.43719" lon="4.51468">
        <ele>451</ele>
        <time>2013-02-27T14:03:55.000Z</time>
      </trkpt>
      <trkpt lat="44.43718" lon="4.51467">
        <ele>450.60000610352</ele>
        <time>2013-02-27T14:03:56.000Z</time>
      </trkpt>
      <trkpt lat="44.43717" lon="4.51467">
        <ele>450.60000610352</ele>
        <time>2013-02-27T14:03:57.000Z</time>
      </trkpt>
      <trkpt lat="44.43715" lon="4.51465">
        <ele>452</ele>
        <time>2013-02-27T14:03:58.000Z</time>
      </trkpt>
      <trkpt lat="44.43715" lon="4.51464">
        <ele>451.39999389648</ele>
        <time>2013-02-27T14:03:59.000Z</time>
      </trkpt>
      <trkpt lat="44.43713" lon="4.51464">
        <ele>451</ele>
        <time>2013-02-27T14:04:00.000Z</time>
      </trkpt>
      <trkpt lat="44.43712" lon="4.51463">
        <ele>450.60000610352</ele>
        <time>2013-02-27T14:04:01.000Z</time>
      </trkpt>
      <trkpt lat="44.43711" lon="4.51463">
        <ele>450</ele>
        <time>2013-02-27T14:04:02.000Z</time>
      </trkpt>
      <trkpt lat="44.43709" lon="4.51463">
        <ele>449</ele>
        <time>2013-02-27T14:04:03.000Z</time>
      </trkpt>
      <trkpt lat="44.43708" lon="4.51462">
        <ele>448.60000610352</ele>
        <time>2013-02-27T14:04:04.000Z</time>
      </trkpt>
      <trkpt lat="44.43706" lon="4.51462">
        <ele>448.60000610352</ele>
        <time>2013-02-27T14:04:05.000Z</time>
      </trkpt>
      <trkpt lat="44.43705" lon="4.51461">
        <ele>448.20001220703</ele>
        <time>2013-02-27T14:04:06.000Z</time>
      </trkpt>
      <trkpt lat="44.43703" lon="4.51461">
        <ele>447.60000610352</ele>
        <time>2013-02-27T14:04:07.000Z</time>
      </trkpt>
      <trkpt lat="44.43702" lon="4.51461">
        <ele>447.20001220703</ele>
        <time>2013-02-27T14:04:08.000Z</time>
      </trkpt>
      <trkpt lat="44.43701" lon="4.5146">
        <ele>449</ele>
        <time>2013-02-27T14:04:09.000Z</time>
      </trkpt>
      <trkpt lat="44.43699" lon="4.51459">
        <ele>450</ele>
        <time>2013-02-27T14:04:10.000Z</time>
      </trkpt>
      <trkpt lat="44.43698" lon="4.51458">
        <ele>451.39999389648</ele>
        <time>2013-02-27T14:04:11.000Z</time>
      </trkpt>
      <trkpt lat="44.43697" lon="4.51457">
        <ele>452</ele>
        <time>2013-02-27T14:04:12.000Z</time>
      </trkpt>
      <trkpt lat="44.43697" lon="4.51456">
        <ele>452.39999389648</ele>
        <time>2013-02-27T14:04:13.000Z</time>
      </trkpt>
      <trkpt lat="44.43696" lon="4.51455">
        <ele>453.39999389648</ele>
        <time>2013-02-27T14:04:14.000Z</time>
      </trkpt>
      <trkpt lat="44.43694" lon="4.51455">
        <ele>453</ele>
        <time>2013-02-27T14:04:15.000Z</time>
      </trkpt>
      <trkpt lat="44.43693" lon="4.51454">
        <ele>452.39999389648</ele>
        <time>2013-02-27T14:04:16.000Z</time>
      </trkpt>
      <trkpt lat="44.43692" lon="4.51454">
        <ele>452.39999389648</ele>
        <time>2013-02-27T14:04:17.000Z</time>
      </trkpt>
      <trkpt lat="44.4369" lon="4.51454">
        <ele>453</ele>
        <time>2013-02-27T14:04:18.000Z</time>
      </trkpt>
      <trkpt lat="44.43689" lon="4.51454">
        <ele>453.39999389648</ele>
        <time>2013-02-27T14:04:19.000Z</time>
      </trkpt>
      <trkpt lat="44.43688" lon="4.51454">
        <ele>453.39999389648</ele>
        <time>2013-02-27T14:04:20.000Z</time>
      </trkpt>
      <trkpt lat="44.43687" lon="4.51454">
        <ele>454.39999389648</ele>
        <time>2013-02-27T14:04:21.000Z</time>
      </trkpt>
      <trkpt lat="44.43686" lon="4.51454">
        <ele>454.39999389648</ele>
        <time>2013-02-27T14:04:22.000Z</time>
      </trkpt>
      <trkpt lat="44.43685" lon="4.51454">
        <ele>454.79998779297</ele>
        <time>2013-02-27T14:04:23.000Z</time>
      </trkpt>
      <trkpt lat="44.43684" lon="4.51455">
        <ele>455.39999389648</ele>
        <time>2013-02-27T14:04:24.000Z</time>
      </trkpt>
      <trkpt lat="44.43683" lon="4.51455">
        <ele>455.79998779297</ele>
        <time>2013-02-27T14:04:25.000Z</time>
      </trkpt>
      <trkpt lat="44.43682" lon="4.51455">
        <ele>456.20001220703</ele>
        <time>2013-02-27T14:04:26.000Z</time>
      </trkpt>
      <trkpt lat="44.4368" lon="4.51455">
        <ele>455.79998779297</ele>
        <time>2013-02-27T14:04:27.000Z</time>
      </trkpt>
      <trkpt lat="44.43679" lon="4.51455">
        <ele>455.39999389648</ele>
        <time>2013-02-27T14:04:28.000Z</time>
      </trkpt>
      <trkpt lat="44.43678" lon="4.51455">
        <ele>455.39999389648</ele>
        <time>2013-02-27T14:04:29.000Z</time>
      </trkpt>
      <trkpt lat="44.43677" lon="4.51455">
        <ele>454.79998779297</ele>
        <time>2013-02-27T14:04:30.000Z</time>
      </trkpt>
      <trkpt lat="44.43676" lon="4.51456">
        <ele>454.79998779297</ele>
        <time>2013-02-27T14:04:31.000Z</time>
      </trkpt>
      <trkpt lat="44.43674" lon="4.51457">
        <ele>454.79998779297</ele>
        <time>2013-02-27T14:04:32.000Z</time>
      </trkpt>
      <trkpt lat="44.43673" lon="4.51457">
        <ele>454.39999389648</ele>
        <time>2013-02-27T14:04:33.000Z</time>
      </trkpt>
      <trkpt lat="44.43672" lon="4.51458">
        <ele>454.39999389648</ele>
        <time>2013-02-27T14:04:34.000Z</time>
      </trkpt>
      <trkpt lat="44.43671" lon="4.51459">
        <ele>454.39999389648</ele>
        <time>2013-02-27T14:04:35.000Z</time>
      </trkpt>
      <trkpt lat="44.4367" lon="4.5146">
        <ele>454.39999389648</ele>
        <time>2013-02-27T14:04:36.000Z</time>
      </trkpt>
      <trkpt lat="44.43668" lon="4.51461">
        <ele>454.39999389648</ele>
        <time>2013-02-27T14:04:37.000Z</time>
      </trkpt>
      <trkpt lat="44.43667" lon="4.51462">
        <ele>454.39999389648</ele>
        <time>2013-02-27T14:04:38.000Z</time>
      </trkpt>
      <trkpt lat="44.43666" lon="4.51464">
        <ele>454.79998779297</ele>
        <time>2013-02-27T14:04:39.000Z</time>
      </trkpt>
      <trkpt lat="44.43665" lon="4.51465">
        <ele>454.79998779297</ele>
        <time>2013-02-27T14:04:40.000Z</time>
      </trkpt>
      <trkpt lat="44.43664" lon="4.51466">
        <ele>454.79998779297</ele>
        <time>2013-02-27T14:04:41.000Z</time>
      </trkpt>
      <trkpt lat="44.43663" lon="4.51467">
        <ele>454.79998779297</ele>
        <time>2013-02-27T14:04:42.000Z</time>
      </trkpt>
      <trkpt lat="44.43662" lon="4.51468">
        <ele>454.79998779297</ele>
        <time>2013-02-27T14:04:43.000Z</time>
      </trkpt>
      <trkpt lat="44.43661" lon="4.5147">
        <ele>454.79998779297</ele>
        <time>2013-02-27T14:04:44.000Z</time>
      </trkpt>
      <trkpt lat="44.4366" lon="4.51471">
        <ele>455.39999389648</ele>
        <time>2013-02-27T14:04:45.000Z</time>
      </trkpt>
      <trkpt lat="44.43659" lon="4.51472">
        <ele>455.39999389648</ele>
        <time>2013-02-27T14:04:46.000Z</time>
      </trkpt>
      <trkpt lat="44.43658" lon="4.51474">
        <ele>455.39999389648</ele>
        <time>2013-02-27T14:04:47.000Z</time>
      </trkpt>
      <trkpt lat="44.43657" lon="4.51475">
        <ele>455.39999389648</ele>
        <time>2013-02-27T14:04:48.000Z</time>
      </trkpt>
      <trkpt lat="44.43656" lon="4.51476">
        <ele>455.39999389648</ele>
        <time>2013-02-27T14:04:49.000Z</time>
      </trkpt>
      <trkpt lat="44.43655" lon="4.51477">
        <ele>455.39999389648</ele>
        <time>2013-02-27T14:04:50.000Z</time>
      </trkpt>
      <trkpt lat="44.43654" lon="4.51478">
        <ele>455.39999389648</ele>
        <time>2013-02-27T14:04:51.000Z</time>
      </trkpt>
      <trkpt lat="44.43653" lon="4.51479">
        <ele>455.79998779297</ele>
        <time>2013-02-27T14:04:52.000Z</time>
      </trkpt>
      <trkpt lat="44.43652" lon="4.51481">
        <ele>455.39999389648</ele>
        <time>2013-02-27T14:04:53.000Z</time>
      </trkpt>
      <trkpt lat="44.43651" lon="4.51482">
        <ele>455.79998779297</ele>
        <time>2013-02-27T14:04:54.000Z</time>
      </trkpt>
      <trkpt lat="44.4365" lon="4.51483">
        <ele>455.79998779297</ele>
        <time>2013-02-27T14:04:55.000Z</time>
      </trkpt>
      <trkpt lat="44.4365" lon="4.51485">
        <ele>455.79998779297</ele>
        <time>2013-02-27T14:04:56.000Z</time>
      </trkpt>
      <trkpt lat="44.43649" lon="4.51486">
        <ele>455.79998779297</ele>
        <time>2013-02-27T14:04:57.000Z</time>
      </trkpt>
      <trkpt lat="44.43648" lon="4.51487">
        <ele>456.20001220703</ele>
        <time>2013-02-27T14:04:58.000Z</time>
      </trkpt>
      <trkpt lat="44.43646" lon="4.51489">
        <ele>456.20001220703</ele>
        <time>2013-02-27T14:04:59.000Z</time>
      </trkpt>
      <trkpt lat="44.43645" lon="4.5149">
        <ele>456.79998779297</ele>
        <time>2013-02-27T14:05:00.000Z</time>
      </trkpt>
      <trkpt lat="44.43644" lon="4.51491">
        <ele>456.79998779297</ele>
        <time>2013-02-27T14:05:01.000Z</time>
      </trkpt>
      <trkpt lat="44.43643" lon="4.51492">
        <ele>457.20001220703</ele>
        <time>2013-02-27T14:05:02.000Z</time>
      </trkpt>
      <trkpt lat="44.43642" lon="4.51493">
        <ele>457.20001220703</ele>
        <time>2013-02-27T14:05:03.000Z</time>
      </trkpt>
      <trkpt lat="44.43641" lon="4.51494">
        <ele>457.20001220703</ele>
        <time>2013-02-27T14:05:04.000Z</time>
      </trkpt>
      <trkpt lat="44.4364" lon="4.51495">
        <ele>457.79998779297</ele>
        <time>2013-02-27T14:05:05.000Z</time>
      </trkpt>
      <trkpt lat="44.43639" lon="4.51495">
        <ele>457.79998779297</ele>
        <time>2013-02-27T14:05:06.000Z</time>
      </trkpt>
      <trkpt lat="44.43637" lon="4.51496">
        <ele>458.20001220703</ele>
        <time>2013-02-27T14:05:07.000Z</time>
      </trkpt>
      <trkpt lat="44.43636" lon="4.51497">
        <ele>458.60000610352</ele>
        <time>2013-02-27T14:05:08.000Z</time>
      </trkpt>
      <trkpt lat="44.43635" lon="4.51497">
        <ele>458.60000610352</ele>
        <time>2013-02-27T14:05:09.000Z</time>
      </trkpt>
      <trkpt lat="44.43634" lon="4.51497">
        <ele>458.60000610352</ele>
        <time>2013-02-27T14:05:10.000Z</time>
      </trkpt>
      <trkpt lat="44.43633" lon="4.51497">
        <ele>459.20001220703</ele>
        <time>2013-02-27T14:05:11.000Z</time>
      </trkpt>
      <trkpt lat="44.43631" lon="4.51497">
        <ele>459.20001220703</ele>
        <time>2013-02-27T14:05:12.000Z</time>
      </trkpt>
      <trkpt lat="44.4363" lon="4.51498">
        <ele>459.20001220703</ele>
        <time>2013-02-27T14:05:13.000Z</time>
      </trkpt>
      <trkpt lat="44.43629" lon="4.51498">
        <ele>459.60000610352</ele>
        <time>2013-02-27T14:05:14.000Z</time>
      </trkpt>
      <trkpt lat="44.43627" lon="4.51497">
        <ele>459.60000610352</ele>
        <time>2013-02-27T14:05:15.000Z</time>
      </trkpt>
      <trkpt lat="44.43626" lon="4.51497">
        <ele>460.20001220703</ele>
        <time>2013-02-27T14:05:16.000Z</time>
      </trkpt>
      <trkpt lat="44.43625" lon="4.51496">
        <ele>460.20001220703</ele>
        <time>2013-02-27T14:05:17.000Z</time>
      </trkpt>
      <trkpt lat="44.43624" lon="4.51496">
        <ele>460.20001220703</ele>
        <time>2013-02-27T14:05:18.000Z</time>
      </trkpt>
      <trkpt lat="44.43622" lon="4.51495">
        <ele>460.60000610352</ele>
        <time>2013-02-27T14:05:19.000Z</time>
      </trkpt>
      <trkpt lat="44.43621" lon="4.51494">
        <ele>461</ele>
        <time>2013-02-27T14:05:20.000Z</time>
      </trkpt>
      <trkpt lat="44.4362" lon="4.51494">
        <ele>461</ele>
        <time>2013-02-27T14:05:21.000Z</time>
      </trkpt>
      <trkpt lat="44.43618" lon="4.51493">
        <ele>461.60000610352</ele>
        <time>2013-02-27T14:05:22.000Z</time>
      </trkpt>
      <trkpt lat="44.43617" lon="4.51493">
        <ele>461.60000610352</ele>
        <time>2013-02-27T14:05:23.000Z</time>
      </trkpt>
      <trkpt lat="44.43616" lon="4.51492">
        <ele>462</ele>
        <time>2013-02-27T14:05:24.000Z</time>
      </trkpt>
      <trkpt lat="44.43615" lon="4.51491">
        <ele>462.60000610352</ele>
        <time>2013-02-27T14:05:25.000Z</time>
      </trkpt>
      <trkpt lat="44.43614" lon="4.51491">
        <ele>462.60000610352</ele>
        <time>2013-02-27T14:05:26.000Z</time>
      </trkpt>
      <trkpt lat="44.43612" lon="4.5149">
        <ele>462.60000610352</ele>
        <time>2013-02-27T14:05:27.000Z</time>
      </trkpt>
      <trkpt lat="44.43611" lon="4.51489">
        <ele>463</ele>
        <time>2013-02-27T14:05:28.000Z</time>
      </trkpt>
      <trkpt lat="44.4361" lon="4.51489">
        <ele>463</ele>
        <time>2013-02-27T14:05:29.000Z</time>
      </trkpt>
      <trkpt lat="44.43609" lon="4.51488">
        <ele>463</ele>
        <time>2013-02-27T14:05:30.000Z</time>
      </trkpt>
      <trkpt lat="44.43608" lon="4.51487">
        <ele>463</ele>
        <time>2013-02-27T14:05:31.000Z</time>
      </trkpt>
      <trkpt lat="44.43606" lon="4.51486">
        <ele>463</ele>
        <time>2013-02-27T14:05:32.000Z</time>
      </trkpt>
      <trkpt lat="44.43605" lon="4.51486">
        <ele>463</ele>
        <time>2013-02-27T14:05:33.000Z</time>
      </trkpt>
      <trkpt lat="44.43604" lon="4.51485">
        <ele>463</ele>
        <time>2013-02-27T14:05:34.000Z</time>
      </trkpt>
      <trkpt lat="44.43603" lon="4.51485">
        <ele>463</ele>
        <time>2013-02-27T14:05:35.000Z</time>
      </trkpt>
      <trkpt lat="44.43602" lon="4.51484">
        <ele>463</ele>
        <time>2013-02-27T14:05:36.000Z</time>
      </trkpt>
      <trkpt lat="44.43601" lon="4.51483">
        <ele>463.39999389648</ele>
        <time>2013-02-27T14:05:37.000Z</time>
      </trkpt>
      <trkpt lat="44.436" lon="4.51483">
        <ele>464</ele>
        <time>2013-02-27T14:05:38.000Z</time>
      </trkpt>
      <trkpt lat="44.43598" lon="4.51482">
        <ele>464</ele>
        <time>2013-02-27T14:05:39.000Z</time>
      </trkpt>
      <trkpt lat="44.43597" lon="4.51482">
        <ele>464</ele>
        <time>2013-02-27T14:05:40.000Z</time>
      </trkpt>
      <trkpt lat="44.43596" lon="4.51481">
        <ele>464</ele>
        <time>2013-02-27T14:05:41.000Z</time>
      </trkpt>
      <trkpt lat="44.43595" lon="4.5148">
        <ele>464</ele>
        <time>2013-02-27T14:05:42.000Z</time>
      </trkpt>
      <trkpt lat="44.43594" lon="4.5148">
        <ele>464</ele>
        <time>2013-02-27T14:05:43.000Z</time>
      </trkpt>
      <trkpt lat="44.43592" lon="4.51479">
        <ele>464.39999389648</ele>
        <time>2013-02-27T14:05:44.000Z</time>
      </trkpt>
      <trkpt lat="44.43591" lon="4.51478">
        <ele>464.39999389648</ele>
        <time>2013-02-27T14:05:45.000Z</time>
      </trkpt>
      <trkpt lat="44.4359" lon="4.51478">
        <ele>464.39999389648</ele>
        <time>2013-02-27T14:05:46.000Z</time>
      </trkpt>
      <trkpt lat="44.43589" lon="4.51477">
        <ele>464.39999389648</ele>
        <time>2013-02-27T14:05:47.000Z</time>
      </trkpt>
      <trkpt lat="44.43588" lon="4.51477">
        <ele>464.39999389648</ele>
        <time>2013-02-27T14:05:48.000Z</time>
      </trkpt>
      <trkpt lat="44.43587" lon="4.51476">
        <ele>464.39999389648</ele>
        <time>2013-02-27T14:05:49.000Z</time>
      </trkpt>
      <trkpt lat="44.43585" lon="4.51475">
        <ele>464.39999389648</ele>
        <time>2013-02-27T14:05:50.000Z</time>
      </trkpt>
      <trkpt lat="44.43584" lon="4.51475">
        <ele>464.39999389648</ele>
        <time>2013-02-27T14:05:51.000Z</time>
      </trkpt>
      <trkpt lat="44.43583" lon="4.51474">
        <ele>464.39999389648</ele>
        <time>2013-02-27T14:05:52.000Z</time>
      </trkpt>
      <trkpt lat="44.43582" lon="4.51473">
        <ele>464.39999389648</ele>
        <time>2013-02-27T14:05:53.000Z</time>
      </trkpt>
      <trkpt lat="44.43581" lon="4.51473">
        <ele>465</ele>
        <time>2013-02-27T14:05:54.000Z</time>
      </trkpt>
      <trkpt lat="44.4358" lon="4.51472">
        <ele>465</ele>
        <time>2013-02-27T14:05:55.000Z</time>
      </trkpt>
      <trkpt lat="44.43579" lon="4.51471">
        <ele>465</ele>
        <time>2013-02-27T14:05:56.000Z</time>
      </trkpt>
      <trkpt lat="44.43577" lon="4.5147">
        <ele>465.39999389648</ele>
        <time>2013-02-27T14:05:57.000Z</time>
      </trkpt>
      <trkpt lat="44.43576" lon="4.5147">
        <ele>465.39999389648</ele>
        <time>2013-02-27T14:05:58.000Z</time>
      </trkpt>
      <trkpt lat="44.43575" lon="4.51469">
        <ele>465.39999389648</ele>
        <time>2013-02-27T14:05:59.000Z</time>
      </trkpt>
      <trkpt lat="44.43574" lon="4.51468">
        <ele>465.39999389648</ele>
        <time>2013-02-27T14:06:00.000Z</time>
      </trkpt>
      <trkpt lat="44.43573" lon="4.51467">
        <ele>465.39999389648</ele>
        <time>2013-02-27T14:06:01.000Z</time>
      </trkpt>
      <trkpt lat="44.43572" lon="4.51467">
        <ele>465.39999389648</ele>
        <time>2013-02-27T14:06:02.000Z</time>
      </trkpt>
      <trkpt lat="44.43571" lon="4.51466">
        <ele>465.39999389648</ele>
        <time>2013-02-27T14:06:03.000Z</time>
      </trkpt>
      <trkpt lat="44.4357" lon="4.51466">
        <ele>465.39999389648</ele>
        <time>2013-02-27T14:06:04.000Z</time>
      </trkpt>
      <trkpt lat="44.43569" lon="4.51465">
        <ele>465.79998779297</ele>
        <time>2013-02-27T14:06:05.000Z</time>
      </trkpt>
      <trkpt lat="44.43568" lon="4.51465">
        <ele>465.39999389648</ele>
        <time>2013-02-27T14:06:06.000Z</time>
      </trkpt>
      <trkpt lat="44.43567" lon="4.51464">
        <ele>465.39999389648</ele>
        <time>2013-02-27T14:06:07.000Z</time>
      </trkpt>
      <trkpt lat="44.43566" lon="4.51463">
        <ele>465.39999389648</ele>
        <time>2013-02-27T14:06:08.000Z</time>
      </trkpt>
      <trkpt lat="44.43564" lon="4.51463">
        <ele>465.39999389648</ele>
        <time>2013-02-27T14:06:09.000Z</time>
      </trkpt>
      <trkpt lat="44.43563" lon="4.51462">
        <ele>465.39999389648</ele>
        <time>2013-02-27T14:06:10.000Z</time>
      </trkpt>
      <trkpt lat="44.43562" lon="4.51462">
        <ele>465.39999389648</ele>
        <time>2013-02-27T14:06:11.000Z</time>
      </trkpt>
      <trkpt lat="44.43561" lon="4.51461">
        <ele>465.39999389648</ele>
        <time>2013-02-27T14:06:12.000Z</time>
      </trkpt>
      <trkpt lat="44.4356" lon="4.5146">
        <ele>465.39999389648</ele>
        <time>2013-02-27T14:06:13.000Z</time>
      </trkpt>
      <trkpt lat="44.43559" lon="4.5146">
        <ele>465.39999389648</ele>
        <time>2013-02-27T14:06:14.000Z</time>
      </trkpt>
      <trkpt lat="44.43558" lon="4.51459">
        <ele>465.39999389648</ele>
        <time>2013-02-27T14:06:15.000Z</time>
      </trkpt>
      <trkpt lat="44.43557" lon="4.51458">
        <ele>465.39999389648</ele>
        <time>2013-02-27T14:06:16.000Z</time>
      </trkpt>
      <trkpt lat="44.43556" lon="4.51458">
        <ele>465.39999389648</ele>
        <time>2013-02-27T14:06:17.000Z</time>
      </trkpt>
      <trkpt lat="44.43554" lon="4.51457">
        <ele>465</ele>
        <time>2013-02-27T14:06:18.000Z</time>
      </trkpt>
      <trkpt lat="44.43553" lon="4.51457">
        <ele>465</ele>
        <time>2013-02-27T14:06:19.000Z</time>
      </trkpt>
      <trkpt lat="44.43552" lon="4.51456">
        <ele>465.39999389648</ele>
        <time>2013-02-27T14:06:20.000Z</time>
      </trkpt>
      <trkpt lat="44.43551" lon="4.51455">
        <ele>465.39999389648</ele>
        <time>2013-02-27T14:06:21.000Z</time>
      </trkpt>
      <trkpt lat="44.4355" lon="4.51455">
        <ele>465.39999389648</ele>
        <time>2013-02-27T14:06:22.000Z</time>
      </trkpt>
      <trkpt lat="44.43549" lon="4.51454">
        <ele>465.39999389648</ele>
        <time>2013-02-27T14:06:23.000Z</time>
      </trkpt>
      <trkpt lat="44.43548" lon="4.51454">
        <ele>465.39999389648</ele>
        <time>2013-02-27T14:06:24.000Z</time>
      </trkpt>
      <trkpt lat="44.43547" lon="4.51453">
        <ele>465.39999389648</ele>
        <time>2013-02-27T14:06:25.000Z</time>
      </trkpt>
      <trkpt lat="44.43546" lon="4.51453">
        <ele>465.39999389648</ele>
        <time>2013-02-27T14:06:26.000Z</time>
      </trkpt>
      <trkpt lat="44.43544" lon="4.51452">
        <ele>465.39999389648</ele>
        <time>2013-02-27T14:06:27.000Z</time>
      </trkpt>
      <trkpt lat="44.43543" lon="4.51452">
        <ele>465.39999389648</ele>
        <time>2013-02-27T14:06:28.000Z</time>
      </trkpt>
      <trkpt lat="44.43542" lon="4.51452">
        <ele>465.39999389648</ele>
        <time>2013-02-27T14:06:29.000Z</time>
      </trkpt>
      <trkpt lat="44.43541" lon="4.51451">
        <ele>465.39999389648</ele>
        <time>2013-02-27T14:06:30.000Z</time>
      </trkpt>
      <trkpt lat="44.4354" lon="4.51451">
        <ele>465.39999389648</ele>
        <time>2013-02-27T14:06:31.000Z</time>
      </trkpt>
      <trkpt lat="44.43539" lon="4.5145">
        <ele>465.39999389648</ele>
        <time>2013-02-27T14:06:32.000Z</time>
      </trkpt>
      <trkpt lat="44.43538" lon="4.51449">
        <ele>465.39999389648</ele>
        <time>2013-02-27T14:06:33.000Z</time>
      </trkpt>
      <trkpt lat="44.43536" lon="4.51449">
        <ele>465.39999389648</ele>
        <time>2013-02-27T14:06:34.000Z</time>
      </trkpt>
      <trkpt lat="44.43535" lon="4.51448">
        <ele>465.39999389648</ele>
        <time>2013-02-27T14:06:35.000Z</time>
      </trkpt>
      <trkpt lat="44.43534" lon="4.51448">
        <ele>465.39999389648</ele>
        <time>2013-02-27T14:06:36.000Z</time>
      </trkpt>
      <trkpt lat="44.43533" lon="4.51447">
        <ele>465.39999389648</ele>
        <time>2013-02-27T14:06:37.000Z</time>
      </trkpt>
      <trkpt lat="44.43532" lon="4.51447">
        <ele>465.39999389648</ele>
        <time>2013-02-27T14:06:38.000Z</time>
      </trkpt>
      <trkpt lat="44.43531" lon="4.51446">
        <ele>465.39999389648</ele>
        <time>2013-02-27T14:06:39.000Z</time>
      </trkpt>
      <trkpt lat="44.4353" lon="4.51446">
        <ele>465</ele>
        <time>2013-02-27T14:06:40.000Z</time>
      </trkpt>
      <trkpt lat="44.43529" lon="4.51445">
        <ele>465</ele>
        <time>2013-02-27T14:06:41.000Z</time>
      </trkpt>
      <trkpt lat="44.43527" lon="4.51445">
        <ele>465</ele>
        <time>2013-02-27T14:06:42.000Z</time>
      </trkpt>
      <trkpt lat="44.43526" lon="4.51444">
        <ele>465</ele>
        <time>2013-02-27T14:06:43.000Z</time>
      </trkpt>
      <trkpt lat="44.43525" lon="4.51444">
        <ele>465</ele>
        <time>2013-02-27T14:06:44.000Z</time>
      </trkpt>
      <trkpt lat="44.43524" lon="4.51444">
        <ele>465</ele>
        <time>2013-02-27T14:06:45.000Z</time>
      </trkpt>
      <trkpt lat="44.43523" lon="4.51443">
        <ele>465</ele>
        <time>2013-02-27T14:06:46.000Z</time>
      </trkpt>
      <trkpt lat="44.43521" lon="4.51443">
        <ele>465</ele>
        <time>2013-02-27T14:06:47.000Z</time>
      </trkpt>
      <trkpt lat="44.4352" lon="4.51442">
        <ele>465</ele>
        <time>2013-02-27T14:06:48.000Z</time>
      </trkpt>
      <trkpt lat="44.43518" lon="4.51442">
        <ele>465</ele>
        <time>2013-02-27T14:06:49.000Z</time>
      </trkpt>
      <trkpt lat="44.43517" lon="4.51443">
        <ele>465</ele>
        <time>2013-02-27T14:06:50.000Z</time>
      </trkpt>
      <trkpt lat="44.43515" lon="4.51442">
        <ele>465</ele>
        <time>2013-02-27T14:06:51.000Z</time>
      </trkpt>
      <trkpt lat="44.43514" lon="4.51442">
        <ele>465</ele>
        <time>2013-02-27T14:06:52.000Z</time>
      </trkpt>
      <trkpt lat="44.43513" lon="4.51441">
        <ele>465.39999389648</ele>
        <time>2013-02-27T14:06:53.000Z</time>
      </trkpt>
      <trkpt lat="44.43511" lon="4.51441">
        <ele>465.39999389648</ele>
        <time>2013-02-27T14:06:54.000Z</time>
      </trkpt>
      <trkpt lat="44.4351" lon="4.51441">
        <ele>465.39999389648</ele>
        <time>2013-02-27T14:06:55.000Z</time>
      </trkpt>
      <trkpt lat="44.43508" lon="4.51441">
        <ele>465</ele>
        <time>2013-02-27T14:06:56.000Z</time>
      </trkpt>
      <trkpt lat="44.43507" lon="4.5144">
        <ele>465</ele>
        <time>2013-02-27T14:06:57.000Z</time>
      </trkpt>
      <trkpt lat="44.43506" lon="4.5144">
        <ele>465</ele>
        <time>2013-02-27T14:06:58.000Z</time>
      </trkpt>
      <trkpt lat="44.43504" lon="4.5144">
        <ele>465</ele>
        <time>2013-02-27T14:06:59.000Z</time>
      </trkpt>
      <trkpt lat="44.43503" lon="4.51439">
        <ele>464.39999389648</ele>
        <time>2013-02-27T14:07:00.000Z</time>
      </trkpt>
      <trkpt lat="44.43502" lon="4.51438">
        <ele>464.39999389648</ele>
        <time>2013-02-27T14:07:01.000Z</time>
      </trkpt>
      <trkpt lat="44.43501" lon="4.51437">
        <ele>464.39999389648</ele>
        <time>2013-02-27T14:07:02.000Z</time>
      </trkpt>
      <trkpt lat="44.435" lon="4.51436">
        <ele>464.39999389648</ele>
        <time>2013-02-27T14:07:03.000Z</time>
      </trkpt>
      <trkpt lat="44.43499" lon="4.51434">
        <ele>464.39999389648</ele>
        <time>2013-02-27T14:07:04.000Z</time>
      </trkpt>
      <trkpt lat="44.43498" lon="4.51433">
        <ele>464</ele>
        <time>2013-02-27T14:07:05.000Z</time>
      </trkpt>
      <trkpt lat="44.43498" lon="4.51431">
        <ele>464</ele>
        <time>2013-02-27T14:07:06.000Z</time>
      </trkpt>
      <trkpt lat="44.43497" lon="4.5143">
        <ele>464</ele>
        <time>2013-02-27T14:07:07.000Z</time>
      </trkpt>
      <trkpt lat="44.43496" lon="4.51428">
        <ele>464</ele>
        <time>2013-02-27T14:07:08.000Z</time>
      </trkpt>
      <trkpt lat="44.43496" lon="4.51426">
        <ele>464</ele>
        <time>2013-02-27T14:07:09.000Z</time>
      </trkpt>
      <trkpt lat="44.43495" lon="4.51424">
        <ele>464</ele>
        <time>2013-02-27T14:07:10.000Z</time>
      </trkpt>
      <trkpt lat="44.43495" lon="4.51423">
        <ele>464</ele>
        <time>2013-02-27T14:07:11.000Z</time>
      </trkpt>
      <trkpt lat="44.43495" lon="4.51421">
        <ele>463.39999389648</ele>
        <time>2013-02-27T14:07:12.000Z</time>
      </trkpt>
      <trkpt lat="44.43495" lon="4.5142">
        <ele>464</ele>
        <time>2013-02-27T14:07:13.000Z</time>
      </trkpt>
      <trkpt lat="44.43494" lon="4.51418">
        <ele>464</ele>
        <time>2013-02-27T14:07:14.000Z</time>
      </trkpt>
      <trkpt lat="44.43494" lon="4.51417">
        <ele>464</ele>
        <time>2013-02-27T14:07:15.000Z</time>
      </trkpt>
      <trkpt lat="44.43494" lon="4.51416">
        <ele>463.39999389648</ele>
        <time>2013-02-27T14:07:16.000Z</time>
      </trkpt>
      <trkpt lat="44.43494" lon="4.51416">
        <ele>463.39999389648</ele>
        <time>2013-02-27T14:07:17.000Z</time>
      </trkpt>
      <trkpt lat="44.43494" lon="4.51416">
        <ele>463.39999389648</ele>
        <time>2013-02-27T14:07:18.000Z</time>
      </trkpt>
      <trkpt lat="44.43494" lon="4.51416">
        <ele>463.39999389648</ele>
        <time>2013-02-27T14:07:19.000Z</time>
      </trkpt>
      <trkpt lat="44.43494" lon="4.51417">
        <ele>463.39999389648</ele>
        <time>2013-02-27T14:07:20.000Z</time>
      </trkpt>
      <trkpt lat="44.43494" lon="4.51417">
        <ele>463.39999389648</ele>
        <time>2013-02-27T14:07:21.000Z</time>
      </trkpt>
      <trkpt lat="44.43494" lon="4.51416">
        <ele>463.39999389648</ele>
        <time>2013-02-27T14:07:22.000Z</time>
      </trkpt>
      <trkpt lat="44.43495" lon="4.51416">
        <ele>463</ele>
        <time>2013-02-27T14:07:23.000Z</time>
      </trkpt>
      <trkpt lat="44.43495" lon="4.51416">
        <ele>463</ele>
        <time>2013-02-27T14:07:24.000Z</time>
      </trkpt>
      <trkpt lat="44.43495" lon="4.51416">
        <ele>462</ele>
        <time>2013-02-27T14:07:25.000Z</time>
      </trkpt>
      <trkpt lat="44.43495" lon="4.51416">
        <ele>461.60000610352</ele>
        <time>2013-02-27T14:07:26.000Z</time>
      </trkpt>
      <trkpt lat="44.43495" lon="4.51415">
        <ele>461.60000610352</ele>
        <time>2013-02-27T14:07:27.000Z</time>
      </trkpt>
      <trkpt lat="44.43495" lon="4.51415">
        <ele>461.60000610352</ele>
        <time>2013-02-27T14:07:28.000Z</time>
      </trkpt>
      <trkpt lat="44.43496" lon="4.51415">
        <ele>461</ele>
        <time>2013-02-27T14:07:29.000Z</time>
      </trkpt>
      <trkpt lat="44.43496" lon="4.51415">
        <ele>460.20001220703</ele>
        <time>2013-02-27T14:07:30.000Z</time>
      </trkpt>
      <trkpt lat="44.43497" lon="4.51415">
        <ele>459.20001220703</ele>
        <time>2013-02-27T14:07:31.000Z</time>
      </trkpt>
      <trkpt lat="44.43497" lon="4.51415">
        <ele>458.60000610352</ele>
        <time>2013-02-27T14:07:32.000Z</time>
      </trkpt>
      <trkpt lat="44.43496" lon="4.51415">
        <ele>458.20001220703</ele>
        <time>2013-02-27T14:07:33.000Z</time>
      </trkpt>
      <trkpt lat="44.43496" lon="4.51415">
        <ele>457.79998779297</ele>
        <time>2013-02-27T14:07:34.000Z</time>
      </trkpt>
      <trkpt lat="44.43497" lon="4.51414">
        <ele>457.20001220703</ele>
        <time>2013-02-27T14:07:35.000Z</time>
      </trkpt>
      <trkpt lat="44.43497" lon="4.51413">
        <ele>456.20001220703</ele>
        <time>2013-02-27T14:07:36.000Z</time>
      </trkpt>
      <trkpt lat="44.43498" lon="4.51413">
        <ele>455.79998779297</ele>
        <time>2013-02-27T14:07:37.000Z</time>
      </trkpt>
      <trkpt lat="44.43498" lon="4.51413">
        <ele>455.39999389648</ele>
        <time>2013-02-27T14:07:38.000Z</time>
      </trkpt>
      <trkpt lat="44.43498" lon="4.51413">
        <ele>455.39999389648</ele>
        <time>2013-02-27T14:07:39.000Z</time>
      </trkpt>
      <trkpt lat="44.43498" lon="4.51413">
        <ele>455.39999389648</ele>
        <time>2013-02-27T14:07:40.000Z</time>
      </trkpt>
      <trkpt lat="44.43498" lon="4.51413">
        <ele>455.39999389648</ele>
        <time>2013-02-27T14:07:41.000Z</time>
      </trkpt>
      <trkpt lat="44.43498" lon="4.51413">
        <ele>454.79998779297</ele>
        <time>2013-02-27T14:07:42.000Z</time>
      </trkpt>
      <trkpt lat="44.43498" lon="4.51413">
        <ele>454.79998779297</ele>
        <time>2013-02-27T14:07:43.000Z</time>
      </trkpt>
      <trkpt lat="44.43497" lon="4.51413">
        <ele>454.79998779297</ele>
        <time>2013-02-27T14:07:44.000Z</time>
      </trkpt>
      <trkpt lat="44.43497" lon="4.51413">
        <ele>454.39999389648</ele>
        <time>2013-02-27T14:07:45.000Z</time>
      </trkpt>
      <trkpt lat="44.43498" lon="4.51413">
        <ele>453.39999389648</ele>
        <time>2013-02-27T14:07:46.000Z</time>
      </trkpt>
      <trkpt lat="44.43498" lon="4.51413">
        <ele>453</ele>
        <time>2013-02-27T14:07:47.000Z</time>
      </trkpt>
      <trkpt lat="44.43498" lon="4.51413">
        <ele>453</ele>
        <time>2013-02-27T14:07:48.000Z</time>
      </trkpt>
      <trkpt lat="44.43498" lon="4.51413">
        <ele>453.79998779297</ele>
        <time>2013-02-27T14:07:49.000Z</time>
      </trkpt>
      <trkpt lat="44.43498" lon="4.51414">
        <ele>454.39999389648</ele>
        <time>2013-02-27T14:07:50.000Z</time>
      </trkpt>
      <trkpt lat="44.43498" lon="4.51414">
        <ele>454.39999389648</ele>
        <time>2013-02-27T14:07:51.000Z</time>
      </trkpt>
      <trkpt lat="44.43498" lon="4.51414">
        <ele>454.79998779297</ele>
        <time>2013-02-27T14:07:52.000Z</time>
      </trkpt>
      <trkpt lat="44.43498" lon="4.51414">
        <ele>454.79998779297</ele>
        <time>2013-02-27T14:07:53.000Z</time>
      </trkpt>
      <trkpt lat="44.43498" lon="4.51414">
        <ele>455.39999389648</ele>
        <time>2013-02-27T14:07:54.000Z</time>
      </trkpt>
      <trkpt lat="44.43498" lon="4.51414">
        <ele>455.79998779297</ele>
        <time>2013-02-27T14:07:55.000Z</time>
      </trkpt>
      <trkpt lat="44.43498" lon="4.51413">
        <ele>456.20001220703</ele>
        <time>2013-02-27T14:07:56.000Z</time>
      </trkpt>
      <trkpt lat="44.43497" lon="4.51413">
        <ele>456.20001220703</ele>
        <time>2013-02-27T14:07:57.000Z</time>
      </trkpt>
      <trkpt lat="44.43497" lon="4.51412">
        <ele>456.79998779297</ele>
        <time>2013-02-27T14:07:58.000Z</time>
      </trkpt>
      <trkpt lat="44.43497" lon="4.51411">
        <ele>456.79998779297</ele>
        <time>2013-02-27T14:07:59.000Z</time>
      </trkpt>
      <trkpt lat="44.43497" lon="4.5141">
        <ele>456.79998779297</ele>
        <time>2013-02-27T14:08:00.000Z</time>
      </trkpt>
      <trkpt lat="44.43497" lon="4.51408">
        <ele>456.79998779297</ele>
        <time>2013-02-27T14:08:01.000Z</time>
      </trkpt>
      <trkpt lat="44.43497" lon="4.51406">
        <ele>457.20001220703</ele>
        <time>2013-02-27T14:08:02.000Z</time>
      </trkpt>
      <trkpt lat="44.43497" lon="4.51404">
        <ele>457.79998779297</ele>
        <time>2013-02-27T14:08:03.000Z</time>
      </trkpt>
      <trkpt lat="44.43496" lon="4.51402">
        <ele>457.79998779297</ele>
        <time>2013-02-27T14:08:04.000Z</time>
      </trkpt>
      <trkpt lat="44.43496" lon="4.51401">
        <ele>458.20001220703</ele>
        <time>2013-02-27T14:08:05.000Z</time>
      </trkpt>
      <trkpt lat="44.43495" lon="4.51399">
        <ele>458.60000610352</ele>
        <time>2013-02-27T14:08:06.000Z</time>
      </trkpt>
      <trkpt lat="44.43496" lon="4.51397">
        <ele>458.60000610352</ele>
        <time>2013-02-27T14:08:07.000Z</time>
      </trkpt>
      <trkpt lat="44.43495" lon="4.51395">
        <ele>458.60000610352</ele>
        <time>2013-02-27T14:08:08.000Z</time>
      </trkpt>
      <trkpt lat="44.43495" lon="4.51394">
        <ele>458.60000610352</ele>
        <time>2013-02-27T14:08:09.000Z</time>
      </trkpt>
      <trkpt lat="44.43495" lon="4.51392">
        <ele>458.60000610352</ele>
        <time>2013-02-27T14:08:10.000Z</time>
      </trkpt>
      <trkpt lat="44.43495" lon="4.51391">
        <ele>458.60000610352</ele>
        <time>2013-02-27T14:08:11.000Z</time>
      </trkpt>
      <trkpt lat="44.43495" lon="4.51389">
        <ele>458.60000610352</ele>
        <time>2013-02-27T14:08:12.000Z</time>
      </trkpt>
      <trkpt lat="44.43494" lon="4.51388">
        <ele>458.60000610352</ele>
        <time>2013-02-27T14:08:13.000Z</time>
      </trkpt>
      <trkpt lat="44.43494" lon="4.51386">
        <ele>458.60000610352</ele>
        <time>2013-02-27T14:08:14.000Z</time>
      </trkpt>
      <trkpt lat="44.43494" lon="4.51384">
        <ele>458.20001220703</ele>
        <time>2013-02-27T14:08:15.000Z</time>
      </trkpt>
      <trkpt lat="44.43494" lon="4.51383">
        <ele>458.20001220703</ele>
        <time>2013-02-27T14:08:16.000Z</time>
      </trkpt>
      <trkpt lat="44.43494" lon="4.51382">
        <ele>457.79998779297</ele>
        <time>2013-02-27T14:08:17.000Z</time>
      </trkpt>
      <trkpt lat="44.43494" lon="4.5138">
        <ele>457.20001220703</ele>
        <time>2013-02-27T14:08:18.000Z</time>
      </trkpt>
      <trkpt lat="44.43494" lon="4.51378">
        <ele>457.20001220703</ele>
        <time>2013-02-27T14:08:19.000Z</time>
      </trkpt>
      <trkpt lat="44.43494" lon="4.51377">
        <ele>457.20001220703</ele>
        <time>2013-02-27T14:08:20.000Z</time>
      </trkpt>
      <trkpt lat="44.43494" lon="4.51375">
        <ele>457.20001220703</ele>
        <time>2013-02-27T14:08:21.000Z</time>
      </trkpt>
      <trkpt lat="44.43494" lon="4.51374">
        <ele>457.20001220703</ele>
        <time>2013-02-27T14:08:22.000Z</time>
      </trkpt>
      <trkpt lat="44.43494" lon="4.51372">
        <ele>457.20001220703</ele>
        <time>2013-02-27T14:08:23.000Z</time>
      </trkpt>
      <trkpt lat="44.43494" lon="4.51371">
        <ele>457.20001220703</ele>
        <time>2013-02-27T14:08:24.000Z</time>
      </trkpt>
      <trkpt lat="44.43494" lon="4.51369">
        <ele>457.79998779297</ele>
        <time>2013-02-27T14:08:25.000Z</time>
      </trkpt>
      <trkpt lat="44.43494" lon="4.51367">
        <ele>457.79998779297</ele>
        <time>2013-02-27T14:08:26.000Z</time>
      </trkpt>
      <trkpt lat="44.43494" lon="4.51365">
        <ele>457.79998779297</ele>
        <time>2013-02-27T14:08:27.000Z</time>
      </trkpt>
      <trkpt lat="44.43494" lon="4.51363">
        <ele>457.79998779297</ele>
        <time>2013-02-27T14:08:28.000Z</time>
      </trkpt>
      <trkpt lat="44.43494" lon="4.51361">
        <ele>458.20001220703</ele>
        <time>2013-02-27T14:08:29.000Z</time>
      </trkpt>
      <trkpt lat="44.43494" lon="4.5136">
        <ele>458.20001220703</ele>
        <time>2013-02-27T14:08:30.000Z</time>
      </trkpt>
      <trkpt lat="44.43494" lon="4.51358">
        <ele>458.20001220703</ele>
        <time>2013-02-27T14:08:31.000Z</time>
      </trkpt>
      <trkpt lat="44.43494" lon="4.51357">
        <ele>458.20001220703</ele>
        <time>2013-02-27T14:08:32.000Z</time>
      </trkpt>
      <trkpt lat="44.43493" lon="4.51355">
        <ele>458.20001220703</ele>
        <time>2013-02-27T14:08:33.000Z</time>
      </trkpt>
      <trkpt lat="44.43493" lon="4.51353">
        <ele>458.20001220703</ele>
        <time>2013-02-27T14:08:34.000Z</time>
      </trkpt>
      <trkpt lat="44.43493" lon="4.51352">
        <ele>458.60000610352</ele>
        <time>2013-02-27T14:08:35.000Z</time>
      </trkpt>
      <trkpt lat="44.43493" lon="4.5135">
        <ele>458.60000610352</ele>
        <time>2013-02-27T14:08:36.000Z</time>
      </trkpt>
      <trkpt lat="44.43493" lon="4.51348">
        <ele>458.60000610352</ele>
        <time>2013-02-27T14:08:37.000Z</time>
      </trkpt>
      <trkpt lat="44.43493" lon="4.51346">
        <ele>458.60000610352</ele>
        <time>2013-02-27T14:08:38.000Z</time>
      </trkpt>
      <trkpt lat="44.43493" lon="4.51345">
        <ele>458.60000610352</ele>
        <time>2013-02-27T14:08:39.000Z</time>
      </trkpt>
      <trkpt lat="44.43493" lon="4.51343">
        <ele>458.60000610352</ele>
        <time>2013-02-27T14:08:40.000Z</time>
      </trkpt>
      <trkpt lat="44.43493" lon="4.51342">
        <ele>458.60000610352</ele>
        <time>2013-02-27T14:08:41.000Z</time>
      </trkpt>
      <trkpt lat="44.43493" lon="4.5134">
        <ele>458.60000610352</ele>
        <time>2013-02-27T14:08:42.000Z</time>
      </trkpt>
      <trkpt lat="44.43493" lon="4.51338">
        <ele>458.60000610352</ele>
        <time>2013-02-27T14:08:43.000Z</time>
      </trkpt>
      <trkpt lat="44.43493" lon="4.51337">
        <ele>458.60000610352</ele>
        <time>2013-02-27T14:08:44.000Z</time>
      </trkpt>
      <trkpt lat="44.43493" lon="4.51335">
        <ele>458.20001220703</ele>
        <time>2013-02-27T14:08:45.000Z</time>
      </trkpt>
      <trkpt lat="44.43492" lon="4.51333">
        <ele>458.60000610352</ele>
        <time>2013-02-27T14:08:46.000Z</time>
      </trkpt>
      <trkpt lat="44.43492" lon="4.51331">
        <ele>458.60000610352</ele>
        <time>2013-02-27T14:08:47.000Z</time>
      </trkpt>
      <trkpt lat="44.43492" lon="4.5133">
        <ele>458.20001220703</ele>
        <time>2013-02-27T14:08:48.000Z</time>
      </trkpt>
      <trkpt lat="44.43492" lon="4.51328">
        <ele>458.20001220703</ele>
        <time>2013-02-27T14:08:49.000Z</time>
      </trkpt>
      <trkpt lat="44.43492" lon="4.51326">
        <ele>458.60000610352</ele>
        <time>2013-02-27T14:08:50.000Z</time>
      </trkpt>
      <trkpt lat="44.43492" lon="4.51324">
        <ele>458.60000610352</ele>
        <time>2013-02-27T14:08:51.000Z</time>
      </trkpt>
      <trkpt lat="44.43492" lon="4.51323">
        <ele>458.60000610352</ele>
        <time>2013-02-27T14:08:52.000Z</time>
      </trkpt>
      <trkpt lat="44.43492" lon="4.51321">
        <ele>458.60000610352</ele>
        <time>2013-02-27T14:08:53.000Z</time>
      </trkpt>
      <trkpt lat="44.43492" lon="4.51319">
        <ele>458.20001220703</ele>
        <time>2013-02-27T14:08:54.000Z</time>
      </trkpt>
      <trkpt lat="44.43492" lon="4.51318">
        <ele>458.20001220703</ele>
        <time>2013-02-27T14:08:55.000Z</time>
      </trkpt>
      <trkpt lat="44.43491" lon="4.51316">
        <ele>458.20001220703</ele>
        <time>2013-02-27T14:08:56.000Z</time>
      </trkpt>
      <trkpt lat="44.43491" lon="4.51315">
        <ele>458.20001220703</ele>
        <time>2013-02-27T14:08:57.000Z</time>
      </trkpt>
      <trkpt lat="44.43491" lon="4.51313">
        <ele>457.79998779297</ele>
        <time>2013-02-27T14:08:58.000Z</time>
      </trkpt>
      <trkpt lat="44.4349" lon="4.51312">
        <ele>457.79998779297</ele>
        <time>2013-02-27T14:08:59.000Z</time>
      </trkpt>
      <trkpt lat="44.4349" lon="4.5131">
        <ele>457.79998779297</ele>
        <time>2013-02-27T14:09:00.000Z</time>
      </trkpt>
      <trkpt lat="44.4349" lon="4.51309">
        <ele>457.20001220703</ele>
        <time>2013-02-27T14:09:01.000Z</time>
      </trkpt>
      <trkpt lat="44.43489" lon="4.51308">
        <ele>457.20001220703</ele>
        <time>2013-02-27T14:09:02.000Z</time>
      </trkpt>
      <trkpt lat="44.43489" lon="4.51306">
        <ele>457.20001220703</ele>
        <time>2013-02-27T14:09:03.000Z</time>
      </trkpt>
      <trkpt lat="44.43488" lon="4.51305">
        <ele>456.79998779297</ele>
        <time>2013-02-27T14:09:04.000Z</time>
      </trkpt>
      <trkpt lat="44.43488" lon="4.51303">
        <ele>456.79998779297</ele>
        <time>2013-02-27T14:09:05.000Z</time>
      </trkpt>
      <trkpt lat="44.43487" lon="4.51302">
        <ele>456.79998779297</ele>
        <time>2013-02-27T14:09:06.000Z</time>
      </trkpt>
      <trkpt lat="44.43487" lon="4.513">
        <ele>456.79998779297</ele>
        <time>2013-02-27T14:09:07.000Z</time>
      </trkpt>
      <trkpt lat="44.43486" lon="4.51299">
        <ele>456.79998779297</ele>
        <time>2013-02-27T14:09:08.000Z</time>
      </trkpt>
      <trkpt lat="44.43486" lon="4.51297">
        <ele>456.79998779297</ele>
        <time>2013-02-27T14:09:09.000Z</time>
      </trkpt>
      <trkpt lat="44.43485" lon="4.51296">
        <ele>456.20001220703</ele>
        <time>2013-02-27T14:09:10.000Z</time>
      </trkpt>
      <trkpt lat="44.43485" lon="4.51294">
        <ele>455.79998779297</ele>
        <time>2013-02-27T14:09:11.000Z</time>
      </trkpt>
      <trkpt lat="44.43484" lon="4.51293">
        <ele>455.79998779297</ele>
        <time>2013-02-27T14:09:12.000Z</time>
      </trkpt>
      <trkpt lat="44.43483" lon="4.51292">
        <ele>455.79998779297</ele>
        <time>2013-02-27T14:09:13.000Z</time>
      </trkpt>
      <trkpt lat="44.43483" lon="4.5129">
        <ele>455.39999389648</ele>
        <time>2013-02-27T14:09:14.000Z</time>
      </trkpt>
      <trkpt lat="44.43482" lon="4.51288">
        <ele>456.20001220703</ele>
        <time>2013-02-27T14:09:15.000Z</time>
      </trkpt>
      <trkpt lat="44.4348" lon="4.51286">
        <ele>456.79998779297</ele>
        <time>2013-02-27T14:09:16.000Z</time>
      </trkpt>
      <trkpt lat="44.43479" lon="4.51284">
        <ele>457.79998779297</ele>
        <time>2013-02-27T14:09:17.000Z</time>
      </trkpt>
      <trkpt lat="44.43478" lon="4.51282">
        <ele>458.20001220703</ele>
        <time>2013-02-27T14:09:18.000Z</time>
      </trkpt>
      <trkpt lat="44.43477" lon="4.5128">
        <ele>458.60000610352</ele>
        <time>2013-02-27T14:09:19.000Z</time>
      </trkpt>
      <trkpt lat="44.43477" lon="4.51278">
        <ele>459.20001220703</ele>
        <time>2013-02-27T14:09:20.000Z</time>
      </trkpt>
      <trkpt lat="44.43476" lon="4.51277">
        <ele>459.60000610352</ele>
        <time>2013-02-27T14:09:21.000Z</time>
      </trkpt>
      <trkpt lat="44.43475" lon="4.51275">
        <ele>460.20001220703</ele>
        <time>2013-02-27T14:09:22.000Z</time>
      </trkpt>
      <trkpt lat="44.43474" lon="4.51273">
        <ele>460.60000610352</ele>
        <time>2013-02-27T14:09:23.000Z</time>
      </trkpt>
      <trkpt lat="44.43473" lon="4.51272">
        <ele>460.20001220703</ele>
        <time>2013-02-27T14:09:24.000Z</time>
      </trkpt>
      <trkpt lat="44.43473" lon="4.5127">
        <ele>460.20001220703</ele>
        <time>2013-02-27T14:09:25.000Z</time>
      </trkpt>
      <trkpt lat="44.43472" lon="4.51268">
        <ele>460.60000610352</ele>
        <time>2013-02-27T14:09:26.000Z</time>
      </trkpt>
      <trkpt lat="44.43471" lon="4.51266">
        <ele>461</ele>
        <time>2013-02-27T14:09:27.000Z</time>
      </trkpt>
      <trkpt lat="44.4347" lon="4.51265">
        <ele>461</ele>
        <time>2013-02-27T14:09:28.000Z</time>
      </trkpt>
      <trkpt lat="44.43469" lon="4.51263">
        <ele>461.60000610352</ele>
        <time>2013-02-27T14:09:29.000Z</time>
      </trkpt>
      <trkpt lat="44.43468" lon="4.51262">
        <ele>461.60000610352</ele>
        <time>2013-02-27T14:09:30.000Z</time>
      </trkpt>
      <trkpt lat="44.43468" lon="4.5126">
        <ele>461.60000610352</ele>
        <time>2013-02-27T14:09:31.000Z</time>
      </trkpt>
      <trkpt lat="44.43467" lon="4.51259">
        <ele>461</ele>
        <time>2013-02-27T14:09:32.000Z</time>
      </trkpt>
      <trkpt lat="44.43466" lon="4.51257">
        <ele>461</ele>
        <time>2013-02-27T14:09:33.000Z</time>
      </trkpt>
      <trkpt lat="44.43465" lon="4.51256">
        <ele>461</ele>
        <time>2013-02-27T14:09:34.000Z</time>
      </trkpt>
      <trkpt lat="44.43465" lon="4.51255">
        <ele>461</ele>
        <time>2013-02-27T14:09:35.000Z</time>
      </trkpt>
      <trkpt lat="44.43464" lon="4.51253">
        <ele>460.60000610352</ele>
        <time>2013-02-27T14:09:36.000Z</time>
      </trkpt>
      <trkpt lat="44.43463" lon="4.51252">
        <ele>460.60000610352</ele>
        <time>2013-02-27T14:09:37.000Z</time>
      </trkpt>
      <trkpt lat="44.43463" lon="4.5125">
        <ele>460.60000610352</ele>
        <time>2013-02-27T14:09:38.000Z</time>
      </trkpt>
      <trkpt lat="44.43462" lon="4.51249">
        <ele>460.60000610352</ele>
        <time>2013-02-27T14:09:39.000Z</time>
      </trkpt>
      <trkpt lat="44.43461" lon="4.51247">
        <ele>460.60000610352</ele>
        <time>2013-02-27T14:09:40.000Z</time>
      </trkpt>
      <trkpt lat="44.4346" lon="4.51246">
        <ele>460.60000610352</ele>
        <time>2013-02-27T14:09:41.000Z</time>
      </trkpt>
      <trkpt lat="44.4346" lon="4.51244">
        <ele>460.60000610352</ele>
        <time>2013-02-27T14:09:42.000Z</time>
      </trkpt>
      <trkpt lat="44.43459" lon="4.51243">
        <ele>460.60000610352</ele>
        <time>2013-02-27T14:09:43.000Z</time>
      </trkpt>
      <trkpt lat="44.43458" lon="4.51242">
        <ele>460.20001220703</ele>
        <time>2013-02-27T14:09:44.000Z</time>
      </trkpt>
      <trkpt lat="44.43457" lon="4.5124">
        <ele>460.20001220703</ele>
        <time>2013-02-27T14:09:45.000Z</time>
      </trkpt>
      <trkpt lat="44.43457" lon="4.51239">
        <ele>460.20001220703</ele>
        <time>2013-02-27T14:09:46.000Z</time>
      </trkpt>
      <trkpt lat="44.43456" lon="4.51238">
        <ele>460.20001220703</ele>
        <time>2013-02-27T14:09:47.000Z</time>
      </trkpt>
      <trkpt lat="44.43455" lon="4.51236">
        <ele>460.20001220703</ele>
        <time>2013-02-27T14:09:48.000Z</time>
      </trkpt>
      <trkpt lat="44.43455" lon="4.51235">
        <ele>460.20001220703</ele>
        <time>2013-02-27T14:09:49.000Z</time>
      </trkpt>
      <trkpt lat="44.43454" lon="4.51234">
        <ele>459.60000610352</ele>
        <time>2013-02-27T14:09:50.000Z</time>
      </trkpt>
      <trkpt lat="44.43453" lon="4.51232">
        <ele>459.60000610352</ele>
        <time>2013-02-27T14:09:51.000Z</time>
      </trkpt>
      <trkpt lat="44.43453" lon="4.51231">
        <ele>459.60000610352</ele>
        <time>2013-02-27T14:09:52.000Z</time>
      </trkpt>
      <trkpt lat="44.43452" lon="4.51229">
        <ele>459.60000610352</ele>
        <time>2013-02-27T14:09:53.000Z</time>
      </trkpt>
      <trkpt lat="44.43451" lon="4.51228">
        <ele>459.20001220703</ele>
        <time>2013-02-27T14:09:54.000Z</time>
      </trkpt>
      <trkpt lat="44.4345" lon="4.51226">
        <ele>460.20001220703</ele>
        <time>2013-02-27T14:09:55.000Z</time>
      </trkpt>
      <trkpt lat="44.43449" lon="4.51224">
        <ele>460.20001220703</ele>
        <time>2013-02-27T14:09:56.000Z</time>
      </trkpt>
      <trkpt lat="44.43448" lon="4.51223">
        <ele>460.60000610352</ele>
        <time>2013-02-27T14:09:57.000Z</time>
      </trkpt>
      <trkpt lat="44.43447" lon="4.51221">
        <ele>460.60000610352</ele>
        <time>2013-02-27T14:09:58.000Z</time>
      </trkpt>
      <trkpt lat="44.43446" lon="4.5122">
        <ele>460.60000610352</ele>
        <time>2013-02-27T14:09:59.000Z</time>
      </trkpt>
      <trkpt lat="44.43445" lon="4.51218">
        <ele>461</ele>
        <time>2013-02-27T14:10:00.000Z</time>
      </trkpt>
      <trkpt lat="44.43445" lon="4.51217">
        <ele>461</ele>
        <time>2013-02-27T14:10:01.000Z</time>
      </trkpt>
      <trkpt lat="44.43443" lon="4.51215">
        <ele>461.60000610352</ele>
        <time>2013-02-27T14:10:02.000Z</time>
      </trkpt>
      <trkpt lat="44.43442" lon="4.51213">
        <ele>462</ele>
        <time>2013-02-27T14:10:03.000Z</time>
      </trkpt>
      <trkpt lat="44.43442" lon="4.51211">
        <ele>462</ele>
        <time>2013-02-27T14:10:04.000Z</time>
      </trkpt>
      <trkpt lat="44.43441" lon="4.51209">
        <ele>462.60000610352</ele>
        <time>2013-02-27T14:10:05.000Z</time>
      </trkpt>
      <trkpt lat="44.4344" lon="4.51208">
        <ele>462.60000610352</ele>
        <time>2013-02-27T14:10:06.000Z</time>
      </trkpt>
      <trkpt lat="44.43439" lon="4.51206">
        <ele>462.60000610352</ele>
        <time>2013-02-27T14:10:07.000Z</time>
      </trkpt>
      <trkpt lat="44.43438" lon="4.51204">
        <ele>463</ele>
        <time>2013-02-27T14:10:08.000Z</time>
      </trkpt>
      <trkpt lat="44.43438" lon="4.51202">
        <ele>463</ele>
        <time>2013-02-27T14:10:09.000Z</time>
      </trkpt>
      <trkpt lat="44.43437" lon="4.51201">
        <ele>463</ele>
        <time>2013-02-27T14:10:10.000Z</time>
      </trkpt>
      <trkpt lat="44.43436" lon="4.51199">
        <ele>463.39999389648</ele>
        <time>2013-02-27T14:10:11.000Z</time>
      </trkpt>
      <trkpt lat="44.43436" lon="4.51198">
        <ele>463.39999389648</ele>
        <time>2013-02-27T14:10:12.000Z</time>
      </trkpt>
      <trkpt lat="44.43435" lon="4.51196">
        <ele>463.39999389648</ele>
        <time>2013-02-27T14:10:13.000Z</time>
      </trkpt>
      <trkpt lat="44.43434" lon="4.51195">
        <ele>463.39999389648</ele>
        <time>2013-02-27T14:10:14.000Z</time>
      </trkpt>
      <trkpt lat="44.43434" lon="4.51193">
        <ele>463</ele>
        <time>2013-02-27T14:10:15.000Z</time>
      </trkpt>
      <trkpt lat="44.43433" lon="4.51192">
        <ele>463</ele>
        <time>2013-02-27T14:10:16.000Z</time>
      </trkpt>
      <trkpt lat="44.43433" lon="4.5119">
        <ele>463</ele>
        <time>2013-02-27T14:10:17.000Z</time>
      </trkpt>
      <trkpt lat="44.43432" lon="4.51189">
        <ele>462.60000610352</ele>
        <time>2013-02-27T14:10:18.000Z</time>
      </trkpt>
      <trkpt lat="44.43431" lon="4.51187">
        <ele>463</ele>
        <time>2013-02-27T14:10:19.000Z</time>
      </trkpt>
      <trkpt lat="44.43431" lon="4.51186">
        <ele>462.60000610352</ele>
        <time>2013-02-27T14:10:20.000Z</time>
      </trkpt>
      <trkpt lat="44.4343" lon="4.51184">
        <ele>462</ele>
        <time>2013-02-27T14:10:21.000Z</time>
      </trkpt>
      <trkpt lat="44.4343" lon="4.51183">
        <ele>462</ele>
        <time>2013-02-27T14:10:22.000Z</time>
      </trkpt>
      <trkpt lat="44.43429" lon="4.51182">
        <ele>461</ele>
        <time>2013-02-27T14:10:23.000Z</time>
      </trkpt>
      <trkpt lat="44.43429" lon="4.5118">
        <ele>461.60000610352</ele>
        <time>2013-02-27T14:10:24.000Z</time>
      </trkpt>
      <trkpt lat="44.43428" lon="4.51178">
        <ele>461.60000610352</ele>
        <time>2013-02-27T14:10:25.000Z</time>
      </trkpt>
      <trkpt lat="44.43428" lon="4.51177">
        <ele>461.60000610352</ele>
        <time>2013-02-27T14:10:26.000Z</time>
      </trkpt>
      <trkpt lat="44.43427" lon="4.51175">
        <ele>461.60000610352</ele>
        <time>2013-02-27T14:10:27.000Z</time>
      </trkpt>
      <trkpt lat="44.43426" lon="4.51174">
        <ele>461.60000610352</ele>
        <time>2013-02-27T14:10:28.000Z</time>
      </trkpt>
      <trkpt lat="44.43426" lon="4.51172">
        <ele>460.60000610352</ele>
        <time>2013-02-27T14:10:29.000Z</time>
      </trkpt>
      <trkpt lat="44.43425" lon="4.51171">
        <ele>460.20001220703</ele>
        <time>2013-02-27T14:10:30.000Z</time>
      </trkpt>
      <trkpt lat="44.43425" lon="4.5117">
        <ele>459.60000610352</ele>
        <time>2013-02-27T14:10:31.000Z</time>
      </trkpt>
      <trkpt lat="44.43424" lon="4.51169">
        <ele>459.20001220703</ele>
        <time>2013-02-27T14:10:32.000Z</time>
      </trkpt>
      <trkpt lat="44.43423" lon="4.51167">
        <ele>460.20001220703</ele>
        <time>2013-02-27T14:10:33.000Z</time>
      </trkpt>
      <trkpt lat="44.43422" lon="4.51165">
        <ele>460.20001220703</ele>
        <time>2013-02-27T14:10:34.000Z</time>
      </trkpt>
      <trkpt lat="44.43421" lon="4.51164">
        <ele>460.20001220703</ele>
        <time>2013-02-27T14:10:35.000Z</time>
      </trkpt>
      <trkpt lat="44.4342" lon="4.51163">
        <ele>459.60000610352</ele>
        <time>2013-02-27T14:10:36.000Z</time>
      </trkpt>
      <trkpt lat="44.43419" lon="4.51161">
        <ele>460.20001220703</ele>
        <time>2013-02-27T14:10:37.000Z</time>
      </trkpt>
      <trkpt lat="44.43418" lon="4.5116">
        <ele>460.20001220703</ele>
        <time>2013-02-27T14:10:38.000Z</time>
      </trkpt>
      <trkpt lat="44.43417" lon="4.51158">
        <ele>460.20001220703</ele>
        <time>2013-02-27T14:10:39.000Z</time>
      </trkpt>
      <trkpt lat="44.43416" lon="4.51157">
        <ele>460.60000610352</ele>
        <time>2013-02-27T14:10:40.000Z</time>
      </trkpt>
      <trkpt lat="44.43415" lon="4.51155">
        <ele>460.60000610352</ele>
        <time>2013-02-27T14:10:41.000Z</time>
      </trkpt>
      <trkpt lat="44.43415" lon="4.51154">
        <ele>460.20001220703</ele>
        <time>2013-02-27T14:10:42.000Z</time>
      </trkpt>
      <trkpt lat="44.43414" lon="4.51153">
        <ele>460.60000610352</ele>
        <time>2013-02-27T14:10:43.000Z</time>
      </trkpt>
      <trkpt lat="44.43413" lon="4.51152">
        <ele>460.60000610352</ele>
        <time>2013-02-27T14:10:44.000Z</time>
      </trkpt>
      <trkpt lat="44.43412" lon="4.51152">
        <ele>460.20001220703</ele>
        <time>2013-02-27T14:10:45.000Z</time>
      </trkpt>
      <trkpt lat="44.43411" lon="4.51151">
        <ele>459.60000610352</ele>
        <time>2013-02-27T14:10:46.000Z</time>
      </trkpt>
      <trkpt lat="44.4341" lon="4.51149">
        <ele>460.20001220703</ele>
        <time>2013-02-27T14:10:47.000Z</time>
      </trkpt>
      <trkpt lat="44.43408" lon="4.51148">
        <ele>460.20001220703</ele>
        <time>2013-02-27T14:10:48.000Z</time>
      </trkpt>
      <trkpt lat="44.43407" lon="4.51147">
        <ele>460.20001220703</ele>
        <time>2013-02-27T14:10:49.000Z</time>
      </trkpt>
      <trkpt lat="44.43406" lon="4.51146">
        <ele>461</ele>
        <time>2013-02-27T14:10:50.000Z</time>
      </trkpt>
      <trkpt lat="44.43404" lon="4.51145">
        <ele>461</ele>
        <time>2013-02-27T14:10:51.000Z</time>
      </trkpt>
      <trkpt lat="44.43403" lon="4.51145">
        <ele>461</ele>
        <time>2013-02-27T14:10:52.000Z</time>
      </trkpt>
      <trkpt lat="44.43402" lon="4.51145">
        <ele>461</ele>
        <time>2013-02-27T14:10:53.000Z</time>
      </trkpt>
      <trkpt lat="44.434" lon="4.51145">
        <ele>461</ele>
        <time>2013-02-27T14:10:54.000Z</time>
      </trkpt>
      <trkpt lat="44.43399" lon="4.51144">
        <ele>461</ele>
        <time>2013-02-27T14:10:55.000Z</time>
      </trkpt>
      <trkpt lat="44.43398" lon="4.51145">
        <ele>461.60000610352</ele>
        <time>2013-02-27T14:10:56.000Z</time>
      </trkpt>
      <trkpt lat="44.43396" lon="4.51145">
        <ele>463</ele>
        <time>2013-02-27T14:10:57.000Z</time>
      </trkpt>
      <trkpt lat="44.43395" lon="4.51145">
        <ele>464</ele>
        <time>2013-02-27T14:10:58.000Z</time>
      </trkpt>
      <trkpt lat="44.43394" lon="4.51146">
        <ele>463.39999389648</ele>
        <time>2013-02-27T14:10:59.000Z</time>
      </trkpt>
      <trkpt lat="44.43393" lon="4.51146">
        <ele>463</ele>
        <time>2013-02-27T14:11:00.000Z</time>
      </trkpt>
      <trkpt lat="44.43392" lon="4.51147">
        <ele>463</ele>
        <time>2013-02-27T14:11:01.000Z</time>
      </trkpt>
      <trkpt lat="44.43391" lon="4.51148">
        <ele>463</ele>
        <time>2013-02-27T14:11:02.000Z</time>
      </trkpt>
      <trkpt lat="44.4339" lon="4.51149">
        <ele>462.60000610352</ele>
        <time>2013-02-27T14:11:03.000Z</time>
      </trkpt>
      <trkpt lat="44.43389" lon="4.5115">
        <ele>462.60000610352</ele>
        <time>2013-02-27T14:11:04.000Z</time>
      </trkpt>
      <trkpt lat="44.43388" lon="4.51151">
        <ele>462.60000610352</ele>
        <time>2013-02-27T14:11:05.000Z</time>
      </trkpt>
      <trkpt lat="44.43388" lon="4.51152">
        <ele>462.60000610352</ele>
        <time>2013-02-27T14:11:06.000Z</time>
      </trkpt>
      <trkpt lat="44.43387" lon="4.51152">
        <ele>462.60000610352</ele>
        <time>2013-02-27T14:11:07.000Z</time>
      </trkpt>
      <trkpt lat="44.43386" lon="4.51154">
        <ele>462</ele>
        <time>2013-02-27T14:11:08.000Z</time>
      </trkpt>
      <trkpt lat="44.43386" lon="4.51155">
        <ele>462</ele>
        <time>2013-02-27T14:11:09.000Z</time>
      </trkpt>
      <trkpt lat="44.43385" lon="4.51157">
        <ele>462</ele>
        <time>2013-02-27T14:11:10.000Z</time>
      </trkpt>
      <trkpt lat="44.43383" lon="4.51158">
        <ele>461.60000610352</ele>
        <time>2013-02-27T14:11:11.000Z</time>
      </trkpt>
      <trkpt lat="44.43382" lon="4.5116">
        <ele>462</ele>
        <time>2013-02-27T14:11:12.000Z</time>
      </trkpt>
      <trkpt lat="44.43381" lon="4.51161">
        <ele>462</ele>
        <time>2013-02-27T14:11:13.000Z</time>
      </trkpt>
      <trkpt lat="44.4338" lon="4.51163">
        <ele>462</ele>
        <time>2013-02-27T14:11:14.000Z</time>
      </trkpt>
      <trkpt lat="44.4338" lon="4.51164">
        <ele>462</ele>
        <time>2013-02-27T14:11:15.000Z</time>
      </trkpt>
      <trkpt lat="44.43379" lon="4.51165">
        <ele>462</ele>
        <time>2013-02-27T14:11:16.000Z</time>
      </trkpt>
      <trkpt lat="44.43379" lon="4.51167">
        <ele>462</ele>
        <time>2013-02-27T14:11:17.000Z</time>
      </trkpt>
      <trkpt lat="44.43378" lon="4.51168">
        <ele>462.60000610352</ele>
        <time>2013-02-27T14:11:18.000Z</time>
      </trkpt>
      <trkpt lat="44.43377" lon="4.5117">
        <ele>463</ele>
        <time>2013-02-27T14:11:19.000Z</time>
      </trkpt>
      <trkpt lat="44.43376" lon="4.51172">
        <ele>463</ele>
        <time>2013-02-27T14:11:20.000Z</time>
      </trkpt>
      <trkpt lat="44.43376" lon="4.51173">
        <ele>463</ele>
        <time>2013-02-27T14:11:21.000Z</time>
      </trkpt>
      <trkpt lat="44.43376" lon="4.51174">
        <ele>463</ele>
        <time>2013-02-27T14:11:22.000Z</time>
      </trkpt>
      <trkpt lat="44.43375" lon="4.51175">
        <ele>462.60000610352</ele>
        <time>2013-02-27T14:11:23.000Z</time>
      </trkpt>
      <trkpt lat="44.43374" lon="4.51177">
        <ele>462.60000610352</ele>
        <time>2013-02-27T14:11:24.000Z</time>
      </trkpt>
      <trkpt lat="44.43374" lon="4.51178">
        <ele>462.60000610352</ele>
        <time>2013-02-27T14:11:25.000Z</time>
      </trkpt>
      <trkpt lat="44.43373" lon="4.5118">
        <ele>462.60000610352</ele>
        <time>2013-02-27T14:11:26.000Z</time>
      </trkpt>
      <trkpt lat="44.43372" lon="4.51181">
        <ele>462.60000610352</ele>
        <time>2013-02-27T14:11:27.000Z</time>
      </trkpt>
      <trkpt lat="44.43372" lon="4.51182">
        <ele>462.60000610352</ele>
        <time>2013-02-27T14:11:28.000Z</time>
      </trkpt>
      <trkpt lat="44.43371" lon="4.51184">
        <ele>464</ele>
        <time>2013-02-27T14:11:29.000Z</time>
      </trkpt>
      <trkpt lat="44.43371" lon="4.51186">
        <ele>464</ele>
        <time>2013-02-27T14:11:30.000Z</time>
      </trkpt>
      <trkpt lat="44.4337" lon="4.51187">
        <ele>464</ele>
        <time>2013-02-27T14:11:31.000Z</time>
      </trkpt>
      <trkpt lat="44.43369" lon="4.51189">
        <ele>464</ele>
        <time>2013-02-27T14:11:32.000Z</time>
      </trkpt>
      <trkpt lat="44.43369" lon="4.51191">
        <ele>464</ele>
        <time>2013-02-27T14:11:33.000Z</time>
      </trkpt>
      <trkpt lat="44.43368" lon="4.51192">
        <ele>464.39999389648</ele>
        <time>2013-02-27T14:11:34.000Z</time>
      </trkpt>
      <trkpt lat="44.43367" lon="4.51194">
        <ele>464.39999389648</ele>
        <time>2013-02-27T14:11:35.000Z</time>
      </trkpt>
      <trkpt lat="44.43367" lon="4.51196">
        <ele>464.39999389648</ele>
        <time>2013-02-27T14:11:36.000Z</time>
      </trkpt>
      <trkpt lat="44.43366" lon="4.51197">
        <ele>464.39999389648</ele>
        <time>2013-02-27T14:11:37.000Z</time>
      </trkpt>
      <trkpt lat="44.43366" lon="4.51199">
        <ele>464.39999389648</ele>
        <time>2013-02-27T14:11:38.000Z</time>
      </trkpt>
      <trkpt lat="44.43365" lon="4.512">
        <ele>465</ele>
        <time>2013-02-27T14:11:39.000Z</time>
      </trkpt>
      <trkpt lat="44.43365" lon="4.51202">
        <ele>465</ele>
        <time>2013-02-27T14:11:40.000Z</time>
      </trkpt>
      <trkpt lat="44.43364" lon="4.51203">
        <ele>465</ele>
        <time>2013-02-27T14:11:41.000Z</time>
      </trkpt>
      <trkpt lat="44.43364" lon="4.51205">
        <ele>465</ele>
        <time>2013-02-27T14:11:42.000Z</time>
      </trkpt>
      <trkpt lat="44.43363" lon="4.51206">
        <ele>465</ele>
        <time>2013-02-27T14:11:43.000Z</time>
      </trkpt>
      <trkpt lat="44.43362" lon="4.51208">
        <ele>464.39999389648</ele>
        <time>2013-02-27T14:11:44.000Z</time>
      </trkpt>
      <trkpt lat="44.43362" lon="4.51209">
        <ele>464.39999389648</ele>
        <time>2013-02-27T14:11:45.000Z</time>
      </trkpt>
      <trkpt lat="44.43361" lon="4.51211">
        <ele>464.39999389648</ele>
        <time>2013-02-27T14:11:46.000Z</time>
      </trkpt>
      <trkpt lat="44.4336" lon="4.51212">
        <ele>463.39999389648</ele>
        <time>2013-02-27T14:11:47.000Z</time>
      </trkpt>
      <trkpt lat="44.4336" lon="4.51213">
        <ele>463.39999389648</ele>
        <time>2013-02-27T14:11:48.000Z</time>
      </trkpt>
      <trkpt lat="44.43359" lon="4.51215">
        <ele>463.39999389648</ele>
        <time>2013-02-27T14:11:49.000Z</time>
      </trkpt>
      <trkpt lat="44.43359" lon="4.51216">
        <ele>463</ele>
        <time>2013-02-27T14:11:50.000Z</time>
      </trkpt>
      <trkpt lat="44.43358" lon="4.51218">
        <ele>463</ele>
        <time>2013-02-27T14:11:51.000Z</time>
      </trkpt>
      <trkpt lat="44.43357" lon="4.51219">
        <ele>462.60000610352</ele>
        <time>2013-02-27T14:11:52.000Z</time>
      </trkpt>
      <trkpt lat="44.43357" lon="4.5122">
        <ele>462.60000610352</ele>
        <time>2013-02-27T14:11:53.000Z</time>
      </trkpt>
      <trkpt lat="44.43356" lon="4.51222">
        <ele>462</ele>
        <time>2013-02-27T14:11:54.000Z</time>
      </trkpt>
      <trkpt lat="44.43356" lon="4.51223">
        <ele>462</ele>
        <time>2013-02-27T14:11:55.000Z</time>
      </trkpt>
      <trkpt lat="44.43355" lon="4.51225">
        <ele>462</ele>
        <time>2013-02-27T14:11:56.000Z</time>
      </trkpt>
      <trkpt lat="44.43355" lon="4.51226">
        <ele>461.60000610352</ele>
        <time>2013-02-27T14:11:57.000Z</time>
      </trkpt>
      <trkpt lat="44.43354" lon="4.51227">
        <ele>461.60000610352</ele>
        <time>2013-02-27T14:11:58.000Z</time>
      </trkpt>
      <trkpt lat="44.43353" lon="4.51229">
        <ele>461.60000610352</ele>
        <time>2013-02-27T14:11:59.000Z</time>
      </trkpt>
      <trkpt lat="44.43352" lon="4.5123">
        <ele>461</ele>
        <time>2013-02-27T14:12:00.000Z</time>
      </trkpt>
      <trkpt lat="44.43352" lon="4.51232">
        <ele>461</ele>
        <time>2013-02-27T14:12:01.000Z</time>
      </trkpt>
      <trkpt lat="44.43351" lon="4.51233">
        <ele>461.60000610352</ele>
        <time>2013-02-27T14:12:02.000Z</time>
      </trkpt>
      <trkpt lat="44.4335" lon="4.51235">
        <ele>461</ele>
        <time>2013-02-27T14:12:03.000Z</time>
      </trkpt>
      <trkpt lat="44.4335" lon="4.51237">
        <ele>461</ele>
        <time>2013-02-27T14:12:04.000Z</time>
      </trkpt>
      <trkpt lat="44.43349" lon="4.51238">
        <ele>460.60000610352</ele>
        <time>2013-02-27T14:12:05.000Z</time>
      </trkpt>
      <trkpt lat="44.43349" lon="4.5124">
        <ele>460.60000610352</ele>
        <time>2013-02-27T14:12:06.000Z</time>
      </trkpt>
      <trkpt lat="44.43348" lon="4.51242">
        <ele>460.20001220703</ele>
        <time>2013-02-27T14:12:07.000Z</time>
      </trkpt>
      <trkpt lat="44.43347" lon="4.51243">
        <ele>460.20001220703</ele>
        <time>2013-02-27T14:12:08.000Z</time>
      </trkpt>
      <trkpt lat="44.43347" lon="4.51244">
        <ele>459.60000610352</ele>
        <time>2013-02-27T14:12:09.000Z</time>
      </trkpt>
      <trkpt lat="44.43346" lon="4.51246">
        <ele>459.60000610352</ele>
        <time>2013-02-27T14:12:10.000Z</time>
      </trkpt>
      <trkpt lat="44.43346" lon="4.51248">
        <ele>459.60000610352</ele>
        <time>2013-02-27T14:12:11.000Z</time>
      </trkpt>
      <trkpt lat="44.43346" lon="4.51249">
        <ele>459.60000610352</ele>
        <time>2013-02-27T14:12:12.000Z</time>
      </trkpt>
      <trkpt lat="44.43345" lon="4.51251">
        <ele>460.20001220703</ele>
        <time>2013-02-27T14:12:13.000Z</time>
      </trkpt>
      <trkpt lat="44.43345" lon="4.51252">
        <ele>460.20001220703</ele>
        <time>2013-02-27T14:12:14.000Z</time>
      </trkpt>
      <trkpt lat="44.43344" lon="4.51254">
        <ele>460.20001220703</ele>
        <time>2013-02-27T14:12:15.000Z</time>
      </trkpt>
      <trkpt lat="44.43343" lon="4.51255">
        <ele>460.20001220703</ele>
        <time>2013-02-27T14:12:16.000Z</time>
      </trkpt>
      <trkpt lat="44.43343" lon="4.51257">
        <ele>460.20001220703</ele>
        <time>2013-02-27T14:12:17.000Z</time>
      </trkpt>
      <trkpt lat="44.43342" lon="4.51258">
        <ele>460.20001220703</ele>
        <time>2013-02-27T14:12:18.000Z</time>
      </trkpt>
      <trkpt lat="44.43342" lon="4.5126">
        <ele>460.60000610352</ele>
        <time>2013-02-27T14:12:19.000Z</time>
      </trkpt>
      <trkpt lat="44.43342" lon="4.51261">
        <ele>460.60000610352</ele>
        <time>2013-02-27T14:12:20.000Z</time>
      </trkpt>
      <trkpt lat="44.43341" lon="4.51263">
        <ele>460.60000610352</ele>
        <time>2013-02-27T14:12:21.000Z</time>
      </trkpt>
      <trkpt lat="44.4334" lon="4.51264">
        <ele>460.60000610352</ele>
        <time>2013-02-27T14:12:22.000Z</time>
      </trkpt>
      <trkpt lat="44.4334" lon="4.51266">
        <ele>460.60000610352</ele>
        <time>2013-02-27T14:12:23.000Z</time>
      </trkpt>
      <trkpt lat="44.43339" lon="4.51268">
        <ele>460.60000610352</ele>
        <time>2013-02-27T14:12:24.000Z</time>
      </trkpt>
      <trkpt lat="44.43339" lon="4.5127">
        <ele>460.60000610352</ele>
        <time>2013-02-27T14:12:25.000Z</time>
      </trkpt>
      <trkpt lat="44.43338" lon="4.51271">
        <ele>460.60000610352</ele>
        <time>2013-02-27T14:12:26.000Z</time>
      </trkpt>
      <trkpt lat="44.43338" lon="4.51273">
        <ele>460.60000610352</ele>
        <time>2013-02-27T14:12:27.000Z</time>
      </trkpt>
      <trkpt lat="44.43337" lon="4.51274">
        <ele>460.60000610352</ele>
        <time>2013-02-27T14:12:28.000Z</time>
      </trkpt>
      <trkpt lat="44.43337" lon="4.51276">
        <ele>461</ele>
        <time>2013-02-27T14:12:29.000Z</time>
      </trkpt>
      <trkpt lat="44.43336" lon="4.51277">
        <ele>460.60000610352</ele>
        <time>2013-02-27T14:12:30.000Z</time>
      </trkpt>
      <trkpt lat="44.43335" lon="4.51279">
        <ele>460.60000610352</ele>
        <time>2013-02-27T14:12:31.000Z</time>
      </trkpt>
      <trkpt lat="44.43335" lon="4.5128">
        <ele>460.60000610352</ele>
        <time>2013-02-27T14:12:32.000Z</time>
      </trkpt>
      <trkpt lat="44.43335" lon="4.51281">
        <ele>460.20001220703</ele>
        <time>2013-02-27T14:12:33.000Z</time>
      </trkpt>
      <trkpt lat="44.43334" lon="4.51283">
        <ele>460.20001220703</ele>
        <time>2013-02-27T14:12:34.000Z</time>
      </trkpt>
      <trkpt lat="44.43334" lon="4.51284">
        <ele>460.20001220703</ele>
        <time>2013-02-27T14:12:35.000Z</time>
      </trkpt>
      <trkpt lat="44.43333" lon="4.51286">
        <ele>460.20001220703</ele>
        <time>2013-02-27T14:12:36.000Z</time>
      </trkpt>
      <trkpt lat="44.43332" lon="4.51287">
        <ele>459.60000610352</ele>
        <time>2013-02-27T14:12:37.000Z</time>
      </trkpt>
      <trkpt lat="44.43332" lon="4.51288">
        <ele>459.20001220703</ele>
        <time>2013-02-27T14:12:38.000Z</time>
      </trkpt>
      <trkpt lat="44.43331" lon="4.5129">
        <ele>459.20001220703</ele>
        <time>2013-02-27T14:12:39.000Z</time>
      </trkpt>
      <trkpt lat="44.4333" lon="4.51292">
        <ele>459.60000610352</ele>
        <time>2013-02-27T14:12:40.000Z</time>
      </trkpt>
      <trkpt lat="44.4333" lon="4.51293">
        <ele>460.20001220703</ele>
        <time>2013-02-27T14:12:41.000Z</time>
      </trkpt>
      <trkpt lat="44.43329" lon="4.51295">
        <ele>459.60000610352</ele>
        <time>2013-02-27T14:12:42.000Z</time>
      </trkpt>
      <trkpt lat="44.43328" lon="4.51297">
        <ele>460.20001220703</ele>
        <time>2013-02-27T14:12:43.000Z</time>
      </trkpt>
      <trkpt lat="44.43328" lon="4.51298">
        <ele>460.20001220703</ele>
        <time>2013-02-27T14:12:44.000Z</time>
      </trkpt>
      <trkpt lat="44.43327" lon="4.513">
        <ele>460.20001220703</ele>
        <time>2013-02-27T14:12:45.000Z</time>
      </trkpt>
      <trkpt lat="44.43326" lon="4.51302">
        <ele>460.20001220703</ele>
        <time>2013-02-27T14:12:46.000Z</time>
      </trkpt>
      <trkpt lat="44.43326" lon="4.51303">
        <ele>460.20001220703</ele>
        <time>2013-02-27T14:12:47.000Z</time>
      </trkpt>
      <trkpt lat="44.43325" lon="4.51305">
        <ele>460.20001220703</ele>
        <time>2013-02-27T14:12:48.000Z</time>
      </trkpt>
      <trkpt lat="44.43324" lon="4.51307">
        <ele>460.20001220703</ele>
        <time>2013-02-27T14:12:49.000Z</time>
      </trkpt>
      <trkpt lat="44.43324" lon="4.51308">
        <ele>460.60000610352</ele>
        <time>2013-02-27T14:12:50.000Z</time>
      </trkpt>
      <trkpt lat="44.43323" lon="4.5131">
        <ele>460.60000610352</ele>
        <time>2013-02-27T14:12:51.000Z</time>
      </trkpt>
      <trkpt lat="44.43322" lon="4.51312">
        <ele>461</ele>
        <time>2013-02-27T14:12:52.000Z</time>
      </trkpt>
      <trkpt lat="44.43322" lon="4.51314">
        <ele>461</ele>
        <time>2013-02-27T14:12:53.000Z</time>
      </trkpt>
      <trkpt lat="44.43321" lon="4.51316">
        <ele>461.60000610352</ele>
        <time>2013-02-27T14:12:54.000Z</time>
      </trkpt>
      <trkpt lat="44.4332" lon="4.51318">
        <ele>461.60000610352</ele>
        <time>2013-02-27T14:12:55.000Z</time>
      </trkpt>
      <trkpt lat="44.43319" lon="4.5132">
        <ele>462</ele>
        <time>2013-02-27T14:12:56.000Z</time>
      </trkpt>
      <trkpt lat="44.43318" lon="4.51322">
        <ele>462.60000610352</ele>
        <time>2013-02-27T14:12:57.000Z</time>
      </trkpt>
      <trkpt lat="44.43317" lon="4.51323">
        <ele>462.60000610352</ele>
        <time>2013-02-27T14:12:58.000Z</time>
      </trkpt>
      <trkpt lat="44.43317" lon="4.51325">
        <ele>462.60000610352</ele>
        <time>2013-02-27T14:12:59.000Z</time>
      </trkpt>
      <trkpt lat="44.43316" lon="4.51326">
        <ele>463</ele>
        <time>2013-02-27T14:13:00.000Z</time>
      </trkpt>
      <trkpt lat="44.43315" lon="4.51327">
        <ele>463</ele>
        <time>2013-02-27T14:13:01.000Z</time>
      </trkpt>
      <trkpt lat="44.43315" lon="4.51328">
        <ele>463</ele>
        <time>2013-02-27T14:13:02.000Z</time>
      </trkpt>
      <trkpt lat="44.43314" lon="4.51329">
        <ele>463</ele>
        <time>2013-02-27T14:13:03.000Z</time>
      </trkpt>
      <trkpt lat="44.43313" lon="4.5133">
        <ele>463.39999389648</ele>
        <time>2013-02-27T14:13:04.000Z</time>
      </trkpt>
      <trkpt lat="44.43312" lon="4.51331">
        <ele>463.39999389648</ele>
        <time>2013-02-27T14:13:05.000Z</time>
      </trkpt>
      <trkpt lat="44.43311" lon="4.51332">
        <ele>464</ele>
        <time>2013-02-27T14:13:06.000Z</time>
      </trkpt>
      <trkpt lat="44.4331" lon="4.51333">
        <ele>465</ele>
        <time>2013-02-27T14:13:07.000Z</time>
      </trkpt>
      <trkpt lat="44.43309" lon="4.51335">
        <ele>465.39999389648</ele>
        <time>2013-02-27T14:13:08.000Z</time>
      </trkpt>
      <trkpt lat="44.43308" lon="4.51336">
        <ele>465.39999389648</ele>
        <time>2013-02-27T14:13:09.000Z</time>
      </trkpt>
      <trkpt lat="44.43307" lon="4.51336">
        <ele>465</ele>
        <time>2013-02-27T14:13:10.000Z</time>
      </trkpt>
      <trkpt lat="44.43306" lon="4.51337">
        <ele>465.39999389648</ele>
        <time>2013-02-27T14:13:11.000Z</time>
      </trkpt>
      <trkpt lat="44.43305" lon="4.51338">
        <ele>465</ele>
        <time>2013-02-27T14:13:12.000Z</time>
      </trkpt>
      <trkpt lat="44.43304" lon="4.51338">
        <ele>465.39999389648</ele>
        <time>2013-02-27T14:13:13.000Z</time>
      </trkpt>
      <trkpt lat="44.43303" lon="4.51339">
        <ele>465.39999389648</ele>
        <time>2013-02-27T14:13:14.000Z</time>
      </trkpt>
      <trkpt lat="44.43301" lon="4.5134">
        <ele>465.39999389648</ele>
        <time>2013-02-27T14:13:15.000Z</time>
      </trkpt>
      <trkpt lat="44.433" lon="4.51341">
        <ele>465.79998779297</ele>
        <time>2013-02-27T14:13:16.000Z</time>
      </trkpt>
      <trkpt lat="44.43299" lon="4.51341">
        <ele>466.39999389648</ele>
        <time>2013-02-27T14:13:17.000Z</time>
      </trkpt>
      <trkpt lat="44.43298" lon="4.51342">
        <ele>466.79998779297</ele>
        <time>2013-02-27T14:13:18.000Z</time>
      </trkpt>
      <trkpt lat="44.43297" lon="4.51342">
        <ele>467.39999389648</ele>
        <time>2013-02-27T14:13:19.000Z</time>
      </trkpt>
      <trkpt lat="44.43295" lon="4.51343">
        <ele>467.79998779297</ele>
        <time>2013-02-27T14:13:20.000Z</time>
      </trkpt>
      <trkpt lat="44.43294" lon="4.51343">
        <ele>468.20001220703</ele>
        <time>2013-02-27T14:13:21.000Z</time>
      </trkpt>
      <trkpt lat="44.43293" lon="4.51343">
        <ele>468.20001220703</ele>
        <time>2013-02-27T14:13:22.000Z</time>
      </trkpt>
      <trkpt lat="44.43292" lon="4.51343">
        <ele>468.79998779297</ele>
        <time>2013-02-27T14:13:23.000Z</time>
      </trkpt>
      <trkpt lat="44.4329" lon="4.51343">
        <ele>468.79998779297</ele>
        <time>2013-02-27T14:13:24.000Z</time>
      </trkpt>
      <trkpt lat="44.43289" lon="4.51343">
        <ele>469.20001220703</ele>
        <time>2013-02-27T14:13:25.000Z</time>
      </trkpt>
      <trkpt lat="44.43288" lon="4.51342">
        <ele>469.20001220703</ele>
        <time>2013-02-27T14:13:26.000Z</time>
      </trkpt>
      <trkpt lat="44.43287" lon="4.51342">
        <ele>469.79998779297</ele>
        <time>2013-02-27T14:13:27.000Z</time>
      </trkpt>
      <trkpt lat="44.43285" lon="4.51341">
        <ele>469.79998779297</ele>
        <time>2013-02-27T14:13:28.000Z</time>
      </trkpt>
      <trkpt lat="44.43284" lon="4.51341">
        <ele>469.79998779297</ele>
        <time>2013-02-27T14:13:29.000Z</time>
      </trkpt>
      <trkpt lat="44.43283" lon="4.51341">
        <ele>469.79998779297</ele>
        <time>2013-02-27T14:13:30.000Z</time>
      </trkpt>
      <trkpt lat="44.43282" lon="4.5134">
        <ele>470.20001220703</ele>
        <time>2013-02-27T14:13:31.000Z</time>
      </trkpt>
      <trkpt lat="44.4328" lon="4.51339">
        <ele>470.20001220703</ele>
        <time>2013-02-27T14:13:32.000Z</time>
      </trkpt>
      <trkpt lat="44.43279" lon="4.51339">
        <ele>470.20001220703</ele>
        <time>2013-02-27T14:13:33.000Z</time>
      </trkpt>
      <trkpt lat="44.43278" lon="4.51338">
        <ele>470.79998779297</ele>
        <time>2013-02-27T14:13:34.000Z</time>
      </trkpt>
      <trkpt lat="44.43277" lon="4.51337">
        <ele>470.79998779297</ele>
        <time>2013-02-27T14:13:35.000Z</time>
      </trkpt>
      <trkpt lat="44.43275" lon="4.51336">
        <ele>471.20001220703</ele>
        <time>2013-02-27T14:13:36.000Z</time>
      </trkpt>
      <trkpt lat="44.43274" lon="4.51336">
        <ele>471.20001220703</ele>
        <time>2013-02-27T14:13:37.000Z</time>
      </trkpt>
      <trkpt lat="44.43273" lon="4.51335">
        <ele>471.20001220703</ele>
        <time>2013-02-27T14:13:38.000Z</time>
      </trkpt>
      <trkpt lat="44.43271" lon="4.51334">
        <ele>471.20001220703</ele>
        <time>2013-02-27T14:13:39.000Z</time>
      </trkpt>
      <trkpt lat="44.4327" lon="4.51333">
        <ele>471.20001220703</ele>
        <time>2013-02-27T14:13:40.000Z</time>
      </trkpt>
      <trkpt lat="44.43269" lon="4.51332">
        <ele>471.20001220703</ele>
        <time>2013-02-27T14:13:41.000Z</time>
      </trkpt>
      <trkpt lat="44.43268" lon="4.51331">
        <ele>471.60000610352</ele>
        <time>2013-02-27T14:13:42.000Z</time>
      </trkpt>
      <trkpt lat="44.43267" lon="4.5133">
        <ele>471.20001220703</ele>
        <time>2013-02-27T14:13:43.000Z</time>
      </trkpt>
      <trkpt lat="44.43266" lon="4.51329">
        <ele>471.20001220703</ele>
        <time>2013-02-27T14:13:44.000Z</time>
      </trkpt>
      <trkpt lat="44.43265" lon="4.51328">
        <ele>471.20001220703</ele>
        <time>2013-02-27T14:13:45.000Z</time>
      </trkpt>
      <trkpt lat="44.43264" lon="4.51328">
        <ele>471.20001220703</ele>
        <time>2013-02-27T14:13:46.000Z</time>
      </trkpt>
      <trkpt lat="44.43262" lon="4.51327">
        <ele>471.20001220703</ele>
        <time>2013-02-27T14:13:47.000Z</time>
      </trkpt>
      <trkpt lat="44.43261" lon="4.51326">
        <ele>471.20001220703</ele>
        <time>2013-02-27T14:13:48.000Z</time>
      </trkpt>
      <trkpt lat="44.4326" lon="4.51325">
        <ele>470.79998779297</ele>
        <time>2013-02-27T14:13:49.000Z</time>
      </trkpt>
      <trkpt lat="44.43259" lon="4.51323">
        <ele>470.79998779297</ele>
        <time>2013-02-27T14:13:50.000Z</time>
      </trkpt>
      <trkpt lat="44.43258" lon="4.51322">
        <ele>470.79998779297</ele>
        <time>2013-02-27T14:13:51.000Z</time>
      </trkpt>
      <trkpt lat="44.43257" lon="4.51321">
        <ele>470.79998779297</ele>
        <time>2013-02-27T14:13:52.000Z</time>
      </trkpt>
      <trkpt lat="44.43256" lon="4.5132">
        <ele>470.79998779297</ele>
        <time>2013-02-27T14:13:53.000Z</time>
      </trkpt>
      <trkpt lat="44.43255" lon="4.51319">
        <ele>470.79998779297</ele>
        <time>2013-02-27T14:13:54.000Z</time>
      </trkpt>
      <trkpt lat="44.43254" lon="4.51317">
        <ele>470.79998779297</ele>
        <time>2013-02-27T14:13:55.000Z</time>
      </trkpt>
      <trkpt lat="44.43253" lon="4.51316">
        <ele>470.79998779297</ele>
        <time>2013-02-27T14:13:56.000Z</time>
      </trkpt>
      <trkpt lat="44.43252" lon="4.51315">
        <ele>470.79998779297</ele>
        <time>2013-02-27T14:13:57.000Z</time>
      </trkpt>
      <trkpt lat="44.43252" lon="4.51314">
        <ele>470.20001220703</ele>
        <time>2013-02-27T14:13:58.000Z</time>
      </trkpt>
      <trkpt lat="44.43251" lon="4.51312">
        <ele>469.79998779297</ele>
        <time>2013-02-27T14:13:59.000Z</time>
      </trkpt>
      <trkpt lat="44.4325" lon="4.51311">
        <ele>469.79998779297</ele>
        <time>2013-02-27T14:14:00.000Z</time>
      </trkpt>
      <trkpt lat="44.43249" lon="4.51309">
        <ele>469.79998779297</ele>
        <time>2013-02-27T14:14:01.000Z</time>
      </trkpt>
      <trkpt lat="44.43249" lon="4.51308">
        <ele>469.79998779297</ele>
        <time>2013-02-27T14:14:02.000Z</time>
      </trkpt>
      <trkpt lat="44.43248" lon="4.51306">
        <ele>469.20001220703</ele>
        <time>2013-02-27T14:14:03.000Z</time>
      </trkpt>
      <trkpt lat="44.43247" lon="4.51305">
        <ele>469.20001220703</ele>
        <time>2013-02-27T14:14:04.000Z</time>
      </trkpt>
      <trkpt lat="44.43247" lon="4.51303">
        <ele>469.20001220703</ele>
        <time>2013-02-27T14:14:05.000Z</time>
      </trkpt>
      <trkpt lat="44.43246" lon="4.51302">
        <ele>468.79998779297</ele>
        <time>2013-02-27T14:14:06.000Z</time>
      </trkpt>
      <trkpt lat="44.43245" lon="4.51301">
        <ele>468.79998779297</ele>
        <time>2013-02-27T14:14:07.000Z</time>
      </trkpt>
      <trkpt lat="44.43244" lon="4.51299">
        <ele>468.20001220703</ele>
        <time>2013-02-27T14:14:08.000Z</time>
      </trkpt>
      <trkpt lat="44.43244" lon="4.51298">
        <ele>468.20001220703</ele>
        <time>2013-02-27T14:14:09.000Z</time>
      </trkpt>
      <trkpt lat="44.43243" lon="4.51297">
        <ele>467.79998779297</ele>
        <time>2013-02-27T14:14:10.000Z</time>
      </trkpt>
      <trkpt lat="44.43242" lon="4.51295">
        <ele>467.79998779297</ele>
        <time>2013-02-27T14:14:11.000Z</time>
      </trkpt>
      <trkpt lat="44.43242" lon="4.51294">
        <ele>467.79998779297</ele>
        <time>2013-02-27T14:14:12.000Z</time>
      </trkpt>
      <trkpt lat="44.43241" lon="4.51293">
        <ele>467.79998779297</ele>
        <time>2013-02-27T14:14:13.000Z</time>
      </trkpt>
      <trkpt lat="44.4324" lon="4.51291">
        <ele>467.79998779297</ele>
        <time>2013-02-27T14:14:14.000Z</time>
      </trkpt>
      <trkpt lat="44.43239" lon="4.51289">
        <ele>467.79998779297</ele>
        <time>2013-02-27T14:14:15.000Z</time>
      </trkpt>
      <trkpt lat="44.43238" lon="4.51287">
        <ele>467.39999389648</ele>
        <time>2013-02-27T14:14:16.000Z</time>
      </trkpt>
      <trkpt lat="44.43238" lon="4.51285">
        <ele>467.79998779297</ele>
        <time>2013-02-27T14:14:17.000Z</time>
      </trkpt>
      <trkpt lat="44.43237" lon="4.51283">
        <ele>467.79998779297</ele>
        <time>2013-02-27T14:14:18.000Z</time>
      </trkpt>
      <trkpt lat="44.43236" lon="4.51282">
        <ele>468.20001220703</ele>
        <time>2013-02-27T14:14:19.000Z</time>
      </trkpt>
      <trkpt lat="44.43235" lon="4.5128">
        <ele>468.20001220703</ele>
        <time>2013-02-27T14:14:20.000Z</time>
      </trkpt>
      <trkpt lat="44.43235" lon="4.51278">
        <ele>468.20001220703</ele>
        <time>2013-02-27T14:14:21.000Z</time>
      </trkpt>
      <trkpt lat="44.43234" lon="4.51277">
        <ele>468.20001220703</ele>
        <time>2013-02-27T14:14:22.000Z</time>
      </trkpt>
      <trkpt lat="44.43233" lon="4.51275">
        <ele>468.79998779297</ele>
        <time>2013-02-27T14:14:23.000Z</time>
      </trkpt>
      <trkpt lat="44.43232" lon="4.51273">
        <ele>468.79998779297</ele>
        <time>2013-02-27T14:14:24.000Z</time>
      </trkpt>
      <trkpt lat="44.43231" lon="4.51271">
        <ele>469.79998779297</ele>
        <time>2013-02-27T14:14:25.000Z</time>
      </trkpt>
      <trkpt lat="44.4323" lon="4.51269">
        <ele>470.20001220703</ele>
        <time>2013-02-27T14:14:26.000Z</time>
      </trkpt>
      <trkpt lat="44.43229" lon="4.51268">
        <ele>470.20001220703</ele>
        <time>2013-02-27T14:14:27.000Z</time>
      </trkpt>
      <trkpt lat="44.43229" lon="4.51266">
        <ele>470.20001220703</ele>
        <time>2013-02-27T14:14:28.000Z</time>
      </trkpt>
      <trkpt lat="44.43228" lon="4.51264">
        <ele>470.20001220703</ele>
        <time>2013-02-27T14:14:29.000Z</time>
      </trkpt>
      <trkpt lat="44.43227" lon="4.51263">
        <ele>469.79998779297</ele>
        <time>2013-02-27T14:14:30.000Z</time>
      </trkpt>
      <trkpt lat="44.43227" lon="4.51261">
        <ele>470.20001220703</ele>
        <time>2013-02-27T14:14:31.000Z</time>
      </trkpt>
      <trkpt lat="44.43226" lon="4.5126">
        <ele>470.20001220703</ele>
        <time>2013-02-27T14:14:32.000Z</time>
      </trkpt>
      <trkpt lat="44.43225" lon="4.51258">
        <ele>470.79998779297</ele>
        <time>2013-02-27T14:14:33.000Z</time>
      </trkpt>
      <trkpt lat="44.43224" lon="4.51256">
        <ele>470.79998779297</ele>
        <time>2013-02-27T14:14:34.000Z</time>
      </trkpt>
      <trkpt lat="44.43224" lon="4.51254">
        <ele>471.20001220703</ele>
        <time>2013-02-27T14:14:35.000Z</time>
      </trkpt>
      <trkpt lat="44.43223" lon="4.51253">
        <ele>471.20001220703</ele>
        <time>2013-02-27T14:14:36.000Z</time>
      </trkpt>
      <trkpt lat="44.43222" lon="4.51251">
        <ele>471.20001220703</ele>
        <time>2013-02-27T14:14:37.000Z</time>
      </trkpt>
      <trkpt lat="44.43221" lon="4.5125">
        <ele>471.20001220703</ele>
        <time>2013-02-27T14:14:38.000Z</time>
      </trkpt>
      <trkpt lat="44.43221" lon="4.51248">
        <ele>471.20001220703</ele>
        <time>2013-02-27T14:14:39.000Z</time>
      </trkpt>
      <trkpt lat="44.4322" lon="4.51246">
        <ele>471.20001220703</ele>
        <time>2013-02-27T14:14:40.000Z</time>
      </trkpt>
      <trkpt lat="44.43219" lon="4.51245">
        <ele>471.20001220703</ele>
        <time>2013-02-27T14:14:41.000Z</time>
      </trkpt>
      <trkpt lat="44.43218" lon="4.51243">
        <ele>471.20001220703</ele>
        <time>2013-02-27T14:14:42.000Z</time>
      </trkpt>
      <trkpt lat="44.43218" lon="4.51241">
        <ele>471.60000610352</ele>
        <time>2013-02-27T14:14:43.000Z</time>
      </trkpt>
      <trkpt lat="44.43217" lon="4.5124">
        <ele>471.20001220703</ele>
        <time>2013-02-27T14:14:44.000Z</time>
      </trkpt>
      <trkpt lat="44.43216" lon="4.51238">
        <ele>471.60000610352</ele>
        <time>2013-02-27T14:14:45.000Z</time>
      </trkpt>
      <trkpt lat="44.43216" lon="4.51236">
        <ele>471.20001220703</ele>
        <time>2013-02-27T14:14:46.000Z</time>
      </trkpt>
      <trkpt lat="44.43215" lon="4.51234">
        <ele>471.60000610352</ele>
        <time>2013-02-27T14:14:47.000Z</time>
      </trkpt>
      <trkpt lat="44.43214" lon="4.51233">
        <ele>471.60000610352</ele>
        <time>2013-02-27T14:14:48.000Z</time>
      </trkpt>
      <trkpt lat="44.43214" lon="4.51231">
        <ele>471.60000610352</ele>
        <time>2013-02-27T14:14:49.000Z</time>
      </trkpt>
      <trkpt lat="44.43213" lon="4.51229">
        <ele>472.20001220703</ele>
        <time>2013-02-27T14:14:50.000Z</time>
      </trkpt>
      <trkpt lat="44.43213" lon="4.51227">
        <ele>472.20001220703</ele>
        <time>2013-02-27T14:14:51.000Z</time>
      </trkpt>
      <trkpt lat="44.43212" lon="4.51225">
        <ele>472.20001220703</ele>
        <time>2013-02-27T14:14:52.000Z</time>
      </trkpt>
      <trkpt lat="44.43212" lon="4.51224">
        <ele>472.20001220703</ele>
        <time>2013-02-27T14:14:53.000Z</time>
      </trkpt>
      <trkpt lat="44.43211" lon="4.51222">
        <ele>472.60000610352</ele>
        <time>2013-02-27T14:14:54.000Z</time>
      </trkpt>
      <trkpt lat="44.43211" lon="4.5122">
        <ele>472.60000610352</ele>
        <time>2013-02-27T14:14:55.000Z</time>
      </trkpt>
      <trkpt lat="44.4321" lon="4.51218">
        <ele>473.20001220703</ele>
        <time>2013-02-27T14:14:56.000Z</time>
      </trkpt>
      <trkpt lat="44.4321" lon="4.51216">
        <ele>472.60000610352</ele>
        <time>2013-02-27T14:14:57.000Z</time>
      </trkpt>
      <trkpt lat="44.4321" lon="4.51215">
        <ele>472.20001220703</ele>
        <time>2013-02-27T14:14:58.000Z</time>
      </trkpt>
      <trkpt lat="44.43209" lon="4.51213">
        <ele>472.20001220703</ele>
        <time>2013-02-27T14:14:59.000Z</time>
      </trkpt>
      <trkpt lat="44.43209" lon="4.51212">
        <ele>471.60000610352</ele>
        <time>2013-02-27T14:15:00.000Z</time>
      </trkpt>
      <trkpt lat="44.43208" lon="4.5121">
        <ele>471.20001220703</ele>
        <time>2013-02-27T14:15:01.000Z</time>
      </trkpt>
      <trkpt lat="44.43208" lon="4.51208">
        <ele>471.60000610352</ele>
        <time>2013-02-27T14:15:02.000Z</time>
      </trkpt>
      <trkpt lat="44.43208" lon="4.51206">
        <ele>472.20001220703</ele>
        <time>2013-02-27T14:15:03.000Z</time>
      </trkpt>
      <trkpt lat="44.43208" lon="4.51204">
        <ele>471.60000610352</ele>
        <time>2013-02-27T14:15:04.000Z</time>
      </trkpt>
      <trkpt lat="44.43208" lon="4.51203">
        <ele>471.20001220703</ele>
        <time>2013-02-27T14:15:05.000Z</time>
      </trkpt>
      <trkpt lat="44.43208" lon="4.51201">
        <ele>471.20001220703</ele>
        <time>2013-02-27T14:15:06.000Z</time>
      </trkpt>
      <trkpt lat="44.43209" lon="4.51199">
        <ele>471.20001220703</ele>
        <time>2013-02-27T14:15:07.000Z</time>
      </trkpt>
      <trkpt lat="44.43209" lon="4.51198">
        <ele>471.60000610352</ele>
        <time>2013-02-27T14:15:08.000Z</time>
      </trkpt>
      <trkpt lat="44.43209" lon="4.51196">
        <ele>471.60000610352</ele>
        <time>2013-02-27T14:15:09.000Z</time>
      </trkpt>
      <trkpt lat="44.43209" lon="4.51194">
        <ele>471.60000610352</ele>
        <time>2013-02-27T14:15:10.000Z</time>
      </trkpt>
      <trkpt lat="44.43209" lon="4.51193">
        <ele>471.60000610352</ele>
        <time>2013-02-27T14:15:11.000Z</time>
      </trkpt>
      <trkpt lat="44.4321" lon="4.51191">
        <ele>471.20001220703</ele>
        <time>2013-02-27T14:15:12.000Z</time>
      </trkpt>
      <trkpt lat="44.4321" lon="4.51189">
        <ele>470.79998779297</ele>
        <time>2013-02-27T14:15:13.000Z</time>
      </trkpt>
      <trkpt lat="44.4321" lon="4.51188">
        <ele>470.79998779297</ele>
        <time>2013-02-27T14:15:14.000Z</time>
      </trkpt>
      <trkpt lat="44.4321" lon="4.51186">
        <ele>471.20001220703</ele>
        <time>2013-02-27T14:15:15.000Z</time>
      </trkpt>
      <trkpt lat="44.43211" lon="4.51185">
        <ele>470.79998779297</ele>
        <time>2013-02-27T14:15:16.000Z</time>
      </trkpt>
      <trkpt lat="44.43211" lon="4.51183">
        <ele>470.20001220703</ele>
        <time>2013-02-27T14:15:17.000Z</time>
      </trkpt>
      <trkpt lat="44.43212" lon="4.51182">
        <ele>470.20001220703</ele>
        <time>2013-02-27T14:15:18.000Z</time>
      </trkpt>
      <trkpt lat="44.43212" lon="4.5118">
        <ele>469.79998779297</ele>
        <time>2013-02-27T14:15:19.000Z</time>
      </trkpt>
      <trkpt lat="44.43212" lon="4.51178">
        <ele>469.79998779297</ele>
        <time>2013-02-27T14:15:20.000Z</time>
      </trkpt>
      <trkpt lat="44.43213" lon="4.51177">
        <ele>469.79998779297</ele>
        <time>2013-02-27T14:15:21.000Z</time>
      </trkpt>
      <trkpt lat="44.43213" lon="4.51175">
        <ele>469.20001220703</ele>
        <time>2013-02-27T14:15:22.000Z</time>
      </trkpt>
      <trkpt lat="44.43214" lon="4.51174">
        <ele>468.79998779297</ele>
        <time>2013-02-27T14:15:23.000Z</time>
      </trkpt>
      <trkpt lat="44.43214" lon="4.51172">
        <ele>468.79998779297</ele>
        <time>2013-02-27T14:15:24.000Z</time>
      </trkpt>
      <trkpt lat="44.43214" lon="4.51171">
        <ele>468.20001220703</ele>
        <time>2013-02-27T14:15:25.000Z</time>
      </trkpt>
      <trkpt lat="44.43215" lon="4.51169">
        <ele>467.79998779297</ele>
        <time>2013-02-27T14:15:26.000Z</time>
      </trkpt>
      <trkpt lat="44.43215" lon="4.51167">
        <ele>467.39999389648</ele>
        <time>2013-02-27T14:15:27.000Z</time>
      </trkpt>
      <trkpt lat="44.43216" lon="4.51166">
        <ele>467.39999389648</ele>
        <time>2013-02-27T14:15:28.000Z</time>
      </trkpt>
      <trkpt lat="44.43216" lon="4.51164">
        <ele>466.79998779297</ele>
        <time>2013-02-27T14:15:29.000Z</time>
      </trkpt>
      <trkpt lat="44.43216" lon="4.51163">
        <ele>466.79998779297</ele>
        <time>2013-02-27T14:15:30.000Z</time>
      </trkpt>
      <trkpt lat="44.43217" lon="4.51161">
        <ele>467.39999389648</ele>
        <time>2013-02-27T14:15:31.000Z</time>
      </trkpt>
      <trkpt lat="44.43217" lon="4.51159">
        <ele>467.39999389648</ele>
        <time>2013-02-27T14:15:32.000Z</time>
      </trkpt>
      <trkpt lat="44.43218" lon="4.51157">
        <ele>466.79998779297</ele>
        <time>2013-02-27T14:15:33.000Z</time>
      </trkpt>
      <trkpt lat="44.43218" lon="4.51156">
        <ele>466.79998779297</ele>
        <time>2013-02-27T14:15:34.000Z</time>
      </trkpt>
      <trkpt lat="44.43218" lon="4.51154">
        <ele>466.39999389648</ele>
        <time>2013-02-27T14:15:35.000Z</time>
      </trkpt>
      <trkpt lat="44.43218" lon="4.51152">
        <ele>466.79998779297</ele>
        <time>2013-02-27T14:15:36.000Z</time>
      </trkpt>
      <trkpt lat="44.43219" lon="4.5115">
        <ele>466.79998779297</ele>
        <time>2013-02-27T14:15:37.000Z</time>
      </trkpt>
      <trkpt lat="44.43219" lon="4.51149">
        <ele>466.79998779297</ele>
        <time>2013-02-27T14:15:38.000Z</time>
      </trkpt>
      <trkpt lat="44.43219" lon="4.51147">
        <ele>466.79998779297</ele>
        <time>2013-02-27T14:15:39.000Z</time>
      </trkpt>
      <trkpt lat="44.43219" lon="4.51145">
        <ele>466.79998779297</ele>
        <time>2013-02-27T14:15:40.000Z</time>
      </trkpt>
      <trkpt lat="44.4322" lon="4.51143">
        <ele>466.79998779297</ele>
        <time>2013-02-27T14:15:41.000Z</time>
      </trkpt>
      <trkpt lat="44.4322" lon="4.51142">
        <ele>466.79998779297</ele>
        <time>2013-02-27T14:15:42.000Z</time>
      </trkpt>
      <trkpt lat="44.43221" lon="4.5114">
        <ele>466.79998779297</ele>
        <time>2013-02-27T14:15:43.000Z</time>
      </trkpt>
      <trkpt lat="44.43221" lon="4.51138">
        <ele>466.79998779297</ele>
        <time>2013-02-27T14:15:44.000Z</time>
      </trkpt>
      <trkpt lat="44.43221" lon="4.51136">
        <ele>466.79998779297</ele>
        <time>2013-02-27T14:15:45.000Z</time>
      </trkpt>
      <trkpt lat="44.43222" lon="4.51135">
        <ele>466.79998779297</ele>
        <time>2013-02-27T14:15:46.000Z</time>
      </trkpt>
      <trkpt lat="44.43222" lon="4.51133">
        <ele>467.39999389648</ele>
        <time>2013-02-27T14:15:47.000Z</time>
      </trkpt>
      <trkpt lat="44.43222" lon="4.51131">
        <ele>467.39999389648</ele>
        <time>2013-02-27T14:15:48.000Z</time>
      </trkpt>
      <trkpt lat="44.43222" lon="4.51129">
        <ele>467.39999389648</ele>
        <time>2013-02-27T14:15:49.000Z</time>
      </trkpt>
      <trkpt lat="44.43223" lon="4.51127">
        <ele>467.39999389648</ele>
        <time>2013-02-27T14:15:50.000Z</time>
      </trkpt>
      <trkpt lat="44.43223" lon="4.51125">
        <ele>467.39999389648</ele>
        <time>2013-02-27T14:15:51.000Z</time>
      </trkpt>
      <trkpt lat="44.43223" lon="4.51123">
        <ele>467.79998779297</ele>
        <time>2013-02-27T14:15:52.000Z</time>
      </trkpt>
      <trkpt lat="44.43223" lon="4.51122">
        <ele>468.20001220703</ele>
        <time>2013-02-27T14:15:53.000Z</time>
      </trkpt>
      <trkpt lat="44.43223" lon="4.51119">
        <ele>468.20001220703</ele>
        <time>2013-02-27T14:15:54.000Z</time>
      </trkpt>
      <trkpt lat="44.43223" lon="4.51118">
        <ele>468.79998779297</ele>
        <time>2013-02-27T14:15:55.000Z</time>
      </trkpt>
      <trkpt lat="44.43223" lon="4.51116">
        <ele>468.79998779297</ele>
        <time>2013-02-27T14:15:56.000Z</time>
      </trkpt>
      <trkpt lat="44.43224" lon="4.51114">
        <ele>468.79998779297</ele>
        <time>2013-02-27T14:15:57.000Z</time>
      </trkpt>
      <trkpt lat="44.43224" lon="4.51111">
        <ele>468.79998779297</ele>
        <time>2013-02-27T14:15:58.000Z</time>
      </trkpt>
      <trkpt lat="44.43224" lon="4.51109">
        <ele>468.79998779297</ele>
        <time>2013-02-27T14:15:59.000Z</time>
      </trkpt>
      <trkpt lat="44.43224" lon="4.51108">
        <ele>468.79998779297</ele>
        <time>2013-02-27T14:16:00.000Z</time>
      </trkpt>
      <trkpt lat="44.43224" lon="4.51106">
        <ele>468.79998779297</ele>
        <time>2013-02-27T14:16:01.000Z</time>
      </trkpt>
      <trkpt lat="44.43224" lon="4.51104">
        <ele>468.79998779297</ele>
        <time>2013-02-27T14:16:02.000Z</time>
      </trkpt>
      <trkpt lat="44.43224" lon="4.51102">
        <ele>468.20001220703</ele>
        <time>2013-02-27T14:16:03.000Z</time>
      </trkpt>
      <trkpt lat="44.43224" lon="4.511">
        <ele>468.20001220703</ele>
        <time>2013-02-27T14:16:04.000Z</time>
      </trkpt>
      <trkpt lat="44.43224" lon="4.51099">
        <ele>467.79998779297</ele>
        <time>2013-02-27T14:16:05.000Z</time>
      </trkpt>
      <trkpt lat="44.43224" lon="4.51097">
        <ele>467.79998779297</ele>
        <time>2013-02-27T14:16:06.000Z</time>
      </trkpt>
      <trkpt lat="44.43224" lon="4.51095">
        <ele>467.79998779297</ele>
        <time>2013-02-27T14:16:07.000Z</time>
      </trkpt>
      <trkpt lat="44.43223" lon="4.51093">
        <ele>468.20001220703</ele>
        <time>2013-02-27T14:16:08.000Z</time>
      </trkpt>
      <trkpt lat="44.43222" lon="4.5109">
        <ele>468.79998779297</ele>
        <time>2013-02-27T14:16:09.000Z</time>
      </trkpt>
      <trkpt lat="44.43221" lon="4.51088">
        <ele>468.79998779297</ele>
        <time>2013-02-27T14:16:10.000Z</time>
      </trkpt>
      <trkpt lat="44.4322" lon="4.51086">
        <ele>468.20001220703</ele>
        <time>2013-02-27T14:16:11.000Z</time>
      </trkpt>
      <trkpt lat="44.43219" lon="4.51084">
        <ele>468.79998779297</ele>
        <time>2013-02-27T14:16:12.000Z</time>
      </trkpt>
      <trkpt lat="44.43218" lon="4.51083">
        <ele>469.20001220703</ele>
        <time>2013-02-27T14:16:13.000Z</time>
      </trkpt>
      <trkpt lat="44.43217" lon="4.51082">
        <ele>469.20001220703</ele>
        <time>2013-02-27T14:16:14.000Z</time>
      </trkpt>
      <trkpt lat="44.43215" lon="4.51081">
        <ele>469.79998779297</ele>
        <time>2013-02-27T14:16:15.000Z</time>
      </trkpt>
      <trkpt lat="44.43214" lon="4.5108">
        <ele>470.20001220703</ele>
        <time>2013-02-27T14:16:16.000Z</time>
      </trkpt>
      <trkpt lat="44.43213" lon="4.5108">
        <ele>470.20001220703</ele>
        <time>2013-02-27T14:16:17.000Z</time>
      </trkpt>
      <trkpt lat="44.43211" lon="4.5108">
        <ele>470.79998779297</ele>
        <time>2013-02-27T14:16:18.000Z</time>
      </trkpt>
      <trkpt lat="44.4321" lon="4.5108">
        <ele>470.79998779297</ele>
        <time>2013-02-27T14:16:19.000Z</time>
      </trkpt>
      <trkpt lat="44.43209" lon="4.51081">
        <ele>470.79998779297</ele>
        <time>2013-02-27T14:16:20.000Z</time>
      </trkpt>
      <trkpt lat="44.43208" lon="4.51082">
        <ele>470.79998779297</ele>
        <time>2013-02-27T14:16:21.000Z</time>
      </trkpt>
      <trkpt lat="44.43206" lon="4.51082">
        <ele>470.79998779297</ele>
        <time>2013-02-27T14:16:22.000Z</time>
      </trkpt>
      <trkpt lat="44.43205" lon="4.51083">
        <ele>470.79998779297</ele>
        <time>2013-02-27T14:16:23.000Z</time>
      </trkpt>
      <trkpt lat="44.43204" lon="4.51084">
        <ele>471.20001220703</ele>
        <time>2013-02-27T14:16:24.000Z</time>
      </trkpt>
      <trkpt lat="44.43203" lon="4.51086">
        <ele>471.20001220703</ele>
        <time>2013-02-27T14:16:25.000Z</time>
      </trkpt>
      <trkpt lat="44.43202" lon="4.51087">
        <ele>471.20001220703</ele>
        <time>2013-02-27T14:16:26.000Z</time>
      </trkpt>
      <trkpt lat="44.43201" lon="4.51088">
        <ele>471.60000610352</ele>
        <time>2013-02-27T14:16:27.000Z</time>
      </trkpt>
      <trkpt lat="44.432" lon="4.51089">
        <ele>471.60000610352</ele>
        <time>2013-02-27T14:16:28.000Z</time>
      </trkpt>
      <trkpt lat="44.43199" lon="4.5109">
        <ele>472.20001220703</ele>
        <time>2013-02-27T14:16:29.000Z</time>
      </trkpt>
      <trkpt lat="44.43197" lon="4.51092">
        <ele>472.60000610352</ele>
        <time>2013-02-27T14:16:30.000Z</time>
      </trkpt>
      <trkpt lat="44.43196" lon="4.51093">
        <ele>472.60000610352</ele>
        <time>2013-02-27T14:16:31.000Z</time>
      </trkpt>
      <trkpt lat="44.43195" lon="4.51094">
        <ele>472.60000610352</ele>
        <time>2013-02-27T14:16:32.000Z</time>
      </trkpt>
      <trkpt lat="44.43194" lon="4.51095">
        <ele>473.20001220703</ele>
        <time>2013-02-27T14:16:33.000Z</time>
      </trkpt>
      <trkpt lat="44.43193" lon="4.51096">
        <ele>473.20001220703</ele>
        <time>2013-02-27T14:16:34.000Z</time>
      </trkpt>
      <trkpt lat="44.43192" lon="4.51097">
        <ele>473.20001220703</ele>
        <time>2013-02-27T14:16:35.000Z</time>
      </trkpt>
      <trkpt lat="44.43191" lon="4.51098">
        <ele>473.20001220703</ele>
        <time>2013-02-27T14:16:36.000Z</time>
      </trkpt>
      <trkpt lat="44.4319" lon="4.511">
        <ele>473.20001220703</ele>
        <time>2013-02-27T14:16:37.000Z</time>
      </trkpt>
      <trkpt lat="44.43189" lon="4.51101">
        <ele>473.60000610352</ele>
        <time>2013-02-27T14:16:38.000Z</time>
      </trkpt>
      <trkpt lat="44.43188" lon="4.51102">
        <ele>473.60000610352</ele>
        <time>2013-02-27T14:16:39.000Z</time>
      </trkpt>
      <trkpt lat="44.43187" lon="4.51103">
        <ele>473.60000610352</ele>
        <time>2013-02-27T14:16:40.000Z</time>
      </trkpt>
      <trkpt lat="44.43185" lon="4.51104">
        <ele>473.60000610352</ele>
        <time>2013-02-27T14:16:41.000Z</time>
      </trkpt>
      <trkpt lat="44.43184" lon="4.51105">
        <ele>473.60000610352</ele>
        <time>2013-02-27T14:16:42.000Z</time>
      </trkpt>
      <trkpt lat="44.43183" lon="4.51106">
        <ele>474</ele>
        <time>2013-02-27T14:16:43.000Z</time>
      </trkpt>
      <trkpt lat="44.43182" lon="4.51107">
        <ele>474</ele>
        <time>2013-02-27T14:16:44.000Z</time>
      </trkpt>
      <trkpt lat="44.43181" lon="4.51108">
        <ele>474</ele>
        <time>2013-02-27T14:16:45.000Z</time>
      </trkpt>
      <trkpt lat="44.4318" lon="4.51109">
        <ele>474</ele>
        <time>2013-02-27T14:16:46.000Z</time>
      </trkpt>
      <trkpt lat="44.43179" lon="4.5111">
        <ele>474</ele>
        <time>2013-02-27T14:16:47.000Z</time>
      </trkpt>
      <trkpt lat="44.43178" lon="4.51111">
        <ele>474.60000610352</ele>
        <time>2013-02-27T14:16:48.000Z</time>
      </trkpt>
      <trkpt lat="44.43176" lon="4.51113">
        <ele>474.60000610352</ele>
        <time>2013-02-27T14:16:49.000Z</time>
      </trkpt>
      <trkpt lat="44.43175" lon="4.51114">
        <ele>475</ele>
        <time>2013-02-27T14:16:50.000Z</time>
      </trkpt>
      <trkpt lat="44.43174" lon="4.51114">
        <ele>474.60000610352</ele>
        <time>2013-02-27T14:16:51.000Z</time>
      </trkpt>
      <trkpt lat="44.43173" lon="4.51115">
        <ele>475</ele>
        <time>2013-02-27T14:16:52.000Z</time>
      </trkpt>
      <trkpt lat="44.43171" lon="4.51115">
        <ele>474.60000610352</ele>
        <time>2013-02-27T14:16:53.000Z</time>
      </trkpt>
      <trkpt lat="44.4317" lon="4.51116">
        <ele>474.60000610352</ele>
        <time>2013-02-27T14:16:54.000Z</time>
      </trkpt>
      <trkpt lat="44.43169" lon="4.51116">
        <ele>474</ele>
        <time>2013-02-27T14:16:55.000Z</time>
      </trkpt>
      <trkpt lat="44.43168" lon="4.51116">
        <ele>474</ele>
        <time>2013-02-27T14:16:56.000Z</time>
      </trkpt>
      <trkpt lat="44.43167" lon="4.51117">
        <ele>474</ele>
        <time>2013-02-27T14:16:57.000Z</time>
      </trkpt>
      <trkpt lat="44.43165" lon="4.51117">
        <ele>474</ele>
        <time>2013-02-27T14:16:58.000Z</time>
      </trkpt>
      <trkpt lat="44.43164" lon="4.51117">
        <ele>474</ele>
        <time>2013-02-27T14:16:59.000Z</time>
      </trkpt>
      <trkpt lat="44.43163" lon="4.51117">
        <ele>474</ele>
        <time>2013-02-27T14:17:00.000Z</time>
      </trkpt>
      <trkpt lat="44.43161" lon="4.51116">
        <ele>474</ele>
        <time>2013-02-27T14:17:01.000Z</time>
      </trkpt>
      <trkpt lat="44.4316" lon="4.51116">
        <ele>474</ele>
        <time>2013-02-27T14:17:02.000Z</time>
      </trkpt>
      <trkpt lat="44.43159" lon="4.51116">
        <ele>474</ele>
        <time>2013-02-27T14:17:03.000Z</time>
      </trkpt>
      <trkpt lat="44.43157" lon="4.51115">
        <ele>474.60000610352</ele>
        <time>2013-02-27T14:17:04.000Z</time>
      </trkpt>
      <trkpt lat="44.43156" lon="4.51115">
        <ele>474.60000610352</ele>
        <time>2013-02-27T14:17:05.000Z</time>
      </trkpt>
      <trkpt lat="44.43154" lon="4.51114">
        <ele>474.60000610352</ele>
        <time>2013-02-27T14:17:06.000Z</time>
      </trkpt>
      <trkpt lat="44.43153" lon="4.51114">
        <ele>474.60000610352</ele>
        <time>2013-02-27T14:17:07.000Z</time>
      </trkpt>
      <trkpt lat="44.43152" lon="4.51113">
        <ele>474.60000610352</ele>
        <time>2013-02-27T14:17:08.000Z</time>
      </trkpt>
      <trkpt lat="44.43151" lon="4.51113">
        <ele>475</ele>
        <time>2013-02-27T14:17:09.000Z</time>
      </trkpt>
      <trkpt lat="44.43149" lon="4.51112">
        <ele>474.60000610352</ele>
        <time>2013-02-27T14:17:10.000Z</time>
      </trkpt>
      <trkpt lat="44.43148" lon="4.51111">
        <ele>474.60000610352</ele>
        <time>2013-02-27T14:17:11.000Z</time>
      </trkpt>
      <trkpt lat="44.43147" lon="4.51111">
        <ele>474.60000610352</ele>
        <time>2013-02-27T14:17:12.000Z</time>
      </trkpt>
      <trkpt lat="44.43146" lon="4.5111">
        <ele>474.60000610352</ele>
        <time>2013-02-27T14:17:13.000Z</time>
      </trkpt>
      <trkpt lat="44.43145" lon="4.51109">
        <ele>474</ele>
        <time>2013-02-27T14:17:14.000Z</time>
      </trkpt>
      <trkpt lat="44.43143" lon="4.51109">
        <ele>473.60000610352</ele>
        <time>2013-02-27T14:17:15.000Z</time>
      </trkpt>
      <trkpt lat="44.43142" lon="4.51108">
        <ele>473.20001220703</ele>
        <time>2013-02-27T14:17:16.000Z</time>
      </trkpt>
      <trkpt lat="44.43141" lon="4.51107">
        <ele>473.20001220703</ele>
        <time>2013-02-27T14:17:17.000Z</time>
      </trkpt>
      <trkpt lat="44.4314" lon="4.51107">
        <ele>473.20001220703</ele>
        <time>2013-02-27T14:17:18.000Z</time>
      </trkpt>
      <trkpt lat="44.43138" lon="4.51106">
        <ele>473.20001220703</ele>
        <time>2013-02-27T14:17:19.000Z</time>
      </trkpt>
      <trkpt lat="44.43137" lon="4.51104">
        <ele>472.60000610352</ele>
        <time>2013-02-27T14:17:20.000Z</time>
      </trkpt>
      <trkpt lat="44.43136" lon="4.51103">
        <ele>472.60000610352</ele>
        <time>2013-02-27T14:17:21.000Z</time>
      </trkpt>
      <trkpt lat="44.43134" lon="4.51103">
        <ele>472.20001220703</ele>
        <time>2013-02-27T14:17:22.000Z</time>
      </trkpt>
      <trkpt lat="44.43133" lon="4.51102">
        <ele>472.20001220703</ele>
        <time>2013-02-27T14:17:23.000Z</time>
      </trkpt>
      <trkpt lat="44.43132" lon="4.51101">
        <ele>472.20001220703</ele>
        <time>2013-02-27T14:17:24.000Z</time>
      </trkpt>
      <trkpt lat="44.43131" lon="4.511">
        <ele>471.20001220703</ele>
        <time>2013-02-27T14:17:25.000Z</time>
      </trkpt>
      <trkpt lat="44.4313" lon="4.511">
        <ele>471.20001220703</ele>
        <time>2013-02-27T14:17:26.000Z</time>
      </trkpt>
      <trkpt lat="44.43129" lon="4.51099">
        <ele>470.79998779297</ele>
        <time>2013-02-27T14:17:27.000Z</time>
      </trkpt>
      <trkpt lat="44.43127" lon="4.51098">
        <ele>470.79998779297</ele>
        <time>2013-02-27T14:17:28.000Z</time>
      </trkpt>
      <trkpt lat="44.43126" lon="4.51097">
        <ele>470.20001220703</ele>
        <time>2013-02-27T14:17:29.000Z</time>
      </trkpt>
      <trkpt lat="44.43125" lon="4.51097">
        <ele>470.20001220703</ele>
        <time>2013-02-27T14:17:30.000Z</time>
      </trkpt>
      <trkpt lat="44.43124" lon="4.51097">
        <ele>470.20001220703</ele>
        <time>2013-02-27T14:17:31.000Z</time>
      </trkpt>
      <trkpt lat="44.43122" lon="4.51097">
        <ele>470.20001220703</ele>
        <time>2013-02-27T14:17:32.000Z</time>
      </trkpt>
      <trkpt lat="44.43121" lon="4.51097">
        <ele>470.79998779297</ele>
        <time>2013-02-27T14:17:33.000Z</time>
      </trkpt>
      <trkpt lat="44.4312" lon="4.51098">
        <ele>471.20001220703</ele>
        <time>2013-02-27T14:17:34.000Z</time>
      </trkpt>
      <trkpt lat="44.43119" lon="4.51099">
        <ele>471.20001220703</ele>
        <time>2013-02-27T14:17:35.000Z</time>
      </trkpt>
      <trkpt lat="44.43118" lon="4.511">
        <ele>470.79998779297</ele>
        <time>2013-02-27T14:17:36.000Z</time>
      </trkpt>
      <trkpt lat="44.43117" lon="4.51101">
        <ele>470.79998779297</ele>
        <time>2013-02-27T14:17:37.000Z</time>
      </trkpt>
      <trkpt lat="44.43117" lon="4.51103">
        <ele>470.79998779297</ele>
        <time>2013-02-27T14:17:38.000Z</time>
      </trkpt>
      <trkpt lat="44.43117" lon="4.51104">
        <ele>470.79998779297</ele>
        <time>2013-02-27T14:17:39.000Z</time>
      </trkpt>
      <trkpt lat="44.43116" lon="4.51106">
        <ele>470.79998779297</ele>
        <time>2013-02-27T14:17:40.000Z</time>
      </trkpt>
      <trkpt lat="44.43116" lon="4.51108">
        <ele>470.79998779297</ele>
        <time>2013-02-27T14:17:41.000Z</time>
      </trkpt>
      <trkpt lat="44.43115" lon="4.51109">
        <ele>471.20001220703</ele>
        <time>2013-02-27T14:17:42.000Z</time>
      </trkpt>
      <trkpt lat="44.43115" lon="4.51111">
        <ele>471.20001220703</ele>
        <time>2013-02-27T14:17:43.000Z</time>
      </trkpt>
      <trkpt lat="44.43115" lon="4.51112">
        <ele>470.79998779297</ele>
        <time>2013-02-27T14:17:44.000Z</time>
      </trkpt>
      <trkpt lat="44.43115" lon="4.51114">
        <ele>470.79998779297</ele>
        <time>2013-02-27T14:17:45.000Z</time>
      </trkpt>
      <trkpt lat="44.43115" lon="4.51116">
        <ele>470.79998779297</ele>
        <time>2013-02-27T14:17:46.000Z</time>
      </trkpt>
      <trkpt lat="44.43115" lon="4.51118">
        <ele>470.79998779297</ele>
        <time>2013-02-27T14:17:47.000Z</time>
      </trkpt>
      <trkpt lat="44.43115" lon="4.51119">
        <ele>470.79998779297</ele>
        <time>2013-02-27T14:17:48.000Z</time>
      </trkpt>
      <trkpt lat="44.43116" lon="4.51121">
        <ele>470.79998779297</ele>
        <time>2013-02-27T14:17:49.000Z</time>
      </trkpt>
      <trkpt lat="44.43116" lon="4.51123">
        <ele>471.20001220703</ele>
        <time>2013-02-27T14:17:50.000Z</time>
      </trkpt>
      <trkpt lat="44.43116" lon="4.51125">
        <ele>471.20001220703</ele>
        <time>2013-02-27T14:17:51.000Z</time>
      </trkpt>
      <trkpt lat="44.43116" lon="4.51127">
        <ele>471.20001220703</ele>
        <time>2013-02-27T14:17:52.000Z</time>
      </trkpt>
      <trkpt lat="44.43116" lon="4.51129">
        <ele>471.20001220703</ele>
        <time>2013-02-27T14:17:53.000Z</time>
      </trkpt>
      <trkpt lat="44.43116" lon="4.51131">
        <ele>471.20001220703</ele>
        <time>2013-02-27T14:17:54.000Z</time>
      </trkpt>
      <trkpt lat="44.43116" lon="4.51133">
        <ele>471.20001220703</ele>
        <time>2013-02-27T14:17:55.000Z</time>
      </trkpt>
      <trkpt lat="44.43116" lon="4.51134">
        <ele>471.60000610352</ele>
        <time>2013-02-27T14:17:56.000Z</time>
      </trkpt>
      <trkpt lat="44.43116" lon="4.51136">
        <ele>472.20001220703</ele>
        <time>2013-02-27T14:17:57.000Z</time>
      </trkpt>
      <trkpt lat="44.43116" lon="4.51138">
        <ele>472.20001220703</ele>
        <time>2013-02-27T14:17:58.000Z</time>
      </trkpt>
      <trkpt lat="44.43116" lon="4.5114">
        <ele>472.20001220703</ele>
        <time>2013-02-27T14:17:59.000Z</time>
      </trkpt>
      <trkpt lat="44.43116" lon="4.51141">
        <ele>472.20001220703</ele>
        <time>2013-02-27T14:18:00.000Z</time>
      </trkpt>
      <trkpt lat="44.43116" lon="4.51143">
        <ele>471.60000610352</ele>
        <time>2013-02-27T14:18:01.000Z</time>
      </trkpt>
      <trkpt lat="44.43116" lon="4.51144">
        <ele>471.60000610352</ele>
        <time>2013-02-27T14:18:02.000Z</time>
      </trkpt>
      <trkpt lat="44.43116" lon="4.51146">
        <ele>472.20001220703</ele>
        <time>2013-02-27T14:18:03.000Z</time>
      </trkpt>
      <trkpt lat="44.43116" lon="4.51148">
        <ele>472.20001220703</ele>
        <time>2013-02-27T14:18:04.000Z</time>
      </trkpt>
      <trkpt lat="44.43116" lon="4.51149">
        <ele>471.60000610352</ele>
        <time>2013-02-27T14:18:05.000Z</time>
      </trkpt>
      <trkpt lat="44.43116" lon="4.5115">
        <ele>471.60000610352</ele>
        <time>2013-02-27T14:18:06.000Z</time>
      </trkpt>
      <trkpt lat="44.43116" lon="4.51152">
        <ele>471.60000610352</ele>
        <time>2013-02-27T14:18:07.000Z</time>
      </trkpt>
      <trkpt lat="44.43116" lon="4.51154">
        <ele>472.20001220703</ele>
        <time>2013-02-27T14:18:08.000Z</time>
      </trkpt>
      <trkpt lat="44.43116" lon="4.51155">
        <ele>472.20001220703</ele>
        <time>2013-02-27T14:18:09.000Z</time>
      </trkpt>
      <trkpt lat="44.43116" lon="4.51157">
        <ele>472.20001220703</ele>
        <time>2013-02-27T14:18:10.000Z</time>
      </trkpt>
      <trkpt lat="44.43116" lon="4.51159">
        <ele>472.60000610352</ele>
        <time>2013-02-27T14:18:11.000Z</time>
      </trkpt>
      <trkpt lat="44.43116" lon="4.51161">
        <ele>472.60000610352</ele>
        <time>2013-02-27T14:18:12.000Z</time>
      </trkpt>
      <trkpt lat="44.43116" lon="4.51163">
        <ele>472.60000610352</ele>
        <time>2013-02-27T14:18:13.000Z</time>
      </trkpt>
      <trkpt lat="44.43116" lon="4.51165">
        <ele>473.20001220703</ele>
        <time>2013-02-27T14:18:14.000Z</time>
      </trkpt>
      <trkpt lat="44.43116" lon="4.51166">
        <ele>473.60000610352</ele>
        <time>2013-02-27T14:18:15.000Z</time>
      </trkpt>
      <trkpt lat="44.43115" lon="4.51168">
        <ele>473.20001220703</ele>
        <time>2013-02-27T14:18:16.000Z</time>
      </trkpt>
      <trkpt lat="44.43115" lon="4.5117">
        <ele>473.20001220703</ele>
        <time>2013-02-27T14:18:17.000Z</time>
      </trkpt>
      <trkpt lat="44.43115" lon="4.51171">
        <ele>473.60000610352</ele>
        <time>2013-02-27T14:18:18.000Z</time>
      </trkpt>
      <trkpt lat="44.43115" lon="4.51173">
        <ele>473.60000610352</ele>
        <time>2013-02-27T14:18:19.000Z</time>
      </trkpt>
      <trkpt lat="44.43115" lon="4.51174">
        <ele>473.60000610352</ele>
        <time>2013-02-27T14:18:20.000Z</time>
      </trkpt>
      <trkpt lat="44.43115" lon="4.51176">
        <ele>473.60000610352</ele>
        <time>2013-02-27T14:18:21.000Z</time>
      </trkpt>
      <trkpt lat="44.43115" lon="4.51178">
        <ele>474</ele>
        <time>2013-02-27T14:18:22.000Z</time>
      </trkpt>
      <trkpt lat="44.43115" lon="4.5118">
        <ele>474.60000610352</ele>
        <time>2013-02-27T14:18:23.000Z</time>
      </trkpt>
      <trkpt lat="44.43115" lon="4.51182">
        <ele>474.60000610352</ele>
        <time>2013-02-27T14:18:24.000Z</time>
      </trkpt>
      <trkpt lat="44.43114" lon="4.51184">
        <ele>475</ele>
        <time>2013-02-27T14:18:25.000Z</time>
      </trkpt>
      <trkpt lat="44.43114" lon="4.51185">
        <ele>475.60000610352</ele>
        <time>2013-02-27T14:18:26.000Z</time>
      </trkpt>
      <trkpt lat="44.43113" lon="4.51187">
        <ele>475.60000610352</ele>
        <time>2013-02-27T14:18:27.000Z</time>
      </trkpt>
      <trkpt lat="44.43113" lon="4.51189">
        <ele>476</ele>
        <time>2013-02-27T14:18:28.000Z</time>
      </trkpt>
      <trkpt lat="44.43113" lon="4.5119">
        <ele>476</ele>
        <time>2013-02-27T14:18:29.000Z</time>
      </trkpt>
      <trkpt lat="44.43112" lon="4.51192">
        <ele>476</ele>
        <time>2013-02-27T14:18:30.000Z</time>
      </trkpt>
      <trkpt lat="44.43112" lon="4.51193">
        <ele>476.39999389648</ele>
        <time>2013-02-27T14:18:31.000Z</time>
      </trkpt>
      <trkpt lat="44.43112" lon="4.51195">
        <ele>477</ele>
        <time>2013-02-27T14:18:32.000Z</time>
      </trkpt>
      <trkpt lat="44.43111" lon="4.51196">
        <ele>477.39999389648</ele>
        <time>2013-02-27T14:18:33.000Z</time>
      </trkpt>
      <trkpt lat="44.43111" lon="4.51198">
        <ele>477.39999389648</ele>
        <time>2013-02-27T14:18:34.000Z</time>
      </trkpt>
      <trkpt lat="44.4311" lon="4.512">
        <ele>478</ele>
        <time>2013-02-27T14:18:35.000Z</time>
      </trkpt>
      <trkpt lat="44.4311" lon="4.51201">
        <ele>478</ele>
        <time>2013-02-27T14:18:36.000Z</time>
      </trkpt>
      <trkpt lat="44.4311" lon="4.51203">
        <ele>478</ele>
        <time>2013-02-27T14:18:37.000Z</time>
      </trkpt>
      <trkpt lat="44.43109" lon="4.51205">
        <ele>478.39999389648</ele>
        <time>2013-02-27T14:18:38.000Z</time>
      </trkpt>
      <trkpt lat="44.43109" lon="4.51206">
        <ele>478.39999389648</ele>
        <time>2013-02-27T14:18:39.000Z</time>
      </trkpt>
      <trkpt lat="44.43109" lon="4.51208">
        <ele>478.79998779297</ele>
        <time>2013-02-27T14:18:40.000Z</time>
      </trkpt>
      <trkpt lat="44.43108" lon="4.5121">
        <ele>479.39999389648</ele>
        <time>2013-02-27T14:18:41.000Z</time>
      </trkpt>
      <trkpt lat="44.43108" lon="4.51211">
        <ele>479.39999389648</ele>
        <time>2013-02-27T14:18:42.000Z</time>
      </trkpt>
      <trkpt lat="44.43108" lon="4.51213">
        <ele>479.39999389648</ele>
        <time>2013-02-27T14:18:43.000Z</time>
      </trkpt>
      <trkpt lat="44.43107" lon="4.51215">
        <ele>479.39999389648</ele>
        <time>2013-02-27T14:18:44.000Z</time>
      </trkpt>
      <trkpt lat="44.43107" lon="4.51216">
        <ele>479.39999389648</ele>
        <time>2013-02-27T14:18:45.000Z</time>
      </trkpt>
      <trkpt lat="44.43107" lon="4.51218">
        <ele>479.39999389648</ele>
        <time>2013-02-27T14:18:46.000Z</time>
      </trkpt>
      <trkpt lat="44.43106" lon="4.5122">
        <ele>479.79998779297</ele>
        <time>2013-02-27T14:18:47.000Z</time>
      </trkpt>
      <trkpt lat="44.43106" lon="4.51222">
        <ele>480.39999389648</ele>
        <time>2013-02-27T14:18:48.000Z</time>
      </trkpt>
      <trkpt lat="44.43105" lon="4.51224">
        <ele>480.39999389648</ele>
        <time>2013-02-27T14:18:49.000Z</time>
      </trkpt>
      <trkpt lat="44.43105" lon="4.51226">
        <ele>480.39999389648</ele>
        <time>2013-02-27T14:18:50.000Z</time>
      </trkpt>
      <trkpt lat="44.43104" lon="4.51227">
        <ele>479.79998779297</ele>
        <time>2013-02-27T14:18:51.000Z</time>
      </trkpt>
      <trkpt lat="44.43104" lon="4.51229">
        <ele>479.39999389648</ele>
        <time>2013-02-27T14:18:52.000Z</time>
      </trkpt>
      <trkpt lat="44.43104" lon="4.51231">
        <ele>479.39999389648</ele>
        <time>2013-02-27T14:18:53.000Z</time>
      </trkpt>
      <trkpt lat="44.43103" lon="4.51232">
        <ele>478.79998779297</ele>
        <time>2013-02-27T14:18:54.000Z</time>
      </trkpt>
      <trkpt lat="44.43103" lon="4.51234">
        <ele>478.79998779297</ele>
        <time>2013-02-27T14:18:55.000Z</time>
      </trkpt>
      <trkpt lat="44.43102" lon="4.51236">
        <ele>478.79998779297</ele>
        <time>2013-02-27T14:18:56.000Z</time>
      </trkpt>
      <trkpt lat="44.43102" lon="4.51238">
        <ele>478.79998779297</ele>
        <time>2013-02-27T14:18:57.000Z</time>
      </trkpt>
      <trkpt lat="44.43101" lon="4.51239">
        <ele>478.39999389648</ele>
        <time>2013-02-27T14:18:58.000Z</time>
      </trkpt>
      <trkpt lat="44.43101" lon="4.51241">
        <ele>478.39999389648</ele>
        <time>2013-02-27T14:18:59.000Z</time>
      </trkpt>
      <trkpt lat="44.43101" lon="4.51243">
        <ele>478.39999389648</ele>
        <time>2013-02-27T14:19:00.000Z</time>
      </trkpt>
      <trkpt lat="44.431" lon="4.51244">
        <ele>478.39999389648</ele>
        <time>2013-02-27T14:19:01.000Z</time>
      </trkpt>
      <trkpt lat="44.431" lon="4.51246">
        <ele>478.39999389648</ele>
        <time>2013-02-27T14:19:02.000Z</time>
      </trkpt>
      <trkpt lat="44.43099" lon="4.51248">
        <ele>478.39999389648</ele>
        <time>2013-02-27T14:19:03.000Z</time>
      </trkpt>
      <trkpt lat="44.43099" lon="4.5125">
        <ele>478</ele>
        <time>2013-02-27T14:19:04.000Z</time>
      </trkpt>
      <trkpt lat="44.43099" lon="4.51251">
        <ele>478</ele>
        <time>2013-02-27T14:19:05.000Z</time>
      </trkpt>
      <trkpt lat="44.43098" lon="4.51253">
        <ele>478.39999389648</ele>
        <time>2013-02-27T14:19:06.000Z</time>
      </trkpt>
      <trkpt lat="44.43098" lon="4.51255">
        <ele>478.39999389648</ele>
        <time>2013-02-27T14:19:07.000Z</time>
      </trkpt>
      <trkpt lat="44.43097" lon="4.51256">
        <ele>478.39999389648</ele>
        <time>2013-02-27T14:19:08.000Z</time>
      </trkpt>
      <trkpt lat="44.43097" lon="4.51258">
        <ele>478</ele>
        <time>2013-02-27T14:19:09.000Z</time>
      </trkpt>
      <trkpt lat="44.43096" lon="4.5126">
        <ele>478</ele>
        <time>2013-02-27T14:19:10.000Z</time>
      </trkpt>
      <trkpt lat="44.43096" lon="4.51261">
        <ele>478</ele>
        <time>2013-02-27T14:19:11.000Z</time>
      </trkpt>
      <trkpt lat="44.43095" lon="4.51263">
        <ele>478.39999389648</ele>
        <time>2013-02-27T14:19:12.000Z</time>
      </trkpt>
      <trkpt lat="44.43095" lon="4.51265">
        <ele>478.39999389648</ele>
        <time>2013-02-27T14:19:13.000Z</time>
      </trkpt>
      <trkpt lat="44.43094" lon="4.51267">
        <ele>478.39999389648</ele>
        <time>2013-02-27T14:19:14.000Z</time>
      </trkpt>
      <trkpt lat="44.43094" lon="4.51268">
        <ele>478.39999389648</ele>
        <time>2013-02-27T14:19:15.000Z</time>
      </trkpt>
      <trkpt lat="44.43093" lon="4.5127">
        <ele>478.39999389648</ele>
        <time>2013-02-27T14:19:16.000Z</time>
      </trkpt>
      <trkpt lat="44.43093" lon="4.51271">
        <ele>478.79998779297</ele>
        <time>2013-02-27T14:19:17.000Z</time>
      </trkpt>
      <trkpt lat="44.43092" lon="4.51273">
        <ele>478.79998779297</ele>
        <time>2013-02-27T14:19:18.000Z</time>
      </trkpt>
      <trkpt lat="44.43092" lon="4.51274">
        <ele>478.39999389648</ele>
        <time>2013-02-27T14:19:19.000Z</time>
      </trkpt>
      <trkpt lat="44.43091" lon="4.51276">
        <ele>478.39999389648</ele>
        <time>2013-02-27T14:19:20.000Z</time>
      </trkpt>
      <trkpt lat="44.43091" lon="4.51277">
        <ele>478.39999389648</ele>
        <time>2013-02-27T14:19:21.000Z</time>
      </trkpt>
      <trkpt lat="44.4309" lon="4.51279">
        <ele>478.39999389648</ele>
        <time>2013-02-27T14:19:22.000Z</time>
      </trkpt>
      <trkpt lat="44.4309" lon="4.5128">
        <ele>478.39999389648</ele>
        <time>2013-02-27T14:19:23.000Z</time>
      </trkpt>
      <trkpt lat="44.43089" lon="4.51282">
        <ele>478.39999389648</ele>
        <time>2013-02-27T14:19:24.000Z</time>
      </trkpt>
      <trkpt lat="44.43089" lon="4.51283">
        <ele>478.39999389648</ele>
        <time>2013-02-27T14:19:25.000Z</time>
      </trkpt>
      <trkpt lat="44.43089" lon="4.51285">
        <ele>478.39999389648</ele>
        <time>2013-02-27T14:19:26.000Z</time>
      </trkpt>
      <trkpt lat="44.43088" lon="4.51287">
        <ele>478.39999389648</ele>
        <time>2013-02-27T14:19:27.000Z</time>
      </trkpt>
      <trkpt lat="44.43087" lon="4.51289">
        <ele>478.79998779297</ele>
        <time>2013-02-27T14:19:28.000Z</time>
      </trkpt>
      <trkpt lat="44.43087" lon="4.51291">
        <ele>479.39999389648</ele>
        <time>2013-02-27T14:19:29.000Z</time>
      </trkpt>
      <trkpt lat="44.43086" lon="4.51292">
        <ele>479.39999389648</ele>
        <time>2013-02-27T14:19:30.000Z</time>
      </trkpt>
      <trkpt lat="44.43086" lon="4.51294">
        <ele>479.39999389648</ele>
        <time>2013-02-27T14:19:31.000Z</time>
      </trkpt>
      <trkpt lat="44.43086" lon="4.51296">
        <ele>478.79998779297</ele>
        <time>2013-02-27T14:19:32.000Z</time>
      </trkpt>
      <trkpt lat="44.43085" lon="4.51297">
        <ele>479.39999389648</ele>
        <time>2013-02-27T14:19:33.000Z</time>
      </trkpt>
      <trkpt lat="44.43085" lon="4.51299">
        <ele>478.79998779297</ele>
        <time>2013-02-27T14:19:34.000Z</time>
      </trkpt>
      <trkpt lat="44.43084" lon="4.51301">
        <ele>479.39999389648</ele>
        <time>2013-02-27T14:19:35.000Z</time>
      </trkpt>
      <trkpt lat="44.43084" lon="4.51303">
        <ele>479.39999389648</ele>
        <time>2013-02-27T14:19:36.000Z</time>
      </trkpt>
      <trkpt lat="44.43083" lon="4.51305">
        <ele>479.39999389648</ele>
        <time>2013-02-27T14:19:37.000Z</time>
      </trkpt>
      <trkpt lat="44.43082" lon="4.51306">
        <ele>479.39999389648</ele>
        <time>2013-02-27T14:19:38.000Z</time>
      </trkpt>
      <trkpt lat="44.43082" lon="4.51308">
        <ele>479.39999389648</ele>
        <time>2013-02-27T14:19:39.000Z</time>
      </trkpt>
      <trkpt lat="44.43081" lon="4.51309">
        <ele>479.79998779297</ele>
        <time>2013-02-27T14:19:40.000Z</time>
      </trkpt>
      <trkpt lat="44.4308" lon="4.51311">
        <ele>479.79998779297</ele>
        <time>2013-02-27T14:19:41.000Z</time>
      </trkpt>
      <trkpt lat="44.43079" lon="4.51312">
        <ele>479.79998779297</ele>
        <time>2013-02-27T14:19:42.000Z</time>
      </trkpt>
      <trkpt lat="44.43078" lon="4.51314">
        <ele>479.39999389648</ele>
        <time>2013-02-27T14:19:43.000Z</time>
      </trkpt>
      <trkpt lat="44.43077" lon="4.51315">
        <ele>479.39999389648</ele>
        <time>2013-02-27T14:19:44.000Z</time>
      </trkpt>
      <trkpt lat="44.43076" lon="4.51316">
        <ele>479.39999389648</ele>
        <time>2013-02-27T14:19:45.000Z</time>
      </trkpt>
      <trkpt lat="44.43075" lon="4.51318">
        <ele>479.39999389648</ele>
        <time>2013-02-27T14:19:46.000Z</time>
      </trkpt>
      <trkpt lat="44.43074" lon="4.51319">
        <ele>479.39999389648</ele>
        <time>2013-02-27T14:19:47.000Z</time>
      </trkpt>
      <trkpt lat="44.43073" lon="4.5132">
        <ele>479.39999389648</ele>
        <time>2013-02-27T14:19:48.000Z</time>
      </trkpt>
      <trkpt lat="44.43072" lon="4.51321">
        <ele>479.39999389648</ele>
        <time>2013-02-27T14:19:49.000Z</time>
      </trkpt>
      <trkpt lat="44.43071" lon="4.51322">
        <ele>479.39999389648</ele>
        <time>2013-02-27T14:19:50.000Z</time>
      </trkpt>
      <trkpt lat="44.4307" lon="4.51324">
        <ele>479.39999389648</ele>
        <time>2013-02-27T14:19:51.000Z</time>
      </trkpt>
      <trkpt lat="44.43069" lon="4.51324">
        <ele>479.39999389648</ele>
        <time>2013-02-27T14:19:52.000Z</time>
      </trkpt>
      <trkpt lat="44.43068" lon="4.51325">
        <ele>479.39999389648</ele>
        <time>2013-02-27T14:19:53.000Z</time>
      </trkpt>
      <trkpt lat="44.43067" lon="4.51326">
        <ele>479.39999389648</ele>
        <time>2013-02-27T14:19:54.000Z</time>
      </trkpt>
      <trkpt lat="44.43066" lon="4.51327">
        <ele>479.39999389648</ele>
        <time>2013-02-27T14:19:55.000Z</time>
      </trkpt>
      <trkpt lat="44.43065" lon="4.51328">
        <ele>479.39999389648</ele>
        <time>2013-02-27T14:19:56.000Z</time>
      </trkpt>
      <trkpt lat="44.43064" lon="4.51329">
        <ele>479.39999389648</ele>
        <time>2013-02-27T14:19:57.000Z</time>
      </trkpt>
      <trkpt lat="44.43063" lon="4.51331">
        <ele>479.39999389648</ele>
        <time>2013-02-27T14:19:58.000Z</time>
      </trkpt>
      <trkpt lat="44.43062" lon="4.51332">
        <ele>479.39999389648</ele>
        <time>2013-02-27T14:19:59.000Z</time>
      </trkpt>
      <trkpt lat="44.43061" lon="4.51333">
        <ele>479.79998779297</ele>
        <time>2013-02-27T14:20:00.000Z</time>
      </trkpt>
      <trkpt lat="44.4306" lon="4.51334">
        <ele>479.79998779297</ele>
        <time>2013-02-27T14:20:01.000Z</time>
      </trkpt>
      <trkpt lat="44.43059" lon="4.51336">
        <ele>479.79998779297</ele>
        <time>2013-02-27T14:20:02.000Z</time>
      </trkpt>
      <trkpt lat="44.43057" lon="4.51337">
        <ele>480.39999389648</ele>
        <time>2013-02-27T14:20:03.000Z</time>
      </trkpt>
      <trkpt lat="44.43056" lon="4.51338">
        <ele>480.39999389648</ele>
        <time>2013-02-27T14:20:04.000Z</time>
      </trkpt>
      <trkpt lat="44.43055" lon="4.51339">
        <ele>480.39999389648</ele>
        <time>2013-02-27T14:20:05.000Z</time>
      </trkpt>
      <trkpt lat="44.43054" lon="4.5134">
        <ele>480.39999389648</ele>
        <time>2013-02-27T14:20:06.000Z</time>
      </trkpt>
      <trkpt lat="44.43053" lon="4.51341">
        <ele>480.39999389648</ele>
        <time>2013-02-27T14:20:07.000Z</time>
      </trkpt>
      <trkpt lat="44.43052" lon="4.51342">
        <ele>481.20001220703</ele>
        <time>2013-02-27T14:20:08.000Z</time>
      </trkpt>
      <trkpt lat="44.43051" lon="4.51344">
        <ele>481.79998779297</ele>
        <time>2013-02-27T14:20:09.000Z</time>
      </trkpt>
      <trkpt lat="44.43049" lon="4.51345">
        <ele>482.20001220703</ele>
        <time>2013-02-27T14:20:10.000Z</time>
      </trkpt>
      <trkpt lat="44.43048" lon="4.51347">
        <ele>482.20001220703</ele>
        <time>2013-02-27T14:20:11.000Z</time>
      </trkpt>
      <trkpt lat="44.43047" lon="4.51348">
        <ele>482.79998779297</ele>
        <time>2013-02-27T14:20:12.000Z</time>
      </trkpt>
      <trkpt lat="44.43046" lon="4.5135">
        <ele>482.79998779297</ele>
        <time>2013-02-27T14:20:13.000Z</time>
      </trkpt>
      <trkpt lat="44.43045" lon="4.51351">
        <ele>483.20001220703</ele>
        <time>2013-02-27T14:20:14.000Z</time>
      </trkpt>
      <trkpt lat="44.43044" lon="4.51352">
        <ele>483.20001220703</ele>
        <time>2013-02-27T14:20:15.000Z</time>
      </trkpt>
      <trkpt lat="44.43043" lon="4.51354">
        <ele>483.60000610352</ele>
        <time>2013-02-27T14:20:16.000Z</time>
      </trkpt>
      <trkpt lat="44.43042" lon="4.51355">
        <ele>483.60000610352</ele>
        <time>2013-02-27T14:20:17.000Z</time>
      </trkpt>
      <trkpt lat="44.43041" lon="4.51356">
        <ele>483.60000610352</ele>
        <time>2013-02-27T14:20:18.000Z</time>
      </trkpt>
      <trkpt lat="44.4304" lon="4.51357">
        <ele>483.60000610352</ele>
        <time>2013-02-27T14:20:19.000Z</time>
      </trkpt>
      <trkpt lat="44.43039" lon="4.51358">
        <ele>483.60000610352</ele>
        <time>2013-02-27T14:20:20.000Z</time>
      </trkpt>
      <trkpt lat="44.43037" lon="4.51359">
        <ele>483.20001220703</ele>
        <time>2013-02-27T14:20:21.000Z</time>
      </trkpt>
      <trkpt lat="44.43036" lon="4.5136">
        <ele>483.60000610352</ele>
        <time>2013-02-27T14:20:22.000Z</time>
      </trkpt>
      <trkpt lat="44.43035" lon="4.51362">
        <ele>483.20001220703</ele>
        <time>2013-02-27T14:20:23.000Z</time>
      </trkpt>
      <trkpt lat="44.43034" lon="4.51363">
        <ele>483.20001220703</ele>
        <time>2013-02-27T14:20:24.000Z</time>
      </trkpt>
      <trkpt lat="44.43033" lon="4.51364">
        <ele>483.20001220703</ele>
        <time>2013-02-27T14:20:25.000Z</time>
      </trkpt>
      <trkpt lat="44.43032" lon="4.51365">
        <ele>483.20001220703</ele>
        <time>2013-02-27T14:20:26.000Z</time>
      </trkpt>
      <trkpt lat="44.43031" lon="4.51367">
        <ele>483.20001220703</ele>
        <time>2013-02-27T14:20:27.000Z</time>
      </trkpt>
      <trkpt lat="44.4303" lon="4.51368">
        <ele>483.20001220703</ele>
        <time>2013-02-27T14:20:28.000Z</time>
      </trkpt>
      <trkpt lat="44.43029" lon="4.51369">
        <ele>483.20001220703</ele>
        <time>2013-02-27T14:20:29.000Z</time>
      </trkpt>
      <trkpt lat="44.43028" lon="4.5137">
        <ele>483.20001220703</ele>
        <time>2013-02-27T14:20:30.000Z</time>
      </trkpt>
      <trkpt lat="44.43027" lon="4.51371">
        <ele>483.20001220703</ele>
        <time>2013-02-27T14:20:31.000Z</time>
      </trkpt>
      <trkpt lat="44.43026" lon="4.51373">
        <ele>483.20001220703</ele>
        <time>2013-02-27T14:20:32.000Z</time>
      </trkpt>
      <trkpt lat="44.43025" lon="4.51374">
        <ele>483.20001220703</ele>
        <time>2013-02-27T14:20:33.000Z</time>
      </trkpt>
      <trkpt lat="44.43024" lon="4.51375">
        <ele>483.20001220703</ele>
        <time>2013-02-27T14:20:34.000Z</time>
      </trkpt>
      <trkpt lat="44.43022" lon="4.51376">
        <ele>483.20001220703</ele>
        <time>2013-02-27T14:20:35.000Z</time>
      </trkpt>
      <trkpt lat="44.43021" lon="4.51377">
        <ele>483.20001220703</ele>
        <time>2013-02-27T14:20:36.000Z</time>
      </trkpt>
      <trkpt lat="44.4302" lon="4.51378">
        <ele>483.20001220703</ele>
        <time>2013-02-27T14:20:37.000Z</time>
      </trkpt>
      <trkpt lat="44.43019" lon="4.51378">
        <ele>483.20001220703</ele>
        <time>2013-02-27T14:20:38.000Z</time>
      </trkpt>
      <trkpt lat="44.43018" lon="4.51379">
        <ele>483.20001220703</ele>
        <time>2013-02-27T14:20:39.000Z</time>
      </trkpt>
      <trkpt lat="44.43016" lon="4.5138">
        <ele>483.20001220703</ele>
        <time>2013-02-27T14:20:40.000Z</time>
      </trkpt>
      <trkpt lat="44.43015" lon="4.51381">
        <ele>483.20001220703</ele>
        <time>2013-02-27T14:20:41.000Z</time>
      </trkpt>
      <trkpt lat="44.43014" lon="4.51381">
        <ele>483.20001220703</ele>
        <time>2013-02-27T14:20:42.000Z</time>
      </trkpt>
      <trkpt lat="44.43012" lon="4.51382">
        <ele>483.20001220703</ele>
        <time>2013-02-27T14:20:43.000Z</time>
      </trkpt>
      <trkpt lat="44.43011" lon="4.51382">
        <ele>483.20001220703</ele>
        <time>2013-02-27T14:20:44.000Z</time>
      </trkpt>
      <trkpt lat="44.4301" lon="4.51383">
        <ele>483.20001220703</ele>
        <time>2013-02-27T14:20:45.000Z</time>
      </trkpt>
      <trkpt lat="44.43009" lon="4.51383">
        <ele>482.79998779297</ele>
        <time>2013-02-27T14:20:46.000Z</time>
      </trkpt>
      <trkpt lat="44.43007" lon="4.51384">
        <ele>482.79998779297</ele>
        <time>2013-02-27T14:20:47.000Z</time>
      </trkpt>
      <trkpt lat="44.43006" lon="4.51384">
        <ele>482.79998779297</ele>
        <time>2013-02-27T14:20:48.000Z</time>
      </trkpt>
      <trkpt lat="44.43004" lon="4.51384">
        <ele>482.20001220703</ele>
        <time>2013-02-27T14:20:49.000Z</time>
      </trkpt>
      <trkpt lat="44.43003" lon="4.51384">
        <ele>482.20001220703</ele>
        <time>2013-02-27T14:20:50.000Z</time>
      </trkpt>
      <trkpt lat="44.43002" lon="4.51384">
        <ele>481.79998779297</ele>
        <time>2013-02-27T14:20:51.000Z</time>
      </trkpt>
      <trkpt lat="44.43" lon="4.51384">
        <ele>481.79998779297</ele>
        <time>2013-02-27T14:20:52.000Z</time>
      </trkpt>
      <trkpt lat="44.42999" lon="4.51384">
        <ele>481.79998779297</ele>
        <time>2013-02-27T14:20:53.000Z</time>
      </trkpt>
      <trkpt lat="44.42998" lon="4.51384">
        <ele>481.20001220703</ele>
        <time>2013-02-27T14:20:54.000Z</time>
      </trkpt>
      <trkpt lat="44.42996" lon="4.51383">
        <ele>481.20001220703</ele>
        <time>2013-02-27T14:20:55.000Z</time>
      </trkpt>
      <trkpt lat="44.42995" lon="4.51383">
        <ele>481.20001220703</ele>
        <time>2013-02-27T14:20:56.000Z</time>
      </trkpt>
      <trkpt lat="44.42993" lon="4.51382">
        <ele>481.20001220703</ele>
        <time>2013-02-27T14:20:57.000Z</time>
      </trkpt>
      <trkpt lat="44.42992" lon="4.51381">
        <ele>481.20001220703</ele>
        <time>2013-02-27T14:20:58.000Z</time>
      </trkpt>
      <trkpt lat="44.42991" lon="4.51381">
        <ele>481.20001220703</ele>
        <time>2013-02-27T14:20:59.000Z</time>
      </trkpt>
      <trkpt lat="44.42989" lon="4.5138">
        <ele>481.20001220703</ele>
        <time>2013-02-27T14:21:00.000Z</time>
      </trkpt>
      <trkpt lat="44.42988" lon="4.51379">
        <ele>481.20001220703</ele>
        <time>2013-02-27T14:21:01.000Z</time>
      </trkpt>
      <trkpt lat="44.42987" lon="4.51378">
        <ele>480.79998779297</ele>
        <time>2013-02-27T14:21:02.000Z</time>
      </trkpt>
      <trkpt lat="44.42985" lon="4.51377">
        <ele>480.79998779297</ele>
        <time>2013-02-27T14:21:03.000Z</time>
      </trkpt>
      <trkpt lat="44.42984" lon="4.51377">
        <ele>480.79998779297</ele>
        <time>2013-02-27T14:21:04.000Z</time>
      </trkpt>
      <trkpt lat="44.42983" lon="4.51376">
        <ele>480.79998779297</ele>
        <time>2013-02-27T14:21:05.000Z</time>
      </trkpt>
      <trkpt lat="44.42981" lon="4.51375">
        <ele>480.79998779297</ele>
        <time>2013-02-27T14:21:06.000Z</time>
      </trkpt>
      <trkpt lat="44.4298" lon="4.51375">
        <ele>480.39999389648</ele>
        <time>2013-02-27T14:21:07.000Z</time>
      </trkpt>
      <trkpt lat="44.42979" lon="4.51374">
        <ele>479.79998779297</ele>
        <time>2013-02-27T14:21:08.000Z</time>
      </trkpt>
      <trkpt lat="44.42978" lon="4.51373">
        <ele>479.79998779297</ele>
        <time>2013-02-27T14:21:09.000Z</time>
      </trkpt>
      <trkpt lat="44.42976" lon="4.51373">
        <ele>479.79998779297</ele>
        <time>2013-02-27T14:21:10.000Z</time>
      </trkpt>
      <trkpt lat="44.42975" lon="4.51373">
        <ele>479.39999389648</ele>
        <time>2013-02-27T14:21:11.000Z</time>
      </trkpt>
      <trkpt lat="44.42974" lon="4.51372">
        <ele>479.39999389648</ele>
        <time>2013-02-27T14:21:12.000Z</time>
      </trkpt>
      <trkpt lat="44.42972" lon="4.51372">
        <ele>479.39999389648</ele>
        <time>2013-02-27T14:21:13.000Z</time>
      </trkpt>
      <trkpt lat="44.42971" lon="4.51371">
        <ele>478.39999389648</ele>
        <time>2013-02-27T14:21:14.000Z</time>
      </trkpt>
      <trkpt lat="44.4297" lon="4.51371">
        <ele>478.39999389648</ele>
        <time>2013-02-27T14:21:15.000Z</time>
      </trkpt>
      <trkpt lat="44.42969" lon="4.5137">
        <ele>478.39999389648</ele>
        <time>2013-02-27T14:21:16.000Z</time>
      </trkpt>
      <trkpt lat="44.42967" lon="4.5137">
        <ele>478</ele>
        <time>2013-02-27T14:21:17.000Z</time>
      </trkpt>
      <trkpt lat="44.42966" lon="4.51369">
        <ele>478</ele>
        <time>2013-02-27T14:21:18.000Z</time>
      </trkpt>
      <trkpt lat="44.42964" lon="4.51369">
        <ele>477.39999389648</ele>
        <time>2013-02-27T14:21:19.000Z</time>
      </trkpt>
      <trkpt lat="44.42963" lon="4.51368">
        <ele>477.39999389648</ele>
        <time>2013-02-27T14:21:20.000Z</time>
      </trkpt>
      <trkpt lat="44.42962" lon="4.51368">
        <ele>477</ele>
        <time>2013-02-27T14:21:21.000Z</time>
      </trkpt>
      <trkpt lat="44.4296" lon="4.51367">
        <ele>477</ele>
        <time>2013-02-27T14:21:22.000Z</time>
      </trkpt>
      <trkpt lat="44.42959" lon="4.51367">
        <ele>477</ele>
        <time>2013-02-27T14:21:23.000Z</time>
      </trkpt>
      <trkpt lat="44.42958" lon="4.51366">
        <ele>477</ele>
        <time>2013-02-27T14:21:24.000Z</time>
      </trkpt>
      <trkpt lat="44.42956" lon="4.51366">
        <ele>477</ele>
        <time>2013-02-27T14:21:25.000Z</time>
      </trkpt>
      <trkpt lat="44.42955" lon="4.51366">
        <ele>477</ele>
        <time>2013-02-27T14:21:26.000Z</time>
      </trkpt>
      <trkpt lat="44.42953" lon="4.51365">
        <ele>476.39999389648</ele>
        <time>2013-02-27T14:21:27.000Z</time>
      </trkpt>
      <trkpt lat="44.42952" lon="4.51365">
        <ele>476.39999389648</ele>
        <time>2013-02-27T14:21:28.000Z</time>
      </trkpt>
      <trkpt lat="44.42951" lon="4.51365">
        <ele>476</ele>
        <time>2013-02-27T14:21:29.000Z</time>
      </trkpt>
      <trkpt lat="44.4295" lon="4.51364">
        <ele>476</ele>
        <time>2013-02-27T14:21:30.000Z</time>
      </trkpt>
      <trkpt lat="44.42948" lon="4.51364">
        <ele>476</ele>
        <time>2013-02-27T14:21:31.000Z</time>
      </trkpt>
      <trkpt lat="44.42947" lon="4.51363">
        <ele>475.60000610352</ele>
        <time>2013-02-27T14:21:32.000Z</time>
      </trkpt>
      <trkpt lat="44.42946" lon="4.51363">
        <ele>475.60000610352</ele>
        <time>2013-02-27T14:21:33.000Z</time>
      </trkpt>
      <trkpt lat="44.42944" lon="4.51363">
        <ele>475.60000610352</ele>
        <time>2013-02-27T14:21:34.000Z</time>
      </trkpt>
      <trkpt lat="44.42943" lon="4.51362">
        <ele>475</ele>
        <time>2013-02-27T14:21:35.000Z</time>
      </trkpt>
      <trkpt lat="44.42942" lon="4.51362">
        <ele>475</ele>
        <time>2013-02-27T14:21:36.000Z</time>
      </trkpt>
      <trkpt lat="44.42941" lon="4.51362">
        <ele>474.60000610352</ele>
        <time>2013-02-27T14:21:37.000Z</time>
      </trkpt>
      <trkpt lat="44.42939" lon="4.51361">
        <ele>474.60000610352</ele>
        <time>2013-02-27T14:21:38.000Z</time>
      </trkpt>
      <trkpt lat="44.42938" lon="4.5136">
        <ele>474.60000610352</ele>
        <time>2013-02-27T14:21:39.000Z</time>
      </trkpt>
      <trkpt lat="44.42937" lon="4.5136">
        <ele>474.60000610352</ele>
        <time>2013-02-27T14:21:40.000Z</time>
      </trkpt>
      <trkpt lat="44.42935" lon="4.5136">
        <ele>474.60000610352</ele>
        <time>2013-02-27T14:21:41.000Z</time>
      </trkpt>
      <trkpt lat="44.42934" lon="4.51359">
        <ele>474.60000610352</ele>
        <time>2013-02-27T14:21:42.000Z</time>
      </trkpt>
      <trkpt lat="44.42932" lon="4.51359">
        <ele>474.60000610352</ele>
        <time>2013-02-27T14:21:43.000Z</time>
      </trkpt>
      <trkpt lat="44.42931" lon="4.51358">
        <ele>474</ele>
        <time>2013-02-27T14:21:44.000Z</time>
      </trkpt>
      <trkpt lat="44.4293" lon="4.51358">
        <ele>474</ele>
        <time>2013-02-27T14:21:45.000Z</time>
      </trkpt>
      <trkpt lat="44.42928" lon="4.51357">
        <ele>474</ele>
        <time>2013-02-27T14:21:46.000Z</time>
      </trkpt>
      <trkpt lat="44.42927" lon="4.51356">
        <ele>474</ele>
        <time>2013-02-27T14:21:47.000Z</time>
      </trkpt>
      <trkpt lat="44.42925" lon="4.51356">
        <ele>474</ele>
        <time>2013-02-27T14:21:48.000Z</time>
      </trkpt>
      <trkpt lat="44.42924" lon="4.51355">
        <ele>474</ele>
        <time>2013-02-27T14:21:49.000Z</time>
      </trkpt>
      <trkpt lat="44.42923" lon="4.51355">
        <ele>473.60000610352</ele>
        <time>2013-02-27T14:21:50.000Z</time>
      </trkpt>
      <trkpt lat="44.42921" lon="4.51354">
        <ele>473.60000610352</ele>
        <time>2013-02-27T14:21:51.000Z</time>
      </trkpt>
      <trkpt lat="44.4292" lon="4.51353">
        <ele>473.60000610352</ele>
        <time>2013-02-27T14:21:52.000Z</time>
      </trkpt>
      <trkpt lat="44.42918" lon="4.51353">
        <ele>473.60000610352</ele>
        <time>2013-02-27T14:21:53.000Z</time>
      </trkpt>
      <trkpt lat="44.42917" lon="4.51352">
        <ele>473.60000610352</ele>
        <time>2013-02-27T14:21:54.000Z</time>
      </trkpt>
      <trkpt lat="44.42916" lon="4.51352">
        <ele>473.60000610352</ele>
        <time>2013-02-27T14:21:55.000Z</time>
      </trkpt>
      <trkpt lat="44.42914" lon="4.51351">
        <ele>473.20001220703</ele>
        <time>2013-02-27T14:21:56.000Z</time>
      </trkpt>
      <trkpt lat="44.42913" lon="4.51351">
        <ele>473.20001220703</ele>
        <time>2013-02-27T14:21:57.000Z</time>
      </trkpt>
      <trkpt lat="44.42911" lon="4.51351">
        <ele>473.20001220703</ele>
        <time>2013-02-27T14:21:58.000Z</time>
      </trkpt>
      <trkpt lat="44.4291" lon="4.5135">
        <ele>473.20001220703</ele>
        <time>2013-02-27T14:21:59.000Z</time>
      </trkpt>
      <trkpt lat="44.42909" lon="4.5135">
        <ele>472.60000610352</ele>
        <time>2013-02-27T14:22:00.000Z</time>
      </trkpt>
      <trkpt lat="44.42908" lon="4.5135">
        <ele>472.20001220703</ele>
        <time>2013-02-27T14:22:01.000Z</time>
      </trkpt>
      <trkpt lat="44.42906" lon="4.5135">
        <ele>472.20001220703</ele>
        <time>2013-02-27T14:22:02.000Z</time>
      </trkpt>
      <trkpt lat="44.42905" lon="4.51351">
        <ele>472.20001220703</ele>
        <time>2013-02-27T14:22:03.000Z</time>
      </trkpt>
      <trkpt lat="44.42904" lon="4.51352">
        <ele>471.60000610352</ele>
        <time>2013-02-27T14:22:04.000Z</time>
      </trkpt>
      <trkpt lat="44.42903" lon="4.51353">
        <ele>471.60000610352</ele>
        <time>2013-02-27T14:22:05.000Z</time>
      </trkpt>
      <trkpt lat="44.42902" lon="4.51354">
        <ele>471.20001220703</ele>
        <time>2013-02-27T14:22:06.000Z</time>
      </trkpt>
      <trkpt lat="44.42901" lon="4.51356">
        <ele>471.20001220703</ele>
        <time>2013-02-27T14:22:07.000Z</time>
      </trkpt>
      <trkpt lat="44.42901" lon="4.51357">
        <ele>470.79998779297</ele>
        <time>2013-02-27T14:22:08.000Z</time>
      </trkpt>
      <trkpt lat="44.429" lon="4.51359">
        <ele>470.79998779297</ele>
        <time>2013-02-27T14:22:09.000Z</time>
      </trkpt>
      <trkpt lat="44.42899" lon="4.5136">
        <ele>470.79998779297</ele>
        <time>2013-02-27T14:22:10.000Z</time>
      </trkpt>
      <trkpt lat="44.42898" lon="4.51362">
        <ele>470.79998779297</ele>
        <time>2013-02-27T14:22:11.000Z</time>
      </trkpt>
      <trkpt lat="44.42898" lon="4.51364">
        <ele>470.79998779297</ele>
        <time>2013-02-27T14:22:12.000Z</time>
      </trkpt>
      <trkpt lat="44.42897" lon="4.51365">
        <ele>470.79998779297</ele>
        <time>2013-02-27T14:22:13.000Z</time>
      </trkpt>
      <trkpt lat="44.42897" lon="4.51367">
        <ele>470.79998779297</ele>
        <time>2013-02-27T14:22:14.000Z</time>
      </trkpt>
      <trkpt lat="44.42896" lon="4.51369">
        <ele>470.20001220703</ele>
        <time>2013-02-27T14:22:15.000Z</time>
      </trkpt>
      <trkpt lat="44.42895" lon="4.5137">
        <ele>470.20001220703</ele>
        <time>2013-02-27T14:22:16.000Z</time>
      </trkpt>
      <trkpt lat="44.42895" lon="4.51371">
        <ele>469.79998779297</ele>
        <time>2013-02-27T14:22:17.000Z</time>
      </trkpt>
      <trkpt lat="44.42894" lon="4.51373">
        <ele>469.20001220703</ele>
        <time>2013-02-27T14:22:18.000Z</time>
      </trkpt>
      <trkpt lat="44.42893" lon="4.51374">
        <ele>469.20001220703</ele>
        <time>2013-02-27T14:22:19.000Z</time>
      </trkpt>
      <trkpt lat="44.42893" lon="4.51376">
        <ele>468.79998779297</ele>
        <time>2013-02-27T14:22:20.000Z</time>
      </trkpt>
      <trkpt lat="44.42892" lon="4.51377">
        <ele>468.79998779297</ele>
        <time>2013-02-27T14:22:21.000Z</time>
      </trkpt>
      <trkpt lat="44.42892" lon="4.51379">
        <ele>468.20001220703</ele>
        <time>2013-02-27T14:22:22.000Z</time>
      </trkpt>
      <trkpt lat="44.42891" lon="4.51381">
        <ele>467.79998779297</ele>
        <time>2013-02-27T14:22:23.000Z</time>
      </trkpt>
      <trkpt lat="44.4289" lon="4.51382">
        <ele>467.39999389648</ele>
        <time>2013-02-27T14:22:24.000Z</time>
      </trkpt>
      <trkpt lat="44.42889" lon="4.51384">
        <ele>466.79998779297</ele>
        <time>2013-02-27T14:22:25.000Z</time>
      </trkpt>
      <trkpt lat="44.42888" lon="4.51386">
        <ele>466.79998779297</ele>
        <time>2013-02-27T14:22:26.000Z</time>
      </trkpt>
      <trkpt lat="44.42888" lon="4.51387">
        <ele>466.39999389648</ele>
        <time>2013-02-27T14:22:27.000Z</time>
      </trkpt>
      <trkpt lat="44.42887" lon="4.51389">
        <ele>465.79998779297</ele>
        <time>2013-02-27T14:22:28.000Z</time>
      </trkpt>
      <trkpt lat="44.42886" lon="4.51391">
        <ele>465.39999389648</ele>
        <time>2013-02-27T14:22:29.000Z</time>
      </trkpt>
      <trkpt lat="44.42885" lon="4.51393">
        <ele>465.39999389648</ele>
        <time>2013-02-27T14:22:30.000Z</time>
      </trkpt>
      <trkpt lat="44.42884" lon="4.51394">
        <ele>465.39999389648</ele>
        <time>2013-02-27T14:22:31.000Z</time>
      </trkpt>
      <trkpt lat="44.42883" lon="4.51396">
        <ele>465</ele>
        <time>2013-02-27T14:22:32.000Z</time>
      </trkpt>
      <trkpt lat="44.42882" lon="4.51397">
        <ele>465</ele>
        <time>2013-02-27T14:22:33.000Z</time>
      </trkpt>
      <trkpt lat="44.42881" lon="4.51399">
        <ele>464.39999389648</ele>
        <time>2013-02-27T14:22:34.000Z</time>
      </trkpt>
      <trkpt lat="44.4288" lon="4.514">
        <ele>464.39999389648</ele>
        <time>2013-02-27T14:22:35.000Z</time>
      </trkpt>
      <trkpt lat="44.42879" lon="4.51402">
        <ele>464.39999389648</ele>
        <time>2013-02-27T14:22:36.000Z</time>
      </trkpt>
      <trkpt lat="44.42878" lon="4.51404">
        <ele>464</ele>
        <time>2013-02-27T14:22:37.000Z</time>
      </trkpt>
      <trkpt lat="44.42877" lon="4.51405">
        <ele>464</ele>
        <time>2013-02-27T14:22:38.000Z</time>
      </trkpt>
      <trkpt lat="44.42876" lon="4.51406">
        <ele>464</ele>
        <time>2013-02-27T14:22:39.000Z</time>
      </trkpt>
      <trkpt lat="44.42875" lon="4.51407">
        <ele>464</ele>
        <time>2013-02-27T14:22:40.000Z</time>
      </trkpt>
      <trkpt lat="44.42874" lon="4.51408">
        <ele>464</ele>
        <time>2013-02-27T14:22:41.000Z</time>
      </trkpt>
      <trkpt lat="44.42872" lon="4.51409">
        <ele>463.39999389648</ele>
        <time>2013-02-27T14:22:42.000Z</time>
      </trkpt>
      <trkpt lat="44.42871" lon="4.5141">
        <ele>463</ele>
        <time>2013-02-27T14:22:43.000Z</time>
      </trkpt>
      <trkpt lat="44.4287" lon="4.5141">
        <ele>463</ele>
        <time>2013-02-27T14:22:44.000Z</time>
      </trkpt>
      <trkpt lat="44.42869" lon="4.51411">
        <ele>463.39999389648</ele>
        <time>2013-02-27T14:22:45.000Z</time>
      </trkpt>
      <trkpt lat="44.42868" lon="4.51412">
        <ele>463.39999389648</ele>
        <time>2013-02-27T14:22:46.000Z</time>
      </trkpt>
      <trkpt lat="44.42866" lon="4.51412">
        <ele>463.39999389648</ele>
        <time>2013-02-27T14:22:47.000Z</time>
      </trkpt>
      <trkpt lat="44.42865" lon="4.51413">
        <ele>463.39999389648</ele>
        <time>2013-02-27T14:22:48.000Z</time>
      </trkpt>
      <trkpt lat="44.42863" lon="4.51414">
        <ele>463</ele>
        <time>2013-02-27T14:22:49.000Z</time>
      </trkpt>
      <trkpt lat="44.42862" lon="4.51414">
        <ele>463</ele>
        <time>2013-02-27T14:22:50.000Z</time>
      </trkpt>
      <trkpt lat="44.42861" lon="4.51414">
        <ele>463</ele>
        <time>2013-02-27T14:22:51.000Z</time>
      </trkpt>
      <trkpt lat="44.42859" lon="4.51414">
        <ele>463</ele>
        <time>2013-02-27T14:22:52.000Z</time>
      </trkpt>
      <trkpt lat="44.42858" lon="4.51415">
        <ele>463</ele>
        <time>2013-02-27T14:22:53.000Z</time>
      </trkpt>
      <trkpt lat="44.42856" lon="4.51415">
        <ele>463</ele>
        <time>2013-02-27T14:22:54.000Z</time>
      </trkpt>
      <trkpt lat="44.42855" lon="4.51416">
        <ele>463</ele>
        <time>2013-02-27T14:22:55.000Z</time>
      </trkpt>
      <trkpt lat="44.42854" lon="4.51416">
        <ele>463</ele>
        <time>2013-02-27T14:22:56.000Z</time>
      </trkpt>
      <trkpt lat="44.42852" lon="4.51416">
        <ele>463</ele>
        <time>2013-02-27T14:22:57.000Z</time>
      </trkpt>
      <trkpt lat="44.42851" lon="4.51417">
        <ele>463.39999389648</ele>
        <time>2013-02-27T14:22:58.000Z</time>
      </trkpt>
      <trkpt lat="44.42849" lon="4.51417">
        <ele>463.39999389648</ele>
        <time>2013-02-27T14:22:59.000Z</time>
      </trkpt>
      <trkpt lat="44.42848" lon="4.51417">
        <ele>463.39999389648</ele>
        <time>2013-02-27T14:23:00.000Z</time>
      </trkpt>
      <trkpt lat="44.42846" lon="4.51417">
        <ele>463.39999389648</ele>
        <time>2013-02-27T14:23:01.000Z</time>
      </trkpt>
      <trkpt lat="44.42845" lon="4.51417">
        <ele>463</ele>
        <time>2013-02-27T14:23:02.000Z</time>
      </trkpt>
      <trkpt lat="44.42843" lon="4.51418">
        <ele>463.39999389648</ele>
        <time>2013-02-27T14:23:03.000Z</time>
      </trkpt>
      <trkpt lat="44.42842" lon="4.51418">
        <ele>463</ele>
        <time>2013-02-27T14:23:04.000Z</time>
      </trkpt>
      <trkpt lat="44.4284" lon="4.51419">
        <ele>463.39999389648</ele>
        <time>2013-02-27T14:23:05.000Z</time>
      </trkpt>
      <trkpt lat="44.42839" lon="4.51419">
        <ele>463.39999389648</ele>
        <time>2013-02-27T14:23:06.000Z</time>
      </trkpt>
      <trkpt lat="44.42837" lon="4.51419">
        <ele>463.39999389648</ele>
        <time>2013-02-27T14:23:07.000Z</time>
      </trkpt>
      <trkpt lat="44.42836" lon="4.51419">
        <ele>463.39999389648</ele>
        <time>2013-02-27T14:23:08.000Z</time>
      </trkpt>
      <trkpt lat="44.42835" lon="4.51419">
        <ele>463.39999389648</ele>
        <time>2013-02-27T14:23:09.000Z</time>
      </trkpt>
      <trkpt lat="44.42833" lon="4.51419">
        <ele>463.39999389648</ele>
        <time>2013-02-27T14:23:10.000Z</time>
      </trkpt>
      <trkpt lat="44.42832" lon="4.51419">
        <ele>463.39999389648</ele>
        <time>2013-02-27T14:23:11.000Z</time>
      </trkpt>
      <trkpt lat="44.4283" lon="4.51419">
        <ele>463.39999389648</ele>
        <time>2013-02-27T14:23:12.000Z</time>
      </trkpt>
      <trkpt lat="44.42829" lon="4.5142">
        <ele>463.39999389648</ele>
        <time>2013-02-27T14:23:13.000Z</time>
      </trkpt>
      <trkpt lat="44.42827" lon="4.5142">
        <ele>463.39999389648</ele>
        <time>2013-02-27T14:23:14.000Z</time>
      </trkpt>
      <trkpt lat="44.42826" lon="4.5142">
        <ele>463.39999389648</ele>
        <time>2013-02-27T14:23:15.000Z</time>
      </trkpt>
      <trkpt lat="44.42825" lon="4.5142">
        <ele>463.39999389648</ele>
        <time>2013-02-27T14:23:16.000Z</time>
      </trkpt>
      <trkpt lat="44.42823" lon="4.5142">
        <ele>463.39999389648</ele>
        <time>2013-02-27T14:23:17.000Z</time>
      </trkpt>
      <trkpt lat="44.42822" lon="4.5142">
        <ele>463.39999389648</ele>
        <time>2013-02-27T14:23:18.000Z</time>
      </trkpt>
      <trkpt lat="44.4282" lon="4.5142">
        <ele>463.39999389648</ele>
        <time>2013-02-27T14:23:19.000Z</time>
      </trkpt>
      <trkpt lat="44.42819" lon="4.5142">
        <ele>463.39999389648</ele>
        <time>2013-02-27T14:23:20.000Z</time>
      </trkpt>
      <trkpt lat="44.42817" lon="4.51421">
        <ele>463.39999389648</ele>
        <time>2013-02-27T14:23:21.000Z</time>
      </trkpt>
      <trkpt lat="44.42816" lon="4.51421">
        <ele>463.39999389648</ele>
        <time>2013-02-27T14:23:22.000Z</time>
      </trkpt>
      <trkpt lat="44.42814" lon="4.51421">
        <ele>463.39999389648</ele>
        <time>2013-02-27T14:23:23.000Z</time>
      </trkpt>
      <trkpt lat="44.42813" lon="4.51421">
        <ele>463</ele>
        <time>2013-02-27T14:23:24.000Z</time>
      </trkpt>
      <trkpt lat="44.42811" lon="4.51421">
        <ele>463</ele>
        <time>2013-02-27T14:23:25.000Z</time>
      </trkpt>
      <trkpt lat="44.4281" lon="4.51421">
        <ele>463</ele>
        <time>2013-02-27T14:23:26.000Z</time>
      </trkpt>
      <trkpt lat="44.42809" lon="4.51421">
        <ele>463</ele>
        <time>2013-02-27T14:23:27.000Z</time>
      </trkpt>
      <trkpt lat="44.42807" lon="4.51421">
        <ele>462.60000610352</ele>
        <time>2013-02-27T14:23:28.000Z</time>
      </trkpt>
      <trkpt lat="44.42806" lon="4.51421">
        <ele>462.60000610352</ele>
        <time>2013-02-27T14:23:29.000Z</time>
      </trkpt>
      <trkpt lat="44.42804" lon="4.51421">
        <ele>462.60000610352</ele>
        <time>2013-02-27T14:23:30.000Z</time>
      </trkpt>
      <trkpt lat="44.42803" lon="4.51421">
        <ele>462</ele>
        <time>2013-02-27T14:23:31.000Z</time>
      </trkpt>
      <trkpt lat="44.42801" lon="4.51421">
        <ele>462</ele>
        <time>2013-02-27T14:23:32.000Z</time>
      </trkpt>
      <trkpt lat="44.428" lon="4.51421">
        <ele>462</ele>
        <time>2013-02-27T14:23:33.000Z</time>
      </trkpt>
      <trkpt lat="44.42799" lon="4.51421">
        <ele>462</ele>
        <time>2013-02-27T14:23:34.000Z</time>
      </trkpt>
      <trkpt lat="44.42797" lon="4.51421">
        <ele>462</ele>
        <time>2013-02-27T14:23:35.000Z</time>
      </trkpt>
      <trkpt lat="44.42796" lon="4.51421">
        <ele>461.60000610352</ele>
        <time>2013-02-27T14:23:36.000Z</time>
      </trkpt>
      <trkpt lat="44.42794" lon="4.51422">
        <ele>461.60000610352</ele>
        <time>2013-02-27T14:23:37.000Z</time>
      </trkpt>
      <trkpt lat="44.42793" lon="4.51422">
        <ele>461.60000610352</ele>
        <time>2013-02-27T14:23:38.000Z</time>
      </trkpt>
      <trkpt lat="44.42791" lon="4.51422">
        <ele>461</ele>
        <time>2013-02-27T14:23:39.000Z</time>
      </trkpt>
      <trkpt lat="44.4279" lon="4.51422">
        <ele>461</ele>
        <time>2013-02-27T14:23:40.000Z</time>
      </trkpt>
      <trkpt lat="44.42788" lon="4.51422">
        <ele>461</ele>
        <time>2013-02-27T14:23:41.000Z</time>
      </trkpt>
      <trkpt lat="44.42786" lon="4.51423">
        <ele>461</ele>
        <time>2013-02-27T14:23:42.000Z</time>
      </trkpt>
      <trkpt lat="44.42785" lon="4.51423">
        <ele>460.60000610352</ele>
        <time>2013-02-27T14:23:43.000Z</time>
      </trkpt>
      <trkpt lat="44.42783" lon="4.51423">
        <ele>460.60000610352</ele>
        <time>2013-02-27T14:23:44.000Z</time>
      </trkpt>
      <trkpt lat="44.42782" lon="4.51423">
        <ele>460.60000610352</ele>
        <time>2013-02-27T14:23:45.000Z</time>
      </trkpt>
      <trkpt lat="44.4278" lon="4.51423">
        <ele>460.60000610352</ele>
        <time>2013-02-27T14:23:46.000Z</time>
      </trkpt>
      <trkpt lat="44.42779" lon="4.51423">
        <ele>460.60000610352</ele>
        <time>2013-02-27T14:23:47.000Z</time>
      </trkpt>
      <trkpt lat="44.42777" lon="4.51423">
        <ele>460.20001220703</ele>
        <time>2013-02-27T14:23:48.000Z</time>
      </trkpt>
      <trkpt lat="44.42776" lon="4.51423">
        <ele>460.20001220703</ele>
        <time>2013-02-27T14:23:49.000Z</time>
      </trkpt>
      <trkpt lat="44.42774" lon="4.51423">
        <ele>460.20001220703</ele>
        <time>2013-02-27T14:23:50.000Z</time>
      </trkpt>
      <trkpt lat="44.42773" lon="4.51423">
        <ele>460.20001220703</ele>
        <time>2013-02-27T14:23:51.000Z</time>
      </trkpt>
      <trkpt lat="44.42771" lon="4.51423">
        <ele>460.20001220703</ele>
        <time>2013-02-27T14:23:52.000Z</time>
      </trkpt>
      <trkpt lat="44.4277" lon="4.51423">
        <ele>459.60000610352</ele>
        <time>2013-02-27T14:23:53.000Z</time>
      </trkpt>
      <trkpt lat="44.42768" lon="4.51423">
        <ele>459.60000610352</ele>
        <time>2013-02-27T14:23:54.000Z</time>
      </trkpt>
      <trkpt lat="44.42767" lon="4.51423">
        <ele>459.60000610352</ele>
        <time>2013-02-27T14:23:55.000Z</time>
      </trkpt>
      <trkpt lat="44.42766" lon="4.51423">
        <ele>459.60000610352</ele>
        <time>2013-02-27T14:23:56.000Z</time>
      </trkpt>
      <trkpt lat="44.42764" lon="4.51422">
        <ele>459.60000610352</ele>
        <time>2013-02-27T14:23:57.000Z</time>
      </trkpt>
      <trkpt lat="44.42763" lon="4.51422">
        <ele>459.60000610352</ele>
        <time>2013-02-27T14:23:58.000Z</time>
      </trkpt>
      <trkpt lat="44.42761" lon="4.51422">
        <ele>459.60000610352</ele>
        <time>2013-02-27T14:23:59.000Z</time>
      </trkpt>
      <trkpt lat="44.4276" lon="4.51422">
        <ele>459.60000610352</ele>
        <time>2013-02-27T14:24:00.000Z</time>
      </trkpt>
      <trkpt lat="44.42759" lon="4.51422">
        <ele>459.60000610352</ele>
        <time>2013-02-27T14:24:01.000Z</time>
      </trkpt>
      <trkpt lat="44.42757" lon="4.51421">
        <ele>459.60000610352</ele>
        <time>2013-02-27T14:24:02.000Z</time>
      </trkpt>
      <trkpt lat="44.42756" lon="4.51421">
        <ele>459.20001220703</ele>
        <time>2013-02-27T14:24:03.000Z</time>
      </trkpt>
      <trkpt lat="44.42754" lon="4.51421">
        <ele>459.20001220703</ele>
        <time>2013-02-27T14:24:04.000Z</time>
      </trkpt>
      <trkpt lat="44.42753" lon="4.5142">
        <ele>459.20001220703</ele>
        <time>2013-02-27T14:24:05.000Z</time>
      </trkpt>
      <trkpt lat="44.42751" lon="4.5142">
        <ele>459.20001220703</ele>
        <time>2013-02-27T14:24:06.000Z</time>
      </trkpt>
      <trkpt lat="44.4275" lon="4.51419">
        <ele>459.20001220703</ele>
        <time>2013-02-27T14:24:07.000Z</time>
      </trkpt>
      <trkpt lat="44.42749" lon="4.51418">
        <ele>458.60000610352</ele>
        <time>2013-02-27T14:24:08.000Z</time>
      </trkpt>
      <trkpt lat="44.42747" lon="4.51417">
        <ele>458.60000610352</ele>
        <time>2013-02-27T14:24:09.000Z</time>
      </trkpt>
      <trkpt lat="44.42746" lon="4.51416">
        <ele>458.60000610352</ele>
        <time>2013-02-27T14:24:10.000Z</time>
      </trkpt>
      <trkpt lat="44.42745" lon="4.51415">
        <ele>458.20001220703</ele>
        <time>2013-02-27T14:24:11.000Z</time>
      </trkpt>
      <trkpt lat="44.42743" lon="4.51414">
        <ele>457.79998779297</ele>
        <time>2013-02-27T14:24:12.000Z</time>
      </trkpt>
      <trkpt lat="44.42742" lon="4.51412">
        <ele>457.79998779297</ele>
        <time>2013-02-27T14:24:13.000Z</time>
      </trkpt>
      <trkpt lat="44.42741" lon="4.51411">
        <ele>457.20001220703</ele>
        <time>2013-02-27T14:24:14.000Z</time>
      </trkpt>
      <trkpt lat="44.4274" lon="4.51409">
        <ele>457.20001220703</ele>
        <time>2013-02-27T14:24:15.000Z</time>
      </trkpt>
      <trkpt lat="44.42739" lon="4.51408">
        <ele>456.79998779297</ele>
        <time>2013-02-27T14:24:16.000Z</time>
      </trkpt>
      <trkpt lat="44.42738" lon="4.51406">
        <ele>456.79998779297</ele>
        <time>2013-02-27T14:24:17.000Z</time>
      </trkpt>
      <trkpt lat="44.42737" lon="4.51404">
        <ele>456.20001220703</ele>
        <time>2013-02-27T14:24:18.000Z</time>
      </trkpt>
      <trkpt lat="44.42737" lon="4.51403">
        <ele>456.20001220703</ele>
        <time>2013-02-27T14:24:19.000Z</time>
      </trkpt>
      <trkpt lat="44.42736" lon="4.51401">
        <ele>456.20001220703</ele>
        <time>2013-02-27T14:24:20.000Z</time>
      </trkpt>
      <trkpt lat="44.42735" lon="4.514">
        <ele>456.20001220703</ele>
        <time>2013-02-27T14:24:21.000Z</time>
      </trkpt>
      <trkpt lat="44.42734" lon="4.51398">
        <ele>456.20001220703</ele>
        <time>2013-02-27T14:24:22.000Z</time>
      </trkpt>
      <trkpt lat="44.42733" lon="4.51397">
        <ele>456.20001220703</ele>
        <time>2013-02-27T14:24:23.000Z</time>
      </trkpt>
      <trkpt lat="44.42732" lon="4.51395">
        <ele>456.79998779297</ele>
        <time>2013-02-27T14:24:24.000Z</time>
      </trkpt>
      <trkpt lat="44.42731" lon="4.51394">
        <ele>456.20001220703</ele>
        <time>2013-02-27T14:24:25.000Z</time>
      </trkpt>
      <trkpt lat="44.4273" lon="4.51392">
        <ele>456.20001220703</ele>
        <time>2013-02-27T14:24:26.000Z</time>
      </trkpt>
      <trkpt lat="44.42729" lon="4.51391">
        <ele>456.20001220703</ele>
        <time>2013-02-27T14:24:27.000Z</time>
      </trkpt>
      <trkpt lat="44.42729" lon="4.51389">
        <ele>456.20001220703</ele>
        <time>2013-02-27T14:24:28.000Z</time>
      </trkpt>
      <trkpt lat="44.42728" lon="4.51388">
        <ele>456.20001220703</ele>
        <time>2013-02-27T14:24:29.000Z</time>
      </trkpt>
      <trkpt lat="44.42727" lon="4.51386">
        <ele>456.20001220703</ele>
        <time>2013-02-27T14:24:30.000Z</time>
      </trkpt>
      <trkpt lat="44.42726" lon="4.51385">
        <ele>456.20001220703</ele>
        <time>2013-02-27T14:24:31.000Z</time>
      </trkpt>
      <trkpt lat="44.42725" lon="4.51383">
        <ele>456.20001220703</ele>
        <time>2013-02-27T14:24:32.000Z</time>
      </trkpt>
      <trkpt lat="44.42724" lon="4.51382">
        <ele>456.20001220703</ele>
        <time>2013-02-27T14:24:33.000Z</time>
      </trkpt>
      <trkpt lat="44.42723" lon="4.51381">
        <ele>455.79998779297</ele>
        <time>2013-02-27T14:24:34.000Z</time>
      </trkpt>
      <trkpt lat="44.42722" lon="4.51379">
        <ele>455.79998779297</ele>
        <time>2013-02-27T14:24:35.000Z</time>
      </trkpt>
      <trkpt lat="44.42721" lon="4.51378">
        <ele>455.79998779297</ele>
        <time>2013-02-27T14:24:36.000Z</time>
      </trkpt>
      <trkpt lat="44.42719" lon="4.51377">
        <ele>455.79998779297</ele>
        <time>2013-02-27T14:24:37.000Z</time>
      </trkpt>
      <trkpt lat="44.42718" lon="4.51376">
        <ele>455.79998779297</ele>
        <time>2013-02-27T14:24:38.000Z</time>
      </trkpt>
      <trkpt lat="44.42717" lon="4.51376">
        <ele>455.79998779297</ele>
        <time>2013-02-27T14:24:39.000Z</time>
      </trkpt>
      <trkpt lat="44.42716" lon="4.51375">
        <ele>455.79998779297</ele>
        <time>2013-02-27T14:24:40.000Z</time>
      </trkpt>
      <trkpt lat="44.42714" lon="4.51375">
        <ele>455.79998779297</ele>
        <time>2013-02-27T14:24:41.000Z</time>
      </trkpt>
      <trkpt lat="44.42713" lon="4.51374">
        <ele>455.79998779297</ele>
        <time>2013-02-27T14:24:42.000Z</time>
      </trkpt>
      <trkpt lat="44.42712" lon="4.51374">
        <ele>455.79998779297</ele>
        <time>2013-02-27T14:24:43.000Z</time>
      </trkpt>
      <trkpt lat="44.4271" lon="4.51374">
        <ele>455.39999389648</ele>
        <time>2013-02-27T14:24:44.000Z</time>
      </trkpt>
      <trkpt lat="44.42709" lon="4.51374">
        <ele>455.39999389648</ele>
        <time>2013-02-27T14:24:45.000Z</time>
      </trkpt>
      <trkpt lat="44.42708" lon="4.51375">
        <ele>455.39999389648</ele>
        <time>2013-02-27T14:24:46.000Z</time>
      </trkpt>
      <trkpt lat="44.42706" lon="4.51375">
        <ele>455.39999389648</ele>
        <time>2013-02-27T14:24:47.000Z</time>
      </trkpt>
      <trkpt lat="44.42705" lon="4.51376">
        <ele>455.39999389648</ele>
        <time>2013-02-27T14:24:48.000Z</time>
      </trkpt>
      <trkpt lat="44.42704" lon="4.51377">
        <ele>454.79998779297</ele>
        <time>2013-02-27T14:24:49.000Z</time>
      </trkpt>
      <trkpt lat="44.42704" lon="4.51378">
        <ele>454.79998779297</ele>
        <time>2013-02-27T14:24:50.000Z</time>
      </trkpt>
      <trkpt lat="44.42703" lon="4.51379">
        <ele>454.39999389648</ele>
        <time>2013-02-27T14:24:51.000Z</time>
      </trkpt>
      <trkpt lat="44.42702" lon="4.5138">
        <ele>453.79998779297</ele>
        <time>2013-02-27T14:24:52.000Z</time>
      </trkpt>
      <trkpt lat="44.42702" lon="4.51382">
        <ele>453.79998779297</ele>
        <time>2013-02-27T14:24:53.000Z</time>
      </trkpt>
      <trkpt lat="44.42702" lon="4.51383">
        <ele>453.39999389648</ele>
        <time>2013-02-27T14:24:54.000Z</time>
      </trkpt>
      <trkpt lat="44.42701" lon="4.51385">
        <ele>453</ele>
        <time>2013-02-27T14:24:55.000Z</time>
      </trkpt>
      <trkpt lat="44.42701" lon="4.51386">
        <ele>452.39999389648</ele>
        <time>2013-02-27T14:24:56.000Z</time>
      </trkpt>
      <trkpt lat="44.42701" lon="4.51388">
        <ele>452.39999389648</ele>
        <time>2013-02-27T14:24:57.000Z</time>
      </trkpt>
      <trkpt lat="44.42701" lon="4.5139">
        <ele>452</ele>
        <time>2013-02-27T14:24:58.000Z</time>
      </trkpt>
      <trkpt lat="44.42701" lon="4.51391">
        <ele>452</ele>
        <time>2013-02-27T14:24:59.000Z</time>
      </trkpt>
      <trkpt lat="44.42702" lon="4.51393">
        <ele>452.39999389648</ele>
        <time>2013-02-27T14:25:00.000Z</time>
      </trkpt>
      <trkpt lat="44.42702" lon="4.51395">
        <ele>453</ele>
        <time>2013-02-27T14:25:01.000Z</time>
      </trkpt>
      <trkpt lat="44.42702" lon="4.51397">
        <ele>452.39999389648</ele>
        <time>2013-02-27T14:25:02.000Z</time>
      </trkpt>
      <trkpt lat="44.42702" lon="4.51399">
        <ele>453</ele>
        <time>2013-02-27T14:25:03.000Z</time>
      </trkpt>
      <trkpt lat="44.42702" lon="4.51401">
        <ele>453.39999389648</ele>
        <time>2013-02-27T14:25:04.000Z</time>
      </trkpt>
      <trkpt lat="44.42702" lon="4.51403">
        <ele>453.39999389648</ele>
        <time>2013-02-27T14:25:05.000Z</time>
      </trkpt>
      <trkpt lat="44.42703" lon="4.51404">
        <ele>453.39999389648</ele>
        <time>2013-02-27T14:25:06.000Z</time>
      </trkpt>
      <trkpt lat="44.42703" lon="4.51406">
        <ele>453.79998779297</ele>
        <time>2013-02-27T14:25:07.000Z</time>
      </trkpt>
      <trkpt lat="44.42702" lon="4.51408">
        <ele>453.79998779297</ele>
        <time>2013-02-27T14:25:08.000Z</time>
      </trkpt>
      <trkpt lat="44.42702" lon="4.51409">
        <ele>453.79998779297</ele>
        <time>2013-02-27T14:25:09.000Z</time>
      </trkpt>
      <trkpt lat="44.42702" lon="4.51411">
        <ele>453.79998779297</ele>
        <time>2013-02-27T14:25:10.000Z</time>
      </trkpt>
      <trkpt lat="44.42702" lon="4.51412">
        <ele>453.79998779297</ele>
        <time>2013-02-27T14:25:11.000Z</time>
      </trkpt>
      <trkpt lat="44.42701" lon="4.51414">
        <ele>453.79998779297</ele>
        <time>2013-02-27T14:25:12.000Z</time>
      </trkpt>
      <trkpt lat="44.42701" lon="4.51415">
        <ele>453.79998779297</ele>
        <time>2013-02-27T14:25:13.000Z</time>
      </trkpt>
      <trkpt lat="44.42701" lon="4.51417">
        <ele>454.39999389648</ele>
        <time>2013-02-27T14:25:14.000Z</time>
      </trkpt>
      <trkpt lat="44.42701" lon="4.51419">
        <ele>454.39999389648</ele>
        <time>2013-02-27T14:25:15.000Z</time>
      </trkpt>
      <trkpt lat="44.42701" lon="4.5142">
        <ele>454.39999389648</ele>
        <time>2013-02-27T14:25:16.000Z</time>
      </trkpt>
      <trkpt lat="44.42701" lon="4.51422">
        <ele>454.39999389648</ele>
        <time>2013-02-27T14:25:17.000Z</time>
      </trkpt>
      <trkpt lat="44.42701" lon="4.51424">
        <ele>453.79998779297</ele>
        <time>2013-02-27T14:25:18.000Z</time>
      </trkpt>
      <trkpt lat="44.42701" lon="4.51426">
        <ele>453.79998779297</ele>
        <time>2013-02-27T14:25:19.000Z</time>
      </trkpt>
      <trkpt lat="44.42701" lon="4.51428">
        <ele>453.79998779297</ele>
        <time>2013-02-27T14:25:20.000Z</time>
      </trkpt>
      <trkpt lat="44.42701" lon="4.5143">
        <ele>453.39999389648</ele>
        <time>2013-02-27T14:25:21.000Z</time>
      </trkpt>
      <trkpt lat="44.42701" lon="4.51432">
        <ele>452.39999389648</ele>
        <time>2013-02-27T14:25:22.000Z</time>
      </trkpt>
      <trkpt lat="44.42701" lon="4.51434">
        <ele>452</ele>
        <time>2013-02-27T14:25:23.000Z</time>
      </trkpt>
      <trkpt lat="44.42701" lon="4.51436">
        <ele>451.39999389648</ele>
        <time>2013-02-27T14:25:24.000Z</time>
      </trkpt>
      <trkpt lat="44.42702" lon="4.51439">
        <ele>451.39999389648</ele>
        <time>2013-02-27T14:25:25.000Z</time>
      </trkpt>
      <trkpt lat="44.42702" lon="4.51441">
        <ele>451.39999389648</ele>
        <time>2013-02-27T14:25:26.000Z</time>
      </trkpt>
      <trkpt lat="44.42702" lon="4.51443">
        <ele>451.39999389648</ele>
        <time>2013-02-27T14:25:27.000Z</time>
      </trkpt>
      <trkpt lat="44.42701" lon="4.51446">
        <ele>451.39999389648</ele>
        <time>2013-02-27T14:25:28.000Z</time>
      </trkpt>
      <trkpt lat="44.42702" lon="4.51448">
        <ele>451.39999389648</ele>
        <time>2013-02-27T14:25:29.000Z</time>
      </trkpt>
      <trkpt lat="44.42702" lon="4.51449">
        <ele>451.39999389648</ele>
        <time>2013-02-27T14:25:30.000Z</time>
      </trkpt>
      <trkpt lat="44.42702" lon="4.51451">
        <ele>451.39999389648</ele>
        <time>2013-02-27T14:25:31.000Z</time>
      </trkpt>
      <trkpt lat="44.42703" lon="4.51453">
        <ele>451.39999389648</ele>
        <time>2013-02-27T14:25:32.000Z</time>
      </trkpt>
      <trkpt lat="44.42704" lon="4.51455">
        <ele>451.39999389648</ele>
        <time>2013-02-27T14:25:33.000Z</time>
      </trkpt>
      <trkpt lat="44.42704" lon="4.51457">
        <ele>451.39999389648</ele>
        <time>2013-02-27T14:25:34.000Z</time>
      </trkpt>
      <trkpt lat="44.42705" lon="4.51459">
        <ele>451.39999389648</ele>
        <time>2013-02-27T14:25:35.000Z</time>
      </trkpt>
      <trkpt lat="44.42706" lon="4.51461">
        <ele>451.39999389648</ele>
        <time>2013-02-27T14:25:36.000Z</time>
      </trkpt>
      <trkpt lat="44.42706" lon="4.51463">
        <ele>452</ele>
        <time>2013-02-27T14:25:37.000Z</time>
      </trkpt>
      <trkpt lat="44.42707" lon="4.51465">
        <ele>452</ele>
        <time>2013-02-27T14:25:38.000Z</time>
      </trkpt>
      <trkpt lat="44.42707" lon="4.51467">
        <ele>452.39999389648</ele>
        <time>2013-02-27T14:25:39.000Z</time>
      </trkpt>
      <trkpt lat="44.42708" lon="4.51469">
        <ele>452.39999389648</ele>
        <time>2013-02-27T14:25:40.000Z</time>
      </trkpt>
      <trkpt lat="44.42708" lon="4.51471">
        <ele>453</ele>
        <time>2013-02-27T14:25:41.000Z</time>
      </trkpt>
      <trkpt lat="44.42709" lon="4.51473">
        <ele>453.39999389648</ele>
        <time>2013-02-27T14:25:42.000Z</time>
      </trkpt>
      <trkpt lat="44.4271" lon="4.51475">
        <ele>453.39999389648</ele>
        <time>2013-02-27T14:25:43.000Z</time>
      </trkpt>
      <trkpt lat="44.42711" lon="4.51477">
        <ele>453.39999389648</ele>
        <time>2013-02-27T14:25:44.000Z</time>
      </trkpt>
      <trkpt lat="44.42712" lon="4.51478">
        <ele>453.79998779297</ele>
        <time>2013-02-27T14:25:45.000Z</time>
      </trkpt>
      <trkpt lat="44.42712" lon="4.5148">
        <ele>453.79998779297</ele>
        <time>2013-02-27T14:25:46.000Z</time>
      </trkpt>
      <trkpt lat="44.42713" lon="4.51482">
        <ele>454.39999389648</ele>
        <time>2013-02-27T14:25:47.000Z</time>
      </trkpt>
      <trkpt lat="44.42713" lon="4.51484">
        <ele>454.39999389648</ele>
        <time>2013-02-27T14:25:48.000Z</time>
      </trkpt>
      <trkpt lat="44.42714" lon="4.51486">
        <ele>454.39999389648</ele>
        <time>2013-02-27T14:25:49.000Z</time>
      </trkpt>
      <trkpt lat="44.42715" lon="4.51488">
        <ele>454.79998779297</ele>
        <time>2013-02-27T14:25:50.000Z</time>
      </trkpt>
      <trkpt lat="44.42716" lon="4.5149">
        <ele>454.79998779297</ele>
        <time>2013-02-27T14:25:51.000Z</time>
      </trkpt>
      <trkpt lat="44.42717" lon="4.51492">
        <ele>454.79998779297</ele>
        <time>2013-02-27T14:25:52.000Z</time>
      </trkpt>
      <trkpt lat="44.42717" lon="4.51493">
        <ele>455.39999389648</ele>
        <time>2013-02-27T14:25:53.000Z</time>
      </trkpt>
      <trkpt lat="44.42718" lon="4.51495">
        <ele>455.39999389648</ele>
        <time>2013-02-27T14:25:54.000Z</time>
      </trkpt>
      <trkpt lat="44.42718" lon="4.51497">
        <ele>455.79998779297</ele>
        <time>2013-02-27T14:25:55.000Z</time>
      </trkpt>
      <trkpt lat="44.42719" lon="4.51499">
        <ele>455.79998779297</ele>
        <time>2013-02-27T14:25:56.000Z</time>
      </trkpt>
      <trkpt lat="44.42719" lon="4.51501">
        <ele>456.20001220703</ele>
        <time>2013-02-27T14:25:57.000Z</time>
      </trkpt>
      <trkpt lat="44.42719" lon="4.51503">
        <ele>456.20001220703</ele>
        <time>2013-02-27T14:25:58.000Z</time>
      </trkpt>
      <trkpt lat="44.4272" lon="4.51505">
        <ele>456.20001220703</ele>
        <time>2013-02-27T14:25:59.000Z</time>
      </trkpt>
      <trkpt lat="44.4272" lon="4.51507">
        <ele>456.20001220703</ele>
        <time>2013-02-27T14:26:00.000Z</time>
      </trkpt>
      <trkpt lat="44.42721" lon="4.51509">
        <ele>456.20001220703</ele>
        <time>2013-02-27T14:26:01.000Z</time>
      </trkpt>
      <trkpt lat="44.42721" lon="4.51511">
        <ele>456.79998779297</ele>
        <time>2013-02-27T14:26:02.000Z</time>
      </trkpt>
      <trkpt lat="44.42721" lon="4.51513">
        <ele>456.79998779297</ele>
        <time>2013-02-27T14:26:03.000Z</time>
      </trkpt>
      <trkpt lat="44.42722" lon="4.51515">
        <ele>456.79998779297</ele>
        <time>2013-02-27T14:26:04.000Z</time>
      </trkpt>
      <trkpt lat="44.42722" lon="4.51517">
        <ele>456.79998779297</ele>
        <time>2013-02-27T14:26:05.000Z</time>
      </trkpt>
      <trkpt lat="44.42723" lon="4.51519">
        <ele>456.79998779297</ele>
        <time>2013-02-27T14:26:06.000Z</time>
      </trkpt>
      <trkpt lat="44.42723" lon="4.51521">
        <ele>457.20001220703</ele>
        <time>2013-02-27T14:26:07.000Z</time>
      </trkpt>
      <trkpt lat="44.42724" lon="4.51523">
        <ele>456.79998779297</ele>
        <time>2013-02-27T14:26:08.000Z</time>
      </trkpt>
      <trkpt lat="44.42724" lon="4.51525">
        <ele>456.20001220703</ele>
        <time>2013-02-27T14:26:09.000Z</time>
      </trkpt>
      <trkpt lat="44.42725" lon="4.51527">
        <ele>455.79998779297</ele>
        <time>2013-02-27T14:26:10.000Z</time>
      </trkpt>
      <trkpt lat="44.42725" lon="4.51529">
        <ele>455.79998779297</ele>
        <time>2013-02-27T14:26:11.000Z</time>
      </trkpt>
      <trkpt lat="44.42725" lon="4.51531">
        <ele>455.39999389648</ele>
        <time>2013-02-27T14:26:12.000Z</time>
      </trkpt>
      <trkpt lat="44.42725" lon="4.51533">
        <ele>455.39999389648</ele>
        <time>2013-02-27T14:26:13.000Z</time>
      </trkpt>
      <trkpt lat="44.42725" lon="4.51535">
        <ele>454.79998779297</ele>
        <time>2013-02-27T14:26:14.000Z</time>
      </trkpt>
      <trkpt lat="44.42725" lon="4.51537">
        <ele>454.79998779297</ele>
        <time>2013-02-27T14:26:15.000Z</time>
      </trkpt>
      <trkpt lat="44.42725" lon="4.51539">
        <ele>454.79998779297</ele>
        <time>2013-02-27T14:26:16.000Z</time>
      </trkpt>
      <trkpt lat="44.42725" lon="4.51541">
        <ele>454.79998779297</ele>
        <time>2013-02-27T14:26:17.000Z</time>
      </trkpt>
      <trkpt lat="44.42725" lon="4.51544">
        <ele>454.79998779297</ele>
        <time>2013-02-27T14:26:18.000Z</time>
      </trkpt>
      <trkpt lat="44.42725" lon="4.51546">
        <ele>454.79998779297</ele>
        <time>2013-02-27T14:26:19.000Z</time>
      </trkpt>
      <trkpt lat="44.42725" lon="4.51548">
        <ele>454.79998779297</ele>
        <time>2013-02-27T14:26:20.000Z</time>
      </trkpt>
      <trkpt lat="44.42725" lon="4.51549">
        <ele>454.39999389648</ele>
        <time>2013-02-27T14:26:21.000Z</time>
      </trkpt>
      <trkpt lat="44.42725" lon="4.51551">
        <ele>454.79998779297</ele>
        <time>2013-02-27T14:26:22.000Z</time>
      </trkpt>
      <trkpt lat="44.42725" lon="4.51553">
        <ele>454.79998779297</ele>
        <time>2013-02-27T14:26:23.000Z</time>
      </trkpt>
      <trkpt lat="44.42724" lon="4.51555">
        <ele>454.79998779297</ele>
        <time>2013-02-27T14:26:24.000Z</time>
      </trkpt>
      <trkpt lat="44.42724" lon="4.51557">
        <ele>454.79998779297</ele>
        <time>2013-02-27T14:26:25.000Z</time>
      </trkpt>
      <trkpt lat="44.42723" lon="4.51559">
        <ele>454.79998779297</ele>
        <time>2013-02-27T14:26:26.000Z</time>
      </trkpt>
      <trkpt lat="44.42723" lon="4.51561">
        <ele>454.79998779297</ele>
        <time>2013-02-27T14:26:27.000Z</time>
      </trkpt>
      <trkpt lat="44.42722" lon="4.51563">
        <ele>454.79998779297</ele>
        <time>2013-02-27T14:26:28.000Z</time>
      </trkpt>
      <trkpt lat="44.42722" lon="4.51565">
        <ele>454.39999389648</ele>
        <time>2013-02-27T14:26:29.000Z</time>
      </trkpt>
      <trkpt lat="44.42721" lon="4.51567">
        <ele>454.39999389648</ele>
        <time>2013-02-27T14:26:30.000Z</time>
      </trkpt>
      <trkpt lat="44.4272" lon="4.51569">
        <ele>454.39999389648</ele>
        <time>2013-02-27T14:26:31.000Z</time>
      </trkpt>
      <trkpt lat="44.4272" lon="4.51571">
        <ele>454.39999389648</ele>
        <time>2013-02-27T14:26:32.000Z</time>
      </trkpt>
      <trkpt lat="44.42719" lon="4.51572">
        <ele>454.39999389648</ele>
        <time>2013-02-27T14:26:33.000Z</time>
      </trkpt>
      <trkpt lat="44.42718" lon="4.51574">
        <ele>454.39999389648</ele>
        <time>2013-02-27T14:26:34.000Z</time>
      </trkpt>
      <trkpt lat="44.42717" lon="4.51576">
        <ele>453.79998779297</ele>
        <time>2013-02-27T14:26:35.000Z</time>
      </trkpt>
      <trkpt lat="44.42717" lon="4.51578">
        <ele>453.39999389648</ele>
        <time>2013-02-27T14:26:36.000Z</time>
      </trkpt>
      <trkpt lat="44.42716" lon="4.51579">
        <ele>453</ele>
        <time>2013-02-27T14:26:37.000Z</time>
      </trkpt>
      <trkpt lat="44.42715" lon="4.51581">
        <ele>453</ele>
        <time>2013-02-27T14:26:38.000Z</time>
      </trkpt>
      <trkpt lat="44.42714" lon="4.51582">
        <ele>453</ele>
        <time>2013-02-27T14:26:39.000Z</time>
      </trkpt>
      <trkpt lat="44.42713" lon="4.51584">
        <ele>452.39999389648</ele>
        <time>2013-02-27T14:26:40.000Z</time>
      </trkpt>
      <trkpt lat="44.42712" lon="4.51585">
        <ele>452.39999389648</ele>
        <time>2013-02-27T14:26:41.000Z</time>
      </trkpt>
      <trkpt lat="44.42711" lon="4.51586">
        <ele>452.39999389648</ele>
        <time>2013-02-27T14:26:42.000Z</time>
      </trkpt>
      <trkpt lat="44.42709" lon="4.51588">
        <ele>452</ele>
        <time>2013-02-27T14:26:43.000Z</time>
      </trkpt>
      <trkpt lat="44.42708" lon="4.51589">
        <ele>451.39999389648</ele>
        <time>2013-02-27T14:26:44.000Z</time>
      </trkpt>
    </trkseg>
  </trk>
</gpx>